<?xml version='1.0' encoding='UTF-8'?><gpx version="1.1" creator="JPX - https://github.com/jenetics/jpx" xmlns="http://www.topografix.com/GPX/1/1"><trk><trkseg><trkpt lat="43.505029781897846" lon="10.62054138714629"><ele>304.0</ele><time>2026-04-19T07:21:37.999Z</time></trkpt><trkpt lat="43.504984659891235" lon="10.620469677781337"><ele>304.0</ele><time>2026-04-19T07:21:44.999Z</time></trkpt><trkpt lat="43.50485938971954" lon="10.620547161846398"><ele>304.0</ele><time>2026-04-19T07:21:45.999Z</time></trkpt><trkpt lat="43.504816109503686" lon="10.62046523858752"><ele>304.0</ele><time>2026-04-19T07:21:48.999Z</time></trkpt><trkpt lat="43.50477435244957" lon="10.620386198425555"><ele>304.0</ele><time>2026-04-19T07:21:57.999Z</time></trkpt><trkpt lat="43.50472686521301" lon="10.620327023821977"><ele>304.0</ele><time>2026-04-19T07:22:02.999Z</time></trkpt><trkpt lat="43.50477843815475" lon="10.620114100108392"><ele>304.7142857142857</ele><time>2026-04-19T07:23:08Z</time></trkpt><trkpt lat="43.50482572690088" lon="10.620053447360077"><ele>305.42857142857144</ele><time>2026-04-19T07:23:10.001Z</time></trkpt><trkpt lat="43.5048958931191" lon="10.619972521614821"><ele>306.14285714285717</ele><time>2026-04-19T07:23:13.001Z</time></trkpt><trkpt lat="43.50496466458704" lon="10.619941611993317"><ele>306.8571428571429</ele><time>2026-04-19T07:23:15.001Z</time></trkpt><trkpt lat="43.50499668732321" lon="10.619864670152262"><ele>307.57142857142856</ele><time>2026-04-19T07:23:17.001Z</time></trkpt><trkpt lat="43.50505278877463" lon="10.619782640315083"><ele>308.28571428571433</ele><time>2026-04-19T07:23:20.001Z</time></trkpt><trkpt lat="43.505080657576585" lon="10.619700455649308"><ele>309.0</ele><time>2026-04-19T07:23:22.001Z</time></trkpt><trkpt lat="43.505108205608245" lon="10.619602274297621"><ele>309.00000000000006</ele><time>2026-04-19T07:23:24.001Z</time></trkpt><trkpt lat="43.50514005685307" lon="10.619512591723423"><ele>309.0</ele><time>2026-04-19T07:23:26.001Z</time></trkpt><trkpt lat="43.50517521749488" lon="10.619425662538204"><ele>309.0</ele><time>2026-04-19T07:23:28.001Z</time></trkpt><trkpt lat="43.50523658511054" lon="10.619359992951773"><ele>309.0</ele><time>2026-04-19T07:23:30.999Z</time></trkpt><trkpt lat="43.505304749422244" lon="10.619374832500451"><ele>309.0</ele><time>2026-04-19T07:23:33.999Z</time></trkpt><trkpt lat="43.50536878668332" lon="10.619391052473357"><ele>309.00000000000006</ele><time>2026-04-19T07:23:36.999Z</time></trkpt><trkpt lat="43.50544891301911" lon="10.61941486524841"><ele>309.0</ele><time>2026-04-19T07:23:39.999Z</time></trkpt><trkpt lat="43.50551469021133" lon="10.619436016781883"><ele>307.7142857142857</ele><time>2026-04-19T07:23:41.999Z</time></trkpt><trkpt lat="43.505579032666645" lon="10.619435102358644"><ele>306.42857142857144</ele><time>2026-04-19T07:23:43.999Z</time></trkpt><trkpt lat="43.505641114099504" lon="10.619458659574606"><ele>305.1428571428571</ele><time>2026-04-19T07:23:45.999Z</time></trkpt><trkpt lat="43.50570530456448" lon="10.61949765146077"><ele>303.8571428571429</ele><time>2026-04-19T07:23:47.999Z</time></trkpt><trkpt lat="43.5057698132961" lon="10.619497689658186"><ele>302.57142857142856</ele><time>2026-04-19T07:23:49.999Z</time></trkpt><trkpt lat="43.50585065389055" lon="10.61945807307474"><ele>301.2857142857143</ele><time>2026-04-19T07:23:52.999Z</time></trkpt><trkpt lat="43.50592354824058" lon="10.619432389647049"><ele>300.0</ele><time>2026-04-19T07:23:55.999Z</time></trkpt><trkpt lat="43.50599784254255" lon="10.619403013660428"><ele>299.99999999999994</ele><time>2026-04-19T07:23:58.999Z</time></trkpt><trkpt lat="43.506091563754026" lon="10.619371559509428"><ele>300.0</ele><time>2026-04-19T07:24:01.999Z</time></trkpt><trkpt lat="43.50615562888116" lon="10.619352820855038"><ele>300.0</ele><time>2026-04-19T07:24:03.999Z</time></trkpt><trkpt lat="43.506222340085905" lon="10.619331495249092"><ele>300.0</ele><time>2026-04-19T07:24:05.999Z</time></trkpt><trkpt lat="43.50628832992136" lon="10.61933839153272"><ele>300.0</ele><time>2026-04-19T07:24:08Z</time></trkpt><trkpt lat="43.5063548260861" lon="10.619337291774572"><ele>299.99999999999994</ele><time>2026-04-19T07:24:10Z</time></trkpt><trkpt lat="43.506431695292484" lon="10.619347430505027"><ele>300.0</ele><time>2026-04-19T07:24:12Z</time></trkpt><trkpt lat="43.50651692094969" lon="10.619358296595497"><ele>298.1666666666667</ele><time>2026-04-19T07:24:14Z</time></trkpt><trkpt lat="43.506594310590685" lon="10.619352458621895"><ele>296.3333333333333</ele><time>2026-04-19T07:24:16Z</time></trkpt><trkpt lat="43.506666415937616" lon="10.61932648301206"><ele>294.5</ele><time>2026-04-19T07:24:18Z</time></trkpt><trkpt lat="43.50674314008395" lon="10.619294143293308"><ele>292.66666666666663</ele><time>2026-04-19T07:24:20Z</time></trkpt><trkpt lat="43.506810711350106" lon="10.61926463637858"><ele>290.8333333333333</ele><time>2026-04-19T07:24:22Z</time></trkpt><trkpt lat="43.506874678811904" lon="10.619234626623266"><ele>289.0</ele><time>2026-04-19T07:24:24Z</time></trkpt><trkpt lat="43.50693895134003" lon="10.619164597889878"><ele>289.0</ele><time>2026-04-19T07:24:26Z</time></trkpt><trkpt lat="43.50699488367402" lon="10.619086604179005"><ele>289.0</ele><time>2026-04-19T07:24:28Z</time></trkpt><trkpt lat="43.50705942712328" lon="10.618997863605626"><ele>289.0</ele><time>2026-04-19T07:24:30Z</time></trkpt><trkpt lat="43.507150613994526" lon="10.618907754042231"><ele>289.0</ele><time>2026-04-19T07:24:32Z</time></trkpt><trkpt lat="43.507209187026476" lon="10.61886247125919"><ele>289.0</ele><time>2026-04-19T07:24:33Z</time></trkpt><trkpt lat="43.507273120277226" lon="10.618821918820364"><ele>289.0</ele><time>2026-04-19T07:24:34Z</time></trkpt><trkpt lat="43.50734335308598" lon="10.618796457552262"><ele>288.3333333333333</ele><time>2026-04-19T07:24:35Z</time></trkpt><trkpt lat="43.50741974045344" lon="10.618777290292"><ele>287.66666666666663</ele><time>2026-04-19T07:24:36Z</time></trkpt><trkpt lat="43.50749250917166" lon="10.618741317044813"><ele>287.0</ele><time>2026-04-19T07:24:37Z</time></trkpt><trkpt lat="43.50755232730384" lon="10.618675024509256"><ele>286.3333333333333</ele><time>2026-04-19T07:24:38Z</time></trkpt><trkpt lat="43.50763089272676" lon="10.618633452134363"><ele>285.6666666666667</ele><time>2026-04-19T07:24:39Z</time></trkpt><trkpt lat="43.50770314680497" lon="10.61856765163808"><ele>285.0</ele><time>2026-04-19T07:24:40Z</time></trkpt><trkpt lat="43.5077606107078" lon="10.618502228160875"><ele>285.0</ele><time>2026-04-19T07:24:41Z</time></trkpt><trkpt lat="43.507811205894654" lon="10.61843461518556"><ele>285.0</ele><time>2026-04-19T07:24:42Z</time></trkpt><trkpt lat="43.507857488292814" lon="10.6183611639052"><ele>285.0</ele><time>2026-04-19T07:24:43Z</time></trkpt><trkpt lat="43.5079028313683" lon="10.618280481102326"><ele>285.0</ele><time>2026-04-19T07:24:44Z</time></trkpt><trkpt lat="43.507944798425484" lon="10.61819910435747"><ele>285.0</ele><time>2026-04-19T07:24:45Z</time></trkpt><trkpt lat="43.50798272071088" lon="10.61811468716863"><ele>285.0</ele><time>2026-04-19T07:24:46Z</time></trkpt><trkpt lat="43.50801690898641" lon="10.618024064675227"><ele>285.0</ele><time>2026-04-19T07:24:47Z</time></trkpt><trkpt lat="43.50804958402329" lon="10.617931650587282"><ele>285.6666666666667</ele><time>2026-04-19T07:24:48Z</time></trkpt><trkpt lat="43.508085662473334" lon="10.61783746241473"><ele>286.3333333333333</ele><time>2026-04-19T07:24:49Z</time></trkpt><trkpt lat="43.50812237367465" lon="10.617741622670373"><ele>287.0</ele><time>2026-04-19T07:24:50Z</time></trkpt><trkpt lat="43.508159152680236" lon="10.617642183921657"><ele>287.66666666666663</ele><time>2026-04-19T07:24:51Z</time></trkpt><trkpt lat="43.508179597188764" lon="10.617531019108085"><ele>288.3333333333333</ele><time>2026-04-19T07:24:52Z</time></trkpt><trkpt lat="43.50821259453027" lon="10.617435420079083"><ele>289.0</ele><time>2026-04-19T07:24:53Z</time></trkpt><trkpt lat="43.50824329023299" lon="10.617352171706987"><ele>289.0</ele><time>2026-04-19T07:24:54Z</time></trkpt><trkpt lat="43.50828611552321" lon="10.617278301034348"><ele>289.0</ele><time>2026-04-19T07:24:55Z</time></trkpt><trkpt lat="43.50832421155755" lon="10.617203452602606"><ele>289.0</ele><time>2026-04-19T07:24:56Z</time></trkpt><trkpt lat="43.508366565540626" lon="10.617121918529708"><ele>289.0</ele><time>2026-04-19T07:24:57Z</time></trkpt><trkpt lat="43.508413779385556" lon="10.617047059876501"><ele>289.0</ele><time>2026-04-19T07:24:58Z</time></trkpt><trkpt lat="43.508463307323666" lon="10.616969400535153"><ele>289.0</ele><time>2026-04-19T07:24:59Z</time></trkpt><trkpt lat="43.508517138188836" lon="10.616892260069772"><ele>289.0</ele><time>2026-04-19T07:25:00Z</time></trkpt><trkpt lat="43.50856486342234" lon="10.61680415280872"><ele>289.5</ele><time>2026-04-19T07:25:01Z</time></trkpt><trkpt lat="43.50861920056311" lon="10.616743969075577"><ele>290.0</ele><time>2026-04-19T07:25:02Z</time></trkpt><trkpt lat="43.508669198320355" lon="10.616685223625785"><ele>290.5</ele><time>2026-04-19T07:25:03Z</time></trkpt><trkpt lat="43.508758601391335" lon="10.616587419276382"><ele>291.0</ele><time>2026-04-19T07:25:05.001Z</time></trkpt><trkpt lat="43.50883821794106" lon="10.616499675422572"><ele>291.5</ele><time>2026-04-19T07:25:07.001Z</time></trkpt><trkpt lat="43.508892772136356" lon="10.6164463156128"><ele>292.0</ele><time>2026-04-19T07:25:30.001Z</time></trkpt><trkpt lat="43.50896427848794" lon="10.616396902780947"><ele>292.0</ele><time>2026-04-19T07:25:34.001Z</time></trkpt><trkpt lat="43.509043024520764" lon="10.616363869486666"><ele>292.0</ele><time>2026-04-19T07:25:36.998Z</time></trkpt><trkpt lat="43.509058229781864" lon="10.616139453679851"><ele>292.0</ele><time>2026-04-19T07:25:38.998Z</time></trkpt><trkpt lat="43.50898399450819" lon="10.61599759896878"><ele>292.0</ele><time>2026-04-19T07:25:40.998Z</time></trkpt><trkpt lat="43.50891452915845" lon="10.61585212499818"><ele>292.2857142857143</ele><time>2026-04-19T07:25:42.998Z</time></trkpt><trkpt lat="43.508915947283015" lon="10.615759858386733"><ele>292.57142857142856</ele><time>2026-04-19T07:25:43.998Z</time></trkpt><trkpt lat="43.508906143374716" lon="10.615671493548902"><ele>292.8571428571429</ele><time>2026-04-19T07:25:44.998Z</time></trkpt><trkpt lat="43.50889471531534" lon="10.615582567980073"><ele>293.1428571428571</ele><time>2026-04-19T07:25:45.998Z</time></trkpt><trkpt lat="43.508880115506244" lon="10.615497842662375"><ele>293.42857142857144</ele><time>2026-04-19T07:25:46.998Z</time></trkpt><trkpt lat="43.50885332986696" lon="10.615411219754805"><ele>293.7142857142857</ele><time>2026-04-19T07:25:47.998Z</time></trkpt><trkpt lat="43.508822928276636" lon="10.615324794581067"><ele>294.0</ele><time>2026-04-19T07:25:48.998Z</time></trkpt><trkpt lat="43.50879233664769" lon="10.615243557249256"><ele>294.3333333333333</ele><time>2026-04-19T07:25:49.998Z</time></trkpt><trkpt lat="43.50874378086365" lon="10.615176578680655"><ele>294.6666666666667</ele><time>2026-04-19T07:25:50.999Z</time></trkpt><trkpt lat="43.50871002271849" lon="10.61509666495957"><ele>295.0</ele><time>2026-04-19T07:25:51.999Z</time></trkpt><trkpt lat="43.508656641342526" lon="10.615045364798032"><ele>295.33333333333337</ele><time>2026-04-19T07:25:52.999Z</time></trkpt><trkpt lat="43.50856920355414" lon="10.615086357335278"><ele>295.6666666666667</ele><time>2026-04-19T07:25:53.999Z</time></trkpt><trkpt lat="43.50852221517967" lon="10.61517884920891"><ele>296.0</ele><time>2026-04-19T07:25:54.999Z</time></trkpt><trkpt lat="43.50848055614804" lon="10.615269372754154"><ele>297.6666666666667</ele><time>2026-04-19T07:25:55.999Z</time></trkpt><trkpt lat="43.50844002119685" lon="10.615345320227727"><ele>299.33333333333337</ele><time>2026-04-19T07:25:56.999Z</time></trkpt><trkpt lat="43.50834730566792" lon="10.615459727007757"><ele>301.0</ele><time>2026-04-19T07:25:58.999Z</time></trkpt><trkpt lat="43.50828654241776" lon="10.615499886507886"><ele>302.6666666666667</ele><time>2026-04-19T07:25:59.999Z</time></trkpt><trkpt lat="43.508219890376985" lon="10.615540988309728"><ele>304.3333333333333</ele><time>2026-04-19T07:26:00.999Z</time></trkpt><trkpt lat="43.50815265146489" lon="10.615580920326318"><ele>306.0</ele><time>2026-04-19T07:26:01.999Z</time></trkpt><trkpt lat="43.50808221762286" lon="10.615602238981097"><ele>306.0</ele><time>2026-04-19T07:26:02.999Z</time></trkpt><trkpt lat="43.508011220676195" lon="10.61561819342961"><ele>306.0</ele><time>2026-04-19T07:26:03.999Z</time></trkpt><trkpt lat="43.507940540231026" lon="10.615637125508528"><ele>306.0</ele><time>2026-04-19T07:26:04.999Z</time></trkpt><trkpt lat="43.50787123676493" lon="10.615664541046769"><ele>306.0</ele><time>2026-04-19T07:26:05.999Z</time></trkpt><trkpt lat="43.50780238929384" lon="10.615700123576195"><ele>306.0</ele><time>2026-04-19T07:26:06.999Z</time></trkpt><trkpt lat="43.50773298252755" lon="10.61574152111345"><ele>306.0</ele><time>2026-04-19T07:26:07.999Z</time></trkpt><trkpt lat="43.50766252997024" lon="10.615786968704965"><ele>306.0</ele><time>2026-04-19T07:26:08.999Z</time></trkpt><trkpt lat="43.5075911456514" lon="10.61583524007573"><ele>307.6666666666667</ele><time>2026-04-19T07:26:09.999Z</time></trkpt><trkpt lat="43.50751890509783" lon="10.615880460177326"><ele>309.3333333333333</ele><time>2026-04-19T07:26:10.999Z</time></trkpt><trkpt lat="43.507443431247395" lon="10.615926503727746"><ele>311.0</ele><time>2026-04-19T07:26:11.999Z</time></trkpt><trkpt lat="43.507360611967066" lon="10.615960856766883"><ele>312.66666666666663</ele><time>2026-04-19T07:26:12.999Z</time></trkpt><trkpt lat="43.50727406389636" lon="10.615973594066116"><ele>314.3333333333333</ele><time>2026-04-19T07:26:13.999Z</time></trkpt><trkpt lat="43.50719859757275" lon="10.615981730581513"><ele>316.0</ele><time>2026-04-19T07:26:14.999Z</time></trkpt><trkpt lat="43.50711878652239" lon="10.61599854625183"><ele>317.16666666666663</ele><time>2026-04-19T07:26:15.999Z</time></trkpt><trkpt lat="43.50703630405375" lon="10.616011769380414"><ele>318.3333333333333</ele><time>2026-04-19T07:26:16.999Z</time></trkpt><trkpt lat="43.50695384420744" lon="10.616025275498856"><ele>319.5</ele><time>2026-04-19T07:26:17.999Z</time></trkpt><trkpt lat="43.50687366185687" lon="10.616035912787387"><ele>320.6666666666667</ele><time>2026-04-19T07:26:18.999Z</time></trkpt><trkpt lat="43.50680891575094" lon="10.61604227667749"><ele>321.83333333333337</ele><time>2026-04-19T07:26:19.999Z</time></trkpt><trkpt lat="43.50670434316725" lon="10.615962764789742"><ele>323.0</ele><time>2026-04-19T07:26:22Z</time></trkpt><trkpt lat="43.50661650601755" lon="10.615852007287002"><ele>323.0</ele><time>2026-04-19T07:26:24Z</time></trkpt><trkpt lat="43.5065383707244" lon="10.615740885441518"><ele>323.0</ele><time>2026-04-19T07:26:26Z</time></trkpt><trkpt lat="43.506468193025896" lon="10.615629854912452"><ele>323.0</ele><time>2026-04-19T07:26:28Z</time></trkpt><trkpt lat="43.50639887712746" lon="10.615499092994488"><ele>323.0</ele><time>2026-04-19T07:26:30Z</time></trkpt><trkpt lat="43.50635959856034" lon="10.615418222659963"><ele>323.0</ele><time>2026-04-19T07:26:31Z</time></trkpt><trkpt lat="43.506318874176934" lon="10.615333883097161"><ele>324.5</ele><time>2026-04-19T07:26:32Z</time></trkpt><trkpt lat="43.50628108955577" lon="10.615253204979318"><ele>326.0</ele><time>2026-04-19T07:26:33Z</time></trkpt><trkpt lat="43.50621664580436" lon="10.61511891292482"><ele>327.5</ele><time>2026-04-19T07:26:35Z</time></trkpt><trkpt lat="43.50616339264374" lon="10.615022405756166"><ele>329.0</ele><time>2026-04-19T07:26:37Z</time></trkpt><trkpt lat="43.50611652470501" lon="10.61493595212525"><ele>330.5</ele><time>2026-04-19T07:26:40Z</time></trkpt><trkpt lat="43.50604275539398" lon="10.614939013489563"><ele>332.0</ele><time>2026-04-19T07:26:48Z</time></trkpt><trkpt lat="43.50608524386942" lon="10.614874958360724"><ele>332.0</ele><time>2026-04-19T07:26:53Z</time></trkpt><trkpt lat="43.50600593598046" lon="10.61495003589742"><ele>332.0</ele><time>2026-04-19T07:26:55Z</time></trkpt><trkpt lat="43.506084022718376" lon="10.61487257723041"><ele>332.0</ele><time>2026-04-19T07:26:59Z</time></trkpt><trkpt lat="43.50600436645141" lon="10.614943316089"><ele>332.0</ele><time>2026-04-19T07:27:08Z</time></trkpt><trkpt lat="43.50605252328946" lon="10.614847084856436"><ele>332.0</ele><time>2026-04-19T07:27:12.001Z</time></trkpt><trkpt lat="43.50592939080185" lon="10.614949890108623"><ele>332.0</ele><time>2026-04-19T07:27:13.001Z</time></trkpt><trkpt lat="43.50586576194089" lon="10.614926824509984"><ele>332.0</ele><time>2026-04-19T07:27:17.001Z</time></trkpt><trkpt lat="43.5058125951762" lon="10.61485361658211"><ele>332.0</ele><time>2026-04-19T07:27:19.001Z</time></trkpt><trkpt lat="43.50574378166236" lon="10.61480867230463"><ele>332.0</ele><time>2026-04-19T07:27:22.001Z</time></trkpt><trkpt lat="43.50566913509098" lon="10.614799108653857"><ele>332.0</ele><time>2026-04-19T07:27:41.001Z</time></trkpt><trkpt lat="43.505609409077735" lon="10.614841824234313"><ele>332.0</ele><time>2026-04-19T07:27:45.998Z</time></trkpt><trkpt lat="43.505667666372645" lon="10.614784649883763"><ele>332.0</ele><time>2026-04-19T07:30:55.001Z</time></trkpt><trkpt lat="43.50576294875544" lon="10.614990783228418"><ele>332.0</ele><time>2026-04-19T07:32:37.001Z</time></trkpt><trkpt lat="43.505799913473275" lon="10.614829850784556"><ele>332.0</ele><time>2026-04-19T07:32:40.001Z</time></trkpt><trkpt lat="43.50574006554744" lon="10.614800767466347"><ele>332.0</ele><time>2026-04-19T07:32:54.001Z</time></trkpt><trkpt lat="43.50566061872896" lon="10.614800650737157"><ele>332.0</ele><time>2026-04-19T07:36:56.001Z</time></trkpt><trkpt lat="43.50560205449331" lon="10.614847490180729"><ele>332.0</ele><time>2026-04-19T07:37:02.001Z</time></trkpt><trkpt lat="43.505545888680466" lon="10.614898811178412"><ele>332.0</ele><time>2026-04-19T07:37:20.001Z</time></trkpt><trkpt lat="43.505477417661055" lon="10.614964321889392"><ele>332.0</ele><time>2026-04-19T07:37:24.001Z</time></trkpt><trkpt lat="43.50542638278134" lon="10.615018778420698"><ele>332.0</ele><time>2026-04-19T07:37:27.001Z</time></trkpt><trkpt lat="43.505359217825045" lon="10.615092090778171"><ele>332.0</ele><time>2026-04-19T07:37:30.001Z</time></trkpt><trkpt lat="43.50530628858809" lon="10.61514147392823"><ele>332.0</ele><time>2026-04-19T07:37:32.001Z</time></trkpt><trkpt lat="43.50524145780801" lon="10.615200111112586"><ele>332.0</ele><time>2026-04-19T07:37:36.001Z</time></trkpt><trkpt lat="43.50518182648245" lon="10.615259677610783"><ele>332.0</ele><time>2026-04-19T07:37:41.002Z</time></trkpt><trkpt lat="43.505136663264715" lon="10.615328786513508"><ele>332.0</ele><time>2026-04-19T07:37:46.002Z</time></trkpt><trkpt lat="43.50507754512804" lon="10.615398087252307"><ele>334.0</ele><time>2026-04-19T07:37:50.002Z</time></trkpt><trkpt lat="43.50501297391765" lon="10.615473780602773"><ele>336.0</ele><time>2026-04-19T07:37:53.002Z</time></trkpt><trkpt lat="43.504944410651945" lon="10.615488756887094"><ele>338.0</ele><time>2026-04-19T07:37:56.002Z</time></trkpt><trkpt lat="43.50487915239285" lon="10.615457890850962"><ele>340.0</ele><time>2026-04-19T07:37:58.002Z</time></trkpt><trkpt lat="43.50459498639355" lon="10.615072830751213"><ele>344.3333333333333</ele><time>2026-04-19T07:38:00.002Z</time></trkpt><trkpt lat="43.50452661605975" lon="10.615040566828029"><ele>348.66666666666663</ele><time>2026-04-19T07:38:02.002Z</time></trkpt><trkpt lat="43.504465416725026" lon="10.615011591941233"><ele>353.0</ele><time>2026-04-19T07:38:04.002Z</time></trkpt><trkpt lat="43.50437251231861" lon="10.614964495755505"><ele>357.3333333333333</ele><time>2026-04-19T07:38:07.002Z</time></trkpt><trkpt lat="43.50431060785513" lon="10.614884035953581"><ele>361.6666666666667</ele><time>2026-04-19T07:38:09.002Z</time></trkpt><trkpt lat="43.50425043629218" lon="10.61478651307134"><ele>366.0</ele><time>2026-04-19T07:38:11.002Z</time></trkpt><trkpt lat="43.50418645283155" lon="10.614731505939815"><ele>366.0</ele><time>2026-04-19T07:38:13.001Z</time></trkpt><trkpt lat="43.504108218168156" lon="10.614690207106369"><ele>366.0</ele><time>2026-04-19T07:38:15Z</time></trkpt><trkpt lat="43.504021376992576" lon="10.614670900358277"><ele>366.0</ele><time>2026-04-19T07:38:17Z</time></trkpt><trkpt lat="43.50394400942569" lon="10.614700828559037"><ele>366.0</ele><time>2026-04-19T07:38:19Z</time></trkpt><trkpt lat="43.50387606963026" lon="10.614721325071974"><ele>366.0</ele><time>2026-04-19T07:38:21Z</time></trkpt><trkpt lat="43.50381267102913" lon="10.614758206266636"><ele>366.0</ele><time>2026-04-19T07:38:27Z</time></trkpt><trkpt lat="43.50374465124074" lon="10.614787699503863"><ele>368.2857142857143</ele><time>2026-04-19T07:38:33Z</time></trkpt><trkpt lat="43.503681182549684" lon="10.614819258730902"><ele>370.57142857142856</ele><time>2026-04-19T07:38:38Z</time></trkpt><trkpt lat="43.50361050931845" lon="10.614839685960897"><ele>372.8571428571429</ele><time>2026-04-19T07:38:43Z</time></trkpt><trkpt lat="43.50355309070531" lon="10.614875388247734"><ele>375.1428571428571</ele><time>2026-04-19T07:38:46Z</time></trkpt><trkpt lat="43.5035071726282" lon="10.614959939617993"><ele>377.4285714285714</ele><time>2026-04-19T07:38:49Z</time></trkpt><trkpt lat="43.50347669904389" lon="10.615052563239818"><ele>379.7142857142857</ele><time>2026-04-19T07:38:53Z</time></trkpt><trkpt lat="43.50344450843361" lon="10.61515162476351"><ele>382.0</ele><time>2026-04-19T07:38:56Z</time></trkpt><trkpt lat="43.50341096171457" lon="10.615262060952103"><ele>382.0</ele><time>2026-04-19T07:38:59Z</time></trkpt><trkpt lat="43.50336322922621" lon="10.615374084877953"><ele>382.0</ele><time>2026-04-19T07:39:02.001Z</time></trkpt><trkpt lat="43.50329028772093" lon="10.615452297867511"><ele>382.0</ele><time>2026-04-19T07:39:05.001Z</time></trkpt><trkpt lat="43.50322465963852" lon="10.615492801032316"><ele>382.0</ele><time>2026-04-19T07:39:07.001Z</time></trkpt><trkpt lat="43.50313935280578" lon="10.61551981604157"><ele>382.0</ele><time>2026-04-19T07:39:10.001Z</time></trkpt><trkpt lat="43.503052022885015" lon="10.615545576955567"><ele>382.0</ele><time>2026-04-19T07:39:13.001Z</time></trkpt><trkpt lat="43.50298187614943" lon="10.615594881339222"><ele>382.0</ele><time>2026-04-19T07:39:16.001Z</time></trkpt><trkpt lat="43.502928798049375" lon="10.61566937658815"><ele>382.0</ele><time>2026-04-19T07:39:18.001Z</time></trkpt><trkpt lat="43.50287231221145" lon="10.615775829707232"><ele>382.0</ele><time>2026-04-19T07:39:20.001Z</time></trkpt><trkpt lat="43.50280566262245" lon="10.615869953852714"><ele>382.0</ele><time>2026-04-19T07:39:22.001Z</time></trkpt><trkpt lat="43.50273887415656" lon="10.615924546077528"><ele>382.0</ele><time>2026-04-19T07:39:24.001Z</time></trkpt><trkpt lat="43.502662112446714" lon="10.615917158809772"><ele>382.0</ele><time>2026-04-19T07:39:26.001Z</time></trkpt><trkpt lat="43.50258197805337" lon="10.615870229926918"><ele>383.0</ele><time>2026-04-19T07:39:28.001Z</time></trkpt><trkpt lat="43.502507859738884" lon="10.615818680360574"><ele>384.0</ele><time>2026-04-19T07:39:30.001Z</time></trkpt><trkpt lat="43.50244140696837" lon="10.615756534623042"><ele>385.0</ele><time>2026-04-19T07:39:32.001Z</time></trkpt><trkpt lat="43.50237870743416" lon="10.615706169458564"><ele>386.0</ele><time>2026-04-19T07:39:34.001Z</time></trkpt><trkpt lat="43.50231227143563" lon="10.615682436780377"><ele>387.00000000000006</ele><time>2026-04-19T07:39:37.001Z</time></trkpt><trkpt lat="43.502243252313626" lon="10.615656276097303"><ele>388.0</ele><time>2026-04-19T07:39:42.001Z</time></trkpt><trkpt lat="43.50215481032618" lon="10.61564767442313"><ele>389.1666666666667</ele><time>2026-04-19T07:39:45.001Z</time></trkpt><trkpt lat="43.50206753951158" lon="10.615657576458098"><ele>390.33333333333337</ele><time>2026-04-19T07:39:48.001Z</time></trkpt><trkpt lat="43.50199069500514" lon="10.615673623116118"><ele>391.5</ele><time>2026-04-19T07:39:51.001Z</time></trkpt><trkpt lat="43.50192453145419" lon="10.615681269681659"><ele>392.66666666666663</ele><time>2026-04-19T07:39:53.001Z</time></trkpt><trkpt lat="43.50186078882241" lon="10.615678361939802"><ele>393.8333333333333</ele><time>2026-04-19T07:39:55.001Z</time></trkpt><trkpt lat="43.50177184754942" lon="10.615678699283833"><ele>395.0</ele><time>2026-04-19T07:39:58.001Z</time></trkpt><trkpt lat="43.5016869512465" lon="10.615698491606462"><ele>394.99999999999994</ele><time>2026-04-19T07:40:01.001Z</time></trkpt><trkpt lat="43.50162626295167" lon="10.615744776815696"><ele>395.0</ele><time>2026-04-19T07:40:04.001Z</time></trkpt><trkpt lat="43.50155591686408" lon="10.615798630468829"><ele>395.0</ele><time>2026-04-19T07:40:07.001Z</time></trkpt><trkpt lat="43.50148442649944" lon="10.61585618444761"><ele>395.0</ele><time>2026-04-19T07:40:09.001Z</time></trkpt><trkpt lat="43.50141840470587" lon="10.61592390338219"><ele>394.99999999999994</ele><time>2026-04-19T07:40:11.001Z</time></trkpt><trkpt lat="43.50136741868626" lon="10.616031334809495"><ele>395.0</ele><time>2026-04-19T07:40:13.001Z</time></trkpt><trkpt lat="43.50130908849472" lon="10.616129311590894"><ele>393.7142857142857</ele><time>2026-04-19T07:40:15.001Z</time></trkpt><trkpt lat="43.501253097608966" lon="10.616198026069766"><ele>392.42857142857144</ele><time>2026-04-19T07:40:17.001Z</time></trkpt><trkpt lat="43.50119259265203" lon="10.616245797245224"><ele>391.14285714285717</ele><time>2026-04-19T07:40:18.999Z</time></trkpt><trkpt lat="43.50111653802999" lon="10.616256156093273"><ele>389.8571428571429</ele><time>2026-04-19T07:40:21Z</time></trkpt><trkpt lat="43.50103438971136" lon="10.616268664526745"><ele>388.57142857142856</ele><time>2026-04-19T07:40:23Z</time></trkpt><trkpt lat="43.5009641669014" lon="10.616280156083153"><ele>387.28571428571433</ele><time>2026-04-19T07:40:25Z</time></trkpt><trkpt lat="43.50090240327707" lon="10.616299753782966"><ele>386.0</ele><time>2026-04-19T07:40:27Z</time></trkpt><trkpt lat="43.50083895960768" lon="10.616316067484721"><ele>385.99999999999994</ele><time>2026-04-19T07:40:29Z</time></trkpt><trkpt lat="43.50076481828612" lon="10.616329726001787"><ele>386.0</ele><time>2026-04-19T07:40:31Z</time></trkpt><trkpt lat="43.500685550520615" lon="10.616325468343224"><ele>386.0</ele><time>2026-04-19T07:40:33Z</time></trkpt><trkpt lat="43.5006210289848" lon="10.61630079838999"><ele>386.0</ele><time>2026-04-19T07:40:35Z</time></trkpt><trkpt lat="43.500556917635585" lon="10.616231459424485"><ele>385.99999999999994</ele><time>2026-04-19T07:40:40Z</time></trkpt><trkpt lat="43.500496377846105" lon="10.61616907319129"><ele>386.0</ele><time>2026-04-19T07:40:42Z</time></trkpt><trkpt lat="43.50042631446514" lon="10.616118420874567"><ele>387.42857142857144</ele><time>2026-04-19T07:40:45Z</time></trkpt><trkpt lat="43.50036046177827" lon="10.616105082233103"><ele>388.8571428571429</ele><time>2026-04-19T07:40:47Z</time></trkpt><trkpt lat="43.50028789041968" lon="10.616128705024998"><ele>390.28571428571433</ele><time>2026-04-19T07:40:49Z</time></trkpt><trkpt lat="43.50022850333934" lon="10.616163518386161"><ele>391.7142857142857</ele><time>2026-04-19T07:40:51Z</time></trkpt><trkpt lat="43.50016960868758" lon="10.616213738600466"><ele>393.1428571428571</ele><time>2026-04-19T07:40:53Z</time></trkpt><trkpt lat="43.50011381636721" lon="10.61626751232814"><ele>394.5714285714286</ele><time>2026-04-19T07:40:55Z</time></trkpt><trkpt lat="43.500054712650225" lon="10.616312041545378"><ele>396.0</ele><time>2026-04-19T07:40:57Z</time></trkpt><trkpt lat="43.49998845884257" lon="10.616359377708642"><ele>395.8571428571429</ele><time>2026-04-19T07:40:59Z</time></trkpt><trkpt lat="43.49992865424425" lon="10.616390475917624"><ele>395.71428571428567</ele><time>2026-04-19T07:41:01Z</time></trkpt><trkpt lat="43.49986216041797" lon="10.616416472797155"><ele>395.57142857142856</ele><time>2026-04-19T07:41:03Z</time></trkpt><trkpt lat="43.49978341110518" lon="10.61640861191116"><ele>395.42857142857144</ele><time>2026-04-19T07:41:05Z</time></trkpt><trkpt lat="43.4997214926653" lon="10.616375876953736"><ele>395.28571428571433</ele><time>2026-04-19T07:41:07Z</time></trkpt><trkpt lat="43.49965601743273" lon="10.616340868769159"><ele>395.1428571428571</ele><time>2026-04-19T07:41:09Z</time></trkpt><trkpt lat="43.49958862274171" lon="10.616316010454405"><ele>395.0</ele><time>2026-04-19T07:41:11Z</time></trkpt><trkpt lat="43.49951077808894" lon="10.616305675018774"><ele>395.0</ele><time>2026-04-19T07:41:13Z</time></trkpt><trkpt lat="43.49941268479204" lon="10.616308898844192"><ele>395.0</ele><time>2026-04-19T07:41:15Z</time></trkpt><trkpt lat="43.49930611575784" lon="10.616305181464357"><ele>395.0</ele><time>2026-04-19T07:41:17Z</time></trkpt><trkpt lat="43.49920635368813" lon="10.616262142620286"><ele>395.0</ele><time>2026-04-19T07:41:19Z</time></trkpt><trkpt lat="43.499126303002406" lon="10.616219980937963"><ele>395.0</ele><time>2026-04-19T07:41:21Z</time></trkpt><trkpt lat="43.49906463979093" lon="10.616191003223602"><ele>396.8333333333333</ele><time>2026-04-19T07:41:23Z</time></trkpt><trkpt lat="43.498992996854284" lon="10.616145249695936"><ele>398.66666666666663</ele><time>2026-04-19T07:41:26Z</time></trkpt><trkpt lat="43.49893874695535" lon="10.616077499837095"><ele>400.5</ele><time>2026-04-19T07:41:29Z</time></trkpt><trkpt lat="43.49895223950725" lon="10.615969704751208"><ele>402.33333333333337</ele><time>2026-04-19T07:41:31Z</time></trkpt><trkpt lat="43.49899975831335" lon="10.615868185120435"><ele>404.1666666666667</ele><time>2026-04-19T07:41:34Z</time></trkpt><trkpt lat="43.49904464476978" lon="10.615760568239521"><ele>406.0</ele><time>2026-04-19T07:41:37Z</time></trkpt><trkpt lat="43.49909124928423" lon="10.615661692211761"><ele>406.0</ele><time>2026-04-19T07:41:40Z</time></trkpt><trkpt lat="43.499125739135586" lon="10.615570654360678"><ele>406.0</ele><time>2026-04-19T07:41:42Z</time></trkpt><trkpt lat="43.49915070084312" lon="10.61547771202585"><ele>406.0</ele><time>2026-04-19T07:41:44Z</time></trkpt><trkpt lat="43.49912954321162" lon="10.61535258318971"><ele>406.0</ele><time>2026-04-19T07:41:47Z</time></trkpt><trkpt lat="43.49909769287318" lon="10.615274724610968"><ele>406.0</ele><time>2026-04-19T07:41:49Z</time></trkpt><trkpt lat="43.499051269578906" lon="10.615215738877874"><ele>406.0</ele><time>2026-04-19T07:41:53Z</time></trkpt><trkpt lat="43.49899166611887" lon="10.615164038369695"><ele>406.0</ele><time>2026-04-19T07:41:57Z</time></trkpt><trkpt lat="43.49892823353651" lon="10.615118527830141"><ele>406.83333333333337</ele><time>2026-04-19T07:42:00.001Z</time></trkpt><trkpt lat="43.49886171487315" lon="10.615094588149805"><ele>407.6666666666667</ele><time>2026-04-19T07:42:02.001Z</time></trkpt><trkpt lat="43.49878030172522" lon="10.615096244745015"><ele>408.5</ele><time>2026-04-19T07:42:04.001Z</time></trkpt><trkpt lat="43.49869902312161" lon="10.615088001368102"><ele>409.33333333333337</ele><time>2026-04-19T07:42:06.001Z</time></trkpt><trkpt lat="43.498608536664136" lon="10.615040892625005"><ele>410.1666666666667</ele><time>2026-04-19T07:42:08.001Z</time></trkpt><trkpt lat="43.49856331838395" lon="10.614972512025552"><ele>411.0</ele><time>2026-04-19T07:42:10.001Z</time></trkpt><trkpt lat="43.49853338000995" lon="10.614894674026734"><ele>412.2857142857143</ele><time>2026-04-19T07:42:13.001Z</time></trkpt><trkpt lat="43.49850390366994" lon="10.614807240112151"><ele>413.57142857142856</ele><time>2026-04-19T07:42:16.001Z</time></trkpt><trkpt lat="43.49846940355287" lon="10.61471548108805"><ele>414.8571428571429</ele><time>2026-04-19T07:42:19.001Z</time></trkpt><trkpt lat="43.49842963784655" lon="10.614611681907931"><ele>416.1428571428571</ele><time>2026-04-19T07:42:22.001Z</time></trkpt><trkpt lat="43.49839922316515" lon="10.61452745759093"><ele>417.42857142857144</ele><time>2026-04-19T07:42:23.999Z</time></trkpt><trkpt lat="43.49837132474904" lon="10.614438392579391"><ele>418.7142857142857</ele><time>2026-04-19T07:42:28.999Z</time></trkpt><trkpt lat="43.4983394530436" lon="10.614337068644868"><ele>420.0</ele><time>2026-04-19T07:42:33.999Z</time></trkpt><trkpt lat="43.49828970736721" lon="10.614228209431905"><ele>420.0</ele><time>2026-04-19T07:42:36.999Z</time></trkpt><trkpt lat="43.498248634025124" lon="10.614137942950974"><ele>420.0</ele><time>2026-04-19T07:42:38.999Z</time></trkpt><trkpt lat="43.49821765553411" lon="10.614016356527518"><ele>420.0</ele><time>2026-04-19T07:42:40.999Z</time></trkpt><trkpt lat="43.498195706601635" lon="10.613918775026393"><ele>420.0</ele><time>2026-04-19T07:42:42.999Z</time></trkpt><trkpt lat="43.49816914831751" lon="10.613798489535275"><ele>420.0</ele><time>2026-04-19T07:42:45.999Z</time></trkpt><trkpt lat="43.49813276409575" lon="10.613683954504108"><ele>420.0</ele><time>2026-04-19T07:42:49Z</time></trkpt><trkpt lat="43.498090747064616" lon="10.613579266881352"><ele>419.8333333333333</ele><time>2026-04-19T07:42:52Z</time></trkpt><trkpt lat="43.49804074735388" lon="10.613477545433351"><ele>419.66666666666663</ele><time>2026-04-19T07:42:54Z</time></trkpt><trkpt lat="43.4979926939582" lon="10.613402930215015"><ele>419.5</ele><time>2026-04-19T07:42:56Z</time></trkpt><trkpt lat="43.49792777424043" lon="10.613326448832076"><ele>419.3333333333333</ele><time>2026-04-19T07:42:59Z</time></trkpt><trkpt lat="43.49786857556395" lon="10.613273541075992"><ele>419.16666666666663</ele><time>2026-04-19T07:43:01Z</time></trkpt><trkpt lat="43.49779963692008" lon="10.613211253271642"><ele>419.0</ele><time>2026-04-19T07:43:03Z</time></trkpt><trkpt lat="43.497744625802405" lon="10.613142178738329"><ele>419.57142857142856</ele><time>2026-04-19T07:43:05Z</time></trkpt><trkpt lat="43.49768540383021" lon="10.613067199560746"><ele>420.1428571428571</ele><time>2026-04-19T07:43:07Z</time></trkpt><trkpt lat="43.49762848747133" lon="10.612998884084544"><ele>420.71428571428567</ele><time>2026-04-19T07:43:09Z</time></trkpt><trkpt lat="43.49757700596472" lon="10.61293529255362"><ele>421.2857142857143</ele><time>2026-04-19T07:43:11Z</time></trkpt><trkpt lat="43.49752565148883" lon="10.612869484616885"><ele>421.8571428571429</ele><time>2026-04-19T07:43:13Z</time></trkpt><trkpt lat="43.49746990308334" lon="10.612807031943783"><ele>422.4285714285714</ele><time>2026-04-19T07:43:15Z</time></trkpt><trkpt lat="43.497405600971355" lon="10.61273880676241"><ele>423.0</ele><time>2026-04-19T07:43:17Z</time></trkpt><trkpt lat="43.497326684017835" lon="10.612669015285888"><ele>423.4285714285714</ele><time>2026-04-19T07:43:20Z</time></trkpt><trkpt lat="43.497267661960336" lon="10.612623720611207"><ele>423.8571428571429</ele><time>2026-04-19T07:43:22Z</time></trkpt><trkpt lat="43.49721394245136" lon="10.61256025674781"><ele>424.2857142857143</ele><time>2026-04-19T07:43:24Z</time></trkpt><trkpt lat="43.49716944010584" lon="10.6124921565611"><ele>424.71428571428567</ele><time>2026-04-19T07:43:26Z</time></trkpt><trkpt lat="43.497127975216195" lon="10.61239930795437"><ele>425.1428571428571</ele><time>2026-04-19T07:43:29Z</time></trkpt><trkpt lat="43.49710187139831" lon="10.612291494948831"><ele>425.57142857142856</ele><time>2026-04-19T07:43:32Z</time></trkpt><trkpt lat="43.49707808270966" lon="10.612197584688609"><ele>426.0</ele><time>2026-04-19T07:43:34Z</time></trkpt><trkpt lat="43.49701614626566" lon="10.612101727883347"><ele>425.99999999999994</ele><time>2026-04-19T07:43:37Z</time></trkpt><trkpt lat="43.49698863424598" lon="10.612017949747164"><ele>426.0</ele><time>2026-04-19T07:43:40Z</time></trkpt><trkpt lat="43.49697393901838" lon="10.611930812443537"><ele>426.0</ele><time>2026-04-19T07:43:42Z</time></trkpt><trkpt lat="43.496971826841296" lon="10.611808549490895"><ele>426.0</ele><time>2026-04-19T07:43:44Z</time></trkpt><trkpt lat="43.49698709677109" lon="10.611723768061474"><ele>426.0</ele><time>2026-04-19T07:43:46Z</time></trkpt><trkpt lat="43.496992281444534" lon="10.611633062445176"><ele>425.99999999999994</ele><time>2026-04-19T07:43:48Z</time></trkpt><trkpt lat="43.49699854783824" lon="10.611539513613767"><ele>426.0</ele><time>2026-04-19T07:43:50.001Z</time></trkpt><trkpt lat="43.49702299529245" lon="10.611335237139988"><ele>427.8333333333333</ele><time>2026-04-19T07:43:53.001Z</time></trkpt><trkpt lat="43.49700916558639" lon="10.611243189142467"><ele>429.66666666666663</ele><time>2026-04-19T07:43:55.001Z</time></trkpt><trkpt lat="43.49698116291526" lon="10.611150273464112"><ele>431.5</ele><time>2026-04-19T07:43:57.001Z</time></trkpt><trkpt lat="43.49692492920363" lon="10.611083102889223"><ele>433.3333333333333</ele><time>2026-04-19T07:43:59.001Z</time></trkpt><trkpt lat="43.49687730302272" lon="10.611001535547308"><ele>435.16666666666663</ele><time>2026-04-19T07:44:01.001Z</time></trkpt><trkpt lat="43.49682035735204" lon="10.61091781576775"><ele>437.0</ele><time>2026-04-19T07:44:03.001Z</time></trkpt><trkpt lat="43.49676504300732" lon="10.610832640511562"><ele>439.66666666666663</ele><time>2026-04-19T07:44:05.001Z</time></trkpt><trkpt lat="43.49672041379388" lon="10.610752758379988"><ele>442.3333333333333</ele><time>2026-04-19T07:44:07.001Z</time></trkpt><trkpt lat="43.49667168684862" lon="10.610679181096186"><ele>445.0</ele><time>2026-04-19T07:44:09.001Z</time></trkpt><trkpt lat="43.49660987271732" lon="10.610609783860248"><ele>447.66666666666663</ele><time>2026-04-19T07:44:11.001Z</time></trkpt><trkpt lat="43.49657110604317" lon="10.610532649181781"><ele>450.3333333333333</ele><time>2026-04-19T07:44:13.001Z</time></trkpt><trkpt lat="43.4965200088565" lon="10.610448704631557"><ele>453.0</ele><time>2026-04-19T07:44:17.001Z</time></trkpt><trkpt lat="43.49648996266393" lon="10.610350418499735"><ele>452.8333333333333</ele><time>2026-04-19T07:44:22.001Z</time></trkpt><trkpt lat="43.4964355324449" lon="10.610278587732479"><ele>452.66666666666663</ele><time>2026-04-19T07:44:26.001Z</time></trkpt><trkpt lat="43.49638744228512" lon="10.610211396367955"><ele>452.5</ele><time>2026-04-19T07:44:29.001Z</time></trkpt><trkpt lat="43.49632691286554" lon="10.610131611960472"><ele>452.3333333333333</ele><time>2026-04-19T07:44:32.999Z</time></trkpt><trkpt lat="43.496266769712335" lon="10.61003756438979"><ele>452.16666666666663</ele><time>2026-04-19T07:44:35.999Z</time></trkpt><trkpt lat="43.4962139761452" lon="10.609966991536009"><ele>452.0</ele><time>2026-04-19T07:44:38.999Z</time></trkpt><trkpt lat="43.49615642319084" lon="10.609872159321334"><ele>451.99999999999994</ele><time>2026-04-19T07:44:41.999Z</time></trkpt><trkpt lat="43.49610897550483" lon="10.609813496924584"><ele>452.0</ele><time>2026-04-19T07:44:44.999Z</time></trkpt><trkpt lat="43.4960305534641" lon="10.609715569774249"><ele>452.0</ele><time>2026-04-19T07:44:47.999Z</time></trkpt><trkpt lat="43.49598679353197" lon="10.609627997706667"><ele>452.0</ele><time>2026-04-19T07:44:50.999Z</time></trkpt><trkpt lat="43.49594279241936" lon="10.609534978359967"><ele>451.99999999999994</ele><time>2026-04-19T07:44:52.999Z</time></trkpt><trkpt lat="43.49592527456673" lon="10.609444264544349"><ele>452.0</ele><time>2026-04-19T07:44:56Z</time></trkpt><trkpt lat="43.49591320995781" lon="10.609353207940067"><ele>453.66666666666663</ele><time>2026-04-19T07:44:57Z</time></trkpt><trkpt lat="43.495934607402525" lon="10.609255077654309"><ele>455.3333333333333</ele><time>2026-04-19T07:45:00Z</time></trkpt><trkpt lat="43.49595893232665" lon="10.609137527620916"><ele>457.0</ele><time>2026-04-19T07:45:02Z</time></trkpt><trkpt lat="43.495988076845656" lon="10.609052044265297"><ele>458.66666666666663</ele><time>2026-04-19T07:45:04Z</time></trkpt><trkpt lat="43.496019489062014" lon="10.60895158600047"><ele>460.3333333333333</ele><time>2026-04-19T07:45:06Z</time></trkpt><trkpt lat="43.49604884251483" lon="10.608855174944331"><ele>462.0</ele><time>2026-04-19T07:45:08Z</time></trkpt><trkpt lat="43.49606397657741" lon="10.60876978302419"><ele>462.0</ele><time>2026-04-19T07:45:10Z</time></trkpt><trkpt lat="43.49607335078815" lon="10.608683060482036"><ele>462.0</ele><time>2026-04-19T07:45:13Z</time></trkpt><trkpt lat="43.49608547905045" lon="10.60858481377811"><ele>462.0</ele><time>2026-04-19T07:45:16Z</time></trkpt><trkpt lat="43.49611577175497" lon="10.608491679259759"><ele>462.0</ele><time>2026-04-19T07:45:19Z</time></trkpt><trkpt lat="43.49615866782933" lon="10.608408143206372"><ele>462.0</ele><time>2026-04-19T07:45:24Z</time></trkpt><trkpt lat="43.4962120686537" lon="10.608332780908588"><ele>462.0</ele><time>2026-04-19T07:45:29Z</time></trkpt><trkpt lat="43.49626229885174" lon="10.60826652225698"><ele>462.0</ele><time>2026-04-19T07:45:33Z</time></trkpt><trkpt lat="43.49629687274333" lon="10.60818978187643"><ele>462.7142857142857</ele><time>2026-04-19T07:45:38Z</time></trkpt><trkpt lat="43.49633883987763" lon="10.608100561612687"><ele>463.42857142857144</ele><time>2026-04-19T07:45:42Z</time></trkpt><trkpt lat="43.49635686813907" lon="10.607990157593171"><ele>464.1428571428571</ele><time>2026-04-19T07:45:45Z</time></trkpt><trkpt lat="43.49637588635822" lon="10.607897398613684"><ele>464.85714285714283</ele><time>2026-04-19T07:45:49Z</time></trkpt><trkpt lat="43.49636535575256" lon="10.607788345488819"><ele>465.57142857142856</ele><time>2026-04-19T07:45:54.001Z</time></trkpt><trkpt lat="43.49635741732005" lon="10.607685677946927"><ele>466.2857142857142</ele><time>2026-04-19T07:46:01.001Z</time></trkpt><trkpt lat="43.49636027855323" lon="10.607598471729924"><ele>466.99999999999994</ele><time>2026-04-19T07:46:09.001Z</time></trkpt><trkpt lat="43.49635655076842" lon="10.607506110551869"><ele>466.99999999999994</ele><time>2026-04-19T07:46:16.001Z</time></trkpt><trkpt lat="43.49637230065539" lon="10.607399115946588"><ele>467.0</ele><time>2026-04-19T07:46:22.001Z</time></trkpt><trkpt lat="43.496386181130724" lon="10.607299344035349"><ele>467.0</ele><time>2026-04-19T07:46:26.001Z</time></trkpt><trkpt lat="43.49640563250397" lon="10.60718360970496"><ele>467.0</ele><time>2026-04-19T07:46:30.001Z</time></trkpt><trkpt lat="43.49641988818549" lon="10.60707806701977"><ele>466.99999999999994</ele><time>2026-04-19T07:46:33.001Z</time></trkpt><trkpt lat="43.49640903802353" lon="10.606951392325717"><ele>467.0</ele><time>2026-04-19T07:46:35.999Z</time></trkpt><trkpt lat="43.49635537716358" lon="10.606856959396303"><ele>467.16666666666663</ele><time>2026-04-19T07:46:38.999Z</time></trkpt><trkpt lat="43.49628438031663" lon="10.606817579635717"><ele>467.3333333333333</ele><time>2026-04-19T07:46:41.999Z</time></trkpt><trkpt lat="43.49621812891025" lon="10.606800984911967"><ele>467.5</ele><time>2026-04-19T07:46:43.999Z</time></trkpt><trkpt lat="43.49614668147316" lon="10.606796441402974"><ele>467.66666666666663</ele><time>2026-04-19T07:46:45.999Z</time></trkpt><trkpt lat="43.496062119364396" lon="10.606793470048308"><ele>467.8333333333333</ele><time>2026-04-19T07:46:48.999Z</time></trkpt><trkpt lat="43.49597311733265" lon="10.606793986797891"><ele>468.0</ele><time>2026-04-19T07:46:51.999Z</time></trkpt><trkpt lat="43.49590435068716" lon="10.606798305810681"><ele>468.0</ele><time>2026-04-19T07:46:53.999Z</time></trkpt><trkpt lat="43.49582968114085" lon="10.606795754266399"><ele>468.0</ele><time>2026-04-19T07:46:55.999Z</time></trkpt><trkpt lat="43.495759953774005" lon="10.6067897629884"><ele>468.0</ele><time>2026-04-19T07:46:58Z</time></trkpt><trkpt lat="43.49568286273638" lon="10.606761870508326"><ele>468.0</ele><time>2026-04-19T07:47:01Z</time></trkpt><trkpt lat="43.49560717691077" lon="10.606685463760831"><ele>468.0</ele><time>2026-04-19T07:47:04Z</time></trkpt><trkpt lat="43.4955837375339" lon="10.60659453728457"><ele>468.0</ele><time>2026-04-19T07:47:06Z</time></trkpt><trkpt lat="43.49557663427849" lon="10.606498570362772"><ele>468.0</ele><time>2026-04-19T07:47:08Z</time></trkpt><trkpt lat="43.495603817326774" lon="10.606371411588183"><ele>468.0</ele><time>2026-04-19T07:47:11Z</time></trkpt><trkpt lat="43.49566256407541" lon="10.606281033498654"><ele>468.0</ele><time>2026-04-19T07:47:13Z</time></trkpt><trkpt lat="43.49571020654217" lon="10.60621870843104"><ele>468.0</ele><time>2026-04-19T07:47:15Z</time></trkpt><trkpt lat="43.49573168771211" lon="10.606123831260362"><ele>468.0</ele><time>2026-04-19T07:47:18Z</time></trkpt><trkpt lat="43.495692910256835" lon="10.606022727663659"><ele>468.0</ele><time>2026-04-19T07:47:20Z</time></trkpt><trkpt lat="43.49565443320989" lon="10.605921748664555"><ele>467.5714285714286</ele><time>2026-04-19T07:47:23Z</time></trkpt><trkpt lat="43.49561206118843" lon="10.605829265170346"><ele>467.1428571428572</ele><time>2026-04-19T07:47:27Z</time></trkpt><trkpt lat="43.49557399978708" lon="10.605756987404487"><ele>466.7142857142857</ele><time>2026-04-19T07:47:33Z</time></trkpt><trkpt lat="43.49554009687455" lon="10.60567031042329"><ele>466.28571428571433</ele><time>2026-04-19T07:47:42Z</time></trkpt><trkpt lat="43.495510677014565" lon="10.605580821993444"><ele>465.8571428571429</ele><time>2026-04-19T07:47:44Z</time></trkpt><trkpt lat="43.495481932736986" lon="10.605493665044632"><ele>465.42857142857144</ele><time>2026-04-19T07:47:46Z</time></trkpt><trkpt lat="43.495448525516984" lon="10.605398241343421"><ele>465.0</ele><time>2026-04-19T07:47:48Z</time></trkpt><trkpt lat="43.495428916618096" lon="10.605296110736422"><ele>464.71428571428567</ele><time>2026-04-19T07:47:50Z</time></trkpt><trkpt lat="43.49542843986429" lon="10.605178134832652"><ele>464.42857142857144</ele><time>2026-04-19T07:47:52.001Z</time></trkpt><trkpt lat="43.495424576564645" lon="10.605068403953394"><ele>464.1428571428571</ele><time>2026-04-19T07:47:54.001Z</time></trkpt><trkpt lat="43.495419815113856" lon="10.604968157656192"><ele>463.85714285714283</ele><time>2026-04-19T07:47:56.001Z</time></trkpt><trkpt lat="43.495411919131975" lon="10.604868135948799"><ele>463.57142857142856</ele><time>2026-04-19T07:47:58.001Z</time></trkpt><trkpt lat="43.495402898040545" lon="10.604775681880698"><ele>463.2857142857143</ele><time>2026-04-19T07:48:53.999Z</time></trkpt><trkpt lat="43.49534882039564" lon="10.604720714737018"><ele>463.0</ele><time>2026-04-19T07:49:02Z</time></trkpt><trkpt lat="43.495289424823845" lon="10.604653987187513"><ele>463.0</ele><time>2026-04-19T07:49:08Z</time></trkpt><trkpt lat="43.49522509807768" lon="10.604584803182046"><ele>462.99999999999994</ele><time>2026-04-19T07:49:11Z</time></trkpt><trkpt lat="43.49518039944631" lon="10.604510657181663"><ele>463.0</ele><time>2026-04-19T07:49:14Z</time></trkpt><trkpt lat="43.49513473698712" lon="10.604424008134647"><ele>463.0</ele><time>2026-04-19T07:49:18Z</time></trkpt><trkpt lat="43.495086753677285" lon="10.604360123280289"><ele>462.99999999999994</ele><time>2026-04-19T07:49:22Z</time></trkpt><trkpt lat="43.49503080635667" lon="10.604300503016892"><ele>463.0</ele><time>2026-04-19T07:49:25Z</time></trkpt><trkpt lat="43.49496016312477" lon="10.60425497775921"><ele>463.0</ele><time>2026-04-19T07:49:28Z</time></trkpt><trkpt lat="43.49488087431031" lon="10.60421562025106"><ele>463.00000000000006</ele><time>2026-04-19T07:49:31Z</time></trkpt><trkpt lat="43.49481440145472" lon="10.604185972344785"><ele>463.0</ele><time>2026-04-19T07:49:33Z</time></trkpt><trkpt lat="43.49473962981474" lon="10.60416229149522"><ele>463.0</ele><time>2026-04-19T07:49:35Z</time></trkpt><trkpt lat="43.49464944528203" lon="10.604158101874164"><ele>463.0</ele><time>2026-04-19T07:49:38Z</time></trkpt><trkpt lat="43.494594211480546" lon="10.604106883403894"><ele>463.00000000000006</ele><time>2026-04-19T07:49:40Z</time></trkpt><trkpt lat="43.494545241559116" lon="10.604025118211274"><ele>463.0</ele><time>2026-04-19T07:49:42Z</time></trkpt><trkpt lat="43.494482710410495" lon="10.603974226919052"><ele>463.00000000000006</ele><time>2026-04-19T07:49:44Z</time></trkpt><trkpt lat="43.49442513502509" lon="10.60392484461243"><ele>463.0</ele><time>2026-04-19T07:49:46.001Z</time></trkpt><trkpt lat="43.494369704482914" lon="10.603849508986505"><ele>463.0</ele><time>2026-04-19T07:49:48.001Z</time></trkpt><trkpt lat="43.494317685025806" lon="10.603748105283293"><ele>463.0</ele><time>2026-04-19T07:49:51.001Z</time></trkpt><trkpt lat="43.494252674738284" lon="10.603661396380966"><ele>463.00000000000006</ele><time>2026-04-19T07:49:54.001Z</time></trkpt><trkpt lat="43.49420464961872" lon="10.603586613477685"><ele>463.0</ele><time>2026-04-19T07:49:56.001Z</time></trkpt><trkpt lat="43.49415280709481" lon="10.603512377175276"><ele>464.2</ele><time>2026-04-19T07:49:58.001Z</time></trkpt><trkpt lat="43.49409502470143" lon="10.60341867787694"><ele>465.4</ele><time>2026-04-19T07:50:00.001Z</time></trkpt><trkpt lat="43.49404727586754" lon="10.60330871940209"><ele>466.59999999999997</ele><time>2026-04-19T07:50:02.001Z</time></trkpt><trkpt lat="43.493985546537786" lon="10.603179514328977"><ele>467.79999999999995</ele><time>2026-04-19T07:50:04.001Z</time></trkpt><trkpt lat="43.49391029365273" lon="10.603055158379266"><ele>469.0</ele><time>2026-04-19T07:50:06.001Z</time></trkpt><trkpt lat="43.493852702403856" lon="10.602927493485858"><ele>469.4</ele><time>2026-04-19T07:50:08.001Z</time></trkpt><trkpt lat="43.493815264308026" lon="10.60279353258117"><ele>469.79999999999995</ele><time>2026-04-19T07:50:10.001Z</time></trkpt><trkpt lat="43.49380647594549" lon="10.60264287391935"><ele>470.20000000000005</ele><time>2026-04-19T07:50:12.001Z</time></trkpt><trkpt lat="43.4937919292982" lon="10.602478811113267"><ele>470.6</ele><time>2026-04-19T07:50:14.001Z</time></trkpt><trkpt lat="43.49377593934357" lon="10.602391257137265"><ele>471.0</ele><time>2026-04-19T07:50:15.001Z</time></trkpt><trkpt lat="43.493756630956455" lon="10.60222788117428"><ele>469.75</ele><time>2026-04-19T07:50:17.001Z</time></trkpt><trkpt lat="43.493735319556706" lon="10.602089711805446"><ele>468.5</ele><time>2026-04-19T07:50:19.001Z</time></trkpt><trkpt lat="43.4936881225022" lon="10.601952581592862"><ele>467.25</ele><time>2026-04-19T07:50:21.001Z</time></trkpt><trkpt lat="43.49362641305481" lon="10.601819395915262"><ele>466.0</ele><time>2026-04-19T07:50:23.001Z</time></trkpt><trkpt lat="43.493536164121856" lon="10.601681538194057"><ele>466.0</ele><time>2026-04-19T07:50:25.001Z</time></trkpt><trkpt lat="43.49347454662295" lon="10.601616083162686"><ele>466.0</ele><time>2026-04-19T07:50:26.001Z</time></trkpt><trkpt lat="43.493409865467825" lon="10.60155485894941"><ele>466.0</ele><time>2026-04-19T07:50:27.001Z</time></trkpt><trkpt lat="43.49335839162279" lon="10.601482163457252"><ele>466.0</ele><time>2026-04-19T07:50:28.001Z</time></trkpt><trkpt lat="43.4933102174083" lon="10.601422067063897"><ele>466.0</ele><time>2026-04-19T07:50:29.001Z</time></trkpt><trkpt lat="43.49325572650129" lon="10.601361781333598"><ele>466.0</ele><time>2026-04-19T07:50:30.001Z</time></trkpt><trkpt lat="43.49318159294447" lon="10.601308283367484"><ele>466.0</ele><time>2026-04-19T07:50:31.001Z</time></trkpt><trkpt lat="43.493109730826006" lon="10.601270981505808"><ele>466.00000000000006</ele><time>2026-04-19T07:50:32.001Z</time></trkpt><trkpt lat="43.49304730763082" lon="10.601248258919195"><ele>466.0</ele><time>2026-04-19T07:50:33.001Z</time></trkpt><trkpt lat="43.492936719636205" lon="10.601166309289884"><ele>466.0</ele><time>2026-04-19T07:50:35.001Z</time></trkpt><trkpt lat="43.492869702704645" lon="10.601113039494958"><ele>466.0</ele><time>2026-04-19T07:50:36.001Z</time></trkpt><trkpt lat="43.49279979488501" lon="10.601043820514372"><ele>466.00000000000006</ele><time>2026-04-19T07:50:37.001Z</time></trkpt><trkpt lat="43.492743545956735" lon="10.600967419573369"><ele>466.0</ele><time>2026-04-19T07:50:38.001Z</time></trkpt><trkpt lat="43.49269816156734" lon="10.600882294998051"><ele>465.50000000000006</ele><time>2026-04-19T07:50:39.001Z</time></trkpt><trkpt lat="43.49264843524416" lon="10.600811440428119"><ele>465.0</ele><time>2026-04-19T07:50:40.001Z</time></trkpt><trkpt lat="43.49259510601274" lon="10.600746522404144"><ele>464.5</ele><time>2026-04-19T07:50:41.001Z</time></trkpt><trkpt lat="43.49254762290589" lon="10.600682366269897"><ele>464.0</ele><time>2026-04-19T07:50:42.001Z</time></trkpt><trkpt lat="43.49247159172636" lon="10.600561844289727"><ele>463.50000000000006</ele><time>2026-04-19T07:50:44.002Z</time></trkpt><trkpt lat="43.492446525777666" lon="10.600467846770183"><ele>463.0</ele><time>2026-04-19T07:50:46.002Z</time></trkpt><trkpt lat="43.492454084440766" lon="10.6003662497771"><ele>463.79999999999995</ele><time>2026-04-19T07:50:54Z</time></trkpt><trkpt lat="43.492431288539414" lon="10.600247887653987"><ele>464.59999999999997</ele><time>2026-04-19T07:50:56Z</time></trkpt><trkpt lat="43.492383142110626" lon="10.600145901733521"><ele>465.40000000000003</ele><time>2026-04-19T07:50:58Z</time></trkpt><trkpt lat="43.4922940649066" lon="10.600045342690287"><ele>466.20000000000005</ele><time>2026-04-19T07:51:00Z</time></trkpt><trkpt lat="43.49218233551866" lon="10.599975662705365"><ele>467.0</ele><time>2026-04-19T07:51:02Z</time></trkpt><trkpt lat="43.49211786700592" lon="10.59994109889307"><ele>467.16666666666663</ele><time>2026-04-19T07:51:03Z</time></trkpt><trkpt lat="43.49205641305208" lon="10.599895019402808"><ele>467.3333333333333</ele><time>2026-04-19T07:51:04Z</time></trkpt><trkpt lat="43.491998890797426" lon="10.599821090376633"><ele>467.5</ele><time>2026-04-19T07:51:05Z</time></trkpt><trkpt lat="43.49196111460286" lon="10.599726361945997"><ele>467.66666666666663</ele><time>2026-04-19T07:51:06Z</time></trkpt><trkpt lat="43.4919412505658" lon="10.599633932777397"><ele>467.8333333333333</ele><time>2026-04-19T07:51:07Z</time></trkpt><trkpt lat="43.49194632011413" lon="10.599481005979321"><ele>468.0</ele><time>2026-04-19T07:51:09Z</time></trkpt><trkpt lat="43.49195069889607" lon="10.59939171589486"><ele>468.0</ele><time>2026-04-19T07:51:10Z</time></trkpt><trkpt lat="43.49195487082693" lon="10.59923513632442"><ele>467.99999999999994</ele><time>2026-04-19T07:51:12Z</time></trkpt><trkpt lat="43.49193705417891" lon="10.599080752507035"><ele>467.99999999999994</ele><time>2026-04-19T07:51:14Z</time></trkpt><trkpt lat="43.49194146237002" lon="10.598911983583113"><ele>468.0</ele><time>2026-04-19T07:51:16Z</time></trkpt><trkpt lat="43.491952333560874" lon="10.598822037100009"><ele>468.0</ele><time>2026-04-19T07:51:17Z</time></trkpt><trkpt lat="43.49196975353211" lon="10.598726640430444"><ele>469.0</ele><time>2026-04-19T07:51:18Z</time></trkpt><trkpt lat="43.49198871248258" lon="10.598631717487581"><ele>470.0</ele><time>2026-04-19T07:51:19Z</time></trkpt><trkpt lat="43.49200256699408" lon="10.598534459260037"><ele>471.0</ele><time>2026-04-19T07:51:20Z</time></trkpt><trkpt lat="43.49201889576066" lon="10.598441835741156"><ele>472.0</ele><time>2026-04-19T07:51:21Z</time></trkpt><trkpt lat="43.492052387990896" lon="10.598290978358387"><ele>473.0</ele><time>2026-04-19T07:51:23Z</time></trkpt><trkpt lat="43.492051564535565" lon="10.598159009171038"><ele>474.0</ele><time>2026-04-19T07:51:25Z</time></trkpt><trkpt lat="43.49202001268071" lon="10.598002630694797"><ele>474.0</ele><time>2026-04-19T07:51:27Z</time></trkpt><trkpt lat="43.492002593648316" lon="10.59791137170142"><ele>474.0</ele><time>2026-04-19T07:51:28Z</time></trkpt><trkpt lat="43.49198730657536" lon="10.597817986727602"><ele>474.0</ele><time>2026-04-19T07:51:29Z</time></trkpt><trkpt lat="43.491971572353" lon="10.597652649501264"><ele>474.0</ele><time>2026-04-19T07:51:31Z</time></trkpt><trkpt lat="43.49195973510305" lon="10.597492982824932"><ele>474.0</ele><time>2026-04-19T07:51:33Z</time></trkpt><trkpt lat="43.491937271246734" lon="10.597353831643659"><ele>475.5</ele><time>2026-04-19T07:51:35Z</time></trkpt><trkpt lat="43.491899393239486" lon="10.597227000088706"><ele>477.0</ele><time>2026-04-19T07:51:37Z</time></trkpt><trkpt lat="43.49187759528832" lon="10.597115390116354"><ele>478.5</ele><time>2026-04-19T07:51:39Z</time></trkpt><trkpt lat="43.49187451638246" lon="10.597024662082882"><ele>480.0</ele><time>2026-04-19T07:51:42Z</time></trkpt><trkpt lat="43.49186908703376" lon="10.59691831883686"><ele>481.5</ele><time>2026-04-19T07:51:45.001Z</time></trkpt><trkpt lat="43.491849000355295" lon="10.5968255917557"><ele>483.0</ele><time>2026-04-19T07:51:49.001Z</time></trkpt><trkpt lat="43.49182238441026" lon="10.596743418824643"><ele>483.59999999999997</ele><time>2026-04-19T07:51:55.001Z</time></trkpt><trkpt lat="43.491734438968415" lon="10.596644622279666"><ele>484.19999999999993</ele><time>2026-04-19T07:51:58.001Z</time></trkpt><trkpt lat="43.491638856086986" lon="10.596582954122274"><ele>484.8</ele><time>2026-04-19T07:52:00.001Z</time></trkpt><trkpt lat="43.491531773234115" lon="10.59650775059904"><ele>485.4</ele><time>2026-04-19T07:52:02.001Z</time></trkpt><trkpt lat="43.49144274004198" lon="10.596440373891589"><ele>486.0</ele><time>2026-04-19T07:52:04.001Z</time></trkpt><trkpt lat="43.491355700300176" lon="10.5963869259787"><ele>486.0</ele><time>2026-04-19T07:52:06.001Z</time></trkpt><trkpt lat="43.491264719023484" lon="10.596355536690485"><ele>486.0</ele><time>2026-04-19T07:52:08.001Z</time></trkpt><trkpt lat="43.49116500862151" lon="10.596346484084048"><ele>486.0</ele><time>2026-04-19T07:52:10.001Z</time></trkpt><trkpt lat="43.49106290630936" lon="10.59634247288861"><ele>486.0</ele><time>2026-04-19T07:52:12.001Z</time></trkpt><trkpt lat="43.49096370598931" lon="10.596340804921605"><ele>486.0</ele><time>2026-04-19T07:52:14.001Z</time></trkpt><trkpt lat="43.49086760034113" lon="10.596338695565201"><ele>486.6666666666667</ele><time>2026-04-19T07:52:16.001Z</time></trkpt><trkpt lat="43.49077222375334" lon="10.596332235271392"><ele>487.33333333333337</ele><time>2026-04-19T07:52:18.001Z</time></trkpt><trkpt lat="43.49068254070079" lon="10.59631994912366"><ele>488.0</ele><time>2026-04-19T07:52:20.001Z</time></trkpt><trkpt lat="43.490608469113454" lon="10.596300575123005"><ele>488.6666666666667</ele><time>2026-04-19T07:52:22.001Z</time></trkpt><trkpt lat="43.49054193748734" lon="10.596276980372277"><ele>489.33333333333337</ele><time>2026-04-19T07:52:25.001Z</time></trkpt><trkpt lat="43.490470891540795" lon="10.596288383739811"><ele>490.0</ele><time>2026-04-19T07:52:50.002Z</time></trkpt><trkpt lat="43.490384987289254" lon="10.596327540314567"><ele>490.4</ele><time>2026-04-19T07:52:52.002Z</time></trkpt><trkpt lat="43.490285089546376" lon="10.59634937481899"><ele>490.8</ele><time>2026-04-19T07:52:53.999Z</time></trkpt><trkpt lat="43.49019442792971" lon="10.596399201957212"><ele>491.20000000000005</ele><time>2026-04-19T07:52:55.999Z</time></trkpt><trkpt lat="43.490102346906056" lon="10.59647998753296"><ele>491.6</ele><time>2026-04-19T07:52:57.999Z</time></trkpt><trkpt lat="43.49000581043694" lon="10.596547561606055"><ele>492.0</ele><time>2026-04-19T07:52:59.999Z</time></trkpt><trkpt lat="43.489900288475994" lon="10.596570356686174"><ele>492.0</ele><time>2026-04-19T07:53:01.999Z</time></trkpt><trkpt lat="43.4897779655822" lon="10.59656778414689"><ele>492.00000000000006</ele><time>2026-04-19T07:53:03.999Z</time></trkpt><trkpt lat="43.489712937780425" lon="10.596561272330627"><ele>492.00000000000006</ele><time>2026-04-19T07:53:04.999Z</time></trkpt><trkpt lat="43.48964966758379" lon="10.596552225221188"><ele>492.0</ele><time>2026-04-19T07:53:05.999Z</time></trkpt><trkpt lat="43.489533380928435" lon="10.596529601253073"><ele>492.0</ele><time>2026-04-19T07:53:07.999Z</time></trkpt><trkpt lat="43.48942191872785" lon="10.59650456974138"><ele>492.0</ele><time>2026-04-19T07:53:09.999Z</time></trkpt><trkpt lat="43.48930519423934" lon="10.596455910151066"><ele>492.00000000000006</ele><time>2026-04-19T07:53:11.999Z</time></trkpt><trkpt lat="43.48923356450913" lon="10.59640629315909"><ele>492.00000000000006</ele><time>2026-04-19T07:53:12.999Z</time></trkpt><trkpt lat="43.489149953590115" lon="10.596354430161579"><ele>492.0</ele><time>2026-04-19T07:53:13.999Z</time></trkpt><trkpt lat="43.489042236460534" lon="10.59634410438276"><ele>492.0</ele><time>2026-04-19T07:53:14.999Z</time></trkpt><trkpt lat="43.48893028366011" lon="10.596369702882548"><ele>492.0</ele><time>2026-04-19T07:53:15.999Z</time></trkpt><trkpt lat="43.48883392732689" lon="10.596448146954481"><ele>492.0</ele><time>2026-04-19T07:53:16.999Z</time></trkpt><trkpt lat="43.48873731251424" lon="10.596576320756586"><ele>492.0</ele><time>2026-04-19T07:53:17.999Z</time></trkpt><trkpt lat="43.48865419235241" lon="10.596726941027665"><ele>492.0</ele><time>2026-04-19T07:53:18.999Z</time></trkpt><trkpt lat="43.48857853219448" lon="10.5968894778591"><ele>492.6</ele><time>2026-04-19T07:53:20Z</time></trkpt><trkpt lat="43.488513578659635" lon="10.597046634958764"><ele>493.20000000000005</ele><time>2026-04-19T07:53:21Z</time></trkpt><trkpt lat="43.48847236252674" lon="10.597188454541525"><ele>493.8</ele><time>2026-04-19T07:53:22Z</time></trkpt><trkpt lat="43.48843142750982" lon="10.597314946795827"><ele>494.4</ele><time>2026-04-19T07:53:23Z</time></trkpt><trkpt lat="43.48838145653764" lon="10.59742148127801"><ele>495.0</ele><time>2026-04-19T07:53:24Z</time></trkpt><trkpt lat="43.48831783006839" lon="10.59752587894075"><ele>495.0</ele><time>2026-04-19T07:53:25Z</time></trkpt><trkpt lat="43.48824131574504" lon="10.59763485711559"><ele>495.0</ele><time>2026-04-19T07:53:26Z</time></trkpt><trkpt lat="43.48816444775999" lon="10.597731413364372"><ele>495.0</ele><time>2026-04-19T07:53:27Z</time></trkpt><trkpt lat="43.48808376330663" lon="10.597830279608996"><ele>495.0</ele><time>2026-04-19T07:53:28Z</time></trkpt><trkpt lat="43.48801295233671" lon="10.597928051697906"><ele>495.0</ele><time>2026-04-19T07:53:29Z</time></trkpt><trkpt lat="43.48793527154608" lon="10.598020069547808"><ele>494.0</ele><time>2026-04-19T07:53:30Z</time></trkpt><trkpt lat="43.48783556958454" lon="10.598101541203857"><ele>493.0</ele><time>2026-04-19T07:53:31Z</time></trkpt><trkpt lat="43.48777151313869" lon="10.598227669829836"><ele>492.0</ele><time>2026-04-19T07:53:32Z</time></trkpt><trkpt lat="43.48776284737357" lon="10.598389287173799"><ele>491.0</ele><time>2026-04-19T07:53:33Z</time></trkpt><trkpt lat="43.48775310861737" lon="10.598542674439818"><ele>491.75</ele><time>2026-04-19T07:53:34Z</time></trkpt><trkpt lat="43.48771224885197" lon="10.598689861094535"><ele>492.5</ele><time>2026-04-19T07:53:35Z</time></trkpt><trkpt lat="43.487634249487904" lon="10.598815893660312"><ele>493.25</ele><time>2026-04-19T07:53:36Z</time></trkpt><trkpt lat="43.487545739208365" lon="10.598944677679757"><ele>494.0</ele><time>2026-04-19T07:53:37Z</time></trkpt><trkpt lat="43.4874503351166" lon="10.599081211792623"><ele>494.0</ele><time>2026-04-19T07:53:38Z</time></trkpt><trkpt lat="43.487356551420156" lon="10.5992179058706"><ele>494.0</ele><time>2026-04-19T07:53:39Z</time></trkpt><trkpt lat="43.48726147263655" lon="10.599356271905743"><ele>494.0</ele><time>2026-04-19T07:53:40Z</time></trkpt><trkpt lat="43.48716771809209" lon="10.599487192207478"><ele>494.0</ele><time>2026-04-19T07:53:41Z</time></trkpt><trkpt lat="43.48706716884516" lon="10.599608303813902"><ele>496.0</ele><time>2026-04-19T07:53:42Z</time></trkpt><trkpt lat="43.48695269914299" lon="10.599696640622936"><ele>498.0</ele><time>2026-04-19T07:53:43Z</time></trkpt><trkpt lat="43.48682675837513" lon="10.59975119863602"><ele>500.0</ele><time>2026-04-19T07:53:44Z</time></trkpt><trkpt lat="43.48669132168573" lon="10.599767029055132"><ele>502.0</ele><time>2026-04-19T07:53:45Z</time></trkpt><trkpt lat="43.48655531137023" lon="10.599747937577927"><ele>502.0</ele><time>2026-04-19T07:53:46Z</time></trkpt><trkpt lat="43.486414502121214" lon="10.599714512226967"><ele>502.0</ele><time>2026-04-19T07:53:47Z</time></trkpt><trkpt lat="43.48626931949315" lon="10.599680202069079"><ele>502.0</ele><time>2026-04-19T07:53:48Z</time></trkpt><trkpt lat="43.48611640575449" lon="10.599648425544586"><ele>502.0</ele><time>2026-04-19T07:53:49Z</time></trkpt><trkpt lat="43.485969828100664" lon="10.599630451733367"><ele>503.25</ele><time>2026-04-19T07:53:50Z</time></trkpt><trkpt lat="43.48582492598516" lon="10.5996311351548"><ele>504.5</ele><time>2026-04-19T07:53:51Z</time></trkpt><trkpt lat="43.4856994050273" lon="10.599664324599848"><ele>505.75</ele><time>2026-04-19T07:53:52Z</time></trkpt><trkpt lat="43.485589819513656" lon="10.599714148578984"><ele>507.0</ele><time>2026-04-19T07:53:53Z</time></trkpt><trkpt lat="43.485479606012305" lon="10.599773296379018"><ele>506.6</ele><time>2026-04-19T07:53:54Z</time></trkpt><trkpt lat="43.48537324762154" lon="10.599842235202473"><ele>506.20000000000005</ele><time>2026-04-19T07:53:55Z</time></trkpt><trkpt lat="43.48530767754978" lon="10.599875752715636"><ele>505.8</ele><time>2026-04-19T07:53:56Z</time></trkpt><trkpt lat="43.48519202839852" lon="10.599917568709207"><ele>505.4</ele><time>2026-04-19T07:53:58Z</time></trkpt><trkpt lat="43.48512258711576" lon="10.59994829277449"><ele>505.0</ele><time>2026-04-19T07:53:59Z</time></trkpt><trkpt lat="43.48503827679808" lon="10.599981006429115"><ele>505.0</ele><time>2026-04-19T07:54:00Z</time></trkpt><trkpt lat="43.48493614103385" lon="10.600000096813234"><ele>505.0</ele><time>2026-04-19T07:54:01Z</time></trkpt><trkpt lat="43.48481970275119" lon="10.600013727916636"><ele>505.0</ele><time>2026-04-19T07:54:02Z</time></trkpt><trkpt lat="43.48468861407363" lon="10.600022620959562"><ele>505.0</ele><time>2026-04-19T07:54:03Z</time></trkpt><trkpt lat="43.48454853823148" lon="10.600027803340799"><ele>504.33333333333337</ele><time>2026-04-19T07:54:04.001Z</time></trkpt><trkpt lat="43.48439320644245" lon="10.600046101808838"><ele>503.66666666666663</ele><time>2026-04-19T07:54:05.001Z</time></trkpt><trkpt lat="43.48424445822805" lon="10.600072190131964"><ele>503.0</ele><time>2026-04-19T07:54:06.001Z</time></trkpt><trkpt lat="43.484091225133" lon="10.60010043780952"><ele>503.0</ele><time>2026-04-19T07:54:07.001Z</time></trkpt><trkpt lat="43.4839498434758" lon="10.600110099624505"><ele>503.0</ele><time>2026-04-19T07:54:08.001Z</time></trkpt><trkpt lat="43.48381073326675" lon="10.600106053847021"><ele>503.0</ele><time>2026-04-19T07:54:09.001Z</time></trkpt><trkpt lat="43.48366990631663" lon="10.600087526870725"><ele>503.0</ele><time>2026-04-19T07:54:10.001Z</time></trkpt><trkpt lat="43.48352792223134" lon="10.600045569101667"><ele>501.5</ele><time>2026-04-19T07:54:11.001Z</time></trkpt><trkpt lat="43.48338254877727" lon="10.599971207848158"><ele>500.0</ele><time>2026-04-19T07:54:12.001Z</time></trkpt><trkpt lat="43.48325351312608" lon="10.599908393939446"><ele>498.5</ele><time>2026-04-19T07:54:13.001Z</time></trkpt><trkpt lat="43.48311573049758" lon="10.599832901132524"><ele>497.0</ele><time>2026-04-19T07:54:14.001Z</time></trkpt><trkpt lat="43.48296356369366" lon="10.59973824813779"><ele>496.66666666666663</ele><time>2026-04-19T07:54:15.001Z</time></trkpt><trkpt lat="43.48280890028363" lon="10.59963975553238"><ele>496.33333333333337</ele><time>2026-04-19T07:54:16.001Z</time></trkpt><trkpt lat="43.482663389159974" lon="10.599548931878822"><ele>496.0</ele><time>2026-04-19T07:54:17.001Z</time></trkpt><trkpt lat="43.48252681193533" lon="10.59946434172091"><ele>496.0</ele><time>2026-04-19T07:54:18.001Z</time></trkpt><trkpt lat="43.48240021363155" lon="10.599391688673352"><ele>496.0</ele><time>2026-04-19T07:54:19.001Z</time></trkpt><trkpt lat="43.48227100448373" lon="10.59934282509936"><ele>496.0</ele><time>2026-04-19T07:54:20.001Z</time></trkpt><trkpt lat="43.48215697316605" lon="10.599319544458911"><ele>496.0</ele><time>2026-04-19T07:54:21.001Z</time></trkpt><trkpt lat="43.48205485331393" lon="10.599315269858522"><ele>499.20000000000005</ele><time>2026-04-19T07:54:22.001Z</time></trkpt><trkpt lat="43.481964021133464" lon="10.599327062252325"><ele>502.40000000000003</ele><time>2026-04-19T07:54:23.001Z</time></trkpt><trkpt lat="43.48188514216828" lon="10.599336190895075"><ele>505.6</ele><time>2026-04-19T07:54:24.001Z</time></trkpt><trkpt lat="43.48179930486424" lon="10.599345409067228"><ele>508.8</ele><time>2026-04-19T07:54:25.001Z</time></trkpt><trkpt lat="43.48170196798663" lon="10.599345781378489"><ele>512.0</ele><time>2026-04-19T07:54:26.001Z</time></trkpt><trkpt lat="43.48159611000057" lon="10.599342740158116"><ele>512.0</ele><time>2026-04-19T07:54:27.001Z</time></trkpt><trkpt lat="43.481481110606126" lon="10.599344123198506"><ele>512.0</ele><time>2026-04-19T07:54:28.001Z</time></trkpt><trkpt lat="43.481359163932794" lon="10.599352773946306"><ele>512.0</ele><time>2026-04-19T07:54:29.001Z</time></trkpt><trkpt lat="43.48124492588976" lon="10.599404899994232"><ele>512.0</ele><time>2026-04-19T07:54:30.001Z</time></trkpt><trkpt lat="43.48115182636073" lon="10.599437426395614"><ele>514.2</ele><time>2026-04-19T07:54:31.001Z</time></trkpt><trkpt lat="43.48106155447121" lon="10.599468417315906"><ele>516.4000000000001</ele><time>2026-04-19T07:54:32.001Z</time></trkpt><trkpt lat="43.48098887997906" lon="10.599492127668197"><ele>518.5999999999999</ele><time>2026-04-19T07:54:33.001Z</time></trkpt><trkpt lat="43.48091318044503" lon="10.59951651762146"><ele>520.8</ele><time>2026-04-19T07:54:34.001Z</time></trkpt><trkpt lat="43.480819717796955" lon="10.59953788251604"><ele>523.0</ele><time>2026-04-19T07:54:35.001Z</time></trkpt><trkpt lat="43.480706547136855" lon="10.59956738600707"><ele>523.75</ele><time>2026-04-19T07:54:36.001Z</time></trkpt><trkpt lat="43.480584522657566" lon="10.599618447250188"><ele>524.5</ele><time>2026-04-19T07:54:37.001Z</time></trkpt><trkpt lat="43.48047117715865" lon="10.599662451673831"><ele>525.25</ele><time>2026-04-19T07:54:38.001Z</time></trkpt><trkpt lat="43.48035733070382" lon="10.599724710309548"><ele>526.0</ele><time>2026-04-19T07:54:39.001Z</time></trkpt><trkpt lat="43.480247671877066" lon="10.599817732218904"><ele>527.0</ele><time>2026-04-19T07:54:40.001Z</time></trkpt><trkpt lat="43.48015722518062" lon="10.599917612407205"><ele>528.0</ele><time>2026-04-19T07:54:41.001Z</time></trkpt><trkpt lat="43.48007571084051" lon="10.600044350639688"><ele>529.0</ele><time>2026-04-19T07:54:42.001Z</time></trkpt><trkpt lat="43.480007383051394" lon="10.600188280675635"><ele>530.0</ele><time>2026-04-19T07:54:43.001Z</time></trkpt><trkpt lat="43.479970135038144" lon="10.600364807533719"><ele>530.8</ele><time>2026-04-19T07:54:44.001Z</time></trkpt><trkpt lat="43.479958078850956" lon="10.600550279205578"><ele>531.6</ele><time>2026-04-19T07:54:45.001Z</time></trkpt><trkpt lat="43.47995938675998" lon="10.600706203410235"><ele>532.4</ele><time>2026-04-19T07:54:46.001Z</time></trkpt><trkpt lat="43.479943019532215" lon="10.600826948325045"><ele>533.2</ele><time>2026-04-19T07:54:47.001Z</time></trkpt><trkpt lat="43.479908221549714" lon="10.600953122762338"><ele>534.0</ele><time>2026-04-19T07:54:48.001Z</time></trkpt><trkpt lat="43.47985200200603" lon="10.60104698773029"><ele>534.0</ele><time>2026-04-19T07:54:49.001Z</time></trkpt><trkpt lat="43.479765660695314" lon="10.601125055959807"><ele>534.0</ele><time>2026-04-19T07:54:50.001Z</time></trkpt><trkpt lat="43.47965464169867" lon="10.601202780656035"><ele>534.0</ele><time>2026-04-19T07:54:51.001Z</time></trkpt><trkpt lat="43.47953901818625" lon="10.601314688627392"><ele>534.0</ele><time>2026-04-19T07:54:52.001Z</time></trkpt><trkpt lat="43.47944435642745" lon="10.601455474670793"><ele>535.8</ele><time>2026-04-19T07:54:53.001Z</time></trkpt><trkpt lat="43.47937186267822" lon="10.601582531710678"><ele>537.5999999999999</ele><time>2026-04-19T07:54:54.001Z</time></trkpt><trkpt lat="43.47930076567424" lon="10.601683655799318"><ele>539.4</ele><time>2026-04-19T07:54:55.001Z</time></trkpt><trkpt lat="43.479208639902936" lon="10.601740458763254"><ele>541.1999999999999</ele><time>2026-04-19T07:54:56.001Z</time></trkpt><trkpt lat="43.47910234442123" lon="10.601766696968028"><ele>543.0</ele><time>2026-04-19T07:54:57.002Z</time></trkpt><trkpt lat="43.47897873188511" lon="10.601742140868852"><ele>543.0</ele><time>2026-04-19T07:54:58.002Z</time></trkpt><trkpt lat="43.478868698810935" lon="10.601659973532078"><ele>543.0</ele><time>2026-04-19T07:54:59.002Z</time></trkpt><trkpt lat="43.478784640014986" lon="10.601554196797181"><ele>543.0</ele><time>2026-04-19T07:54:59.999Z</time></trkpt><trkpt lat="43.478719616528224" lon="10.601410183773163"><ele>543.0</ele><time>2026-04-19T07:55:00.999Z</time></trkpt><trkpt lat="43.47868185373009" lon="10.601226884361592"><ele>542.5</ele><time>2026-04-19T07:55:01.999Z</time></trkpt><trkpt lat="43.47867207433934" lon="10.601029530089914"><ele>542.0</ele><time>2026-04-19T07:55:02.999Z</time></trkpt><trkpt lat="43.478658169694654" lon="10.600833033115574"><ele>541.5</ele><time>2026-04-19T07:55:03.999Z</time></trkpt><trkpt lat="43.47865541466794" lon="10.600623977219035"><ele>541.0</ele><time>2026-04-19T07:55:04.999Z</time></trkpt><trkpt lat="43.47866823354393" lon="10.6004304195509"><ele>541.75</ele><time>2026-04-19T07:55:05.999Z</time></trkpt><trkpt lat="43.478699441152685" lon="10.600255905546488"><ele>542.5</ele><time>2026-04-19T07:55:06.999Z</time></trkpt><trkpt lat="43.478733555165185" lon="10.600064123701262"><ele>543.25</ele><time>2026-04-19T07:55:07.999Z</time></trkpt><trkpt lat="43.47877006419227" lon="10.599860979154247"><ele>544.0</ele><time>2026-04-19T07:55:08.999Z</time></trkpt><trkpt lat="43.478809814889345" lon="10.59968384428234"><ele>544.0</ele><time>2026-04-19T07:55:09.999Z</time></trkpt><trkpt lat="43.47883890478535" lon="10.599528960450401"><ele>544.0</ele><time>2026-04-19T07:55:10.999Z</time></trkpt><trkpt lat="43.47884266871308" lon="10.599348165194957"><ele>544.0</ele><time>2026-04-19T07:55:11.999Z</time></trkpt><trkpt lat="43.478826507923344" lon="10.599131110036287"><ele>544.0</ele><time>2026-04-19T07:55:12.999Z</time></trkpt><trkpt lat="43.478814081279204" lon="10.598888376383256"><ele>540.6666666666667</ele><time>2026-04-19T07:55:13.999Z</time></trkpt><trkpt lat="43.4787894384762" lon="10.598665914223954"><ele>537.3333333333334</ele><time>2026-04-19T07:55:14.999Z</time></trkpt><trkpt lat="43.478746768109254" lon="10.598454081145105"><ele>534.0</ele><time>2026-04-19T07:55:15.999Z</time></trkpt><trkpt lat="43.47868439864532" lon="10.598232584895964"><ele>534.0</ele><time>2026-04-19T07:55:16.999Z</time></trkpt><trkpt lat="43.478610472715125" lon="10.597988384022493"><ele>534.0</ele><time>2026-04-19T07:55:17.999Z</time></trkpt><trkpt lat="43.47854997525854" lon="10.597769377923761"><ele>534.0</ele><time>2026-04-19T07:55:18.999Z</time></trkpt><trkpt lat="43.47848839051165" lon="10.597588967740629"><ele>532.0</ele><time>2026-04-19T07:55:19.999Z</time></trkpt><trkpt lat="43.478403223055714" lon="10.597432581316584"><ele>530.0</ele><time>2026-04-19T07:55:20.999Z</time></trkpt><trkpt lat="43.478316423890654" lon="10.59729470393015"><ele>528.0</ele><time>2026-04-19T07:55:22Z</time></trkpt><trkpt lat="43.47820899094401" lon="10.597173935528227"><ele>526.0</ele><time>2026-04-19T07:55:23Z</time></trkpt><trkpt lat="43.478090660466684" lon="10.597060646056624"><ele>526.25</ele><time>2026-04-19T07:55:24Z</time></trkpt><trkpt lat="43.477992648456855" lon="10.596959908686912"><ele>526.5</ele><time>2026-04-19T07:55:25Z</time></trkpt><trkpt lat="43.47790874917886" lon="10.596825294772696"><ele>526.75</ele><time>2026-04-19T07:55:26Z</time></trkpt><trkpt lat="43.4778285878263" lon="10.596652469846845"><ele>527.0</ele><time>2026-04-19T07:55:27Z</time></trkpt><trkpt lat="43.477747126693124" lon="10.59645585473732"><ele>525.5</ele><time>2026-04-19T07:55:28Z</time></trkpt><trkpt lat="43.47766978661589" lon="10.596273111369458"><ele>524.0</ele><time>2026-04-19T07:55:29Z</time></trkpt><trkpt lat="43.477602160257646" lon="10.596111961177742"><ele>522.5</ele><time>2026-04-19T07:55:30Z</time></trkpt><trkpt lat="43.47754196741201" lon="10.595960833504328"><ele>521.0</ele><time>2026-04-19T07:55:31Z</time></trkpt><trkpt lat="43.477490321644254" lon="10.595822723917053"><ele>521.0</ele><time>2026-04-19T07:55:32Z</time></trkpt><trkpt lat="43.4774369781053" lon="10.59569011179094"><ele>521.0</ele><time>2026-04-19T07:55:33Z</time></trkpt><trkpt lat="43.47739173784972" lon="10.595545054559755"><ele>521.0</ele><time>2026-04-19T07:55:34Z</time></trkpt><trkpt lat="43.47741220059625" lon="10.595405915200757"><ele>521.0</ele><time>2026-04-19T07:55:35Z</time></trkpt><trkpt lat="43.47746049766943" lon="10.595275551812136"><ele>521.0</ele><time>2026-04-19T07:55:36Z</time></trkpt><trkpt lat="43.477473748930294" lon="10.595123959752703"><ele>520.25</ele><time>2026-04-19T07:55:37Z</time></trkpt><trkpt lat="43.47749319821096" lon="10.594955266263847"><ele>519.5</ele><time>2026-04-19T07:55:38Z</time></trkpt><trkpt lat="43.47749763526932" lon="10.594765205558677"><ele>518.75</ele><time>2026-04-19T07:55:39Z</time></trkpt><trkpt lat="43.47748823086343" lon="10.594578667745143"><ele>518.0</ele><time>2026-04-19T07:55:40Z</time></trkpt><trkpt lat="43.47745087243822" lon="10.594368984382406"><ele>514.3333333333333</ele><time>2026-04-19T07:55:41Z</time></trkpt><trkpt lat="43.47738692128334" lon="10.594155344063363"><ele>510.66666666666663</ele><time>2026-04-19T07:55:42Z</time></trkpt><trkpt lat="43.477334533499295" lon="10.593969058652398"><ele>507.0</ele><time>2026-04-19T07:55:43Z</time></trkpt><trkpt lat="43.47728715299985" lon="10.593788341611349"><ele>505.25</ele><time>2026-04-19T07:55:44Z</time></trkpt><trkpt lat="43.47725667698434" lon="10.59361839146975"><ele>503.5</ele><time>2026-04-19T07:55:45Z</time></trkpt><trkpt lat="43.477250796658325" lon="10.593433394117701"><ele>501.75</ele><time>2026-04-19T07:55:46Z</time></trkpt><trkpt lat="43.47726906932807" lon="10.593223007078326"><ele>500.0</ele><time>2026-04-19T07:55:47Z</time></trkpt><trkpt lat="43.47731287981204" lon="10.593021938523764"><ele>498.66666666666663</ele><time>2026-04-19T07:55:48Z</time></trkpt><trkpt lat="43.477372596083036" lon="10.592837360742676"><ele>497.33333333333337</ele><time>2026-04-19T07:55:49Z</time></trkpt><trkpt lat="43.4774636027625" lon="10.592661453821124"><ele>496.0</ele><time>2026-04-19T07:55:50Z</time></trkpt><trkpt lat="43.47757895247562" lon="10.592517456234102"><ele>496.0</ele><time>2026-04-19T07:55:51Z</time></trkpt><trkpt lat="43.477671994045316" lon="10.59239846418473"><ele>496.0</ele><time>2026-04-19T07:55:52Z</time></trkpt><trkpt lat="43.47775139188263" lon="10.592313039224226"><ele>496.0</ele><time>2026-04-19T07:55:53Z</time></trkpt><trkpt lat="43.47781129487131" lon="10.592210675317155"><ele>496.0</ele><time>2026-04-19T07:55:54Z</time></trkpt><trkpt lat="43.47785706344609" lon="10.59206448421489"><ele>496.0</ele><time>2026-04-19T07:55:55Z</time></trkpt><trkpt lat="43.47789864207913" lon="10.591883923158374"><ele>488.33333333333337</ele><time>2026-04-19T07:55:56Z</time></trkpt><trkpt lat="43.4779496508294" lon="10.591680114135992"><ele>480.66666666666663</ele><time>2026-04-19T07:55:57Z</time></trkpt><trkpt lat="43.47799835613187" lon="10.591453366310523"><ele>473.0</ele><time>2026-04-19T07:55:58Z</time></trkpt><trkpt lat="43.47803951928804" lon="10.591223664734068"><ele>470.75</ele><time>2026-04-19T07:55:59Z</time></trkpt><trkpt lat="43.47806902809867" lon="10.591010415728743"><ele>468.5</ele><time>2026-04-19T07:56:00Z</time></trkpt><trkpt lat="43.47811115511906" lon="10.590824324074795"><ele>466.25</ele><time>2026-04-19T07:56:01Z</time></trkpt><trkpt lat="43.47816851464006" lon="10.590647521553633"><ele>464.0</ele><time>2026-04-19T07:56:02.001Z</time></trkpt><trkpt lat="43.478222127777066" lon="10.590464049435734"><ele>461.66666666666663</ele><time>2026-04-19T07:56:03.001Z</time></trkpt><trkpt lat="43.47825612135048" lon="10.590252625843322"><ele>459.33333333333337</ele><time>2026-04-19T07:56:04.001Z</time></trkpt><trkpt lat="43.47827963111274" lon="10.590025707391385"><ele>457.0</ele><time>2026-04-19T07:56:05.001Z</time></trkpt><trkpt lat="43.47829669878371" lon="10.58979941581357"><ele>457.0</ele><time>2026-04-19T07:56:06.001Z</time></trkpt><trkpt lat="43.478301244456254" lon="10.58959057412062"><ele>457.0</ele><time>2026-04-19T07:56:07.001Z</time></trkpt><trkpt lat="43.478304378808446" lon="10.58937622495007"><ele>457.0</ele><time>2026-04-19T07:56:08.001Z</time></trkpt><trkpt lat="43.478298423389" lon="10.58915237652985"><ele>453.5</ele><time>2026-04-19T07:56:09.001Z</time></trkpt><trkpt lat="43.47829158569831" lon="10.588958628302112"><ele>450.0</ele><time>2026-04-19T07:56:10.001Z</time></trkpt><trkpt lat="43.4782854726897" lon="10.588784223735654"><ele>446.5</ele><time>2026-04-19T07:56:11.001Z</time></trkpt><trkpt lat="43.47827141522612" lon="10.588616240215625"><ele>443.0</ele><time>2026-04-19T07:56:12.001Z</time></trkpt><trkpt lat="43.47824763604713" lon="10.588474570356519"><ele>441.59999999999997</ele><time>2026-04-19T07:56:13.001Z</time></trkpt><trkpt lat="43.47821190755022" lon="10.588366434938271"><ele>440.19999999999993</ele><time>2026-04-19T07:56:14.001Z</time></trkpt><trkpt lat="43.47815212900455" lon="10.588269071874782"><ele>438.8</ele><time>2026-04-19T07:56:15.001Z</time></trkpt><trkpt lat="43.47806281334746" lon="10.588193624566674"><ele>437.4</ele><time>2026-04-19T07:56:16.001Z</time></trkpt><trkpt lat="43.47795709628532" lon="10.588141730859997"><ele>436.0</ele><time>2026-04-19T07:56:17.001Z</time></trkpt><trkpt lat="43.477858501041446" lon="10.588089563398741"><ele>436.0</ele><time>2026-04-19T07:56:18.001Z</time></trkpt><trkpt lat="43.477776616140964" lon="10.588005735372457"><ele>436.0</ele><time>2026-04-19T07:56:19.001Z</time></trkpt><trkpt lat="43.47773300908965" lon="10.587882184732926"><ele>436.0</ele><time>2026-04-19T07:56:20.001Z</time></trkpt><trkpt lat="43.47771972097596" lon="10.587735190991657"><ele>436.0</ele><time>2026-04-19T07:56:21.001Z</time></trkpt><trkpt lat="43.477741294636076" lon="10.587597425083157"><ele>436.0</ele><time>2026-04-19T07:56:22.001Z</time></trkpt><trkpt lat="43.47774267309467" lon="10.587446536711317"><ele>433.75</ele><time>2026-04-19T07:56:23.001Z</time></trkpt><trkpt lat="43.47771234169587" lon="10.587305632767976"><ele>431.5</ele><time>2026-04-19T07:56:24.001Z</time></trkpt><trkpt lat="43.477668965299245" lon="10.587170455152703"><ele>429.25</ele><time>2026-04-19T07:56:25.001Z</time></trkpt><trkpt lat="43.477651249225666" lon="10.587001622142163"><ele>427.0</ele><time>2026-04-19T07:56:26.001Z</time></trkpt><trkpt lat="43.47763162584523" lon="10.586831883326786"><ele>425.25</ele><time>2026-04-19T07:56:27.001Z</time></trkpt><trkpt lat="43.47760405192849" lon="10.586685664291828"><ele>423.5</ele><time>2026-04-19T07:56:28.001Z</time></trkpt><trkpt lat="43.477573390955605" lon="10.586538413921993"><ele>421.75</ele><time>2026-04-19T07:56:29.001Z</time></trkpt><trkpt lat="43.477527225306375" lon="10.586387386794579"><ele>420.0</ele><time>2026-04-19T07:56:30.001Z</time></trkpt><trkpt lat="43.47748047908998" lon="10.586244332312859"><ele>418.0</ele><time>2026-04-19T07:56:31.001Z</time></trkpt><trkpt lat="43.4774415630601" lon="10.58609420115784"><ele>416.0</ele><time>2026-04-19T07:56:32.001Z</time></trkpt><trkpt lat="43.47741552999329" lon="10.58593530685058"><ele>414.0</ele><time>2026-04-19T07:56:33.001Z</time></trkpt><trkpt lat="43.477402694542064" lon="10.58578405450494"><ele>412.0</ele><time>2026-04-19T07:56:34.001Z</time></trkpt><trkpt lat="43.47740803618898" lon="10.585637715163482"><ele>412.0</ele><time>2026-04-19T07:56:35.001Z</time></trkpt><trkpt lat="43.47744024607513" lon="10.585485165497346"><ele>412.0</ele><time>2026-04-19T07:56:36.001Z</time></trkpt><trkpt lat="43.477490470654004" lon="10.585341586828921"><ele>412.0</ele><time>2026-04-19T07:56:37.001Z</time></trkpt><trkpt lat="43.47754077777823" lon="10.585198083297033"><ele>412.0</ele><time>2026-04-19T07:56:38.001Z</time></trkpt><trkpt lat="43.47757613261148" lon="10.585055037968047"><ele>409.25</ele><time>2026-04-19T07:56:39.001Z</time></trkpt><trkpt lat="43.47758909854273" lon="10.584892691484932"><ele>406.5</ele><time>2026-04-19T07:56:40.001Z</time></trkpt><trkpt lat="43.47759062590523" lon="10.58471963477864"><ele>403.75</ele><time>2026-04-19T07:56:41.001Z</time></trkpt><trkpt lat="43.47759363376696" lon="10.584538117814704"><ele>401.0</ele><time>2026-04-19T07:56:42.001Z</time></trkpt><trkpt lat="43.477598884999594" lon="10.584364583206215"><ele>398.75</ele><time>2026-04-19T07:56:43.001Z</time></trkpt><trkpt lat="43.47759521700544" lon="10.584194074308323"><ele>396.5</ele><time>2026-04-19T07:56:44.001Z</time></trkpt><trkpt lat="43.47757651372126" lon="10.584015757227235"><ele>394.25</ele><time>2026-04-19T07:56:45.001Z</time></trkpt><trkpt lat="43.47755035851481" lon="10.583839201164848"><ele>392.0</ele><time>2026-04-19T07:56:46.001Z</time></trkpt><trkpt lat="43.477526253998846" lon="10.583671859163085"><ele>390.8</ele><time>2026-04-19T07:56:47.001Z</time></trkpt><trkpt lat="43.47750864044198" lon="10.583522711495286"><ele>389.6</ele><time>2026-04-19T07:56:48.001Z</time></trkpt><trkpt lat="43.47749222767446" lon="10.583373068912461"><ele>388.40000000000003</ele><time>2026-04-19T07:56:49.001Z</time></trkpt><trkpt lat="43.477475680497406" lon="10.583219718561605"><ele>387.20000000000005</ele><time>2026-04-19T07:56:50.002Z</time></trkpt><trkpt lat="43.47745545659039" lon="10.583071089241486"><ele>386.0</ele><time>2026-04-19T07:56:51.002Z</time></trkpt><trkpt lat="43.477428037566085" lon="10.58292991048885"><ele>384.8</ele><time>2026-04-19T07:56:52.002Z</time></trkpt><trkpt lat="43.47739239365018" lon="10.582780228402497"><ele>383.6</ele><time>2026-04-19T07:56:53.002Z</time></trkpt><trkpt lat="43.477359004296794" lon="10.582628091534126"><ele>382.4</ele><time>2026-04-19T07:56:54.002Z</time></trkpt><trkpt lat="43.47732662462114" lon="10.582482157839427"><ele>381.2</ele><time>2026-04-19T07:56:55.002Z</time></trkpt><trkpt lat="43.47729398207817" lon="10.582345713299928"><ele>380.0</ele><time>2026-04-19T07:56:56.002Z</time></trkpt><trkpt lat="43.4772613684302" lon="10.582213082022779"><ele>380.0</ele><time>2026-04-19T07:56:57.002Z</time></trkpt><trkpt lat="43.47722154969821" lon="10.582092210544518"><ele>380.0</ele><time>2026-04-19T07:56:58.002Z</time></trkpt><trkpt lat="43.477177436852834" lon="10.581978621670451"><ele>380.0</ele><time>2026-04-19T07:56:59.002Z</time></trkpt><trkpt lat="43.477134880956164" lon="10.581862942804802"><ele>380.0</ele><time>2026-04-19T07:57:00.002Z</time></trkpt><trkpt lat="43.47710109586004" lon="10.58173713552181"><ele>380.0</ele><time>2026-04-19T07:57:01.002Z</time></trkpt><trkpt lat="43.476912633028725" lon="10.581623257273815"><ele>372.5</ele><time>2026-04-19T07:57:02.002Z</time></trkpt><trkpt lat="43.476892820022584" lon="10.581454336655302"><ele>365.0</ele><time>2026-04-19T07:57:03.002Z</time></trkpt><trkpt lat="43.476873293391925" lon="10.581274783271041"><ele>357.5</ele><time>2026-04-19T07:57:04.002Z</time></trkpt><trkpt lat="43.476862212272465" lon="10.58112538693153"><ele>350.0</ele><time>2026-04-19T07:57:05.002Z</time></trkpt><trkpt lat="43.47685242366316" lon="10.580993416310376"><ele>349.8</ele><time>2026-04-19T07:57:05.999Z</time></trkpt><trkpt lat="43.476849702430584" lon="10.58085240823229"><ele>349.6</ele><time>2026-04-19T07:57:06.999Z</time></trkpt><trkpt lat="43.476864469796595" lon="10.580695781810556"><ele>349.4</ele><time>2026-04-19T07:57:07.999Z</time></trkpt><trkpt lat="43.476876211113755" lon="10.580582050878677"><ele>349.2</ele><time>2026-04-19T07:57:08.999Z</time></trkpt><trkpt lat="43.47692891095682" lon="10.580443330260046"><ele>349.0</ele><time>2026-04-19T07:57:10.999Z</time></trkpt><trkpt lat="43.476904992402574" lon="10.580320627694478"><ele>348.4</ele><time>2026-04-19T07:57:12.999Z</time></trkpt><trkpt lat="43.4769149166266" lon="10.580194084105567"><ele>347.79999999999995</ele><time>2026-04-19T08:00:39.001Z</time></trkpt><trkpt lat="43.47690586879287" lon="10.580072507692131"><ele>347.20000000000005</ele><time>2026-04-19T08:00:42.001Z</time></trkpt><trkpt lat="43.47690343594441" lon="10.579940737571604"><ele>346.6</ele><time>2026-04-19T08:00:44.001Z</time></trkpt><trkpt lat="43.47690455380507" lon="10.579773877092242"><ele>346.0</ele><time>2026-04-19T08:00:46.001Z</time></trkpt><trkpt lat="43.47691191275374" lon="10.579627244763527"><ele>345.8</ele><time>2026-04-19T08:00:48.002Z</time></trkpt><trkpt lat="43.476928045195976" lon="10.57951091292543"><ele>345.6</ele><time>2026-04-19T08:00:50.002Z</time></trkpt><trkpt lat="43.47688962408271" lon="10.57940170464142"><ele>345.4</ele><time>2026-04-19T08:00:51.002Z</time></trkpt><trkpt lat="43.4768255228408" lon="10.579278682541672"><ele>345.2</ele><time>2026-04-19T08:00:53.002Z</time></trkpt><trkpt lat="43.47675280751095" lon="10.579144589492406"><ele>345.0</ele><time>2026-04-19T08:00:55.002Z</time></trkpt><trkpt lat="43.47671298721627" lon="10.579071157594116"><ele>345.0</ele><time>2026-04-19T08:00:56.002Z</time></trkpt><trkpt lat="43.476668784180106" lon="10.578996442212055"><ele>345.0</ele><time>2026-04-19T08:00:57.002Z</time></trkpt><trkpt lat="43.47662433802533" lon="10.578921401271343"><ele>345.0</ele><time>2026-04-19T08:00:58.002Z</time></trkpt><trkpt lat="43.47657984051621" lon="10.578845619120475"><ele>345.0</ele><time>2026-04-19T08:00:59.002Z</time></trkpt><trkpt lat="43.47653812891992" lon="10.578767630832438"><ele>345.0</ele><time>2026-04-19T08:01:00.002Z</time></trkpt><trkpt lat="43.476500827892096" lon="10.578688523612955"><ele>345.0</ele><time>2026-04-19T08:01:01.002Z</time></trkpt><trkpt lat="43.47646650168242" lon="10.578608440259805"><ele>345.0</ele><time>2026-04-19T08:01:02.002Z</time></trkpt><trkpt lat="43.47644027144698" lon="10.57852544632274"><ele>345.42857142857144</ele><time>2026-04-19T08:01:03.002Z</time></trkpt><trkpt lat="43.476418626432284" lon="10.57843779363087"><ele>345.85714285714283</ele><time>2026-04-19T08:01:04.002Z</time></trkpt><trkpt lat="43.47640500653429" lon="10.578351885066263"><ele>346.2857142857143</ele><time>2026-04-19T08:01:05.002Z</time></trkpt><trkpt lat="43.47639213756748" lon="10.578263125267597"><ele>346.7142857142857</ele><time>2026-04-19T08:01:06.002Z</time></trkpt><trkpt lat="43.476378099595614" lon="10.578172784650507"><ele>347.14285714285717</ele><time>2026-04-19T08:01:07.002Z</time></trkpt><trkpt lat="43.47636324786485" lon="10.578080486901234"><ele>347.57142857142856</ele><time>2026-04-19T08:01:08.002Z</time></trkpt><trkpt lat="43.476347397344156" lon="10.577981982058924"><ele>348.0</ele><time>2026-04-19T08:01:09.002Z</time></trkpt><trkpt lat="43.47633376037374" lon="10.57788459912471"><ele>347.2857142857143</ele><time>2026-04-19T08:01:10.002Z</time></trkpt><trkpt lat="43.476322152833305" lon="10.577789368159003"><ele>346.57142857142856</ele><time>2026-04-19T08:01:11.002Z</time></trkpt><trkpt lat="43.47631236111782" lon="10.57769088608528"><ele>345.8571428571429</ele><time>2026-04-19T08:01:12.002Z</time></trkpt><trkpt lat="43.47630425346946" lon="10.577598607776725"><ele>345.1428571428571</ele><time>2026-04-19T08:01:13.002Z</time></trkpt><trkpt lat="43.476296095376654" lon="10.577501106193816"><ele>344.42857142857144</ele><time>2026-04-19T08:01:14.002Z</time></trkpt><trkpt lat="43.47629005415493" lon="10.577402051222107"><ele>343.7142857142857</ele><time>2026-04-19T08:01:15.002Z</time></trkpt><trkpt lat="43.476287139243965" lon="10.57730305118619"><ele>343.0</ele><time>2026-04-19T08:01:16.002Z</time></trkpt><trkpt lat="43.47628722301625" lon="10.57720210356363"><ele>343.0</ele><time>2026-04-19T08:01:17.002Z</time></trkpt><trkpt lat="43.47629149566256" lon="10.577103657699558"><ele>343.0</ele><time>2026-04-19T08:01:18Z</time></trkpt><trkpt lat="43.476290873387896" lon="10.577006671709732"><ele>343.0</ele><time>2026-04-19T08:01:19Z</time></trkpt><trkpt lat="43.476320411671985" lon="10.576915995824542"><ele>343.0</ele><time>2026-04-19T08:01:20Z</time></trkpt><trkpt lat="43.47635937707739" lon="10.576840555927307"><ele>343.0</ele><time>2026-04-19T08:01:21Z</time></trkpt><trkpt lat="43.47641094486175" lon="10.576772810686883"><ele>343.0</ele><time>2026-04-19T08:01:22Z</time></trkpt><trkpt lat="43.47646149493146" lon="10.576702102006127"><ele>343.0</ele><time>2026-04-19T08:01:23Z</time></trkpt><trkpt lat="43.47651254113698" lon="10.576623615779335"><ele>342.8333333333333</ele><time>2026-04-19T08:01:24Z</time></trkpt><trkpt lat="43.476529685356546" lon="10.576513635447327"><ele>342.66666666666663</ele><time>2026-04-19T08:01:25Z</time></trkpt><trkpt lat="43.47652396097342" lon="10.576413911729055"><ele>342.5</ele><time>2026-04-19T08:01:26Z</time></trkpt><trkpt lat="43.47648591136759" lon="10.576299898469571"><ele>342.3333333333333</ele><time>2026-04-19T08:01:27Z</time></trkpt><trkpt lat="43.476441892255856" lon="10.576210127358179"><ele>342.1666666666667</ele><time>2026-04-19T08:01:28Z</time></trkpt><trkpt lat="43.476394990717" lon="10.576127058744598"><ele>342.0</ele><time>2026-04-19T08:01:29Z</time></trkpt><trkpt lat="43.47634640002937" lon="10.576040998431392"><ele>342.0</ele><time>2026-04-19T08:01:30Z</time></trkpt><trkpt lat="43.47629861937642" lon="10.575956372792925"><ele>342.0</ele><time>2026-04-19T08:01:31Z</time></trkpt><trkpt lat="43.476251952360805" lon="10.575873719547891"><ele>342.0</ele><time>2026-04-19T08:01:32Z</time></trkpt><trkpt lat="43.47620527700729" lon="10.575791051536116"><ele>342.0</ele><time>2026-04-19T08:01:33Z</time></trkpt><trkpt lat="43.47615951522617" lon="10.57571000157697"><ele>342.0</ele><time>2026-04-19T08:01:34Z</time></trkpt><trkpt lat="43.476111585557796" lon="10.575625112013249"><ele>342.0</ele><time>2026-04-19T08:01:35Z</time></trkpt><trkpt lat="43.476060553893085" lon="10.575534811673363"><ele>340.5</ele><time>2026-04-19T08:01:36Z</time></trkpt><trkpt lat="43.47600985642659" lon="10.575446169180122"><ele>339.0</ele><time>2026-04-19T08:01:37Z</time></trkpt><trkpt lat="43.47595770951745" lon="10.575356237669268"><ele>337.5</ele><time>2026-04-19T08:01:38Z</time></trkpt><trkpt lat="43.47590313620854" lon="10.575271730314018"><ele>336.0</ele><time>2026-04-19T08:01:39Z</time></trkpt><trkpt lat="43.475844024551016" lon="10.575195505005674"><ele>334.5</ele><time>2026-04-19T08:01:40Z</time></trkpt><trkpt lat="43.47577618421545" lon="10.57513191160757"><ele>333.0</ele><time>2026-04-19T08:01:41Z</time></trkpt><trkpt lat="43.47571138451309" lon="10.575074241463586"><ele>333.0</ele><time>2026-04-19T08:01:42Z</time></trkpt><trkpt lat="43.47564308015701" lon="10.57501766165119"><ele>333.0</ele><time>2026-04-19T08:01:43Z</time></trkpt><trkpt lat="43.47556941917513" lon="10.574956644685757"><ele>333.0</ele><time>2026-04-19T08:01:44Z</time></trkpt><trkpt lat="43.475498703041524" lon="10.574894303391341"><ele>333.0</ele><time>2026-04-19T08:01:45Z</time></trkpt><trkpt lat="43.47542822289187" lon="10.574823764789382"><ele>333.0</ele><time>2026-04-19T08:01:46Z</time></trkpt><trkpt lat="43.47535996120051" lon="10.574738837404691"><ele>333.0</ele><time>2026-04-19T08:01:47Z</time></trkpt><trkpt lat="43.47529273140644" lon="10.574646025409828"><ele>330.79999999999995</ele><time>2026-04-19T08:01:48Z</time></trkpt><trkpt lat="43.47523072339479" lon="10.574550912410057"><ele>328.6</ele><time>2026-04-19T08:01:49Z</time></trkpt><trkpt lat="43.4751780974008" lon="10.574445985022175"><ele>326.4</ele><time>2026-04-19T08:01:50Z</time></trkpt><trkpt lat="43.475135310432535" lon="10.574333516699227"><ele>324.20000000000005</ele><time>2026-04-19T08:01:51Z</time></trkpt><trkpt lat="43.47509656598738" lon="10.574219363429798"><ele>322.0</ele><time>2026-04-19T08:01:52Z</time></trkpt><trkpt lat="43.47504478875628" lon="10.574115198651812"><ele>322.0</ele><time>2026-04-19T08:01:53Z</time></trkpt><trkpt lat="43.47501929370757" lon="10.573994694516824"><ele>322.0</ele><time>2026-04-19T08:01:54Z</time></trkpt><trkpt lat="43.47498428304374" lon="10.573880352299696"><ele>322.0</ele><time>2026-04-19T08:01:55Z</time></trkpt><trkpt lat="43.47494819638336" lon="10.573768275609387"><ele>322.0</ele><time>2026-04-19T08:01:56Z</time></trkpt><trkpt lat="43.47491150519454" lon="10.573658933146024"><ele>322.0</ele><time>2026-04-19T08:01:57Z</time></trkpt><trkpt lat="43.474883584491565" lon="10.573546651587687"><ele>322.0</ele><time>2026-04-19T08:01:58Z</time></trkpt><trkpt lat="43.47488035185626" lon="10.573433863390695"><ele>321.6</ele><time>2026-04-19T08:01:59Z</time></trkpt><trkpt lat="43.474901461586846" lon="10.573319962587947"><ele>321.20000000000005</ele><time>2026-04-19T08:02:00Z</time></trkpt><trkpt lat="43.4749442338981" lon="10.573217226070671"><ele>320.8</ele><time>2026-04-19T08:02:01.001Z</time></trkpt><trkpt lat="43.474997629000626" lon="10.57311624489009"><ele>320.4</ele><time>2026-04-19T08:02:02.001Z</time></trkpt><trkpt lat="43.475084901818946" lon="10.573055917207032"><ele>320.0</ele><time>2026-04-19T08:02:03.001Z</time></trkpt><trkpt lat="43.4751785905588" lon="10.573018181322023"><ele>320.0</ele><time>2026-04-19T08:02:04.001Z</time></trkpt><trkpt lat="43.47528034974671" lon="10.573003753093719"><ele>320.0</ele><time>2026-04-19T08:02:05.001Z</time></trkpt><trkpt lat="43.47538010149978" lon="10.573006145828073"><ele>320.0</ele><time>2026-04-19T08:02:06.001Z</time></trkpt><trkpt lat="43.4754784159895" lon="10.573009907751736"><ele>320.0</ele><time>2026-04-19T08:02:07.001Z</time></trkpt><trkpt lat="43.47557528276062" lon="10.57300132576858"><ele>320.0</ele><time>2026-04-19T08:02:08.001Z</time></trkpt><trkpt lat="43.47567131150876" lon="10.573006727406517"><ele>319.6</ele><time>2026-04-19T08:02:09.001Z</time></trkpt><trkpt lat="43.47575913413781" lon="10.573051052022258"><ele>319.2</ele><time>2026-04-19T08:02:10.001Z</time></trkpt><trkpt lat="43.47583085994522" lon="10.573130599856553"><ele>318.8</ele><time>2026-04-19T08:02:11.001Z</time></trkpt><trkpt lat="43.47588225033681" lon="10.573236088657481"><ele>318.4</ele><time>2026-04-19T08:02:12.001Z</time></trkpt><trkpt lat="43.47591534547263" lon="10.573358152604577"><ele>318.0</ele><time>2026-04-19T08:02:13.001Z</time></trkpt><trkpt lat="43.47593791856049" lon="10.573486694466881"><ele>318.0</ele><time>2026-04-19T08:02:14.001Z</time></trkpt><trkpt lat="43.47596337693471" lon="10.573604359727586"><ele>318.0</ele><time>2026-04-19T08:02:15.001Z</time></trkpt><trkpt lat="43.47601457302849" lon="10.573688355235692"><ele>318.0</ele><time>2026-04-19T08:02:16.001Z</time></trkpt><trkpt lat="43.47609396737497" lon="10.573730387640156"><ele>318.0</ele><time>2026-04-19T08:02:17.001Z</time></trkpt><trkpt lat="43.47619006908932" lon="10.57372327978909"><ele>318.0</ele><time>2026-04-19T08:02:18.001Z</time></trkpt><trkpt lat="43.47627751147595" lon="10.57369228825712"><ele>318.0</ele><time>2026-04-19T08:02:19.001Z</time></trkpt><trkpt lat="43.47635319344832" lon="10.573632870584241"><ele>315.8333333333333</ele><time>2026-04-19T08:02:20.001Z</time></trkpt><trkpt lat="43.47643266796499" lon="10.573573433960359"><ele>313.6666666666667</ele><time>2026-04-19T08:02:21.001Z</time></trkpt><trkpt lat="43.47648734669672" lon="10.57348356822895"><ele>311.5</ele><time>2026-04-19T08:02:22.001Z</time></trkpt><trkpt lat="43.476544610008176" lon="10.573415720369315"><ele>309.33333333333337</ele><time>2026-04-19T08:02:23.001Z</time></trkpt><trkpt lat="43.47661410306422" lon="10.573376886032053"><ele>307.1666666666667</ele><time>2026-04-19T08:02:24.001Z</time></trkpt><trkpt lat="43.476693915489264" lon="10.573409133366296"><ele>305.0</ele><time>2026-04-19T08:02:25.001Z</time></trkpt><trkpt lat="43.47675604629925" lon="10.573494316232809"><ele>305.0</ele><time>2026-04-19T08:02:26.001Z</time></trkpt><trkpt lat="43.476799090281354" lon="10.573588743872081"><ele>305.0</ele><time>2026-04-19T08:02:27.001Z</time></trkpt><trkpt lat="43.476852020624925" lon="10.573661907818012"><ele>305.0</ele><time>2026-04-19T08:02:28.001Z</time></trkpt><trkpt lat="43.47695977209658" lon="10.573760484112642"><ele>305.0</ele><time>2026-04-19T08:02:30.001Z</time></trkpt><trkpt lat="43.47702444536815" lon="10.573716977064578"><ele>305.0</ele><time>2026-04-19T08:02:31.001Z</time></trkpt><trkpt lat="43.47708187314817" lon="10.573644979175956"><ele>305.0</ele><time>2026-04-19T08:02:32.001Z</time></trkpt><trkpt lat="43.47712289252728" lon="10.5735385423997"><ele>306.0</ele><time>2026-04-19T08:02:33.001Z</time></trkpt><trkpt lat="43.477157255578284" lon="10.573427923818512"><ele>307.0</ele><time>2026-04-19T08:02:34.001Z</time></trkpt><trkpt lat="43.477189093599776" lon="10.573313469102395"><ele>308.0</ele><time>2026-04-19T08:02:35.001Z</time></trkpt><trkpt lat="43.47721913464958" lon="10.573204597876932"><ele>309.0</ele><time>2026-04-19T08:02:36.001Z</time></trkpt><trkpt lat="43.477251887085984" lon="10.573101851375368"><ele>310.0</ele><time>2026-04-19T08:02:37.001Z</time></trkpt><trkpt lat="43.47728289980838" lon="10.57301307557124"><ele>311.0</ele><time>2026-04-19T08:02:38.001Z</time></trkpt><trkpt lat="43.47735839529942" lon="10.572985960120675"><ele>311.0</ele><time>2026-04-19T08:02:39.001Z</time></trkpt><trkpt lat="43.47742910112468" lon="10.573021282336605"><ele>311.0</ele><time>2026-04-19T08:02:40.001Z</time></trkpt><trkpt lat="43.47749147891802" lon="10.57308210511022"><ele>311.0</ele><time>2026-04-19T08:02:41.001Z</time></trkpt><trkpt lat="43.47754963570696" lon="10.57314519771218"><ele>311.0</ele><time>2026-04-19T08:02:42.001Z</time></trkpt><trkpt lat="43.47760579014588" lon="10.573209984882292"><ele>311.0</ele><time>2026-04-19T08:02:43.001Z</time></trkpt><trkpt lat="43.47766525291221" lon="10.573273872967677"><ele>311.0</ele><time>2026-04-19T08:02:44.002Z</time></trkpt><trkpt lat="43.47772642455941" lon="10.573337391957114"><ele>311.0</ele><time>2026-04-19T08:02:45.002Z</time></trkpt><trkpt lat="43.47778245931721" lon="10.573399959620268"><ele>311.0</ele><time>2026-04-19T08:02:46.002Z</time></trkpt><trkpt lat="43.47784008733435" lon="10.573453933392786"><ele>311.0</ele><time>2026-04-19T08:02:47.002Z</time></trkpt><trkpt lat="43.477903455818904" lon="10.57347959743225"><ele>311.0</ele><time>2026-04-19T08:02:48.002Z</time></trkpt><trkpt lat="43.47796638195712" lon="10.573486144972806"><ele>311.0</ele><time>2026-04-19T08:02:49.002Z</time></trkpt><trkpt lat="43.47802685050297" lon="10.573424514055656"><ele>311.0</ele><time>2026-04-19T08:02:50.002Z</time></trkpt><trkpt lat="43.47800034637529" lon="10.573290445717419"><ele>311.0</ele><time>2026-04-19T08:02:51.002Z</time></trkpt><trkpt lat="43.47798922157507" lon="10.573189950139406"><ele>311.0</ele><time>2026-04-19T08:02:52.002Z</time></trkpt><trkpt lat="43.477947425585334" lon="10.573091370415185"><ele>311.0</ele><time>2026-04-19T08:02:53.002Z</time></trkpt><trkpt lat="43.477906239712986" lon="10.572999071896787"><ele>311.0</ele><time>2026-04-19T08:02:54.002Z</time></trkpt><trkpt lat="43.47787148374124" lon="10.572901380387558"><ele>311.0</ele><time>2026-04-19T08:02:55.002Z</time></trkpt><trkpt lat="43.477841816194704" lon="10.572794610492412"><ele>311.0</ele><time>2026-04-19T08:02:56.002Z</time></trkpt><trkpt lat="43.47781351986475" lon="10.572673412344173"><ele>311.0</ele><time>2026-04-19T08:02:57.002Z</time></trkpt><trkpt lat="43.47778524781361" lon="10.572550167292908"><ele>308.0</ele><time>2026-04-19T08:02:58.002Z</time></trkpt><trkpt lat="43.47775817002999" lon="10.572428477440011"><ele>305.0</ele><time>2026-04-19T08:02:59.002Z</time></trkpt><trkpt lat="43.477731628647504" lon="10.57230629493551"><ele>302.0</ele><time>2026-04-19T08:03:00.002Z</time></trkpt><trkpt lat="43.47770560357838" lon="10.572186489260643"><ele>299.0</ele><time>2026-04-19T08:03:01.002Z</time></trkpt><trkpt lat="43.47767759430137" lon="10.572066321050126"><ele>296.0</ele><time>2026-04-19T08:03:02.002Z</time></trkpt><trkpt lat="43.47764895523684" lon="10.571946679344048"><ele>294.5</ele><time>2026-04-19T08:03:03.002Z</time></trkpt><trkpt lat="43.477621692019646" lon="10.571828576846688"><ele>293.0</ele><time>2026-04-19T08:03:04.002Z</time></trkpt><trkpt lat="43.47759814633983" lon="10.571711668301734"><ele>291.5</ele><time>2026-04-19T08:03:05.002Z</time></trkpt><trkpt lat="43.47757970434207" lon="10.571595719414118"><ele>290.0</ele><time>2026-04-19T08:03:06.002Z</time></trkpt><trkpt lat="43.47756791148861" lon="10.571482636427632"><ele>288.5</ele><time>2026-04-19T08:03:07.002Z</time></trkpt><trkpt lat="43.47761531848835" lon="10.57138346594085"><ele>287.0</ele><time>2026-04-19T08:03:08.002Z</time></trkpt><trkpt lat="43.47769668011849" lon="10.571331473119065"><ele>287.0</ele><time>2026-04-19T08:03:09.002Z</time></trkpt><trkpt lat="43.477793784680664" lon="10.57132374282197"><ele>287.0</ele><time>2026-04-19T08:03:10.002Z</time></trkpt><trkpt lat="43.47788818080575" lon="10.571349407934498"><ele>287.0</ele><time>2026-04-19T08:03:11.002Z</time></trkpt><trkpt lat="43.477977733159285" lon="10.571359883063996"><ele>287.0</ele><time>2026-04-19T08:03:12.002Z</time></trkpt><trkpt lat="43.47806664638836" lon="10.571360046888207"><ele>287.0</ele><time>2026-04-19T08:03:13.002Z</time></trkpt><trkpt lat="43.47815010305975" lon="10.571358188713772"><ele>288.6666666666667</ele><time>2026-04-19T08:03:14.002Z</time></trkpt><trkpt lat="43.47821412184422" lon="10.571317708608067"><ele>290.33333333333337</ele><time>2026-04-19T08:03:15.002Z</time></trkpt><trkpt lat="43.478246211172525" lon="10.571227909765797"><ele>292.0</ele><time>2026-04-19T08:03:16.002Z</time></trkpt><trkpt lat="43.47822324796114" lon="10.57112409911464"><ele>293.6666666666667</ele><time>2026-04-19T08:03:17.002Z</time></trkpt><trkpt lat="43.47817619285382" lon="10.571001104367447"><ele>295.3333333333333</ele><time>2026-04-19T08:03:18.002Z</time></trkpt><trkpt lat="43.478118921686075" lon="10.570901062662013"><ele>297.0</ele><time>2026-04-19T08:03:19.002Z</time></trkpt><trkpt lat="43.47806088685106" lon="10.570803179555854"><ele>297.0</ele><time>2026-04-19T08:03:20.002Z</time></trkpt><trkpt lat="43.47800394482962" lon="10.570704383902555"><ele>297.0</ele><time>2026-04-19T08:03:21.002Z</time></trkpt><trkpt lat="43.47795284159325" lon="10.570606414727624"><ele>297.0</ele><time>2026-04-19T08:03:22.002Z</time></trkpt><trkpt lat="43.477911896166304" lon="10.570509003867928"><ele>297.0</ele><time>2026-04-19T08:03:23.002Z</time></trkpt><trkpt lat="43.47788196688543" lon="10.570401999248482"><ele>297.0</ele><time>2026-04-19T08:03:24Z</time></trkpt><trkpt lat="43.477865481237274" lon="10.570290212139149"><ele>297.0</ele><time>2026-04-19T08:03:25Z</time></trkpt><trkpt lat="43.47790149104704" lon="10.570180295595645"><ele>295.0</ele><time>2026-04-19T08:03:26Z</time></trkpt><trkpt lat="43.477960607851436" lon="10.570091371768589"><ele>293.0</ele><time>2026-04-19T08:03:27Z</time></trkpt><trkpt lat="43.478038069258695" lon="10.570015077417532"><ele>291.0</ele><time>2026-04-19T08:03:28Z</time></trkpt><trkpt lat="43.478111720668835" lon="10.569935834023864"><ele>289.0</ele><time>2026-04-19T08:03:29Z</time></trkpt><trkpt lat="43.478173028544326" lon="10.569837460146164"><ele>287.0</ele><time>2026-04-19T08:03:30Z</time></trkpt><trkpt lat="43.478229549283135" lon="10.569737021231983"><ele>287.0</ele><time>2026-04-19T08:03:31Z</time></trkpt><trkpt lat="43.478293300097654" lon="10.569645340393931"><ele>287.0</ele><time>2026-04-19T08:03:32Z</time></trkpt><trkpt lat="43.47837730204804" lon="10.569589236006436"><ele>287.0</ele><time>2026-04-19T08:03:33Z</time></trkpt><trkpt lat="43.47847257827671" lon="10.569556742890022"><ele>287.0</ele><time>2026-04-19T08:03:34Z</time></trkpt><trkpt lat="43.47857137980707" lon="10.569516948391277"><ele>287.0</ele><time>2026-04-19T08:03:35Z</time></trkpt><trkpt lat="43.47867160062771" lon="10.569471739215476"><ele>282.6</ele><time>2026-04-19T08:03:36Z</time></trkpt><trkpt lat="43.47877124655141" lon="10.569434237137573"><ele>278.2</ele><time>2026-04-19T08:03:37Z</time></trkpt><trkpt lat="43.47887244467961" lon="10.569402720860214"><ele>273.8</ele><time>2026-04-19T08:03:38Z</time></trkpt><trkpt lat="43.47897348760124" lon="10.56937068759666"><ele>269.4</ele><time>2026-04-19T08:03:39Z</time></trkpt><trkpt lat="43.47907430180918" lon="10.569353627397547"><ele>265.0</ele><time>2026-04-19T08:03:40Z</time></trkpt><trkpt lat="43.47917523905581" lon="10.569379907644516"><ele>265.0</ele><time>2026-04-19T08:03:41Z</time></trkpt><trkpt lat="43.47927167540146" lon="10.569421310308973"><ele>265.0</ele><time>2026-04-19T08:03:42Z</time></trkpt><trkpt lat="43.479362921872934" lon="10.569481063240255"><ele>265.0</ele><time>2026-04-19T08:03:43Z</time></trkpt><trkpt lat="43.479448126955496" lon="10.569555306304352"><ele>265.0</ele><time>2026-04-19T08:03:44Z</time></trkpt><trkpt lat="43.47952791441961" lon="10.569637723298277"><ele>265.0</ele><time>2026-04-19T08:03:45Z</time></trkpt><trkpt lat="43.47960677400949" lon="10.569719889053237"><ele>266.8</ele><time>2026-04-19T08:03:46Z</time></trkpt><trkpt lat="43.47968339523531" lon="10.569806242293973"><ele>268.6</ele><time>2026-04-19T08:03:47Z</time></trkpt><trkpt lat="43.47975931274521" lon="10.569892988743279"><ele>270.4</ele><time>2026-04-19T08:03:48Z</time></trkpt><trkpt lat="43.47983485520111" lon="10.569979453463382"><ele>272.2</ele><time>2026-04-19T08:03:49Z</time></trkpt><trkpt lat="43.47991250643404" lon="10.570064492023869"><ele>274.0</ele><time>2026-04-19T08:03:50Z</time></trkpt><trkpt lat="43.47998760844473" lon="10.570135966511854"><ele>274.0</ele><time>2026-04-19T08:03:51Z</time></trkpt><trkpt lat="43.48007426911347" lon="10.570172956366076"><ele>274.0</ele><time>2026-04-19T08:03:52Z</time></trkpt><trkpt lat="43.480166922945244" lon="10.570171155170769"><ele>274.0</ele><time>2026-04-19T08:03:53Z</time></trkpt><trkpt lat="43.480241756329356" lon="10.570166305747659"><ele>274.0</ele><time>2026-04-19T08:03:54Z</time></trkpt><trkpt lat="43.48030083255314" lon="10.57011866579927"><ele>274.0</ele><time>2026-04-19T08:03:55Z</time></trkpt><trkpt lat="43.48033784447218" lon="10.570039369398943"><ele>274.0</ele><time>2026-04-19T08:03:56Z</time></trkpt><trkpt lat="43.48035881559104" lon="10.56992829994522"><ele>274.0</ele><time>2026-04-19T08:03:57Z</time></trkpt><trkpt lat="43.48029292963491" lon="10.56979365904572"><ele>274.0</ele><time>2026-04-19T08:03:58Z</time></trkpt><trkpt lat="43.4801859913416" lon="10.569737006937272"><ele>274.0</ele><time>2026-04-19T08:03:59Z</time></trkpt><trkpt lat="43.48010853198347" lon="10.56968816620735"><ele>274.0</ele><time>2026-04-19T08:04:00.001Z</time></trkpt><trkpt lat="43.4800325054256" lon="10.569639667337718"><ele>274.0</ele><time>2026-04-19T08:04:01.001Z</time></trkpt><trkpt lat="43.479962543624445" lon="10.569592117441179"><ele>274.0</ele><time>2026-04-19T08:04:02.001Z</time></trkpt><trkpt lat="43.479887844745576" lon="10.569533037371897"><ele>274.0</ele><time>2026-04-19T08:04:03.001Z</time></trkpt><trkpt lat="43.4798128529421" lon="10.569469294339623"><ele>274.0</ele><time>2026-04-19T08:04:04.001Z</time></trkpt><trkpt lat="43.479738361602216" lon="10.569402657513445"><ele>274.0</ele><time>2026-04-19T08:04:05.001Z</time></trkpt><trkpt lat="43.47966333989308" lon="10.569331781852405"><ele>274.0</ele><time>2026-04-19T08:04:06.001Z</time></trkpt><trkpt lat="43.47958794636737" lon="10.569254742407212"><ele>274.0</ele><time>2026-04-19T08:04:07.001Z</time></trkpt><trkpt lat="43.47951595039037" lon="10.569178005472978"><ele>272.2</ele><time>2026-04-19T08:04:08.001Z</time></trkpt><trkpt lat="43.4794419863283" lon="10.569091080939947"><ele>270.4</ele><time>2026-04-19T08:04:09.001Z</time></trkpt><trkpt lat="43.479360184109844" lon="10.569009501005835"><ele>268.6</ele><time>2026-04-19T08:04:10.001Z</time></trkpt><trkpt lat="43.47926360726776" lon="10.568953110149103"><ele>266.8</ele><time>2026-04-19T08:04:11.001Z</time></trkpt><trkpt lat="43.479165803187364" lon="10.568920357744178"><ele>265.0</ele><time>2026-04-19T08:04:12.001Z</time></trkpt><trkpt lat="43.47906819784096" lon="10.568898150392156"><ele>265.0</ele><time>2026-04-19T08:04:13.001Z</time></trkpt><trkpt lat="43.47897533148669" lon="10.568888142833348"><ele>265.0</ele><time>2026-04-19T08:04:14.001Z</time></trkpt><trkpt lat="43.478887321110484" lon="10.56891949741484"><ele>265.0</ele><time>2026-04-19T08:04:15.001Z</time></trkpt><trkpt lat="43.47880563168744" lon="10.568930518802725"><ele>265.0</ele><time>2026-04-19T08:04:16.001Z</time></trkpt><trkpt lat="43.47873475629111" lon="10.568937861524999"><ele>265.0</ele><time>2026-04-19T08:04:17.001Z</time></trkpt><trkpt lat="43.47862471301479" lon="10.56895384816781"><ele>265.0</ele><time>2026-04-19T08:04:19.001Z</time></trkpt><trkpt lat="43.47854788384547" lon="10.56897311824265"><ele>265.0</ele><time>2026-04-19T08:04:21.001Z</time></trkpt><trkpt lat="43.478479799273074" lon="10.568978672605802"><ele>265.0</ele><time>2026-04-19T08:04:24.001Z</time></trkpt><trkpt lat="43.478415036024096" lon="10.568995818221017"><ele>265.0</ele><time>2026-04-19T08:04:35.001Z</time></trkpt><trkpt lat="43.478493822471805" lon="10.568974429387705"><ele>265.0</ele><time>2026-04-19T08:04:50.002Z</time></trkpt><trkpt lat="43.47855789625091" lon="10.568968866139524"><ele>265.0</ele><time>2026-04-19T08:04:51.002Z</time></trkpt><trkpt lat="43.478659375384154" lon="10.568971998957482"><ele>265.0</ele><time>2026-04-19T08:04:52.002Z</time></trkpt><trkpt lat="43.47873499354061" lon="10.568946022020429"><ele>264.99999999999994</ele><time>2026-04-19T08:04:53.002Z</time></trkpt><trkpt lat="43.47880700314442" lon="10.568929184190822"><ele>265.0</ele><time>2026-04-19T08:04:54.002Z</time></trkpt><trkpt lat="43.4788751040882" lon="10.56892967722388"><ele>265.0</ele><time>2026-04-19T08:04:55.002Z</time></trkpt><trkpt lat="43.4789412804331" lon="10.568933043382954"><ele>265.0</ele><time>2026-04-19T08:04:56.002Z</time></trkpt><trkpt lat="43.47901280652228" lon="10.568937993263743"><ele>265.0</ele><time>2026-04-19T08:04:57.002Z</time></trkpt><trkpt lat="43.47909114436498" lon="10.568947675116954"><ele>264.99999999999994</ele><time>2026-04-19T08:04:58.002Z</time></trkpt><trkpt lat="43.47917429902814" lon="10.568967487548036"><ele>265.0</ele><time>2026-04-19T08:04:59.002Z</time></trkpt><trkpt lat="43.47926298949077" lon="10.569007835605952"><ele>265.0</ele><time>2026-04-19T08:05:00.002Z</time></trkpt><trkpt lat="43.47935260660052" lon="10.569074640384805"><ele>265.0</ele><time>2026-04-19T08:05:01.002Z</time></trkpt><trkpt lat="43.479442062442885" lon="10.569169795307522"><ele>265.0</ele><time>2026-04-19T08:05:02.002Z</time></trkpt><trkpt lat="43.47953991345515" lon="10.56928232360053"><ele>265.0</ele><time>2026-04-19T08:05:03.002Z</time></trkpt><trkpt lat="43.47964316781558" lon="10.569388756066697"><ele>267.25</ele><time>2026-04-19T08:05:04.002Z</time></trkpt><trkpt lat="43.4797530569468" lon="10.569483524768492"><ele>269.5</ele><time>2026-04-19T08:05:05.002Z</time></trkpt><trkpt lat="43.479852049654426" lon="10.569567579363957"><ele>271.75</ele><time>2026-04-19T08:05:06.002Z</time></trkpt><trkpt lat="43.47994480425518" lon="10.569645586187592"><ele>274.0</ele><time>2026-04-19T08:05:07.002Z</time></trkpt><trkpt lat="43.48002749415988" lon="10.569713062930775"><ele>274.0</ele><time>2026-04-19T08:05:08.002Z</time></trkpt><trkpt lat="43.4801100158774" lon="10.569763044752406"><ele>274.0</ele><time>2026-04-19T08:05:09.002Z</time></trkpt><trkpt lat="43.48018741583298" lon="10.569802641130677"><ele>274.0</ele><time>2026-04-19T08:05:10.002Z</time></trkpt><trkpt lat="43.48025316447364" lon="10.569843714867277"><ele>274.0</ele><time>2026-04-19T08:05:11.002Z</time></trkpt><trkpt lat="43.48030119528076" lon="10.569904947709473"><ele>274.0</ele><time>2026-04-19T08:05:18.002Z</time></trkpt><trkpt lat="43.48036229832774" lon="10.569972386692525"><ele>274.0</ele><time>2026-04-19T08:05:23.002Z</time></trkpt><trkpt lat="43.4804485849157" lon="10.57002951500539"><ele>274.4</ele><time>2026-04-19T08:05:26.002Z</time></trkpt><trkpt lat="43.4805434853964" lon="10.570106001037795"><ele>274.79999999999995</ele><time>2026-04-19T08:05:28.003Z</time></trkpt><trkpt lat="43.48063905844596" lon="10.570194655720583"><ele>275.20000000000005</ele><time>2026-04-19T08:05:30Z</time></trkpt><trkpt lat="43.48072148506067" lon="10.570299069837471"><ele>275.6</ele><time>2026-04-19T08:05:32Z</time></trkpt><trkpt lat="43.48075898364805" lon="10.570439828924243"><ele>276.0</ele><time>2026-04-19T08:05:34Z</time></trkpt><trkpt lat="43.48077716668468" lon="10.57053326961043"><ele>276.0</ele><time>2026-04-19T08:05:35Z</time></trkpt><trkpt lat="43.48078868924785" lon="10.570680351356406"><ele>276.0</ele><time>2026-04-19T08:05:37Z</time></trkpt><trkpt lat="43.48086150076319" lon="10.570784740356867"><ele>276.0</ele><time>2026-04-19T08:05:39Z</time></trkpt><trkpt lat="43.48093450497151" lon="10.570788797453956"><ele>276.0</ele><time>2026-04-19T08:05:40Z</time></trkpt><trkpt lat="43.48099146772392" lon="10.57068303927889"><ele>276.0</ele><time>2026-04-19T08:05:41Z</time></trkpt><trkpt lat="43.48107470396696" lon="10.570582544553064"><ele>276.0</ele><time>2026-04-19T08:05:43Z</time></trkpt><trkpt lat="43.48116038310513" lon="10.570536297175716"><ele>276.0</ele><time>2026-04-19T08:05:45Z</time></trkpt><trkpt lat="43.48127691181114" lon="10.570542858904632"><ele>276.0</ele><time>2026-04-19T08:05:47Z</time></trkpt><trkpt lat="43.48134388889202" lon="10.570554070925368"><ele>276.0</ele><time>2026-04-19T08:05:48Z</time></trkpt><trkpt lat="43.48140668229296" lon="10.570545876153865"><ele>276.0</ele><time>2026-04-19T08:05:49Z</time></trkpt><trkpt lat="43.48152756515068" lon="10.570558004078391"><ele>275.40000000000003</ele><time>2026-04-19T08:05:51Z</time></trkpt><trkpt lat="43.481641384006906" lon="10.570560801150446"><ele>274.8</ele><time>2026-04-19T08:05:53Z</time></trkpt><trkpt lat="43.48173970655786" lon="10.57058308597715"><ele>274.20000000000005</ele><time>2026-04-19T08:05:55Z</time></trkpt><trkpt lat="43.48183131625843" lon="10.5706287890452"><ele>273.6</ele><time>2026-04-19T08:05:57.001Z</time></trkpt><trkpt lat="43.4819322765585" lon="10.570549162969172"><ele>273.0</ele><time>2026-04-19T08:05:59.001Z</time></trkpt><trkpt lat="43.482017397421515" lon="10.570450328636294"><ele>273.0</ele><time>2026-04-19T08:06:01.001Z</time></trkpt><trkpt lat="43.482065052450814" lon="10.57037352600564"><ele>273.0</ele><time>2026-04-19T08:06:02.001Z</time></trkpt><trkpt lat="43.48210034053591" lon="10.570300274752277"><ele>273.0</ele><time>2026-04-19T08:06:03.001Z</time></trkpt><trkpt lat="43.482159756523664" lon="10.570165996574469"><ele>273.0</ele><time>2026-04-19T08:06:05.001Z</time></trkpt><trkpt lat="43.48219083374033" lon="10.570080955339439"><ele>273.0</ele><time>2026-04-19T08:06:06.001Z</time></trkpt><trkpt lat="43.4822124037842" lon="10.569986443854845"><ele>273.0</ele><time>2026-04-19T08:06:07.001Z</time></trkpt><trkpt lat="43.48227381631617" lon="10.569847312366518"><ele>272.0</ele><time>2026-04-19T08:06:09.001Z</time></trkpt><trkpt lat="43.48230530190925" lon="10.569727200854969"><ele>271.0</ele><time>2026-04-19T08:06:10.001Z</time></trkpt><trkpt lat="43.482336909490364" lon="10.569627487821014"><ele>270.0</ele><time>2026-04-19T08:06:11.001Z</time></trkpt><trkpt lat="43.48237861628405" lon="10.569520440962217"><ele>269.0</ele><time>2026-04-19T08:06:12.001Z</time></trkpt><trkpt lat="43.48243031674003" lon="10.569401645728078"><ele>268.0</ele><time>2026-04-19T08:06:13.001Z</time></trkpt><trkpt lat="43.48248104133766" lon="10.569275010336453"><ele>267.8</ele><time>2026-04-19T08:06:14.001Z</time></trkpt><trkpt lat="43.48252594780219" lon="10.569146049977673"><ele>267.6</ele><time>2026-04-19T08:06:15.001Z</time></trkpt><trkpt lat="43.48256745936101" lon="10.569012021471703"><ele>267.4</ele><time>2026-04-19T08:06:16.001Z</time></trkpt><trkpt lat="43.482599539602546" lon="10.568876562547272"><ele>267.2</ele><time>2026-04-19T08:06:17.001Z</time></trkpt><trkpt lat="43.4826246265687" lon="10.56873833273967"><ele>267.0</ele><time>2026-04-19T08:06:18.001Z</time></trkpt><trkpt lat="43.48264674917117" lon="10.568602495840347"><ele>266.4</ele><time>2026-04-19T08:06:19.001Z</time></trkpt><trkpt lat="43.482666366365564" lon="10.568465576310203"><ele>265.79999999999995</ele><time>2026-04-19T08:06:20.001Z</time></trkpt><trkpt lat="43.48268530252339" lon="10.56832976925867"><ele>265.2</ele><time>2026-04-19T08:06:21.001Z</time></trkpt><trkpt lat="43.4827051665269" lon="10.568193082854826"><ele>264.59999999999997</ele><time>2026-04-19T08:06:22.001Z</time></trkpt><trkpt lat="43.48272564588159" lon="10.568055424644113"><ele>264.0</ele><time>2026-04-19T08:06:23.001Z</time></trkpt><trkpt lat="43.48274741236323" lon="10.567916121104291"><ele>262.2</ele><time>2026-04-19T08:06:24.001Z</time></trkpt><trkpt lat="43.48277143010274" lon="10.567781399349546"><ele>260.4</ele><time>2026-04-19T08:06:25.001Z</time></trkpt><trkpt lat="43.48280078789876" lon="10.567656192156281"><ele>258.6</ele><time>2026-04-19T08:06:26.001Z</time></trkpt><trkpt lat="43.48284043612851" lon="10.56753392327685"><ele>256.8</ele><time>2026-04-19T08:06:27.001Z</time></trkpt><trkpt lat="43.48288588294584" lon="10.567406165438982"><ele>255.0</ele><time>2026-04-19T08:06:28.001Z</time></trkpt><trkpt lat="43.482989326198314" lon="10.567341359356972"><ele>254.0</ele><time>2026-04-19T08:06:29.001Z</time></trkpt><trkpt lat="43.48308597705683" lon="10.567288436763624"><ele>253.0</ele><time>2026-04-19T08:06:30.001Z</time></trkpt><trkpt lat="43.48317738900999" lon="10.56722713548893"><ele>252.0</ele><time>2026-04-19T08:06:31.001Z</time></trkpt><trkpt lat="43.483271634629155" lon="10.567150072138285"><ele>251.0</ele><time>2026-04-19T08:06:32.001Z</time></trkpt><trkpt lat="43.483372495485916" lon="10.567066800377576"><ele>250.0</ele><time>2026-04-19T08:06:33.001Z</time></trkpt><trkpt lat="43.4834658359059" lon="10.567001319082008"><ele>246.5</ele><time>2026-04-19T08:06:34.001Z</time></trkpt><trkpt lat="43.483575363266596" lon="10.566957692776512"><ele>243.0</ele><time>2026-04-19T08:06:35.001Z</time></trkpt><trkpt lat="43.48370079684564" lon="10.566931907155697"><ele>239.5</ele><time>2026-04-19T08:06:36.001Z</time></trkpt><trkpt lat="43.483832134878284" lon="10.56687966937589"><ele>236.0</ele><time>2026-04-19T08:06:37.001Z</time></trkpt><trkpt lat="43.48396409318177" lon="10.566833199158317"><ele>234.5</ele><time>2026-04-19T08:06:38.001Z</time></trkpt><trkpt lat="43.48409172563277" lon="10.566747928300394"><ele>233.0</ele><time>2026-04-19T08:06:39.001Z</time></trkpt><trkpt lat="43.484209066840684" lon="10.566632451616549"><ele>231.5</ele><time>2026-04-19T08:06:40.001Z</time></trkpt><trkpt lat="43.484317722161855" lon="10.566506507736415"><ele>230.0</ele><time>2026-04-19T08:06:41.001Z</time></trkpt><trkpt lat="43.48442795221942" lon="10.566390448274861"><ele>230.0</ele><time>2026-04-19T08:06:42.002Z</time></trkpt><trkpt lat="43.48453435020017" lon="10.566282614829765"><ele>230.0</ele><time>2026-04-19T08:06:43.002Z</time></trkpt><trkpt lat="43.48463827207527" lon="10.56617959721494"><ele>230.0</ele><time>2026-04-19T08:06:44.002Z</time></trkpt><trkpt lat="43.484732573269696" lon="10.566067759526906"><ele>230.0</ele><time>2026-04-19T08:06:45.002Z</time></trkpt><trkpt lat="43.48482573762444" lon="10.56596436125497"><ele>229.0</ele><time>2026-04-19T08:06:46.002Z</time></trkpt><trkpt lat="43.48490958485525" lon="10.565860601053563"><ele>228.0</ele><time>2026-04-19T08:06:47.002Z</time></trkpt><trkpt lat="43.48498633359584" lon="10.565764450236856"><ele>227.0</ele><time>2026-04-19T08:06:48.002Z</time></trkpt><trkpt lat="43.4850578978999" lon="10.565672466834249"><ele>226.0</ele><time>2026-04-19T08:06:49.002Z</time></trkpt><trkpt lat="43.485125663747155" lon="10.56558570619134"><ele>225.0</ele><time>2026-04-19T08:06:50.002Z</time></trkpt><trkpt lat="43.485191427688285" lon="10.56550108747157"><ele>225.0</ele><time>2026-04-19T08:06:51.002Z</time></trkpt><trkpt lat="43.48524929053492" lon="10.565415714626095"><ele>225.0</ele><time>2026-04-19T08:06:52.002Z</time></trkpt><trkpt lat="43.485306299700675" lon="10.565320930526926"><ele>225.0</ele><time>2026-04-19T08:06:53.002Z</time></trkpt><trkpt lat="43.48536346862797" lon="10.565216342816925"><ele>225.0</ele><time>2026-04-19T08:06:54.002Z</time></trkpt><trkpt lat="43.48542065714733" lon="10.565104715770985"><ele>225.0</ele><time>2026-04-19T08:06:55.002Z</time></trkpt><trkpt lat="43.485479458393755" lon="10.564974950332669"><ele>223.5</ele><time>2026-04-19T08:06:56.002Z</time></trkpt><trkpt lat="43.48553687970835" lon="10.564828992302612"><ele>222.0</ele><time>2026-04-19T08:06:57.002Z</time></trkpt><trkpt lat="43.485585316727466" lon="10.564660189431912"><ele>220.5</ele><time>2026-04-19T08:06:58.002Z</time></trkpt><trkpt lat="43.48561420154623" lon="10.564473303002751"><ele>219.0</ele><time>2026-04-19T08:06:59.002Z</time></trkpt><trkpt lat="43.485645459027246" lon="10.564300493853994"><ele>217.0</ele><time>2026-04-19T08:07:00.002Z</time></trkpt><trkpt lat="43.485656989753394" lon="10.56414585288393"><ele>214.99999999999997</ele><time>2026-04-19T08:07:01.002Z</time></trkpt><trkpt lat="43.48566610359808" lon="10.564002335934152"><ele>213.0</ele><time>2026-04-19T08:07:02.002Z</time></trkpt><trkpt lat="43.48566047266106" lon="10.563852207816115"><ele>211.0</ele><time>2026-04-19T08:07:03.002Z</time></trkpt><trkpt lat="43.48560708145015" lon="10.563705505526977"><ele>209.0</ele><time>2026-04-19T08:07:04.002Z</time></trkpt><trkpt lat="43.485578017289306" lon="10.5635520970629"><ele>207.25</ele><time>2026-04-19T08:07:05.002Z</time></trkpt><trkpt lat="43.48553989983028" lon="10.563412606517364"><ele>205.5</ele><time>2026-04-19T08:07:06.002Z</time></trkpt><trkpt lat="43.48549518046477" lon="10.563276165539724"><ele>203.75</ele><time>2026-04-19T08:07:07.002Z</time></trkpt><trkpt lat="43.48547825513337" lon="10.563116455087892"><ele>202.0</ele><time>2026-04-19T08:07:08.002Z</time></trkpt><trkpt lat="43.4854677474372" lon="10.562952623958324"><ele>199.2</ele><time>2026-04-19T08:07:09.002Z</time></trkpt><trkpt lat="43.48546768418236" lon="10.562796238554078"><ele>196.39999999999998</ele><time>2026-04-19T08:07:10.002Z</time></trkpt><trkpt lat="43.48549803728937" lon="10.562658876668195"><ele>193.60000000000002</ele><time>2026-04-19T08:07:11.002Z</time></trkpt><trkpt lat="43.48552216092326" lon="10.562528595078145"><ele>190.8</ele><time>2026-04-19T08:07:12.002Z</time></trkpt><trkpt lat="43.4855455641047" lon="10.562408721815972"><ele>188.0</ele><time>2026-04-19T08:07:13.002Z</time></trkpt><trkpt lat="43.485565882755346" lon="10.562301373642471"><ele>188.0</ele><time>2026-04-19T08:07:14.002Z</time></trkpt><trkpt lat="43.485564713195124" lon="10.56220487133068"><ele>188.0</ele><time>2026-04-19T08:07:15.002Z</time></trkpt><trkpt lat="43.48558776896278" lon="10.562082461199738"><ele>188.0</ele><time>2026-04-19T08:07:17.002Z</time></trkpt><trkpt lat="43.48562105992408" lon="10.561987194293383"><ele>188.0</ele><time>2026-04-19T08:07:30.003Z</time></trkpt><trkpt lat="43.48570258550456" lon="10.561965672305355"><ele>188.0</ele><time>2026-04-19T08:07:32.003Z</time></trkpt><trkpt lat="43.485790299992374" lon="10.561983925871179"><ele>188.0</ele><time>2026-04-19T08:07:34.003Z</time></trkpt><trkpt lat="43.485826488227715" lon="10.561754519278898"><ele>184.4</ele><time>2026-04-19T08:07:36.001Z</time></trkpt><trkpt lat="43.485811943165494" lon="10.561657981072983"><ele>180.8</ele><time>2026-04-19T08:07:37.001Z</time></trkpt><trkpt lat="43.48578251437362" lon="10.561552294718142"><ele>177.2</ele><time>2026-04-19T08:07:38.001Z</time></trkpt><trkpt lat="43.48576618932973" lon="10.561416587242995"><ele>173.6</ele><time>2026-04-19T08:07:39.001Z</time></trkpt><trkpt lat="43.485728954864854" lon="10.561272472331458"><ele>170.0</ele><time>2026-04-19T08:07:40.001Z</time></trkpt><trkpt lat="43.48566923966407" lon="10.561114623567233"><ele>169.0</ele><time>2026-04-19T08:07:41.001Z</time></trkpt><trkpt lat="43.48562023652108" lon="10.56093187728314"><ele>168.0</ele><time>2026-04-19T08:07:42.001Z</time></trkpt><trkpt lat="43.48556584774327" lon="10.560741832553216"><ele>167.0</ele><time>2026-04-19T08:07:43.001Z</time></trkpt><trkpt lat="43.48551079617107" lon="10.560556349606438"><ele>166.0</ele><time>2026-04-19T08:07:44.001Z</time></trkpt><trkpt lat="43.48545186255553" lon="10.560357942488906"><ele>165.33333333333334</ele><time>2026-04-19T08:07:45.001Z</time></trkpt><trkpt lat="43.485387768319214" lon="10.560148224219299"><ele>164.66666666666666</ele><time>2026-04-19T08:07:46.001Z</time></trkpt><trkpt lat="43.485327522507646" lon="10.559943637621066"><ele>164.0</ele><time>2026-04-19T08:07:47.001Z</time></trkpt><trkpt lat="43.485267362951944" lon="10.55973591600241"><ele>166.0</ele><time>2026-04-19T08:07:48.001Z</time></trkpt><trkpt lat="43.48520624940108" lon="10.559527795869334"><ele>168.0</ele><time>2026-04-19T08:07:49.001Z</time></trkpt><trkpt lat="43.485145071787876" lon="10.559321995371864"><ele>170.0</ele><time>2026-04-19T08:07:50.001Z</time></trkpt><trkpt lat="43.48508474006176" lon="10.55911586295068"><ele>170.0</ele><time>2026-04-19T08:07:51.001Z</time></trkpt><trkpt lat="43.48502594464808" lon="10.55890957014195"><ele>170.0</ele><time>2026-04-19T08:07:52.001Z</time></trkpt><trkpt lat="43.48496630724382" lon="10.558705723567154"><ele>170.0</ele><time>2026-04-19T08:07:53.001Z</time></trkpt><trkpt lat="43.48490763810044" lon="10.558503459511936"><ele>169.66666666666666</ele><time>2026-04-19T08:07:54.001Z</time></trkpt><trkpt lat="43.484848740770595" lon="10.558301856468702"><ele>169.33333333333334</ele><time>2026-04-19T08:07:55.001Z</time></trkpt><trkpt lat="43.48478730023922" lon="10.558099009773445"><ele>169.0</ele><time>2026-04-19T08:07:56.001Z</time></trkpt><trkpt lat="43.48472674262837" lon="10.557896191475171"><ele>169.66666666666669</ele><time>2026-04-19T08:07:57.001Z</time></trkpt><trkpt lat="43.48466642470961" lon="10.557692561745158"><ele>170.33333333333334</ele><time>2026-04-19T08:07:58.001Z</time></trkpt><trkpt lat="43.4846065438733" lon="10.557487939356024"><ele>171.0</ele><time>2026-04-19T08:07:59.001Z</time></trkpt><trkpt lat="43.48454719513436" lon="10.557282094845482"><ele>171.0</ele><time>2026-04-19T08:08:00.001Z</time></trkpt><trkpt lat="43.48448533277284" lon="10.557076900845304"><ele>171.0</ele><time>2026-04-19T08:08:01.001Z</time></trkpt><trkpt lat="43.48442507197604" lon="10.55687357748424"><ele>171.0</ele><time>2026-04-19T08:08:02.001Z</time></trkpt><trkpt lat="43.48436414217254" lon="10.556672064393089"><ele>170.33333333333334</ele><time>2026-04-19T08:08:03.001Z</time></trkpt><trkpt lat="43.48430488591056" lon="10.556471068768685"><ele>169.66666666666669</ele><time>2026-04-19T08:08:04.001Z</time></trkpt><trkpt lat="43.48424545673039" lon="10.55627119210088"><ele>169.0</ele><time>2026-04-19T08:08:05.001Z</time></trkpt><trkpt lat="43.48418711762692" lon="10.556074168971241"><ele>167.33333333333334</ele><time>2026-04-19T08:08:06.001Z</time></trkpt><trkpt lat="43.48412885102785" lon="10.555876353414433"><ele>165.66666666666666</ele><time>2026-04-19T08:08:07.001Z</time></trkpt><trkpt lat="43.48407133552888" lon="10.555682243224865"><ele>164.0</ele><time>2026-04-19T08:08:08.001Z</time></trkpt><trkpt lat="43.48401511289514" lon="10.555488229344549"><ele>163.5</ele><time>2026-04-19T08:08:09.001Z</time></trkpt><trkpt lat="43.48396049008784" lon="10.555294214221394"><ele>163.0</ele><time>2026-04-19T08:08:10.001Z</time></trkpt><trkpt lat="43.48390439816127" lon="10.555103510843624"><ele>162.5</ele><time>2026-04-19T08:08:11.001Z</time></trkpt><trkpt lat="43.48384948740537" lon="10.554912608682232"><ele>162.0</ele><time>2026-04-19T08:08:12.001Z</time></trkpt><trkpt lat="43.48379411827752" lon="10.554717513901874"><ele>162.66666666666666</ele><time>2026-04-19T08:08:13.001Z</time></trkpt><trkpt lat="43.483733626560294" lon="10.554521979276556"><ele>163.33333333333331</ele><time>2026-04-19T08:08:14.001Z</time></trkpt><trkpt lat="43.48367194788355" lon="10.554324851938738"><ele>164.0</ele><time>2026-04-19T08:08:15.001Z</time></trkpt><trkpt lat="43.483627338386356" lon="10.55411402687276"><ele>164.0</ele><time>2026-04-19T08:08:16.001Z</time></trkpt><trkpt lat="43.48355242311577" lon="10.553918794457351"><ele>164.0</ele><time>2026-04-19T08:08:17.001Z</time></trkpt><trkpt lat="43.483494905577594" lon="10.55371594283722"><ele>164.0</ele><time>2026-04-19T08:08:18.001Z</time></trkpt><trkpt lat="43.483437130046234" lon="10.553514434204947"><ele>161.66666666666666</ele><time>2026-04-19T08:08:19.001Z</time></trkpt><trkpt lat="43.48337886417418" lon="10.553312415875967"><ele>159.33333333333334</ele><time>2026-04-19T08:08:20.001Z</time></trkpt><trkpt lat="43.48331996942538" lon="10.553112322076695"><ele>157.0</ele><time>2026-04-19T08:08:21.001Z</time></trkpt><trkpt lat="43.483259589545675" lon="10.552912612742865"><ele>156.33333333333334</ele><time>2026-04-19T08:08:22.001Z</time></trkpt><trkpt lat="43.48319890399107" lon="10.552711156839335"><ele>155.66666666666666</ele><time>2026-04-19T08:08:23.001Z</time></trkpt><trkpt lat="43.48313765002991" lon="10.55250535005909"><ele>155.0</ele><time>2026-04-19T08:08:24.001Z</time></trkpt><trkpt lat="43.48307782117158" lon="10.552301195944835"><ele>155.0</ele><time>2026-04-19T08:08:25.001Z</time></trkpt><trkpt lat="43.48301859654614" lon="10.5520973993548"><ele>155.0</ele><time>2026-04-19T08:08:26.001Z</time></trkpt><trkpt lat="43.482958830222174" lon="10.551894842486654"><ele>155.0</ele><time>2026-04-19T08:08:27.001Z</time></trkpt><trkpt lat="43.48291472154255" lon="10.551685484908093"><ele>154.0</ele><time>2026-04-19T08:08:28.001Z</time></trkpt><trkpt lat="43.482857449562665" lon="10.551484016645333"><ele>153.0</ele><time>2026-04-19T08:08:29.001Z</time></trkpt><trkpt lat="43.482800622216466" lon="10.551280871931544"><ele>152.0</ele><time>2026-04-19T08:08:30.001Z</time></trkpt><trkpt lat="43.482741779781634" lon="10.551080970578091"><ele>151.33333333333331</ele><time>2026-04-19T08:08:31.001Z</time></trkpt><trkpt lat="43.48266546361431" lon="10.550891281606074"><ele>150.66666666666666</ele><time>2026-04-19T08:08:32.001Z</time></trkpt><trkpt lat="43.48260707895773" lon="10.55069161136805"><ele>150.0</ele><time>2026-04-19T08:08:33.001Z</time></trkpt><trkpt lat="43.48252208671162" lon="10.550509782301033"><ele>149.66666666666666</ele><time>2026-04-19T08:08:34.001Z</time></trkpt><trkpt lat="43.48241772946341" lon="10.550344187758563"><ele>149.33333333333331</ele><time>2026-04-19T08:08:35.001Z</time></trkpt><trkpt lat="43.482304228210545" lon="10.550196652576174"><ele>149.0</ele><time>2026-04-19T08:08:36.001Z</time></trkpt><trkpt lat="43.482174818334" lon="10.550075393849193"><ele>146.0</ele><time>2026-04-19T08:08:37.001Z</time></trkpt><trkpt lat="43.48205619177609" lon="10.5499376042024"><ele>143.0</ele><time>2026-04-19T08:08:38.001Z</time></trkpt><trkpt lat="43.48193866669112" lon="10.549800727380504"><ele>140.0</ele><time>2026-04-19T08:08:39.001Z</time></trkpt><trkpt lat="43.48182109004944" lon="10.54966374025687"><ele>141.0</ele><time>2026-04-19T08:08:40.001Z</time></trkpt><trkpt lat="43.481704683651174" lon="10.549526074407401"><ele>142.0</ele><time>2026-04-19T08:08:41.001Z</time></trkpt><trkpt lat="43.48158503702478" lon="10.549384475521212"><ele>143.0</ele><time>2026-04-19T08:08:42.001Z</time></trkpt><trkpt lat="43.481462243786034" lon="10.549242153118685"><ele>143.0</ele><time>2026-04-19T08:08:43.002Z</time></trkpt><trkpt lat="43.48133904816263" lon="10.549098648891295"><ele>143.0</ele><time>2026-04-19T08:08:44.002Z</time></trkpt><trkpt lat="43.4812130826948" lon="10.548953442124205"><ele>143.0</ele><time>2026-04-19T08:08:45.002Z</time></trkpt><trkpt lat="43.48108647386282" lon="10.548809873728358"><ele>143.0</ele><time>2026-04-19T08:08:46.002Z</time></trkpt><trkpt lat="43.48096172466966" lon="10.5486651961709"><ele>143.0</ele><time>2026-04-19T08:08:47.002Z</time></trkpt><trkpt lat="43.480838300991024" lon="10.548522494779181"><ele>143.0</ele><time>2026-04-19T08:08:48.002Z</time></trkpt><trkpt lat="43.48071639165665" lon="10.548378991786176"><ele>143.0</ele><time>2026-04-19T08:08:49.002Z</time></trkpt><trkpt lat="43.4805963720725" lon="10.548238398400542"><ele>143.0</ele><time>2026-04-19T08:08:50.002Z</time></trkpt><trkpt lat="43.48047850389269" lon="10.548099171051861"><ele>143.0</ele><time>2026-04-19T08:08:51.002Z</time></trkpt><trkpt lat="43.48036027275765" lon="10.547962894509306"><ele>144.0</ele><time>2026-04-19T08:08:52.002Z</time></trkpt><trkpt lat="43.4802430321401" lon="10.547827031497318"><ele>145.0</ele><time>2026-04-19T08:08:53.002Z</time></trkpt><trkpt lat="43.48012505397332" lon="10.547691193836874"><ele>146.0</ele><time>2026-04-19T08:08:54.002Z</time></trkpt><trkpt lat="43.48000919522655" lon="10.547555523917135"><ele>146.0</ele><time>2026-04-19T08:08:55.002Z</time></trkpt><trkpt lat="43.4798985769404" lon="10.547415533328227"><ele>146.0</ele><time>2026-04-19T08:08:56.002Z</time></trkpt><trkpt lat="43.47979679435889" lon="10.547264723954736"><ele>146.0</ele><time>2026-04-19T08:08:57.002Z</time></trkpt><trkpt lat="43.47970389838138" lon="10.547104853282942"><ele>146.0</ele><time>2026-04-19T08:08:58.002Z</time></trkpt><trkpt lat="43.479623852504325" lon="10.546932655400656"><ele>146.0</ele><time>2026-04-19T08:08:59.002Z</time></trkpt><trkpt lat="43.47955831894299" lon="10.546748612138071"><ele>146.0</ele><time>2026-04-19T08:09:00.002Z</time></trkpt><trkpt lat="43.47950898173521" lon="10.546553819962515"><ele>146.0</ele><time>2026-04-19T08:09:01.002Z</time></trkpt><trkpt lat="43.47947679389188" lon="10.546352314097376"><ele>146.0</ele><time>2026-04-19T08:09:02.002Z</time></trkpt><trkpt lat="43.479462479013584" lon="10.546150971806696"><ele>146.0</ele><time>2026-04-19T08:09:03.002Z</time></trkpt><trkpt lat="43.47946872977792" lon="10.545957872852021"><ele>146.0</ele><time>2026-04-19T08:09:04.002Z</time></trkpt><trkpt lat="43.4794912022623" lon="10.545779041159777"><ele>146.0</ele><time>2026-04-19T08:09:05.002Z</time></trkpt><trkpt lat="43.47952549047246" lon="10.545615826325555"><ele>146.0</ele><time>2026-04-19T08:09:06.002Z</time></trkpt><trkpt lat="43.479570651687055" lon="10.545465737946397"><ele>145.25</ele><time>2026-04-19T08:09:07.002Z</time></trkpt><trkpt lat="43.47962750825297" lon="10.545323305248976"><ele>144.5</ele><time>2026-04-19T08:09:08.002Z</time></trkpt><trkpt lat="43.47969276340159" lon="10.545187536229717"><ele>143.75</ele><time>2026-04-19T08:09:09.002Z</time></trkpt><trkpt lat="43.47976647447" lon="10.545058223687656"><ele>143.0</ele><time>2026-04-19T08:09:10.002Z</time></trkpt><trkpt lat="43.47984193459069" lon="10.544931980808348"><ele>143.0</ele><time>2026-04-19T08:09:11.002Z</time></trkpt><trkpt lat="43.47991445158206" lon="10.544812768714914"><ele>143.0</ele><time>2026-04-19T08:09:12.002Z</time></trkpt><trkpt lat="43.479980130666824" lon="10.54470468219231"><ele>143.0</ele><time>2026-04-19T08:09:13.002Z</time></trkpt><trkpt lat="43.48004131843586" lon="10.544605769551115"><ele>143.0</ele><time>2026-04-19T08:09:14.002Z</time></trkpt><trkpt lat="43.48009834990931" lon="10.54451502298143"><ele>143.0</ele><time>2026-04-19T08:09:15.002Z</time></trkpt><trkpt lat="43.480152440013676" lon="10.544429298226024"><ele>142.83333333333331</ele><time>2026-04-19T08:09:16.002Z</time></trkpt><trkpt lat="43.48019871196816" lon="10.544353598833121"><ele>142.66666666666666</ele><time>2026-04-19T08:09:17.002Z</time></trkpt><trkpt lat="43.48024708676138" lon="10.544295614828608"><ele>142.5</ele><time>2026-04-19T08:09:18.002Z</time></trkpt><trkpt lat="43.480168749104784" lon="10.544098102876188"><ele>142.33333333333334</ele><time>2026-04-19T08:09:20.002Z</time></trkpt><trkpt lat="43.48013278650719" lon="10.544011796161813"><ele>142.16666666666669</ele><time>2026-04-19T08:09:21.002Z</time></trkpt><trkpt lat="43.480084341520225" lon="10.543928027055086"><ele>142.0</ele><time>2026-04-19T08:09:22.002Z</time></trkpt><trkpt lat="43.480047066993365" lon="10.54383625957456"><ele>142.0</ele><time>2026-04-19T08:09:23.002Z</time></trkpt><trkpt lat="43.48001329481211" lon="10.543739870021673"><ele>142.0</ele><time>2026-04-19T08:09:24.002Z</time></trkpt><trkpt lat="43.47998034547499" lon="10.54364091374772"><ele>142.0</ele><time>2026-04-19T08:09:25.002Z</time></trkpt><trkpt lat="43.479954302009126" lon="10.54354747226309"><ele>142.0</ele><time>2026-04-19T08:09:26.002Z</time></trkpt><trkpt lat="43.47993520284523" lon="10.543447847196154"><ele>142.0</ele><time>2026-04-19T08:09:27.002Z</time></trkpt><trkpt lat="43.47993192023599" lon="10.54333627428749"><ele>142.0</ele><time>2026-04-19T08:09:28.002Z</time></trkpt><trkpt lat="43.47994725149152" lon="10.543221331738868"><ele>141.6</ele><time>2026-04-19T08:09:29.002Z</time></trkpt><trkpt lat="43.47998319209834" lon="10.54311706424682"><ele>141.2</ele><time>2026-04-19T08:09:30.003Z</time></trkpt><trkpt lat="43.48003831958824" lon="10.543013311658774"><ele>140.8</ele><time>2026-04-19T08:09:31.003Z</time></trkpt><trkpt lat="43.480110692661846" lon="10.542926988642536"><ele>140.4</ele><time>2026-04-19T08:09:32.003Z</time></trkpt><trkpt lat="43.480188981900625" lon="10.542842825218711"><ele>140.0</ele><time>2026-04-19T08:09:33.003Z</time></trkpt><trkpt lat="43.480267511992245" lon="10.542743034237008"><ele>138.25</ele><time>2026-04-19T08:09:34.003Z</time></trkpt><trkpt lat="43.48035833154214" lon="10.542642214810613"><ele>136.5</ele><time>2026-04-19T08:09:35.003Z</time></trkpt><trkpt lat="43.48043474520868" lon="10.542490999183439"><ele>134.75</ele><time>2026-04-19T08:09:36.003Z</time></trkpt><trkpt lat="43.480492936475784" lon="10.542302014366213"><ele>133.0</ele><time>2026-04-19T08:09:37.003Z</time></trkpt><trkpt lat="43.48054092952585" lon="10.542109811147055"><ele>131.66666666666669</ele><time>2026-04-19T08:09:38.003Z</time></trkpt><trkpt lat="43.48058646595732" lon="10.541905636705955"><ele>130.33333333333334</ele><time>2026-04-19T08:09:39.003Z</time></trkpt><trkpt lat="43.4806312646262" lon="10.541699291227957"><ele>129.0</ele><time>2026-04-19T08:09:40.003Z</time></trkpt><trkpt lat="43.480675544136936" lon="10.54148360335295"><ele>129.0</ele><time>2026-04-19T08:09:41.003Z</time></trkpt><trkpt lat="43.48071886998901" lon="10.541262946086377"><ele>129.0</ele><time>2026-04-19T08:09:42.001Z</time></trkpt><trkpt lat="43.48076214226228" lon="10.541039705893022"><ele>129.0</ele><time>2026-04-19T08:09:43.001Z</time></trkpt><trkpt lat="43.48080695304713" lon="10.540821567544633"><ele>129.0</ele><time>2026-04-19T08:09:44.001Z</time></trkpt><trkpt lat="43.4808515211533" lon="10.54060558362236"><ele>129.0</ele><time>2026-04-19T08:09:45.001Z</time></trkpt><trkpt lat="43.480896770907535" lon="10.540386296311022"><ele>129.0</ele><time>2026-04-19T08:09:46.001Z</time></trkpt><trkpt lat="43.48094266495527" lon="10.540164479374655"><ele>129.0</ele><time>2026-04-19T08:09:47.001Z</time></trkpt><trkpt lat="43.48098842897358" lon="10.539944202871348"><ele>129.0</ele><time>2026-04-19T08:09:48.001Z</time></trkpt><trkpt lat="43.481035026652314" lon="10.539723565170485"><ele>129.0</ele><time>2026-04-19T08:09:49.001Z</time></trkpt><trkpt lat="43.481081050855536" lon="10.539506102991803"><ele>129.66666666666666</ele><time>2026-04-19T08:09:50.001Z</time></trkpt><trkpt lat="43.481125787085475" lon="10.539294726506405"><ele>130.33333333333331</ele><time>2026-04-19T08:09:51.001Z</time></trkpt><trkpt lat="43.48117021387762" lon="10.539087161937456"><ele>131.0</ele><time>2026-04-19T08:09:52.001Z</time></trkpt><trkpt lat="43.48121594391195" lon="10.538878511085452"><ele>131.25</ele><time>2026-04-19T08:09:53.001Z</time></trkpt><trkpt lat="43.4812601906699" lon="10.538678139370502"><ele>131.5</ele><time>2026-04-19T08:09:54.001Z</time></trkpt><trkpt lat="43.48130290322597" lon="10.538484715592077"><ele>131.75</ele><time>2026-04-19T08:09:55.001Z</time></trkpt><trkpt lat="43.48134073601733" lon="10.538296001611952"><ele>132.0</ele><time>2026-04-19T08:09:56.001Z</time></trkpt><trkpt lat="43.4813748030224" lon="10.538107719814935"><ele>131.75</ele><time>2026-04-19T08:09:57.001Z</time></trkpt><trkpt lat="43.481400801114724" lon="10.537915387349468"><ele>131.5</ele><time>2026-04-19T08:09:58.001Z</time></trkpt><trkpt lat="43.48141038719842" lon="10.537717353357005"><ele>131.25</ele><time>2026-04-19T08:09:59.001Z</time></trkpt><trkpt lat="43.48140501836209" lon="10.537518268150674"><ele>131.0</ele><time>2026-04-19T08:10:00.001Z</time></trkpt><trkpt lat="43.481367763863005" lon="10.537326723688334"><ele>131.0</ele><time>2026-04-19T08:10:01.001Z</time></trkpt><trkpt lat="43.48135330162755" lon="10.537133263045265"><ele>131.0</ele><time>2026-04-19T08:10:02.001Z</time></trkpt><trkpt lat="43.481310770027235" lon="10.536947154176053"><ele>131.0</ele><time>2026-04-19T08:10:03.001Z</time></trkpt><trkpt lat="43.48126637864325" lon="10.536765223412836"><ele>131.0</ele><time>2026-04-19T08:10:04.001Z</time></trkpt><trkpt lat="43.48122272915766" lon="10.536580686920397"><ele>131.0</ele><time>2026-04-19T08:10:05.001Z</time></trkpt><trkpt lat="43.481180256972195" lon="10.536394817813916"><ele>131.0</ele><time>2026-04-19T08:10:06.001Z</time></trkpt><trkpt lat="43.48114101245235" lon="10.536205924944067"><ele>131.0</ele><time>2026-04-19T08:10:07.001Z</time></trkpt><trkpt lat="43.48110265438391" lon="10.53601353921997"><ele>131.0</ele><time>2026-04-19T08:10:08.001Z</time></trkpt><trkpt lat="43.481064128621675" lon="10.535817664605965"><ele>132.33333333333331</ele><time>2026-04-19T08:10:09.001Z</time></trkpt><trkpt lat="43.48102575272996" lon="10.535617031667558"><ele>133.66666666666666</ele><time>2026-04-19T08:10:10.001Z</time></trkpt><trkpt lat="43.48098825142548" lon="10.535414869552723"><ele>135.0</ele><time>2026-04-19T08:10:11.001Z</time></trkpt><trkpt lat="43.480954754810426" lon="10.535211930515858"><ele>135.0</ele><time>2026-04-19T08:10:12.001Z</time></trkpt><trkpt lat="43.48092364477204" lon="10.535005484992746"><ele>135.0</ele><time>2026-04-19T08:10:13.001Z</time></trkpt><trkpt lat="43.48089150239832" lon="10.53479834253584"><ele>135.0</ele><time>2026-04-19T08:10:14.001Z</time></trkpt><trkpt lat="43.480857212681435" lon="10.534592781119033"><ele>135.25</ele><time>2026-04-19T08:10:15.001Z</time></trkpt><trkpt lat="43.480821161506746" lon="10.534389939865237"><ele>135.5</ele><time>2026-04-19T08:10:16.001Z</time></trkpt><trkpt lat="43.4807869741804" lon="10.534196793537609"><ele>135.75</ele><time>2026-04-19T08:10:17.001Z</time></trkpt><trkpt lat="43.48075704663463" lon="10.53400636907641"><ele>136.0</ele><time>2026-04-19T08:10:18.001Z</time></trkpt><trkpt lat="43.48072660707857" lon="10.533819618075048"><ele>135.25</ele><time>2026-04-19T08:10:19.001Z</time></trkpt><trkpt lat="43.48068949809674" lon="10.533637803785998"><ele>134.5</ele><time>2026-04-19T08:10:20.001Z</time></trkpt><trkpt lat="43.480640086931544" lon="10.533452628370165"><ele>133.75</ele><time>2026-04-19T08:10:21.001Z</time></trkpt><trkpt lat="43.48057314418601" lon="10.53327341447826"><ele>133.0</ele><time>2026-04-19T08:10:22.001Z</time></trkpt><trkpt lat="43.48047569018857" lon="10.533108205378825"><ele>133.66666666666669</ele><time>2026-04-19T08:10:23.001Z</time></trkpt><trkpt lat="43.480359818094215" lon="10.532974877538962"><ele>134.33333333333334</ele><time>2026-04-19T08:10:24.001Z</time></trkpt><trkpt lat="43.48022436896666" lon="10.532881481151378"><ele>135.0</ele><time>2026-04-19T08:10:25.001Z</time></trkpt><trkpt lat="43.48009749410925" lon="10.532771820734615"><ele>135.0</ele><time>2026-04-19T08:10:26.001Z</time></trkpt><trkpt lat="43.47996982087599" lon="10.532660395943715"><ele>135.0</ele><time>2026-04-19T08:10:27.001Z</time></trkpt><trkpt lat="43.47984941238377" lon="10.532538948884005"><ele>135.0</ele><time>2026-04-19T08:10:28.001Z</time></trkpt><trkpt lat="43.47972736886032" lon="10.532430281682336"><ele>135.0</ele><time>2026-04-19T08:10:29.001Z</time></trkpt><trkpt lat="43.479611176838844" lon="10.532314470911938"><ele>134.25</ele><time>2026-04-19T08:10:30.001Z</time></trkpt><trkpt lat="43.47950315854372" lon="10.532194223568057"><ele>133.5</ele><time>2026-04-19T08:10:31.001Z</time></trkpt><trkpt lat="43.47939315054736" lon="10.532076702426966"><ele>132.75</ele><time>2026-04-19T08:10:32.001Z</time></trkpt><trkpt lat="43.47929836050181" lon="10.531931481119535"><ele>132.0</ele><time>2026-04-19T08:10:33.001Z</time></trkpt><trkpt lat="43.479208511837804" lon="10.531778066958406"><ele>132.0</ele><time>2026-04-19T08:10:34.001Z</time></trkpt><trkpt lat="43.479125598422485" lon="10.531618020268635"><ele>132.0</ele><time>2026-04-19T08:10:35.001Z</time></trkpt><trkpt lat="43.4790513713485" lon="10.531450319590473"><ele>132.0</ele><time>2026-04-19T08:10:36.001Z</time></trkpt><trkpt lat="43.47898079260536" lon="10.531280383124539"><ele>132.0</ele><time>2026-04-19T08:10:37.001Z</time></trkpt><trkpt lat="43.47891137449796" lon="10.53110914079205"><ele>131.75</ele><time>2026-04-19T08:10:38.001Z</time></trkpt><trkpt lat="43.478858974075884" lon="10.53092682217526"><ele>131.5</ele><time>2026-04-19T08:10:39.001Z</time></trkpt><trkpt lat="43.47879140959168" lon="10.530753544406425"><ele>131.25</ele><time>2026-04-19T08:10:40.001Z</time></trkpt><trkpt lat="43.47872385004553" lon="10.53057894044482"><ele>131.0</ele><time>2026-04-19T08:10:41.001Z</time></trkpt><trkpt lat="43.47865729709864" lon="10.530402536547435"><ele>129.0</ele><time>2026-04-19T08:10:42.001Z</time></trkpt><trkpt lat="43.47859250173643" lon="10.530230791162428"><ele>127.0</ele><time>2026-04-19T08:10:43.001Z</time></trkpt><trkpt lat="43.47853384562747" lon="10.53007531899819"><ele>125.0</ele><time>2026-04-19T08:10:44.002Z</time></trkpt><trkpt lat="43.47847903317641" lon="10.529931655995526"><ele>123.0</ele><time>2026-04-19T08:10:45.002Z</time></trkpt><trkpt lat="43.478419208337506" lon="10.529806808472872"><ele>123.0</ele><time>2026-04-19T08:10:46.002Z</time></trkpt><trkpt lat="43.478375899083225" lon="10.529685511282624"><ele>123.00000000000001</ele><time>2026-04-19T08:10:47.002Z</time></trkpt><trkpt lat="43.478327772412015" lon="10.529569126762611"><ele>123.00000000000001</ele><time>2026-04-19T08:10:48.002Z</time></trkpt><trkpt lat="43.47827739342593" lon="10.529445151822078"><ele>123.0</ele><time>2026-04-19T08:10:49.002Z</time></trkpt><trkpt lat="43.478226634614025" lon="10.529315344355059"><ele>123.0</ele><time>2026-04-19T08:10:50.002Z</time></trkpt><trkpt lat="43.478176240969276" lon="10.529186649188942"><ele>123.0</ele><time>2026-04-19T08:10:51.002Z</time></trkpt><trkpt lat="43.478126078619766" lon="10.529057609929009"><ele>123.00000000000001</ele><time>2026-04-19T08:10:52.002Z</time></trkpt><trkpt lat="43.47807614127065" lon="10.528929269742607"><ele>123.00000000000001</ele><time>2026-04-19T08:10:53.002Z</time></trkpt><trkpt lat="43.47802703159494" lon="10.52879966337824"><ele>123.0</ele><time>2026-04-19T08:10:54.002Z</time></trkpt><trkpt lat="43.47797178428725" lon="10.528669078517066"><ele>123.0</ele><time>2026-04-19T08:10:55.002Z</time></trkpt><trkpt lat="43.47791711947809" lon="10.528529819614143"><ele>121.25</ele><time>2026-04-19T08:10:56.002Z</time></trkpt><trkpt lat="43.477862405040355" lon="10.52838220088455"><ele>119.5</ele><time>2026-04-19T08:10:57.002Z</time></trkpt><trkpt lat="43.47780435655035" lon="10.528228767175904"><ele>117.75</ele><time>2026-04-19T08:10:58.002Z</time></trkpt><trkpt lat="43.477744987769185" lon="10.528076027461367"><ele>116.0</ele><time>2026-04-19T08:10:59.002Z</time></trkpt><trkpt lat="43.47768574497455" lon="10.52792136324826"><ele>116.25</ele><time>2026-04-19T08:11:00.002Z</time></trkpt><trkpt lat="43.477638307036614" lon="10.527756296824998"><ele>116.5</ele><time>2026-04-19T08:11:01.002Z</time></trkpt><trkpt lat="43.477568176098785" lon="10.527605898556342"><ele>116.75</ele><time>2026-04-19T08:11:02.002Z</time></trkpt><trkpt lat="43.47749197220665" lon="10.527463863395582"><ele>117.0</ele><time>2026-04-19T08:11:03.002Z</time></trkpt><trkpt lat="43.47740978360855" lon="10.527324305792302"><ele>117.0</ele><time>2026-04-19T08:11:04.002Z</time></trkpt><trkpt lat="43.47732325120982" lon="10.527194492494507"><ele>117.0</ele><time>2026-04-19T08:11:05.002Z</time></trkpt><trkpt lat="43.47721934392184" lon="10.527085548922173"><ele>117.0</ele><time>2026-04-19T08:11:06.002Z</time></trkpt><trkpt lat="43.47712157286014" lon="10.526965170203704"><ele>117.0</ele><time>2026-04-19T08:11:07.002Z</time></trkpt><trkpt lat="43.47701846856376" lon="10.526848933015042"><ele>115.25</ele><time>2026-04-19T08:11:08.002Z</time></trkpt><trkpt lat="43.47691021455383" lon="10.52673921594396"><ele>113.5</ele><time>2026-04-19T08:11:09.002Z</time></trkpt><trkpt lat="43.47679781154696" lon="10.526632969546514"><ele>111.75</ele><time>2026-04-19T08:11:10.002Z</time></trkpt><trkpt lat="43.47669196066025" lon="10.526513688419577"><ele>110.0</ele><time>2026-04-19T08:11:11.002Z</time></trkpt><trkpt lat="43.47658062710944" lon="10.526411326169828"><ele>110.0</ele><time>2026-04-19T08:11:12.002Z</time></trkpt><trkpt lat="43.47647176635661" lon="10.526311800768207"><ele>110.0</ele><time>2026-04-19T08:11:13.002Z</time></trkpt><trkpt lat="43.47636410668485" lon="10.526214511084154"><ele>110.0</ele><time>2026-04-19T08:11:14.002Z</time></trkpt><trkpt lat="43.47626264683117" lon="10.526120787685759"><ele>110.0</ele><time>2026-04-19T08:11:15.002Z</time></trkpt><trkpt lat="43.476182639908984" lon="10.526044621148301"><ele>109.6</ele><time>2026-04-19T08:11:16.002Z</time></trkpt><trkpt lat="43.47610404363059" lon="10.525971935947236"><ele>109.2</ele><time>2026-04-19T08:11:17.002Z</time></trkpt><trkpt lat="43.47602719500125" lon="10.525900311472245"><ele>108.80000000000001</ele><time>2026-04-19T08:11:18.002Z</time></trkpt><trkpt lat="43.475949480687405" lon="10.525819312310043"><ele>108.4</ele><time>2026-04-19T08:11:19.002Z</time></trkpt><trkpt lat="43.47586438883895" lon="10.525732553213354"><ele>108.0</ele><time>2026-04-19T08:11:20.002Z</time></trkpt><trkpt lat="43.475773194682795" lon="10.525638580275773"><ele>108.0</ele><time>2026-04-19T08:11:21.002Z</time></trkpt><trkpt lat="43.475683424890526" lon="10.525541171783354"><ele>108.0</ele><time>2026-04-19T08:11:22.002Z</time></trkpt><trkpt lat="43.47559189494185" lon="10.525437323149683"><ele>108.0</ele><time>2026-04-19T08:11:23.002Z</time></trkpt><trkpt lat="43.47550046788913" lon="10.525325744235559"><ele>108.0</ele><time>2026-04-19T08:11:24.002Z</time></trkpt><trkpt lat="43.47541483497689" lon="10.525201013825644"><ele>107.0</ele><time>2026-04-19T08:11:25.002Z</time></trkpt><trkpt lat="43.47533496640994" lon="10.52506456213772"><ele>106.0</ele><time>2026-04-19T08:11:26.002Z</time></trkpt><trkpt lat="43.475262379975696" lon="10.524915884933023"><ele>105.0</ele><time>2026-04-19T08:11:27.002Z</time></trkpt><trkpt lat="43.47520187045062" lon="10.524757616746923"><ele>104.0</ele><time>2026-04-19T08:11:28.002Z</time></trkpt><trkpt lat="43.47515126429863" lon="10.524592265738836"><ele>104.5</ele><time>2026-04-19T08:11:29.002Z</time></trkpt><trkpt lat="43.475103393971885" lon="10.524419112068957"><ele>105.0</ele><time>2026-04-19T08:11:30.002Z</time></trkpt><trkpt lat="43.47505542719763" lon="10.524240774160468"><ele>105.5</ele><time>2026-04-19T08:11:31.002Z</time></trkpt><trkpt lat="43.475006820246215" lon="10.524059001850103"><ele>106.0</ele><time>2026-04-19T08:11:32.002Z</time></trkpt><trkpt lat="43.474960294841466" lon="10.523875624127353"><ele>105.75</ele><time>2026-04-19T08:11:33.002Z</time></trkpt><trkpt lat="43.47491515026756" lon="10.52369052429667"><ele>105.5</ele><time>2026-04-19T08:11:34.002Z</time></trkpt><trkpt lat="43.47487037655299" lon="10.523504747552774"><ele>105.25</ele><time>2026-04-19T08:11:35.003Z</time></trkpt><trkpt lat="43.47482580305585" lon="10.523320949860999"><ele>105.0</ele><time>2026-04-19T08:11:36.003Z</time></trkpt><trkpt lat="43.47477942214994" lon="10.523136797734564"><ele>105.0</ele><time>2026-04-19T08:11:37.003Z</time></trkpt><trkpt lat="43.47473704514607" lon="10.522957822640297"><ele>105.0</ele><time>2026-04-19T08:11:38.003Z</time></trkpt><trkpt lat="43.4746937636468" lon="10.52278108699485"><ele>105.0</ele><time>2026-04-19T08:11:39.003Z</time></trkpt><trkpt lat="43.47465231493101" lon="10.522610394095672"><ele>105.0</ele><time>2026-04-19T08:11:40.003Z</time></trkpt><trkpt lat="43.474611380497606" lon="10.522441471007925"><ele>103.75</ele><time>2026-04-19T08:11:41.003Z</time></trkpt><trkpt lat="43.47456236958631" lon="10.522278916971722"><ele>102.5</ele><time>2026-04-19T08:11:42.003Z</time></trkpt><trkpt lat="43.47452106299895" lon="10.522123907527266"><ele>101.25</ele><time>2026-04-19T08:11:43.003Z</time></trkpt><trkpt lat="43.47447859668087" lon="10.521967346001029"><ele>100.0</ele><time>2026-04-19T08:11:44.003Z</time></trkpt><trkpt lat="43.47443700056439" lon="10.521815240531849"><ele>100.0</ele><time>2026-04-19T08:11:45.003Z</time></trkpt><trkpt lat="43.47439539269239" lon="10.52166376102919"><ele>100.0</ele><time>2026-04-19T08:11:46.003Z</time></trkpt><trkpt lat="43.47435399612663" lon="10.521514430063643"><ele>100.0</ele><time>2026-04-19T08:11:47.003Z</time></trkpt><trkpt lat="43.474311133523074" lon="10.521365450079319"><ele>100.0</ele><time>2026-04-19T08:11:48.001Z</time></trkpt><trkpt lat="43.474270063921125" lon="10.521214956885213"><ele>100.0</ele><time>2026-04-19T08:11:49.001Z</time></trkpt><trkpt lat="43.474228903815835" lon="10.521060594089317"><ele>100.0</ele><time>2026-04-19T08:11:50.001Z</time></trkpt><trkpt lat="43.474186144440225" lon="10.520903235678606"><ele>100.0</ele><time>2026-04-19T08:11:51.001Z</time></trkpt><trkpt lat="43.47414245371545" lon="10.520743720917027"><ele>100.0</ele><time>2026-04-19T08:11:52.001Z</time></trkpt><trkpt lat="43.47409403316486" lon="10.520583081683348"><ele>100.0</ele><time>2026-04-19T08:11:53.001Z</time></trkpt><trkpt lat="43.47404258012496" lon="10.52042127565733"><ele>100.0</ele><time>2026-04-19T08:11:54.001Z</time></trkpt><trkpt lat="43.473989037321985" lon="10.520257321020285"><ele>100.0</ele><time>2026-04-19T08:11:55.001Z</time></trkpt><trkpt lat="43.47393632451309" lon="10.52009278455104"><ele>100.0</ele><time>2026-04-19T08:11:56.001Z</time></trkpt><trkpt lat="43.473882560658005" lon="10.519919991527889"><ele>99.5</ele><time>2026-04-19T08:11:57.001Z</time></trkpt><trkpt lat="43.47382814952204" lon="10.519747167079002"><ele>99.0</ele><time>2026-04-19T08:11:58.001Z</time></trkpt><trkpt lat="43.47377285109503" lon="10.519571349579842"><ele>98.5</ele><time>2026-04-19T08:11:59.001Z</time></trkpt><trkpt lat="43.47371579230672" lon="10.51939279854846"><ele>98.0</ele><time>2026-04-19T08:12:00.001Z</time></trkpt><trkpt lat="43.47365837258944" lon="10.519211015023128"><ele>96.0</ele><time>2026-04-19T08:12:01.001Z</time></trkpt><trkpt lat="43.47360096580775" lon="10.519028670907469"><ele>94.0</ele><time>2026-04-19T08:12:02.001Z</time></trkpt><trkpt lat="43.473541902989716" lon="10.518842691599845"><ele>92.0</ele><time>2026-04-19T08:12:03.001Z</time></trkpt><trkpt lat="43.473482310899776" lon="10.518654497903022"><ele>90.0</ele><time>2026-04-19T08:12:04.001Z</time></trkpt><trkpt lat="43.47342171623234" lon="10.51846480405622"><ele>89.25</ele><time>2026-04-19T08:12:05.001Z</time></trkpt><trkpt lat="43.473361772165035" lon="10.518273155546524"><ele>88.5</ele><time>2026-04-19T08:12:06.001Z</time></trkpt><trkpt lat="43.47330339302619" lon="10.518082698254194"><ele>87.75</ele><time>2026-04-19T08:12:07.001Z</time></trkpt><trkpt lat="43.473247706895606" lon="10.517897034433169"><ele>87.0</ele><time>2026-04-19T08:12:08.001Z</time></trkpt><trkpt lat="43.4731972188747" lon="10.517708766423523"><ele>85.5</ele><time>2026-04-19T08:12:09.001Z</time></trkpt><trkpt lat="43.473151526137364" lon="10.51751525636538"><ele>84.0</ele><time>2026-04-19T08:12:10.001Z</time></trkpt><trkpt lat="43.473111519293376" lon="10.517318858424417"><ele>82.5</ele><time>2026-04-19T08:12:11.001Z</time></trkpt><trkpt lat="43.473076737368416" lon="10.517117911177433"><ele>81.0</ele><time>2026-04-19T08:12:12.001Z</time></trkpt><trkpt lat="43.47305280236455" lon="10.516910281829967"><ele>78.66666666666667</ele><time>2026-04-19T08:12:13.001Z</time></trkpt><trkpt lat="43.473038913334285" lon="10.516700519208895"><ele>76.33333333333334</ele><time>2026-04-19T08:12:14.001Z</time></trkpt><trkpt lat="43.47303076681928" lon="10.516487606853286"><ele>74.0</ele><time>2026-04-19T08:12:15.001Z</time></trkpt><trkpt lat="43.47302880317822" lon="10.516268460748197"><ele>71.33333333333334</ele><time>2026-04-19T08:12:16.001Z</time></trkpt><trkpt lat="43.473028549330785" lon="10.516052317493342"><ele>68.66666666666667</ele><time>2026-04-19T08:12:17.001Z</time></trkpt><trkpt lat="43.47302896593918" lon="10.515837728209098"><ele>66.0</ele><time>2026-04-19T08:12:18.001Z</time></trkpt><trkpt lat="43.47302609525184" lon="10.51562801631168"><ele>66.0</ele><time>2026-04-19T08:12:19.001Z</time></trkpt><trkpt lat="43.473015264690616" lon="10.515432430130325"><ele>66.0</ele><time>2026-04-19T08:12:20.001Z</time></trkpt><trkpt lat="43.472995025367865" lon="10.515257885535563"><ele>66.0</ele><time>2026-04-19T08:12:21.001Z</time></trkpt><trkpt lat="43.47296703057227" lon="10.515099441227742"><ele>66.0</ele><time>2026-04-19T08:12:22.001Z</time></trkpt><trkpt lat="43.4729291769154" lon="10.514937261048333"><ele>65.25</ele><time>2026-04-19T08:12:23.001Z</time></trkpt><trkpt lat="43.472880435787694" lon="10.514782531467366"><ele>64.5</ele><time>2026-04-19T08:12:24.001Z</time></trkpt><trkpt lat="43.47282131778771" lon="10.51462818103994"><ele>63.75</ele><time>2026-04-19T08:12:25.001Z</time></trkpt><trkpt lat="43.472752943274855" lon="10.514483620589665"><ele>63.0</ele><time>2026-04-19T08:12:26.001Z</time></trkpt><trkpt lat="43.47268247558016" lon="10.514343296613323"><ele>63.0</ele><time>2026-04-19T08:12:27.001Z</time></trkpt><trkpt lat="43.47261901909074" lon="10.514212535918983"><ele>63.0</ele><time>2026-04-19T08:12:28.001Z</time></trkpt><trkpt lat="43.47256295589078" lon="10.51409493704167"><ele>63.0</ele><time>2026-04-19T08:12:29.001Z</time></trkpt><trkpt lat="43.472505685947205" lon="10.513975926739093"><ele>63.0</ele><time>2026-04-19T08:12:30.001Z</time></trkpt><trkpt lat="43.472446898226664" lon="10.513857240657071"><ele>63.0</ele><time>2026-04-19T08:12:31.001Z</time></trkpt><trkpt lat="43.47238595737987" lon="10.513736819226404"><ele>63.2</ele><time>2026-04-19T08:12:32.001Z</time></trkpt><trkpt lat="43.47232401944705" lon="10.513612036784654"><ele>63.4</ele><time>2026-04-19T08:12:33.001Z</time></trkpt><trkpt lat="43.472255325185124" lon="10.513485992481852"><ele>63.60000000000001</ele><time>2026-04-19T08:12:34.001Z</time></trkpt><trkpt lat="43.47218226183646" lon="10.513366481816208"><ele>63.800000000000004</ele><time>2026-04-19T08:12:35.001Z</time></trkpt><trkpt lat="43.472107637928524" lon="10.51325815389242"><ele>64.0</ele><time>2026-04-19T08:12:36.001Z</time></trkpt><trkpt lat="43.47202429414745" lon="10.51315790491225"><ele>63.400000000000006</ele><time>2026-04-19T08:12:37.001Z</time></trkpt><trkpt lat="43.47193711028452" lon="10.513070879551618"><ele>62.800000000000004</ele><time>2026-04-19T08:12:38.001Z</time></trkpt><trkpt lat="43.47185432833654" lon="10.51299190243882"><ele>62.199999999999996</ele><time>2026-04-19T08:12:39.001Z</time></trkpt><trkpt lat="43.471778149287665" lon="10.512910461640622"><ele>61.599999999999994</ele><time>2026-04-19T08:12:40.001Z</time></trkpt><trkpt lat="43.471699916026864" lon="10.512831941091973"><ele>61.0</ele><time>2026-04-19T08:12:41.001Z</time></trkpt><trkpt lat="43.47162367829868" lon="10.512760820063425"><ele>61.49999999999999</ele><time>2026-04-19T08:12:42.001Z</time></trkpt><trkpt lat="43.471549826580734" lon="10.512702730272359"><ele>62.0</ele><time>2026-04-19T08:12:43.001Z</time></trkpt><trkpt lat="43.471474724497796" lon="10.512645044240987"><ele>62.5</ele><time>2026-04-19T08:12:44.001Z</time></trkpt><trkpt lat="43.47140148868632" lon="10.512589474200084"><ele>63.0</ele><time>2026-04-19T08:12:45.001Z</time></trkpt><trkpt lat="43.4713293970988" lon="10.512528702386655"><ele>63.49999999999999</ele><time>2026-04-19T08:12:46.001Z</time></trkpt><trkpt lat="43.47126222587569" lon="10.512459497676076"><ele>64.0</ele><time>2026-04-19T08:12:47.001Z</time></trkpt><trkpt lat="43.47119334608182" lon="10.51238217413279"><ele>63.99999999999999</ele><time>2026-04-19T08:12:48.001Z</time></trkpt><trkpt lat="43.47111961380008" lon="10.512290001632639"><ele>64.0</ele><time>2026-04-19T08:12:49.001Z</time></trkpt><trkpt lat="43.471063416631175" lon="10.512228683804457"><ele>64.0</ele><time>2026-04-19T08:12:50.001Z</time></trkpt><trkpt lat="43.470992623733" lon="10.512170996367974"><ele>64.0</ele><time>2026-04-19T08:12:51.001Z</time></trkpt><trkpt lat="43.470929807995475" lon="10.512089829096103"><ele>63.99999999999999</ele><time>2026-04-19T08:12:52.001Z</time></trkpt><trkpt lat="43.470859516572666" lon="10.5120181592714"><ele>64.0</ele><time>2026-04-19T08:12:53.001Z</time></trkpt><trkpt lat="43.47079326031496" lon="10.511944831695606"><ele>65.66666666666666</ele><time>2026-04-19T08:12:54.001Z</time></trkpt><trkpt lat="43.47073901337974" lon="10.511854660024136"><ele>67.33333333333333</ele><time>2026-04-19T08:12:55.001Z</time></trkpt><trkpt lat="43.470678227920196" lon="10.511781711472901"><ele>69.0</ele><time>2026-04-19T08:12:56.001Z</time></trkpt><trkpt lat="43.470619191890485" lon="10.511708060855433"><ele>70.66666666666667</ele><time>2026-04-19T08:12:57.001Z</time></trkpt><trkpt lat="43.47056654978616" lon="10.511638798372521"><ele>72.33333333333334</ele><time>2026-04-19T08:12:58.001Z</time></trkpt><trkpt lat="43.47051960157713" lon="10.511575837014618"><ele>74.0</ele><time>2026-04-19T08:12:59.002Z</time></trkpt><trkpt lat="43.47046679656914" lon="10.511505021236236"><ele>74.0</ele><time>2026-04-19T08:13:00.002Z</time></trkpt><trkpt lat="43.470406625439836" lon="10.511423937424638"><ele>74.0</ele><time>2026-04-19T08:13:01.002Z</time></trkpt><trkpt lat="43.470343922142156" lon="10.511338048177393"><ele>74.0</ele><time>2026-04-19T08:13:02.002Z</time></trkpt><trkpt lat="43.47027345496812" lon="10.511272296483357"><ele>74.0</ele><time>2026-04-19T08:13:03.002Z</time></trkpt><trkpt lat="43.470222052976695" lon="10.511190226898215"><ele>74.0</ele><time>2026-04-19T08:13:04.002Z</time></trkpt><trkpt lat="43.4701729410359" lon="10.511113481447952"><ele>74.0</ele><time>2026-04-19T08:13:05.002Z</time></trkpt><trkpt lat="43.470131388691854" lon="10.511047026227818"><ele>74.33333333333334</ele><time>2026-04-19T08:13:06.002Z</time></trkpt><trkpt lat="43.47004928571955" lon="10.51104898750605"><ele>74.66666666666667</ele><time>2026-04-19T08:13:08.002Z</time></trkpt><trkpt lat="43.469930284422425" lon="10.511023035985243"><ele>75.0</ele><time>2026-04-19T08:13:10.002Z</time></trkpt><trkpt lat="43.46985264039165" lon="10.511028325334562"><ele>75.33333333333333</ele><time>2026-04-19T08:13:11.002Z</time></trkpt><trkpt lat="43.469785639005345" lon="10.511002631235947"><ele>75.66666666666666</ele><time>2026-04-19T08:13:12.002Z</time></trkpt><trkpt lat="43.4697226731884" lon="10.51099596179459"><ele>76.0</ele><time>2026-04-19T08:13:13.002Z</time></trkpt><trkpt lat="43.469649220181815" lon="10.51099923115622"><ele>76.33333333333333</ele><time>2026-04-19T08:13:14.002Z</time></trkpt><trkpt lat="43.469571621864056" lon="10.511008316488143"><ele>76.66666666666666</ele><time>2026-04-19T08:13:15.002Z</time></trkpt><trkpt lat="43.4694850870612" lon="10.511002157703787"><ele>77.0</ele><time>2026-04-19T08:13:16.002Z</time></trkpt><trkpt lat="43.469400662831994" lon="10.511021831033379"><ele>77.33333333333333</ele><time>2026-04-19T08:13:17.002Z</time></trkpt><trkpt lat="43.46931400191517" lon="10.511045552711924"><ele>77.66666666666667</ele><time>2026-04-19T08:13:18.002Z</time></trkpt><trkpt lat="43.469234728989626" lon="10.511086663065388"><ele>78.0</ele><time>2026-04-19T08:13:19.002Z</time></trkpt><trkpt lat="43.46915347655834" lon="10.511102671565336"><ele>78.0</ele><time>2026-04-19T08:13:20.002Z</time></trkpt><trkpt lat="43.46907767869468" lon="10.511139743288028"><ele>78.0</ele><time>2026-04-19T08:13:21.002Z</time></trkpt><trkpt lat="43.46900024699195" lon="10.511154357379533"><ele>78.0</ele><time>2026-04-19T08:13:22.002Z</time></trkpt><trkpt lat="43.46892658284884" lon="10.511206966020923"><ele>78.0</ele><time>2026-04-19T08:13:23.002Z</time></trkpt><trkpt lat="43.468839582288034" lon="10.511219287443723"><ele>78.0</ele><time>2026-04-19T08:13:24.002Z</time></trkpt><trkpt lat="43.468756091047524" lon="10.511251949784796"><ele>78.0</ele><time>2026-04-19T08:13:25.002Z</time></trkpt><trkpt lat="43.468669681043664" lon="10.511285753968275"><ele>76.66666666666667</ele><time>2026-04-19T08:13:26.002Z</time></trkpt><trkpt lat="43.46858379920668" lon="10.51131759859718"><ele>75.33333333333333</ele><time>2026-04-19T08:13:27.002Z</time></trkpt><trkpt lat="43.46849457003895" lon="10.511345806900787"><ele>74.0</ele><time>2026-04-19T08:13:28.002Z</time></trkpt><trkpt lat="43.46840426219266" lon="10.511366102878021"><ele>72.66666666666666</ele><time>2026-04-19T08:13:29.002Z</time></trkpt><trkpt lat="43.46832023417065" lon="10.511377666032795"><ele>71.33333333333333</ele><time>2026-04-19T08:13:30.002Z</time></trkpt><trkpt lat="43.4682363477821" lon="10.511386699984987"><ele>70.0</ele><time>2026-04-19T08:13:31.002Z</time></trkpt><trkpt lat="43.46814904276682" lon="10.511388453966333"><ele>70.0</ele><time>2026-04-19T08:13:32.002Z</time></trkpt><trkpt lat="43.46806776933004" lon="10.511390015507125"><ele>70.0</ele><time>2026-04-19T08:13:33.002Z</time></trkpt><trkpt lat="43.46798984987062" lon="10.51139309228611"><ele>70.0</ele><time>2026-04-19T08:13:34.002Z</time></trkpt><trkpt lat="43.46791502584396" lon="10.511396808684742"><ele>70.0</ele><time>2026-04-19T08:13:35.002Z</time></trkpt><trkpt lat="43.467843451454335" lon="10.511423279292478"><ele>70.0</ele><time>2026-04-19T08:13:36.002Z</time></trkpt><trkpt lat="43.46777328539093" lon="10.511405529835262"><ele>70.0</ele><time>2026-04-19T08:13:37.002Z</time></trkpt><trkpt lat="43.46770292835632" lon="10.511414346948285"><ele>70.33333333333333</ele><time>2026-04-19T08:13:38.002Z</time></trkpt><trkpt lat="43.46762932198899" lon="10.511427779744484"><ele>70.66666666666666</ele><time>2026-04-19T08:13:39.002Z</time></trkpt><trkpt lat="43.46755005821403" lon="10.511439124934412"><ele>71.0</ele><time>2026-04-19T08:13:40.002Z</time></trkpt><trkpt lat="43.46746456880118" lon="10.511447912022467"><ele>71.33333333333333</ele><time>2026-04-19T08:13:41.002Z</time></trkpt><trkpt lat="43.467380907038155" lon="10.511451243142943"><ele>71.66666666666667</ele><time>2026-04-19T08:13:42.002Z</time></trkpt><trkpt lat="43.46730265124562" lon="10.511482751265927"><ele>72.0</ele><time>2026-04-19T08:13:43.002Z</time></trkpt><trkpt lat="43.467234985263" lon="10.511490496838897"><ele>72.0</ele><time>2026-04-19T08:13:44.002Z</time></trkpt><trkpt lat="43.46716336343503" lon="10.511492674669592"><ele>72.0</ele><time>2026-04-19T08:13:45.002Z</time></trkpt><trkpt lat="43.4670865478387" lon="10.511495010428028"><ele>72.0</ele><time>2026-04-19T08:13:46.002Z</time></trkpt><trkpt lat="43.46700419688291" lon="10.511500642308368"><ele>72.0</ele><time>2026-04-19T08:13:47.002Z</time></trkpt><trkpt lat="43.46692226120692" lon="10.511506173482577"><ele>72.0</ele><time>2026-04-19T08:13:48.002Z</time></trkpt><trkpt lat="43.46684003592566" lon="10.511510000809755"><ele>72.0</ele><time>2026-04-19T08:13:49.002Z</time></trkpt><trkpt lat="43.46675665950293" lon="10.511511038429381"><ele>72.16666666666667</ele><time>2026-04-19T08:13:50.002Z</time></trkpt><trkpt lat="43.466675692335045" lon="10.511508413031375"><ele>72.33333333333333</ele><time>2026-04-19T08:13:51.002Z</time></trkpt><trkpt lat="43.466592238970314" lon="10.51150123647037"><ele>72.5</ele><time>2026-04-19T08:13:52.002Z</time></trkpt><trkpt lat="43.46650847564649" lon="10.511512746663605"><ele>72.66666666666666</ele><time>2026-04-19T08:13:53.002Z</time></trkpt><trkpt lat="43.46642736803197" lon="10.511496225225054"><ele>72.83333333333333</ele><time>2026-04-19T08:13:54.001Z</time></trkpt><trkpt lat="43.46634080930453" lon="10.511481079900172"><ele>73.0</ele><time>2026-04-19T08:13:55.001Z</time></trkpt><trkpt lat="43.466251921921135" lon="10.511460811246703"><ele>72.6</ele><time>2026-04-19T08:13:56.001Z</time></trkpt><trkpt lat="43.46616143901678" lon="10.511444929374418"><ele>72.19999999999999</ele><time>2026-04-19T08:13:57.001Z</time></trkpt><trkpt lat="43.46606833763523" lon="10.511426247510208"><ele>71.8</ele><time>2026-04-19T08:13:58.001Z</time></trkpt><trkpt lat="43.46597718562668" lon="10.511403154284377"><ele>71.39999999999999</ele><time>2026-04-19T08:13:59.001Z</time></trkpt><trkpt lat="43.46588805847904" lon="10.511379175462896"><ele>71.0</ele><time>2026-04-19T08:14:00.001Z</time></trkpt><trkpt lat="43.46580766218541" lon="10.511358406812366"><ele>71.0</ele><time>2026-04-19T08:14:01.001Z</time></trkpt><trkpt lat="43.46573096728974" lon="10.511332627684942"><ele>71.0</ele><time>2026-04-19T08:14:02.001Z</time></trkpt><trkpt lat="43.465659208778874" lon="10.511324625976636"><ele>71.0</ele><time>2026-04-19T08:14:03.001Z</time></trkpt><trkpt lat="43.46558689470483" lon="10.51129410759178"><ele>71.0</ele><time>2026-04-19T08:14:04.001Z</time></trkpt><trkpt lat="43.46550238032771" lon="10.511278062647754"><ele>71.0</ele><time>2026-04-19T08:14:05.001Z</time></trkpt><trkpt lat="43.465416600062575" lon="10.511261777375395"><ele>71.0</ele><time>2026-04-19T08:14:06.001Z</time></trkpt><trkpt lat="43.46532877770414" lon="10.511245104414982"><ele>71.39999999999999</ele><time>2026-04-19T08:14:07.001Z</time></trkpt><trkpt lat="43.465241060169745" lon="10.511226491251376"><ele>71.8</ele><time>2026-04-19T08:14:08.001Z</time></trkpt><trkpt lat="43.46514693082223" lon="10.511205298207148"><ele>72.19999999999999</ele><time>2026-04-19T08:14:09.001Z</time></trkpt><trkpt lat="43.465049568447185" lon="10.511183377251474"><ele>72.6</ele><time>2026-04-19T08:14:10.001Z</time></trkpt><trkpt lat="43.46495400900609" lon="10.511161257654315"><ele>73.0</ele><time>2026-04-19T08:14:11.001Z</time></trkpt><trkpt lat="43.46486966527301" lon="10.51114096287557"><ele>73.0</ele><time>2026-04-19T08:14:12.001Z</time></trkpt><trkpt lat="43.46479561973244" lon="10.511144641213413"><ele>73.0</ele><time>2026-04-19T08:14:13.001Z</time></trkpt><trkpt lat="43.46471917714839" lon="10.511139443230762"><ele>73.0</ele><time>2026-04-19T08:14:14.001Z</time></trkpt><trkpt lat="43.464632417665655" lon="10.511136009387224"><ele>73.0</ele><time>2026-04-19T08:14:15.001Z</time></trkpt><trkpt lat="43.464542252407036" lon="10.511142388840122"><ele>73.0</ele><time>2026-04-19T08:14:16.001Z</time></trkpt><trkpt lat="43.464453605857436" lon="10.511132185591075"><ele>73.0</ele><time>2026-04-19T08:14:17.001Z</time></trkpt><trkpt lat="43.4643656090396" lon="10.511136800992078"><ele>73.0</ele><time>2026-04-19T08:14:18.001Z</time></trkpt><trkpt lat="43.46427586809605" lon="10.511142329811792"><ele>73.0</ele><time>2026-04-19T08:14:19.001Z</time></trkpt><trkpt lat="43.46418469049173" lon="10.511146453002722"><ele>73.0</ele><time>2026-04-19T08:14:20.001Z</time></trkpt><trkpt lat="43.464095027981934" lon="10.511149223213419"><ele>73.0</ele><time>2026-04-19T08:14:21.001Z</time></trkpt><trkpt lat="43.4640029541994" lon="10.511152067923415"><ele>73.0</ele><time>2026-04-19T08:14:22.001Z</time></trkpt><trkpt lat="43.46391116078732" lon="10.511154903970892"><ele>73.0</ele><time>2026-04-19T08:14:23.001Z</time></trkpt><trkpt lat="43.46382210040615" lon="10.5111577869659"><ele>73.0</ele><time>2026-04-19T08:14:24.001Z</time></trkpt><trkpt lat="43.46373429111936" lon="10.511161001740218"><ele>73.0</ele><time>2026-04-19T08:14:25.001Z</time></trkpt><trkpt lat="43.46365186118808" lon="10.511164019571893"><ele>73.0</ele><time>2026-04-19T08:14:26.001Z</time></trkpt><trkpt lat="43.463569967995085" lon="10.511167017753158"><ele>73.0</ele><time>2026-04-19T08:14:27.001Z</time></trkpt><trkpt lat="43.46348900869647" lon="10.511169981743205"><ele>73.0</ele><time>2026-04-19T08:14:28.001Z</time></trkpt><trkpt lat="43.463412970425054" lon="10.511194454350662"><ele>72.66666666666666</ele><time>2026-04-19T08:14:29.001Z</time></trkpt><trkpt lat="43.463336785302" lon="10.511196566135418"><ele>72.33333333333333</ele><time>2026-04-19T08:14:30.001Z</time></trkpt><trkpt lat="43.46326950638436" lon="10.511197895697672"><ele>72.0</ele><time>2026-04-19T08:14:31.001Z</time></trkpt><trkpt lat="43.46316032376015" lon="10.511194631777565"><ele>71.66666666666667</ele><time>2026-04-19T08:14:33.001Z</time></trkpt><trkpt lat="43.46308356986924" lon="10.51119631836626"><ele>71.33333333333334</ele><time>2026-04-19T08:14:37.001Z</time></trkpt><trkpt lat="43.463011362316266" lon="10.511178438408852"><ele>71.0</ele><time>2026-04-19T08:14:39.001Z</time></trkpt><trkpt lat="43.46294472123836" lon="10.511201018809214"><ele>70.33333333333334</ele><time>2026-04-19T08:14:44.001Z</time></trkpt><trkpt lat="43.462868908691824" lon="10.511204845591427"><ele>69.66666666666667</ele><time>2026-04-19T08:14:51.001Z</time></trkpt><trkpt lat="43.46278326904418" lon="10.511188795243683"><ele>69.0</ele><time>2026-04-19T08:14:54.001Z</time></trkpt><trkpt lat="43.46271601624815" lon="10.511192446453483"><ele>68.33333333333333</ele><time>2026-04-19T08:14:57.001Z</time></trkpt><trkpt lat="43.46265112487917" lon="10.511216918063475"><ele>67.66666666666666</ele><time>2026-04-19T08:14:59.001Z</time></trkpt><trkpt lat="43.46257309895245" lon="10.511205642045047"><ele>67.0</ele><time>2026-04-19T08:15:01.002Z</time></trkpt><trkpt lat="43.46247822996866" lon="10.51123572056465"><ele>67.33333333333333</ele><time>2026-04-19T08:15:03.002Z</time></trkpt><trkpt lat="43.4623601985966" lon="10.511257653457513"><ele>67.66666666666666</ele><time>2026-04-19T08:15:05.002Z</time></trkpt><trkpt lat="43.46229597825671" lon="10.511247035710376"><ele>68.0</ele><time>2026-04-19T08:15:06.002Z</time></trkpt><trkpt lat="43.46223378354588" lon="10.511276170421578"><ele>68.33333333333333</ele><time>2026-04-19T08:15:07.002Z</time></trkpt><trkpt lat="43.46216756893708" lon="10.51128803690613"><ele>68.66666666666667</ele><time>2026-04-19T08:15:08.002Z</time></trkpt><trkpt lat="43.462100299302996" lon="10.511301608610838"><ele>69.0</ele><time>2026-04-19T08:15:09.002Z</time></trkpt><trkpt lat="43.46203247568472" lon="10.51131500754793"><ele>69.28571428571429</ele><time>2026-04-19T08:15:10.002Z</time></trkpt><trkpt lat="43.46196427646578" lon="10.511332536728387"><ele>69.57142857142858</ele><time>2026-04-19T08:15:11.002Z</time></trkpt><trkpt lat="43.46189701756272" lon="10.51136309252924"><ele>69.85714285714286</ele><time>2026-04-19T08:15:12.002Z</time></trkpt><trkpt lat="43.46183099968828" lon="10.511397642635373"><ele>70.14285714285714</ele><time>2026-04-19T08:15:13.002Z</time></trkpt><trkpt lat="43.46176062290087" lon="10.511420572317812"><ele>70.42857142857142</ele><time>2026-04-19T08:15:14.002Z</time></trkpt><trkpt lat="43.46169810854944" lon="10.51145629428991"><ele>70.71428571428571</ele><time>2026-04-19T08:15:15.002Z</time></trkpt><trkpt lat="43.46163771234123" lon="10.511481583309967"><ele>71.0</ele><time>2026-04-19T08:15:16.002Z</time></trkpt><trkpt lat="43.461520425382645" lon="10.511509211616902"><ele>71.0</ele><time>2026-04-19T08:15:18.002Z</time></trkpt><trkpt lat="43.46139216606551" lon="10.511517118604901"><ele>71.0</ele><time>2026-04-19T08:15:20.002Z</time></trkpt><trkpt lat="43.46132754031361" lon="10.511532104163637"><ele>71.0</ele><time>2026-04-19T08:15:21.002Z</time></trkpt><trkpt lat="43.461227374422336" lon="10.511563641892558"><ele>71.0</ele><time>2026-04-19T08:15:23.002Z</time></trkpt><trkpt lat="43.46114026888756" lon="10.511595737461672"><ele>71.0</ele><time>2026-04-19T08:15:25.002Z</time></trkpt><trkpt lat="43.46104510452318" lon="10.51162395393791"><ele>71.0</ele><time>2026-04-19T08:15:27.002Z</time></trkpt><trkpt lat="43.46095311458036" lon="10.51166425139566"><ele>71.0</ele><time>2026-04-19T08:15:29.002Z</time></trkpt><trkpt lat="43.46087519345277" lon="10.511647488136084"><ele>71.0</ele><time>2026-04-19T08:15:32.002Z</time></trkpt><trkpt lat="43.46080147016925" lon="10.511651308727174"><ele>71.0</ele><time>2026-04-19T08:15:36.002Z</time></trkpt><trkpt lat="43.46072203182179" lon="10.511655895221418"><ele>71.0</ele><time>2026-04-19T08:15:39.002Z</time></trkpt><trkpt lat="43.46065139430245" lon="10.511660051888255"><ele>71.0</ele><time>2026-04-19T08:15:42.002Z</time></trkpt><trkpt lat="43.46058192999084" lon="10.51166413951712"><ele>71.0</ele><time>2026-04-19T08:15:45.002Z</time></trkpt><trkpt lat="43.46051419131616" lon="10.511690990813506"><ele>71.0</ele><time>2026-04-19T08:15:48.002Z</time></trkpt><trkpt lat="43.460450162377185" lon="10.511692671134785"><ele>71.0</ele><time>2026-04-19T08:15:51.002Z</time></trkpt><trkpt lat="43.46038250378058" lon="10.511701579278895"><ele>71.0</ele><time>2026-04-19T08:15:54.002Z</time></trkpt><trkpt lat="43.46030871119546" lon="10.511714120240535"><ele>71.0</ele><time>2026-04-19T08:15:57.002Z</time></trkpt><trkpt lat="43.46023759499853" lon="10.511725869394185"><ele>71.0</ele><time>2026-04-19T08:15:59.002Z</time></trkpt><trkpt lat="43.46016402140473" lon="10.511750843183089"><ele>71.0</ele><time>2026-04-19T08:16:01.001Z</time></trkpt><trkpt lat="43.460096195952275" lon="10.511749390107642"><ele>71.33333333333334</ele><time>2026-04-19T08:16:03.001Z</time></trkpt><trkpt lat="43.460033574210634" lon="10.5117678467996"><ele>71.66666666666667</ele><time>2026-04-19T08:16:05.001Z</time></trkpt><trkpt lat="43.45996969121153" lon="10.511793240893537"><ele>72.0</ele><time>2026-04-19T08:16:07.001Z</time></trkpt><trkpt lat="43.4599037759467" lon="10.511851829591699"><ele>72.33333333333333</ele><time>2026-04-19T08:16:50.001Z</time></trkpt><trkpt lat="43.45983935799917" lon="10.51188946085211"><ele>72.66666666666666</ele><time>2026-04-19T08:16:52.001Z</time></trkpt><trkpt lat="43.459774007878345" lon="10.511955789481952"><ele>73.0</ele><time>2026-04-19T08:16:55.001Z</time></trkpt><trkpt lat="43.459692918515046" lon="10.512026672641442"><ele>73.0</ele><time>2026-04-19T08:16:58.001Z</time></trkpt><trkpt lat="43.45962046549377" lon="10.512058903723895"><ele>73.0</ele><time>2026-04-19T08:17:00.001Z</time></trkpt><trkpt lat="43.45955083464237" lon="10.512113869112198"><ele>73.0</ele><time>2026-04-19T08:17:02.001Z</time></trkpt><trkpt lat="43.45948176566673" lon="10.51216722955325"><ele>73.0</ele><time>2026-04-19T08:17:04.001Z</time></trkpt><trkpt lat="43.459408727688476" lon="10.512221784951503"><ele>73.0</ele><time>2026-04-19T08:17:06.001Z</time></trkpt><trkpt lat="43.459334740540164" lon="10.512274458225095"><ele>73.0</ele><time>2026-04-19T08:17:08.001Z</time></trkpt><trkpt lat="43.4592543044627" lon="10.51232582751941"><ele>73.4</ele><time>2026-04-19T08:17:10.001Z</time></trkpt><trkpt lat="43.45916533625565" lon="10.512380522704927"><ele>73.8</ele><time>2026-04-19T08:17:12.001Z</time></trkpt><trkpt lat="43.45908937232143" lon="10.512427220661975"><ele>74.2</ele><time>2026-04-19T08:17:14.001Z</time></trkpt><trkpt lat="43.45899986247424" lon="10.512482245805154"><ele>74.6</ele><time>2026-04-19T08:17:16.001Z</time></trkpt><trkpt lat="43.458906832454005" lon="10.512524258083232"><ele>75.0</ele><time>2026-04-19T08:17:18.002Z</time></trkpt><trkpt lat="43.45881596481043" lon="10.512550330590747"><ele>75.5</ele><time>2026-04-19T08:17:20.002Z</time></trkpt><trkpt lat="43.458742883707664" lon="10.512594050484795"><ele>76.0</ele><time>2026-04-19T08:17:22.002Z</time></trkpt><trkpt lat="43.458702894459705" lon="10.512661098860264"><ele>76.5</ele><time>2026-04-19T08:17:24.002Z</time></trkpt><trkpt lat="43.4586699190896" lon="10.51277823598932"><ele>77.0</ele><time>2026-04-19T08:17:26.002Z</time></trkpt><trkpt lat="43.45864181898285" lon="10.512913341130332"><ele>77.5</ele><time>2026-04-19T08:17:28.002Z</time></trkpt><trkpt lat="43.458590355049544" lon="10.51304231452265"><ele>78.0</ele><time>2026-04-19T08:17:30.002Z</time></trkpt><trkpt lat="43.4585147352211" lon="10.513108045435523"><ele>78.0</ele><time>2026-04-19T08:17:32.002Z</time></trkpt><trkpt lat="43.45844121246829" lon="10.51317112229865"><ele>78.0</ele><time>2026-04-19T08:17:37.002Z</time></trkpt><trkpt lat="43.4583687957734" lon="10.51322599089968"><ele>78.0</ele><time>2026-04-19T08:17:43.002Z</time></trkpt><trkpt lat="43.4582877217199" lon="10.513297447570846"><ele>78.0</ele><time>2026-04-19T08:17:45.002Z</time></trkpt><trkpt lat="43.458215299321715" lon="10.513362240112308"><ele>78.0</ele><time>2026-04-19T08:17:47.002Z</time></trkpt><trkpt lat="43.45813786175043" lon="10.513449661845273"><ele>78.0</ele><time>2026-04-19T08:17:49.002Z</time></trkpt><trkpt lat="43.45807253958807" lon="10.513569338780714"><ele>78.0</ele><time>2026-04-19T08:17:51.002Z</time></trkpt><trkpt lat="43.45801030824188" lon="10.51362309175193"><ele>78.0</ele><time>2026-04-19T08:17:54.002Z</time></trkpt><trkpt lat="43.45795206659783" lon="10.513685661650946"><ele>78.0</ele><time>2026-04-19T08:17:57.002Z</time></trkpt><trkpt lat="43.45787858909263" lon="10.51374003433465"><ele>78.0</ele><time>2026-04-19T08:17:59.002Z</time></trkpt><trkpt lat="43.457810690527396" lon="10.5137802300244"><ele>78.0</ele><time>2026-04-19T08:18:01.002Z</time></trkpt><trkpt lat="43.457735662436036" lon="10.513835025596267"><ele>77.83333333333333</ele><time>2026-04-19T08:18:04.002Z</time></trkpt><trkpt lat="43.45766672572229" lon="10.513850536784542"><ele>77.66666666666667</ele><time>2026-04-19T08:18:09.001Z</time></trkpt><trkpt lat="43.4576060064552" lon="10.513874414487349"><ele>77.5</ele><time>2026-04-19T08:18:11.001Z</time></trkpt><trkpt lat="43.45751343556857" lon="10.513874336261523"><ele>77.33333333333334</ele><time>2026-04-19T08:18:14.001Z</time></trkpt><trkpt lat="43.457443813485305" lon="10.513877952574669"><ele>77.16666666666667</ele><time>2026-04-19T08:18:20.001Z</time></trkpt><trkpt lat="43.457507332521224" lon="10.513698627129612"><ele>77.0</ele><time>2026-04-19T08:18:27.001Z</time></trkpt><trkpt lat="43.45755448694547" lon="10.513576364677228"><ele>77.0</ele><time>2026-04-19T08:18:29.001Z</time></trkpt><trkpt lat="43.4575840599582" lon="10.513499687586538"><ele>77.0</ele><time>2026-04-19T08:18:30.001Z</time></trkpt><trkpt lat="43.457615168536925" lon="10.513419029048256"><ele>77.0</ele><time>2026-04-19T08:18:31.001Z</time></trkpt><trkpt lat="43.45763367649151" lon="10.513324956710829"><ele>77.0</ele><time>2026-04-19T08:18:32.001Z</time></trkpt><trkpt lat="43.457678128868714" lon="10.513247216822666"><ele>77.0</ele><time>2026-04-19T08:18:33.001Z</time></trkpt><trkpt lat="43.45770974859801" lon="10.51315954206804"><ele>77.0</ele><time>2026-04-19T08:18:34.001Z</time></trkpt><trkpt lat="43.457741872263895" lon="10.513074473664702"><ele>77.0</ele><time>2026-04-19T08:18:35.001Z</time></trkpt><trkpt lat="43.457774417719726" lon="10.512988131443425"><ele>76.5</ele><time>2026-04-19T08:18:36.001Z</time></trkpt><trkpt lat="43.45780499288928" lon="10.512905299520668"><ele>76.0</ele><time>2026-04-19T08:18:37.001Z</time></trkpt><trkpt lat="43.457829791313436" lon="10.512820880384393"><ele>75.5</ele><time>2026-04-19T08:18:38.001Z</time></trkpt><trkpt lat="43.45785861953324" lon="10.512726108345998"><ele>75.0</ele><time>2026-04-19T08:18:40.001Z</time></trkpt><trkpt lat="43.45788130534727" lon="10.512602787152183"><ele>74.5</ele><time>2026-04-19T08:18:42.001Z</time></trkpt><trkpt lat="43.4579297914235" lon="10.512448717251482"><ele>74.0</ele><time>2026-04-19T08:18:44.001Z</time></trkpt><trkpt lat="43.45794362575852" lon="10.512353544991882"><ele>74.0</ele><time>2026-04-19T08:18:45.001Z</time></trkpt><trkpt lat="43.45794985573368" lon="10.512265746974895"><ele>74.0</ele><time>2026-04-19T08:18:46.001Z</time></trkpt><trkpt lat="43.457987709770464" lon="10.512117453536268"><ele>74.0</ele><time>2026-04-19T08:18:48.001Z</time></trkpt><trkpt lat="43.45803236636163" lon="10.512001221034224"><ele>74.0</ele><time>2026-04-19T08:18:50.001Z</time></trkpt><trkpt lat="43.45804524044048" lon="10.511880719852162"><ele>74.0</ele><time>2026-04-19T08:18:52.001Z</time></trkpt><trkpt lat="43.45808148715001" lon="10.51180838671717"><ele>74.0</ele><time>2026-04-19T08:18:54.001Z</time></trkpt><trkpt lat="43.458103243547725" lon="10.511726790567254"><ele>75.83333333333334</ele><time>2026-04-19T08:18:56.001Z</time></trkpt><trkpt lat="43.45812847113603" lon="10.511632688575075"><ele>77.66666666666667</ele><time>2026-04-19T08:18:58.001Z</time></trkpt><trkpt lat="43.4581577598278" lon="10.51152716713175"><ele>79.5</ele><time>2026-04-19T08:19:00.001Z</time></trkpt><trkpt lat="43.45818369108674" lon="10.511436306088573"><ele>81.33333333333333</ele><time>2026-04-19T08:19:02.001Z</time></trkpt><trkpt lat="43.458211172804305" lon="10.51134752587491"><ele>83.16666666666666</ele><time>2026-04-19T08:19:04.001Z</time></trkpt><trkpt lat="43.458237391607156" lon="10.511262727795863"><ele>85.0</ele><time>2026-04-19T08:19:05.001Z</time></trkpt><trkpt lat="43.45828398904625" lon="10.511101070846431"><ele>85.83333333333333</ele><time>2026-04-19T08:19:07.001Z</time></trkpt><trkpt lat="43.45830688548853" lon="10.511016575406106"><ele>86.66666666666666</ele><time>2026-04-19T08:19:08.001Z</time></trkpt><trkpt lat="43.45834440643136" lon="10.510859476836577"><ele>87.5</ele><time>2026-04-19T08:19:10.001Z</time></trkpt><trkpt lat="43.458366898416" lon="10.510694051373335"><ele>88.33333333333333</ele><time>2026-04-19T08:19:12.001Z</time></trkpt><trkpt lat="43.45836805750581" lon="10.510602562750904"><ele>89.16666666666667</ele><time>2026-04-19T08:19:13.001Z</time></trkpt><trkpt lat="43.4583655602838" lon="10.510512488064986"><ele>90.0</ele><time>2026-04-19T08:19:14.001Z</time></trkpt><trkpt lat="43.4583593762235" lon="10.51041267935591"><ele>90.33333333333333</ele><time>2026-04-19T08:19:15.001Z</time></trkpt><trkpt lat="43.458352205632146" lon="10.510317982069528"><ele>90.66666666666667</ele><time>2026-04-19T08:19:16.001Z</time></trkpt><trkpt lat="43.45834347261424" lon="10.510222081609678"><ele>91.0</ele><time>2026-04-19T08:19:17.001Z</time></trkpt><trkpt lat="43.45833489823904" lon="10.510131459890689"><ele>91.33333333333334</ele><time>2026-04-19T08:19:18.001Z</time></trkpt><trkpt lat="43.45832662747723" lon="10.510044047007455"><ele>91.66666666666667</ele><time>2026-04-19T08:19:19.001Z</time></trkpt><trkpt lat="43.45830816622774" lon="10.509872994859741"><ele>92.0</ele><time>2026-04-19T08:19:21.001Z</time></trkpt><trkpt lat="43.45829594860332" lon="10.509783301811455"><ele>92.0</ele><time>2026-04-19T08:19:22.001Z</time></trkpt><trkpt lat="43.45827800181386" lon="10.50969206395515"><ele>92.0</ele><time>2026-04-19T08:19:23.001Z</time></trkpt><trkpt lat="43.458241727218955" lon="10.509613537307155"><ele>92.0</ele><time>2026-04-19T08:19:24.001Z</time></trkpt><trkpt lat="43.458215935531825" lon="10.509530843976293"><ele>92.0</ele><time>2026-04-19T08:19:25.001Z</time></trkpt><trkpt lat="43.45818492210671" lon="10.509397277779577"><ele>92.0</ele><time>2026-04-19T08:19:27.002Z</time></trkpt><trkpt lat="43.45812001975964" lon="10.50924535430498"><ele>92.0</ele><time>2026-04-19T08:19:29.002Z</time></trkpt><trkpt lat="43.45808693640438" lon="10.509164019985473"><ele>91.19999999999999</ele><time>2026-04-19T08:19:30.002Z</time></trkpt><trkpt lat="43.45805583470339" lon="10.509086585297053"><ele>90.4</ele><time>2026-04-19T08:19:31.002Z</time></trkpt><trkpt lat="43.458025269186095" lon="10.509010485479907"><ele>89.6</ele><time>2026-04-19T08:19:32.002Z</time></trkpt><trkpt lat="43.45796575489099" lon="10.508862430375915"><ele>88.80000000000001</ele><time>2026-04-19T08:19:34.002Z</time></trkpt><trkpt lat="43.45790932592129" lon="10.508726862511063"><ele>88.0</ele><time>2026-04-19T08:19:36.002Z</time></trkpt><trkpt lat="43.45786176836455" lon="10.508612607888"><ele>87.33333333333333</ele><time>2026-04-19T08:19:38.002Z</time></trkpt><trkpt lat="43.457796634807636" lon="10.50851140937518"><ele>86.66666666666666</ele><time>2026-04-19T08:19:40.002Z</time></trkpt><trkpt lat="43.45774127730042" lon="10.508417145925579"><ele>86.0</ele><time>2026-04-19T08:19:42.002Z</time></trkpt><trkpt lat="43.457670966546225" lon="10.508375362680097"><ele>85.33333333333333</ele><time>2026-04-19T08:19:44.002Z</time></trkpt><trkpt lat="43.457577903765376" lon="10.508376318130638"><ele>84.66666666666667</ele><time>2026-04-19T08:19:46.002Z</time></trkpt><trkpt lat="43.45748718754389" lon="10.508369287850869"><ele>84.0</ele><time>2026-04-19T08:19:49.002Z</time></trkpt><trkpt lat="43.457421220824465" lon="10.508369755543042"><ele>84.0</ele><time>2026-04-19T08:19:51.002Z</time></trkpt><trkpt lat="43.45734691404116" lon="10.508416092336887"><ele>84.0</ele><time>2026-04-19T08:19:53.002Z</time></trkpt><trkpt lat="43.45728621491875" lon="10.508441522284935"><ele>84.0</ele><time>2026-04-19T08:19:56.002Z</time></trkpt><trkpt lat="43.45721800629301" lon="10.50852226995485"><ele>84.0</ele><time>2026-04-19T08:20:00.002Z</time></trkpt><trkpt lat="43.45716745291597" lon="10.508627609448904"><ele>84.0</ele><time>2026-04-19T08:20:02.002Z</time></trkpt><trkpt lat="43.457089810857326" lon="10.508707532220456"><ele>84.0</ele><time>2026-04-19T08:20:04.002Z</time></trkpt><trkpt lat="43.45702219391035" lon="10.508813186007231"><ele>83.33333333333333</ele><time>2026-04-19T08:20:06.002Z</time></trkpt><trkpt lat="43.45693934144247" lon="10.508902884803534"><ele>82.66666666666667</ele><time>2026-04-19T08:20:08.002Z</time></trkpt><trkpt lat="43.45685051359167" lon="10.50893458914343"><ele>82.0</ele><time>2026-04-19T08:20:10.002Z</time></trkpt><trkpt lat="43.45674788947261" lon="10.50893521083697"><ele>81.33333333333334</ele><time>2026-04-19T08:20:12Z</time></trkpt><trkpt lat="43.456673382888944" lon="10.508926336065933"><ele>80.66666666666667</ele><time>2026-04-19T08:20:14Z</time></trkpt><trkpt lat="43.456601476269654" lon="10.508903917843876"><ele>80.0</ele><time>2026-04-19T08:20:18Z</time></trkpt><trkpt lat="43.45654083219231" lon="10.508879720311931"><ele>80.0</ele><time>2026-04-19T08:20:20Z</time></trkpt><trkpt lat="43.456474742945844" lon="10.50885202473254"><ele>80.0</ele><time>2026-04-19T08:20:22Z</time></trkpt><trkpt lat="43.456399681389605" lon="10.508827331988577"><ele>80.0</ele><time>2026-04-19T08:20:24Z</time></trkpt><trkpt lat="43.45631613180268" lon="10.50882457454562"><ele>80.0</ele><time>2026-04-19T08:20:26Z</time></trkpt><trkpt lat="43.456247206980535" lon="10.508833883484204"><ele>80.0</ele><time>2026-04-19T08:20:28Z</time></trkpt><trkpt lat="43.45616630560145" lon="10.50883286345948"><ele>80.0</ele><time>2026-04-19T08:20:31Z</time></trkpt><trkpt lat="43.456090007209895" lon="10.508807004352896"><ele>79.66666666666667</ele><time>2026-04-19T08:20:34Z</time></trkpt><trkpt lat="43.45602909326187" lon="10.508784700152958"><ele>79.33333333333334</ele><time>2026-04-19T08:20:36Z</time></trkpt><trkpt lat="43.455940230415855" lon="10.508765292917996"><ele>79.0</ele><time>2026-04-19T08:20:38Z</time></trkpt><trkpt lat="43.45583905295954" lon="10.508699750458193"><ele>78.66666666666667</ele><time>2026-04-19T08:20:40Z</time></trkpt><trkpt lat="43.45573124309435" lon="10.50864736069868"><ele>78.33333333333333</ele><time>2026-04-19T08:20:42Z</time></trkpt><trkpt lat="43.45566835886683" lon="10.50863788963549"><ele>78.0</ele><time>2026-04-19T08:20:43Z</time></trkpt><trkpt lat="43.45554721480512" lon="10.508581944784464"><ele>76.4</ele><time>2026-04-19T08:20:45Z</time></trkpt><trkpt lat="43.45544088063708" lon="10.508535464697724"><ele>74.8</ele><time>2026-04-19T08:20:47Z</time></trkpt><trkpt lat="43.45532028313159" lon="10.508473437310297"><ele>73.2</ele><time>2026-04-19T08:20:49Z</time></trkpt><trkpt lat="43.45526205699293" lon="10.508440281116274"><ele>71.6</ele><time>2026-04-19T08:20:50Z</time></trkpt><trkpt lat="43.455152833248775" lon="10.508347095193471"><ele>70.0</ele><time>2026-04-19T08:20:52Z</time></trkpt><trkpt lat="43.45509579260764" lon="10.508309106898265"><ele>70.0</ele><time>2026-04-19T08:20:53Z</time></trkpt><trkpt lat="43.454985775683454" lon="10.508261111409592"><ele>70.0</ele><time>2026-04-19T08:20:55Z</time></trkpt><trkpt lat="43.4548768207125" lon="10.508191920642759"><ele>70.0</ele><time>2026-04-19T08:20:57Z</time></trkpt><trkpt lat="43.454816888520405" lon="10.508161646661017"><ele>70.0</ele><time>2026-04-19T08:20:58Z</time></trkpt><trkpt lat="43.4546953377311" lon="10.508108454075435"><ele>70.0</ele><time>2026-04-19T08:21:00Z</time></trkpt><trkpt lat="43.45457617415983" lon="10.50806896253219"><ele>69.8</ele><time>2026-04-19T08:21:02Z</time></trkpt><trkpt lat="43.454462923554544" lon="10.508030803841825"><ele>69.6</ele><time>2026-04-19T08:21:04Z</time></trkpt><trkpt lat="43.45435328638608" lon="10.508023320655443"><ele>69.4</ele><time>2026-04-19T08:21:06Z</time></trkpt><trkpt lat="43.45428885789407" lon="10.50799828134807"><ele>69.2</ele><time>2026-04-19T08:21:08Z</time></trkpt><trkpt lat="43.45419664284506" lon="10.50800770055468"><ele>69.0</ele><time>2026-04-19T08:21:11.001Z</time></trkpt><trkpt lat="43.454127081957466" lon="10.507967428900663"><ele>69.0</ele><time>2026-04-19T08:21:13.001Z</time></trkpt><trkpt lat="43.454043965002484" lon="10.507942858505237"><ele>69.0</ele><time>2026-04-19T08:21:15.001Z</time></trkpt><trkpt lat="43.45397609454317" lon="10.507937672155563"><ele>69.0</ele><time>2026-04-19T08:21:17.001Z</time></trkpt><trkpt lat="43.45389438512856" lon="10.507887703584371"><ele>69.0</ele><time>2026-04-19T08:22:09.001Z</time></trkpt><trkpt lat="43.453805992666766" lon="10.507851060868491"><ele>69.0</ele><time>2026-04-19T08:22:11.001Z</time></trkpt><trkpt lat="43.45369351313721" lon="10.507793173833544"><ele>68.28571428571429</ele><time>2026-04-19T08:22:13.001Z</time></trkpt><trkpt lat="43.453628344080954" lon="10.507753550069491"><ele>67.57142857142858</ele><time>2026-04-19T08:22:14.001Z</time></trkpt><trkpt lat="43.453567733292054" lon="10.507714854839715"><ele>66.85714285714286</ele><time>2026-04-19T08:22:15.001Z</time></trkpt><trkpt lat="43.45350731057282" lon="10.507676279696206"><ele>66.14285714285714</ele><time>2026-04-19T08:22:16.001Z</time></trkpt><trkpt lat="43.45345022370426" lon="10.507638676440695"><ele>65.42857142857142</ele><time>2026-04-19T08:22:17Z</time></trkpt><trkpt lat="43.453392254919486" lon="10.507597647072327"><ele>64.71428571428571</ele><time>2026-04-19T08:22:18Z</time></trkpt><trkpt lat="43.453294564171266" lon="10.507514985576542"><ele>64.0</ele><time>2026-04-19T08:22:20Z</time></trkpt><trkpt lat="43.45321650610962" lon="10.507447398435772"><ele>64.0</ele><time>2026-04-19T08:22:22Z</time></trkpt><trkpt lat="43.453155874705374" lon="10.507369786816897"><ele>64.0</ele><time>2026-04-19T08:22:24Z</time></trkpt><trkpt lat="43.453076338025475" lon="10.507291651029613"><ele>64.0</ele><time>2026-04-19T08:22:26Z</time></trkpt><trkpt lat="43.45298480280274" lon="10.507217966014005"><ele>64.0</ele><time>2026-04-19T08:22:28Z</time></trkpt><trkpt lat="43.452898210871304" lon="10.50712339373881"><ele>64.0</ele><time>2026-04-19T08:22:30Z</time></trkpt><trkpt lat="43.452801399493985" lon="10.507044614588139"><ele>63.99999999999999</ele><time>2026-04-19T08:22:32Z</time></trkpt><trkpt lat="43.45269928765371" lon="10.506989693224329"><ele>64.0</ele><time>2026-04-19T08:22:34Z</time></trkpt><trkpt lat="43.45263576164711" lon="10.506938054718152"><ele>64.0</ele><time>2026-04-19T08:22:35Z</time></trkpt><trkpt lat="43.452563955067255" lon="10.506888147292818"><ele>64.0</ele><time>2026-04-19T08:22:36Z</time></trkpt><trkpt lat="43.45248840134678" lon="10.50683785614553"><ele>63.99999999999999</ele><time>2026-04-19T08:22:37Z</time></trkpt><trkpt lat="43.45241521149373" lon="10.506793602672255"><ele>64.0</ele><time>2026-04-19T08:22:38Z</time></trkpt><trkpt lat="43.452341172898144" lon="10.506743405004013"><ele>63.99999999999999</ele><time>2026-04-19T08:22:39Z</time></trkpt><trkpt lat="43.452270813850035" lon="10.506679835472223"><ele>64.0</ele><time>2026-04-19T08:22:40Z</time></trkpt><trkpt lat="43.45220064912178" lon="10.506633184919398"><ele>64.0</ele><time>2026-04-19T08:22:41Z</time></trkpt><trkpt lat="43.45212536778664" lon="10.506602790591268"><ele>64.0</ele><time>2026-04-19T08:22:42Z</time></trkpt><trkpt lat="43.45205533362914" lon="10.506549471033116"><ele>63.99999999999999</ele><time>2026-04-19T08:22:43Z</time></trkpt><trkpt lat="43.45200224132095" lon="10.506466672954781"><ele>64.0</ele><time>2026-04-19T08:22:44Z</time></trkpt><trkpt lat="43.45194527159002" lon="10.506396911736378"><ele>63.33333333333333</ele><time>2026-04-19T08:22:45Z</time></trkpt><trkpt lat="43.451890250831" lon="10.506325024948309"><ele>62.666666666666664</ele><time>2026-04-19T08:22:46Z</time></trkpt><trkpt lat="43.45184546979747" lon="10.506260182645923"><ele>62.0</ele><time>2026-04-19T08:22:47Z</time></trkpt><trkpt lat="43.451747019978185" lon="10.506142364092428"><ele>61.33333333333333</ele><time>2026-04-19T08:22:49Z</time></trkpt><trkpt lat="43.45168566051784" lon="10.50606944436642"><ele>60.666666666666664</ele><time>2026-04-19T08:22:50Z</time></trkpt><trkpt lat="43.451628422805506" lon="10.506003314027538"><ele>60.0</ele><time>2026-04-19T08:22:51Z</time></trkpt><trkpt lat="43.451586790823136" lon="10.50592365749161"><ele>60.0</ele><time>2026-04-19T08:22:52Z</time></trkpt><trkpt lat="43.4515403810492" lon="10.505862698773836"><ele>60.0</ele><time>2026-04-19T08:22:53Z</time></trkpt><trkpt lat="43.45146449896682" lon="10.505740028760558"><ele>60.0</ele><time>2026-04-19T08:22:55Z</time></trkpt><trkpt lat="43.4514110048448" lon="10.505630363892832"><ele>60.0</ele><time>2026-04-19T08:22:57Z</time></trkpt><trkpt lat="43.4513338509404" lon="10.505497602654383"><ele>60.0</ele><time>2026-04-19T08:22:59Z</time></trkpt><trkpt lat="43.45128981010672" lon="10.505409926711353"><ele>59.333333333333336</ele><time>2026-04-19T08:23:00Z</time></trkpt><trkpt lat="43.451262712774316" lon="10.505316884957992"><ele>58.66666666666667</ele><time>2026-04-19T08:23:01Z</time></trkpt><trkpt lat="43.45122667038332" lon="10.505239373721754"><ele>58.0</ele><time>2026-04-19T08:23:02Z</time></trkpt><trkpt lat="43.45119259898753" lon="10.5051661012501"><ele>57.333333333333336</ele><time>2026-04-19T08:23:03Z</time></trkpt><trkpt lat="43.45112348158996" lon="10.505017460248805"><ele>56.66666666666667</ele><time>2026-04-19T08:23:05Z</time></trkpt><trkpt lat="43.451082701353705" lon="10.504929760078914"><ele>56.0</ele><time>2026-04-19T08:23:06.001Z</time></trkpt><trkpt lat="43.45102378967382" lon="10.504845275163342"><ele>56.00000000000001</ele><time>2026-04-19T08:23:07.001Z</time></trkpt><trkpt lat="43.45097698725951" lon="10.504744594417053"><ele>56.0</ele><time>2026-04-19T08:23:08.001Z</time></trkpt><trkpt lat="43.450929355241705" lon="10.504652994725213"><ele>56.0</ele><time>2026-04-19T08:23:09.001Z</time></trkpt><trkpt lat="43.45089583736983" lon="10.50454724934441"><ele>56.0</ele><time>2026-04-19T08:23:10.001Z</time></trkpt><trkpt lat="43.45083918122777" lon="10.504472053592977"><ele>56.00000000000001</ele><time>2026-04-19T08:23:11.001Z</time></trkpt><trkpt lat="43.45079641287094" lon="10.504395062076465"><ele>56.0</ele><time>2026-04-19T08:23:12.001Z</time></trkpt><trkpt lat="43.45074982617" lon="10.504268606586319"><ele>55.333333333333336</ele><time>2026-04-19T08:23:14.001Z</time></trkpt><trkpt lat="43.45068942289231" lon="10.504193001586637"><ele>54.66666666666667</ele><time>2026-04-19T08:23:16.001Z</time></trkpt><trkpt lat="43.45064046807904" lon="10.504111032973515"><ele>54.0</ele><time>2026-04-19T08:23:18.001Z</time></trkpt><trkpt lat="43.45059722793951" lon="10.50400812010594"><ele>53.33333333333333</ele><time>2026-04-19T08:23:22.001Z</time></trkpt><trkpt lat="43.450530855262585" lon="10.50393316591101"><ele>52.666666666666664</ele><time>2026-04-19T08:23:24.001Z</time></trkpt><trkpt lat="43.45047732414496" lon="10.503856979456286"><ele>52.0</ele><time>2026-04-19T08:23:26.001Z</time></trkpt><trkpt lat="43.450431106119424" lon="10.503786380314727"><ele>50.8</ele><time>2026-04-19T08:23:28.001Z</time></trkpt><trkpt lat="43.45037710196998" lon="10.503715156670577"><ele>49.6</ele><time>2026-04-19T08:23:32.001Z</time></trkpt><trkpt lat="43.45030692380314" lon="10.5036312528426"><ele>48.4</ele><time>2026-04-19T08:23:36.001Z</time></trkpt><trkpt lat="43.45024727121462" lon="10.503560562055858"><ele>47.199999999999996</ele><time>2026-04-19T08:23:38.001Z</time></trkpt><trkpt lat="43.45015496974953" lon="10.503483784167841"><ele>46.0</ele><time>2026-04-19T08:23:40.001Z</time></trkpt><trkpt lat="43.450064747074684" lon="10.50342347734084"><ele>46.0</ele><time>2026-04-19T08:23:42.001Z</time></trkpt><trkpt lat="43.44998390426676" lon="10.503352650062565"><ele>46.0</ele><time>2026-04-19T08:23:44.001Z</time></trkpt><trkpt lat="43.44990836578452" lon="10.503254929277567"><ele>46.0</ele><time>2026-04-19T08:23:46.001Z</time></trkpt><trkpt lat="43.44983765293905" lon="10.503180147689898"><ele>46.0</ele><time>2026-04-19T08:23:48.001Z</time></trkpt><trkpt lat="43.44977020624736" lon="10.503132581662086"><ele>46.0</ele><time>2026-04-19T08:23:50.001Z</time></trkpt><trkpt lat="43.449726021966626" lon="10.50305474697944"><ele>46.0</ele><time>2026-04-19T08:23:52.001Z</time></trkpt><trkpt lat="43.44965575833986" lon="10.502977514864895"><ele>45.0</ele><time>2026-04-19T08:23:54.001Z</time></trkpt><trkpt lat="43.44957704202087" lon="10.502923133884964"><ele>44.0</ele><time>2026-04-19T08:23:56.001Z</time></trkpt><trkpt lat="43.44950721382391" lon="10.502847055473337"><ele>43.0</ele><time>2026-04-19T08:23:58.001Z</time></trkpt><trkpt lat="43.44939199363183" lon="10.502738167940128"><ele>42.0</ele><time>2026-04-19T08:24:01.001Z</time></trkpt><trkpt lat="43.4493182343897" lon="10.502664035199532"><ele>41.0</ele><time>2026-04-19T08:24:03.001Z</time></trkpt><trkpt lat="43.44731945149711" lon="10.502541908358241"><ele>40.33333333333333</ele><time>2026-04-19T08:24:47Z</time></trkpt><trkpt lat="43.447260224330975" lon="10.50248389562773"><ele>39.666666666666664</ele><time>2026-04-19T08:24:48Z</time></trkpt><trkpt lat="43.447177236470665" lon="10.50231614142333"><ele>39.0</ele><time>2026-04-19T08:24:50Z</time></trkpt><trkpt lat="43.44712042623421" lon="10.502252024473893"><ele>38.333333333333336</ele><time>2026-04-19T08:24:51Z</time></trkpt><trkpt lat="43.44707245085552" lon="10.502174555756634"><ele>37.66666666666667</ele><time>2026-04-19T08:24:52Z</time></trkpt><trkpt lat="43.44702859370805" lon="10.502104658290799"><ele>37.0</ele><time>2026-04-19T08:24:53Z</time></trkpt><trkpt lat="43.446986974651175" lon="10.502035444572154"><ele>36.75</ele><time>2026-04-19T08:24:54Z</time></trkpt><trkpt lat="43.44689013857871" lon="10.501930864392365"><ele>36.5</ele><time>2026-04-19T08:24:56Z</time></trkpt><trkpt lat="43.44679568888404" lon="10.501866316798054"><ele>36.25</ele><time>2026-04-19T08:24:58Z</time></trkpt><trkpt lat="43.446625447121114" lon="10.501924874004478"><ele>36.0</ele><time>2026-04-19T08:25:01Z</time></trkpt><trkpt lat="43.446538707453385" lon="10.501978354090342"><ele>36.0</ele><time>2026-04-19T08:25:03Z</time></trkpt><trkpt lat="43.44646868569076" lon="10.502062744357652"><ele>36.0</ele><time>2026-04-19T08:25:05Z</time></trkpt><trkpt lat="43.44636231368127" lon="10.502188012943623"><ele>36.0</ele><time>2026-04-19T08:25:07Z</time></trkpt><trkpt lat="43.446289749880336" lon="10.502266459245421"><ele>36.0</ele><time>2026-04-19T08:25:08Z</time></trkpt><trkpt lat="43.446230645777675" lon="10.502359186788272"><ele>36.0</ele><time>2026-04-19T08:25:09Z</time></trkpt><trkpt lat="43.44615874413432" lon="10.502430295806883"><ele>36.25</ele><time>2026-04-19T08:25:10Z</time></trkpt><trkpt lat="43.446083159079535" lon="10.50250985163321"><ele>36.5</ele><time>2026-04-19T08:25:11Z</time></trkpt><trkpt lat="43.44591847361292" lon="10.502682362795639"><ele>36.75</ele><time>2026-04-19T08:25:13.001Z</time></trkpt><trkpt lat="43.44583313040875" lon="10.502772333425737"><ele>37.0</ele><time>2026-04-19T08:25:14.001Z</time></trkpt><trkpt lat="43.445745307175486" lon="10.50286436055761"><ele>36.75</ele><time>2026-04-19T08:25:15.001Z</time></trkpt><trkpt lat="43.44565353129331" lon="10.502958225332913"><ele>36.5</ele><time>2026-04-19T08:25:16.001Z</time></trkpt><trkpt lat="43.445563496329875" lon="10.503051238875736"><ele>36.25</ele><time>2026-04-19T08:25:17.001Z</time></trkpt><trkpt lat="43.445474391733086" lon="10.503142367077398"><ele>36.0</ele><time>2026-04-19T08:25:18.001Z</time></trkpt><trkpt lat="43.44538082967691" lon="10.503237750985742"><ele>36.0</ele><time>2026-04-19T08:25:19.001Z</time></trkpt><trkpt lat="43.44528311900828" lon="10.503338705881161"><ele>36.0</ele><time>2026-04-19T08:25:20.001Z</time></trkpt><trkpt lat="43.44517469507197" lon="10.503423539271825"><ele>36.0</ele><time>2026-04-19T08:25:21.001Z</time></trkpt><trkpt lat="43.44508027011348" lon="10.503519015326154"><ele>36.0</ele><time>2026-04-19T08:25:22.001Z</time></trkpt><trkpt lat="43.44499911659373" lon="10.503629280215577"><ele>36.0</ele><time>2026-04-19T08:25:23.001Z</time></trkpt><trkpt lat="43.44490644361378" lon="10.503722432002748"><ele>36.0</ele><time>2026-04-19T08:25:24.001Z</time></trkpt><trkpt lat="43.44481583266131" lon="10.503813516185465"><ele>36.0</ele><time>2026-04-19T08:25:25.001Z</time></trkpt><trkpt lat="43.44464706564352" lon="10.50399088370772"><ele>36.0</ele><time>2026-04-19T08:25:27.001Z</time></trkpt><trkpt lat="43.444555738465695" lon="10.504064515080847"><ele>36.6</ele><time>2026-04-19T08:25:28.001Z</time></trkpt><trkpt lat="43.444473480688515" lon="10.504150987326632"><ele>37.2</ele><time>2026-04-19T08:25:29.001Z</time></trkpt><trkpt lat="43.444412957107986" lon="10.504214036697745"><ele>37.8</ele><time>2026-04-19T08:25:30.001Z</time></trkpt><trkpt lat="43.44433173483402" lon="10.504297867109434"><ele>38.4</ele><time>2026-04-19T08:25:31.001Z</time></trkpt><trkpt lat="43.44424461617361" lon="10.504387783331227"><ele>39.0</ele><time>2026-04-19T08:25:32.001Z</time></trkpt><trkpt lat="43.44414732485221" lon="10.504488198806104"><ele>39.75</ele><time>2026-04-19T08:25:33.001Z</time></trkpt><trkpt lat="43.44403448638826" lon="10.504603909376685"><ele>40.5</ele><time>2026-04-19T08:25:34.001Z</time></trkpt><trkpt lat="43.44392683888367" lon="10.504710491904705"><ele>41.25</ele><time>2026-04-19T08:25:35.001Z</time></trkpt><trkpt lat="43.44381775999724" lon="10.504817684345754"><ele>42.0</ele><time>2026-04-19T08:25:36.001Z</time></trkpt><trkpt lat="43.44370868668464" lon="10.50492499841625"><ele>43.0</ele><time>2026-04-19T08:25:37.001Z</time></trkpt><trkpt lat="43.44360281957756" lon="10.505029827085009"><ele>44.0</ele><time>2026-04-19T08:25:38.001Z</time></trkpt><trkpt lat="43.44352431059141" lon="10.505108484890057"><ele>45.0</ele><time>2026-04-19T08:25:39.001Z</time></trkpt><trkpt lat="43.44345613238907" lon="10.505178497366362"><ele>46.0</ele><time>2026-04-19T08:25:40.001Z</time></trkpt><trkpt lat="43.44338664660294" lon="10.505249852602066"><ele>47.0</ele><time>2026-04-19T08:25:41.001Z</time></trkpt><trkpt lat="43.44331692127265" lon="10.505321453916457"><ele>47.0</ele><time>2026-04-19T08:25:42.001Z</time></trkpt><trkpt lat="43.44324512151524" lon="10.505394707504777"><ele>47.0</ele><time>2026-04-19T08:25:43.001Z</time></trkpt><trkpt lat="43.44317342263335" lon="10.505467787302699"><ele>47.0</ele><time>2026-04-19T08:25:44.001Z</time></trkpt><trkpt lat="43.443113594371276" lon="10.505528768242142"><ele>47.0</ele><time>2026-04-19T08:25:45.001Z</time></trkpt><trkpt lat="43.44303194993324" lon="10.50559520610055"><ele>47.0</ele><time>2026-04-19T08:25:47.001Z</time></trkpt><trkpt lat="43.44296087326263" lon="10.505628501201231"><ele>47.0</ele><time>2026-04-19T08:25:52.001Z</time></trkpt><trkpt lat="43.442886190528704" lon="10.50544399993738"><ele>48.0</ele><time>2026-04-19T08:25:54.001Z</time></trkpt><trkpt lat="43.442831323503704" lon="10.50526049629398"><ele>49.0</ele><time>2026-04-19T08:25:56.001Z</time></trkpt><trkpt lat="43.44278325631887" lon="10.505147646377896"><ele>50.0</ele><time>2026-04-19T08:25:57.001Z</time></trkpt><trkpt lat="43.44273191175303" lon="10.505020906605033"><ele>51.0</ele><time>2026-04-19T08:25:58.001Z</time></trkpt><trkpt lat="43.44268306735442" lon="10.504893260912946"><ele>52.0</ele><time>2026-04-19T08:25:59.001Z</time></trkpt><trkpt lat="43.44262278192359" lon="10.504756254107619"><ele>52.0</ele><time>2026-04-19T08:26:00.001Z</time></trkpt><trkpt lat="43.442560313641174" lon="10.504622972786098"><ele>52.0</ele><time>2026-04-19T08:26:01.001Z</time></trkpt><trkpt lat="43.44249991058222" lon="10.504482232571181"><ele>52.0</ele><time>2026-04-19T08:26:02.001Z</time></trkpt><trkpt lat="43.4424576397528" lon="10.504330267846987"><ele>52.0</ele><time>2026-04-19T08:26:03.001Z</time></trkpt><trkpt lat="43.44240882744624" lon="10.504194114074298"><ele>51.0</ele><time>2026-04-19T08:26:04.001Z</time></trkpt><trkpt lat="43.44235562948797" lon="10.504065837378342"><ele>50.0</ele><time>2026-04-19T08:26:05.001Z</time></trkpt><trkpt lat="43.442314622958456" lon="10.503915766525473"><ele>49.0</ele><time>2026-04-19T08:26:06.001Z</time></trkpt><trkpt lat="43.44227076567652" lon="10.503757685514127"><ele>48.0</ele><time>2026-04-19T08:26:07.001Z</time></trkpt><trkpt lat="43.442227722540316" lon="10.503596313820195"><ele>48.0</ele><time>2026-04-19T08:26:08.001Z</time></trkpt><trkpt lat="43.442188167255296" lon="10.503435286268584"><ele>48.0</ele><time>2026-04-19T08:26:09.001Z</time></trkpt><trkpt lat="43.442151668594754" lon="10.503281233048366"><ele>48.0</ele><time>2026-04-19T08:26:10.001Z</time></trkpt><trkpt lat="43.44212002624697" lon="10.503140450028404"><ele>48.0</ele><time>2026-04-19T08:26:11.001Z</time></trkpt><trkpt lat="43.442093087907196" lon="10.503018363732298"><ele>48.0</ele><time>2026-04-19T08:26:12.001Z</time></trkpt><trkpt lat="43.44207030695912" lon="10.50291145476389"><ele>48.2</ele><time>2026-04-19T08:26:13.001Z</time></trkpt><trkpt lat="43.44205267195747" lon="10.502825727812906"><ele>48.4</ele><time>2026-04-19T08:26:14.001Z</time></trkpt><trkpt lat="43.44202582499659" lon="10.502701584548939"><ele>48.6</ele><time>2026-04-19T08:26:16.001Z</time></trkpt><trkpt lat="43.44187077759134" lon="10.502695451976622"><ele>48.800000000000004</ele><time>2026-04-19T08:26:19.001Z</time></trkpt><trkpt lat="43.44178824223182" lon="10.502694695918162"><ele>49.0</ele><time>2026-04-19T08:26:20.001Z</time></trkpt><trkpt lat="43.441700768954945" lon="10.50271238220986"><ele>49.0</ele><time>2026-04-19T08:26:21.001Z</time></trkpt><trkpt lat="43.441617648285316" lon="10.502749254354498"><ele>49.0</ele><time>2026-04-19T08:26:22.002Z</time></trkpt><trkpt lat="43.4415213456366" lon="10.502763829643234"><ele>49.0</ele><time>2026-04-19T08:26:23.002Z</time></trkpt><trkpt lat="43.44142156281963" lon="10.502782249593398"><ele>49.0</ele><time>2026-04-19T08:26:24.002Z</time></trkpt><trkpt lat="43.44131965887299" lon="10.502802034772731"><ele>49.0</ele><time>2026-04-19T08:26:25.002Z</time></trkpt><trkpt lat="43.44121496527113" lon="10.502821043313446"><ele>49.0</ele><time>2026-04-19T08:26:26.002Z</time></trkpt><trkpt lat="43.44111478979823" lon="10.502840281466257"><ele>49.0</ele><time>2026-04-19T08:26:27.002Z</time></trkpt><trkpt lat="43.44101745788548" lon="10.50285741743127"><ele>49.0</ele><time>2026-04-19T08:26:27.999Z</time></trkpt><trkpt lat="43.440923104536374" lon="10.502877025901588"><ele>49.0</ele><time>2026-04-19T08:26:28.999Z</time></trkpt><trkpt lat="43.44082952959101" lon="10.502896219420304"><ele>49.0</ele><time>2026-04-19T08:26:29.999Z</time></trkpt><trkpt lat="43.440737557948765" lon="10.502914478033102"><ele>48.99999999999999</ele><time>2026-04-19T08:26:30.999Z</time></trkpt><trkpt lat="43.44064451535014" lon="10.502891339270978"><ele>49.0</ele><time>2026-04-19T08:26:31.999Z</time></trkpt><trkpt lat="43.44055665442465" lon="10.50292400788885"><ele>49.0</ele><time>2026-04-19T08:26:32.999Z</time></trkpt><trkpt lat="43.440478152789446" lon="10.502946564915298"><ele>49.0</ele><time>2026-04-19T08:26:33.999Z</time></trkpt><trkpt lat="43.44040173841273" lon="10.50296852215611"><ele>48.99999999999999</ele><time>2026-04-19T08:26:34.999Z</time></trkpt><trkpt lat="43.440324146264835" lon="10.502990758111576"><ele>49.0</ele><time>2026-04-19T08:26:35.999Z</time></trkpt><trkpt lat="43.44025179924743" lon="10.50300661097701"><ele>47.800000000000004</ele><time>2026-04-19T08:26:36.999Z</time></trkpt><trkpt lat="43.44018566367606" lon="10.503016186882546"><ele>46.6</ele><time>2026-04-19T08:26:37.999Z</time></trkpt><trkpt lat="43.440070247015775" lon="10.50301954735414"><ele>45.4</ele><time>2026-04-19T08:26:39.999Z</time></trkpt><trkpt lat="43.43996340773437" lon="10.503015894318287"><ele>44.2</ele><time>2026-04-19T08:26:41.999Z</time></trkpt><trkpt lat="43.43984371933778" lon="10.503011635945622"><ele>43.0</ele><time>2026-04-19T08:26:43.999Z</time></trkpt><trkpt lat="43.43977621114304" lon="10.503000392243642"><ele>43.0</ele><time>2026-04-19T08:26:44.999Z</time></trkpt><trkpt lat="43.4396998329649" lon="10.502986957919843"><ele>43.0</ele><time>2026-04-19T08:26:45.999Z</time></trkpt><trkpt lat="43.43961712165413" lon="10.502972409647608"><ele>43.0</ele><time>2026-04-19T08:26:46.999Z</time></trkpt><trkpt lat="43.43952826300976" lon="10.50295816387523"><ele>43.0</ele><time>2026-04-19T08:26:47.999Z</time></trkpt><trkpt lat="43.43943565877617" lon="10.502945335855909"><ele>43.0</ele><time>2026-04-19T08:26:48.999Z</time></trkpt><trkpt lat="43.43934163516354" lon="10.50293419462139"><ele>43.0</ele><time>2026-04-19T08:26:49.999Z</time></trkpt><trkpt lat="43.439247401526764" lon="10.502926072098623"><ele>42.599999999999994</ele><time>2026-04-19T08:26:50.999Z</time></trkpt><trkpt lat="43.43915135193002" lon="10.502918333507578"><ele>42.199999999999996</ele><time>2026-04-19T08:26:52Z</time></trkpt><trkpt lat="43.43905449652767" lon="10.502910529991102"><ele>41.8</ele><time>2026-04-19T08:26:53Z</time></trkpt><trkpt lat="43.43895600206217" lon="10.502903045653365"><ele>41.4</ele><time>2026-04-19T08:26:54Z</time></trkpt><trkpt lat="43.438857244169384" lon="10.50289592615485"><ele>41.0</ele><time>2026-04-19T08:26:55Z</time></trkpt><trkpt lat="43.4387573028592" lon="10.502888721341709"><ele>41.0</ele><time>2026-04-19T08:26:56Z</time></trkpt><trkpt lat="43.43865559734468" lon="10.502881389348072"><ele>41.0</ele><time>2026-04-19T08:26:57Z</time></trkpt><trkpt lat="43.43855129896173" lon="10.502873872192833"><ele>41.0</ele><time>2026-04-19T08:26:58Z</time></trkpt><trkpt lat="43.43844927232844" lon="10.502866658866193"><ele>41.0</ele><time>2026-04-19T08:26:59Z</time></trkpt><trkpt lat="43.43834662711485" lon="10.502859977692196"><ele>41.0</ele><time>2026-04-19T08:27:00Z</time></trkpt><trkpt lat="43.43824508979041" lon="10.502853368634067"><ele>41.0</ele><time>2026-04-19T08:27:01Z</time></trkpt><trkpt lat="43.43814663703551" lon="10.50284696034854"><ele>41.0</ele><time>2026-04-19T08:27:02Z</time></trkpt><trkpt lat="43.438047854126765" lon="10.502840530574915"><ele>41.0</ele><time>2026-04-19T08:27:03Z</time></trkpt><trkpt lat="43.43794808312792" lon="10.502833425560327"><ele>41.0</ele><time>2026-04-19T08:27:04Z</time></trkpt><trkpt lat="43.43785182774479" lon="10.50282496965931"><ele>41.0</ele><time>2026-04-19T08:27:05Z</time></trkpt><trkpt lat="43.43776030221338" lon="10.502814408738175"><ele>40.57142857142857</ele><time>2026-04-19T08:27:06Z</time></trkpt><trkpt lat="43.437671568755306" lon="10.50280421199154"><ele>40.14285714285714</ele><time>2026-04-19T08:27:07Z</time></trkpt><trkpt lat="43.43758839591856" lon="10.502795035690813"><ele>39.71428571428571</ele><time>2026-04-19T08:27:08Z</time></trkpt><trkpt lat="43.437512568810256" lon="10.502787701331748"><ele>39.285714285714285</ele><time>2026-04-19T08:27:09Z</time></trkpt><trkpt lat="43.43744582610255" lon="10.502783226447985"><ele>38.85714285714286</ele><time>2026-04-19T08:27:10Z</time></trkpt><trkpt lat="43.43737941523148" lon="10.502778773790647"><ele>38.42857142857142</ele><time>2026-04-19T08:27:11Z</time></trkpt><trkpt lat="43.43731421999906" lon="10.502776920067015"><ele>38.0</ele><time>2026-04-19T08:27:12Z</time></trkpt><trkpt lat="43.43724976671353" lon="10.502777993504456"><ele>38.0</ele><time>2026-04-19T08:27:13Z</time></trkpt><trkpt lat="43.4371842635104" lon="10.502786482853013"><ele>38.0</ele><time>2026-04-19T08:27:14Z</time></trkpt><trkpt lat="43.437122493138695" lon="10.50282690511219"><ele>38.0</ele><time>2026-04-19T08:27:15Z</time></trkpt><trkpt lat="43.43705806408961" lon="10.502859523623838"><ele>38.0</ele><time>2026-04-19T08:27:16Z</time></trkpt><trkpt lat="43.4369998525742" lon="10.502909888595255"><ele>38.0</ele><time>2026-04-19T08:27:17Z</time></trkpt><trkpt lat="43.436919990240916" lon="10.503025544728674"><ele>38.0</ele><time>2026-04-19T08:27:19Z</time></trkpt><trkpt lat="43.436863953893614" lon="10.503131890447916"><ele>37.8</ele><time>2026-04-19T08:27:21Z</time></trkpt><trkpt lat="43.436810129466636" lon="10.503227944044692"><ele>37.599999999999994</ele><time>2026-04-19T08:27:23Z</time></trkpt><trkpt lat="43.436730331543494" lon="10.503272318140656"><ele>37.400000000000006</ele><time>2026-04-19T08:27:25Z</time></trkpt><trkpt lat="43.436653771837946" lon="10.50332282135668"><ele>37.2</ele><time>2026-04-19T08:27:27Z</time></trkpt><trkpt lat="43.436573365266256" lon="10.503404624410116"><ele>37.0</ele><time>2026-04-19T08:27:29Z</time></trkpt><trkpt lat="43.43649892734156" lon="10.50355002897785"><ele>37.0</ele><time>2026-04-19T08:27:31Z</time></trkpt><trkpt lat="43.43647784097905" lon="10.503644281381876"><ele>37.0</ele><time>2026-04-19T08:27:32Z</time></trkpt><trkpt lat="43.43646328192778" lon="10.503740974296221"><ele>37.0</ele><time>2026-04-19T08:27:33Z</time></trkpt><trkpt lat="43.43644934639544" lon="10.503833135778951"><ele>37.0</ele><time>2026-04-19T08:27:34Z</time></trkpt><trkpt lat="43.43643514986594" lon="10.503920354062588"><ele>37.0</ele><time>2026-04-19T08:27:35Z</time></trkpt><trkpt lat="43.436415740128346" lon="10.504012844610351"><ele>37.0</ele><time>2026-04-19T08:27:36Z</time></trkpt><trkpt lat="43.43639132274962" lon="10.504109144226492"><ele>37.0</ele><time>2026-04-19T08:27:37Z</time></trkpt><trkpt lat="43.436369237900166" lon="10.50419563044338"><ele>37.0</ele><time>2026-04-19T08:27:38Z</time></trkpt><trkpt lat="43.436322668748076" lon="10.504273959272158"><ele>37.0</ele><time>2026-04-19T08:27:39Z</time></trkpt><trkpt lat="43.43628996463275" lon="10.50443488750945"><ele>37.0</ele><time>2026-04-19T08:27:41.001Z</time></trkpt><trkpt lat="43.43630315834959" lon="10.504581501890355"><ele>37.0</ele><time>2026-04-19T08:27:43.001Z</time></trkpt><trkpt lat="43.43635754395863" lon="10.504696350744176"><ele>37.0</ele><time>2026-04-19T08:27:45.001Z</time></trkpt><trkpt lat="43.436438315644395" lon="10.504793717017733"><ele>37.0</ele><time>2026-04-19T08:27:47.001Z</time></trkpt><trkpt lat="43.43645361232447" lon="10.504941752507072"><ele>37.0</ele><time>2026-04-19T08:27:49.001Z</time></trkpt><trkpt lat="43.43643218705707" lon="10.505031815369412"><ele>37.0</ele><time>2026-04-19T08:27:50.001Z</time></trkpt><trkpt lat="43.43639905014723" lon="10.505127398455263"><ele>37.0</ele><time>2026-04-19T08:27:51.001Z</time></trkpt><trkpt lat="43.43636168796639" lon="10.505231286282067"><ele>37.0</ele><time>2026-04-19T08:27:52.001Z</time></trkpt><trkpt lat="43.43632391887499" lon="10.505340038757428"><ele>37.0</ele><time>2026-04-19T08:27:53.001Z</time></trkpt><trkpt lat="43.43627202790772" lon="10.505447264636024"><ele>37.0</ele><time>2026-04-19T08:27:54.001Z</time></trkpt><trkpt lat="43.43623146227901" lon="10.505564136827354"><ele>37.0</ele><time>2026-04-19T08:27:55.001Z</time></trkpt><trkpt lat="43.43619673944837" lon="10.505680197722738"><ele>37.0</ele><time>2026-04-19T08:27:56.001Z</time></trkpt><trkpt lat="43.436169883235394" lon="10.505799138146033"><ele>37.0</ele><time>2026-04-19T08:27:57.001Z</time></trkpt><trkpt lat="43.43616098969591" lon="10.505922001002542"><ele>37.0</ele><time>2026-04-19T08:27:58.001Z</time></trkpt><trkpt lat="43.4361720167242" lon="10.506049001320564"><ele>37.0</ele><time>2026-04-19T08:27:59.001Z</time></trkpt><trkpt lat="43.4361901066078" lon="10.50617317113953"><ele>37.0</ele><time>2026-04-19T08:28:00.001Z</time></trkpt><trkpt lat="43.436214191882044" lon="10.506298895247866"><ele>37.0</ele><time>2026-04-19T08:28:01.001Z</time></trkpt><trkpt lat="43.436239315790544" lon="10.50642451504656"><ele>37.0</ele><time>2026-04-19T08:28:02.001Z</time></trkpt><trkpt lat="43.436255712763185" lon="10.506538359482947"><ele>37.0</ele><time>2026-04-19T08:28:03.001Z</time></trkpt><trkpt lat="43.43627891240723" lon="10.506648211836804"><ele>37.0</ele><time>2026-04-19T08:28:04.001Z</time></trkpt><trkpt lat="43.43628068850161" lon="10.506764014662238"><ele>36.85714285714286</ele><time>2026-04-19T08:28:05.001Z</time></trkpt><trkpt lat="43.43627769329024" lon="10.506863445190314"><ele>36.714285714285715</ele><time>2026-04-19T08:28:06.001Z</time></trkpt><trkpt lat="43.43627368032775" lon="10.506959924271179"><ele>36.57142857142857</ele><time>2026-04-19T08:28:07.001Z</time></trkpt><trkpt lat="43.43625591711241" lon="10.507058471645315"><ele>36.42857142857143</ele><time>2026-04-19T08:28:08.001Z</time></trkpt><trkpt lat="43.436235870557326" lon="10.507158492612099"><ele>36.285714285714285</ele><time>2026-04-19T08:28:09.001Z</time></trkpt><trkpt lat="43.436212483636375" lon="10.507247859967006"><ele>36.142857142857146</ele><time>2026-04-19T08:28:10.001Z</time></trkpt><trkpt lat="43.43619337055295" lon="10.507339789497067"><ele>36.0</ele><time>2026-04-19T08:28:11.001Z</time></trkpt><trkpt lat="43.43617328421028" lon="10.507436400082392"><ele>36.333333333333336</ele><time>2026-04-19T08:28:12.001Z</time></trkpt><trkpt lat="43.43615148997051" lon="10.507541225779367"><ele>36.666666666666664</ele><time>2026-04-19T08:28:13.001Z</time></trkpt><trkpt lat="43.4361346049666" lon="10.5076519523063"><ele>37.0</ele><time>2026-04-19T08:28:14.001Z</time></trkpt><trkpt lat="43.43613714554393" lon="10.507768001844074"><ele>37.33333333333333</ele><time>2026-04-19T08:28:15.001Z</time></trkpt><trkpt lat="43.43615884590013" lon="10.50787737415322"><ele>37.666666666666664</ele><time>2026-04-19T08:28:16.001Z</time></trkpt><trkpt lat="43.43618775670736" lon="10.507985163747788"><ele>38.0</ele><time>2026-04-19T08:28:17.001Z</time></trkpt><trkpt lat="43.4362178225108" lon="10.508090661077867"><ele>38.0</ele><time>2026-04-19T08:28:18.001Z</time></trkpt><trkpt lat="43.43625196325731" lon="10.508198961428166"><ele>38.0</ele><time>2026-04-19T08:28:19.001Z</time></trkpt><trkpt lat="43.43628106006518" lon="10.508313672580972"><ele>38.0</ele><time>2026-04-19T08:28:20.001Z</time></trkpt><trkpt lat="43.436311551024005" lon="10.508442822073325"><ele>38.0</ele><time>2026-04-19T08:28:21.001Z</time></trkpt><trkpt lat="43.43632176836744" lon="10.508576858077646"><ele>38.0</ele><time>2026-04-19T08:28:22.001Z</time></trkpt><trkpt lat="43.43633069858497" lon="10.508722454000983"><ele>38.4</ele><time>2026-04-19T08:28:23.001Z</time></trkpt><trkpt lat="43.43633578017249" lon="10.5088614771175"><ele>38.8</ele><time>2026-04-19T08:28:24.001Z</time></trkpt><trkpt lat="43.436341394342755" lon="10.50900258962759"><ele>39.2</ele><time>2026-04-19T08:28:25.001Z</time></trkpt><trkpt lat="43.43635346614566" lon="10.509143243464992"><ele>39.6</ele><time>2026-04-19T08:28:26.001Z</time></trkpt><trkpt lat="43.436362795247625" lon="10.509274142198128"><ele>40.0</ele><time>2026-04-19T08:28:27.001Z</time></trkpt><trkpt lat="43.43636273190967" lon="10.50939123660192"><ele>40.0</ele><time>2026-04-19T08:28:28.001Z</time></trkpt><trkpt lat="43.43635740981785" lon="10.509508042832488"><ele>40.0</ele><time>2026-04-19T08:28:29.001Z</time></trkpt><trkpt lat="43.436345404198896" lon="10.509624917993968"><ele>40.0</ele><time>2026-04-19T08:28:30.001Z</time></trkpt><trkpt lat="43.43632915424628" lon="10.50974624525309"><ele>40.0</ele><time>2026-04-19T08:28:31.001Z</time></trkpt><trkpt lat="43.43631062510488" lon="10.509870556158369"><ele>40.0</ele><time>2026-04-19T08:28:32.001Z</time></trkpt><trkpt lat="43.43629326448128" lon="10.510003480094252"><ele>42.4</ele><time>2026-04-19T08:28:33.001Z</time></trkpt><trkpt lat="43.43627855410613" lon="10.510136148425714"><ele>44.8</ele><time>2026-04-19T08:28:33.999Z</time></trkpt><trkpt lat="43.43626327673872" lon="10.51028032316492"><ele>47.2</ele><time>2026-04-19T08:28:34.999Z</time></trkpt><trkpt lat="43.4362491872115" lon="10.510425305670694"><ele>49.6</ele><time>2026-04-19T08:28:35.999Z</time></trkpt><trkpt lat="43.436238452680875" lon="10.51056010304453"><ele>52.0</ele><time>2026-04-19T08:28:36.999Z</time></trkpt><trkpt lat="43.43622402921698" lon="10.51070091519781"><ele>53.25</ele><time>2026-04-19T08:28:37.999Z</time></trkpt><trkpt lat="43.436209311204976" lon="10.510849533285022"><ele>54.5</ele><time>2026-04-19T08:28:38.999Z</time></trkpt><trkpt lat="43.436193595452444" lon="10.511006050165348"><ele>55.75</ele><time>2026-04-19T08:28:39.999Z</time></trkpt><trkpt lat="43.436177598355656" lon="10.511171164388074"><ele>57.0</ele><time>2026-04-19T08:28:40.999Z</time></trkpt><trkpt lat="43.436161655271455" lon="10.511346988535944"><ele>57.75</ele><time>2026-04-19T08:28:41.999Z</time></trkpt><trkpt lat="43.43614466758497" lon="10.511518559986015"><ele>58.5</ele><time>2026-04-19T08:28:42.999Z</time></trkpt><trkpt lat="43.43612804619716" lon="10.511699246598132"><ele>59.25</ele><time>2026-04-19T08:28:43.999Z</time></trkpt><trkpt lat="43.43611313008322" lon="10.5118888175015"><ele>60.0</ele><time>2026-04-19T08:28:44.999Z</time></trkpt><trkpt lat="43.436102042345745" lon="10.512072847410538"><ele>60.0</ele><time>2026-04-19T08:28:45.999Z</time></trkpt><trkpt lat="43.436072620233794" lon="10.512252491840874"><ele>60.0</ele><time>2026-04-19T08:28:46.999Z</time></trkpt><trkpt lat="43.436071312449876" lon="10.512435200891689"><ele>60.0</ele><time>2026-04-19T08:28:47.999Z</time></trkpt><trkpt lat="43.43604169862115" lon="10.512621327180165"><ele>60.0</ele><time>2026-04-19T08:28:48.999Z</time></trkpt><trkpt lat="43.436020926170144" lon="10.51280503947448"><ele>61.0</ele><time>2026-04-19T08:28:49.999Z</time></trkpt><trkpt lat="43.436000958640356" lon="10.512989432150738"><ele>62.0</ele><time>2026-04-19T08:28:50.999Z</time></trkpt><trkpt lat="43.43598174456621" lon="10.513173943516259"><ele>63.0</ele><time>2026-04-19T08:28:51.999Z</time></trkpt><trkpt lat="43.435963810565845" lon="10.5133638264588"><ele>64.0</ele><time>2026-04-19T08:28:52.999Z</time></trkpt><trkpt lat="43.43594561143292" lon="10.513551913804664"><ele>64.0</ele><time>2026-04-19T08:28:53.999Z</time></trkpt><trkpt lat="43.43593011867365" lon="10.513736602672045"><ele>64.0</ele><time>2026-04-19T08:28:55Z</time></trkpt><trkpt lat="43.435914460681964" lon="10.513925867156793"><ele>64.0</ele><time>2026-04-19T08:28:56Z</time></trkpt><trkpt lat="43.43589767422194" lon="10.514112326960138"><ele>64.0</ele><time>2026-04-19T08:28:57Z</time></trkpt><trkpt lat="43.43587906607728" lon="10.514298655250371"><ele>64.75</ele><time>2026-04-19T08:28:58Z</time></trkpt><trkpt lat="43.43586034250575" lon="10.514488750239734"><ele>65.5</ele><time>2026-04-19T08:28:59Z</time></trkpt><trkpt lat="43.435845046711776" lon="10.514676759158956"><ele>66.25</ele><time>2026-04-19T08:29:00Z</time></trkpt><trkpt lat="43.4358335849597" lon="10.514861186961602"><ele>67.0</ele><time>2026-04-19T08:29:01Z</time></trkpt><trkpt lat="43.43582323205567" lon="10.515052728622662"><ele>67.5</ele><time>2026-04-19T08:29:02Z</time></trkpt><trkpt lat="43.435809456812734" lon="10.515246674684194"><ele>68.0</ele><time>2026-04-19T08:29:03Z</time></trkpt><trkpt lat="43.435791039368326" lon="10.515442382999057"><ele>68.5</ele><time>2026-04-19T08:29:04Z</time></trkpt><trkpt lat="43.435771246634914" lon="10.515626356031348"><ele>69.0</ele><time>2026-04-19T08:29:05Z</time></trkpt><trkpt lat="43.435750233201745" lon="10.515808325824032"><ele>69.75</ele><time>2026-04-19T08:29:06Z</time></trkpt><trkpt lat="43.43572807914795" lon="10.515989128262834"><ele>70.5</ele><time>2026-04-19T08:29:07Z</time></trkpt><trkpt lat="43.43570733333675" lon="10.516172320179155"><ele>71.25</ele><time>2026-04-19T08:29:08Z</time></trkpt><trkpt lat="43.43568586290455" lon="10.516342031481157"><ele>72.0</ele><time>2026-04-19T08:29:09Z</time></trkpt><trkpt lat="43.435663964206086" lon="10.516506371307957"><ele>72.5</ele><time>2026-04-19T08:29:10Z</time></trkpt><trkpt lat="43.43564224024845" lon="10.516663246219409"><ele>73.0</ele><time>2026-04-19T08:29:11Z</time></trkpt><trkpt lat="43.43561702565966" lon="10.516825830646203"><ele>73.5</ele><time>2026-04-19T08:29:12Z</time></trkpt><trkpt lat="43.43559979103009" lon="10.516988759110639"><ele>74.0</ele><time>2026-04-19T08:29:13Z</time></trkpt><trkpt lat="43.43558002678532" lon="10.517148196531044"><ele>74.0</ele><time>2026-04-19T08:29:14Z</time></trkpt><trkpt lat="43.43554830760686" lon="10.517291979599277"><ele>74.0</ele><time>2026-04-19T08:29:15Z</time></trkpt><trkpt lat="43.435511132342285" lon="10.51742911122865"><ele>74.0</ele><time>2026-04-19T08:29:16Z</time></trkpt><trkpt lat="43.43547477389496" lon="10.517549591601739"><ele>74.0</ele><time>2026-04-19T08:29:17Z</time></trkpt><trkpt lat="43.43544800452788" lon="10.51766305194507"><ele>74.0</ele><time>2026-04-19T08:29:18Z</time></trkpt><trkpt lat="43.435430606822194" lon="10.517784546073086"><ele>73.8</ele><time>2026-04-19T08:29:19Z</time></trkpt><trkpt lat="43.43542580113766" lon="10.51792831532107"><ele>73.60000000000001</ele><time>2026-04-19T08:29:20Z</time></trkpt><trkpt lat="43.43543107318118" lon="10.51807783398012"><ele>73.4</ele><time>2026-04-19T08:29:21Z</time></trkpt><trkpt lat="43.43544052731751" lon="10.518226801456137"><ele>73.2</ele><time>2026-04-19T08:29:22Z</time></trkpt><trkpt lat="43.435440044326356" lon="10.51838110414375"><ele>73.0</ele><time>2026-04-19T08:29:23Z</time></trkpt><trkpt lat="43.43543279944705" lon="10.518546928258385"><ele>73.0</ele><time>2026-04-19T08:29:24Z</time></trkpt><trkpt lat="43.43542186240731" lon="10.518730597238333"><ele>73.0</ele><time>2026-04-19T08:29:25Z</time></trkpt><trkpt lat="43.43539796259859" lon="10.518921377824505"><ele>73.0</ele><time>2026-04-19T08:29:26Z</time></trkpt><trkpt lat="43.43536717672216" lon="10.519133632891732"><ele>73.0</ele><time>2026-04-19T08:29:27Z</time></trkpt><trkpt lat="43.43533974509268" lon="10.519313042808298"><ele>72.75</ele><time>2026-04-19T08:29:28Z</time></trkpt><trkpt lat="43.435311281376904" lon="10.519510428306049"><ele>72.5</ele><time>2026-04-19T08:29:29Z</time></trkpt><trkpt lat="43.43529050516984" lon="10.519707108163741"><ele>72.25</ele><time>2026-04-19T08:29:30Z</time></trkpt><trkpt lat="43.43527680029672" lon="10.519909009087986"><ele>72.0</ele><time>2026-04-19T08:29:31Z</time></trkpt><trkpt lat="43.43526966347122" lon="10.520112272382391"><ele>72.0</ele><time>2026-04-19T08:29:32Z</time></trkpt><trkpt lat="43.43526719453138" lon="10.52030782265997"><ele>72.0</ele><time>2026-04-19T08:29:33Z</time></trkpt><trkpt lat="43.43526305650381" lon="10.52050821552942"><ele>72.0</ele><time>2026-04-19T08:29:34Z</time></trkpt><trkpt lat="43.43526099466964" lon="10.52070422658154"><ele>72.0</ele><time>2026-04-19T08:29:35Z</time></trkpt><trkpt lat="43.435255354068275" lon="10.520904684076267"><ele>73.25</ele><time>2026-04-19T08:29:36Z</time></trkpt><trkpt lat="43.43525810921711" lon="10.521099825592644"><ele>74.5</ele><time>2026-04-19T08:29:37Z</time></trkpt><trkpt lat="43.435268827644336" lon="10.521283921503995"><ele>75.75</ele><time>2026-04-19T08:29:38Z</time></trkpt><trkpt lat="43.435292170999624" lon="10.521463955252171"><ele>77.0</ele><time>2026-04-19T08:29:39Z</time></trkpt><trkpt lat="43.43533019478193" lon="10.52163999043193"><ele>77.5</ele><time>2026-04-19T08:29:40Z</time></trkpt><trkpt lat="43.435386189257095" lon="10.521810796186049"><ele>78.0</ele><time>2026-04-19T08:29:41Z</time></trkpt><trkpt lat="43.435455514212265" lon="10.521977740025887"><ele>78.5</ele><time>2026-04-19T08:29:42Z</time></trkpt><trkpt lat="43.435545303450915" lon="10.522132585166522"><ele>79.0</ele><time>2026-04-19T08:29:43Z</time></trkpt><trkpt lat="43.43564316133267" lon="10.522276779486035"><ele>79.5</ele><time>2026-04-19T08:29:44Z</time></trkpt><trkpt lat="43.43574404618944" lon="10.522418846064891"><ele>80.0</ele><time>2026-04-19T08:29:45Z</time></trkpt><trkpt lat="43.4358452936996" lon="10.522548772460386"><ele>80.5</ele><time>2026-04-19T08:29:46Z</time></trkpt><trkpt lat="43.435950145834916" lon="10.522691193013836"><ele>81.0</ele><time>2026-04-19T08:29:47Z</time></trkpt><trkpt lat="43.43604379451958" lon="10.522850159124374"><ele>80.66666666666667</ele><time>2026-04-19T08:29:48Z</time></trkpt><trkpt lat="43.43612487089892" lon="10.52303516228809"><ele>80.33333333333334</ele><time>2026-04-19T08:29:49Z</time></trkpt><trkpt lat="43.43618038204012" lon="10.523218306203644"><ele>80.0</ele><time>2026-04-19T08:29:50Z</time></trkpt><trkpt lat="43.436234870723105" lon="10.523439762687204"><ele>80.0</ele><time>2026-04-19T08:29:51.001Z</time></trkpt><trkpt lat="43.43626877833244" lon="10.523653627153223"><ele>80.0</ele><time>2026-04-19T08:29:52.001Z</time></trkpt><trkpt lat="43.43628894060075" lon="10.523872292858009"><ele>80.0</ele><time>2026-04-19T08:29:53.001Z</time></trkpt><trkpt lat="43.4363031354793" lon="10.52408924609225"><ele>80.33333333333334</ele><time>2026-04-19T08:29:54.001Z</time></trkpt><trkpt lat="43.43629242090762" lon="10.524309047988359"><ele>80.66666666666667</ele><time>2026-04-19T08:29:55.001Z</time></trkpt><trkpt lat="43.436306027375345" lon="10.524527265555905"><ele>81.0</ele><time>2026-04-19T08:29:56.001Z</time></trkpt><trkpt lat="43.43631204602045" lon="10.524732340000305"><ele>83.0</ele><time>2026-04-19T08:29:57.001Z</time></trkpt><trkpt lat="43.4363287117096" lon="10.524935963499718"><ele>85.0</ele><time>2026-04-19T08:29:58.001Z</time></trkpt><trkpt lat="43.43635079666697" lon="10.525147484301222"><ele>87.0</ele><time>2026-04-19T08:29:59.001Z</time></trkpt><trkpt lat="43.436380210153835" lon="10.525363609206284"><ele>87.66666666666667</ele><time>2026-04-19T08:30:00.001Z</time></trkpt><trkpt lat="43.43641105073667" lon="10.525584812900508"><ele>88.33333333333334</ele><time>2026-04-19T08:30:01.001Z</time></trkpt><trkpt lat="43.43644091649758" lon="10.525809496819276"><ele>89.0</ele><time>2026-04-19T08:30:02.001Z</time></trkpt><trkpt lat="43.43646854324898" lon="10.526022856799374"><ele>89.0</ele><time>2026-04-19T08:30:03.001Z</time></trkpt><trkpt lat="43.43647589606945" lon="10.526213039176172"><ele>89.0</ele><time>2026-04-19T08:30:04.001Z</time></trkpt><trkpt lat="43.436496272296466" lon="10.526378127595116"><ele>89.0</ele><time>2026-04-19T08:30:05.001Z</time></trkpt><trkpt lat="43.43651700039944" lon="10.526546066984373"><ele>89.0</ele><time>2026-04-19T08:30:06.001Z</time></trkpt><trkpt lat="43.43653398397038" lon="10.52668366803503"><ele>89.16666666666667</ele><time>2026-04-19T08:30:07.001Z</time></trkpt><trkpt lat="43.43654550270965" lon="10.526775028988043"><ele>89.33333333333334</ele><time>2026-04-19T08:30:08.001Z</time></trkpt><trkpt lat="43.43655845391548" lon="10.526867790611082"><ele>89.5</ele><time>2026-04-19T08:30:12.001Z</time></trkpt><trkpt lat="43.4365792447926" lon="10.527001628117324"><ele>89.66666666666667</ele><time>2026-04-19T08:30:16.001Z</time></trkpt><trkpt lat="43.43662096181819" lon="10.527147795639795"><ele>89.83333333333333</ele><time>2026-04-19T08:30:18.001Z</time></trkpt><trkpt lat="43.43663767870585" lon="10.527236607184676"><ele>90.0</ele><time>2026-04-19T08:30:19.001Z</time></trkpt><trkpt lat="43.43666082783277" lon="10.52734598492137"><ele>90.33333333333333</ele><time>2026-04-19T08:30:20.001Z</time></trkpt><trkpt lat="43.43668222077751" lon="10.52745662633428"><ele>90.66666666666667</ele><time>2026-04-19T08:30:21.001Z</time></trkpt><trkpt lat="43.436699377100624" lon="10.527555057852856"><ele>91.0</ele><time>2026-04-19T08:30:22.001Z</time></trkpt><trkpt lat="43.43671810886283" lon="10.527643992563936"><ele>91.33333333333334</ele><time>2026-04-19T08:30:23.001Z</time></trkpt><trkpt lat="43.43673801288282" lon="10.527740054078164"><ele>91.66666666666667</ele><time>2026-04-19T08:30:24.001Z</time></trkpt><trkpt lat="43.43676187078511" lon="10.527824553538736"><ele>92.0</ele><time>2026-04-19T08:30:25.001Z</time></trkpt><trkpt lat="43.4368048330068" lon="10.527945795589599"><ele>92.5</ele><time>2026-04-19T08:30:27.001Z</time></trkpt><trkpt lat="43.43683497053853" lon="10.528049274425205"><ele>93.0</ele><time>2026-04-19T08:30:30.001Z</time></trkpt><trkpt lat="43.43685769439977" lon="10.528130507499737"><ele>93.5</ele><time>2026-04-19T08:30:33.001Z</time></trkpt><trkpt lat="43.43689418054842" lon="10.528243529159203"><ele>94.0</ele><time>2026-04-19T08:30:36.001Z</time></trkpt><trkpt lat="43.43693742690553" lon="10.528351672310038"><ele>94.5</ele><time>2026-04-19T08:30:38.001Z</time></trkpt><trkpt lat="43.436999407753454" lon="10.528477882571103"><ele>95.0</ele><time>2026-04-19T08:30:40Z</time></trkpt><trkpt lat="43.437041629690356" lon="10.528550675715916"><ele>95.0</ele><time>2026-04-19T08:30:41Z</time></trkpt><trkpt lat="43.43708926767979" lon="10.528623441360205"><ele>95.0</ele><time>2026-04-19T08:30:42Z</time></trkpt><trkpt lat="43.43714303488669" lon="10.528696751053575"><ele>95.0</ele><time>2026-04-19T08:30:43Z</time></trkpt><trkpt lat="43.43719628326784" lon="10.528769646096734"><ele>95.0</ele><time>2026-04-19T08:30:44Z</time></trkpt><trkpt lat="43.43725288451152" lon="10.528844558684057"><ele>95.0</ele><time>2026-04-19T08:30:45Z</time></trkpt><trkpt lat="43.437312344864296" lon="10.528920742386179"><ele>95.0</ele><time>2026-04-19T08:30:46Z</time></trkpt><trkpt lat="43.437374770405974" lon="10.528997907699825"><ele>96.0</ele><time>2026-04-19T08:30:47Z</time></trkpt><trkpt lat="43.43744231837122" lon="10.529077973991187"><ele>97.0</ele><time>2026-04-19T08:30:48Z</time></trkpt><trkpt lat="43.437513844204595" lon="10.529165236379741"><ele>98.0</ele><time>2026-04-19T08:30:49Z</time></trkpt><trkpt lat="43.43758034639712" lon="10.529247440868632"><ele>99.0</ele><time>2026-04-19T08:30:50Z</time></trkpt><trkpt lat="43.43764921344292" lon="10.529339207174337"><ele>100.0</ele><time>2026-04-19T08:30:51Z</time></trkpt><trkpt lat="43.43771788070185" lon="10.529434232210752"><ele>100.0</ele><time>2026-04-19T08:30:52Z</time></trkpt><trkpt lat="43.437785874456665" lon="10.52953378350653"><ele>100.0</ele><time>2026-04-19T08:30:53Z</time></trkpt><trkpt lat="43.43783979222222" lon="10.529657283673227"><ele>100.0</ele><time>2026-04-19T08:30:54Z</time></trkpt><trkpt lat="43.43790344927792" lon="10.529764239325404"><ele>100.0</ele><time>2026-04-19T08:30:55Z</time></trkpt><trkpt lat="43.43796411353429" lon="10.529872015706644"><ele>100.0</ele><time>2026-04-19T08:30:56Z</time></trkpt><trkpt lat="43.438025837137324" lon="10.529981156581593"><ele>100.6</ele><time>2026-04-19T08:30:57Z</time></trkpt><trkpt lat="43.43809188947748" lon="10.530095044304897"><ele>101.2</ele><time>2026-04-19T08:30:58Z</time></trkpt><trkpt lat="43.43816426757281" lon="10.530210244552787"><ele>101.80000000000001</ele><time>2026-04-19T08:30:59Z</time></trkpt><trkpt lat="43.43823959037029" lon="10.530322741706867"><ele>102.4</ele><time>2026-04-19T08:31:00Z</time></trkpt><trkpt lat="43.43830152289183" lon="10.530424574147725"><ele>103.0</ele><time>2026-04-19T08:31:01Z</time></trkpt><trkpt lat="43.43837779113972" lon="10.530533246487085"><ele>103.0</ele><time>2026-04-19T08:31:02Z</time></trkpt><trkpt lat="43.43843430245962" lon="10.530671258948226"><ele>103.0</ele><time>2026-04-19T08:31:03Z</time></trkpt><trkpt lat="43.438468218389914" lon="10.53083337519034"><ele>103.0</ele><time>2026-04-19T08:31:04Z</time></trkpt><trkpt lat="43.43850632484074" lon="10.53099774289133"><ele>103.0</ele><time>2026-04-19T08:31:05Z</time></trkpt><trkpt lat="43.4385348673238" lon="10.531156124663852"><ele>103.75</ele><time>2026-04-19T08:31:06Z</time></trkpt><trkpt lat="43.43856104908665" lon="10.531320914998044"><ele>104.5</ele><time>2026-04-19T08:31:07Z</time></trkpt><trkpt lat="43.43858695828763" lon="10.531486906186313"><ele>105.25</ele><time>2026-04-19T08:31:08Z</time></trkpt><trkpt lat="43.438619465089396" lon="10.53165624014441"><ele>106.0</ele><time>2026-04-19T08:31:09Z</time></trkpt><trkpt lat="43.4386681145325" lon="10.531819120219227"><ele>106.0</ele><time>2026-04-19T08:31:10Z</time></trkpt><trkpt lat="43.43870274261772" lon="10.531982640772634"><ele>106.0</ele><time>2026-04-19T08:31:11Z</time></trkpt><trkpt lat="43.438739968233754" lon="10.532156372864199"><ele>106.0</ele><time>2026-04-19T08:31:12Z</time></trkpt><trkpt lat="43.43878108713529" lon="10.532335212541525"><ele>106.0</ele><time>2026-04-19T08:31:13Z</time></trkpt><trkpt lat="43.43882623515812" lon="10.53250865393058"><ele>106.25</ele><time>2026-04-19T08:31:14.001Z</time></trkpt><trkpt lat="43.43887000001112" lon="10.532681088725168"><ele>106.5</ele><time>2026-04-19T08:31:15.001Z</time></trkpt><trkpt lat="43.43891033671252" lon="10.53286030214216"><ele>106.75</ele><time>2026-04-19T08:31:16.001Z</time></trkpt><trkpt lat="43.438943137262285" lon="10.533045375619253"><ele>107.0</ele><time>2026-04-19T08:31:17.001Z</time></trkpt><trkpt lat="43.438970408966554" lon="10.53323455528729"><ele>107.0</ele><time>2026-04-19T08:31:18.001Z</time></trkpt><trkpt lat="43.43899214123956" lon="10.533416503706041"><ele>107.0</ele><time>2026-04-19T08:31:19.001Z</time></trkpt><trkpt lat="43.439008498030034" lon="10.533598079505827"><ele>107.0</ele><time>2026-04-19T08:31:20.001Z</time></trkpt><trkpt lat="43.43902026567842" lon="10.53377365408483"><ele>107.0</ele><time>2026-04-19T08:31:21.001Z</time></trkpt><trkpt lat="43.43903100615852" lon="10.533944117557267"><ele>107.0</ele><time>2026-04-19T08:31:22.001Z</time></trkpt><trkpt lat="43.4390422024238" lon="10.534113935335006"><ele>107.0</ele><time>2026-04-19T08:31:23.001Z</time></trkpt><trkpt lat="43.43904611981076" lon="10.534290230886473"><ele>107.0</ele><time>2026-04-19T08:31:24.001Z</time></trkpt><trkpt lat="43.4390532458673" lon="10.534461208424272"><ele>107.0</ele><time>2026-04-19T08:31:25.001Z</time></trkpt><trkpt lat="43.43906026964966" lon="10.534627804257047"><ele>107.0</ele><time>2026-04-19T08:31:26.001Z</time></trkpt><trkpt lat="43.43906566195834" lon="10.53478497934569"><ele>106.99999999999999</ele><time>2026-04-19T08:31:27.001Z</time></trkpt><trkpt lat="43.439072097710316" lon="10.534936870774212"><ele>106.99999999999999</ele><time>2026-04-19T08:31:28.001Z</time></trkpt><trkpt lat="43.43908584744255" lon="10.535084013347479"><ele>107.0</ele><time>2026-04-19T08:31:29.001Z</time></trkpt><trkpt lat="43.439098601771754" lon="10.535233319367194"><ele>107.0</ele><time>2026-04-19T08:31:30.001Z</time></trkpt><trkpt lat="43.43910791648465" lon="10.53539290157485"><ele>107.25</ele><time>2026-04-19T08:31:31.001Z</time></trkpt><trkpt lat="43.439117737079165" lon="10.53556322552829"><ele>107.5</ele><time>2026-04-19T08:31:32.001Z</time></trkpt><trkpt lat="43.439129286514614" lon="10.535734073350985"><ele>107.75</ele><time>2026-04-19T08:31:33.001Z</time></trkpt><trkpt lat="43.43914692618936" lon="10.535892644453265"><ele>108.0</ele><time>2026-04-19T08:31:34.001Z</time></trkpt><trkpt lat="43.43917678841957" lon="10.536046919840516"><ele>108.0</ele><time>2026-04-19T08:31:35.001Z</time></trkpt><trkpt lat="43.43921547128924" lon="10.536201177668456"><ele>108.0</ele><time>2026-04-19T08:31:36.001Z</time></trkpt><trkpt lat="43.43925696017938" lon="10.536354587412394"><ele>108.0</ele><time>2026-04-19T08:31:37.001Z</time></trkpt><trkpt lat="43.43929320614833" lon="10.53650561747329"><ele>108.0</ele><time>2026-04-19T08:31:38.001Z</time></trkpt><trkpt lat="43.43932230609433" lon="10.536662965199035"><ele>108.0</ele><time>2026-04-19T08:31:39.001Z</time></trkpt><trkpt lat="43.43934234877241" lon="10.536829161824311"><ele>108.0</ele><time>2026-04-19T08:31:40.001Z</time></trkpt><trkpt lat="43.43936294631759" lon="10.536998066860303"><ele>108.0</ele><time>2026-04-19T08:31:41.001Z</time></trkpt><trkpt lat="43.43937864195878" lon="10.537143274497982"><ele>108.0</ele><time>2026-04-19T08:31:42.001Z</time></trkpt><trkpt lat="43.43937341637151" lon="10.53728902846368"><ele>108.4</ele><time>2026-04-19T08:31:43.001Z</time></trkpt><trkpt lat="43.43936864868879" lon="10.537425745806111"><ele>108.80000000000001</ele><time>2026-04-19T08:31:44.001Z</time></trkpt><trkpt lat="43.43935969591044" lon="10.537565964694817"><ele>109.2</ele><time>2026-04-19T08:31:45.001Z</time></trkpt><trkpt lat="43.43935377751907" lon="10.53769930817805"><ele>109.6</ele><time>2026-04-19T08:31:46.001Z</time></trkpt><trkpt lat="43.4393481361564" lon="10.53783743471802"><ele>110.0</ele><time>2026-04-19T08:31:47.001Z</time></trkpt><trkpt lat="43.439357803409465" lon="10.53796544275822"><ele>110.2</ele><time>2026-04-19T08:31:48.001Z</time></trkpt><trkpt lat="43.439386101863334" lon="10.538088172114355"><ele>110.4</ele><time>2026-04-19T08:31:49.001Z</time></trkpt><trkpt lat="43.4394248096481" lon="10.538217617449016"><ele>110.6</ele><time>2026-04-19T08:31:50.001Z</time></trkpt><trkpt lat="43.43946669105045" lon="10.53833641563137"><ele>110.8</ele><time>2026-04-19T08:31:51.001Z</time></trkpt><trkpt lat="43.43950038235958" lon="10.538451174280283"><ele>111.0</ele><time>2026-04-19T08:31:52.001Z</time></trkpt><trkpt lat="43.4395385935748" lon="10.538572069091833"><ele>111.0</ele><time>2026-04-19T08:31:53.001Z</time></trkpt><trkpt lat="43.43957097285455" lon="10.538673276790892"><ele>111.0</ele><time>2026-04-19T08:31:54.001Z</time></trkpt><trkpt lat="43.439616480085256" lon="10.538825501776728"><ele>111.0</ele><time>2026-04-19T08:31:56.001Z</time></trkpt><trkpt lat="43.43963895367415" lon="10.53896354690105"><ele>111.0</ele><time>2026-04-19T08:31:58.001Z</time></trkpt><trkpt lat="43.43966266646832" lon="10.539051502593193"><ele>111.0</ele><time>2026-04-19T08:32:00.001Z</time></trkpt><trkpt lat="43.439690524078905" lon="10.539168151336373"><ele>110.19999999999999</ele><time>2026-04-19T08:32:17.002Z</time></trkpt><trkpt lat="43.439715434665644" lon="10.53928350088633"><ele>109.39999999999999</ele><time>2026-04-19T08:32:19.002Z</time></trkpt><trkpt lat="43.439757924871444" lon="10.53942910179139"><ele>108.6</ele><time>2026-04-19T08:32:21.002Z</time></trkpt><trkpt lat="43.43978648444354" lon="10.539601827542493"><ele>107.8</ele><time>2026-04-19T08:32:23.002Z</time></trkpt><trkpt lat="43.43980237732766" lon="10.53969052829301"><ele>107.0</ele><time>2026-04-19T08:32:24.002Z</time></trkpt><trkpt lat="43.43981799712305" lon="10.5397803254896"><ele>107.0</ele><time>2026-04-19T08:32:25.002Z</time></trkpt><trkpt lat="43.439831623106" lon="10.539867553314192"><ele>106.99999999999999</ele><time>2026-04-19T08:32:26.002Z</time></trkpt><trkpt lat="43.439843078376754" lon="10.540033022854663"><ele>106.99999999999999</ele><time>2026-04-19T08:32:28.002Z</time></trkpt><trkpt lat="43.439878419160216" lon="10.54017353538312"><ele>107.0</ele><time>2026-04-19T08:32:30.002Z</time></trkpt><trkpt lat="43.439901489391175" lon="10.540307615384695"><ele>107.0</ele><time>2026-04-19T08:32:32.002Z</time></trkpt><trkpt lat="43.43990581475897" lon="10.54043955843548"><ele>107.16666666666666</ele><time>2026-04-19T08:32:34.002Z</time></trkpt><trkpt lat="43.43993004593976" lon="10.540588628583052"><ele>107.33333333333333</ele><time>2026-04-19T08:32:36.002Z</time></trkpt><trkpt lat="43.43994763737189" lon="10.54075531991179"><ele>107.5</ele><time>2026-04-19T08:32:38.002Z</time></trkpt><trkpt lat="43.43996802382412" lon="10.540846648531344"><ele>107.66666666666666</ele><time>2026-04-19T08:32:39.002Z</time></trkpt><trkpt lat="43.43998290792598" lon="10.540935156617557"><ele>107.83333333333333</ele><time>2026-04-19T08:32:40.002Z</time></trkpt><trkpt lat="43.439997341250255" lon="10.54102316876856"><ele>108.0</ele><time>2026-04-19T08:32:41.002Z</time></trkpt><trkpt lat="43.44001449421738" lon="10.541113763535432"><ele>108.0</ele><time>2026-04-19T08:32:42.002Z</time></trkpt><trkpt lat="43.44002962792893" lon="10.541207041388999"><ele>108.0</ele><time>2026-04-19T08:32:43.002Z</time></trkpt><trkpt lat="43.440042269058516" lon="10.541293719415329"><ele>108.0</ele><time>2026-04-19T08:32:44.002Z</time></trkpt><trkpt lat="43.440049298137936" lon="10.54145985556545"><ele>108.0</ele><time>2026-04-19T08:32:46.001Z</time></trkpt><trkpt lat="43.440032122656255" lon="10.541629860449534"><ele>108.0</ele><time>2026-04-19T08:32:48.001Z</time></trkpt><trkpt lat="43.440012361906376" lon="10.541713136577378"><ele>108.0</ele><time>2026-04-19T08:32:49.001Z</time></trkpt><trkpt lat="43.43995456455958" lon="10.541852235827886"><ele>108.4</ele><time>2026-04-19T08:32:51.001Z</time></trkpt><trkpt lat="43.43988304267783" lon="10.541948985871175"><ele>108.80000000000001</ele><time>2026-04-19T08:32:53.001Z</time></trkpt><trkpt lat="43.43979292863573" lon="10.542032302885485"><ele>109.2</ele><time>2026-04-19T08:32:55.001Z</time></trkpt><trkpt lat="43.43969073093291" lon="10.542118882324724"><ele>109.6</ele><time>2026-04-19T08:32:57.001Z</time></trkpt><trkpt lat="43.439604344822094" lon="10.542206364902361"><ele>110.0</ele><time>2026-04-19T08:32:59.001Z</time></trkpt><trkpt lat="43.43953221167153" lon="10.542335648698128"><ele>110.16666666666666</ele><time>2026-04-19T08:33:01.001Z</time></trkpt><trkpt lat="43.43951128895136" lon="10.542420587920958"><ele>110.33333333333333</ele><time>2026-04-19T08:33:02.001Z</time></trkpt><trkpt lat="43.4395006375827" lon="10.542575106536908"><ele>110.5</ele><time>2026-04-19T08:33:04.001Z</time></trkpt><trkpt lat="43.43955853735427" lon="10.542702471333719"><ele>110.66666666666666</ele><time>2026-04-19T08:33:06.001Z</time></trkpt><trkpt lat="43.439602214392664" lon="10.542777955458783"><ele>110.83333333333333</ele><time>2026-04-19T08:33:07.001Z</time></trkpt><trkpt lat="43.43964378424385" lon="10.542856494234679"><ele>111.0</ele><time>2026-04-19T08:33:08.001Z</time></trkpt><trkpt lat="43.43968993160627" lon="10.542932539826976"><ele>111.0</ele><time>2026-04-19T08:33:09.001Z</time></trkpt><trkpt lat="43.43973118696788" lon="10.543005690901229"><ele>111.0</ele><time>2026-04-19T08:33:10.001Z</time></trkpt><trkpt lat="43.43980658938003" lon="10.543135094129704"><ele>111.0</ele><time>2026-04-19T08:33:12.001Z</time></trkpt><trkpt lat="43.43984632875799" lon="10.543204832467453"><ele>111.0</ele><time>2026-04-19T08:33:13.001Z</time></trkpt><trkpt lat="43.43988851020106" lon="10.543277859279312"><ele>111.0</ele><time>2026-04-19T08:33:14.001Z</time></trkpt><trkpt lat="43.43992879769561" lon="10.543347732621836"><ele>111.0</ele><time>2026-04-19T08:33:15.001Z</time></trkpt><trkpt lat="43.440005802032566" lon="10.543479666405233"><ele>111.0</ele><time>2026-04-19T08:33:17.001Z</time></trkpt><trkpt lat="43.44007378509564" lon="10.543599851508352"><ele>111.0</ele><time>2026-04-19T08:33:19.001Z</time></trkpt><trkpt lat="43.440143249904764" lon="10.543728444031778"><ele>111.0</ele><time>2026-04-19T08:33:21.001Z</time></trkpt><trkpt lat="43.44021222229954" lon="10.54386682291257"><ele>111.0</ele><time>2026-04-19T08:33:23.001Z</time></trkpt><trkpt lat="43.4402427431719" lon="10.543944634196466"><ele>111.0</ele><time>2026-04-19T08:33:24.001Z</time></trkpt><trkpt lat="43.44026517482188" lon="10.544031078845457"><ele>111.57142857142857</ele><time>2026-04-19T08:33:25.001Z</time></trkpt><trkpt lat="43.440277387380334" lon="10.54412381828179"><ele>112.14285714285714</ele><time>2026-04-19T08:33:26.001Z</time></trkpt><trkpt lat="43.44027770567201" lon="10.544215137939549"><ele>112.71428571428571</ele><time>2026-04-19T08:33:27.001Z</time></trkpt><trkpt lat="43.44026799750074" lon="10.544306913647636"><ele>113.28571428571428</ele><time>2026-04-19T08:33:28.001Z</time></trkpt><trkpt lat="43.44024735623172" lon="10.544397999527444"><ele>113.85714285714286</ele><time>2026-04-19T08:33:29.001Z</time></trkpt><trkpt lat="43.44021891806946" lon="10.54448518977676"><ele>114.42857142857142</ele><time>2026-04-19T08:33:30.001Z</time></trkpt><trkpt lat="43.44017992356858" lon="10.544568909381704"><ele>114.99999999999999</ele><time>2026-04-19T08:33:31.001Z</time></trkpt><trkpt lat="43.44012877432213" lon="10.54464667198524"><ele>115.50000000000001</ele><time>2026-04-19T08:33:32.001Z</time></trkpt><trkpt lat="43.44006209547943" lon="10.54470175292792"><ele>116.0</ele><time>2026-04-19T08:33:33.001Z</time></trkpt><trkpt lat="43.439996140697794" lon="10.54476896045266"><ele>116.5</ele><time>2026-04-19T08:33:34.001Z</time></trkpt><trkpt lat="43.439925434530224" lon="10.544835566970782"><ele>117.0</ele><time>2026-04-19T08:33:35.001Z</time></trkpt><trkpt lat="43.43985776620919" lon="10.544914859411348"><ele>117.50000000000001</ele><time>2026-04-19T08:33:36.001Z</time></trkpt><trkpt lat="43.43978272699993" lon="10.544985514901839"><ele>118.0</ele><time>2026-04-19T08:33:37.001Z</time></trkpt><trkpt lat="43.43970645917208" lon="10.545054346525676"><ele>118.16666666666667</ele><time>2026-04-19T08:33:38.001Z</time></trkpt><trkpt lat="43.43962001259576" lon="10.545099937563974"><ele>118.33333333333334</ele><time>2026-04-19T08:33:39.001Z</time></trkpt><trkpt lat="43.43954810510356" lon="10.545159898014465"><ele>118.5</ele><time>2026-04-19T08:33:40.001Z</time></trkpt><trkpt lat="43.4394778951482" lon="10.545218443002955"><ele>118.66666666666666</ele><time>2026-04-19T08:33:41.001Z</time></trkpt><trkpt lat="43.43940380572412" lon="10.54528022304055"><ele>118.83333333333333</ele><time>2026-04-19T08:33:42.001Z</time></trkpt><trkpt lat="43.439331547182576" lon="10.54533991456073"><ele>119.0</ele><time>2026-04-19T08:33:43.001Z</time></trkpt><trkpt lat="43.43926361768008" lon="10.545395342042763"><ele>119.16666666666666</ele><time>2026-04-19T08:33:44.001Z</time></trkpt><trkpt lat="43.43920247412886" lon="10.545440380147443"><ele>119.33333333333333</ele><time>2026-04-19T08:33:45.001Z</time></trkpt><trkpt lat="43.439131498250134" lon="10.545477151355538"><ele>119.5</ele><time>2026-04-19T08:33:46.001Z</time></trkpt><trkpt lat="43.439055972504555" lon="10.545526713400406"><ele>119.66666666666666</ele><time>2026-04-19T08:33:47.001Z</time></trkpt><trkpt lat="43.43897306075975" lon="10.545539987097836"><ele>119.83333333333333</ele><time>2026-04-19T08:33:48.001Z</time></trkpt><trkpt lat="43.43888473796078" lon="10.545548776254474"><ele>120.0</ele><time>2026-04-19T08:33:49.001Z</time></trkpt><trkpt lat="43.438793618192676" lon="10.54555890184619"><ele>119.66666666666667</ele><time>2026-04-19T08:33:50.001Z</time></trkpt><trkpt lat="43.43870672345987" lon="10.545568858601742"><ele>119.33333333333334</ele><time>2026-04-19T08:33:51.001Z</time></trkpt><trkpt lat="43.43861645919745" lon="10.54558053585442"><ele>119.0</ele><time>2026-04-19T08:33:52.001Z</time></trkpt><trkpt lat="43.43852647012991" lon="10.545596320181248"><ele>118.66666666666667</ele><time>2026-04-19T08:33:53.001Z</time></trkpt><trkpt lat="43.43843890528956" lon="10.545617691848948"><ele>118.33333333333334</ele><time>2026-04-19T08:33:54.001Z</time></trkpt><trkpt lat="43.43835244970763" lon="10.545645485214747"><ele>118.0</ele><time>2026-04-19T08:33:55.001Z</time></trkpt><trkpt lat="43.43826907079431" lon="10.545671959225366"><ele>118.00000000000001</ele><time>2026-04-19T08:33:56.001Z</time></trkpt><trkpt lat="43.43819087455667" lon="10.545699465065532"><ele>118.0</ele><time>2026-04-19T08:33:57.001Z</time></trkpt><trkpt lat="43.438122668863684" lon="10.545722222152756"><ele>118.0</ele><time>2026-04-19T08:33:58.002Z</time></trkpt><trkpt lat="43.43801474262302" lon="10.545768246020707"><ele>118.0</ele><time>2026-04-19T08:34:00.002Z</time></trkpt><trkpt lat="43.43790557914095" lon="10.54579854241434"><ele>118.00000000000001</ele><time>2026-04-19T08:34:02.002Z</time></trkpt><trkpt lat="43.437834899207225" lon="10.54582884696815"><ele>118.0</ele><time>2026-04-19T08:34:04.002Z</time></trkpt><trkpt lat="43.43774745565391" lon="10.545876993985969"><ele>117.5</ele><time>2026-04-19T08:34:06.002Z</time></trkpt><trkpt lat="43.43762760361423" lon="10.545928211171708"><ele>117.0</ele><time>2026-04-19T08:34:08.002Z</time></trkpt><trkpt lat="43.437510225594856" lon="10.54597705611275"><ele>116.5</ele><time>2026-04-19T08:34:10.002Z</time></trkpt><trkpt lat="43.43742510509466" lon="10.546089281715094"><ele>116.0</ele><time>2026-04-19T08:34:12.002Z</time></trkpt><trkpt lat="43.43740478416376" lon="10.546243209963528"><ele>116.66666666666666</ele><time>2026-04-19T08:34:14.002Z</time></trkpt><trkpt lat="43.437450201712686" lon="10.546399977469555"><ele>117.33333333333333</ele><time>2026-04-19T08:34:16.002Z</time></trkpt><trkpt lat="43.43748172734286" lon="10.54648084912214"><ele>118.0</ele><time>2026-04-19T08:34:17.002Z</time></trkpt><trkpt lat="43.43751534271125" lon="10.546566098991448"><ele>118.66666666666666</ele><time>2026-04-19T08:34:18.002Z</time></trkpt><trkpt lat="43.43755017334302" lon="10.546655662261559"><ele>119.33333333333333</ele><time>2026-04-19T08:34:19.002Z</time></trkpt><trkpt lat="43.43759022308461" lon="10.546752821642663"><ele>120.0</ele><time>2026-04-19T08:34:20.002Z</time></trkpt><trkpt lat="43.43763230397515" lon="10.546849863564535"><ele>120.0</ele><time>2026-04-19T08:34:21.002Z</time></trkpt><trkpt lat="43.437673516708756" lon="10.546943930180861"><ele>120.0</ele><time>2026-04-19T08:34:22.002Z</time></trkpt><trkpt lat="43.43771829018872" lon="10.547048458641807"><ele>120.0</ele><time>2026-04-19T08:34:23.002Z</time></trkpt><trkpt lat="43.43776339012693" lon="10.547155958555875"><ele>120.0</ele><time>2026-04-19T08:34:24.002Z</time></trkpt><trkpt lat="43.437811656809735" lon="10.547270626053173"><ele>120.0</ele><time>2026-04-19T08:34:25.002Z</time></trkpt><trkpt lat="43.43786912252604" lon="10.547382060526402"><ele>120.6</ele><time>2026-04-19T08:34:26.002Z</time></trkpt><trkpt lat="43.4379218170114" lon="10.547502986557394"><ele>121.2</ele><time>2026-04-19T08:34:27.002Z</time></trkpt><trkpt lat="43.437973785538496" lon="10.54763123958981"><ele>121.80000000000001</ele><time>2026-04-19T08:34:28.002Z</time></trkpt><trkpt lat="43.43802569139478" lon="10.547763783229273"><ele>122.4</ele><time>2026-04-19T08:34:29.002Z</time></trkpt><trkpt lat="43.438077985348954" lon="10.547898654713045"><ele>123.0</ele><time>2026-04-19T08:34:30.002Z</time></trkpt><trkpt lat="43.43812873603317" lon="10.548015520154566"><ele>123.4</ele><time>2026-04-19T08:34:31.002Z</time></trkpt><trkpt lat="43.438180402408896" lon="10.548136779523926"><ele>123.80000000000001</ele><time>2026-04-19T08:34:32.002Z</time></trkpt><trkpt lat="43.43822670332525" lon="10.548254771529383"><ele>124.2</ele><time>2026-04-19T08:34:33.002Z</time></trkpt><trkpt lat="43.43827495304533" lon="10.548373204722713"><ele>124.6</ele><time>2026-04-19T08:34:34.002Z</time></trkpt><trkpt lat="43.438319897918966" lon="10.548478836577308"><ele>125.0</ele><time>2026-04-19T08:34:35.002Z</time></trkpt><trkpt lat="43.43835537987386" lon="10.548584362526903"><ele>125.0</ele><time>2026-04-19T08:34:36.002Z</time></trkpt><trkpt lat="43.43839480336193" lon="10.548693076155223"><ele>125.0</ele><time>2026-04-19T08:34:37.002Z</time></trkpt><trkpt lat="43.4384442982048" lon="10.548801313725098"><ele>125.0</ele><time>2026-04-19T08:34:38.002Z</time></trkpt><trkpt lat="43.43849311416875" lon="10.548917228515524"><ele>125.0</ele><time>2026-04-19T08:34:39.002Z</time></trkpt><trkpt lat="43.43854292488535" lon="10.549031767499832"><ele>125.0</ele><time>2026-04-19T08:34:40.002Z</time></trkpt><trkpt lat="43.4385910609342" lon="10.549143080982908"><ele>125.66666666666666</ele><time>2026-04-19T08:34:41.002Z</time></trkpt><trkpt lat="43.43863715136389" lon="10.549245414437"><ele>126.33333333333333</ele><time>2026-04-19T08:34:42.002Z</time></trkpt><trkpt lat="43.43868516572484" lon="10.549350138451663"><ele>127.0</ele><time>2026-04-19T08:34:43.002Z</time></trkpt><trkpt lat="43.43872998431004" lon="10.5494565938288"><ele>127.66666666666666</ele><time>2026-04-19T08:34:44.002Z</time></trkpt><trkpt lat="43.43877325353446" lon="10.54956401629116"><ele>128.33333333333334</ele><time>2026-04-19T08:34:45.002Z</time></trkpt><trkpt lat="43.43881333565535" lon="10.549673280859698"><ele>129.0</ele><time>2026-04-19T08:34:46.002Z</time></trkpt><trkpt lat="43.43885663518604" lon="10.54978314836434"><ele>129.66666666666666</ele><time>2026-04-19T08:34:47.002Z</time></trkpt><trkpt lat="43.438897267425446" lon="10.54989410419549"><ele>130.33333333333334</ele><time>2026-04-19T08:34:48.002Z</time></trkpt><trkpt lat="43.438940987437874" lon="10.550004007627356"><ele>131.0</ele><time>2026-04-19T08:34:49.002Z</time></trkpt><trkpt lat="43.43898651709081" lon="10.550109069093372"><ele>131.66666666666669</ele><time>2026-04-19T08:34:50.002Z</time></trkpt><trkpt lat="43.439030889322964" lon="10.550208062703042"><ele>132.33333333333334</ele><time>2026-04-19T08:34:51.002Z</time></trkpt><trkpt lat="43.43907407575977" lon="10.550303516814868"><ele>133.0</ele><time>2026-04-19T08:34:52.001Z</time></trkpt><trkpt lat="43.43910976212798" lon="10.550383052070071"><ele>133.66666666666669</ele><time>2026-04-19T08:34:53.001Z</time></trkpt><trkpt lat="43.43915966626482" lon="10.55051062237085"><ele>134.33333333333334</ele><time>2026-04-19T08:34:55.001Z</time></trkpt><trkpt lat="43.43920713728762" lon="10.550656245931942"><ele>135.0</ele><time>2026-04-19T08:34:57.001Z</time></trkpt><trkpt lat="43.439240137382036" lon="10.550734109983624"><ele>135.66666666666666</ele><time>2026-04-19T08:34:58.001Z</time></trkpt><trkpt lat="43.43927595292534" lon="10.55081383711092"><ele>136.33333333333331</ele><time>2026-04-19T08:34:59.001Z</time></trkpt><trkpt lat="43.43931178403623" lon="10.550898177150529"><ele>137.0</ele><time>2026-04-19T08:35:00.001Z</time></trkpt><trkpt lat="43.43934374316226" lon="10.55098812214206"><ele>137.0</ele><time>2026-04-19T08:35:01.001Z</time></trkpt><trkpt lat="43.43936985289909" lon="10.551084936629138"><ele>137.0</ele><time>2026-04-19T08:35:02.001Z</time></trkpt><trkpt lat="43.43939174813293" lon="10.55118244625499"><ele>137.0</ele><time>2026-04-19T08:35:03.001Z</time></trkpt><trkpt lat="43.43941123003663" lon="10.551277211105868"><ele>137.0</ele><time>2026-04-19T08:35:04.001Z</time></trkpt><trkpt lat="43.43943329909335" lon="10.551373326032069"><ele>137.0</ele><time>2026-04-19T08:35:05.001Z</time></trkpt><trkpt lat="43.43945893559791" lon="10.551474128511074"><ele>137.0</ele><time>2026-04-19T08:35:06.001Z</time></trkpt><trkpt lat="43.439496391404624" lon="10.551574018385542"><ele>137.16666666666666</ele><time>2026-04-19T08:35:07.001Z</time></trkpt><trkpt lat="43.43954341105839" lon="10.551674408575371"><ele>137.33333333333331</ele><time>2026-04-19T08:35:08.001Z</time></trkpt><trkpt lat="43.43959840234933" lon="10.551771987906184"><ele>137.5</ele><time>2026-04-19T08:35:09.001Z</time></trkpt><trkpt lat="43.43965354938376" lon="10.551860055784875"><ele>137.66666666666666</ele><time>2026-04-19T08:35:10.001Z</time></trkpt><trkpt lat="43.43970651961011" lon="10.551946582648482"><ele>137.83333333333334</ele><time>2026-04-19T08:35:11.001Z</time></trkpt><trkpt lat="43.439756245201664" lon="10.552040542460283"><ele>138.0</ele><time>2026-04-19T08:35:12.001Z</time></trkpt><trkpt lat="43.439797447623356" lon="10.55213170800598"><ele>138.85714285714286</ele><time>2026-04-19T08:35:13.001Z</time></trkpt><trkpt lat="43.439827730085725" lon="10.552217404986955"><ele>139.71428571428572</ele><time>2026-04-19T08:35:14.001Z</time></trkpt><trkpt lat="43.43985471512918" lon="10.552301452722046"><ele>140.57142857142858</ele><time>2026-04-19T08:35:15.001Z</time></trkpt><trkpt lat="43.43988045979786" lon="10.552387919856956"><ele>141.42857142857144</ele><time>2026-04-19T08:35:16.001Z</time></trkpt><trkpt lat="43.43990794391945" lon="10.552479194864363"><ele>142.28571428571428</ele><time>2026-04-19T08:35:17.001Z</time></trkpt><trkpt lat="43.43993982025517" lon="10.552574972744331"><ele>143.14285714285717</ele><time>2026-04-19T08:35:18.001Z</time></trkpt><trkpt lat="43.439974029627905" lon="10.552675280776555"><ele>144.0</ele><time>2026-04-19T08:35:19.001Z</time></trkpt><trkpt lat="43.4400062903299" lon="10.55277677507553"><ele>144.33333333333334</ele><time>2026-04-19T08:35:20.001Z</time></trkpt><trkpt lat="43.440038966767574" lon="10.552881953184162"><ele>144.66666666666666</ele><time>2026-04-19T08:35:21.001Z</time></trkpt><trkpt lat="43.440074875530755" lon="10.552986586909988"><ele>145.0</ele><time>2026-04-19T08:35:22.001Z</time></trkpt><trkpt lat="43.44010345470215" lon="10.553097359891089"><ele>145.33333333333331</ele><time>2026-04-19T08:35:23.001Z</time></trkpt><trkpt lat="43.440134817133256" lon="10.553205398996743"><ele>145.66666666666666</ele><time>2026-04-19T08:35:24.001Z</time></trkpt><trkpt lat="43.440165444701854" lon="10.55331715792832"><ele>146.0</ele><time>2026-04-19T08:35:25.001Z</time></trkpt><trkpt lat="43.44019756993256" lon="10.553430832445072"><ele>146.0</ele><time>2026-04-19T08:35:26.001Z</time></trkpt><trkpt lat="43.44023179527142" lon="10.553542591917077"><ele>146.0</ele><time>2026-04-19T08:35:27.001Z</time></trkpt><trkpt lat="43.440268089439805" lon="10.553657181262338"><ele>146.0</ele><time>2026-04-19T08:35:28.001Z</time></trkpt><trkpt lat="43.440307008670814" lon="10.553778621818697"><ele>146.0</ele><time>2026-04-19T08:35:29.001Z</time></trkpt><trkpt lat="43.44034798418775" lon="10.553907110337407"><ele>146.0</ele><time>2026-04-19T08:35:30.001Z</time></trkpt><trkpt lat="43.44039318944288" lon="10.554036294023915"><ele>146.2</ele><time>2026-04-19T08:35:31.001Z</time></trkpt><trkpt lat="43.44043619205674" lon="10.554169713388953"><ele>146.39999999999998</ele><time>2026-04-19T08:35:32.001Z</time></trkpt><trkpt lat="43.440483261170286" lon="10.554300860389668"><ele>146.6</ele><time>2026-04-19T08:35:33.001Z</time></trkpt><trkpt lat="43.44052354776131" lon="10.554422122183864"><ele>146.79999999999998</ele><time>2026-04-19T08:35:34.001Z</time></trkpt><trkpt lat="43.440557041668924" lon="10.554522317237003"><ele>147.0</ele><time>2026-04-19T08:35:35.001Z</time></trkpt><trkpt lat="43.440584206616656" lon="10.554606989304583"><ele>148.0</ele><time>2026-04-19T08:35:36.001Z</time></trkpt><trkpt lat="43.440617798810905" lon="10.554728121443558"><ele>149.0</ele><time>2026-04-19T08:35:38.001Z</time></trkpt><trkpt lat="43.44065103804744" lon="10.554833884717063"><ele>150.0</ele><time>2026-04-19T08:35:41.001Z</time></trkpt><trkpt lat="43.44068351700216" lon="10.554937826512802"><ele>151.0</ele><time>2026-04-19T08:35:43.001Z</time></trkpt><trkpt lat="43.44072197370505" lon="10.555052573519344"><ele>152.0</ele><time>2026-04-19T08:35:45.001Z</time></trkpt><trkpt lat="43.440778961317385" lon="10.555218478366164"><ele>152.0</ele><time>2026-04-19T08:35:47.001Z</time></trkpt><trkpt lat="43.44080624228668" lon="10.5553020509844"><ele>152.0</ele><time>2026-04-19T08:35:48.001Z</time></trkpt><trkpt lat="43.44083563023786" lon="10.5553914040213"><ele>152.0</ele><time>2026-04-19T08:35:49.001Z</time></trkpt><trkpt lat="43.44086800767333" lon="10.555487098251874"><ele>152.0</ele><time>2026-04-19T08:35:50.001Z</time></trkpt><trkpt lat="43.44090132288648" lon="10.555589720197402"><ele>152.0</ele><time>2026-04-19T08:35:51.001Z</time></trkpt><trkpt lat="43.44093604387224" lon="10.555697247622962"><ele>152.0</ele><time>2026-04-19T08:35:52.001Z</time></trkpt><trkpt lat="43.440969490933455" lon="10.55580884664356"><ele>152.33333333333331</ele><time>2026-04-19T08:35:53.001Z</time></trkpt><trkpt lat="43.44100535535088" lon="10.555924543318207"><ele>152.66666666666666</ele><time>2026-04-19T08:35:54.001Z</time></trkpt><trkpt lat="43.441040389901055" lon="10.556038594075991"><ele>153.0</ele><time>2026-04-19T08:35:55.001Z</time></trkpt><trkpt lat="43.44107239287244" lon="10.556141459604655"><ele>153.33333333333334</ele><time>2026-04-19T08:35:56.001Z</time></trkpt><trkpt lat="43.441100718358555" lon="10.556234917704993"><ele>153.66666666666669</ele><time>2026-04-19T08:35:57.001Z</time></trkpt><trkpt lat="43.44112485236495" lon="10.556318376623897"><ele>154.0</ele><time>2026-04-19T08:35:58.001Z</time></trkpt><trkpt lat="43.441163817648366" lon="10.556462556685497"><ele>154.0</ele><time>2026-04-19T08:36:00.001Z</time></trkpt><trkpt lat="43.44119173299179" lon="10.55655796774744"><ele>154.0</ele><time>2026-04-19T08:36:02.002Z</time></trkpt><trkpt lat="43.44121842066367" lon="10.556640318144503"><ele>154.0</ele><time>2026-04-19T08:36:08.002Z</time></trkpt><trkpt lat="43.44124771387446" lon="10.556731825420213"><ele>154.0</ele><time>2026-04-19T08:36:10.002Z</time></trkpt><trkpt lat="43.441287180854694" lon="10.556861229475553"><ele>154.0</ele><time>2026-04-19T08:36:12.002Z</time></trkpt><trkpt lat="43.441309847452025" lon="10.556943227315863"><ele>154.0</ele><time>2026-04-19T08:36:13.002Z</time></trkpt><trkpt lat="43.44133543493545" lon="10.557038168860306"><ele>154.66666666666669</ele><time>2026-04-19T08:36:14.002Z</time></trkpt><trkpt lat="43.44135663081714" lon="10.55714617557517"><ele>155.33333333333334</ele><time>2026-04-19T08:36:15.002Z</time></trkpt><trkpt lat="43.441373143849844" lon="10.55726265797568"><ele>156.0</ele><time>2026-04-19T08:36:16.002Z</time></trkpt><trkpt lat="43.441390800976805" lon="10.5573862548595"><ele>156.66666666666666</ele><time>2026-04-19T08:36:17.002Z</time></trkpt><trkpt lat="43.441407366278234" lon="10.557504894886153"><ele>157.33333333333331</ele><time>2026-04-19T08:36:18.002Z</time></trkpt><trkpt lat="43.441424688738635" lon="10.557624402394307"><ele>158.0</ele><time>2026-04-19T08:36:19.002Z</time></trkpt><trkpt lat="43.44144102479331" lon="10.557749857862644"><ele>158.33333333333331</ele><time>2026-04-19T08:36:20.002Z</time></trkpt><trkpt lat="43.441456401258804" lon="10.557873097235689"><ele>158.66666666666666</ele><time>2026-04-19T08:36:21.002Z</time></trkpt><trkpt lat="43.44147241743146" lon="10.557984953852305"><ele>159.0</ele><time>2026-04-19T08:36:22.002Z</time></trkpt><trkpt lat="43.44148982083438" lon="10.558089670729744"><ele>159.33333333333334</ele><time>2026-04-19T08:36:23.002Z</time></trkpt><trkpt lat="43.44150484500919" lon="10.558185126671273"><ele>159.66666666666669</ele><time>2026-04-19T08:36:24.002Z</time></trkpt><trkpt lat="43.44151800123476" lon="10.558275060987473"><ele>160.0</ele><time>2026-04-19T08:36:25.002Z</time></trkpt><trkpt lat="43.44153781421576" lon="10.558433306652764"><ele>160.0</ele><time>2026-04-19T08:36:27.002Z</time></trkpt><trkpt lat="43.44155151846198" lon="10.55855588179972"><ele>160.0</ele><time>2026-04-19T08:36:29.002Z</time></trkpt><trkpt lat="43.44156062252501" lon="10.558650942497252"><ele>160.0</ele><time>2026-04-19T08:36:32.002Z</time></trkpt><trkpt lat="43.44158497052743" lon="10.55856280176095"><ele>160.0</ele><time>2026-04-19T08:58:42Z</time></trkpt><trkpt lat="43.44156617241625" lon="10.5584721525461"><ele>160.0</ele><time>2026-04-19T08:58:49Z</time></trkpt><trkpt lat="43.44156346189126" lon="10.558572275972345"><ele>160.0</ele><time>2026-04-19T09:10:45Z</time></trkpt><trkpt lat="43.44157251311775" lon="10.558665641875875"><ele>160.0</ele><time>2026-04-19T09:10:54Z</time></trkpt><trkpt lat="43.44156415399503" lon="10.558572463246673"><ele>160.0</ele><time>2026-04-19T09:12:09Z</time></trkpt><trkpt lat="43.441554908759294" lon="10.558476957150416"><ele>160.0</ele><time>2026-04-19T09:12:15Z</time></trkpt><trkpt lat="43.44157185330975" lon="10.558573841257894"><ele>160.0</ele><time>2026-04-19T09:12:29Z</time></trkpt><trkpt lat="43.441570737721904" lon="10.558663432380058"><ele>160.0</ele><time>2026-04-19T09:12:35Z</time></trkpt><trkpt lat="43.44156332407633" lon="10.55856734078076"><ele>160.0</ele><time>2026-04-19T09:15:43Z</time></trkpt><trkpt lat="43.44156064721556" lon="10.558475646119986"><ele>160.0</ele><time>2026-04-19T09:15:48Z</time></trkpt><trkpt lat="43.44152982893758" lon="10.558400017254558"><ele>160.0</ele><time>2026-04-19T09:15:59Z</time></trkpt><trkpt lat="43.44156534067902" lon="10.558478200277861"><ele>160.0</ele><time>2026-04-19T09:16:24Z</time></trkpt><trkpt lat="43.441566309299304" lon="10.558603199851966"><ele>160.0</ele><time>2026-04-19T09:17:20.001Z</time></trkpt><trkpt lat="43.44156450880515" lon="10.558514337277622"><ele>160.0</ele><time>2026-04-19T09:19:11.001Z</time></trkpt><trkpt lat="43.44157186378916" lon="10.558605337634342"><ele>160.0</ele><time>2026-04-19T09:19:18.001Z</time></trkpt><trkpt lat="43.44156544122205" lon="10.55869485333073"><ele>160.0</ele><time>2026-04-19T09:20:36.999Z</time></trkpt><trkpt lat="43.4415860281732" lon="10.558793525255597"><ele>160.0</ele><time>2026-04-19T09:20:41.999Z</time></trkpt><trkpt lat="43.441600272958894" lon="10.558879769446778"><ele>160.0</ele><time>2026-04-19T09:20:44.999Z</time></trkpt><trkpt lat="43.44161370864579" lon="10.558969964493718"><ele>160.14285714285714</ele><time>2026-04-19T09:20:47.999Z</time></trkpt><trkpt lat="43.44162893842707" lon="10.559063398972587"><ele>160.28571428571428</ele><time>2026-04-19T09:20:50.999Z</time></trkpt><trkpt lat="43.44164426444828" lon="10.55916563362158"><ele>160.42857142857144</ele><time>2026-04-19T09:20:52.999Z</time></trkpt><trkpt lat="43.441657769852" lon="10.559259923011092"><ele>160.57142857142856</ele><time>2026-04-19T09:20:54.999Z</time></trkpt><trkpt lat="43.44167243946991" lon="10.559355295532821"><ele>160.71428571428572</ele><time>2026-04-19T09:20:57.999Z</time></trkpt><trkpt lat="43.44168875681193" lon="10.559468247504999"><ele>160.85714285714286</ele><time>2026-04-19T09:21:00.999Z</time></trkpt><trkpt lat="43.44170492096522" lon="10.559564457261041"><ele>161.0</ele><time>2026-04-19T09:21:03.999Z</time></trkpt><trkpt lat="43.44172695355066" lon="10.5596657634826"><ele>161.0</ele><time>2026-04-19T09:21:06.999Z</time></trkpt><trkpt lat="43.44174722243745" lon="10.559751394046346"><ele>161.0</ele><time>2026-04-19T09:21:09.999Z</time></trkpt><trkpt lat="43.441770868962976" lon="10.5598485504386"><ele>161.0</ele><time>2026-04-19T09:21:12.999Z</time></trkpt><trkpt lat="43.441796662328905" lon="10.55993989591042"><ele>161.0</ele><time>2026-04-19T09:21:16.999Z</time></trkpt><trkpt lat="43.4418230655786" lon="10.560025238506464"><ele>161.0</ele><time>2026-04-19T09:21:22.999Z</time></trkpt><trkpt lat="43.44185027544898" lon="10.560120385547362"><ele>161.0</ele><time>2026-04-19T09:21:45.999Z</time></trkpt><trkpt lat="43.441903569802264" lon="10.560293194778618"><ele>161.0</ele><time>2026-04-19T09:21:47.999Z</time></trkpt><trkpt lat="43.44193472712001" lon="10.560396104404434"><ele>161.0</ele><time>2026-04-19T09:21:48.999Z</time></trkpt><trkpt lat="43.44197849278423" lon="10.560524139377726"><ele>161.0</ele><time>2026-04-19T09:21:49.999Z</time></trkpt><trkpt lat="43.442042785409896" lon="10.56067519924592"><ele>161.0</ele><time>2026-04-19T09:21:50.999Z</time></trkpt><trkpt lat="43.44211685978729" lon="10.560830781315126"><ele>161.0</ele><time>2026-04-19T09:21:51.999Z</time></trkpt><trkpt lat="43.44219479625467" lon="10.56098880718483"><ele>161.0</ele><time>2026-04-19T09:21:52.999Z</time></trkpt><trkpt lat="43.442290836115156" lon="10.561157647547562"><ele>161.0</ele><time>2026-04-19T09:21:53.999Z</time></trkpt><trkpt lat="43.44240218215769" lon="10.56132761093836"><ele>161.0</ele><time>2026-04-19T09:21:54.999Z</time></trkpt><trkpt lat="43.44252242587086" lon="10.561496987184901"><ele>160.33333333333331</ele><time>2026-04-19T09:21:55.999Z</time></trkpt><trkpt lat="43.442641744931066" lon="10.561656518209414"><ele>159.66666666666666</ele><time>2026-04-19T09:21:56.999Z</time></trkpt><trkpt lat="43.44276050634141" lon="10.5618149433394"><ele>159.0</ele><time>2026-04-19T09:21:57.999Z</time></trkpt><trkpt lat="43.44287332261991" lon="10.56196256506708"><ele>159.5</ele><time>2026-04-19T09:21:58.999Z</time></trkpt><trkpt lat="43.442980693201115" lon="10.5621094691807"><ele>160.0</ele><time>2026-04-19T09:21:59.999Z</time></trkpt><trkpt lat="43.44308645397226" lon="10.562255045676888"><ele>160.5</ele><time>2026-04-19T09:22:00.999Z</time></trkpt><trkpt lat="43.44319153506519" lon="10.562392290172339"><ele>161.0</ele><time>2026-04-19T09:22:01.999Z</time></trkpt><trkpt lat="43.44329697133032" lon="10.562530705757984"><ele>161.0</ele><time>2026-04-19T09:22:02.999Z</time></trkpt><trkpt lat="43.44339515163823" lon="10.562673408981075"><ele>161.0</ele><time>2026-04-19T09:22:03.999Z</time></trkpt><trkpt lat="43.443480688308426" lon="10.562833112538774"><ele>161.0</ele><time>2026-04-19T09:22:04.999Z</time></trkpt><trkpt lat="43.443560098188534" lon="10.562988587285338"><ele>161.0</ele><time>2026-04-19T09:22:05.999Z</time></trkpt><trkpt lat="43.44363111075989" lon="10.563143523482452"><ele>161.25</ele><time>2026-04-19T09:22:06.999Z</time></trkpt><trkpt lat="43.44368866048713" lon="10.5633080755879"><ele>161.5</ele><time>2026-04-19T09:22:07.999Z</time></trkpt><trkpt lat="43.44373302998163" lon="10.563477127970627"><ele>161.75</ele><time>2026-04-19T09:22:08.999Z</time></trkpt><trkpt lat="43.44378143256664" lon="10.563649150721721"><ele>162.0</ele><time>2026-04-19T09:22:09.999Z</time></trkpt><trkpt lat="43.44383618023073" lon="10.563823267059528"><ele>164.25</ele><time>2026-04-19T09:22:10.999Z</time></trkpt><trkpt lat="43.44390873915601" lon="10.563994552700516"><ele>166.5</ele><time>2026-04-19T09:22:11.999Z</time></trkpt><trkpt lat="43.443985546867864" lon="10.564161135658129"><ele>168.75</ele><time>2026-04-19T09:22:12.999Z</time></trkpt><trkpt lat="43.44404212758137" lon="10.564315818363676"><ele>171.0</ele><time>2026-04-19T09:22:13.999Z</time></trkpt><trkpt lat="43.44409255681624" lon="10.564462897138394"><ele>171.75</ele><time>2026-04-19T09:22:14.999Z</time></trkpt><trkpt lat="43.44413253627367" lon="10.564615420465337"><ele>172.5</ele><time>2026-04-19T09:22:15.999Z</time></trkpt><trkpt lat="43.444170629274964" lon="10.564771666482926"><ele>173.25</ele><time>2026-04-19T09:22:16.999Z</time></trkpt><trkpt lat="43.44420863338091" lon="10.564932456566963"><ele>174.0</ele><time>2026-04-19T09:22:17.999Z</time></trkpt><trkpt lat="43.444250357804776" lon="10.565098272855561"><ele>174.0</ele><time>2026-04-19T09:22:18.999Z</time></trkpt><trkpt lat="43.44429635016381" lon="10.565268977763262"><ele>174.0</ele><time>2026-04-19T09:22:19.999Z</time></trkpt><trkpt lat="43.44434186477828" lon="10.565445015278256"><ele>174.0</ele><time>2026-04-19T09:22:20.999Z</time></trkpt><trkpt lat="43.444389620896814" lon="10.565624659271803"><ele>174.0</ele><time>2026-04-19T09:22:21.999Z</time></trkpt><trkpt lat="43.44443432309715" lon="10.565807087947608"><ele>173.75</ele><time>2026-04-19T09:22:22.999Z</time></trkpt><trkpt lat="43.4444818020449" lon="10.565990779568535"><ele>173.5</ele><time>2026-04-19T09:22:23.999Z</time></trkpt><trkpt lat="43.444529258891485" lon="10.566178931149706"><ele>173.25</ele><time>2026-04-19T09:22:24.999Z</time></trkpt><trkpt lat="43.44457564355396" lon="10.566360955036465"><ele>173.0</ele><time>2026-04-19T09:22:25.999Z</time></trkpt><trkpt lat="43.444620674935074" lon="10.566524945418694"><ele>176.5</ele><time>2026-04-19T09:22:26.999Z</time></trkpt><trkpt lat="43.44466972350706" lon="10.56667421774699"><ele>180.0</ele><time>2026-04-19T09:22:27.999Z</time></trkpt><trkpt lat="43.444724594637066" lon="10.566816257388433"><ele>183.5</ele><time>2026-04-19T09:22:28.999Z</time></trkpt><trkpt lat="43.44478318128116" lon="10.566956875052133"><ele>187.0</ele><time>2026-04-19T09:22:29.999Z</time></trkpt><trkpt lat="43.44484900188604" lon="10.567093946261265"><ele>187.0</ele><time>2026-04-19T09:22:30.999Z</time></trkpt><trkpt lat="43.44491935686643" lon="10.56722837270467"><ele>187.0</ele><time>2026-04-19T09:22:31.999Z</time></trkpt><trkpt lat="43.44498932599811" lon="10.567360449573913"><ele>187.0</ele><time>2026-04-19T09:22:32.999Z</time></trkpt><trkpt lat="43.44505016300588" lon="10.567486999911363"><ele>187.0</ele><time>2026-04-19T09:22:33.999Z</time></trkpt><trkpt lat="43.44509820040674" lon="10.567598128690376"><ele>187.0</ele><time>2026-04-19T09:22:34.999Z</time></trkpt><trkpt lat="43.44513715550154" lon="10.5676939075526"><ele>187.0</ele><time>2026-04-19T09:22:35.999Z</time></trkpt><trkpt lat="43.445176817102016" lon="10.567775139948488"><ele>187.0</ele><time>2026-04-19T09:22:36.999Z</time></trkpt><trkpt lat="43.44524067021571" lon="10.567904701961359"><ele>187.0</ele><time>2026-04-19T09:22:38.999Z</time></trkpt><trkpt lat="43.44527976382033" lon="10.567978115648843"><ele>187.0</ele><time>2026-04-19T09:22:40.999Z</time></trkpt><trkpt lat="43.4454199318689" lon="10.567920455117664"><ele>187.0</ele><time>2026-04-19T09:22:46.999Z</time></trkpt><trkpt lat="43.445491848760945" lon="10.567797775145587"><ele>187.28571428571428</ele><time>2026-04-19T09:22:48.999Z</time></trkpt><trkpt lat="43.44554397355495" lon="10.567737252019164"><ele>187.57142857142858</ele><time>2026-04-19T09:22:49.999Z</time></trkpt><trkpt lat="43.445604041021866" lon="10.567681907594181"><ele>187.85714285714286</ele><time>2026-04-19T09:22:50.999Z</time></trkpt><trkpt lat="43.44566750695398" lon="10.567632571092576"><ele>188.14285714285714</ele><time>2026-04-19T09:22:51.999Z</time></trkpt><trkpt lat="43.445736167690725" lon="10.56759315841171"><ele>188.42857142857144</ele><time>2026-04-19T09:22:52.999Z</time></trkpt><trkpt lat="43.445808824647855" lon="10.567567615546421"><ele>188.71428571428572</ele><time>2026-04-19T09:22:53.999Z</time></trkpt><trkpt lat="43.445880900510126" lon="10.567557343447753"><ele>189.0</ele><time>2026-04-19T09:22:54.999Z</time></trkpt><trkpt lat="43.44595360498121" lon="10.567553513208349"><ele>189.0</ele><time>2026-04-19T09:22:55.999Z</time></trkpt><trkpt lat="43.44602730154608" lon="10.567562122049374"><ele>189.0</ele><time>2026-04-19T09:22:56.999Z</time></trkpt><trkpt lat="43.44610338471188" lon="10.56758660076193"><ele>189.0</ele><time>2026-04-19T09:22:57.999Z</time></trkpt><trkpt lat="43.44618186156368" lon="10.567621690908476"><ele>189.0</ele><time>2026-04-19T09:22:58.999Z</time></trkpt><trkpt lat="43.446261940935486" lon="10.56766997070061"><ele>189.0</ele><time>2026-04-19T09:22:59.999Z</time></trkpt><trkpt lat="43.446341341539004" lon="10.56773088560831"><ele>189.0</ele><time>2026-04-19T09:23:00.999Z</time></trkpt><trkpt lat="43.44641485751547" lon="10.567807042473111"><ele>190.79999999999998</ele><time>2026-04-19T09:23:01.999Z</time></trkpt><trkpt lat="43.44648365301969" lon="10.567891682245854"><ele>192.6</ele><time>2026-04-19T09:23:02.999Z</time></trkpt><trkpt lat="43.44655180313139" lon="10.567979997912438"><ele>194.4</ele><time>2026-04-19T09:23:03.999Z</time></trkpt><trkpt lat="43.44662266212626" lon="10.568071389500384"><ele>196.2</ele><time>2026-04-19T09:23:04.999Z</time></trkpt><trkpt lat="43.44669497897271" lon="10.568158776318047"><ele>198.0</ele><time>2026-04-19T09:23:05.999Z</time></trkpt><trkpt lat="43.44677431840597" lon="10.568237707862702"><ele>198.0</ele><time>2026-04-19T09:23:06.998Z</time></trkpt><trkpt lat="43.44685731139575" lon="10.568298617659064"><ele>198.0</ele><time>2026-04-19T09:23:07.998Z</time></trkpt><trkpt lat="43.446950658355235" lon="10.56832534043026"><ele>198.0</ele><time>2026-04-19T09:23:08.998Z</time></trkpt><trkpt lat="43.447047396532774" lon="10.568320596620433"><ele>198.0</ele><time>2026-04-19T09:23:09.998Z</time></trkpt><trkpt lat="43.44713583238964" lon="10.568267836407031"><ele>198.0</ele><time>2026-04-19T09:23:10.998Z</time></trkpt><trkpt lat="43.447203712963" lon="10.568166310295341"><ele>196.60000000000002</ele><time>2026-04-19T09:23:11.998Z</time></trkpt><trkpt lat="43.44725521652039" lon="10.568053031374905"><ele>195.20000000000002</ele><time>2026-04-19T09:23:12.998Z</time></trkpt><trkpt lat="43.44728126705097" lon="10.567938696415219"><ele>193.8</ele><time>2026-04-19T09:23:13.998Z</time></trkpt><trkpt lat="43.447258094931485" lon="10.56781871139665"><ele>192.4</ele><time>2026-04-19T09:23:14.998Z</time></trkpt><trkpt lat="43.44720321895245" lon="10.567711913590568"><ele>191.0</ele><time>2026-04-19T09:23:15.998Z</time></trkpt><trkpt lat="43.447136106935645" lon="10.5676006815239"><ele>189.5</ele><time>2026-04-19T09:23:16.998Z</time></trkpt><trkpt lat="43.447078196814644" lon="10.567472063245338"><ele>188.0</ele><time>2026-04-19T09:23:17.998Z</time></trkpt><trkpt lat="43.44703570749596" lon="10.567323536474788"><ele>186.5</ele><time>2026-04-19T09:23:18.998Z</time></trkpt><trkpt lat="43.44700856470801" lon="10.567168282877269"><ele>185.0</ele><time>2026-04-19T09:23:19.998Z</time></trkpt><trkpt lat="43.44700081517964" lon="10.567008124811144"><ele>183.0</ele><time>2026-04-19T09:23:20.998Z</time></trkpt><trkpt lat="43.44701656039584" lon="10.566852700295444"><ele>181.0</ele><time>2026-04-19T09:23:21.998Z</time></trkpt><trkpt lat="43.447063429981974" lon="10.56671473935059"><ele>179.0</ele><time>2026-04-19T09:23:22.998Z</time></trkpt><trkpt lat="43.447154283360064" lon="10.566610262700607"><ele>177.0</ele><time>2026-04-19T09:23:23.998Z</time></trkpt><trkpt lat="43.4472384312397" lon="10.56647648603002"><ele>179.5</ele><time>2026-04-19T09:23:24.998Z</time></trkpt><trkpt lat="43.447339519365265" lon="10.566354549546533"><ele>182.0</ele><time>2026-04-19T09:23:25.998Z</time></trkpt><trkpt lat="43.447431592595535" lon="10.566237753831267"><ele>184.5</ele><time>2026-04-19T09:23:26.998Z</time></trkpt><trkpt lat="43.44752212765094" lon="10.56612170388775"><ele>187.0</ele><time>2026-04-19T09:23:27.998Z</time></trkpt><trkpt lat="43.44760202138041" lon="10.565994082153694"><ele>187.0</ele><time>2026-04-19T09:23:28.998Z</time></trkpt><trkpt lat="43.44764987972006" lon="10.565839313608931"><ele>187.0</ele><time>2026-04-19T09:23:29.998Z</time></trkpt><trkpt lat="43.44766437465457" lon="10.565668690112794"><ele>187.0</ele><time>2026-04-19T09:23:30.998Z</time></trkpt><trkpt lat="43.44767178931294" lon="10.565496586882718"><ele>187.0</ele><time>2026-04-19T09:23:31.998Z</time></trkpt><trkpt lat="43.44769316201344" lon="10.565327398475096"><ele>185.75</ele><time>2026-04-19T09:23:32.998Z</time></trkpt><trkpt lat="43.44774202732474" lon="10.565167419289047"><ele>184.5</ele><time>2026-04-19T09:23:33.998Z</time></trkpt><trkpt lat="43.44780816629001" lon="10.565020394698124"><ele>183.25</ele><time>2026-04-19T09:23:34.998Z</time></trkpt><trkpt lat="43.44787511365441" lon="10.564893368380709"><ele>182.0</ele><time>2026-04-19T09:23:35.998Z</time></trkpt><trkpt lat="43.44795294396124" lon="10.564790392223143"><ele>183.6</ele><time>2026-04-19T09:23:36.998Z</time></trkpt><trkpt lat="43.44805270010168" lon="10.564748937203122"><ele>185.2</ele><time>2026-04-19T09:23:37.998Z</time></trkpt><trkpt lat="43.44815479228819" lon="10.564773697030164"><ele>186.8</ele><time>2026-04-19T09:23:38.998Z</time></trkpt><trkpt lat="43.44823810244806" lon="10.564857432225228"><ele>188.4</ele><time>2026-04-19T09:23:39.998Z</time></trkpt><trkpt lat="43.44830093303389" lon="10.564973584554377"><ele>190.0</ele><time>2026-04-19T09:23:40.998Z</time></trkpt><trkpt lat="43.44836451727985" lon="10.565104433460675"><ele>190.0</ele><time>2026-04-19T09:23:41.998Z</time></trkpt><trkpt lat="43.44843703979481" lon="10.565238158712909"><ele>190.0</ele><time>2026-04-19T09:23:42.998Z</time></trkpt><trkpt lat="43.44851134577791" lon="10.565369102617526"><ele>190.0</ele><time>2026-04-19T09:23:43.998Z</time></trkpt><trkpt lat="43.44858618915228" lon="10.56549485931146"><ele>190.0</ele><time>2026-04-19T09:23:44.998Z</time></trkpt><trkpt lat="43.448665248849906" lon="10.565602250108931"><ele>191.6</ele><time>2026-04-19T09:23:45.998Z</time></trkpt><trkpt lat="43.448751239808104" lon="10.565679649237659"><ele>193.2</ele><time>2026-04-19T09:23:46.998Z</time></trkpt><trkpt lat="43.44884925853108" lon="10.565718509205345"><ele>194.8</ele><time>2026-04-19T09:23:47.998Z</time></trkpt><trkpt lat="43.44895541754755" lon="10.56572067347112"><ele>196.4</ele><time>2026-04-19T09:23:48.998Z</time></trkpt><trkpt lat="43.44906235067228" lon="10.565683843179364"><ele>198.0</ele><time>2026-04-19T09:23:49.998Z</time></trkpt><trkpt lat="43.44916592213438" lon="10.565618241713635"><ele>198.5</ele><time>2026-04-19T09:23:50.998Z</time></trkpt><trkpt lat="43.44926044946366" lon="10.565520381537246"><ele>199.0</ele><time>2026-04-19T09:23:51.998Z</time></trkpt><trkpt lat="43.44935548512464" lon="10.56542064000491"><ele>199.5</ele><time>2026-04-19T09:23:52.998Z</time></trkpt><trkpt lat="43.449460682506846" lon="10.56533804949388"><ele>200.0</ele><time>2026-04-19T09:23:53.998Z</time></trkpt><trkpt lat="43.44957831315731" lon="10.565281865361616"><ele>197.25</ele><time>2026-04-19T09:23:54.998Z</time></trkpt><trkpt lat="43.4497030667545" lon="10.56524343417073"><ele>194.5</ele><time>2026-04-19T09:23:55.998Z</time></trkpt><trkpt lat="43.44982566017157" lon="10.565199151458986"><ele>191.75</ele><time>2026-04-19T09:23:56.998Z</time></trkpt><trkpt lat="43.44994389193988" lon="10.565145408914734"><ele>189.0</ele><time>2026-04-19T09:23:57.998Z</time></trkpt><trkpt lat="43.45006305504433" lon="10.565088877454032"><ele>189.0</ele><time>2026-04-19T09:23:58.998Z</time></trkpt><trkpt lat="43.45018031066109" lon="10.56502456280196"><ele>189.0</ele><time>2026-04-19T09:23:59.998Z</time></trkpt><trkpt lat="43.45029604751614" lon="10.564953511302042"><ele>189.0</ele><time>2026-04-19T09:24:00.998Z</time></trkpt><trkpt lat="43.450405539139965" lon="10.564864626475703"><ele>189.0</ele><time>2026-04-19T09:24:01.998Z</time></trkpt><trkpt lat="43.450510832120045" lon="10.564763901373157"><ele>188.5</ele><time>2026-04-19T09:24:02.998Z</time></trkpt><trkpt lat="43.45061228296776" lon="10.564652715689002"><ele>188.0</ele><time>2026-04-19T09:24:03.998Z</time></trkpt><trkpt lat="43.45072458598669" lon="10.564556722194693"><ele>187.5</ele><time>2026-04-19T09:24:04.998Z</time></trkpt><trkpt lat="43.450820276218316" lon="10.56443226197097"><ele>187.0</ele><time>2026-04-19T09:24:05.998Z</time></trkpt><trkpt lat="43.45093097741688" lon="10.564334980491838"><ele>187.0</ele><time>2026-04-19T09:24:06.998Z</time></trkpt><trkpt lat="43.45103697022616" lon="10.564227593353474"><ele>187.0</ele><time>2026-04-19T09:24:07.998Z</time></trkpt><trkpt lat="43.45114074407394" lon="10.564118973226075"><ele>187.0</ele><time>2026-04-19T09:24:08.998Z</time></trkpt><trkpt lat="43.45123786960885" lon="10.56401539374114"><ele>187.0</ele><time>2026-04-19T09:24:09.998Z</time></trkpt><trkpt lat="43.451331073095304" lon="10.563914550344185"><ele>187.8</ele><time>2026-04-19T09:24:10.998Z</time></trkpt><trkpt lat="43.4514246843458" lon="10.563816672700042"><ele>188.6</ele><time>2026-04-19T09:24:11.998Z</time></trkpt><trkpt lat="43.451525444240986" lon="10.563752157151145"><ele>189.4</ele><time>2026-04-19T09:24:12.998Z</time></trkpt><trkpt lat="43.451633331127994" lon="10.563747871644045"><ele>190.20000000000002</ele><time>2026-04-19T09:24:13.998Z</time></trkpt><trkpt lat="43.451726350819605" lon="10.563802194771277"><ele>191.0</ele><time>2026-04-19T09:24:14.998Z</time></trkpt><trkpt lat="43.45178856924048" lon="10.563912295638714"><ele>191.0</ele><time>2026-04-19T09:24:15.998Z</time></trkpt><trkpt lat="43.45182199168769" lon="10.564048564106947"><ele>191.0</ele><time>2026-04-19T09:24:16.998Z</time></trkpt><trkpt lat="43.4518354137209" lon="10.564204672327381"><ele>191.0</ele><time>2026-04-19T09:24:17.998Z</time></trkpt><trkpt lat="43.45183709032265" lon="10.564371482219851"><ele>191.0</ele><time>2026-04-19T09:24:18.998Z</time></trkpt><trkpt lat="43.45181658199587" lon="10.564526789884198"><ele>192.25</ele><time>2026-04-19T09:24:19.998Z</time></trkpt><trkpt lat="43.45177659252869" lon="10.564675889558574"><ele>193.5</ele><time>2026-04-19T09:24:20.998Z</time></trkpt><trkpt lat="43.45172554021828" lon="10.564819228565707"><ele>194.75</ele><time>2026-04-19T09:24:21.998Z</time></trkpt><trkpt lat="43.45167112522532" lon="10.564953549031719"><ele>196.0</ele><time>2026-04-19T09:24:22.998Z</time></trkpt><trkpt lat="43.451622725118035" lon="10.565088166000052"><ele>196.0</ele><time>2026-04-19T09:24:23.998Z</time></trkpt><trkpt lat="43.45158256956889" lon="10.56523184922089"><ele>196.0</ele><time>2026-04-19T09:24:24.998Z</time></trkpt><trkpt lat="43.451561841752536" lon="10.565386721277187"><ele>196.0</ele><time>2026-04-19T09:24:25.998Z</time></trkpt><trkpt lat="43.45156310757756" lon="10.565539002306926"><ele>196.0</ele><time>2026-04-19T09:24:26.998Z</time></trkpt><trkpt lat="43.45158894276409" lon="10.565682288545366"><ele>196.0</ele><time>2026-04-19T09:24:27.998Z</time></trkpt><trkpt lat="43.45164101965986" lon="10.56581062332254"><ele>197.20000000000002</ele><time>2026-04-19T09:24:28.998Z</time></trkpt><trkpt lat="43.45171716354668" lon="10.56590446679129"><ele>198.4</ele><time>2026-04-19T09:24:29.998Z</time></trkpt><trkpt lat="43.45181678007515" lon="10.565939809743977"><ele>199.6</ele><time>2026-04-19T09:24:30.998Z</time></trkpt><trkpt lat="43.45192376660157" lon="10.565933821530692"><ele>200.8</ele><time>2026-04-19T09:24:31.998Z</time></trkpt><trkpt lat="43.452033447069894" lon="10.56592099907253"><ele>202.0</ele><time>2026-04-19T09:24:32.998Z</time></trkpt><trkpt lat="43.452142510368994" lon="10.56592364611874"><ele>201.8</ele><time>2026-04-19T09:24:33.998Z</time></trkpt><trkpt lat="43.45224537117236" lon="10.565958341040703"><ele>201.6</ele><time>2026-04-19T09:24:34.998Z</time></trkpt><trkpt lat="43.45233092071243" lon="10.56604387681023"><ele>201.4</ele><time>2026-04-19T09:24:35.998Z</time></trkpt><trkpt lat="43.45237958725621" lon="10.566168077159512"><ele>201.20000000000002</ele><time>2026-04-19T09:24:36.998Z</time></trkpt><trkpt lat="43.45239585268188" lon="10.566309915829228"><ele>201.0</ele><time>2026-04-19T09:24:37.998Z</time></trkpt><trkpt lat="43.45238557049805" lon="10.566460447971776"><ele>201.0</ele><time>2026-04-19T09:24:38.998Z</time></trkpt><trkpt lat="43.45237502939362" lon="10.566615125530994"><ele>201.0</ele><time>2026-04-19T09:24:39.998Z</time></trkpt><trkpt lat="43.45236450345654" lon="10.566776429155794"><ele>201.0</ele><time>2026-04-19T09:24:40.998Z</time></trkpt><trkpt lat="43.4523611906685" lon="10.566927422988098"><ele>201.0</ele><time>2026-04-19T09:24:41.998Z</time></trkpt><trkpt lat="43.45235841376917" lon="10.567061944187635"><ele>201.0</ele><time>2026-04-19T09:24:42.998Z</time></trkpt><trkpt lat="43.452373930965344" lon="10.567176650580919"><ele>202.33333333333334</ele><time>2026-04-19T09:24:43.998Z</time></trkpt><trkpt lat="43.452406927625205" lon="10.567260819572402"><ele>203.66666666666669</ele><time>2026-04-19T09:24:44.998Z</time></trkpt><trkpt lat="43.452481177501426" lon="10.567336233668366"><ele>205.0</ele><time>2026-04-19T09:24:46.998Z</time></trkpt><trkpt lat="43.452540072564126" lon="10.567455917731742"><ele>206.33333333333334</ele><time>2026-04-19T09:24:49.998Z</time></trkpt><trkpt lat="43.45254931144922" lon="10.567547650795925"><ele>207.66666666666669</ele><time>2026-04-19T09:24:51.998Z</time></trkpt><trkpt lat="43.4525724851528" lon="10.567673815603566"><ele>209.0</ele><time>2026-04-19T09:24:54.998Z</time></trkpt><trkpt lat="43.45258102069818" lon="10.567781284807282"><ele>209.00000000000003</ele><time>2026-04-19T09:24:56.998Z</time></trkpt><trkpt lat="43.452526442929916" lon="10.567849778796033"><ele>209.0</ele><time>2026-04-19T09:24:58.998Z</time></trkpt><trkpt lat="43.45248482615918" lon="10.567753224020256"><ele>209.0</ele><time>2026-04-19T09:25:01.998Z</time></trkpt><trkpt lat="43.45243315373777" lon="10.567668414446132"><ele>209.0</ele><time>2026-04-19T09:25:03.998Z</time></trkpt><trkpt lat="43.45238509775894" lon="10.56757320487327"><ele>209.00000000000003</ele><time>2026-04-19T09:25:05.998Z</time></trkpt><trkpt lat="43.452349236956636" lon="10.567492838835419"><ele>209.0</ele><time>2026-04-19T09:25:07.998Z</time></trkpt><trkpt lat="43.45231790113557" lon="10.567414004978891"><ele>209.0</ele><time>2026-04-19T09:25:11.998Z</time></trkpt><trkpt lat="43.45228026307697" lon="10.567299753794178"><ele>209.0</ele><time>2026-04-19T09:25:14.997Z</time></trkpt><trkpt lat="43.45225865440622" lon="10.567187137901056"><ele>209.0</ele><time>2026-04-19T09:25:16.997Z</time></trkpt><trkpt lat="43.45224370502997" lon="10.567097266337294"><ele>209.0</ele><time>2026-04-19T09:25:17.997Z</time></trkpt><trkpt lat="43.45223013604922" lon="10.567011128131542"><ele>209.0</ele><time>2026-04-19T09:25:18.997Z</time></trkpt><trkpt lat="43.4522134138288" lon="10.566923149728396"><ele>209.0</ele><time>2026-04-19T09:25:19.997Z</time></trkpt><trkpt lat="43.45219616555294" lon="10.56683596593635"><ele>209.0</ele><time>2026-04-19T09:25:20.997Z</time></trkpt><trkpt lat="43.45212773614167" lon="10.56672116101859"><ele>211.0</ele><time>2026-04-19T09:25:22.997Z</time></trkpt><trkpt lat="43.45206883554819" lon="10.56663108152455"><ele>213.0</ele><time>2026-04-19T09:25:24.997Z</time></trkpt><trkpt lat="43.451951623655624" lon="10.56663071601664"><ele>214.99999999999997</ele><time>2026-04-19T09:25:26.997Z</time></trkpt><trkpt lat="43.45189695229176" lon="10.56667949053659"><ele>217.0</ele><time>2026-04-19T09:25:27.997Z</time></trkpt><trkpt lat="43.45177836933102" lon="10.566729095599205"><ele>219.0</ele><time>2026-04-19T09:25:29.997Z</time></trkpt><trkpt lat="43.45166023952792" lon="10.566780293450487"><ele>219.0</ele><time>2026-04-19T09:25:31.998Z</time></trkpt><trkpt lat="43.45159653094561" lon="10.566801371407402"><ele>219.0</ele><time>2026-04-19T09:25:32.998Z</time></trkpt><trkpt lat="43.45152764865012" lon="10.566823492662506"><ele>219.0</ele><time>2026-04-19T09:25:33.998Z</time></trkpt><trkpt lat="43.45145318195173" lon="10.566846700368313"><ele>219.0</ele><time>2026-04-19T09:25:34.998Z</time></trkpt><trkpt lat="43.45137984219255" lon="10.566866362822246"><ele>219.0</ele><time>2026-04-19T09:25:35.998Z</time></trkpt><trkpt lat="43.45130085361014" lon="10.566856336037766"><ele>219.0</ele><time>2026-04-19T09:25:36.998Z</time></trkpt><trkpt lat="43.45120712269359" lon="10.566862986812653"><ele>219.0</ele><time>2026-04-19T09:25:37.998Z</time></trkpt><trkpt lat="43.45112247688425" lon="10.566875507743028"><ele>219.0</ele><time>2026-04-19T09:25:38.998Z</time></trkpt><trkpt lat="43.451036055827444" lon="10.56689443738422"><ele>219.0</ele><time>2026-04-19T09:25:39.998Z</time></trkpt><trkpt lat="43.4509535215274" lon="10.566926446334737"><ele>219.0</ele><time>2026-04-19T09:25:40.998Z</time></trkpt><trkpt lat="43.45087976206273" lon="10.566938673732471"><ele>219.0</ele><time>2026-04-19T09:25:41.998Z</time></trkpt><trkpt lat="43.45081703575648" lon="10.566990903624683"><ele>219.0</ele><time>2026-04-19T09:25:42.998Z</time></trkpt><trkpt lat="43.45074683094174" lon="10.567048713944484"><ele>223.39999999999998</ele><time>2026-04-19T09:25:43.998Z</time></trkpt><trkpt lat="43.45070379565012" lon="10.567179513851077"><ele>227.79999999999998</ele><time>2026-04-19T09:25:44.998Z</time></trkpt><trkpt lat="43.45068968561406" lon="10.567327705764054"><ele>232.20000000000002</ele><time>2026-04-19T09:25:45.998Z</time></trkpt><trkpt lat="43.45064858046634" lon="10.56744243873956"><ele>236.60000000000002</ele><time>2026-04-19T09:25:46.998Z</time></trkpt><trkpt lat="43.450599994027094" lon="10.567525422914894"><ele>241.0</ele><time>2026-04-19T09:25:47.998Z</time></trkpt><trkpt lat="43.4505598783715" lon="10.567604992835363"><ele>240.99999999999997</ele><time>2026-04-19T09:25:48.998Z</time></trkpt><trkpt lat="43.45051389254258" lon="10.567687441554371"><ele>241.0</ele><time>2026-04-19T09:25:49.998Z</time></trkpt><trkpt lat="43.45046829767172" lon="10.56775680510885"><ele>241.0</ele><time>2026-04-19T09:25:50.998Z</time></trkpt><trkpt lat="43.45037886448072" lon="10.567857751476632"><ele>241.0</ele><time>2026-04-19T09:25:52.998Z</time></trkpt><trkpt lat="43.45032129803072" lon="10.567903826537615"><ele>240.99999999999997</ele><time>2026-04-19T09:25:53.998Z</time></trkpt><trkpt lat="43.450256314403646" lon="10.56794879972555"><ele>241.0</ele><time>2026-04-19T09:25:54.998Z</time></trkpt><trkpt lat="43.45018720415983" lon="10.567994184560504"><ele>241.99999999999997</ele><time>2026-04-19T09:25:55.998Z</time></trkpt><trkpt lat="43.450115042540006" lon="10.568042160847568"><ele>243.0</ele><time>2026-04-19T09:25:56.998Z</time></trkpt><trkpt lat="43.450045600185206" lon="10.56809714661071"><ele>244.0</ele><time>2026-04-19T09:25:57.998Z</time></trkpt><trkpt lat="43.44997943443554" lon="10.568168730974302"><ele>245.0</ele><time>2026-04-19T09:25:58.998Z</time></trkpt><trkpt lat="43.449921655554334" lon="10.568241859774732"><ele>245.99999999999997</ele><time>2026-04-19T09:25:59.998Z</time></trkpt><trkpt lat="43.44986977455066" lon="10.568322034175795"><ele>247.0</ele><time>2026-04-19T09:26:00.998Z</time></trkpt><trkpt lat="43.44983380950023" lon="10.568411255095175"><ele>246.99999999999997</ele><time>2026-04-19T09:26:01.998Z</time></trkpt><trkpt lat="43.44978871972116" lon="10.568496032527156"><ele>247.0</ele><time>2026-04-19T09:26:02.998Z</time></trkpt><trkpt lat="43.44976224882852" lon="10.568609467286684"><ele>247.0</ele><time>2026-04-19T09:26:03.998Z</time></trkpt><trkpt lat="43.4497517799904" lon="10.568712730912905"><ele>247.0</ele><time>2026-04-19T09:26:04.998Z</time></trkpt><trkpt lat="43.44972522420876" lon="10.568804550988254"><ele>246.99999999999997</ele><time>2026-04-19T09:26:05.998Z</time></trkpt><trkpt lat="43.44971028745588" lon="10.568908004256745"><ele>247.0</ele><time>2026-04-19T09:26:06.998Z</time></trkpt><trkpt lat="43.44971030867412" lon="10.569013793549685"><ele>248.57142857142858</ele><time>2026-04-19T09:26:07.998Z</time></trkpt><trkpt lat="43.44970100854078" lon="10.56911057010349"><ele>250.1428571428571</ele><time>2026-04-19T09:26:08.998Z</time></trkpt><trkpt lat="43.4497110698833" lon="10.569201513605785"><ele>251.7142857142857</ele><time>2026-04-19T09:26:09.998Z</time></trkpt><trkpt lat="43.449740730372774" lon="10.569285066642973"><ele>253.28571428571428</ele><time>2026-04-19T09:26:10.998Z</time></trkpt><trkpt lat="43.449786551377244" lon="10.569360757999975"><ele>254.85714285714283</ele><time>2026-04-19T09:26:11.998Z</time></trkpt><trkpt lat="43.449846644989236" lon="10.569429914740425"><ele>256.4285714285714</ele><time>2026-04-19T09:26:12.998Z</time></trkpt><trkpt lat="43.44991472052964" lon="10.569494685699182"><ele>258.0</ele><time>2026-04-19T09:26:13.998Z</time></trkpt><trkpt lat="43.449970618326766" lon="10.569567950059177"><ele>258.0</ele><time>2026-04-19T09:26:14.998Z</time></trkpt><trkpt lat="43.450039710356315" lon="10.569687921172374"><ele>258.0</ele><time>2026-04-19T09:26:16.998Z</time></trkpt><trkpt lat="43.45009280664506" lon="10.569824795125312"><ele>258.0</ele><time>2026-04-19T09:26:18.998Z</time></trkpt><trkpt lat="43.4501175787297" lon="10.569989050173382"><ele>258.0</ele><time>2026-04-19T09:26:20.998Z</time></trkpt><trkpt lat="43.450197434269135" lon="10.570114350247344"><ele>258.0</ele><time>2026-04-19T09:26:22.998Z</time></trkpt><trkpt lat="43.45025160488531" lon="10.57016777359594"><ele>258.0</ele><time>2026-04-19T09:26:23.998Z</time></trkpt><trkpt lat="43.45035740242443" lon="10.570253629443568"><ele>258.0</ele><time>2026-04-19T09:26:25.998Z</time></trkpt><trkpt lat="43.45042285157448" lon="10.57028999275628"><ele>258.0</ele><time>2026-04-19T09:26:26.998Z</time></trkpt><trkpt lat="43.45049290375941" lon="10.570328199297109"><ele>258.0</ele><time>2026-04-19T09:26:27.998Z</time></trkpt><trkpt lat="43.450568762560096" lon="10.570361308451607"><ele>258.0</ele><time>2026-04-19T09:26:28.998Z</time></trkpt><trkpt lat="43.45064640084548" lon="10.57039539065677"><ele>259.6666666666667</ele><time>2026-04-19T09:26:29.998Z</time></trkpt><trkpt lat="43.45072034819819" lon="10.570427750740633"><ele>261.3333333333333</ele><time>2026-04-19T09:26:30.998Z</time></trkpt><trkpt lat="43.450785755615435" lon="10.570466293098903"><ele>263.0</ele><time>2026-04-19T09:26:31.998Z</time></trkpt><trkpt lat="43.450849137022246" lon="10.570519861765646"><ele>264.66666666666663</ele><time>2026-04-19T09:26:32.998Z</time></trkpt><trkpt lat="43.4509092054583" lon="10.570593459731084"><ele>266.3333333333333</ele><time>2026-04-19T09:26:33.998Z</time></trkpt><trkpt lat="43.45097083378439" lon="10.570693668314439"><ele>268.0</ele><time>2026-04-19T09:26:34.998Z</time></trkpt><trkpt lat="43.45103778014261" lon="10.57079851368554"><ele>268.0</ele><time>2026-04-19T09:26:35.998Z</time></trkpt><trkpt lat="43.451118506204374" lon="10.570894763941677"><ele>268.0</ele><time>2026-04-19T09:26:36.998Z</time></trkpt><trkpt lat="43.45119194469538" lon="10.570966779675762"><ele>268.0</ele><time>2026-04-19T09:26:37.998Z</time></trkpt><trkpt lat="43.451258524776" lon="10.57103236345076"><ele>268.0</ele><time>2026-04-19T09:26:38.998Z</time></trkpt><trkpt lat="43.45129178663038" lon="10.571134040490803"><ele>268.0</ele><time>2026-04-19T09:26:39.998Z</time></trkpt><trkpt lat="43.45133708905266" lon="10.571218498112216"><ele>268.0</ele><time>2026-04-19T09:26:40.998Z</time></trkpt><trkpt lat="43.451363147061016" lon="10.571325810609913"><ele>268.3333333333333</ele><time>2026-04-19T09:26:41.998Z</time></trkpt><trkpt lat="43.45135640015301" lon="10.571437631308548"><ele>268.66666666666663</ele><time>2026-04-19T09:26:42.998Z</time></trkpt><trkpt lat="43.45134736682234" lon="10.571526581017643"><ele>269.0</ele><time>2026-04-19T09:26:43.998Z</time></trkpt><trkpt lat="43.4512797549071" lon="10.571640401904922"><ele>269.3333333333333</ele><time>2026-04-19T09:26:45.998Z</time></trkpt><trkpt lat="43.45122315075529" lon="10.571678813122837"><ele>269.6666666666667</ele><time>2026-04-19T09:26:46.998Z</time></trkpt><trkpt lat="43.451155684777746" lon="10.571720568070576"><ele>270.0</ele><time>2026-04-19T09:26:47.998Z</time></trkpt><trkpt lat="43.451082127605034" lon="10.571757244318404"><ele>271.6666666666667</ele><time>2026-04-19T09:26:48.998Z</time></trkpt><trkpt lat="43.45100721934208" lon="10.57180127056497"><ele>273.3333333333333</ele><time>2026-04-19T09:26:49.998Z</time></trkpt><trkpt lat="43.450937129794475" lon="10.571847276734067"><ele>275.0</ele><time>2026-04-19T09:26:50.998Z</time></trkpt><trkpt lat="43.45086860542748" lon="10.571888835953176"><ele>276.66666666666663</ele><time>2026-04-19T09:26:51.998Z</time></trkpt><trkpt lat="43.450800740472495" lon="10.571926208062628"><ele>278.3333333333333</ele><time>2026-04-19T09:26:52.998Z</time></trkpt><trkpt lat="43.450729846716776" lon="10.571956556546295"><ele>280.0</ele><time>2026-04-19T09:26:53.998Z</time></trkpt><trkpt lat="43.450658591394884" lon="10.571971480511202"><ele>280.0</ele><time>2026-04-19T09:26:54.998Z</time></trkpt><trkpt lat="43.45058452292257" lon="10.57198703925851"><ele>280.0</ele><time>2026-04-19T09:26:55.998Z</time></trkpt><trkpt lat="43.450509713814256" lon="10.571995115298147"><ele>280.0</ele><time>2026-04-19T09:26:56.998Z</time></trkpt><trkpt lat="43.45043703876271" lon="10.57199200659871"><ele>280.0</ele><time>2026-04-19T09:26:57.998Z</time></trkpt><trkpt lat="43.45036112826675" lon="10.571990522524201"><ele>280.0</ele><time>2026-04-19T09:26:58.998Z</time></trkpt><trkpt lat="43.45028943602506" lon="10.571996342767958"><ele>280.0</ele><time>2026-04-19T09:26:59.998Z</time></trkpt><trkpt lat="43.450219567171565" lon="10.572008175708506"><ele>280.0</ele><time>2026-04-19T09:27:00.998Z</time></trkpt><trkpt lat="43.45014341063672" lon="10.572022528941945"><ele>282.0</ele><time>2026-04-19T09:27:01.998Z</time></trkpt><trkpt lat="43.45006336827892" lon="10.572040751107403"><ele>284.0</ele><time>2026-04-19T09:27:02.998Z</time></trkpt><trkpt lat="43.44999694945685" lon="10.572055010376811"><ele>286.0</ele><time>2026-04-19T09:27:03.998Z</time></trkpt><trkpt lat="43.449929590406626" lon="10.572068172506574"><ele>288.0</ele><time>2026-04-19T09:27:04.998Z</time></trkpt><trkpt lat="43.44982554918468" lon="10.572117728403338"><ele>290.0</ele><time>2026-04-19T09:27:06.998Z</time></trkpt><trkpt lat="43.449775395130835" lon="10.572235600481523"><ele>292.0</ele><time>2026-04-19T09:27:08.998Z</time></trkpt><trkpt lat="43.44983583730586" lon="10.572385710214839"><ele>292.0</ele><time>2026-04-19T09:27:10.998Z</time></trkpt><trkpt lat="43.44988135381286" lon="10.572463453852"><ele>292.0</ele><time>2026-04-19T09:27:11.999Z</time></trkpt><trkpt lat="43.44993076459638" lon="10.572530342536727"><ele>292.0</ele><time>2026-04-19T09:27:12.999Z</time></trkpt><trkpt lat="43.44997947618955" lon="10.572597650198366"><ele>292.0</ele><time>2026-04-19T09:27:13.999Z</time></trkpt><trkpt lat="43.45002124967489" lon="10.572667319436803"><ele>292.0</ele><time>2026-04-19T09:27:14.999Z</time></trkpt><trkpt lat="43.45006411841318" lon="10.57273693184347"><ele>292.0</ele><time>2026-04-19T09:27:15.999Z</time></trkpt><trkpt lat="43.45010951217019" lon="10.572802567764818"><ele>292.0</ele><time>2026-04-19T09:27:16.999Z</time></trkpt><trkpt lat="43.450154963535994" lon="10.572868853529622"><ele>290.42857142857144</ele><time>2026-04-19T09:27:17.999Z</time></trkpt><trkpt lat="43.45020051936477" lon="10.572936026461358"><ele>288.8571428571429</ele><time>2026-04-19T09:27:18.995Z</time></trkpt><trkpt lat="43.45024486260602" lon="10.57300472993348"><ele>287.28571428571433</ele><time>2026-04-19T09:27:19.995Z</time></trkpt><trkpt lat="43.45028699349861" lon="10.573080427616675"><ele>285.7142857142857</ele><time>2026-04-19T09:27:20.995Z</time></trkpt><trkpt lat="43.450322884892145" lon="10.573163998348264"><ele>284.14285714285717</ele><time>2026-04-19T09:27:21.995Z</time></trkpt><trkpt lat="43.450355608448724" lon="10.573247560381239"><ele>282.5714285714286</ele><time>2026-04-19T09:27:22.995Z</time></trkpt><trkpt lat="43.45038554779283" lon="10.573329310985958"><ele>281.0</ele><time>2026-04-19T09:27:23.995Z</time></trkpt><trkpt lat="43.450417314723246" lon="10.573408847186187"><ele>281.0</ele><time>2026-04-19T09:27:24.995Z</time></trkpt><trkpt lat="43.450441155293205" lon="10.573489329393746"><ele>281.0</ele><time>2026-04-19T09:27:25.995Z</time></trkpt><trkpt lat="43.4504821903529" lon="10.573642386854814"><ele>281.0</ele><time>2026-04-19T09:27:27.996Z</time></trkpt><trkpt lat="43.450558269949425" lon="10.573774969517254"><ele>281.0</ele><time>2026-04-19T09:27:29.996Z</time></trkpt><trkpt lat="43.450639622864635" lon="10.573790984180425"><ele>281.0</ele><time>2026-04-19T09:27:30.996Z</time></trkpt><trkpt lat="43.450705395523954" lon="10.573823008646213"><ele>284.8571428571429</ele><time>2026-04-19T09:27:31.996Z</time></trkpt><trkpt lat="43.45075796515245" lon="10.57387914991058"><ele>288.7142857142857</ele><time>2026-04-19T09:27:32.996Z</time></trkpt><trkpt lat="43.45078314377933" lon="10.573963811719631"><ele>292.57142857142856</ele><time>2026-04-19T09:27:33.996Z</time></trkpt><trkpt lat="43.45083396259461" lon="10.574018116908583"><ele>296.42857142857144</ele><time>2026-04-19T09:27:34.996Z</time></trkpt><trkpt lat="43.450910659392115" lon="10.574147739729678"><ele>300.2857142857143</ele><time>2026-04-19T09:27:36.996Z</time></trkpt><trkpt lat="43.45095949962913" lon="10.574204377017047"><ele>304.14285714285717</ele><time>2026-04-19T09:27:37.996Z</time></trkpt><trkpt lat="43.4510136208379" lon="10.574257244016763"><ele>308.0</ele><time>2026-04-19T09:27:38.996Z</time></trkpt><trkpt lat="43.45106865783357" lon="10.574322756630194"><ele>308.0</ele><time>2026-04-19T09:27:39.997Z</time></trkpt><trkpt lat="43.4511220178233" lon="10.574403436576688"><ele>308.0</ele><time>2026-04-19T09:27:40.997Z</time></trkpt><trkpt lat="43.451179960756775" lon="10.574507864632178"><ele>308.0</ele><time>2026-04-19T09:27:41.997Z</time></trkpt><trkpt lat="43.45124032058807" lon="10.574646094726994"><ele>308.0</ele><time>2026-04-19T09:27:42.997Z</time></trkpt><trkpt lat="43.451310330519156" lon="10.574766505489055"><ele>308.0</ele><time>2026-04-19T09:27:43.997Z</time></trkpt><trkpt lat="43.45139427243496" lon="10.574851987116027"><ele>310.42857142857144</ele><time>2026-04-19T09:27:44.997Z</time></trkpt><trkpt lat="43.45148023460331" lon="10.574905694808603"><ele>312.8571428571429</ele><time>2026-04-19T09:27:45.997Z</time></trkpt><trkpt lat="43.451547159941114" lon="10.574953396528704"><ele>315.2857142857143</ele><time>2026-04-19T09:27:46.997Z</time></trkpt><trkpt lat="43.45158098626937" lon="10.575045203280393"><ele>317.7142857142857</ele><time>2026-04-19T09:27:47.997Z</time></trkpt><trkpt lat="43.45161734736837" lon="10.575119435491551"><ele>320.14285714285717</ele><time>2026-04-19T09:27:48.997Z</time></trkpt><trkpt lat="43.451652226399396" lon="10.575194397915999"><ele>322.57142857142856</ele><time>2026-04-19T09:27:49.997Z</time></trkpt><trkpt lat="43.45168314197138" lon="10.57527524198757"><ele>325.0</ele><time>2026-04-19T09:27:50.997Z</time></trkpt><trkpt lat="43.45171568720903" lon="10.575367396284552"><ele>325.8333333333333</ele><time>2026-04-19T09:27:51.997Z</time></trkpt><trkpt lat="43.451718938325925" lon="10.575469850145103"><ele>326.66666666666663</ele><time>2026-04-19T09:27:52.997Z</time></trkpt><trkpt lat="43.45168539829438" lon="10.575583401252437"><ele>327.5</ele><time>2026-04-19T09:27:53.997Z</time></trkpt><trkpt lat="43.4516606036339" lon="10.575716559767768"><ele>328.3333333333333</ele><time>2026-04-19T09:27:54.997Z</time></trkpt><trkpt lat="43.45165162615822" lon="10.575846521756162"><ele>329.1666666666667</ele><time>2026-04-19T09:27:55.997Z</time></trkpt><trkpt lat="43.451648893315905" lon="10.575961819275502"><ele>330.0</ele><time>2026-04-19T09:27:56.997Z</time></trkpt><trkpt lat="43.45167592798252" lon="10.57607892217673"><ele>330.0</ele><time>2026-04-19T09:27:57.997Z</time></trkpt><trkpt lat="43.45172335908969" lon="10.576176532318438"><ele>330.0</ele><time>2026-04-19T09:27:58.997Z</time></trkpt><trkpt lat="43.4517766481455" lon="10.576276308462722"><ele>330.0</ele><time>2026-04-19T09:27:59.997Z</time></trkpt><trkpt lat="43.45182161239756" lon="10.576382438555246"><ele>330.0</ele><time>2026-04-19T09:28:00.997Z</time></trkpt><trkpt lat="43.45186307230476" lon="10.57647457670029"><ele>330.0</ele><time>2026-04-19T09:28:01.998Z</time></trkpt><trkpt lat="43.45191083771987" lon="10.576549212213068"><ele>330.0</ele><time>2026-04-19T09:28:02.998Z</time></trkpt><trkpt lat="43.451970803800975" lon="10.576609325293516"><ele>330.00000000000006</ele><time>2026-04-19T09:28:03.998Z</time></trkpt><trkpt lat="43.452032262642334" lon="10.576645293042324"><ele>330.0</ele><time>2026-04-19T09:28:04.998Z</time></trkpt><trkpt lat="43.45214649185663" lon="10.57668636788885"><ele>330.0</ele><time>2026-04-19T09:28:06.998Z</time></trkpt><trkpt lat="43.45220477372187" lon="10.576721556748252"><ele>330.0</ele><time>2026-04-19T09:28:07.998Z</time></trkpt><trkpt lat="43.45226766515328" lon="10.576755568744623"><ele>330.0</ele><time>2026-04-19T09:28:08.998Z</time></trkpt><trkpt lat="43.45233561211599" lon="10.576755770800796"><ele>330.00000000000006</ele><time>2026-04-19T09:28:09.998Z</time></trkpt><trkpt lat="43.45239875541692" lon="10.576739082317369"><ele>330.0</ele><time>2026-04-19T09:28:10.998Z</time></trkpt><trkpt lat="43.45245913596767" lon="10.576703001847537"><ele>331.8571428571429</ele><time>2026-04-19T09:28:11.998Z</time></trkpt><trkpt lat="43.45251577813771" lon="10.576654192239793"><ele>333.7142857142857</ele><time>2026-04-19T09:28:12.998Z</time></trkpt><trkpt lat="43.452570816021435" lon="10.576605113938237"><ele>335.57142857142856</ele><time>2026-04-19T09:28:13.998Z</time></trkpt><trkpt lat="43.45262487891488" lon="10.576557345081675"><ele>337.42857142857144</ele><time>2026-04-19T09:28:14.998Z</time></trkpt><trkpt lat="43.452737443367056" lon="10.576495156449461"><ele>339.2857142857143</ele><time>2026-04-19T09:28:16.998Z</time></trkpt><trkpt lat="43.45280051336737" lon="10.576486058643718"><ele>341.14285714285717</ele><time>2026-04-19T09:28:17.998Z</time></trkpt><trkpt lat="43.45286400018559" lon="10.576505650845988"><ele>343.0</ele><time>2026-04-19T09:28:18.998Z</time></trkpt><trkpt lat="43.45292487195728" lon="10.576541624207907"><ele>345.66666666666663</ele><time>2026-04-19T09:28:19.998Z</time></trkpt><trkpt lat="43.453022553921656" lon="10.576641880211142"><ele>348.3333333333333</ele><time>2026-04-19T09:28:21.998Z</time></trkpt><trkpt lat="43.453073532704146" lon="10.576697290368124"><ele>351.0</ele><time>2026-04-19T09:28:22.998Z</time></trkpt><trkpt lat="43.45313722850281" lon="10.576723691051308"><ele>353.6666666666667</ele><time>2026-04-19T09:28:23.998Z</time></trkpt><trkpt lat="43.4532096836876" lon="10.576723853769591"><ele>356.33333333333337</ele><time>2026-04-19T09:28:24.998Z</time></trkpt><trkpt lat="43.45327616904925" lon="10.576730567941603"><ele>359.0</ele><time>2026-04-19T09:28:25.998Z</time></trkpt><trkpt lat="43.45334266304801" lon="10.576741299093914"><ele>359.0</ele><time>2026-04-19T09:28:26.998Z</time></trkpt><trkpt lat="43.453405078211254" lon="10.576774046809547"><ele>359.0</ele><time>2026-04-19T09:28:27.998Z</time></trkpt><trkpt lat="43.45346416304802" lon="10.57682021982613"><ele>359.0</ele><time>2026-04-19T09:28:28.998Z</time></trkpt><trkpt lat="43.453522404167614" lon="10.576860247067472"><ele>359.0</ele><time>2026-04-19T09:28:29.998Z</time></trkpt><trkpt lat="43.45357701442729" lon="10.576905750844366"><ele>359.0</ele><time>2026-04-19T09:28:30.998Z</time></trkpt><trkpt lat="43.45362008144676" lon="10.576975587434575"><ele>359.0</ele><time>2026-04-19T09:28:31.998Z</time></trkpt><trkpt lat="43.45366225598945" lon="10.57704551338849"><ele>359.0</ele><time>2026-04-19T09:28:32.998Z</time></trkpt><trkpt lat="43.45370201233761" lon="10.577118783363556"><ele>358.6</ele><time>2026-04-19T09:28:33.998Z</time></trkpt><trkpt lat="43.4537408651426" lon="10.57719143979159"><ele>358.2</ele><time>2026-04-19T09:28:34.998Z</time></trkpt><trkpt lat="43.4538042114645" lon="10.577314747277889"><ele>357.8</ele><time>2026-04-19T09:28:36.998Z</time></trkpt><trkpt lat="43.453872439594065" lon="10.57743387057721"><ele>357.40000000000003</ele><time>2026-04-19T09:28:38.998Z</time></trkpt><trkpt lat="43.45393414687814" lon="10.57758656007751"><ele>357.0</ele><time>2026-04-19T09:28:40.998Z</time></trkpt><trkpt lat="43.453965586139155" lon="10.57766962357709"><ele>359.6666666666667</ele><time>2026-04-19T09:28:41.998Z</time></trkpt><trkpt lat="43.45397439961947" lon="10.577764374875152"><ele>362.3333333333333</ele><time>2026-04-19T09:28:42.998Z</time></trkpt><trkpt lat="43.4539898482017" lon="10.577858969645998"><ele>365.0</ele><time>2026-04-19T09:28:43.998Z</time></trkpt><trkpt lat="43.454003722948656" lon="10.577961205018749"><ele>367.66666666666663</ele><time>2026-04-19T09:28:44.998Z</time></trkpt><trkpt lat="43.45403413862545" lon="10.578060336266219"><ele>370.3333333333333</ele><time>2026-04-19T09:28:45.998Z</time></trkpt><trkpt lat="43.45405068345449" lon="10.578166341468123"><ele>373.0</ele><time>2026-04-19T09:28:46.998Z</time></trkpt><trkpt lat="43.45408289534496" lon="10.578277707977422"><ele>373.0</ele><time>2026-04-19T09:28:47.998Z</time></trkpt><trkpt lat="43.4541213404346" lon="10.578384286668001"><ele>373.0</ele><time>2026-04-19T09:28:48.998Z</time></trkpt><trkpt lat="43.45415780065247" lon="10.578486923958112"><ele>373.0</ele><time>2026-04-19T09:28:49.998Z</time></trkpt><trkpt lat="43.454194801697604" lon="10.57858490598632"><ele>373.0</ele><time>2026-04-19T09:28:50.998Z</time></trkpt><trkpt lat="43.45423312865147" lon="10.578685127539142"><ele>373.0</ele><time>2026-04-19T09:28:51.998Z</time></trkpt><trkpt lat="43.45427214290164" lon="10.57878608436358"><ele>373.0</ele><time>2026-04-19T09:28:52.998Z</time></trkpt><trkpt lat="43.45431518153661" lon="10.578885768511968"><ele>373.0</ele><time>2026-04-19T09:28:53.998Z</time></trkpt><trkpt lat="43.45436807928574" lon="10.57897641448726"><ele>373.0</ele><time>2026-04-19T09:28:54.998Z</time></trkpt><trkpt lat="43.45442974930335" lon="10.579059038395622"><ele>373.0</ele><time>2026-04-19T09:28:55.998Z</time></trkpt><trkpt lat="43.4544946884218" lon="10.57913607131856"><ele>373.0</ele><time>2026-04-19T09:28:56.998Z</time></trkpt><trkpt lat="43.454561265071064" lon="10.579206522118275"><ele>373.0</ele><time>2026-04-19T09:28:57.998Z</time></trkpt><trkpt lat="43.45462691950255" lon="10.579271757725296"><ele>373.0</ele><time>2026-04-19T09:28:58.998Z</time></trkpt><trkpt lat="43.454695487281896" lon="10.57933492446765"><ele>373.66666666666663</ele><time>2026-04-19T09:28:59.998Z</time></trkpt><trkpt lat="43.45476040108996" lon="10.579392666210895"><ele>374.3333333333333</ele><time>2026-04-19T09:29:00.998Z</time></trkpt><trkpt lat="43.454799325485325" lon="10.579470536152497"><ele>375.0</ele><time>2026-04-19T09:29:01.998Z</time></trkpt><trkpt lat="43.45481948358987" lon="10.579556800232844"><ele>375.6666666666667</ele><time>2026-04-19T09:29:02.998Z</time></trkpt><trkpt lat="43.454808619932706" lon="10.579649469806936"><ele>376.33333333333337</ele><time>2026-04-19T09:29:03.998Z</time></trkpt><trkpt lat="43.45474756054635" lon="10.579733058623914"><ele>377.0</ele><time>2026-04-19T09:29:04.998Z</time></trkpt><trkpt lat="43.45472901473671" lon="10.57985424048968"><ele>379.0</ele><time>2026-04-19T09:29:05.998Z</time></trkpt><trkpt lat="43.45472571947001" lon="10.579966839014066"><ele>381.0</ele><time>2026-04-19T09:29:06.998Z</time></trkpt><trkpt lat="43.45473233472401" lon="10.580083658686016"><ele>383.0</ele><time>2026-04-19T09:29:07.998Z</time></trkpt><trkpt lat="43.454727598482236" lon="10.580200173439618"><ele>385.0</ele><time>2026-04-19T09:29:08.998Z</time></trkpt><trkpt lat="43.45469963168814" lon="10.580313344051087"><ele>386.99999999999994</ele><time>2026-04-19T09:29:09.998Z</time></trkpt><trkpt lat="43.454696570065174" lon="10.580419633217394"><ele>389.0</ele><time>2026-04-19T09:29:10.998Z</time></trkpt><trkpt lat="43.454705942082384" lon="10.58051381318784"><ele>390.8333333333333</ele><time>2026-04-19T09:29:11.998Z</time></trkpt><trkpt lat="43.45473523631714" lon="10.580600912625657"><ele>392.66666666666663</ele><time>2026-04-19T09:29:12.998Z</time></trkpt><trkpt lat="43.45478605148511" lon="10.580678186664233"><ele>394.5</ele><time>2026-04-19T09:29:13.999Z</time></trkpt><trkpt lat="43.45484328205626" lon="10.58073355916553"><ele>396.33333333333337</ele><time>2026-04-19T09:29:14.999Z</time></trkpt><trkpt lat="43.45492990043945" lon="10.580824683342605"><ele>398.1666666666667</ele><time>2026-04-19T09:29:16.999Z</time></trkpt><trkpt lat="43.45500621046235" lon="10.580938713023574"><ele>400.0</ele><time>2026-04-19T09:29:18.999Z</time></trkpt><trkpt lat="43.455039796654845" lon="10.581086247680194"><ele>400.00000000000006</ele><time>2026-04-19T09:29:20.999Z</time></trkpt><trkpt lat="43.45507795950854" lon="10.58115788384874"><ele>400.0</ele><time>2026-04-19T09:29:21.999Z</time></trkpt><trkpt lat="43.45510457674797" lon="10.581237289455407"><ele>400.0</ele><time>2026-04-19T09:29:22.999Z</time></trkpt><trkpt lat="43.45513914707214" lon="10.581315847909316"><ele>400.0</ele><time>2026-04-19T09:29:23.999Z</time></trkpt><trkpt lat="43.45517259086829" lon="10.581399702046006"><ele>400.0</ele><time>2026-04-19T09:29:24.995Z</time></trkpt><trkpt lat="43.455203883379944" lon="10.581488862915998"><ele>400.00000000000006</ele><time>2026-04-19T09:29:25.995Z</time></trkpt><trkpt lat="43.45522930469447" lon="10.581582045389823"><ele>400.0</ele><time>2026-04-19T09:29:26.995Z</time></trkpt><trkpt lat="43.45524932241697" lon="10.581675598122054"><ele>401.1666666666667</ele><time>2026-04-19T09:29:27.995Z</time></trkpt><trkpt lat="43.45526659199871" lon="10.581763024481377"><ele>402.33333333333337</ele><time>2026-04-19T09:29:28.995Z</time></trkpt><trkpt lat="43.4552894548252" lon="10.581915714489755"><ele>403.5</ele><time>2026-04-19T09:29:30.995Z</time></trkpt><trkpt lat="43.45531469749535" lon="10.582001194997769"><ele>404.66666666666663</ele><time>2026-04-19T09:29:31.995Z</time></trkpt><trkpt lat="43.45533355605967" lon="10.582101119642294"><ele>405.8333333333333</ele><time>2026-04-19T09:29:32.996Z</time></trkpt><trkpt lat="43.4553493748601" lon="10.582216095038133"><ele>407.0</ele><time>2026-04-19T09:29:33.996Z</time></trkpt><trkpt lat="43.45535318553245" lon="10.582342136715987"><ele>407.40000000000003</ele><time>2026-04-19T09:29:34.996Z</time></trkpt><trkpt lat="43.4553641290546" lon="10.582469101603534"><ele>407.8</ele><time>2026-04-19T09:29:35.996Z</time></trkpt><trkpt lat="43.45537520411094" lon="10.582606361163402"><ele>408.2</ele><time>2026-04-19T09:29:36.996Z</time></trkpt><trkpt lat="43.45540570921595" lon="10.582739321640176"><ele>408.6</ele><time>2026-04-19T09:29:37.996Z</time></trkpt><trkpt lat="43.455417728704106" lon="10.582873830374321"><ele>409.0</ele><time>2026-04-19T09:29:38.996Z</time></trkpt><trkpt lat="43.45541300663657" lon="10.583010018427252"><ele>410.00000000000006</ele><time>2026-04-19T09:29:39.996Z</time></trkpt><trkpt lat="43.45536346719282" lon="10.583132047417013"><ele>411.0</ele><time>2026-04-19T09:29:40.996Z</time></trkpt><trkpt lat="43.45534390021934" lon="10.583252494483911"><ele>412.0</ele><time>2026-04-19T09:29:41.996Z</time></trkpt><trkpt lat="43.455343892378885" lon="10.583358281859812"><ele>413.0</ele><time>2026-04-19T09:29:42.996Z</time></trkpt><trkpt lat="43.455348904909116" lon="10.583456499440139"><ele>414.00000000000006</ele><time>2026-04-19T09:29:43.997Z</time></trkpt><trkpt lat="43.45536444842851" lon="10.583550327912908"><ele>415.0</ele><time>2026-04-19T09:29:44.997Z</time></trkpt><trkpt lat="43.45539070557424" lon="10.583726122366906"><ele>416.50000000000006</ele><time>2026-04-19T09:29:46.997Z</time></trkpt><trkpt lat="43.455383096327765" lon="10.583820253801168"><ele>418.0</ele><time>2026-04-19T09:29:47.997Z</time></trkpt><trkpt lat="43.45540425592513" lon="10.58391801663476"><ele>419.5</ele><time>2026-04-19T09:29:48.997Z</time></trkpt><trkpt lat="43.45540688574353" lon="10.584029800004096"><ele>421.0</ele><time>2026-04-19T09:29:49.997Z</time></trkpt><trkpt lat="43.455417388780525" lon="10.584150524087192"><ele>422.50000000000006</ele><time>2026-04-19T09:29:50.997Z</time></trkpt><trkpt lat="43.45543663818309" lon="10.58425809596185"><ele>424.0</ele><time>2026-04-19T09:29:51.997Z</time></trkpt><trkpt lat="43.45546950672877" lon="10.5843381682464"><ele>424.00000000000006</ele><time>2026-04-19T09:29:52.997Z</time></trkpt><trkpt lat="43.45550105947732" lon="10.584420453359787"><ele>424.0</ele><time>2026-04-19T09:29:53.997Z</time></trkpt><trkpt lat="43.45553546913205" lon="10.584510520982729"><ele>424.0</ele><time>2026-04-19T09:29:54.997Z</time></trkpt><trkpt lat="43.455573805952014" lon="10.584598632436697"><ele>424.0</ele><time>2026-04-19T09:29:55.997Z</time></trkpt><trkpt lat="43.45560725378703" lon="10.58469253258331"><ele>424.00000000000006</ele><time>2026-04-19T09:29:56.997Z</time></trkpt><trkpt lat="43.45563695380532" lon="10.584791013101206"><ele>424.0</ele><time>2026-04-19T09:29:57.997Z</time></trkpt><trkpt lat="43.455668161786065" lon="10.584893312018124"><ele>425.33333333333337</ele><time>2026-04-19T09:29:58.997Z</time></trkpt><trkpt lat="43.455710024024185" lon="10.584992840325352"><ele>426.6666666666667</ele><time>2026-04-19T09:29:59.998Z</time></trkpt><trkpt lat="43.45575481711588" lon="10.585093262420973"><ele>428.0</ele><time>2026-04-19T09:30:00.998Z</time></trkpt><trkpt lat="43.4558033008495" lon="10.585191655256175"><ele>429.33333333333337</ele><time>2026-04-19T09:30:01.998Z</time></trkpt><trkpt lat="43.45585320320116" lon="10.585290340154145"><ele>430.6666666666667</ele><time>2026-04-19T09:30:02.998Z</time></trkpt><trkpt lat="43.4558941452113" lon="10.585388591101681"><ele>432.0</ele><time>2026-04-19T09:30:03.998Z</time></trkpt><trkpt lat="43.455927990951636" lon="10.58548896871695"><ele>433.0</ele><time>2026-04-19T09:30:04.998Z</time></trkpt><trkpt lat="43.455960905100326" lon="10.585588857398644"><ele>434.0</ele><time>2026-04-19T09:30:05.998Z</time></trkpt><trkpt lat="43.455991935795915" lon="10.58568801099539"><ele>435.0</ele><time>2026-04-19T09:30:06.998Z</time></trkpt><trkpt lat="43.45602114643818" lon="10.585791585751803"><ele>436.0</ele><time>2026-04-19T09:30:07.998Z</time></trkpt><trkpt lat="43.456051820674276" lon="10.58589988673067"><ele>437.0</ele><time>2026-04-19T09:30:08.998Z</time></trkpt><trkpt lat="43.456087358485505" lon="10.586013078802326"><ele>438.0</ele><time>2026-04-19T09:30:09.998Z</time></trkpt><trkpt lat="43.456124650673715" lon="10.58612879029591"><ele>438.59999999999997</ele><time>2026-04-19T09:30:10.998Z</time></trkpt><trkpt lat="43.45616664024279" lon="10.586238260154744"><ele>439.19999999999993</ele><time>2026-04-19T09:30:11.998Z</time></trkpt><trkpt lat="43.45621060729513" lon="10.586344310237488"><ele>439.8</ele><time>2026-04-19T09:30:12.998Z</time></trkpt><trkpt lat="43.456262200914246" lon="10.586445694769045"><ele>440.4</ele><time>2026-04-19T09:30:13.998Z</time></trkpt><trkpt lat="43.45631705346061" lon="10.58654910538451"><ele>441.0</ele><time>2026-04-19T09:30:14.998Z</time></trkpt><trkpt lat="43.4563768609752" lon="10.58665899907012"><ele>441.1666666666667</ele><time>2026-04-19T09:30:15.998Z</time></trkpt><trkpt lat="43.456440822332056" lon="10.586770794183956"><ele>441.33333333333337</ele><time>2026-04-19T09:30:16.998Z</time></trkpt><trkpt lat="43.45649288491726" lon="10.586862680882918"><ele>441.5</ele><time>2026-04-19T09:30:17.998Z</time></trkpt><trkpt lat="43.45653325773632" lon="10.586958808304995"><ele>441.6666666666667</ele><time>2026-04-19T09:30:18.998Z</time></trkpt><trkpt lat="43.45656640110544" lon="10.587063196422129"><ele>441.83333333333337</ele><time>2026-04-19T09:30:19.998Z</time></trkpt><trkpt lat="43.45658848016554" lon="10.587165869108544"><ele>442.0</ele><time>2026-04-19T09:30:20.998Z</time></trkpt><trkpt lat="43.4566060630913" lon="10.587274961330404"><ele>444.1666666666667</ele><time>2026-04-19T09:30:21.998Z</time></trkpt><trkpt lat="43.4566243508729" lon="10.587380974991094"><ele>446.33333333333337</ele><time>2026-04-19T09:30:22.998Z</time></trkpt><trkpt lat="43.456643374898036" lon="10.58748351856463"><ele>448.5</ele><time>2026-04-19T09:30:23.998Z</time></trkpt><trkpt lat="43.45666173210191" lon="10.587576747501677"><ele>450.66666666666663</ele><time>2026-04-19T09:30:24.998Z</time></trkpt><trkpt lat="43.45668183540284" lon="10.587680506130924"><ele>452.8333333333333</ele><time>2026-04-19T09:30:25.998Z</time></trkpt><trkpt lat="43.45670411280566" lon="10.587778329564804"><ele>455.0</ele><time>2026-04-19T09:30:26.998Z</time></trkpt><trkpt lat="43.45674732288337" lon="10.587859741327827"><ele>457.49999999999994</ele><time>2026-04-19T09:30:27.998Z</time></trkpt><trkpt lat="43.45680726336387" lon="10.587941327642248"><ele>460.0</ele><time>2026-04-19T09:30:28.998Z</time></trkpt><trkpt lat="43.45687235717043" lon="10.588005789742882"><ele>462.5</ele><time>2026-04-19T09:30:29.998Z</time></trkpt><trkpt lat="43.45693782994483" lon="10.588068353137434"><ele>465.0</ele><time>2026-04-19T09:30:30.998Z</time></trkpt><trkpt lat="43.456999993877545" lon="10.588129808708665"><ele>467.49999999999994</ele><time>2026-04-19T09:30:31.998Z</time></trkpt><trkpt lat="43.45705888924321" lon="10.58819155788676"><ele>470.0</ele><time>2026-04-19T09:30:32.998Z</time></trkpt><trkpt lat="43.457116573885266" lon="10.588243097982426"><ele>469.0</ele><time>2026-04-19T09:30:33.998Z</time></trkpt><trkpt lat="43.45719761616943" lon="10.588343597512518"><ele>468.0</ele><time>2026-04-19T09:30:35.998Z</time></trkpt><trkpt lat="43.45725456610352" lon="10.588452123833545"><ele>467.0</ele><time>2026-04-19T09:30:37.999Z</time></trkpt><trkpt lat="43.45733287127767" lon="10.588578339056191"><ele>466.0</ele><time>2026-04-19T09:30:39.999Z</time></trkpt><trkpt lat="43.457380658172674" lon="10.58864919170953"><ele>465.0</ele><time>2026-04-19T09:30:40.999Z</time></trkpt><trkpt lat="43.45744279431268" lon="10.588696650674283"><ele>468.3333333333333</ele><time>2026-04-19T09:30:41.999Z</time></trkpt><trkpt lat="43.4575164557657" lon="10.588714142445255"><ele>471.66666666666663</ele><time>2026-04-19T09:30:42.999Z</time></trkpt><trkpt lat="43.45759032023407" lon="10.588724125753345"><ele>475.0</ele><time>2026-04-19T09:30:43.999Z</time></trkpt><trkpt lat="43.45766588633558" lon="10.588755589096175"><ele>478.3333333333333</ele><time>2026-04-19T09:30:44.999Z</time></trkpt><trkpt lat="43.45774012468758" lon="10.588810834248187"><ele>481.66666666666663</ele><time>2026-04-19T09:30:45.999Z</time></trkpt><trkpt lat="43.4578084983746" lon="10.588873492373954"><ele>485.0</ele><time>2026-04-19T09:30:46.999Z</time></trkpt><trkpt lat="43.457872736528856" lon="10.588949273648883"><ele>484.99999999999994</ele><time>2026-04-19T09:30:47.999Z</time></trkpt><trkpt lat="43.45793951302701" lon="10.58902891974309"><ele>485.0</ele><time>2026-04-19T09:30:48.999Z</time></trkpt><trkpt lat="43.45800419722528" lon="10.589131773650907"><ele>485.0</ele><time>2026-04-19T09:30:49.999Z</time></trkpt><trkpt lat="43.458059197102884" lon="10.589228622331788"><ele>485.0</ele><time>2026-04-19T09:30:50.999Z</time></trkpt><trkpt lat="43.45810483054193" lon="10.589313494805639"><ele>484.99999999999994</ele><time>2026-04-19T09:30:51.999Z</time></trkpt><trkpt lat="43.458151561539616" lon="10.58939224152876"><ele>485.0</ele><time>2026-04-19T09:30:52.999Z</time></trkpt><trkpt lat="43.45820343889415" lon="10.58947610376813"><ele>485.49999999999994</ele><time>2026-04-19T09:30:53.999Z</time></trkpt><trkpt lat="43.458249475762834" lon="10.589584608302067"><ele>486.0</ele><time>2026-04-19T09:30:54.999Z</time></trkpt><trkpt lat="43.45828284679527" lon="10.589696267965797"><ele>486.5</ele><time>2026-04-19T09:30:55.999Z</time></trkpt><trkpt lat="43.45833102191301" lon="10.589782695022508"><ele>487.0</ele><time>2026-04-19T09:30:56.999Z</time></trkpt><trkpt lat="43.45838205194231" lon="10.589838565528838"><ele>487.49999999999994</ele><time>2026-04-19T09:30:57.999Z</time></trkpt><trkpt lat="43.45849918845229" lon="10.58988403707899"><ele>488.0</ele><time>2026-04-19T09:30:59.999Z</time></trkpt><trkpt lat="43.45855688880449" lon="10.5899281936772"><ele>487.99999999999994</ele><time>2026-04-19T09:31:00.999Z</time></trkpt><trkpt lat="43.458616166540615" lon="10.590003155587878"><ele>488.0</ele><time>2026-04-19T09:31:01.999Z</time></trkpt><trkpt lat="43.458669809033054" lon="10.590100326963949"><ele>488.0</ele><time>2026-04-19T09:31:02.999Z</time></trkpt><trkpt lat="43.4587040975336" lon="10.590214985847439"><ele>488.0</ele><time>2026-04-19T09:31:03.999Z</time></trkpt><trkpt lat="43.4587434257809" lon="10.590322809486596"><ele>487.99999999999994</ele><time>2026-04-19T09:31:04.999Z</time></trkpt><trkpt lat="43.458795868650384" lon="10.590426024641761"><ele>488.0</ele><time>2026-04-19T09:31:05.999Z</time></trkpt><trkpt lat="43.45883506605075" lon="10.590542670562593"><ele>488.0</ele><time>2026-04-19T09:31:06.999Z</time></trkpt><trkpt lat="43.45892360282948" lon="10.590609723099522"><ele>487.99999999999994</ele><time>2026-04-19T09:31:07.999Z</time></trkpt><trkpt lat="43.459004767872564" lon="10.59068234703083"><ele>487.99999999999994</ele><time>2026-04-19T09:31:08.999Z</time></trkpt><trkpt lat="43.45908199345519" lon="10.590745184902138"><ele>488.0</ele><time>2026-04-19T09:31:09.999Z</time></trkpt><trkpt lat="43.45918022298487" lon="10.590758914834662"><ele>488.0</ele><time>2026-04-19T09:31:10.999Z</time></trkpt><trkpt lat="43.45926957365978" lon="10.590813337299547"><ele>488.0</ele><time>2026-04-19T09:31:11.999Z</time></trkpt><trkpt lat="43.45937182571418" lon="10.590846630773976"><ele>487.99999999999994</ele><time>2026-04-19T09:31:12.999Z</time></trkpt><trkpt lat="43.459471098055054" lon="10.590883333665886"><ele>487.99999999999994</ele><time>2026-04-19T09:31:13.999Z</time></trkpt><trkpt lat="43.459552517238045" lon="10.590953662751456"><ele>488.0</ele><time>2026-04-19T09:31:14.999Z</time></trkpt><trkpt lat="43.459623682118796" lon="10.591070395887447"><ele>488.0</ele><time>2026-04-19T09:31:15.999Z</time></trkpt><trkpt lat="43.45969379525742" lon="10.591202478252969"><ele>487.5</ele><time>2026-04-19T09:31:16.999Z</time></trkpt><trkpt lat="43.45978922659924" lon="10.591303501016233"><ele>487.0</ele><time>2026-04-19T09:31:17.999Z</time></trkpt><trkpt lat="43.45986983148427" lon="10.591431793729603"><ele>486.5</ele><time>2026-04-19T09:31:18.999Z</time></trkpt><trkpt lat="43.45993206776727" lon="10.591593027086937"><ele>486.0</ele><time>2026-04-19T09:31:19.999Z</time></trkpt><trkpt lat="43.45999137950958" lon="10.591753344369273"><ele>486.0</ele><time>2026-04-19T09:31:20.999Z</time></trkpt><trkpt lat="43.460048238764756" lon="10.591902307129336"><ele>486.0</ele><time>2026-04-19T09:31:21.999Z</time></trkpt><trkpt lat="43.46007855660716" lon="10.5920596243789"><ele>486.0</ele><time>2026-04-19T09:31:22.999Z</time></trkpt><trkpt lat="43.46008435860216" lon="10.592210736560478"><ele>486.0</ele><time>2026-04-19T09:31:23.999Z</time></trkpt><trkpt lat="43.46013405479702" lon="10.592326083625876"><ele>486.0</ele><time>2026-04-19T09:31:24.999Z</time></trkpt><trkpt lat="43.46022033368677" lon="10.592389782081845"><ele>486.4</ele><time>2026-04-19T09:31:25.999Z</time></trkpt><trkpt lat="43.46031283343399" lon="10.592409101577534"><ele>486.8</ele><time>2026-04-19T09:31:26.999Z</time></trkpt><trkpt lat="43.46041154106946" lon="10.592420226223602"><ele>487.19999999999993</ele><time>2026-04-19T09:31:27.999Z</time></trkpt><trkpt lat="43.460508911978536" lon="10.592430049022262"><ele>487.59999999999997</ele><time>2026-04-19T09:31:28.999Z</time></trkpt><trkpt lat="43.46060842555946" lon="10.592440685484785"><ele>488.0</ele><time>2026-04-19T09:31:29.999Z</time></trkpt><trkpt lat="43.460707696759805" lon="10.592456855519815"><ele>486.4</ele><time>2026-04-19T09:31:30.996Z</time></trkpt><trkpt lat="43.46080660367102" lon="10.59248081753603"><ele>484.79999999999995</ele><time>2026-04-19T09:31:31.996Z</time></trkpt><trkpt lat="43.460899265102874" lon="10.592503976861481"><ele>483.2</ele><time>2026-04-19T09:31:32.996Z</time></trkpt><trkpt lat="43.46098083096318" lon="10.592537386113246"><ele>481.6</ele><time>2026-04-19T09:31:33.996Z</time></trkpt><trkpt lat="43.461045868080355" lon="10.59256481236554"><ele>480.0</ele><time>2026-04-19T09:31:34.996Z</time></trkpt><trkpt lat="43.461143197390875" lon="10.592623705083692"><ele>480.0</ele><time>2026-04-19T09:31:36.996Z</time></trkpt><trkpt lat="43.46121808476312" lon="10.592709441586525"><ele>480.0</ele><time>2026-04-19T09:31:38.996Z</time></trkpt><trkpt lat="43.46127886358127" lon="10.592802320149554"><ele>480.0</ele><time>2026-04-19T09:31:40.996Z</time></trkpt><trkpt lat="43.46135412616589" lon="10.592819567816907"><ele>480.0</ele><time>2026-04-19T09:31:42.996Z</time></trkpt><trkpt lat="43.461431721767006" lon="10.592750491695623"><ele>480.0</ele><time>2026-04-19T09:31:44.997Z</time></trkpt><trkpt lat="43.461470378030604" lon="10.592611003762226"><ele>479.0</ele><time>2026-04-19T09:31:46.997Z</time></trkpt><trkpt lat="43.46150627053006" lon="10.592503326913844"><ele>478.0</ele><time>2026-04-19T09:31:48.997Z</time></trkpt><trkpt lat="43.461538636318785" lon="10.59241369645821"><ele>477.0</ele><time>2026-04-19T09:31:50.997Z</time></trkpt><trkpt lat="43.46159549941719" lon="10.592356234827978"><ele>476.0</ele><time>2026-04-19T09:32:02.998Z</time></trkpt><trkpt lat="43.461649212177505" lon="10.592309189807052"><ele>475.0</ele><time>2026-04-19T09:32:07.998Z</time></trkpt><trkpt lat="43.46170749776013" lon="10.592405024471951"><ele>474.0</ele><time>2026-04-19T09:32:10.998Z</time></trkpt><trkpt lat="43.46175748281143" lon="10.592488261936005"><ele>473.99999999999994</ele><time>2026-04-19T09:32:15.998Z</time></trkpt><trkpt lat="43.461800210369994" lon="10.592553126120457"><ele>474.0</ele><time>2026-04-19T09:32:19.999Z</time></trkpt><trkpt lat="43.46185169159444" lon="10.592631279069781"><ele>473.99999999999994</ele><time>2026-04-19T09:32:24.999Z</time></trkpt><trkpt lat="43.46190528243688" lon="10.592705600524376"><ele>473.99999999999994</ele><time>2026-04-19T09:32:29.999Z</time></trkpt><trkpt lat="43.461964930911996" lon="10.592786518637576"><ele>474.0</ele><time>2026-04-19T09:32:33.999Z</time></trkpt><trkpt lat="43.46201126618152" lon="10.59284937634359"><ele>473.99999999999994</ele><time>2026-04-19T09:32:35.999Z</time></trkpt><trkpt lat="43.462060795712276" lon="10.592903962175988"><ele>473.99999999999994</ele><time>2026-04-19T09:32:38.999Z</time></trkpt><trkpt lat="43.461964376109606" lon="10.594046631126353"><ele>473.2857142857142</ele><time>2026-04-19T09:33:32Z</time></trkpt><trkpt lat="43.46199669505758" lon="10.594139764825407"><ele>472.57142857142856</ele><time>2026-04-19T09:33:36.001Z</time></trkpt><trkpt lat="43.462022506945964" lon="10.594226309605629"><ele>471.85714285714283</ele><time>2026-04-19T09:33:40.997Z</time></trkpt><trkpt lat="43.462050328836426" lon="10.594304668897822"><ele>471.1428571428571</ele><time>2026-04-19T09:33:45.997Z</time></trkpt><trkpt lat="43.46207831806574" lon="10.594387554782813"><ele>470.42857142857144</ele><time>2026-04-19T09:33:51.998Z</time></trkpt><trkpt lat="43.4620766323842" lon="10.594475448244127"><ele>469.7142857142857</ele><time>2026-04-19T09:33:57.998Z</time></trkpt><trkpt lat="43.4620595502256" lon="10.594565298935207"><ele>469.0</ele><time>2026-04-19T09:34:07.998Z</time></trkpt><trkpt lat="43.46203330672367" lon="10.594652124089135"><ele>468.50000000000006</ele><time>2026-04-19T09:34:10.999Z</time></trkpt><trkpt lat="43.46202205054246" lon="10.594755848938926"><ele>468.0</ele><time>2026-04-19T09:34:14.999Z</time></trkpt><trkpt lat="43.46201768609535" lon="10.594848769266942"><ele>467.5</ele><time>2026-04-19T09:34:18.999Z</time></trkpt><trkpt lat="43.46200775054718" lon="10.594935513554711"><ele>467.0</ele><time>2026-04-19T09:34:22.999Z</time></trkpt><trkpt lat="43.46198722022694" lon="10.595053224563319"><ele>466.50000000000006</ele><time>2026-04-19T09:34:26.999Z</time></trkpt><trkpt lat="43.46199680219806" lon="10.595162957965218"><ele>466.0</ele><time>2026-04-19T09:34:29.999Z</time></trkpt><trkpt lat="43.46201930981699" lon="10.595275894574476"><ele>465.28571428571433</ele><time>2026-04-19T09:34:32.999Z</time></trkpt><trkpt lat="43.462027592289594" lon="10.595382800183012"><ele>464.57142857142856</ele><time>2026-04-19T09:34:35.999Z</time></trkpt><trkpt lat="43.462028022254735" lon="10.595478028323711"><ele>463.8571428571429</ele><time>2026-04-19T09:34:38.999Z</time></trkpt><trkpt lat="43.46202517746358" lon="10.595576631800517"><ele>463.14285714285717</ele><time>2026-04-19T09:34:43Z</time></trkpt><trkpt lat="43.46202842289105" lon="10.595673742296626"><ele>462.42857142857144</ele><time>2026-04-19T09:34:47Z</time></trkpt><trkpt lat="43.462020526214516" lon="10.59578004671698"><ele>461.7142857142857</ele><time>2026-04-19T09:34:50Z</time></trkpt><trkpt lat="43.46200982348121" lon="10.595892857018699"><ele>461.0</ele><time>2026-04-19T09:34:53Z</time></trkpt><trkpt lat="43.46200363879034" lon="10.59597979202933"><ele>460.99999999999994</ele><time>2026-04-19T09:34:56Z</time></trkpt><trkpt lat="43.46200901181616" lon="10.596104972244563"><ele>461.0</ele><time>2026-04-19T09:34:59Z</time></trkpt><trkpt lat="43.46203435822875" lon="10.596190630113663"><ele>461.0</ele><time>2026-04-19T09:35:01Z</time></trkpt><trkpt lat="43.46206114360246" lon="10.596280156680432"><ele>461.0</ele><time>2026-04-19T09:35:04Z</time></trkpt><trkpt lat="43.462083886743265" lon="10.596386152422642"><ele>460.99999999999994</ele><time>2026-04-19T09:35:08Z</time></trkpt><trkpt lat="43.46211228772089" lon="10.596480742961399"><ele>461.0</ele><time>2026-04-19T09:35:13Z</time></trkpt><trkpt lat="43.46213481763744" lon="10.59657848760141"><ele>461.16666666666663</ele><time>2026-04-19T09:35:17.001Z</time></trkpt><trkpt lat="43.462157469485106" lon="10.596665971625976"><ele>461.3333333333333</ele><time>2026-04-19T09:35:20.001Z</time></trkpt><trkpt lat="43.46219001137611" lon="10.596770200523329"><ele>461.5</ele><time>2026-04-19T09:35:24.001Z</time></trkpt><trkpt lat="43.46221350643993" lon="10.596878701843623"><ele>461.66666666666663</ele><time>2026-04-19T09:35:28.001Z</time></trkpt><trkpt lat="43.46223841599471" lon="10.596984302920601"><ele>461.8333333333333</ele><time>2026-04-19T09:35:32.001Z</time></trkpt><trkpt lat="43.46226014486019" lon="10.597098938890266"><ele>462.0</ele><time>2026-04-19T09:35:36.001Z</time></trkpt><trkpt lat="43.462278736565644" lon="10.597202897096475"><ele>460.8571428571429</ele><time>2026-04-19T09:35:39.001Z</time></trkpt><trkpt lat="43.462311265953204" lon="10.597288843021644"><ele>459.7142857142857</ele><time>2026-04-19T09:35:42.001Z</time></trkpt><trkpt lat="43.46234854473635" lon="10.597370486395857"><ele>458.57142857142856</ele><time>2026-04-19T09:35:44.998Z</time></trkpt><trkpt lat="43.46238291169396" lon="10.597461295646394"><ele>457.42857142857144</ele><time>2026-04-19T09:35:47.998Z</time></trkpt><trkpt lat="43.462415972481736" lon="10.597556485139688"><ele>456.28571428571433</ele><time>2026-04-19T09:35:51.998Z</time></trkpt><trkpt lat="43.46246570255383" lon="10.597621530926995"><ele>455.14285714285717</ele><time>2026-04-19T09:36:00.998Z</time></trkpt><trkpt lat="43.46251754141282" lon="10.597677497313713"><ele>454.0</ele><time>2026-04-19T09:36:07.999Z</time></trkpt><trkpt lat="43.462529964805" lon="10.597773437622996"><ele>453.7142857142857</ele><time>2026-04-19T09:36:15.999Z</time></trkpt><trkpt lat="43.462476823250064" lon="10.597846998466354"><ele>453.42857142857144</ele><time>2026-04-19T09:36:20Z</time></trkpt><trkpt lat="43.46244435105986" lon="10.597930683011374"><ele>453.14285714285717</ele><time>2026-04-19T09:36:24Z</time></trkpt><trkpt lat="43.46241528317886" lon="10.598026833187614"><ele>452.8571428571429</ele><time>2026-04-19T09:37:06.001Z</time></trkpt><trkpt lat="43.46237912774415" lon="10.59812304492682"><ele>452.57142857142856</ele><time>2026-04-19T09:37:10.001Z</time></trkpt><trkpt lat="43.46238605026415" lon="10.59822965419323"><ele>452.28571428571433</ele><time>2026-04-19T09:37:18.002Z</time></trkpt><trkpt lat="43.4623984796399" lon="10.598318698929075"><ele>452.0</ele><time>2026-04-19T09:37:22.002Z</time></trkpt><trkpt lat="43.46241627998816" lon="10.59840408595594"><ele>452.0</ele><time>2026-04-19T09:37:26.002Z</time></trkpt><trkpt lat="43.462443753562226" lon="10.59849229261368"><ele>452.0</ele><time>2026-04-19T09:37:30.002Z</time></trkpt><trkpt lat="43.46246069279003" lon="10.598577832672092"><ele>452.0</ele><time>2026-04-19T09:37:35.002Z</time></trkpt><trkpt lat="43.46245220062325" lon="10.598680183932142"><ele>452.0</ele><time>2026-04-19T09:37:41.002Z</time></trkpt><trkpt lat="43.46243118074614" lon="10.59876248939117"><ele>452.0</ele><time>2026-04-19T09:37:46.002Z</time></trkpt><trkpt lat="43.46243074611968" lon="10.598859322333896"><ele>452.0</ele><time>2026-04-19T09:37:50.999Z</time></trkpt><trkpt lat="43.46246295236058" lon="10.598935629363087"><ele>452.0</ele><time>2026-04-19T09:37:57.999Z</time></trkpt><trkpt lat="43.46249676321069" lon="10.599010139010655"><ele>451.7142857142857</ele><time>2026-04-19T09:38:01.999Z</time></trkpt><trkpt lat="43.46252847135162" lon="10.599103857398791"><ele>451.42857142857144</ele><time>2026-04-19T09:38:06Z</time></trkpt><trkpt lat="43.46254532192671" lon="10.599205208836233"><ele>451.14285714285717</ele><time>2026-04-19T09:38:10Z</time></trkpt><trkpt lat="43.46251303539062" lon="10.599292914873237"><ele>450.8571428571429</ele><time>2026-04-19T09:38:13Z</time></trkpt><trkpt lat="43.46249492750217" lon="10.599407239240445"><ele>450.57142857142856</ele><time>2026-04-19T09:38:17Z</time></trkpt><trkpt lat="43.46249105492557" lon="10.599502643625371"><ele>450.28571428571433</ele><time>2026-04-19T09:38:21Z</time></trkpt><trkpt lat="43.462489506429236" lon="10.599593208873568"><ele>450.00000000000006</ele><time>2026-04-19T09:38:25Z</time></trkpt><trkpt lat="43.462485773044165" lon="10.599680404822404"><ele>449.28571428571433</ele><time>2026-04-19T09:38:29Z</time></trkpt><trkpt lat="43.46247544757463" lon="10.599773773780058"><ele>448.57142857142856</ele><time>2026-04-19T09:38:33Z</time></trkpt><trkpt lat="43.46245311189421" lon="10.599872084072718"><ele>447.8571428571429</ele><time>2026-04-19T09:38:37.001Z</time></trkpt><trkpt lat="43.4624298807637" lon="10.599964807777456"><ele>447.14285714285717</ele><time>2026-04-19T09:38:40.001Z</time></trkpt><trkpt lat="43.462381908160836" lon="10.600049310535377"><ele>446.42857142857144</ele><time>2026-04-19T09:38:48.001Z</time></trkpt><trkpt lat="43.462362475194155" lon="10.600154105422606"><ele>445.7142857142857</ele><time>2026-04-19T09:38:52.001Z</time></trkpt><trkpt lat="43.46239330196081" lon="10.600239622615838"><ele>445.0</ele><time>2026-04-19T09:38:58.001Z</time></trkpt><trkpt lat="43.46243989192749" lon="10.60032494148676"><ele>444.8571428571429</ele><time>2026-04-19T09:39:43.003Z</time></trkpt><trkpt lat="43.46245051036555" lon="10.600431335278703"><ele>444.71428571428567</ele><time>2026-04-19T09:39:47.003Z</time></trkpt><trkpt lat="43.46242994209835" lon="10.600530442688065"><ele>444.57142857142856</ele><time>2026-04-19T09:39:51.003Z</time></trkpt><trkpt lat="43.46240686811239" lon="10.60061952152183"><ele>444.42857142857144</ele><time>2026-04-19T09:39:55Z</time></trkpt><trkpt lat="43.46239552341985" lon="10.600716213394856"><ele>444.28571428571433</ele><time>2026-04-19T09:40:03Z</time></trkpt><trkpt lat="43.462398323383546" lon="10.600814238666608"><ele>444.1428571428571</ele><time>2026-04-19T09:40:09Z</time></trkpt><trkpt lat="43.46239084251716" lon="10.60091860849226"><ele>444.0</ele><time>2026-04-19T09:40:14Z</time></trkpt><trkpt lat="43.46236939892721" lon="10.60101375006167"><ele>444.0</ele><time>2026-04-19T09:40:17Z</time></trkpt><trkpt lat="43.46233997501293" lon="10.601094852476672"><ele>444.0</ele><time>2026-04-19T09:40:20Z</time></trkpt><trkpt lat="43.46230840949701" lon="10.601172101443861"><ele>444.0</ele><time>2026-04-19T09:40:24Z</time></trkpt><trkpt lat="43.46227766841437" lon="10.601251069046999"><ele>444.0</ele><time>2026-04-19T09:40:27Z</time></trkpt><trkpt lat="43.46224070630035" lon="10.601326850706801"><ele>444.0</ele><time>2026-04-19T09:40:30Z</time></trkpt><trkpt lat="43.462200295488536" lon="10.601426204327272"><ele>444.0</ele><time>2026-04-19T09:40:34Z</time></trkpt><trkpt lat="43.46219931220938" lon="10.601528175620277"><ele>444.0</ele><time>2026-04-19T09:40:38.001Z</time></trkpt><trkpt lat="43.46221594181654" lon="10.601615344257212"><ele>442.3333333333333</ele><time>2026-04-19T09:40:41.001Z</time></trkpt><trkpt lat="43.46221577906748" lon="10.601719327910795"><ele>440.66666666666663</ele><time>2026-04-19T09:40:44.001Z</time></trkpt><trkpt lat="43.4622236687742" lon="10.601822716413823"><ele>439.0</ele><time>2026-04-19T09:40:47.001Z</time></trkpt><trkpt lat="43.462237658887354" lon="10.601923148946867"><ele>437.3333333333333</ele><time>2026-04-19T09:40:50.001Z</time></trkpt><trkpt lat="43.462237002857286" lon="10.602034699461676"><ele>435.66666666666663</ele><time>2026-04-19T09:40:53.001Z</time></trkpt><trkpt lat="43.4622396838815" lon="10.602122683284787"><ele>434.0</ele><time>2026-04-19T09:40:55.001Z</time></trkpt><trkpt lat="43.4622497716225" lon="10.602236877604708"><ele>434.14285714285717</ele><time>2026-04-19T09:40:58.001Z</time></trkpt><trkpt lat="43.46226312320294" lon="10.602332038452072"><ele>434.2857142857143</ele><time>2026-04-19T09:41:01.001Z</time></trkpt><trkpt lat="43.462272021540414" lon="10.602430831689295"><ele>434.42857142857144</ele><time>2026-04-19T09:41:04.001Z</time></trkpt><trkpt lat="43.46222552941888" lon="10.602513436859176"><ele>434.57142857142856</ele><time>2026-04-19T09:41:08.001Z</time></trkpt><trkpt lat="43.462159553537916" lon="10.602488581447348"><ele>434.7142857142857</ele><time>2026-04-19T09:41:11.001Z</time></trkpt><trkpt lat="43.46209816181282" lon="10.60242471630377"><ele>434.8571428571429</ele><time>2026-04-19T09:41:16.001Z</time></trkpt><trkpt lat="43.46203908507434" lon="10.602393132525789"><ele>435.0</ele><time>2026-04-19T09:41:19.002Z</time></trkpt><trkpt lat="43.46197272349362" lon="10.60239129367177"><ele>435.00000000000006</ele><time>2026-04-19T09:41:22.002Z</time></trkpt><trkpt lat="43.46191375090737" lon="10.602463137551618"><ele>435.0</ele><time>2026-04-19T09:41:26.002Z</time></trkpt><trkpt lat="43.46186450779067" lon="10.602561225125338"><ele>435.0</ele><time>2026-04-19T09:41:34.002Z</time></trkpt><trkpt lat="43.46185882028976" lon="10.602648544413865"><ele>435.0</ele><time>2026-04-19T09:41:37.002Z</time></trkpt><trkpt lat="43.46190085723237" lon="10.602561449400325"><ele>435.0</ele><time>2026-04-19T09:41:53.002Z</time></trkpt><trkpt lat="43.46193579980202" lon="10.602474041566387"><ele>435.00000000000006</ele><time>2026-04-19T09:41:58.003Z</time></trkpt><trkpt lat="43.46198376776092" lon="10.602417606322883"><ele>435.0</ele><time>2026-04-19T09:42:10Z</time></trkpt><trkpt lat="43.4620460207714" lon="10.602392165443977"><ele>435.00000000000006</ele><time>2026-04-19T09:42:14Z</time></trkpt><trkpt lat="43.46211217881263" lon="10.602407703508328"><ele>435.0</ele><time>2026-04-19T09:42:17Z</time></trkpt><trkpt lat="43.46217266150297" lon="10.60245041809824"><ele>435.0</ele><time>2026-04-19T09:42:19Z</time></trkpt><trkpt lat="43.46223493832265" lon="10.602493775508458"><ele>435.0</ele><time>2026-04-19T09:42:21Z</time></trkpt><trkpt lat="43.46230224056667" lon="10.602526939611408"><ele>435.0</ele><time>2026-04-19T09:42:23Z</time></trkpt><trkpt lat="43.46237188859476" lon="10.602582678941165"><ele>435.00000000000006</ele><time>2026-04-19T09:42:27Z</time></trkpt><trkpt lat="43.462426623716205" lon="10.602633489074911"><ele>435.0</ele><time>2026-04-19T09:42:29Z</time></trkpt><trkpt lat="43.46250172124862" lon="10.602713674093465"><ele>433.2</ele><time>2026-04-19T09:42:32Z</time></trkpt><trkpt lat="43.46257687933878" lon="10.602786210825395"><ele>431.4</ele><time>2026-04-19T09:42:34Z</time></trkpt><trkpt lat="43.46263079527372" lon="10.602891220759274"><ele>429.6</ele><time>2026-04-19T09:42:36Z</time></trkpt><trkpt lat="43.462644650521966" lon="10.603026599781694"><ele>427.8</ele><time>2026-04-19T09:42:38Z</time></trkpt><trkpt lat="43.46263360486567" lon="10.603163123374841"><ele>426.0</ele><time>2026-04-19T09:42:40Z</time></trkpt><trkpt lat="43.46256579085157" lon="10.603283329024617"><ele>426.0</ele><time>2026-04-19T09:42:42Z</time></trkpt><trkpt lat="43.46246152732975" lon="10.603390031064581"><ele>426.0</ele><time>2026-04-19T09:42:44Z</time></trkpt><trkpt lat="43.462405921380785" lon="10.6034446199369"><ele>426.0</ele><time>2026-04-19T09:42:45.001Z</time></trkpt><trkpt lat="43.462348698475125" lon="10.603497503197127"><ele>426.0</ele><time>2026-04-19T09:42:46.001Z</time></trkpt><trkpt lat="43.46229833028829" lon="10.603559967474368"><ele>426.0</ele><time>2026-04-19T09:42:47.001Z</time></trkpt><trkpt lat="43.46225721172879" lon="10.60363311892639"><ele>426.0</ele><time>2026-04-19T09:42:48.001Z</time></trkpt><trkpt lat="43.462224727627465" lon="10.603712863210433"><ele>424.1666666666667</ele><time>2026-04-19T09:42:49.001Z</time></trkpt><trkpt lat="43.4622082406691" lon="10.603798823656824"><ele>422.33333333333337</ele><time>2026-04-19T09:42:50.001Z</time></trkpt><trkpt lat="43.46217036729914" lon="10.603961445611684"><ele>420.5</ele><time>2026-04-19T09:42:52.001Z</time></trkpt><trkpt lat="43.46211766762865" lon="10.604116858179472"><ele>418.6666666666667</ele><time>2026-04-19T09:42:54.001Z</time></trkpt><trkpt lat="43.46209013245838" lon="10.604196172216485"><ele>416.83333333333337</ele><time>2026-04-19T09:42:55.001Z</time></trkpt><trkpt lat="43.462064308199594" lon="10.60428042433947"><ele>415.0</ele><time>2026-04-19T09:42:56.001Z</time></trkpt><trkpt lat="43.46203748543231" lon="10.604363533047497"><ele>415.00000000000006</ele><time>2026-04-19T09:42:57.001Z</time></trkpt><trkpt lat="43.462011381367496" lon="10.604449262437381"><ele>415.0</ele><time>2026-04-19T09:42:58.001Z</time></trkpt><trkpt lat="43.4619854781528" lon="10.604535990676833"><ele>415.0</ele><time>2026-04-19T09:42:59.001Z</time></trkpt><trkpt lat="43.46196150572175" lon="10.604622063825142"><ele>415.0</ele><time>2026-04-19T09:43:00.001Z</time></trkpt><trkpt lat="43.46193540007831" lon="10.604703820201077"><ele>415.00000000000006</ele><time>2026-04-19T09:43:01.001Z</time></trkpt><trkpt lat="43.4619039977913" lon="10.604780055132286"><ele>415.0</ele><time>2026-04-19T09:43:02.001Z</time></trkpt><trkpt lat="43.46183176988984" lon="10.60492301130249"><ele>416.42857142857144</ele><time>2026-04-19T09:43:04.001Z</time></trkpt><trkpt lat="43.461796030160336" lon="10.604995265669904"><ele>417.8571428571429</ele><time>2026-04-19T09:43:05.001Z</time></trkpt><trkpt lat="43.46176066021723" lon="10.605068981875158"><ele>419.2857142857143</ele><time>2026-04-19T09:43:06.001Z</time></trkpt><trkpt lat="43.46172517189271" lon="10.60514624849831"><ele>420.7142857142857</ele><time>2026-04-19T09:43:07.001Z</time></trkpt><trkpt lat="43.461692730333866" lon="10.605221642360064"><ele>422.1428571428571</ele><time>2026-04-19T09:43:08.001Z</time></trkpt><trkpt lat="43.46165674381591" lon="10.605362871105083"><ele>423.57142857142856</ele><time>2026-04-19T09:43:10.001Z</time></trkpt><trkpt lat="43.46165955421673" lon="10.605468842914755"><ele>425.0</ele><time>2026-04-19T09:43:12.001Z</time></trkpt><trkpt lat="43.46165355968916" lon="10.60556273558206"><ele>427.49999999999994</ele><time>2026-04-19T09:43:14.001Z</time></trkpt><trkpt lat="43.461602305308816" lon="10.60567219301775"><ele>430.0</ele><time>2026-04-19T09:43:17.001Z</time></trkpt><trkpt lat="43.46154952635011" lon="10.605770640536372"><ele>432.5</ele><time>2026-04-19T09:43:19.001Z</time></trkpt><trkpt lat="43.46149383558752" lon="10.605863431244831"><ele>435.0</ele><time>2026-04-19T09:43:21.001Z</time></trkpt><trkpt lat="43.46144161010083" lon="10.60594905036777"><ele>437.49999999999994</ele><time>2026-04-19T09:43:23.001Z</time></trkpt><trkpt lat="43.46139099311247" lon="10.606038036300147"><ele>440.0</ele><time>2026-04-19T09:43:25.001Z</time></trkpt><trkpt lat="43.46134060555227" lon="10.606130039516914"><ele>441.99999999999994</ele><time>2026-04-19T09:43:27.001Z</time></trkpt><trkpt lat="43.461289706267074" lon="10.606225196434607"><ele>444.0</ele><time>2026-04-19T09:43:29.002Z</time></trkpt><trkpt lat="43.4612380372739" lon="10.606323457127045"><ele>446.0</ele><time>2026-04-19T09:43:31.002Z</time></trkpt><trkpt lat="43.46118738714327" lon="10.606415597952807"><ele>448.0</ele><time>2026-04-19T09:43:33.002Z</time></trkpt><trkpt lat="43.46114967469694" lon="10.606507636003448"><ele>449.99999999999994</ele><time>2026-04-19T09:43:35.002Z</time></trkpt><trkpt lat="43.461134378860635" lon="10.60660787193802"><ele>452.0</ele><time>2026-04-19T09:43:37.002Z</time></trkpt><trkpt lat="43.46113990290285" lon="10.606726507494626"><ele>449.3333333333333</ele><time>2026-04-19T09:43:39.002Z</time></trkpt><trkpt lat="43.46115560091949" lon="10.606849104028058"><ele>446.66666666666663</ele><time>2026-04-19T09:43:41.002Z</time></trkpt><trkpt lat="43.461159341346445" lon="10.606953664386916"><ele>444.0</ele><time>2026-04-19T09:43:43.002Z</time></trkpt><trkpt lat="43.46115194776714" lon="10.607041400193106"><ele>441.33333333333337</ele><time>2026-04-19T09:43:45.002Z</time></trkpt><trkpt lat="43.461144846481915" lon="10.607166034152016"><ele>438.6666666666667</ele><time>2026-04-19T09:43:48.002Z</time></trkpt><trkpt lat="43.4611337665973" lon="10.60727456487289"><ele>436.0</ele><time>2026-04-19T09:43:50.002Z</time></trkpt><trkpt lat="43.4611190832616" lon="10.607396442132814"><ele>436.0</ele><time>2026-04-19T09:43:52.002Z</time></trkpt><trkpt lat="43.46110243639971" lon="10.607521759411986"><ele>436.0</ele><time>2026-04-19T09:43:54.002Z</time></trkpt><trkpt lat="43.46108804198845" lon="10.607659495163919"><ele>436.0</ele><time>2026-04-19T09:43:56.002Z</time></trkpt><trkpt lat="43.46107583112369" lon="10.607787807035232"><ele>436.0</ele><time>2026-04-19T09:43:58.002Z</time></trkpt><trkpt lat="43.46106004272046" lon="10.607906566960043"><ele>436.0</ele><time>2026-04-19T09:44:00.002Z</time></trkpt><trkpt lat="43.461038053447986" lon="10.608019725792543"><ele>437.50000000000006</ele><time>2026-04-19T09:44:02.002Z</time></trkpt><trkpt lat="43.46101751522884" lon="10.608133634118522"><ele>439.0</ele><time>2026-04-19T09:44:04.002Z</time></trkpt><trkpt lat="43.460981415380054" lon="10.608242548246201"><ele>440.5</ele><time>2026-04-19T09:44:06.002Z</time></trkpt><trkpt lat="43.46091708768687" lon="10.60833891211524"><ele>442.0</ele><time>2026-04-19T09:44:08Z</time></trkpt><trkpt lat="43.460846986109765" lon="10.608414922859222"><ele>443.50000000000006</ele><time>2026-04-19T09:44:10Z</time></trkpt><trkpt lat="43.46076034405266" lon="10.608451549360616"><ele>445.0</ele><time>2026-04-19T09:44:12Z</time></trkpt><trkpt lat="43.46066105345887" lon="10.608450846119242"><ele>445.00000000000006</ele><time>2026-04-19T09:44:14Z</time></trkpt><trkpt lat="43.460574293909936" lon="10.60836596835597"><ele>445.0</ele><time>2026-04-19T09:44:16Z</time></trkpt><trkpt lat="43.460508803829796" lon="10.608277538489146"><ele>445.0</ele><time>2026-04-19T09:44:18Z</time></trkpt><trkpt lat="43.46044156797209" lon="10.608217270213524"><ele>445.0</ele><time>2026-04-19T09:44:20Z</time></trkpt><trkpt lat="43.46037845025117" lon="10.608165414657721"><ele>445.00000000000006</ele><time>2026-04-19T09:44:22Z</time></trkpt><trkpt lat="43.46029778060272" lon="10.608128235041132"><ele>445.0</ele><time>2026-04-19T09:44:24Z</time></trkpt><trkpt lat="43.460202792447504" lon="10.608144611655423"><ele>444.8</ele><time>2026-04-19T09:44:26Z</time></trkpt><trkpt lat="43.46013631744608" lon="10.608236686396967"><ele>444.6</ele><time>2026-04-19T09:44:28Z</time></trkpt><trkpt lat="43.46007841913287" lon="10.608334509921951"><ele>444.4</ele><time>2026-04-19T09:44:30Z</time></trkpt><trkpt lat="43.4600285586006" lon="10.608439741992418"><ele>444.2</ele><time>2026-04-19T09:44:32Z</time></trkpt><trkpt lat="43.459992513657504" lon="10.608562411880122"><ele>444.0</ele><time>2026-04-19T09:44:34Z</time></trkpt><trkpt lat="43.45997858530007" lon="10.608692144519239"><ele>444.0</ele><time>2026-04-19T09:44:36Z</time></trkpt><trkpt lat="43.459973244323905" lon="10.608803984192807"><ele>444.0</ele><time>2026-04-19T09:44:38Z</time></trkpt><trkpt lat="43.45995367219288" lon="10.608910407673642"><ele>444.0</ele><time>2026-04-19T09:44:40Z</time></trkpt><trkpt lat="43.4599202341513" lon="10.609023964668921"><ele>444.0</ele><time>2026-04-19T09:44:42Z</time></trkpt><trkpt lat="43.45987966185886" lon="10.609098819172061"><ele>444.0</ele><time>2026-04-19T09:44:44Z</time></trkpt><trkpt lat="43.45983855257827" lon="10.60916955781427"><ele>444.0</ele><time>2026-04-19T09:44:56.001Z</time></trkpt><trkpt lat="43.45982760213546" lon="10.609255389429796"><ele>444.0</ele><time>2026-04-19T09:48:10.002Z</time></trkpt><trkpt lat="43.45977007902804" lon="10.609327005534817"><ele>444.0</ele><time>2026-04-19T09:48:49.001Z</time></trkpt><trkpt lat="43.45973638101984" lon="10.609409918685596"><ele>444.0</ele><time>2026-04-19T09:48:52.001Z</time></trkpt><trkpt lat="43.459701953753836" lon="10.609500364356537"><ele>444.0</ele><time>2026-04-19T09:48:57.001Z</time></trkpt><trkpt lat="43.45966823161427" lon="10.609588417953733"><ele>444.0</ele><time>2026-04-19T09:49:02.001Z</time></trkpt><trkpt lat="43.4596302219789" lon="10.609677169426005"><ele>444.0</ele><time>2026-04-19T09:49:06.001Z</time></trkpt><trkpt lat="43.45959797115821" lon="10.609752672008481"><ele>444.0</ele><time>2026-04-19T09:49:09.001Z</time></trkpt><trkpt lat="43.4595637190797" lon="10.609833155585408"><ele>444.0</ele><time>2026-04-19T09:49:12.002Z</time></trkpt><trkpt lat="43.459521812250706" lon="10.609927508991117"><ele>444.1666666666667</ele><time>2026-04-19T09:49:15.002Z</time></trkpt><trkpt lat="43.4594682471414" lon="10.610033800623356"><ele>444.33333333333337</ele><time>2026-04-19T09:49:18.002Z</time></trkpt><trkpt lat="43.459426918227166" lon="10.610123267430755"><ele>444.5</ele><time>2026-04-19T09:49:20.002Z</time></trkpt><trkpt lat="43.45936578830918" lon="10.610218903810189"><ele>444.6666666666667</ele><time>2026-04-19T09:49:23.002Z</time></trkpt><trkpt lat="43.459319890984936" lon="10.610298789382147"><ele>444.83333333333337</ele><time>2026-04-19T09:49:25.002Z</time></trkpt><trkpt lat="43.45927446865619" lon="10.610405322810056"><ele>445.0</ele><time>2026-04-19T09:49:27.002Z</time></trkpt><trkpt lat="43.4592313847439" lon="10.610514721757287"><ele>445.00000000000006</ele><time>2026-04-19T09:49:29.002Z</time></trkpt><trkpt lat="43.45918966294429" lon="10.610609221245824"><ele>445.0</ele><time>2026-04-19T09:49:31.002Z</time></trkpt><trkpt lat="43.45913570381182" lon="10.610701438877353"><ele>445.0</ele><time>2026-04-19T09:49:33.002Z</time></trkpt><trkpt lat="43.459073041780194" lon="10.6107784643244"><ele>445.0</ele><time>2026-04-19T09:49:35.002Z</time></trkpt><trkpt lat="43.45900606937894" lon="10.610832701720703"><ele>445.00000000000006</ele><time>2026-04-19T09:49:37.002Z</time></trkpt><trkpt lat="43.45893979413941" lon="10.610892198807331"><ele>445.0</ele><time>2026-04-19T09:49:39.002Z</time></trkpt><trkpt lat="43.45887834830186" lon="10.610962964943447"><ele>445.00000000000006</ele><time>2026-04-19T09:49:41.002Z</time></trkpt><trkpt lat="43.45881950382698" lon="10.611030452434694"><ele>445.0</ele><time>2026-04-19T09:49:43.002Z</time></trkpt><trkpt lat="43.45875876060524" lon="10.611114531163901"><ele>445.0</ele><time>2026-04-19T09:49:45.002Z</time></trkpt><trkpt lat="43.45868681660496" lon="10.611201564128256"><ele>445.0</ele><time>2026-04-19T09:49:47.002Z</time></trkpt><trkpt lat="43.45861551818194" lon="10.611293998981518"><ele>445.00000000000006</ele><time>2026-04-19T09:49:49.002Z</time></trkpt><trkpt lat="43.45855963515037" lon="10.611396048045268"><ele>445.0</ele><time>2026-04-19T09:49:51.002Z</time></trkpt><trkpt lat="43.45852610347105" lon="10.611514714333833"><ele>443.4</ele><time>2026-04-19T09:49:53.002Z</time></trkpt><trkpt lat="43.458464875624614" lon="10.611613460806582"><ele>441.8</ele><time>2026-04-19T09:49:55.002Z</time></trkpt><trkpt lat="43.45837217520966" lon="10.611649683789304"><ele>440.20000000000005</ele><time>2026-04-19T09:49:57.002Z</time></trkpt><trkpt lat="43.458283761766396" lon="10.611678975044489"><ele>438.6</ele><time>2026-04-19T09:49:59.002Z</time></trkpt><trkpt lat="43.45820760173802" lon="10.611757266660641"><ele>437.0</ele><time>2026-04-19T09:50:01.002Z</time></trkpt><trkpt lat="43.45817666545126" lon="10.61189784977672"><ele>439.20000000000005</ele><time>2026-04-19T09:50:03.002Z</time></trkpt><trkpt lat="43.45816111852174" lon="10.612036818424503"><ele>441.40000000000003</ele><time>2026-04-19T09:50:05.002Z</time></trkpt><trkpt lat="43.458155490145444" lon="10.61216691078227"><ele>443.59999999999997</ele><time>2026-04-19T09:50:07.002Z</time></trkpt><trkpt lat="43.45814332730047" lon="10.612290189097918"><ele>445.79999999999995</ele><time>2026-04-19T09:50:09.002Z</time></trkpt><trkpt lat="43.45812222857828" lon="10.6124261158485"><ele>448.0</ele><time>2026-04-19T09:50:11.003Z</time></trkpt><trkpt lat="43.45809768347185" lon="10.612559886759525"><ele>448.0</ele><time>2026-04-19T09:50:13.003Z</time></trkpt><trkpt lat="43.45806103351837" lon="10.612701343354908"><ele>447.99999999999994</ele><time>2026-04-19T09:50:15.003Z</time></trkpt><trkpt lat="43.458034668894214" lon="10.612812517201"><ele>447.99999999999994</ele><time>2026-04-19T09:50:17.003Z</time></trkpt><trkpt lat="43.457999902813974" lon="10.612902753788253"><ele>448.0</ele><time>2026-04-19T09:50:19.003Z</time></trkpt><trkpt lat="43.45792619085432" lon="10.612992174560233"><ele>448.0</ele><time>2026-04-19T09:50:22.003Z</time></trkpt><trkpt lat="43.45784626273045" lon="10.613025206989406"><ele>444.2</ele><time>2026-04-19T09:50:24.003Z</time></trkpt><trkpt lat="43.45774679712632" lon="10.613070212351923"><ele>440.4</ele><time>2026-04-19T09:50:26.001Z</time></trkpt><trkpt lat="43.45768007444319" lon="10.613141887534697"><ele>436.59999999999997</ele><time>2026-04-19T09:50:28.001Z</time></trkpt><trkpt lat="43.457636855057885" lon="10.61322325104753"><ele>432.79999999999995</ele><time>2026-04-19T09:50:30.001Z</time></trkpt><trkpt lat="43.45756881591456" lon="10.613327577522092"><ele>429.0</ele><time>2026-04-19T09:50:32.001Z</time></trkpt><trkpt lat="43.45752722776236" lon="10.613450293742343"><ele>429.0</ele><time>2026-04-19T09:50:34.001Z</time></trkpt><trkpt lat="43.457492220978565" lon="10.61357169517763"><ele>429.0</ele><time>2026-04-19T09:50:36.001Z</time></trkpt><trkpt lat="43.457465002365204" lon="10.613689684688755"><ele>429.0</ele><time>2026-04-19T09:50:38.001Z</time></trkpt><trkpt lat="43.457450201984976" lon="10.613792365107926"><ele>429.0</ele><time>2026-04-19T09:50:40.001Z</time></trkpt><trkpt lat="43.45743183894575" lon="10.613916949746363"><ele>429.0</ele><time>2026-04-19T09:50:42.001Z</time></trkpt><trkpt lat="43.45741116875436" lon="10.614043917932694"><ele>429.0</ele><time>2026-04-19T09:50:44.001Z</time></trkpt><trkpt lat="43.457402864065415" lon="10.614160852423387"><ele>430.4</ele><time>2026-04-19T09:50:46.001Z</time></trkpt><trkpt lat="43.45739964630381" lon="10.614290192610273"><ele>431.79999999999995</ele><time>2026-04-19T09:50:48.001Z</time></trkpt><trkpt lat="43.45740158776208" lon="10.614433926038542"><ele>433.20000000000005</ele><time>2026-04-19T09:50:50.001Z</time></trkpt><trkpt lat="43.45741467634345" lon="10.614583088190097"><ele>434.6</ele><time>2026-04-19T09:50:52.001Z</time></trkpt><trkpt lat="43.45742436488324" lon="10.614670681392187"><ele>436.0</ele><time>2026-04-19T09:50:53.001Z</time></trkpt><trkpt lat="43.45746127110486" lon="10.614820741562678"><ele>436.00000000000006</ele><time>2026-04-19T09:50:55.001Z</time></trkpt><trkpt lat="43.457514152541435" lon="10.614976363485797"><ele>436.0</ele><time>2026-04-19T09:50:57.001Z</time></trkpt><trkpt lat="43.457526933664845" lon="10.615064832986615"><ele>436.0</ele><time>2026-04-19T09:50:58.001Z</time></trkpt><trkpt lat="43.45751672204619" lon="10.615159623829639"><ele>436.0</ele><time>2026-04-19T09:50:59.001Z</time></trkpt><trkpt lat="43.457503414668984" lon="10.61525076117619"><ele>436.00000000000006</ele><time>2026-04-19T09:51:00.001Z</time></trkpt><trkpt lat="43.45749837804046" lon="10.615348262927638"><ele>436.0</ele><time>2026-04-19T09:51:01.001Z</time></trkpt><trkpt lat="43.45751617907628" lon="10.61544298370354"><ele>435.1666666666667</ele><time>2026-04-19T09:51:02.001Z</time></trkpt><trkpt lat="43.457542401773345" lon="10.615529965924603"><ele>434.33333333333337</ele><time>2026-04-19T09:51:03.001Z</time></trkpt><trkpt lat="43.45758159788549" lon="10.615607836759551"><ele>433.5</ele><time>2026-04-19T09:51:04.001Z</time></trkpt><trkpt lat="43.457625486965625" lon="10.615679151266285"><ele>432.66666666666663</ele><time>2026-04-19T09:51:05.001Z</time></trkpt><trkpt lat="43.45770066093997" lon="10.615818368496338"><ele>431.8333333333333</ele><time>2026-04-19T09:51:07.001Z</time></trkpt><trkpt lat="43.457736462047016" lon="10.615895147857007"><ele>431.0</ele><time>2026-04-19T09:51:08.001Z</time></trkpt><trkpt lat="43.45776959642125" lon="10.61597623523416"><ele>431.0</ele><time>2026-04-19T09:51:09.001Z</time></trkpt><trkpt lat="43.45783232917659" lon="10.616138468851254"><ele>431.0</ele><time>2026-04-19T09:51:11.001Z</time></trkpt><trkpt lat="43.457863031748374" lon="10.616222504405417"><ele>431.0</ele><time>2026-04-19T09:51:12.001Z</time></trkpt><trkpt lat="43.457888984331575" lon="10.616302401901082"><ele>431.0</ele><time>2026-04-19T09:51:13.001Z</time></trkpt><trkpt lat="43.45791074616047" lon="10.616477510528094"><ele>431.0</ele><time>2026-04-19T09:51:15.001Z</time></trkpt><trkpt lat="43.457901576305716" lon="10.616580603401747"><ele>430.3333333333333</ele><time>2026-04-19T09:51:16.001Z</time></trkpt><trkpt lat="43.45787564513059" lon="10.616702537016158"><ele>429.66666666666663</ele><time>2026-04-19T09:51:17.001Z</time></trkpt><trkpt lat="43.457843232247406" lon="10.616842245977994"><ele>429.0</ele><time>2026-04-19T09:51:18.001Z</time></trkpt><trkpt lat="43.45783718982792" lon="10.61696693674391"><ele>428.33333333333337</ele><time>2026-04-19T09:51:19.001Z</time></trkpt><trkpt lat="43.45784557197614" lon="10.617076112475946"><ele>427.6666666666667</ele><time>2026-04-19T09:51:20.001Z</time></trkpt><trkpt lat="43.45784780189379" lon="10.6171763513026"><ele>427.0</ele><time>2026-04-19T09:51:21.001Z</time></trkpt><trkpt lat="43.45784883552701" lon="10.617264582491556"><ele>427.0</ele><time>2026-04-19T09:51:22.001Z</time></trkpt><trkpt lat="43.45784334084791" lon="10.617413322734075"><ele>427.00000000000006</ele><time>2026-04-19T09:51:24.001Z</time></trkpt><trkpt lat="43.457843501664556" lon="10.617579759281691"><ele>427.00000000000006</ele><time>2026-04-19T09:51:26.001Z</time></trkpt><trkpt lat="43.45785488998099" lon="10.617717057599872"><ele>427.0</ele><time>2026-04-19T09:51:28.001Z</time></trkpt><trkpt lat="43.45789585445582" lon="10.617859635235869"><ele>427.0</ele><time>2026-04-19T09:51:30.001Z</time></trkpt><trkpt lat="43.457937877990375" lon="10.617980283292564"><ele>433.5</ele><time>2026-04-19T09:51:32.001Z</time></trkpt><trkpt lat="43.45797633665059" lon="10.61811761152246"><ele>440.0</ele><time>2026-04-19T09:51:34.001Z</time></trkpt><trkpt lat="43.45802508487993" lon="10.618275409456107"><ele>446.5</ele><time>2026-04-19T09:51:36.001Z</time></trkpt><trkpt lat="43.45807669579877" lon="10.61842498759174"><ele>453.0</ele><time>2026-04-19T09:51:38.001Z</time></trkpt><trkpt lat="43.45813530868325" lon="10.618577733338856"><ele>451.25</ele><time>2026-04-19T09:51:40.001Z</time></trkpt><trkpt lat="43.458214136363445" lon="10.618694837710406"><ele>449.5</ele><time>2026-04-19T09:51:42.001Z</time></trkpt><trkpt lat="43.45826873676746" lon="10.618839603786967"><ele>447.75</ele><time>2026-04-19T09:51:44.001Z</time></trkpt><trkpt lat="43.45826953788725" lon="10.618987396457618"><ele>446.0</ele><time>2026-04-19T09:51:46.002Z</time></trkpt><trkpt lat="43.45826404225566" lon="10.619144406134465"><ele>446.0</ele><time>2026-04-19T09:51:48.002Z</time></trkpt><trkpt lat="43.45826057309012" lon="10.619299579872358"><ele>446.0</ele><time>2026-04-19T09:51:50.002Z</time></trkpt><trkpt lat="43.458251300937434" lon="10.61945603687871"><ele>446.0</ele><time>2026-04-19T09:51:52.002Z</time></trkpt><trkpt lat="43.458248546674994" lon="10.61960059260322"><ele>446.0</ele><time>2026-04-19T09:51:54.002Z</time></trkpt><trkpt lat="43.45823591649358" lon="10.619760018047883"><ele>446.0</ele><time>2026-04-19T09:51:56.002Z</time></trkpt><trkpt lat="43.458210503193776" lon="10.619839628774738"><ele>446.0</ele><time>2026-04-19T09:51:57.002Z</time></trkpt><trkpt lat="43.458194106543644" lon="10.619924509792504"><ele>446.0</ele><time>2026-04-19T09:51:58.002Z</time></trkpt><trkpt lat="43.45817602024216" lon="10.6200106925791"><ele>446.0</ele><time>2026-04-19T09:51:59.002Z</time></trkpt><trkpt lat="43.4581359932529" lon="10.62017270907081"><ele>446.0</ele><time>2026-04-19T09:52:01.002Z</time></trkpt><trkpt lat="43.45811178149703" lon="10.620331961689224"><ele>446.0</ele><time>2026-04-19T09:52:03.002Z</time></trkpt><trkpt lat="43.45811254679857" lon="10.620499869250352"><ele>446.0</ele><time>2026-04-19T09:52:05.002Z</time></trkpt><trkpt lat="43.45814772396109" lon="10.62066791233984"><ele>446.0</ele><time>2026-04-19T09:52:07.002Z</time></trkpt><trkpt lat="43.458164507737784" lon="10.6207772837981"><ele>446.0</ele><time>2026-04-19T09:52:08.002Z</time></trkpt><trkpt lat="43.45818686958963" lon="10.620898102381542"><ele>446.0</ele><time>2026-04-19T09:52:09.002Z</time></trkpt><trkpt lat="43.45820204279334" lon="10.62099289713659"><ele>446.0</ele><time>2026-04-19T09:52:10.002Z</time></trkpt><trkpt lat="43.4582409655079" lon="10.621162545248708"><ele>443.8333333333333</ele><time>2026-04-19T09:52:12.002Z</time></trkpt><trkpt lat="43.45827436162885" lon="10.62125226576225"><ele>441.66666666666663</ele><time>2026-04-19T09:52:13.002Z</time></trkpt><trkpt lat="43.458316633100615" lon="10.621337702252346"><ele>439.5</ele><time>2026-04-19T09:52:14.002Z</time></trkpt><trkpt lat="43.45836462433551" lon="10.621409706212532"><ele>437.33333333333337</ele><time>2026-04-19T09:52:15.002Z</time></trkpt><trkpt lat="43.45844117009211" lon="10.621527950452817"><ele>435.1666666666667</ele><time>2026-04-19T09:52:17.002Z</time></trkpt><trkpt lat="43.45849473634877" lon="10.621628451291837"><ele>433.0</ele><time>2026-04-19T09:52:19.002Z</time></trkpt><trkpt lat="43.458548875672605" lon="10.621716261201366"><ele>433.0</ele><time>2026-04-19T09:52:21.002Z</time></trkpt><trkpt lat="43.45861311456904" lon="10.6218008126229"><ele>432.99999999999994</ele><time>2026-04-19T09:52:23.002Z</time></trkpt><trkpt lat="43.458681066381374" lon="10.621897050875523"><ele>432.99999999999994</ele><time>2026-04-19T09:52:25.002Z</time></trkpt><trkpt lat="43.45874255827905" lon="10.621997950357853"><ele>433.0</ele><time>2026-04-19T09:52:27.002Z</time></trkpt><trkpt lat="43.45879627054697" lon="10.622092144969477"><ele>433.0</ele><time>2026-04-19T09:52:29.002Z</time></trkpt><trkpt lat="43.458843266628854" lon="10.622191503640837"><ele>435.0</ele><time>2026-04-19T09:52:31Z</time></trkpt><trkpt lat="43.458896479167684" lon="10.622283294399965"><ele>436.99999999999994</ele><time>2026-04-19T09:52:33Z</time></trkpt><trkpt lat="43.45899160995808" lon="10.622343845321275"><ele>438.99999999999994</ele><time>2026-04-19T09:52:35Z</time></trkpt><trkpt lat="43.459104813609414" lon="10.622345288000336"><ele>441.0</ele><time>2026-04-19T09:52:37Z</time></trkpt><trkpt lat="43.45921359240507" lon="10.622355041464424"><ele>443.0</ele><time>2026-04-19T09:52:39Z</time></trkpt><trkpt lat="43.45930242998969" lon="10.622375575030526"><ele>443.0</ele><time>2026-04-19T09:52:41Z</time></trkpt><trkpt lat="43.45939223557705" lon="10.622399048151664"><ele>442.99999999999994</ele><time>2026-04-19T09:52:43Z</time></trkpt><trkpt lat="43.459482686894134" lon="10.622394464700461"><ele>442.99999999999994</ele><time>2026-04-19T09:52:45Z</time></trkpt><trkpt lat="43.459570207818544" lon="10.622354051494703"><ele>443.0</ele><time>2026-04-19T09:52:47Z</time></trkpt><trkpt lat="43.45965236392256" lon="10.622279216066023"><ele>443.0</ele><time>2026-04-19T09:52:49Z</time></trkpt><trkpt lat="43.459714666313815" lon="10.622166260563167"><ele>440.79999999999995</ele><time>2026-04-19T09:52:51Z</time></trkpt><trkpt lat="43.45976770071105" lon="10.622056732469847"><ele>438.59999999999997</ele><time>2026-04-19T09:52:53Z</time></trkpt><trkpt lat="43.45980598523916" lon="10.621935231459606"><ele>436.40000000000003</ele><time>2026-04-19T09:52:55Z</time></trkpt><trkpt lat="43.45984406741076" lon="10.621812161486739"><ele>434.20000000000005</ele><time>2026-04-19T09:52:57Z</time></trkpt><trkpt lat="43.459887462322556" lon="10.62169114713581"><ele>432.0</ele><time>2026-04-19T09:52:59Z</time></trkpt><trkpt lat="43.45993356375496" lon="10.621569126137548"><ele>437.0</ele><time>2026-04-19T09:53:01Z</time></trkpt><trkpt lat="43.45998001298869" lon="10.621446948182811"><ele>442.00000000000006</ele><time>2026-04-19T09:53:03Z</time></trkpt><trkpt lat="43.46002753179427" lon="10.621341716682263"><ele>447.00000000000006</ele><time>2026-04-19T09:53:05Z</time></trkpt><trkpt lat="43.460074172840955" lon="10.621225947343149"><ele>452.0</ele><time>2026-04-19T09:53:07Z</time></trkpt><trkpt lat="43.46011588468394" lon="10.621099405657839"><ele>457.0</ele><time>2026-04-19T09:53:09Z</time></trkpt><trkpt lat="43.46015449349443" lon="10.620978062999441"><ele>460.40000000000003</ele><time>2026-04-19T09:53:11Z</time></trkpt><trkpt lat="43.460205044895524" lon="10.620851063628251"><ele>463.80000000000007</ele><time>2026-04-19T09:53:13Z</time></trkpt><trkpt lat="43.46024058032277" lon="10.620722550828228"><ele>467.2</ele><time>2026-04-19T09:53:15.001Z</time></trkpt><trkpt lat="43.46028205920487" lon="10.62057558423883"><ele>470.6</ele><time>2026-04-19T09:53:17.001Z</time></trkpt><trkpt lat="43.46031991687815" lon="10.620455295131139"><ele>474.0</ele><time>2026-04-19T09:53:19.001Z</time></trkpt><trkpt lat="43.460368382760926" lon="10.620329683237742"><ele>477.0</ele><time>2026-04-19T09:53:21.001Z</time></trkpt><trkpt lat="43.460407301037456" lon="10.620192604763304"><ele>480.0</ele><time>2026-04-19T09:53:23.001Z</time></trkpt><trkpt lat="43.46044425863438" lon="10.620051804164579"><ele>483.0</ele><time>2026-04-19T09:53:25.001Z</time></trkpt><trkpt lat="43.460478055009474" lon="10.619909075088415"><ele>486.0</ele><time>2026-04-19T09:53:27.001Z</time></trkpt><trkpt lat="43.460500456467" lon="10.619772406380912"><ele>489.0</ele><time>2026-04-19T09:53:29.001Z</time></trkpt><trkpt lat="43.46051635153728" lon="10.619633895782371"><ele>484.4</ele><time>2026-04-19T09:53:31.001Z</time></trkpt><trkpt lat="43.46052828986009" lon="10.619490827232283"><ele>479.79999999999995</ele><time>2026-04-19T09:53:33.001Z</time></trkpt><trkpt lat="43.46057009354366" lon="10.619355864776992"><ele>475.20000000000005</ele><time>2026-04-19T09:53:35.001Z</time></trkpt><trkpt lat="43.46064937628406" lon="10.619236675674976"><ele>470.6</ele><time>2026-04-19T09:53:37.001Z</time></trkpt><trkpt lat="43.46073762518347" lon="10.619125752178817"><ele>466.0</ele><time>2026-04-19T09:53:39.001Z</time></trkpt><trkpt lat="43.460787868799244" lon="10.619070282896018"><ele>466.0</ele><time>2026-04-19T09:53:40.001Z</time></trkpt><trkpt lat="43.460859794674036" lon="10.618961944638112"><ele>466.0</ele><time>2026-04-19T09:53:42.001Z</time></trkpt><trkpt lat="43.46092608741166" lon="10.618827898527098"><ele>466.0</ele><time>2026-04-19T09:53:44.001Z</time></trkpt><trkpt lat="43.46099844887888" lon="10.618692764055574"><ele>466.0</ele><time>2026-04-19T09:53:46.001Z</time></trkpt><trkpt lat="43.46105482041596" lon="10.618544757577364"><ele>468.6666666666667</ele><time>2026-04-19T09:53:48.001Z</time></trkpt><trkpt lat="43.46108270434608" lon="10.61845915026503"><ele>471.33333333333337</ele><time>2026-04-19T09:53:49.001Z</time></trkpt><trkpt lat="43.461102695997" lon="10.618370826537856"><ele>474.0</ele><time>2026-04-19T09:53:50.001Z</time></trkpt><trkpt lat="43.46111476719986" lon="10.618278855997579"><ele>476.66666666666663</ele><time>2026-04-19T09:53:51.001Z</time></trkpt><trkpt lat="43.461119009885465" lon="10.618191324918687"><ele>479.3333333333333</ele><time>2026-04-19T09:53:52.001Z</time></trkpt><trkpt lat="43.46110453138255" lon="10.618035611336015"><ele>482.0</ele><time>2026-04-19T09:53:54.001Z</time></trkpt><trkpt lat="43.46106216671947" lon="10.617881877309681"><ele>483.40000000000003</ele><time>2026-04-19T09:53:56.001Z</time></trkpt><trkpt lat="43.461038620723265" lon="10.617752939286547"><ele>484.80000000000007</ele><time>2026-04-19T09:53:58.001Z</time></trkpt><trkpt lat="43.46106162999078" lon="10.61766458166142"><ele>486.2</ele><time>2026-04-19T09:54:00.001Z</time></trkpt><trkpt lat="43.46113627977084" lon="10.61756336201346"><ele>487.6</ele><time>2026-04-19T09:54:02.001Z</time></trkpt><trkpt lat="43.461221070289206" lon="10.61744500644135"><ele>489.0</ele><time>2026-04-19T09:54:04.001Z</time></trkpt><trkpt lat="43.46131372898591" lon="10.617351907067516"><ele>484.25</ele><time>2026-04-19T09:54:06.001Z</time></trkpt><trkpt lat="43.46141745976334" lon="10.617254502487112"><ele>479.5</ele><time>2026-04-19T09:54:08.001Z</time></trkpt><trkpt lat="43.461500879177706" lon="10.61713682795991"><ele>474.75</ele><time>2026-04-19T09:54:10.001Z</time></trkpt><trkpt lat="43.46154903160527" lon="10.616998384239503"><ele>470.0</ele><time>2026-04-19T09:54:12.001Z</time></trkpt><trkpt lat="43.46160281185849" lon="10.616849147226041"><ele>470.0</ele><time>2026-04-19T09:54:14.001Z</time></trkpt><trkpt lat="43.46164438001623" lon="10.616713599080825"><ele>470.0</ele><time>2026-04-19T09:54:16.001Z</time></trkpt><trkpt lat="43.46170795187937" lon="10.616582525298433"><ele>470.0</ele><time>2026-04-19T09:54:18.001Z</time></trkpt><trkpt lat="43.46177858704153" lon="10.616454545449026"><ele>470.0</ele><time>2026-04-19T09:54:20.001Z</time></trkpt><trkpt lat="43.46186037148369" lon="10.616336842620909"><ele>470.0</ele><time>2026-04-19T09:54:22.001Z</time></trkpt><trkpt lat="43.4619312882543" lon="10.616228311265385"><ele>470.0</ele><time>2026-04-19T09:54:24.002Z</time></trkpt><trkpt lat="43.46197481540958" lon="10.616121082565735"><ele>470.0</ele><time>2026-04-19T09:54:26.002Z</time></trkpt><trkpt lat="43.46204831625278" lon="10.616037708416645"><ele>470.0</ele><time>2026-04-19T09:54:28.002Z</time></trkpt><trkpt lat="43.46214836109986" lon="10.616042954521488"><ele>470.0</ele><time>2026-04-19T09:54:30.002Z</time></trkpt><trkpt lat="43.46222924097808" lon="10.616123221518674"><ele>468.6</ele><time>2026-04-19T09:54:32.002Z</time></trkpt><trkpt lat="43.46230199026938" lon="10.616239160783012"><ele>467.2</ele><time>2026-04-19T09:54:34.002Z</time></trkpt><trkpt lat="43.4623673175658" lon="10.616373606544819"><ele>465.79999999999995</ele><time>2026-04-19T09:54:36.002Z</time></trkpt><trkpt lat="43.46242729270552" lon="10.616498216528127"><ele>464.4</ele><time>2026-04-19T09:54:38Z</time></trkpt><trkpt lat="43.462491128172665" lon="10.616615858889597"><ele>463.0</ele><time>2026-04-19T09:54:40Z</time></trkpt><trkpt lat="43.46255753953415" lon="10.61672988255115"><ele>463.0</ele><time>2026-04-19T09:54:42Z</time></trkpt><trkpt lat="43.4626217015546" lon="10.616830797258553"><ele>462.99999999999994</ele><time>2026-04-19T09:54:44Z</time></trkpt><trkpt lat="43.4627079228303" lon="10.616907818883512"><ele>462.99999999999994</ele><time>2026-04-19T09:54:46Z</time></trkpt><trkpt lat="43.4628224457066" lon="10.616927226766034"><ele>463.0</ele><time>2026-04-19T09:54:48Z</time></trkpt><trkpt lat="43.46293944711296" lon="10.616874071729159"><ele>463.0</ele><time>2026-04-19T09:54:50Z</time></trkpt><trkpt lat="43.462995403979065" lon="10.616828467155516"><ele>462.83333333333337</ele><time>2026-04-19T09:54:51Z</time></trkpt><trkpt lat="43.46305199474476" lon="10.61678977023281"><ele>462.6666666666667</ele><time>2026-04-19T09:54:52Z</time></trkpt><trkpt lat="43.46314072066638" lon="10.616680104736218"><ele>462.5</ele><time>2026-04-19T09:54:54Z</time></trkpt><trkpt lat="43.46317592940451" lon="10.616607411194869"><ele>462.33333333333337</ele><time>2026-04-19T09:54:55Z</time></trkpt><trkpt lat="43.46320914545014" lon="10.61652864331425"><ele>462.1666666666667</ele><time>2026-04-19T09:54:56Z</time></trkpt><trkpt lat="43.463230846964635" lon="10.616438824337736"><ele>462.0</ele><time>2026-04-19T09:54:57Z</time></trkpt><trkpt lat="43.463246171749255" lon="10.61634565914103"><ele>462.0</ele><time>2026-04-19T09:54:58Z</time></trkpt><trkpt lat="43.46325251560802" lon="10.61625415897584"><ele>462.0</ele><time>2026-04-19T09:54:59Z</time></trkpt><trkpt lat="43.46324760964821" lon="10.616155529377885"><ele>462.0</ele><time>2026-04-19T09:55:00Z</time></trkpt><trkpt lat="43.463235200483595" lon="10.616060368782515"><ele>462.0</ele><time>2026-04-19T09:55:01Z</time></trkpt><trkpt lat="43.46321170584872" lon="10.615896744786252"><ele>462.0</ele><time>2026-04-19T09:55:03Z</time></trkpt><trkpt lat="43.4632035331782" lon="10.615733517723553"><ele>462.0</ele><time>2026-04-19T09:55:05Z</time></trkpt><trkpt lat="43.46320814313434" lon="10.615570820818673"><ele>464.75</ele><time>2026-04-19T09:55:07Z</time></trkpt><trkpt lat="43.46319902243754" lon="10.61540954434321"><ele>467.5</ele><time>2026-04-19T09:55:09Z</time></trkpt><trkpt lat="43.463187611740345" lon="10.61524446142962"><ele>470.25</ele><time>2026-04-19T09:55:11Z</time></trkpt><trkpt lat="43.46325023868746" lon="10.615117717424594"><ele>473.0</ele><time>2026-04-19T09:55:13Z</time></trkpt><trkpt lat="43.46335702679876" lon="10.615141959691595"><ele>473.0</ele><time>2026-04-19T09:55:15Z</time></trkpt><trkpt lat="43.463424348827054" lon="10.615268609841042"><ele>473.0</ele><time>2026-04-19T09:55:17Z</time></trkpt><trkpt lat="43.46348364366819" lon="10.615407686260848"><ele>473.0</ele><time>2026-04-19T09:55:19Z</time></trkpt><trkpt lat="43.46356244159024" lon="10.615529685952025"><ele>473.0</ele><time>2026-04-19T09:55:21Z</time></trkpt><trkpt lat="43.463642026370295" lon="10.615660291781655"><ele>473.0</ele><time>2026-04-19T09:55:23Z</time></trkpt><trkpt lat="43.46371838386386" lon="10.61577139644333"><ele>472.99999999999994</ele><time>2026-04-19T09:55:25Z</time></trkpt><trkpt lat="43.46375885839597" lon="10.615882986402006"><ele>472.99999999999994</ele><time>2026-04-19T09:55:27Z</time></trkpt><trkpt lat="43.46382385536289" lon="10.61598985477638"><ele>473.0</ele><time>2026-04-19T09:55:29.001Z</time></trkpt><trkpt lat="43.463880489808766" lon="10.616084882494834"><ele>473.0</ele><time>2026-04-19T09:55:31.001Z</time></trkpt><trkpt lat="43.46392940880502" lon="10.61620353071202"><ele>469.79999999999995</ele><time>2026-04-19T09:55:33.001Z</time></trkpt><trkpt lat="43.463965597576696" lon="10.616324968301424"><ele>466.59999999999997</ele><time>2026-04-19T09:55:35.001Z</time></trkpt><trkpt lat="43.46398509779144" lon="10.616454770345634"><ele>463.40000000000003</ele><time>2026-04-19T09:55:37.001Z</time></trkpt><trkpt lat="43.46401295059128" lon="10.616596555356532"><ele>460.20000000000005</ele><time>2026-04-19T09:55:39.001Z</time></trkpt><trkpt lat="43.464041792462986" lon="10.616723291767025"><ele>457.0</ele><time>2026-04-19T09:55:41.001Z</time></trkpt><trkpt lat="43.464063668255974" lon="10.616815158863762"><ele>457.00000000000006</ele><time>2026-04-19T09:55:43.001Z</time></trkpt><trkpt lat="43.4641269815266" lon="10.616784722533543"><ele>457.0</ele><time>2026-04-19T09:55:49.001Z</time></trkpt><trkpt lat="43.464124130715156" lon="10.616693165956807"><ele>457.00000000000006</ele><time>2026-04-19T09:57:09Z</time></trkpt><trkpt lat="43.46413417461164" lon="10.61659846750431"><ele>457.00000000000006</ele><time>2026-04-19T09:57:14Z</time></trkpt><trkpt lat="43.46414715789119" lon="10.616511807017973"><ele>457.0</ele><time>2026-04-19T09:57:18Z</time></trkpt><trkpt lat="43.464156019762605" lon="10.616422572801497"><ele>457.00000000000006</ele><time>2026-04-19T09:57:23Z</time></trkpt><trkpt lat="43.46414877340184" lon="10.616297237597008"><ele>457.00000000000006</ele><time>2026-04-19T09:59:31.001Z</time></trkpt><trkpt lat="43.46417492117401" lon="10.616207064923445"><ele>459.4285714285715</ele><time>2026-04-19T10:00:03.001Z</time></trkpt><trkpt lat="43.46418103647732" lon="10.616093392075857"><ele>461.8571428571429</ele><time>2026-04-19T10:00:07.001Z</time></trkpt><trkpt lat="43.46416402660578" lon="10.615991191451682"><ele>464.2857142857143</ele><time>2026-04-19T10:00:12.001Z</time></trkpt><trkpt lat="43.46414607609258" lon="10.615892711080908"><ele>466.7142857142857</ele><time>2026-04-19T10:00:19.001Z</time></trkpt><trkpt lat="43.46409848176418" lon="10.615809176987323"><ele>469.1428571428571</ele><time>2026-04-19T10:00:23.001Z</time></trkpt><trkpt lat="43.46406187592672" lon="10.61573545035723"><ele>471.5714285714285</ele><time>2026-04-19T10:00:27.002Z</time></trkpt><trkpt lat="43.464043798297396" lon="10.615643360816605"><ele>473.99999999999994</ele><time>2026-04-19T10:00:33.002Z</time></trkpt><trkpt lat="43.464060531437795" lon="10.615543625280646"><ele>473.99999999999994</ele><time>2026-04-19T10:00:39.002Z</time></trkpt><trkpt lat="43.46408133108363" lon="10.615447574678557"><ele>474.0</ele><time>2026-04-19T10:00:44.002Z</time></trkpt><trkpt lat="43.464091642227544" lon="10.615347991958194"><ele>473.99999999999994</ele><time>2026-04-19T10:00:49.002Z</time></trkpt><trkpt lat="43.46411970188452" lon="10.615256240060594"><ele>473.99999999999994</ele><time>2026-04-19T10:00:54.002Z</time></trkpt><trkpt lat="43.46415201598804" lon="10.615169151562744"><ele>474.0</ele><time>2026-04-19T10:01:00.002Z</time></trkpt><trkpt lat="43.46418981483633" lon="10.615082216211547"><ele>473.99999999999994</ele><time>2026-04-19T10:01:05.001Z</time></trkpt><trkpt lat="43.46421828124486" lon="10.614988055735761"><ele>473.99999999999994</ele><time>2026-04-19T10:01:09.001Z</time></trkpt><trkpt lat="43.46423298643282" lon="10.614888058881036"><ele>476.99999999999994</ele><time>2026-04-19T10:01:14.001Z</time></trkpt><trkpt lat="43.46425028912463" lon="10.614787204401598"><ele>480.0</ele><time>2026-04-19T10:01:18.001Z</time></trkpt><trkpt lat="43.4642751468251" lon="10.614687376086037"><ele>482.99999999999994</ele><time>2026-04-19T10:01:24.001Z</time></trkpt><trkpt lat="43.46430353689144" lon="10.614600082589801"><ele>485.99999999999994</ele><time>2026-04-19T10:01:28.001Z</time></trkpt><trkpt lat="43.46433194599158" lon="10.614503503463794"><ele>489.0</ele><time>2026-04-19T10:01:33.001Z</time></trkpt><trkpt lat="43.46435076832077" lon="10.614402723761378"><ele>491.99999999999994</ele><time>2026-04-19T10:01:39.001Z</time></trkpt><trkpt lat="43.46436470429451" lon="10.61431609367543"><ele>494.99999999999994</ele><time>2026-04-19T10:01:44.001Z</time></trkpt><trkpt lat="43.46438293620117" lon="10.614228707696407"><ele>497.5</ele><time>2026-04-19T10:01:49.001Z</time></trkpt><trkpt lat="43.46439595129543" lon="10.614127459870348"><ele>500.0</ele><time>2026-04-19T10:01:54.001Z</time></trkpt><trkpt lat="43.46441379338526" lon="10.614028599237498"><ele>502.5</ele><time>2026-04-19T10:01:59.001Z</time></trkpt><trkpt lat="43.464433125165485" lon="10.613923440349232"><ele>505.0</ele><time>2026-04-19T10:02:04.001Z</time></trkpt><trkpt lat="43.46445555948483" lon="10.613824777102048"><ele>507.5</ele><time>2026-04-19T10:02:08.001Z</time></trkpt><trkpt lat="43.46447939465198" lon="10.61372948832224"><ele>510.0</ele><time>2026-04-19T10:02:12.001Z</time></trkpt><trkpt lat="43.464506654529075" lon="10.613629984470686"><ele>510.42857142857144</ele><time>2026-04-19T10:02:16.001Z</time></trkpt><trkpt lat="43.46452437159548" lon="10.613537592996954"><ele>510.8571428571429</ele><time>2026-04-19T10:02:20.001Z</time></trkpt><trkpt lat="43.464561417618576" lon="10.613440312112072"><ele>511.28571428571433</ele><time>2026-04-19T10:02:25.001Z</time></trkpt><trkpt lat="43.46460008720692" lon="10.613359990007782"><ele>511.7142857142858</ele><time>2026-04-19T10:02:29.001Z</time></trkpt><trkpt lat="43.464638991120545" lon="10.613269328823861"><ele>512.1428571428571</ele><time>2026-04-19T10:02:33.001Z</time></trkpt><trkpt lat="43.46465161983185" lon="10.613182725284878"><ele>512.5714285714287</ele><time>2026-04-19T10:04:02.001Z</time></trkpt><trkpt lat="43.464646529341756" lon="10.61307649027805"><ele>513.0</ele><time>2026-04-19T10:04:08.001Z</time></trkpt><trkpt lat="43.46462664235824" lon="10.612978873060184"><ele>513.8571428571429</ele><time>2026-04-19T10:04:13.001Z</time></trkpt><trkpt lat="43.46460891307621" lon="10.612892892458682"><ele>514.7142857142858</ele><time>2026-04-19T10:04:17.001Z</time></trkpt><trkpt lat="43.464601405651024" lon="10.61279783391827"><ele>515.5714285714286</ele><time>2026-04-19T10:04:21.001Z</time></trkpt><trkpt lat="43.46460393471469" lon="10.612694625273342"><ele>516.4285714285714</ele><time>2026-04-19T10:04:26.001Z</time></trkpt><trkpt lat="43.46459788860676" lon="10.612600504315974"><ele>517.2857142857142</ele><time>2026-04-19T10:04:32.001Z</time></trkpt><trkpt lat="43.464594236977966" lon="10.612504527251135"><ele>518.1428571428571</ele><time>2026-04-19T10:04:37.001Z</time></trkpt><trkpt lat="43.46459374108618" lon="10.612411291416475"><ele>519.0</ele><time>2026-04-19T10:04:42.001Z</time></trkpt><trkpt lat="43.46459608630757" lon="10.612307321736463"><ele>520.5714285714286</ele><time>2026-04-19T10:04:47.001Z</time></trkpt><trkpt lat="43.46460182762481" lon="10.6122207168816"><ele>522.1428571428571</ele><time>2026-04-19T10:04:51.001Z</time></trkpt><trkpt lat="43.46460568053314" lon="10.612126378672405"><ele>523.7142857142857</ele><time>2026-04-19T10:04:55.001Z</time></trkpt><trkpt lat="43.46460848711259" lon="10.612029165343555"><ele>525.2857142857142</ele><time>2026-04-19T10:04:59.001Z</time></trkpt><trkpt lat="43.464601777831426" lon="10.611931184137136"><ele>526.8571428571429</ele><time>2026-04-19T10:05:03.001Z</time></trkpt><trkpt lat="43.46459710563668" lon="10.611835949574193"><ele>528.4285714285713</ele><time>2026-04-19T10:05:07.001Z</time></trkpt><trkpt lat="43.4645955402002" lon="10.611745171960168"><ele>530.0</ele><time>2026-04-19T10:05:11.001Z</time></trkpt><trkpt lat="43.46458692783002" lon="10.611648134950464"><ele>531.7142857142857</ele><time>2026-04-19T10:05:15.001Z</time></trkpt><trkpt lat="43.46458940844955" lon="10.611556427533607"><ele>533.4285714285714</ele><time>2026-04-19T10:05:19.001Z</time></trkpt><trkpt lat="43.46460210511173" lon="10.611452323736664"><ele>535.1428571428571</ele><time>2026-04-19T10:05:25.001Z</time></trkpt><trkpt lat="43.464616480132925" lon="10.611363378247143"><ele>536.8571428571429</ele><time>2026-04-19T10:05:29.001Z</time></trkpt><trkpt lat="43.464612390048906" lon="10.611262999366494"><ele>538.5714285714286</ele><time>2026-04-19T10:05:34.001Z</time></trkpt><trkpt lat="43.46461302842073" lon="10.6111749809916"><ele>540.2857142857142</ele><time>2026-04-19T10:05:38.001Z</time></trkpt><trkpt lat="43.46463077054054" lon="10.611086576744622"><ele>542.0</ele><time>2026-04-19T10:05:42.001Z</time></trkpt><trkpt lat="43.464665555431935" lon="10.611008268856233"><ele>544.5714285714286</ele><time>2026-04-19T10:05:46.001Z</time></trkpt><trkpt lat="43.46471473223131" lon="10.610950279242138"><ele>547.1428571428571</ele><time>2026-04-19T10:05:50.001Z</time></trkpt><trkpt lat="43.46475673516322" lon="10.610875641645944"><ele>549.7142857142858</ele><time>2026-04-19T10:05:54.001Z</time></trkpt><trkpt lat="43.464795724172774" lon="10.610797690127525"><ele>552.2857142857142</ele><time>2026-04-19T10:05:58.001Z</time></trkpt><trkpt lat="43.46483626428071" lon="10.6107207531213"><ele>554.8571428571429</ele><time>2026-04-19T10:06:02.001Z</time></trkpt><trkpt lat="43.46487738428267" lon="10.61062919517742"><ele>557.4285714285714</ele><time>2026-04-19T10:06:06.001Z</time></trkpt><trkpt lat="43.464922708656744" lon="10.61054578682638"><ele>560.0</ele><time>2026-04-19T10:06:10.001Z</time></trkpt><trkpt lat="43.46492582860328" lon="10.610454354387501"><ele>560.0</ele><time>2026-04-19T10:06:13.001Z</time></trkpt><trkpt lat="43.46493725470844" lon="10.610367147893031"><ele>560.0</ele><time>2026-04-19T10:06:15.001Z</time></trkpt><trkpt lat="43.464987544476735" lon="10.610298742598648"><ele>560.0</ele><time>2026-04-19T10:06:17.001Z</time></trkpt><trkpt lat="43.46504314088479" lon="10.610219711924053"><ele>560.0</ele><time>2026-04-19T10:06:20.001Z</time></trkpt><trkpt lat="43.46505832751888" lon="10.610102212491949"><ele>560.0</ele><time>2026-04-19T10:06:23.001Z</time></trkpt><trkpt lat="43.46506510140909" lon="10.610007784343312"><ele>560.0</ele><time>2026-04-19T10:06:26.001Z</time></trkpt><trkpt lat="43.46508428999305" lon="10.609917475650876"><ele>560.0</ele><time>2026-04-19T10:06:29.001Z</time></trkpt><trkpt lat="43.46512934571705" lon="10.609835661298385"><ele>560.5714285714286</ele><time>2026-04-19T10:06:32.001Z</time></trkpt><trkpt lat="43.465163098468516" lon="10.609759857583288"><ele>561.1428571428571</ele><time>2026-04-19T10:06:35.001Z</time></trkpt><trkpt lat="43.465193583691516" lon="10.60967240388654"><ele>561.7142857142858</ele><time>2026-04-19T10:06:38.001Z</time></trkpt><trkpt lat="43.465225785870594" lon="10.60958876599546"><ele>562.2857142857142</ele><time>2026-04-19T10:06:41.001Z</time></trkpt><trkpt lat="43.46527109330896" lon="10.60951949302171"><ele>562.8571428571429</ele><time>2026-04-19T10:06:44.001Z</time></trkpt><trkpt lat="43.465328229156775" lon="10.609444767920367"><ele>563.4285714285714</ele><time>2026-04-19T10:06:48.001Z</time></trkpt><trkpt lat="43.465357554413664" lon="10.609364048854697"><ele>564.0</ele><time>2026-04-19T10:06:51.001Z</time></trkpt><trkpt lat="43.46534673051037" lon="10.609249934212338"><ele>564.1428571428571</ele><time>2026-04-19T10:07:29Z</time></trkpt><trkpt lat="43.465321806468495" lon="10.609165722424585"><ele>564.2857142857142</ele><time>2026-04-19T10:07:34Z</time></trkpt><trkpt lat="43.46531858291835" lon="10.609073480948311"><ele>564.4285714285713</ele><time>2026-04-19T10:07:39Z</time></trkpt><trkpt lat="43.46533042528417" lon="10.608968349947265"><ele>564.5714285714286</ele><time>2026-04-19T10:07:44Z</time></trkpt><trkpt lat="43.465331879768975" lon="10.608876674610672"><ele>564.7142857142857</ele><time>2026-04-19T10:07:49Z</time></trkpt><trkpt lat="43.46532080881803" lon="10.608783677257165"><ele>564.8571428571428</ele><time>2026-04-19T10:07:55Z</time></trkpt><trkpt lat="43.46527568693712" lon="10.608713491130477"><ele>565.0</ele><time>2026-04-19T10:08:02Z</time></trkpt><trkpt lat="43.46521275925507" lon="10.608700304865836"><ele>564.9999999999999</ele><time>2026-04-19T10:08:07Z</time></trkpt><trkpt lat="43.465149713962106" lon="10.608669506377234"><ele>565.0</ele><time>2026-04-19T10:08:13Z</time></trkpt><trkpt lat="43.465094189298625" lon="10.608613097926339"><ele>565.0</ele><time>2026-04-19T10:08:20Z</time></trkpt><trkpt lat="43.46514273143407" lon="10.6086695340813"><ele>565.0</ele><time>2026-04-19T10:22:39Z</time></trkpt><trkpt lat="43.46519932041911" lon="10.608711796220913"><ele>565.0</ele><time>2026-04-19T10:22:52Z</time></trkpt><trkpt lat="43.46527030770949" lon="10.608740062876446"><ele>564.9999999999999</ele><time>2026-04-19T10:23:30Z</time></trkpt><trkpt lat="43.46531721274273" lon="10.60879816965"><ele>565.0</ele><time>2026-04-19T10:23:47Z</time></trkpt><trkpt lat="43.4653326486048" lon="10.608882457624242"><ele>564.9999999999999</ele><time>2026-04-19T10:24:06Z</time></trkpt><trkpt lat="43.4653375183943" lon="10.608972300381465"><ele>565.0</ele><time>2026-04-19T10:24:24Z</time></trkpt><trkpt lat="43.465331851664494" lon="10.609062457908125"><ele>565.0</ele><time>2026-04-19T10:24:38Z</time></trkpt><trkpt lat="43.46533531881009" lon="10.60915059493791"><ele>565.0</ele><time>2026-04-19T10:24:52Z</time></trkpt><trkpt lat="43.465377482183975" lon="10.609230160119884"><ele>565.0</ele><time>2026-04-19T10:25:17Z</time></trkpt><trkpt lat="43.465443416085385" lon="10.6091762482358"><ele>564.9999999999999</ele><time>2026-04-19T10:25:24Z</time></trkpt><trkpt lat="43.465511440954614" lon="10.609100865040599"><ele>565.0</ele><time>2026-04-19T10:25:31Z</time></trkpt><trkpt lat="43.46557505821446" lon="10.609009312248087"><ele>566.4285714285713</ele><time>2026-04-19T10:25:34Z</time></trkpt><trkpt lat="43.46558587084269" lon="10.608896170658912"><ele>567.8571428571429</ele><time>2026-04-19T10:25:37Z</time></trkpt><trkpt lat="43.46555389734415" lon="10.60881077981194"><ele>569.2857142857142</ele><time>2026-04-19T10:25:39Z</time></trkpt><trkpt lat="43.46551811371053" lon="10.608712934358495"><ele>570.7142857142857</ele><time>2026-04-19T10:25:42Z</time></trkpt><trkpt lat="43.46552775605766" lon="10.60861724921888"><ele>572.1428571428571</ele><time>2026-04-19T10:25:45Z</time></trkpt><trkpt lat="43.465581224155365" lon="10.608564037831332"><ele>573.5714285714286</ele><time>2026-04-19T10:26:33Z</time></trkpt><trkpt lat="43.46564802219784" lon="10.608523642535081"><ele>575.0</ele><time>2026-04-19T10:26:38Z</time></trkpt><trkpt lat="43.4657136253017" lon="10.608512294436713"><ele>575.1666666666666</ele><time>2026-04-19T10:26:44Z</time></trkpt><trkpt lat="43.46578305010878" lon="10.608521296289815"><ele>575.3333333333333</ele><time>2026-04-19T10:26:51Z</time></trkpt><trkpt lat="43.46586876777686" lon="10.608535145055727"><ele>575.5</ele><time>2026-04-19T10:26:54Z</time></trkpt><trkpt lat="43.465947043141064" lon="10.608525634402687"><ele>575.6666666666666</ele><time>2026-04-19T10:26:57Z</time></trkpt><trkpt lat="43.46603385190404" lon="10.60853113709653"><ele>575.8333333333334</ele><time>2026-04-19T10:28:18.999Z</time></trkpt><trkpt lat="43.46609791117977" lon="10.608536492776926"><ele>576.0</ele><time>2026-04-19T10:28:22Z</time></trkpt><trkpt lat="43.46616217144584" lon="10.60854250609656"><ele>576.0</ele><time>2026-04-19T10:28:24Z</time></trkpt><trkpt lat="43.46603385190404" lon="10.60853113709653"><ele>576.0</ele><time>2026-04-19T10:28:18.999Z</time></trkpt><trkpt lat="43.46609791117977" lon="10.608536492776926"><ele>576.0</ele><time>2026-04-19T10:28:22Z</time></trkpt><trkpt lat="43.46616217144584" lon="10.60854250609656"><ele>576.0</ele><time>2026-04-19T10:28:24Z</time></trkpt><trkpt lat="43.46623733561667" lon="10.608563864325758"><ele>576.0</ele><time>2026-04-19T10:28:27Z</time></trkpt><trkpt lat="43.46632520640077" lon="10.608575770358387"><ele>576.0</ele><time>2026-04-19T10:28:30Z</time></trkpt><trkpt lat="43.466409522039925" lon="10.608574353651573"><ele>576.2857142857143</ele><time>2026-04-19T10:28:33Z</time></trkpt><trkpt lat="43.46647275937863" lon="10.608548855533163"><ele>576.5714285714286</ele><time>2026-04-19T10:28:35Z</time></trkpt><trkpt lat="43.46652272437007" lon="10.608486594608038"><ele>576.8571428571429</ele><time>2026-04-19T10:28:37Z</time></trkpt><trkpt lat="43.466566365919086" lon="10.608397079632669"><ele>577.1428571428571</ele><time>2026-04-19T10:28:39Z</time></trkpt><trkpt lat="43.466610613224404" lon="10.608310788386689"><ele>577.4285714285714</ele><time>2026-04-19T10:28:41Z</time></trkpt><trkpt lat="43.46665415143484" lon="10.608239238057072"><ele>577.7142857142858</ele><time>2026-04-19T10:28:44Z</time></trkpt><trkpt lat="43.466700646197545" lon="10.608174026434328"><ele>578.0</ele><time>2026-04-19T10:28:47Z</time></trkpt><trkpt lat="43.46676822112414" lon="10.608087836941495"><ele>578.0</ele><time>2026-04-19T10:28:50Z</time></trkpt><trkpt lat="43.46681140737448" lon="10.60798160930689"><ele>578.0</ele><time>2026-04-19T10:28:53Z</time></trkpt><trkpt lat="43.46683133790268" lon="10.607898515647793"><ele>578.0</ele><time>2026-04-19T10:28:55Z</time></trkpt><trkpt lat="43.46685934020552" lon="10.607799934243245"><ele>578.0</ele><time>2026-04-19T10:28:58Z</time></trkpt><trkpt lat="43.46692006119572" lon="10.607731004647672"><ele>578.0</ele><time>2026-04-19T10:29:01Z</time></trkpt><trkpt lat="43.466915646631904" lon="10.607633566071039"><ele>578.0</ele><time>2026-04-19T10:29:07Z</time></trkpt><trkpt lat="43.466936087853455" lon="10.607546469122543"><ele>578.0</ele><time>2026-04-19T10:29:15Z</time></trkpt><trkpt lat="43.46698626241744" lon="10.607489576098537"><ele>577.5714285714286</ele><time>2026-04-19T10:29:23Z</time></trkpt><trkpt lat="43.46707906281629" lon="10.607515970400604"><ele>577.1428571428571</ele><time>2026-04-19T10:33:29Z</time></trkpt><trkpt lat="43.467126856410964" lon="10.607573306962133"><ele>576.7142857142857</ele><time>2026-04-19T10:33:33Z</time></trkpt><trkpt lat="43.467081803462875" lon="10.607636286218767"><ele>576.2857142857142</ele><time>2026-04-19T10:33:46Z</time></trkpt><trkpt lat="43.46701933395756" lon="10.607673556190019"><ele>575.8571428571428</ele><time>2026-04-19T10:33:51Z</time></trkpt><trkpt lat="43.466958986217186" lon="10.607717580427822"><ele>575.4285714285714</ele><time>2026-04-19T10:33:59Z</time></trkpt><trkpt lat="43.466905209216286" lon="10.607764466163594"><ele>575.0</ele><time>2026-04-19T10:34:08Z</time></trkpt><trkpt lat="43.46683555562048" lon="10.607826247351435"><ele>575.5</ele><time>2026-04-19T10:34:14Z</time></trkpt><trkpt lat="43.46681111191718" lon="10.607939606925063"><ele>576.0</ele><time>2026-04-19T10:34:19Z</time></trkpt><trkpt lat="43.466786804333914" lon="10.608030576960907"><ele>576.5</ele><time>2026-04-19T10:34:22Z</time></trkpt><trkpt lat="43.46674394710052" lon="10.60811594910737"><ele>577.0</ele><time>2026-04-19T10:34:26Z</time></trkpt><trkpt lat="43.46668694187096" lon="10.608193783567708"><ele>577.5</ele><time>2026-04-19T10:35:17Z</time></trkpt><trkpt lat="43.46662451179748" lon="10.608257964240366"><ele>578.0</ele><time>2026-04-19T10:35:20Z</time></trkpt><trkpt lat="43.46658289172438" lon="10.60833417877329"><ele>578.0</ele><time>2026-04-19T10:35:22Z</time></trkpt><trkpt lat="43.466546319887854" lon="10.608424445299878"><ele>578.0</ele><time>2026-04-19T10:35:24Z</time></trkpt><trkpt lat="43.46650718478743" lon="10.608510747916155"><ele>578.0</ele><time>2026-04-19T10:35:26Z</time></trkpt><trkpt lat="43.46644254178781" lon="10.608561625250395"><ele>578.0</ele><time>2026-04-19T10:35:28Z</time></trkpt><trkpt lat="43.46636726980773" lon="10.608576185230474"><ele>578.0</ele><time>2026-04-19T10:35:30Z</time></trkpt><trkpt lat="43.46628630280831" lon="10.60856986413726"><ele>578.0</ele><time>2026-04-19T10:35:32Z</time></trkpt><trkpt lat="43.466218291342756" lon="10.608570334196768"><ele>578.0</ele><time>2026-04-19T10:35:34Z</time></trkpt><trkpt lat="43.46614966708088" lon="10.60855617525654"><ele>577.7142857142858</ele><time>2026-04-19T10:35:36Z</time></trkpt><trkpt lat="43.466081095180854" lon="10.608537645818977"><ele>577.4285714285714</ele><time>2026-04-19T10:35:38Z</time></trkpt><trkpt lat="43.46600237825987" lon="10.608537469458991"><ele>577.1428571428571</ele><time>2026-04-19T10:35:40Z</time></trkpt><trkpt lat="43.465923247382584" lon="10.60855475414491"><ele>576.8571428571429</ele><time>2026-04-19T10:35:42Z</time></trkpt><trkpt lat="43.465851111418715" lon="10.608549932180098"><ele>576.5714285714286</ele><time>2026-04-19T10:35:45Z</time></trkpt><trkpt lat="43.465788052074444" lon="10.608537264868257"><ele>576.2857142857143</ele><time>2026-04-19T10:35:47Z</time></trkpt><trkpt lat="43.46570833773788" lon="10.608545455598353"><ele>576.0</ele><time>2026-04-19T10:35:49Z</time></trkpt><trkpt lat="43.46562277304634" lon="10.608562303753544"><ele>576.0</ele><time>2026-04-19T10:35:51Z</time></trkpt><trkpt lat="43.465552740328135" lon="10.60861054040363"><ele>576.0</ele><time>2026-04-19T10:35:53Z</time></trkpt><trkpt lat="43.46551868916121" lon="10.6086856305463"><ele>576.0</ele><time>2026-04-19T10:35:55Z</time></trkpt><trkpt lat="43.46554532060427" lon="10.608806667916312"><ele>576.0</ele><time>2026-04-19T10:35:58Z</time></trkpt><trkpt lat="43.46557868440036" lon="10.608921584480496"><ele>576.0</ele><time>2026-04-19T10:36:01.001Z</time></trkpt><trkpt lat="43.46556192490299" lon="10.609047428735586"><ele>576.0</ele><time>2026-04-19T10:36:04.001Z</time></trkpt><trkpt lat="43.465517534146315" lon="10.6091142785594"><ele>575.8333333333334</ele><time>2026-04-19T10:36:06.001Z</time></trkpt><trkpt lat="43.46546474744184" lon="10.609180231295648"><ele>575.6666666666666</ele><time>2026-04-19T10:36:08.001Z</time></trkpt><trkpt lat="43.465413210339875" lon="10.60924430323618"><ele>575.5</ele><time>2026-04-19T10:36:10.001Z</time></trkpt><trkpt lat="43.46535305237461" lon="10.609341372706949"><ele>575.3333333333333</ele><time>2026-04-19T10:36:13.001Z</time></trkpt><trkpt lat="43.46532171732468" lon="10.609434201610366"><ele>575.1666666666666</ele><time>2026-04-19T10:36:15.001Z</time></trkpt><trkpt lat="43.46526385252057" lon="10.60953955473058"><ele>575.0</ele><time>2026-04-19T10:36:17.001Z</time></trkpt><trkpt lat="43.46519622104656" lon="10.609673447654618"><ele>572.8</ele><time>2026-04-19T10:36:19.001Z</time></trkpt><trkpt lat="43.46514887667459" lon="10.609806413307686"><ele>570.6</ele><time>2026-04-19T10:36:21.001Z</time></trkpt><trkpt lat="43.465101731620635" lon="10.609911508151926"><ele>568.4</ele><time>2026-04-19T10:36:23.001Z</time></trkpt><trkpt lat="43.46504857427857" lon="10.610036337804175"><ele>566.2</ele><time>2026-04-19T10:36:25.001Z</time></trkpt><trkpt lat="43.46504530595199" lon="10.610172231649882"><ele>564.0</ele><time>2026-04-19T10:36:27.001Z</time></trkpt><trkpt lat="43.465015509096304" lon="10.610283922947895"><ele>563.3333333333334</ele><time>2026-04-19T10:36:29.001Z</time></trkpt><trkpt lat="43.464948915190725" lon="10.610377561879451"><ele>562.6666666666666</ele><time>2026-04-19T10:36:31.001Z</time></trkpt><trkpt lat="43.46490319593488" lon="10.610500698207616"><ele>562.0</ele><time>2026-04-19T10:36:33Z</time></trkpt><trkpt lat="43.46489371615888" lon="10.610614417753174"><ele>561.3333333333333</ele><time>2026-04-19T10:36:35Z</time></trkpt><trkpt lat="43.46484827368683" lon="10.610705245439172"><ele>560.6666666666666</ele><time>2026-04-19T10:36:37Z</time></trkpt><trkpt lat="43.46479064571865" lon="10.610798926406712"><ele>560.0</ele><time>2026-04-19T10:36:39Z</time></trkpt><trkpt lat="43.46473466458995" lon="10.610896244271595"><ele>560.0</ele><time>2026-04-19T10:36:42Z</time></trkpt><trkpt lat="43.46469075358059" lon="10.610967602490263"><ele>560.0</ele><time>2026-04-19T10:36:44Z</time></trkpt><trkpt lat="43.46463739865002" lon="10.611036045738151"><ele>560.0</ele><time>2026-04-19T10:36:49Z</time></trkpt><trkpt lat="43.46460803764145" lon="10.611144703486636"><ele>560.0</ele><time>2026-04-19T10:36:53Z</time></trkpt><trkpt lat="43.46460750889831" lon="10.61123714643812"><ele>560.0</ele><time>2026-04-19T10:36:56Z</time></trkpt><trkpt lat="43.4646109780168" lon="10.611352903074076"><ele>560.0</ele><time>2026-04-19T10:37:06Z</time></trkpt><trkpt lat="43.46460228128461" lon="10.611439445546878"><ele>560.0</ele><time>2026-04-19T10:37:09Z</time></trkpt><trkpt lat="43.464589976592606" lon="10.611536178147695"><ele>557.0</ele><time>2026-04-19T10:37:22Z</time></trkpt><trkpt lat="43.46457050571603" lon="10.611636727192764"><ele>554.0</ele><time>2026-04-19T10:37:28Z</time></trkpt><trkpt lat="43.464577727195596" lon="10.611731805143972"><ele>551.0</ele><time>2026-04-19T10:37:33Z</time></trkpt><trkpt lat="43.46459365606043" lon="10.611835511814864"><ele>548.0</ele><time>2026-04-19T10:37:44.001Z</time></trkpt><trkpt lat="43.464593536566554" lon="10.611931409597892"><ele>545.0</ele><time>2026-04-19T10:37:50.001Z</time></trkpt><trkpt lat="43.46459696891286" lon="10.612040738855026"><ele>542.0</ele><time>2026-04-19T10:37:55.001Z</time></trkpt><trkpt lat="43.464583307071514" lon="10.612152771402823"><ele>540.2857142857142</ele><time>2026-04-19T10:37:58.001Z</time></trkpt><trkpt lat="43.46458166388643" lon="10.612270387208302"><ele>538.5714285714286</ele><time>2026-04-19T10:38:01.001Z</time></trkpt><trkpt lat="43.46457964684546" lon="10.612359419219272"><ele>536.8571428571429</ele><time>2026-04-19T10:38:03.001Z</time></trkpt><trkpt lat="43.464582690450065" lon="10.612460210138602"><ele>535.1428571428571</ele><time>2026-04-19T10:38:07.001Z</time></trkpt><trkpt lat="43.46458698534604" lon="10.612549988934727"><ele>533.4285714285714</ele><time>2026-04-19T10:38:12.001Z</time></trkpt><trkpt lat="43.464585686834425" lon="10.612639064275502"><ele>531.7142857142857</ele><time>2026-04-19T10:38:22.001Z</time></trkpt><trkpt lat="43.46460511605439" lon="10.612722711613648"><ele>530.0</ele><time>2026-04-19T10:38:35.001Z</time></trkpt><trkpt lat="43.46459410423305" lon="10.612808924410603"><ele>528.4285714285713</ele><time>2026-04-19T10:38:44.001Z</time></trkpt><trkpt lat="43.464607466221395" lon="10.612903239020769"><ele>526.8571428571429</ele><time>2026-04-19T10:38:49.001Z</time></trkpt><trkpt lat="43.464617789308285" lon="10.612991189780335"><ele>525.2857142857142</ele><time>2026-04-19T10:38:54.001Z</time></trkpt><trkpt lat="43.464642113326256" lon="10.613095096260217"><ele>523.7142857142857</ele><time>2026-04-19T10:38:59.001Z</time></trkpt><trkpt lat="43.46464491110364" lon="10.6131912481987"><ele>522.1428571428571</ele><time>2026-04-19T10:39:04.001Z</time></trkpt><trkpt lat="43.46462317765418" lon="10.613277966045054"><ele>520.5714285714286</ele><time>2026-04-19T10:39:08.001Z</time></trkpt><trkpt lat="43.46458474919883" lon="10.613367038843299"><ele>519.0</ele><time>2026-04-19T10:39:13.001Z</time></trkpt><trkpt lat="43.46454225071617" lon="10.613457587485339"><ele>519.0</ele><time>2026-04-19T10:39:17.001Z</time></trkpt><trkpt lat="43.46450908409186" lon="10.613560288794838"><ele>519.0</ele><time>2026-04-19T10:39:21.001Z</time></trkpt><trkpt lat="43.464488565493404" lon="10.613652017936564"><ele>519.0</ele><time>2026-04-19T10:39:24.001Z</time></trkpt><trkpt lat="43.46447019959194" lon="10.613752608547854"><ele>519.0</ele><time>2026-04-19T10:39:28.001Z</time></trkpt><trkpt lat="43.46444743551976" lon="10.613840932614726"><ele>519.0</ele><time>2026-04-19T10:39:32.001Z</time></trkpt><trkpt lat="43.46442324377242" lon="10.61393076734284"><ele>519.0</ele><time>2026-04-19T10:39:37.001Z</time></trkpt><trkpt lat="43.464410947511226" lon="10.614027080341721"><ele>519.0</ele><time>2026-04-19T10:39:43.001Z</time></trkpt><trkpt lat="43.46439356425617" lon="10.614119905595272"><ele>517.7142857142857</ele><time>2026-04-19T10:39:47.001Z</time></trkpt><trkpt lat="43.46437405332526" lon="10.614211357510243"><ele>516.4285714285713</ele><time>2026-04-19T10:39:51.001Z</time></trkpt><trkpt lat="43.464354429277385" lon="10.614313540464288"><ele>515.1428571428571</ele><time>2026-04-19T10:39:55.001Z</time></trkpt><trkpt lat="43.46433406719364" lon="10.614408986117775"><ele>513.8571428571429</ele><time>2026-04-19T10:39:59.001Z</time></trkpt><trkpt lat="43.464317084061825" lon="10.61450213072907"><ele>512.5714285714287</ele><time>2026-04-19T10:40:03.001Z</time></trkpt><trkpt lat="43.464291685575205" lon="10.614598002543719"><ele>511.28571428571433</ele><time>2026-04-19T10:40:08.001Z</time></trkpt><trkpt lat="43.46426090678987" lon="10.614687377012183"><ele>510.0</ele><time>2026-04-19T10:40:13.001Z</time></trkpt><trkpt lat="43.46423082736789" lon="10.614774997382199"><ele>507.8571428571429</ele><time>2026-04-19T10:40:19.001Z</time></trkpt><trkpt lat="43.46422678197066" lon="10.614867054042136"><ele>505.7142857142858</ele><time>2026-04-19T10:40:26.001Z</time></trkpt><trkpt lat="43.4642063558711" lon="10.614964520911714"><ele>503.57142857142856</ele><time>2026-04-19T10:40:33.001Z</time></trkpt><trkpt lat="43.464186383158186" lon="10.615051388285961"><ele>501.42857142857144</ele><time>2026-04-19T10:40:40.001Z</time></trkpt><trkpt lat="43.464155950718286" lon="10.615143903272006"><ele>499.2857142857143</ele><time>2026-04-19T10:40:47.001Z</time></trkpt><trkpt lat="43.464125205234474" lon="10.615232403911275"><ele>497.1428571428571</ele><time>2026-04-19T10:40:54.001Z</time></trkpt><trkpt lat="43.46410438301788" lon="10.615316304214733"><ele>494.99999999999994</ele><time>2026-04-19T10:41:01.001Z</time></trkpt><trkpt lat="43.464086418659626" lon="10.615401806173113"><ele>491.99999999999994</ele><time>2026-04-19T10:41:10.001Z</time></trkpt><trkpt lat="43.46405983146356" lon="10.61549933614353"><ele>489.0</ele><time>2026-04-19T10:41:15.001Z</time></trkpt><trkpt lat="43.4640441554239" lon="10.6155886638107"><ele>485.99999999999994</ele><time>2026-04-19T10:41:26.001Z</time></trkpt><trkpt lat="43.464028248026615" lon="10.615674605284813"><ele>482.99999999999994</ele><time>2026-04-19T10:41:35.001Z</time></trkpt><trkpt lat="43.464050208027764" lon="10.615755953653252"><ele>480.0</ele><time>2026-04-19T10:41:47.001Z</time></trkpt><trkpt lat="43.46409080447533" lon="10.615827691381384"><ele>476.99999999999994</ele><time>2026-04-19T10:41:53.001Z</time></trkpt><trkpt lat="43.46413015405948" lon="10.61589542948285"><ele>473.99999999999994</ele><time>2026-04-19T10:42:00.001Z</time></trkpt><trkpt lat="43.46416438907987" lon="10.615971929912295"><ele>473.99999999999994</ele><time>2026-04-19T10:42:18.001Z</time></trkpt><trkpt lat="43.46417577784886" lon="10.616069397284244"><ele>474.0</ele><time>2026-04-19T10:42:34.001Z</time></trkpt><trkpt lat="43.46416517886369" lon="10.616181785029827"><ele>473.99999999999994</ele><time>2026-04-19T10:42:45.001Z</time></trkpt><trkpt lat="43.464152317296445" lon="10.616274707362757"><ele>473.99999999999994</ele><time>2026-04-19T10:42:49.001Z</time></trkpt><trkpt lat="43.46414209497924" lon="10.6163615998694"><ele>474.0</ele><time>2026-04-19T10:42:54.001Z</time></trkpt><trkpt lat="43.46414714411348" lon="10.616448781768145"><ele>473.99999999999994</ele><time>2026-04-19T10:42:59.001Z</time></trkpt><trkpt lat="43.4641340935055" lon="10.616539925949759"><ele>473.99999999999994</ele><time>2026-04-19T10:43:06.001Z</time></trkpt><trkpt lat="43.464118968635375" lon="10.616631636909878"><ele>471.5714285714285</ele><time>2026-04-19T10:43:12.001Z</time></trkpt><trkpt lat="43.46410331351025" lon="10.616721893893295"><ele>469.1428571428571</ele><time>2026-04-19T10:43:18.001Z</time></trkpt><trkpt lat="43.46413325373913" lon="10.61680010898242"><ele>466.7142857142857</ele><time>2026-04-19T10:43:47.001Z</time></trkpt><trkpt lat="43.464188249297194" lon="10.61675137593607"><ele>464.2857142857143</ele><time>2026-04-19T10:44:18.001Z</time></trkpt><trkpt lat="43.4642401875659" lon="10.61668011831178"><ele>461.8571428571429</ele><time>2026-04-19T10:44:24.001Z</time></trkpt><trkpt lat="43.464273914597264" lon="10.616598324152514"><ele>459.4285714285715</ele><time>2026-04-19T10:44:28.001Z</time></trkpt><trkpt lat="43.46429588154738" lon="10.61649641302203"><ele>457.00000000000006</ele><time>2026-04-19T10:44:32.001Z</time></trkpt><trkpt lat="43.46431384493578" lon="10.61638255237011"><ele>457.00000000000006</ele><time>2026-04-19T10:44:36.001Z</time></trkpt><trkpt lat="43.46432482745382" lon="10.616291746079257"><ele>457.0</ele><time>2026-04-19T10:44:39.001Z</time></trkpt><trkpt lat="43.46434883472397" lon="10.616197569861129"><ele>457.0</ele><time>2026-04-19T10:44:42.001Z</time></trkpt><trkpt lat="43.46437979762987" lon="10.616117729144804"><ele>457.0</ele><time>2026-04-19T10:44:45.001Z</time></trkpt><trkpt lat="43.46445351132651" lon="10.616045210208526"><ele>457.00000000000006</ele><time>2026-04-19T10:44:48.001Z</time></trkpt><trkpt lat="43.46452346116007" lon="10.615959618092871"><ele>457.0</ele><time>2026-04-19T10:44:51.001Z</time></trkpt><trkpt lat="43.4645646760438" lon="10.615875821595816"><ele>458.6666666666667</ele><time>2026-04-19T10:44:53.001Z</time></trkpt><trkpt lat="43.46460760977994" lon="10.61578769351793"><ele>460.33333333333337</ele><time>2026-04-19T10:44:55.001Z</time></trkpt><trkpt lat="43.46465568245506" lon="10.61570374500684"><ele>462.0</ele><time>2026-04-19T10:44:57.001Z</time></trkpt><trkpt lat="43.46471248322682" lon="10.61561136305959"><ele>463.66666666666663</ele><time>2026-04-19T10:44:59.001Z</time></trkpt><trkpt lat="43.46475593652691" lon="10.615501468048679"><ele>465.3333333333333</ele><time>2026-04-19T10:45:01.001Z</time></trkpt><trkpt lat="43.46482018383934" lon="10.615412308954916"><ele>467.0</ele><time>2026-04-19T10:45:03.001Z</time></trkpt><trkpt lat="43.46486246804985" lon="10.615288741165246"><ele>466.99999999999994</ele><time>2026-04-19T10:45:05.001Z</time></trkpt><trkpt lat="43.464900269717276" lon="10.615171734038197"><ele>467.0</ele><time>2026-04-19T10:45:07.001Z</time></trkpt><trkpt lat="43.46493863500728" lon="10.615056960627617"><ele>467.0</ele><time>2026-04-19T10:45:09.001Z</time></trkpt><trkpt lat="43.46501396336098" lon="10.614967542118801"><ele>467.0</ele><time>2026-04-19T10:45:11.001Z</time></trkpt><trkpt lat="43.46507991549769" lon="10.61489794549048"><ele>466.99999999999994</ele><time>2026-04-19T10:45:13.001Z</time></trkpt><trkpt lat="43.46512859361933" lon="10.614814837670384"><ele>467.0</ele><time>2026-04-19T10:45:15.001Z</time></trkpt><trkpt lat="43.46520044612539" lon="10.614716526875254"><ele>466.99999999999994</ele><time>2026-04-19T10:45:17.001Z</time></trkpt><trkpt lat="43.46526213996155" lon="10.614615829531726"><ele>467.0</ele><time>2026-04-19T10:45:19.001Z</time></trkpt><trkpt lat="43.46531121295892" lon="10.61450657078896"><ele>467.0</ele><time>2026-04-19T10:45:21.001Z</time></trkpt><trkpt lat="43.46535742647736" lon="10.614410441598908"><ele>467.0</ele><time>2026-04-19T10:45:23.001Z</time></trkpt><trkpt lat="43.465410129831106" lon="10.61431218358448"><ele>466.99999999999994</ele><time>2026-04-19T10:45:25.001Z</time></trkpt><trkpt lat="43.465468824895815" lon="10.614225405837376"><ele>467.0</ele><time>2026-04-19T10:45:27.001Z</time></trkpt><trkpt lat="43.46553224011968" lon="10.614131757203763"><ele>467.49999999999994</ele><time>2026-04-19T10:45:29.001Z</time></trkpt><trkpt lat="43.465604189371135" lon="10.614043943499532"><ele>468.0</ele><time>2026-04-19T10:45:31.001Z</time></trkpt><trkpt lat="43.465663179149296" lon="10.613964663121171"><ele>468.5</ele><time>2026-04-19T10:45:33.001Z</time></trkpt><trkpt lat="43.46570766238183" lon="10.613871703103955"><ele>469.0</ele><time>2026-04-19T10:45:35.001Z</time></trkpt><trkpt lat="43.465778655895214" lon="10.613787826444526"><ele>469.49999999999994</ele><time>2026-04-19T10:45:37.001Z</time></trkpt><trkpt lat="43.46584068492059" lon="10.61370158970966"><ele>470.0</ele><time>2026-04-19T10:45:39.001Z</time></trkpt><trkpt lat="43.46589578508615" lon="10.613615192467549"><ele>470.0</ele><time>2026-04-19T10:45:41.001Z</time></trkpt><trkpt lat="43.46595594801036" lon="10.61348079455815"><ele>470.0</ele><time>2026-04-19T10:45:43.001Z</time></trkpt><trkpt lat="43.466020760812086" lon="10.613416659936638"><ele>470.0</ele><time>2026-04-19T10:45:45.001Z</time></trkpt><trkpt lat="43.46611187627699" lon="10.613452394680603"><ele>470.0</ele><time>2026-04-19T10:45:47.001Z</time></trkpt><trkpt lat="43.4661829217959" lon="10.613516624219685"><ele>470.0</ele><time>2026-04-19T10:45:48.001Z</time></trkpt><trkpt lat="43.46622658115471" lon="10.613623901061581"><ele>466.2</ele><time>2026-04-19T10:45:49.001Z</time></trkpt><trkpt lat="43.466234883606" lon="10.613746291429507"><ele>462.4</ele><time>2026-04-19T10:45:50.001Z</time></trkpt><trkpt lat="43.46620009882125" lon="10.613872323085804"><ele>458.6</ele><time>2026-04-19T10:45:51.001Z</time></trkpt><trkpt lat="43.46613140802597" lon="10.614001050452105"><ele>454.8</ele><time>2026-04-19T10:45:52.001Z</time></trkpt><trkpt lat="43.46606318253944" lon="10.614143026869478"><ele>451.0</ele><time>2026-04-19T10:45:53.001Z</time></trkpt><trkpt lat="43.46597129354598" lon="10.614305201969971"><ele>451.0</ele><time>2026-04-19T10:45:54.001Z</time></trkpt><trkpt lat="43.465889982571994" lon="10.614473964924862"><ele>451.0</ele><time>2026-04-19T10:45:55.001Z</time></trkpt><trkpt lat="43.46584136504124" lon="10.614609402354835"><ele>451.0</ele><time>2026-04-19T10:45:56.001Z</time></trkpt><trkpt lat="43.46578435915597" lon="10.61473248890119"><ele>451.0</ele><time>2026-04-19T10:45:57.001Z</time></trkpt><trkpt lat="43.46575914495456" lon="10.614864353570827"><ele>448.75</ele><time>2026-04-19T10:45:58.001Z</time></trkpt><trkpt lat="43.46576858217488" lon="10.615030163096941"><ele>446.5</ele><time>2026-04-19T10:45:59.001Z</time></trkpt><trkpt lat="43.46577077069705" lon="10.615195992801933"><ele>444.25</ele><time>2026-04-19T10:46:00.001Z</time></trkpt><trkpt lat="43.46573771939923" lon="10.615348246626281"><ele>442.0</ele><time>2026-04-19T10:46:01.001Z</time></trkpt><trkpt lat="43.465645835283894" lon="10.615451119346478"><ele>441.83333333333337</ele><time>2026-04-19T10:46:02.001Z</time></trkpt><trkpt lat="43.4655762166714" lon="10.615551990081222"><ele>441.6666666666667</ele><time>2026-04-19T10:46:03.001Z</time></trkpt><trkpt lat="43.4655414597179" lon="10.615660557880416"><ele>441.5</ele><time>2026-04-19T10:46:04.001Z</time></trkpt><trkpt lat="43.46552760871907" lon="10.615770937202855"><ele>441.33333333333337</ele><time>2026-04-19T10:46:05.001Z</time></trkpt><trkpt lat="43.46554113749827" lon="10.615878283969053"><ele>441.1666666666667</ele><time>2026-04-19T10:46:06.001Z</time></trkpt><trkpt lat="43.465564350977196" lon="10.615976664625826"><ele>441.0</ele><time>2026-04-19T10:46:07.001Z</time></trkpt><trkpt lat="43.46559609585298" lon="10.616056757631174"><ele>441.0</ele><time>2026-04-19T10:46:08.001Z</time></trkpt><trkpt lat="43.465623411684355" lon="10.616138303973639"><ele>441.0</ele><time>2026-04-19T10:46:09.001Z</time></trkpt><trkpt lat="43.46564479528831" lon="10.61622175551433"><ele>441.0</ele><time>2026-04-19T10:46:10.001Z</time></trkpt><trkpt lat="43.46568862229268" lon="10.616383168611653"><ele>441.0</ele><time>2026-04-19T10:46:12.001Z</time></trkpt><trkpt lat="43.465723728034426" lon="10.6165516853043"><ele>441.0</ele><time>2026-04-19T10:46:14.001Z</time></trkpt><trkpt lat="43.46574161119256" lon="10.616636786248813"><ele>441.0</ele><time>2026-04-19T10:46:15.001Z</time></trkpt><trkpt lat="43.46576119702512" lon="10.616726587460414"><ele>439.7142857142857</ele><time>2026-04-19T10:46:16.001Z</time></trkpt><trkpt lat="43.465785634316475" lon="10.61681722101555"><ele>438.42857142857144</ele><time>2026-04-19T10:46:17.001Z</time></trkpt><trkpt lat="43.46581427611741" lon="10.616902084170073"><ele>437.1428571428571</ele><time>2026-04-19T10:46:18.001Z</time></trkpt><trkpt lat="43.46584110256411" lon="10.616986156713635"><ele>435.8571428571429</ele><time>2026-04-19T10:46:19.001Z</time></trkpt><trkpt lat="43.465869697803875" lon="10.617068875343467"><ele>434.57142857142856</ele><time>2026-04-19T10:46:20.001Z</time></trkpt><trkpt lat="43.46590026338209" lon="10.617150773138247"><ele>433.2857142857143</ele><time>2026-04-19T10:46:21.001Z</time></trkpt><trkpt lat="43.46593421101293" lon="10.617239845426036"><ele>432.0</ele><time>2026-04-19T10:46:22.001Z</time></trkpt><trkpt lat="43.46597319190828" lon="10.61732349289402"><ele>429.42857142857144</ele><time>2026-04-19T10:46:23.001Z</time></trkpt><trkpt lat="43.466010689593965" lon="10.617411144155776"><ele>426.85714285714283</ele><time>2026-04-19T10:46:24.001Z</time></trkpt><trkpt lat="43.46604836911273" lon="10.617498856568831"><ele>424.28571428571433</ele><time>2026-04-19T10:46:25.001Z</time></trkpt><trkpt lat="43.46607097362938" lon="10.617591749820809"><ele>421.7142857142857</ele><time>2026-04-19T10:46:26.001Z</time></trkpt><trkpt lat="43.466087403219056" lon="10.617685636967808"><ele>419.14285714285717</ele><time>2026-04-19T10:46:27.001Z</time></trkpt><trkpt lat="43.466120967102704" lon="10.617768827845664"><ele>416.5714285714286</ele><time>2026-04-19T10:46:28.001Z</time></trkpt><trkpt lat="43.46615770890696" lon="10.617850240397273"><ele>414.0</ele><time>2026-04-19T10:46:29.001Z</time></trkpt><trkpt lat="43.46619664270445" lon="10.617927716715457"><ele>415.5714285714286</ele><time>2026-04-19T10:46:30.001Z</time></trkpt><trkpt lat="43.466240478722675" lon="10.618000742231338"><ele>417.14285714285717</ele><time>2026-04-19T10:46:31.001Z</time></trkpt><trkpt lat="43.46628684683759" lon="10.61807111900595"><ele>418.7142857142857</ele><time>2026-04-19T10:46:32.001Z</time></trkpt><trkpt lat="43.46633095926755" lon="10.618146866634074"><ele>420.28571428571433</ele><time>2026-04-19T10:46:33.001Z</time></trkpt><trkpt lat="43.46636081861996" lon="10.618234438603796"><ele>421.85714285714283</ele><time>2026-04-19T10:46:34.001Z</time></trkpt><trkpt lat="43.46639456021197" lon="10.618318946385676"><ele>423.42857142857144</ele><time>2026-04-19T10:46:35.001Z</time></trkpt><trkpt lat="43.46643842384611" lon="10.618392214948452"><ele>425.0</ele><time>2026-04-19T10:46:36.001Z</time></trkpt><trkpt lat="43.466489559830535" lon="10.618460132491562"><ele>425.0</ele><time>2026-04-19T10:46:37.001Z</time></trkpt><trkpt lat="43.466540254130365" lon="10.618521721625656"><ele>425.0</ele><time>2026-04-19T10:46:38.001Z</time></trkpt><trkpt lat="43.46659171645887" lon="10.618587231673645"><ele>425.0</ele><time>2026-04-19T10:46:39.001Z</time></trkpt><trkpt lat="43.46662152502989" lon="10.618676192280324"><ele>425.0</ele><time>2026-04-19T10:46:40.001Z</time></trkpt><trkpt lat="43.46662923153363" lon="10.618771403884084"><ele>425.0</ele><time>2026-04-19T10:46:41.001Z</time></trkpt><trkpt lat="43.46662140304597" lon="10.61886937849188"><ele>425.0</ele><time>2026-04-19T10:46:42.001Z</time></trkpt><trkpt lat="43.466619096878496" lon="10.618961204655182"><ele>425.0</ele><time>2026-04-19T10:46:43.001Z</time></trkpt><trkpt lat="43.46662126590685" lon="10.619051745643782"><ele>422.8333333333333</ele><time>2026-04-19T10:46:44.001Z</time></trkpt><trkpt lat="43.46662702095068" lon="10.619140698956635"><ele>420.66666666666663</ele><time>2026-04-19T10:46:45.001Z</time></trkpt><trkpt lat="43.466636379911364" lon="10.619230744217338"><ele>418.5</ele><time>2026-04-19T10:46:46.001Z</time></trkpt><trkpt lat="43.4666498710111" lon="10.619319909319358"><ele>416.33333333333337</ele><time>2026-04-19T10:46:47.001Z</time></trkpt><trkpt lat="43.46666359540102" lon="10.619405885235668"><ele>414.1666666666667</ele><time>2026-04-19T10:46:48.001Z</time></trkpt><trkpt lat="43.46667753833405" lon="10.619575495560074"><ele>412.0</ele><time>2026-04-19T10:46:50.001Z</time></trkpt><trkpt lat="43.46667064026026" lon="10.619666347414997"><ele>411.1428571428571</ele><time>2026-04-19T10:46:51.001Z</time></trkpt><trkpt lat="43.46666423150111" lon="10.619764787103547"><ele>410.2857142857143</ele><time>2026-04-19T10:46:52.001Z</time></trkpt><trkpt lat="43.46665381786154" lon="10.619861251386165"><ele>409.42857142857144</ele><time>2026-04-19T10:46:53.001Z</time></trkpt><trkpt lat="43.4666416899888" lon="10.61995558145894"><ele>408.57142857142856</ele><time>2026-04-19T10:46:54.001Z</time></trkpt><trkpt lat="43.46662716957665" lon="10.620052306113648"><ele>407.7142857142857</ele><time>2026-04-19T10:46:55.001Z</time></trkpt><trkpt lat="43.466613360873794" lon="10.620150225508253"><ele>406.85714285714283</ele><time>2026-04-19T10:46:56.001Z</time></trkpt><trkpt lat="43.46660424029362" lon="10.620250587467426"><ele>406.0</ele><time>2026-04-19T10:46:57.001Z</time></trkpt><trkpt lat="43.46660815033739" lon="10.62035019423946"><ele>404.50000000000006</ele><time>2026-04-19T10:46:58.001Z</time></trkpt><trkpt lat="43.4666347029267" lon="10.620438696124202"><ele>403.0</ele><time>2026-04-19T10:46:59.001Z</time></trkpt><trkpt lat="43.46667489668577" lon="10.620507493801018"><ele>401.5</ele><time>2026-04-19T10:47:00.001Z</time></trkpt><trkpt lat="43.46672006313382" lon="10.620575263236786"><ele>400.0</ele><time>2026-04-19T10:47:01.001Z</time></trkpt><trkpt lat="43.46676632764141" lon="10.620640130175547"><ele>398.50000000000006</ele><time>2026-04-19T10:47:02.001Z</time></trkpt><trkpt lat="43.46682927735654" lon="10.62077386531026"><ele>397.0</ele><time>2026-04-19T10:47:04Z</time></trkpt><trkpt lat="43.46686856032141" lon="10.620909915164178"><ele>397.0</ele><time>2026-04-19T10:47:06Z</time></trkpt><trkpt lat="43.46688727003541" lon="10.620998885878999"><ele>397.0</ele><time>2026-04-19T10:47:07Z</time></trkpt><trkpt lat="43.46685926320379" lon="10.62109240456267"><ele>397.0</ele><time>2026-04-19T10:47:08Z</time></trkpt><trkpt lat="43.4667835762671" lon="10.621195399015514"><ele>397.0</ele><time>2026-04-19T10:47:10Z</time></trkpt><trkpt lat="43.466704852900016" lon="10.621265245535861"><ele>397.0</ele><time>2026-04-19T10:47:12Z</time></trkpt><trkpt lat="43.46661909973878" lon="10.621387087951838"><ele>398.20000000000005</ele><time>2026-04-19T10:47:14Z</time></trkpt><trkpt lat="43.46653793255258" lon="10.621506099683094"><ele>399.4</ele><time>2026-04-19T10:47:16Z</time></trkpt><trkpt lat="43.466504532943034" lon="10.621593017123812"><ele>400.6</ele><time>2026-04-19T10:47:17Z</time></trkpt><trkpt lat="43.46648049761383" lon="10.621681883160278"><ele>401.79999999999995</ele><time>2026-04-19T10:47:18Z</time></trkpt><trkpt lat="43.46645389753962" lon="10.62185450293539"><ele>403.0</ele><time>2026-04-19T10:47:20Z</time></trkpt><trkpt lat="43.46643886885113" lon="10.6219489035116"><ele>404.6666666666667</ele><time>2026-04-19T10:47:21Z</time></trkpt><trkpt lat="43.46642591416383" lon="10.6220452147051"><ele>406.33333333333337</ele><time>2026-04-19T10:47:22Z</time></trkpt><trkpt lat="43.46642090119415" lon="10.62214254789156"><ele>408.0</ele><time>2026-04-19T10:47:23Z</time></trkpt><trkpt lat="43.4664268680284" lon="10.622237688900999"><ele>409.66666666666663</ele><time>2026-04-19T10:47:24Z</time></trkpt><trkpt lat="43.46643824515929" lon="10.622327379095003"><ele>411.3333333333333</ele><time>2026-04-19T10:47:25Z</time></trkpt><trkpt lat="43.466409399744826" lon="10.622507153500734"><ele>413.0</ele><time>2026-04-19T10:47:27Z</time></trkpt><trkpt lat="43.466392404700855" lon="10.622604340758617"><ele>413.0</ele><time>2026-04-19T10:47:28Z</time></trkpt><trkpt lat="43.466338687268376" lon="10.622675357687177"><ele>413.0</ele><time>2026-04-19T10:47:29Z</time></trkpt><trkpt lat="43.46628619700473" lon="10.622742027702287"><ele>413.0</ele><time>2026-04-19T10:47:30Z</time></trkpt><trkpt lat="43.466236056577586" lon="10.622799711284602"><ele>413.0</ele><time>2026-04-19T10:47:31Z</time></trkpt><trkpt lat="43.46616933870301" lon="10.62282572066441"><ele>413.0</ele><time>2026-04-19T10:47:32Z</time></trkpt><trkpt lat="43.466103382352756" lon="10.622858648814788"><ele>413.0</ele><time>2026-04-19T10:47:33Z</time></trkpt><trkpt lat="43.46603418046877" lon="10.62289328885368"><ele>413.0</ele><time>2026-04-19T10:47:34Z</time></trkpt><trkpt lat="43.46596871484252" lon="10.622908947882676"><ele>410.8333333333333</ele><time>2026-04-19T10:47:35Z</time></trkpt><trkpt lat="43.465892677918355" lon="10.622920153703673"><ele>408.66666666666663</ele><time>2026-04-19T10:47:36Z</time></trkpt><trkpt lat="43.465819790710064" lon="10.622931484185433"><ele>406.5</ele><time>2026-04-19T10:47:37Z</time></trkpt><trkpt lat="43.46574861932912" lon="10.622954542146417"><ele>404.33333333333337</ele><time>2026-04-19T10:47:38Z</time></trkpt><trkpt lat="43.4656799888807" lon="10.623006066215984"><ele>402.1666666666667</ele><time>2026-04-19T10:47:39Z</time></trkpt><trkpt lat="43.46562761685073" lon="10.623089512409198"><ele>400.0</ele><time>2026-04-19T10:47:40Z</time></trkpt><trkpt lat="43.46559696476844" lon="10.62317903474664"><ele>400.00000000000006</ele><time>2026-04-19T10:47:41Z</time></trkpt><trkpt lat="43.465554925139564" lon="10.62326145514239"><ele>400.0</ele><time>2026-04-19T10:47:42Z</time></trkpt><trkpt lat="43.46552235105611" lon="10.623349479765725"><ele>400.0</ele><time>2026-04-19T10:47:43Z</time></trkpt><trkpt lat="43.4654747086515" lon="10.623428441514932"><ele>400.0</ele><time>2026-04-19T10:47:44Z</time></trkpt><trkpt lat="43.46543321870577" lon="10.623518498167588"><ele>400.0</ele><time>2026-04-19T10:47:45Z</time></trkpt><trkpt lat="43.46540586759555" lon="10.623613950554748"><ele>400.00000000000006</ele><time>2026-04-19T10:47:46Z</time></trkpt><trkpt lat="43.46535524396649" lon="10.623685303999245"><ele>400.0</ele><time>2026-04-19T10:47:47Z</time></trkpt><trkpt lat="43.46531124256542" lon="10.62375656789296"><ele>397.7142857142857</ele><time>2026-04-19T10:47:48Z</time></trkpt><trkpt lat="43.46526868954069" lon="10.623825061104705"><ele>395.42857142857144</ele><time>2026-04-19T10:47:49Z</time></trkpt><trkpt lat="43.46523224088755" lon="10.62389735094768"><ele>393.1428571428571</ele><time>2026-04-19T10:47:50Z</time></trkpt><trkpt lat="43.46520711137529" lon="10.62398207205576"><ele>390.8571428571429</ele><time>2026-04-19T10:47:51Z</time></trkpt><trkpt lat="43.465187335436354" lon="10.624070012828671"><ele>388.57142857142856</ele><time>2026-04-19T10:47:52Z</time></trkpt><trkpt lat="43.46514691979874" lon="10.62414293020424"><ele>386.2857142857143</ele><time>2026-04-19T10:47:53Z</time></trkpt><trkpt lat="43.4651082105157" lon="10.624220687210014"><ele>384.0</ele><time>2026-04-19T10:47:54Z</time></trkpt><trkpt lat="43.46506998160181" lon="10.624297479278663"><ele>384.0</ele><time>2026-04-19T10:47:55Z</time></trkpt><trkpt lat="43.46503212152948" lon="10.62436981450439"><ele>384.0</ele><time>2026-04-19T10:47:56Z</time></trkpt><trkpt lat="43.4649697237441" lon="10.624517794264031"><ele>384.0</ele><time>2026-04-19T10:47:58Z</time></trkpt><trkpt lat="43.46492093524818" lon="10.624584867045675"><ele>384.0</ele><time>2026-04-19T10:47:59Z</time></trkpt><trkpt lat="43.46487154213213" lon="10.624655887939984"><ele>384.0</ele><time>2026-04-19T10:48:00Z</time></trkpt><trkpt lat="43.464822930220386" lon="10.624722531459373"><ele>384.0</ele><time>2026-04-19T10:48:01Z</time></trkpt><trkpt lat="43.46477803197644" lon="10.624795361076139"><ele>385.85714285714283</ele><time>2026-04-19T10:48:02Z</time></trkpt><trkpt lat="43.46473678982363" lon="10.624869882807397"><ele>387.7142857142857</ele><time>2026-04-19T10:48:03Z</time></trkpt><trkpt lat="43.46470685894212" lon="10.62494763214747"><ele>389.57142857142856</ele><time>2026-04-19T10:48:04Z</time></trkpt><trkpt lat="43.46469636578098" lon="10.625041570618844"><ele>391.42857142857144</ele><time>2026-04-19T10:48:05Z</time></trkpt><trkpt lat="43.46470865609254" lon="10.625139793376187"><ele>393.2857142857143</ele><time>2026-04-19T10:48:06Z</time></trkpt><trkpt lat="43.46472790916789" lon="10.625246028628847"><ele>395.1428571428571</ele><time>2026-04-19T10:48:07Z</time></trkpt><trkpt lat="43.46473289015548" lon="10.625352963993198"><ele>397.0</ele><time>2026-04-19T10:48:08Z</time></trkpt><trkpt lat="43.46471075292379" lon="10.625456604715806"><ele>398.00000000000006</ele><time>2026-04-19T10:48:09Z</time></trkpt><trkpt lat="43.46466471502676" lon="10.625551701741523"><ele>399.0</ele><time>2026-04-19T10:48:10Z</time></trkpt><trkpt lat="43.46460334171203" lon="10.625628689494008"><ele>400.0</ele><time>2026-04-19T10:48:11Z</time></trkpt><trkpt lat="43.46454760000731" lon="10.625704677985297"><ele>401.0</ele><time>2026-04-19T10:48:12Z</time></trkpt><trkpt lat="43.464497731624576" lon="10.62578580623978"><ele>402.00000000000006</ele><time>2026-04-19T10:48:13Z</time></trkpt><trkpt lat="43.46445227839175" lon="10.625865902286023"><ele>403.0</ele><time>2026-04-19T10:48:14Z</time></trkpt><trkpt lat="43.46441285813917" lon="10.625950113639792"><ele>397.7142857142857</ele><time>2026-04-19T10:48:15Z</time></trkpt><trkpt lat="43.46438368123134" lon="10.626049378545588"><ele>392.4285714285714</ele><time>2026-04-19T10:48:16Z</time></trkpt><trkpt lat="43.46437424345088" lon="10.626155778423328"><ele>387.1428571428571</ele><time>2026-04-19T10:48:17Z</time></trkpt><trkpt lat="43.4643795312203" lon="10.626263033136244"><ele>381.8571428571429</ele><time>2026-04-19T10:48:18Z</time></trkpt><trkpt lat="43.46438546780158" lon="10.626364660160444"><ele>376.57142857142856</ele><time>2026-04-19T10:48:19Z</time></trkpt><trkpt lat="43.46439442512279" lon="10.626461434740998"><ele>371.2857142857143</ele><time>2026-04-19T10:48:20Z</time></trkpt><trkpt lat="43.46440817516599" lon="10.626552527576012"><ele>366.0</ele><time>2026-04-19T10:48:21Z</time></trkpt><trkpt lat="43.464432232733785" lon="10.626641922678512"><ele>365.20000000000005</ele><time>2026-04-19T10:48:22Z</time></trkpt><trkpt lat="43.464472487816444" lon="10.626723763041063"><ele>364.40000000000003</ele><time>2026-04-19T10:48:23Z</time></trkpt><trkpt lat="43.46452075188818" lon="10.62678891376397"><ele>363.6</ele><time>2026-04-19T10:48:24Z</time></trkpt><trkpt lat="43.46462140067256" lon="10.626897887913568"><ele>362.8</ele><time>2026-04-19T10:48:26Z</time></trkpt><trkpt lat="43.464727030902765" lon="10.626980267995668"><ele>362.0</ele><time>2026-04-19T10:48:28Z</time></trkpt><trkpt lat="43.464797412376825" lon="10.627007209943214"><ele>363.2857142857143</ele><time>2026-04-19T10:48:29Z</time></trkpt><trkpt lat="43.464872787295334" lon="10.627022984968983"><ele>364.57142857142856</ele><time>2026-04-19T10:48:30Z</time></trkpt><trkpt lat="43.46494667448703" lon="10.627031542006305"><ele>365.8571428571429</ele><time>2026-04-19T10:48:31Z</time></trkpt><trkpt lat="43.465012810552885" lon="10.627042299982502"><ele>367.1428571428571</ele><time>2026-04-19T10:48:32Z</time></trkpt><trkpt lat="43.46507854358471" lon="10.627064916336103"><ele>368.42857142857144</ele><time>2026-04-19T10:48:33Z</time></trkpt><trkpt lat="43.4651432640689" lon="10.627080766747893"><ele>369.7142857142857</ele><time>2026-04-19T10:48:34Z</time></trkpt><trkpt lat="43.46521013897139" lon="10.627095033269027"><ele>371.0</ele><time>2026-04-19T10:48:35Z</time></trkpt><trkpt lat="43.465277645304724" lon="10.627105708860126"><ele>371.0</ele><time>2026-04-19T10:48:36Z</time></trkpt><trkpt lat="43.465343254706504" lon="10.627116709090004"><ele>371.0</ele><time>2026-04-19T10:48:37Z</time></trkpt><trkpt lat="43.46545888971525" lon="10.627168091870296"><ele>371.0</ele><time>2026-04-19T10:48:39Z</time></trkpt><trkpt lat="43.46553288734093" lon="10.627252865776974"><ele>371.0</ele><time>2026-04-19T10:48:41Z</time></trkpt><trkpt lat="43.46546600780455" lon="10.627421866725024"><ele>371.0</ele><time>2026-04-19T10:48:43Z</time></trkpt><trkpt lat="43.46538476295649" lon="10.627552128659405"><ele>371.0</ele><time>2026-04-19T10:48:45Z</time></trkpt><trkpt lat="43.46530136894712" lon="10.627675277439005"><ele>371.0</ele><time>2026-04-19T10:48:47Z</time></trkpt><trkpt lat="43.46525590968627" lon="10.627741744455623"><ele>371.0</ele><time>2026-04-19T10:48:48Z</time></trkpt><trkpt lat="43.465212000473265" lon="10.627814889323867"><ele>371.0</ele><time>2026-04-19T10:48:49Z</time></trkpt><trkpt lat="43.465171966048196" lon="10.627890378871335"><ele>371.0</ele><time>2026-04-19T10:48:50Z</time></trkpt><trkpt lat="43.46513631049298" lon="10.627963781097037"><ele>371.0</ele><time>2026-04-19T10:48:51Z</time></trkpt><trkpt lat="43.465070628029395" lon="10.62810145144889"><ele>370.20000000000005</ele><time>2026-04-19T10:48:53Z</time></trkpt><trkpt lat="43.46501873099693" lon="10.628225014080046"><ele>369.40000000000003</ele><time>2026-04-19T10:48:55Z</time></trkpt><trkpt lat="43.46501554822309" lon="10.62838067452941"><ele>368.6</ele><time>2026-04-19T10:48:57Z</time></trkpt><trkpt lat="43.46507002557458" lon="10.628534664590472"><ele>367.8</ele><time>2026-04-19T10:48:59Z</time></trkpt><trkpt lat="43.46511178647899" lon="10.628611714230509"><ele>367.0</ele><time>2026-04-19T10:49:00Z</time></trkpt><trkpt lat="43.46515628299839" lon="10.628684926547216"><ele>365.85714285714283</ele><time>2026-04-19T10:49:01Z</time></trkpt><trkpt lat="43.46519701951076" lon="10.628754186119613"><ele>364.7142857142857</ele><time>2026-04-19T10:49:02Z</time></trkpt><trkpt lat="43.465238875119496" lon="10.628825652766636"><ele>363.57142857142856</ele><time>2026-04-19T10:49:03Z</time></trkpt><trkpt lat="43.465279128996556" lon="10.62889740391232"><ele>362.42857142857144</ele><time>2026-04-19T10:49:04Z</time></trkpt><trkpt lat="43.465324774744246" lon="10.628963336261345"><ele>361.28571428571433</ele><time>2026-04-19T10:49:05Z</time></trkpt><trkpt lat="43.46537516701001" lon="10.629021394513918"><ele>360.14285714285717</ele><time>2026-04-19T10:49:06Z</time></trkpt><trkpt lat="43.46542969142753" lon="10.629076599046527"><ele>359.0</ele><time>2026-04-19T10:49:07Z</time></trkpt><trkpt lat="43.465490489605266" lon="10.629122395779438"><ele>359.8571428571429</ele><time>2026-04-19T10:49:08Z</time></trkpt><trkpt lat="43.46554922927394" lon="10.62917123727691"><ele>360.7142857142857</ele><time>2026-04-19T10:49:08.999Z</time></trkpt><trkpt lat="43.465606417281975" lon="10.629222874278163"><ele>361.57142857142856</ele><time>2026-04-19T10:49:09.999Z</time></trkpt><trkpt lat="43.46565687314499" lon="10.629284179179075"><ele>362.42857142857144</ele><time>2026-04-19T10:49:10.999Z</time></trkpt><trkpt lat="43.46570192864014" lon="10.62935388499395"><ele>363.2857142857143</ele><time>2026-04-19T10:49:11.999Z</time></trkpt><trkpt lat="43.46574734645997" lon="10.629424150440078"><ele>364.14285714285717</ele><time>2026-04-19T10:49:12.999Z</time></trkpt><trkpt lat="43.46579090202406" lon="10.629493702354354"><ele>365.0</ele><time>2026-04-19T10:49:13.999Z</time></trkpt><trkpt lat="43.46583422573421" lon="10.629561627413999"><ele>365.00000000000006</ele><time>2026-04-19T10:49:14.999Z</time></trkpt><trkpt lat="43.46587588597951" lon="10.629631613914162"><ele>365.0</ele><time>2026-04-19T10:49:15.999Z</time></trkpt><trkpt lat="43.465917346541296" lon="10.629699809721572"><ele>365.0</ele><time>2026-04-19T10:49:16.999Z</time></trkpt><trkpt lat="43.46595889450346" lon="10.629765481390693"><ele>365.0</ele><time>2026-04-19T10:49:17.999Z</time></trkpt><trkpt lat="43.465996554425104" lon="10.629838699405086"><ele>365.0</ele><time>2026-04-19T10:49:18.999Z</time></trkpt><trkpt lat="43.46602295937126" lon="10.629921617132489"><ele>365.00000000000006</ele><time>2026-04-19T10:49:19.999Z</time></trkpt><trkpt lat="43.46603962435062" lon="10.63000915470026"><ele>365.0</ele><time>2026-04-19T10:49:20.999Z</time></trkpt><trkpt lat="43.466042634731515" lon="10.630101420387172"><ele>365.0</ele><time>2026-04-19T10:49:21.999Z</time></trkpt><trkpt lat="43.46603387630792" lon="10.630188772108681"><ele>365.0</ele><time>2026-04-19T10:49:22.999Z</time></trkpt><trkpt lat="43.4660179935467" lon="10.630348172829613"><ele>365.0</ele><time>2026-04-19T10:49:24.999Z</time></trkpt><trkpt lat="43.46601461966308" lon="10.630494362724523"><ele>365.0</ele><time>2026-04-19T10:49:26.999Z</time></trkpt><trkpt lat="43.46603513279365" lon="10.630621839273335"><ele>365.0</ele><time>2026-04-19T10:49:28.999Z</time></trkpt><trkpt lat="43.46606101605696" lon="10.630706025032245"><ele>365.0</ele><time>2026-04-19T10:49:30.999Z</time></trkpt><trkpt lat="43.4661083986302" lon="10.630809239952022"><ele>364.83333333333337</ele><time>2026-04-19T10:49:32.999Z</time></trkpt><trkpt lat="43.46616059061485" lon="10.630858052226708"><ele>364.6666666666667</ele><time>2026-04-19T10:49:33.999Z</time></trkpt><trkpt lat="43.4662661898344" lon="10.630946344198863"><ele>364.5</ele><time>2026-04-19T10:49:35.999Z</time></trkpt><trkpt lat="43.46633957837919" lon="10.630966891285087"><ele>364.3333333333333</ele><time>2026-04-19T10:49:36.999Z</time></trkpt><trkpt lat="43.466422180715675" lon="10.630973565008599"><ele>364.16666666666663</ele><time>2026-04-19T10:49:37.999Z</time></trkpt><trkpt lat="43.46651306923961" lon="10.630951120320358"><ele>364.0</ele><time>2026-04-19T10:49:38.999Z</time></trkpt><trkpt lat="43.46661014380678" lon="10.630938023664557"><ele>364.0</ele><time>2026-04-19T10:49:39.999Z</time></trkpt><trkpt lat="43.46670278705603" lon="10.630899472781433"><ele>364.0</ele><time>2026-04-19T10:49:40.999Z</time></trkpt><trkpt lat="43.46679606165103" lon="10.63085957766712"><ele>364.0</ele><time>2026-04-19T10:49:41.999Z</time></trkpt><trkpt lat="43.46688647934151" lon="10.630807956204903"><ele>364.0</ele><time>2026-04-19T10:49:42.999Z</time></trkpt><trkpt lat="43.46698402332878" lon="10.630796947306717"><ele>364.0</ele><time>2026-04-19T10:49:43.999Z</time></trkpt><trkpt lat="43.46708260098587" lon="10.6307958403164"><ele>364.2</ele><time>2026-04-19T10:49:44.999Z</time></trkpt><trkpt lat="43.46718116515045" lon="10.63081716714907"><ele>364.4</ele><time>2026-04-19T10:49:45.999Z</time></trkpt><trkpt lat="43.4672783436606" lon="10.630864010800002"><ele>364.6</ele><time>2026-04-19T10:49:47Z</time></trkpt><trkpt lat="43.46737792347385" lon="10.63091210794009"><ele>364.8</ele><time>2026-04-19T10:49:48Z</time></trkpt><trkpt lat="43.46747975619146" lon="10.630961720580055"><ele>365.0</ele><time>2026-04-19T10:49:49Z</time></trkpt><trkpt lat="43.467583352675994" lon="10.631007633673729"><ele>365.0</ele><time>2026-04-19T10:49:50Z</time></trkpt><trkpt lat="43.46768481149372" lon="10.63105466631147"><ele>365.0</ele><time>2026-04-19T10:49:51Z</time></trkpt><trkpt lat="43.46778626769834" lon="10.631108898428488"><ele>365.0</ele><time>2026-04-19T10:49:52Z</time></trkpt><trkpt lat="43.467884806414574" lon="10.631170862264723"><ele>365.0</ele><time>2026-04-19T10:49:53Z</time></trkpt><trkpt lat="43.46798298693982" lon="10.631225461820588"><ele>365.0</ele><time>2026-04-19T10:49:54Z</time></trkpt><trkpt lat="43.468085977244264" lon="10.631262548966273"><ele>364.8</ele><time>2026-04-19T10:49:55Z</time></trkpt><trkpt lat="43.4681887461499" lon="10.63126913810265"><ele>364.6</ele><time>2026-04-19T10:49:56Z</time></trkpt><trkpt lat="43.46828859868686" lon="10.631240486124431"><ele>364.4</ele><time>2026-04-19T10:49:57Z</time></trkpt><trkpt lat="43.46836770797552" lon="10.631167395787392"><ele>364.2</ele><time>2026-04-19T10:49:58Z</time></trkpt><trkpt lat="43.46843437291459" lon="10.631028693131036"><ele>364.0</ele><time>2026-04-19T10:49:59Z</time></trkpt><trkpt lat="43.468478027827054" lon="10.63086963372836"><ele>364.0</ele><time>2026-04-19T10:50:00Z</time></trkpt><trkpt lat="43.46851312677383" lon="10.630700075060341"><ele>364.0</ele><time>2026-04-19T10:50:01Z</time></trkpt><trkpt lat="43.4685485625046" lon="10.630523675150839"><ele>364.0</ele><time>2026-04-19T10:50:02Z</time></trkpt><trkpt lat="43.46859324561077" lon="10.630343270559132"><ele>364.0</ele><time>2026-04-19T10:50:03Z</time></trkpt><trkpt lat="43.468658662551306" lon="10.630165547339248"><ele>362.75</ele><time>2026-04-19T10:50:04Z</time></trkpt><trkpt lat="43.468749767830424" lon="10.630020525195707"><ele>361.5</ele><time>2026-04-19T10:50:05Z</time></trkpt><trkpt lat="43.468863920209046" lon="10.629907492870196"><ele>360.25</ele><time>2026-04-19T10:50:06Z</time></trkpt><trkpt lat="43.469002015294194" lon="10.629810008971104"><ele>359.0</ele><time>2026-04-19T10:50:07Z</time></trkpt><trkpt lat="43.46911412062187" lon="10.629706467848429"><ele>359.0</ele><time>2026-04-19T10:50:08Z</time></trkpt><trkpt lat="43.46919806327223" lon="10.629620450943788"><ele>359.0</ele><time>2026-04-19T10:50:09Z</time></trkpt><trkpt lat="43.46926750400935" lon="10.629546798481572"><ele>359.0</ele><time>2026-04-19T10:50:10Z</time></trkpt><trkpt lat="43.469352056836044" lon="10.62955489788059"><ele>359.0</ele><time>2026-04-19T10:50:11Z</time></trkpt><trkpt lat="43.46942772064655" lon="10.629603253242589"><ele>359.0</ele><time>2026-04-19T10:50:12Z</time></trkpt><trkpt lat="43.469476118973745" lon="10.629682625200807"><ele>359.0</ele><time>2026-04-19T10:50:13Z</time></trkpt><trkpt lat="43.46948760830434" lon="10.62979743701912"><ele>359.0</ele><time>2026-04-19T10:50:14Z</time></trkpt><trkpt lat="43.469465843070125" lon="10.62991368509468"><ele>359.0</ele><time>2026-04-19T10:50:15Z</time></trkpt><trkpt lat="43.46943375510009" lon="10.63002821072957"><ele>359.0</ele><time>2026-04-19T10:50:16Z</time></trkpt><trkpt lat="43.469383224839014" lon="10.630135054033282"><ele>359.0</ele><time>2026-04-19T10:50:17Z</time></trkpt><trkpt lat="43.46931206088512" lon="10.63023648517648"><ele>359.0</ele><time>2026-04-19T10:50:18Z</time></trkpt><trkpt lat="43.46923907463639" lon="10.630325056660736"><ele>357.0</ele><time>2026-04-19T10:50:19Z</time></trkpt><trkpt lat="43.46918211579516" lon="10.63041799491139"><ele>355.0</ele><time>2026-04-19T10:50:20Z</time></trkpt><trkpt lat="43.469156460632675" lon="10.630542677674573"><ele>353.0</ele><time>2026-04-19T10:50:21Z</time></trkpt><trkpt lat="43.46916616897621" lon="10.630684397890864"><ele>351.0</ele><time>2026-04-19T10:50:22Z</time></trkpt><trkpt lat="43.46920793655398" lon="10.630824056809244"><ele>349.0</ele><time>2026-04-19T10:50:23Z</time></trkpt><trkpt lat="43.46925898735925" lon="10.630964159849738"><ele>349.0</ele><time>2026-04-19T10:50:24Z</time></trkpt><trkpt lat="43.469303742513766" lon="10.63110180605161"><ele>349.0</ele><time>2026-04-19T10:50:25Z</time></trkpt><trkpt lat="43.469336482106215" lon="10.631234411029254"><ele>349.0</ele><time>2026-04-19T10:50:26Z</time></trkpt><trkpt lat="43.46935338965518" lon="10.631363464374244"><ele>349.0</ele><time>2026-04-19T10:50:27Z</time></trkpt><trkpt lat="43.469349621867444" lon="10.631495786586314"><ele>349.0</ele><time>2026-04-19T10:50:28Z</time></trkpt><trkpt lat="43.46934154684626" lon="10.631628139837492"><ele>349.3333333333333</ele><time>2026-04-19T10:50:29Z</time></trkpt><trkpt lat="43.46936070103942" lon="10.631748938585169"><ele>349.66666666666663</ele><time>2026-04-19T10:50:30Z</time></trkpt><trkpt lat="43.46941826716475" lon="10.631850044429392"><ele>350.0</ele><time>2026-04-19T10:50:31Z</time></trkpt><trkpt lat="43.46949656530169" lon="10.631899889064151"><ele>350.3333333333333</ele><time>2026-04-19T10:50:32Z</time></trkpt><trkpt lat="43.46958092159193" lon="10.631925721960611"><ele>350.6666666666667</ele><time>2026-04-19T10:50:33Z</time></trkpt><trkpt lat="43.46966989768952" lon="10.631955473833814"><ele>351.0</ele><time>2026-04-19T10:50:34Z</time></trkpt><trkpt lat="43.46976613735122" lon="10.631987978341751"><ele>351.0</ele><time>2026-04-19T10:50:35Z</time></trkpt><trkpt lat="43.4698665979034" lon="10.632045208259798"><ele>351.0</ele><time>2026-04-19T10:50:36Z</time></trkpt><trkpt lat="43.46996372055252" lon="10.632139826449459"><ele>351.0</ele><time>2026-04-19T10:50:37Z</time></trkpt><trkpt lat="43.47004643231332" lon="10.63223914387884"><ele>351.0</ele><time>2026-04-19T10:50:38Z</time></trkpt><trkpt lat="43.47012399662473" lon="10.63235136419283"><ele>351.0</ele><time>2026-04-19T10:50:39Z</time></trkpt><trkpt lat="43.47020249188858" lon="10.63246739574446"><ele>351.0</ele><time>2026-04-19T10:50:40Z</time></trkpt><trkpt lat="43.47028061478327" lon="10.632572132312125"><ele>351.0</ele><time>2026-04-19T10:50:41Z</time></trkpt><trkpt lat="43.47035427638505" lon="10.632673084230488"><ele>351.0</ele><time>2026-04-19T10:50:42Z</time></trkpt><trkpt lat="43.47042807204873" lon="10.632766682344467"><ele>351.0</ele><time>2026-04-19T10:50:43Z</time></trkpt><trkpt lat="43.47050356172913" lon="10.632855813026868"><ele>352.6</ele><time>2026-04-19T10:50:44Z</time></trkpt><trkpt lat="43.470581215578775" lon="10.63294945373773"><ele>354.20000000000005</ele><time>2026-04-19T10:50:45Z</time></trkpt><trkpt lat="43.47065567872533" lon="10.633049846017855"><ele>355.79999999999995</ele><time>2026-04-19T10:50:46Z</time></trkpt><trkpt lat="43.47071763760692" lon="10.633161078763248"><ele>357.4</ele><time>2026-04-19T10:50:47Z</time></trkpt><trkpt lat="43.47076786543913" lon="10.633283163260053"><ele>359.0</ele><time>2026-04-19T10:50:48Z</time></trkpt><trkpt lat="43.470814283239356" lon="10.63340946682781"><ele>359.0</ele><time>2026-04-19T10:50:49Z</time></trkpt><trkpt lat="43.47086189188775" lon="10.63353651233343"><ele>359.0</ele><time>2026-04-19T10:50:50Z</time></trkpt><trkpt lat="43.47091190106036" lon="10.633668366993858"><ele>359.0</ele><time>2026-04-19T10:50:51Z</time></trkpt><trkpt lat="43.47096380376179" lon="10.633803563373336"><ele>359.0</ele><time>2026-04-19T10:50:52Z</time></trkpt><trkpt lat="43.47101623291305" lon="10.633941472149534"><ele>359.0</ele><time>2026-04-19T10:50:53Z</time></trkpt><trkpt lat="43.47106987830674" lon="10.634082989366567"><ele>360.0</ele><time>2026-04-19T10:50:54Z</time></trkpt><trkpt lat="43.4711241957936" lon="10.634225352843549"><ele>361.0</ele><time>2026-04-19T10:50:55Z</time></trkpt><trkpt lat="43.47117881282678" lon="10.634366247479818"><ele>362.0</ele><time>2026-04-19T10:50:56Z</time></trkpt><trkpt lat="43.471232570682304" lon="10.634507071235886"><ele>363.0</ele><time>2026-04-19T10:50:57Z</time></trkpt><trkpt lat="43.471285121482566" lon="10.634647790512977"><ele>363.0</ele><time>2026-04-19T10:50:58Z</time></trkpt><trkpt lat="43.47134040302323" lon="10.634788367239677"><ele>363.0</ele><time>2026-04-19T10:50:59Z</time></trkpt><trkpt lat="43.471395790507984" lon="10.634930581090563"><ele>363.0</ele><time>2026-04-19T10:51:00Z</time></trkpt><trkpt lat="43.471451121318246" lon="10.635072173153466"><ele>363.0</ele><time>2026-04-19T10:51:01Z</time></trkpt><trkpt lat="43.471506653896725" lon="10.635216292721095"><ele>362.25</ele><time>2026-04-19T10:51:02Z</time></trkpt><trkpt lat="43.47156394023789" lon="10.635361634639999"><ele>361.5</ele><time>2026-04-19T10:51:03Z</time></trkpt><trkpt lat="43.47162043086641" lon="10.635508233296564"><ele>360.75</ele><time>2026-04-19T10:51:04Z</time></trkpt><trkpt lat="43.47167671205235" lon="10.635654303471357"><ele>360.0</ele><time>2026-04-19T10:51:05Z</time></trkpt><trkpt lat="43.47173831508024" lon="10.635795950522386"><ele>360.0</ele><time>2026-04-19T10:51:06Z</time></trkpt><trkpt lat="43.47181151164067" lon="10.63592600505667"><ele>360.0</ele><time>2026-04-19T10:51:07Z</time></trkpt><trkpt lat="43.47190221994355" lon="10.63603626524782"><ele>360.0</ele><time>2026-04-19T10:51:08Z</time></trkpt><trkpt lat="43.472004374665985" lon="10.636116516799582"><ele>360.0</ele><time>2026-04-19T10:51:09Z</time></trkpt><trkpt lat="43.47211412571736" lon="10.63616957756896"><ele>360.3333333333333</ele><time>2026-04-19T10:51:10Z</time></trkpt><trkpt lat="43.47222506162252" lon="10.6361848806873"><ele>360.6666666666667</ele><time>2026-04-19T10:51:11Z</time></trkpt><trkpt lat="43.472322093097596" lon="10.636169176008082"><ele>361.0</ele><time>2026-04-19T10:51:12Z</time></trkpt><trkpt lat="43.472396015781904" lon="10.636146772213364"><ele>361.33333333333337</ele><time>2026-04-19T10:51:13Z</time></trkpt><trkpt lat="43.47246294013334" lon="10.636129419176095"><ele>361.6666666666667</ele><time>2026-04-19T10:51:14.998Z</time></trkpt><trkpt lat="43.47253630720395" lon="10.636083195090391"><ele>362.0</ele><time>2026-04-19T10:51:17.998Z</time></trkpt><trkpt lat="43.472479061799426" lon="10.636191087124374"><ele>360.8</ele><time>2026-04-19T10:51:23.998Z</time></trkpt><trkpt lat="43.47241440607523" lon="10.636253648332357"><ele>359.6</ele><time>2026-04-19T10:51:26.999Z</time></trkpt><trkpt lat="43.47234273982521" lon="10.636318117295188"><ele>358.40000000000003</ele><time>2026-04-19T10:51:28.999Z</time></trkpt><trkpt lat="43.47225949044758" lon="10.63639165843468"><ele>357.20000000000005</ele><time>2026-04-19T10:51:30.999Z</time></trkpt><trkpt lat="43.47216704543123" lon="10.63647388770532"><ele>356.0</ele><time>2026-04-19T10:51:32.999Z</time></trkpt><trkpt lat="43.47208119233551" lon="10.636570676900462"><ele>356.0</ele><time>2026-04-19T10:51:34.999Z</time></trkpt><trkpt lat="43.47198773431994" lon="10.636642991161198"><ele>356.0</ele><time>2026-04-19T10:51:36.999Z</time></trkpt><trkpt lat="43.471898684673675" lon="10.636710671730683"><ele>356.0</ele><time>2026-04-19T10:51:38.999Z</time></trkpt><trkpt lat="43.47182154321404" lon="10.636771078200121"><ele>356.0</ele><time>2026-04-19T10:51:40.999Z</time></trkpt><trkpt lat="43.47175131431149" lon="10.636822375530512"><ele>356.0</ele><time>2026-04-19T10:51:42.999Z</time></trkpt><trkpt lat="43.47168174537736" lon="10.636874710728554"><ele>356.0</ele><time>2026-04-19T10:51:44.999Z</time></trkpt><trkpt lat="43.47160431091364" lon="10.636932414042596"><ele>356.0</ele><time>2026-04-19T10:51:46.999Z</time></trkpt><trkpt lat="43.47152952722632" lon="10.636995791345791"><ele>356.0</ele><time>2026-04-19T10:51:48.999Z</time></trkpt><trkpt lat="43.471461390224064" lon="10.637049810134918"><ele>356.0</ele><time>2026-04-19T10:51:50.999Z</time></trkpt><trkpt lat="43.4713937574657" lon="10.637100452958611"><ele>356.0</ele><time>2026-04-19T10:51:52.999Z</time></trkpt><trkpt lat="43.471328304119304" lon="10.637160444755873"><ele>356.0</ele><time>2026-04-19T10:51:54.999Z</time></trkpt><trkpt lat="43.47126814657071" lon="10.637222543669267"><ele>354.8</ele><time>2026-04-19T10:51:56.999Z</time></trkpt><trkpt lat="43.47120700487833" lon="10.637291073898883"><ele>353.6</ele><time>2026-04-19T10:51:58.999Z</time></trkpt><trkpt lat="43.471141088791235" lon="10.637356599779661"><ele>352.4</ele><time>2026-04-19T10:52:00.999Z</time></trkpt><trkpt lat="43.471059040527805" lon="10.637427732907586"><ele>351.2</ele><time>2026-04-19T10:52:02.999Z</time></trkpt><trkpt lat="43.4709737839984" lon="10.637502485751153"><ele>350.0</ele><time>2026-04-19T10:52:04.999Z</time></trkpt><trkpt lat="43.47089728830742" lon="10.637602539207242"><ele>350.0</ele><time>2026-04-19T10:52:06.999Z</time></trkpt><trkpt lat="43.47080217195759" lon="10.637648729274044"><ele>350.0</ele><time>2026-04-19T10:52:08.999Z</time></trkpt><trkpt lat="43.47070838819345" lon="10.637676216603197"><ele>350.0</ele><time>2026-04-19T10:52:11Z</time></trkpt><trkpt lat="43.470608373637155" lon="10.637711535673327"><ele>350.0</ele><time>2026-04-19T10:52:13Z</time></trkpt><trkpt lat="43.4705050041748" lon="10.637779725150299"><ele>350.0</ele><time>2026-04-19T10:52:15Z</time></trkpt><trkpt lat="43.470406298953776" lon="10.637826578297616"><ele>349.0</ele><time>2026-04-19T10:52:17Z</time></trkpt><trkpt lat="43.47031854161537" lon="10.637895825333661"><ele>348.0</ele><time>2026-04-19T10:52:19Z</time></trkpt><trkpt lat="43.470231866567104" lon="10.637936199444997"><ele>347.0</ele><time>2026-04-19T10:52:21Z</time></trkpt><trkpt lat="43.470142514698615" lon="10.637976010885946"><ele>346.0</ele><time>2026-04-19T10:52:23Z</time></trkpt><trkpt lat="43.470055158668316" lon="10.638021849871949"><ele>345.0</ele><time>2026-04-19T10:52:25Z</time></trkpt><trkpt lat="43.469966307140936" lon="10.63807463348039"><ele>345.0</ele><time>2026-04-19T10:52:27Z</time></trkpt><trkpt lat="43.4698819143398" lon="10.638138118578414"><ele>345.0</ele><time>2026-04-19T10:52:29Z</time></trkpt><trkpt lat="43.469787034777276" lon="10.638195718751042"><ele>345.0</ele><time>2026-04-19T10:52:31Z</time></trkpt><trkpt lat="43.46969098565016" lon="10.638297984277706"><ele>345.0</ele><time>2026-04-19T10:52:33Z</time></trkpt><trkpt lat="43.46964197707556" lon="10.63836477450724"><ele>345.0</ele><time>2026-04-19T10:52:34Z</time></trkpt><trkpt lat="43.46960489754339" lon="10.638455803648768"><ele>343.0</ele><time>2026-04-19T10:52:35Z</time></trkpt><trkpt lat="43.46956416042233" lon="10.638549412090992"><ele>341.0</ele><time>2026-04-19T10:52:36Z</time></trkpt><trkpt lat="43.46953328819862" lon="10.638653667420169"><ele>339.0</ele><time>2026-04-19T10:52:37Z</time></trkpt><trkpt lat="43.469509158007405" lon="10.638766124785912"><ele>337.0</ele><time>2026-04-19T10:52:38Z</time></trkpt><trkpt lat="43.46948675004859" lon="10.638880926691877"><ele>335.0</ele><time>2026-04-19T10:52:39Z</time></trkpt><trkpt lat="43.46945905226609" lon="10.63899619843414"><ele>333.0</ele><time>2026-04-19T10:52:40Z</time></trkpt><trkpt lat="43.469415184476475" lon="10.639101452367683"><ele>333.0</ele><time>2026-04-19T10:52:41Z</time></trkpt><trkpt lat="43.46935470388852" lon="10.639195980138707"><ele>333.0</ele><time>2026-04-19T10:52:42Z</time></trkpt><trkpt lat="43.46928439769793" lon="10.639278442258233"><ele>333.0</ele><time>2026-04-19T10:52:43Z</time></trkpt><trkpt lat="43.46920725732193" lon="10.639355721969887"><ele>333.0</ele><time>2026-04-19T10:52:44Z</time></trkpt><trkpt lat="43.46913172062255" lon="10.639431102939577"><ele>333.0</ele><time>2026-04-19T10:52:45Z</time></trkpt><trkpt lat="43.46905066334051" lon="10.63947855462436"><ele>332.8333333333333</ele><time>2026-04-19T10:52:46Z</time></trkpt><trkpt lat="43.468989130880104" lon="10.639528092801829"><ele>332.6666666666667</ele><time>2026-04-19T10:52:47Z</time></trkpt><trkpt lat="43.468942339080584" lon="10.639589305602112"><ele>332.5</ele><time>2026-04-19T10:52:48Z</time></trkpt><trkpt lat="43.46884742378987" lon="10.63965047938238"><ele>332.33333333333337</ele><time>2026-04-19T10:52:50Z</time></trkpt><trkpt lat="43.46876178992713" lon="10.639705627700481"><ele>332.1666666666667</ele><time>2026-04-19T10:52:52Z</time></trkpt><trkpt lat="43.468674914215015" lon="10.639755839545943"><ele>332.0</ele><time>2026-04-19T10:52:54Z</time></trkpt><trkpt lat="43.46858275366891" lon="10.639798945811545"><ele>332.0</ele><time>2026-04-19T10:52:56Z</time></trkpt><trkpt lat="43.46849080451445" lon="10.639842189736942"><ele>332.0</ele><time>2026-04-19T10:52:58Z</time></trkpt><trkpt lat="43.46839556542982" lon="10.639884469765837"><ele>332.0</ele><time>2026-04-19T10:53:00Z</time></trkpt><trkpt lat="43.46829910382971" lon="10.639930306081355"><ele>332.0</ele><time>2026-04-19T10:53:02Z</time></trkpt><trkpt lat="43.468207011361045" lon="10.640015179089893"><ele>332.0</ele><time>2026-04-19T10:53:04Z</time></trkpt><trkpt lat="43.46812103122945" lon="10.64012554348408"><ele>332.0</ele><time>2026-04-19T10:53:06Z</time></trkpt><trkpt lat="43.46804759942742" lon="10.640255635681763"><ele>332.0</ele><time>2026-04-19T10:53:08Z</time></trkpt><trkpt lat="43.46798975012348" lon="10.640404152435917"><ele>332.0</ele><time>2026-04-19T10:53:10Z</time></trkpt><trkpt lat="43.46793906483223" lon="10.640544687334259"><ele>332.0</ele><time>2026-04-19T10:53:12Z</time></trkpt><trkpt lat="43.46788659567828" lon="10.640692569339537"><ele>330.40000000000003</ele><time>2026-04-19T10:53:14Z</time></trkpt><trkpt lat="43.46783852052453" lon="10.640822198093339"><ele>328.8</ele><time>2026-04-19T10:53:16Z</time></trkpt><trkpt lat="43.4677915654928" lon="10.640953293228998"><ele>327.2</ele><time>2026-04-19T10:53:18Z</time></trkpt><trkpt lat="43.46774648441211" lon="10.641087216136672"><ele>325.6</ele><time>2026-04-19T10:53:20Z</time></trkpt><trkpt lat="43.4676914819655" lon="10.641226792605867"><ele>324.0</ele><time>2026-04-19T10:53:21.998Z</time></trkpt><trkpt lat="43.46763534391491" lon="10.641382575633024"><ele>323.1666666666667</ele><time>2026-04-19T10:53:23.998Z</time></trkpt><trkpt lat="43.46760664940112" lon="10.641460110711527"><ele>322.3333333333333</ele><time>2026-04-19T10:53:24.998Z</time></trkpt><trkpt lat="43.4675581337738" lon="10.641605857974568"><ele>321.5</ele><time>2026-04-19T10:53:26.998Z</time></trkpt><trkpt lat="43.467530783912345" lon="10.641689188920614"><ele>320.66666666666663</ele><time>2026-04-19T10:53:27.998Z</time></trkpt><trkpt lat="43.46749820480269" lon="10.641769882689482"><ele>319.8333333333333</ele><time>2026-04-19T10:53:28.998Z</time></trkpt><trkpt lat="43.46746055325483" lon="10.641855592177874"><ele>319.0</ele><time>2026-04-19T10:53:29.998Z</time></trkpt><trkpt lat="43.46741401220975" lon="10.641935359995028"><ele>318.0</ele><time>2026-04-19T10:53:30.998Z</time></trkpt><trkpt lat="43.467370456902664" lon="10.64202194591407"><ele>317.0</ele><time>2026-04-19T10:53:31.998Z</time></trkpt><trkpt lat="43.46732467948056" lon="10.642110323304184"><ele>316.0</ele><time>2026-04-19T10:53:32.998Z</time></trkpt><trkpt lat="43.46727594426278" lon="10.64218788692162"><ele>315.0</ele><time>2026-04-19T10:53:33.998Z</time></trkpt><trkpt lat="43.46722799976469" lon="10.642261094499217"><ele>314.0</ele><time>2026-04-19T10:53:34.999Z</time></trkpt><trkpt lat="43.46718122669313" lon="10.64233230655226"><ele>313.0</ele><time>2026-04-19T10:53:35.999Z</time></trkpt><trkpt lat="43.46712866690038" lon="10.642393504847167"><ele>312.0</ele><time>2026-04-19T10:53:36.999Z</time></trkpt><trkpt lat="43.467069227417205" lon="10.642450067078638"><ele>311.3333333333333</ele><time>2026-04-19T10:53:37.999Z</time></trkpt><trkpt lat="43.46701352017587" lon="10.642506388748664"><ele>310.6666666666667</ele><time>2026-04-19T10:53:38.999Z</time></trkpt><trkpt lat="43.466933100309866" lon="10.642594627418504"><ele>310.0</ele><time>2026-04-19T10:53:40.999Z</time></trkpt><trkpt lat="43.46686719379758" lon="10.64272109220025"><ele>309.33333333333337</ele><time>2026-04-19T10:53:42.999Z</time></trkpt><trkpt lat="43.46686752350943" lon="10.642810174553539"><ele>308.6666666666667</ele><time>2026-04-19T10:53:43.999Z</time></trkpt><trkpt lat="43.46690579248219" lon="10.642899637489773"><ele>308.0</ele><time>2026-04-19T10:53:44.999Z</time></trkpt><trkpt lat="43.46693398131397" lon="10.64298100333793"><ele>307.0</ele><time>2026-04-19T10:53:45.999Z</time></trkpt><trkpt lat="43.466882420543136" lon="10.64315269072778"><ele>306.0</ele><time>2026-04-19T10:53:47.999Z</time></trkpt><trkpt lat="43.46684669115714" lon="10.643235340811112"><ele>305.0</ele><time>2026-04-19T10:53:48.999Z</time></trkpt><trkpt lat="43.46681382563941" lon="10.643322450834908"><ele>304.0</ele><time>2026-04-19T10:53:49.999Z</time></trkpt><trkpt lat="43.46677960085675" lon="10.643408593186452"><ele>303.0</ele><time>2026-04-19T10:53:50.999Z</time></trkpt><trkpt lat="43.46674552214723" lon="10.643501669085264"><ele>302.0</ele><time>2026-04-19T10:53:51.999Z</time></trkpt><trkpt lat="43.4667136711157" lon="10.643591016954039"><ele>301.1666666666667</ele><time>2026-04-19T10:53:52.999Z</time></trkpt><trkpt lat="43.46668161907541" lon="10.643684021568687"><ele>300.33333333333337</ele><time>2026-04-19T10:53:53.999Z</time></trkpt><trkpt lat="43.46664984832558" lon="10.643776094230047"><ele>299.5</ele><time>2026-04-19T10:53:54.999Z</time></trkpt><trkpt lat="43.46661688967434" lon="10.643870703296672"><ele>298.6666666666667</ele><time>2026-04-19T10:53:55.999Z</time></trkpt><trkpt lat="43.466580569144185" lon="10.643969596038922"><ele>297.8333333333333</ele><time>2026-04-19T10:53:56.999Z</time></trkpt><trkpt lat="43.46654410562931" lon="10.644067603656156"><ele>297.0</ele><time>2026-04-19T10:53:57.999Z</time></trkpt><trkpt lat="43.46650860003505" lon="10.644168946897745"><ele>297.0</ele><time>2026-04-19T10:53:58.999Z</time></trkpt><trkpt lat="43.46647423319625" lon="10.64427031523168"><ele>297.0</ele><time>2026-04-19T10:53:59.999Z</time></trkpt><trkpt lat="43.466439480273955" lon="10.64437092844204"><ele>297.0</ele><time>2026-04-19T10:54:00.999Z</time></trkpt><trkpt lat="43.466403576268185" lon="10.644471455369727"><ele>297.0</ele><time>2026-04-19T10:54:01.999Z</time></trkpt><trkpt lat="43.466366568656305" lon="10.644570580469148"><ele>297.0</ele><time>2026-04-19T10:54:02.999Z</time></trkpt><trkpt lat="43.46633317407412" lon="10.644671144944342"><ele>297.0</ele><time>2026-04-19T10:54:03.999Z</time></trkpt><trkpt lat="43.46630272487651" lon="10.64477234646426"><ele>295.6666666666667</ele><time>2026-04-19T10:54:04.999Z</time></trkpt><trkpt lat="43.46627696281733" lon="10.64487675547708"><ele>294.3333333333333</ele><time>2026-04-19T10:54:05.999Z</time></trkpt><trkpt lat="43.46625160312515" lon="10.644984259326543"><ele>293.0</ele><time>2026-04-19T10:54:06.999Z</time></trkpt><trkpt lat="43.46622655353693" lon="10.64509387781047"><ele>291.66666666666663</ele><time>2026-04-19T10:54:07.999Z</time></trkpt><trkpt lat="43.46620255787242" lon="10.645201492821474"><ele>290.3333333333333</ele><time>2026-04-19T10:54:08.999Z</time></trkpt><trkpt lat="43.466177128686894" lon="10.645307392299426"><ele>289.0</ele><time>2026-04-19T10:54:09.999Z</time></trkpt><trkpt lat="43.46615321399685" lon="10.645415529636812"><ele>288.8333333333333</ele><time>2026-04-19T10:54:10.999Z</time></trkpt><trkpt lat="43.466128692227855" lon="10.645525741127573"><ele>288.66666666666663</ele><time>2026-04-19T10:54:11.999Z</time></trkpt><trkpt lat="43.46610381725097" lon="10.645635377045648"><ele>288.5</ele><time>2026-04-19T10:54:12.999Z</time></trkpt><trkpt lat="43.46607871195865" lon="10.64574576796116"><ele>288.3333333333333</ele><time>2026-04-19T10:54:14Z</time></trkpt><trkpt lat="43.466053289128006" lon="10.645856342424068"><ele>288.1666666666667</ele><time>2026-04-19T10:54:15Z</time></trkpt><trkpt lat="43.466028728790576" lon="10.645965102533282"><ele>288.0</ele><time>2026-04-19T10:54:16Z</time></trkpt><trkpt lat="43.466006162899745" lon="10.646075608561267"><ele>287.5714285714286</ele><time>2026-04-19T10:54:17Z</time></trkpt><trkpt lat="43.465988081152034" lon="10.646181562914407"><ele>287.14285714285717</ele><time>2026-04-19T10:54:18Z</time></trkpt><trkpt lat="43.46597151037065" lon="10.646279590933124"><ele>286.7142857142857</ele><time>2026-04-19T10:54:19Z</time></trkpt><trkpt lat="43.46595646438459" lon="10.646374291354077"><ele>286.28571428571433</ele><time>2026-04-19T10:54:20Z</time></trkpt><trkpt lat="43.46594431729053" lon="10.646467197220474"><ele>285.8571428571429</ele><time>2026-04-19T10:54:21Z</time></trkpt><trkpt lat="43.46593422502705" lon="10.646555594372092"><ele>285.42857142857144</ele><time>2026-04-19T10:54:22Z</time></trkpt><trkpt lat="43.46592403281383" lon="10.646650993618591"><ele>285.0</ele><time>2026-04-19T10:54:23Z</time></trkpt><trkpt lat="43.46591361758639" lon="10.646752436893594"><ele>285.0</ele><time>2026-04-19T10:54:24Z</time></trkpt><trkpt lat="43.46590387630205" lon="10.646855771064239"><ele>285.0</ele><time>2026-04-19T10:54:25Z</time></trkpt><trkpt lat="43.4658944436834" lon="10.646963547791449"><ele>285.0</ele><time>2026-04-19T10:54:26Z</time></trkpt><trkpt lat="43.46588484791385" lon="10.647069551663034"><ele>285.0</ele><time>2026-04-19T10:54:27Z</time></trkpt><trkpt lat="43.46587504132409" lon="10.647176638495734"><ele>285.0</ele><time>2026-04-19T10:54:28Z</time></trkpt><trkpt lat="43.46586427385735" lon="10.647280649722049"><ele>285.0</ele><time>2026-04-19T10:54:29Z</time></trkpt><trkpt lat="43.46585375850686" lon="10.647387962381906"><ele>285.5</ele><time>2026-04-19T10:54:30Z</time></trkpt><trkpt lat="43.465842960343004" lon="10.647495301517614"><ele>286.0</ele><time>2026-04-19T10:54:31Z</time></trkpt><trkpt lat="43.465831432541535" lon="10.647598781632007"><ele>286.5</ele><time>2026-04-19T10:54:32Z</time></trkpt><trkpt lat="43.46581895353915" lon="10.647695904789808"><ele>287.0</ele><time>2026-04-19T10:54:33Z</time></trkpt><trkpt lat="43.46580518537796" lon="10.64779305304015"><ele>287.5</ele><time>2026-04-19T10:54:34Z</time></trkpt><trkpt lat="43.465790094343895" lon="10.647895262804553"><ele>288.0</ele><time>2026-04-19T10:54:35Z</time></trkpt><trkpt lat="43.465772940316754" lon="10.648017808167348"><ele>289.75</ele><time>2026-04-19T10:54:36Z</time></trkpt><trkpt lat="43.46575576052831" lon="10.648166922735177"><ele>291.5</ele><time>2026-04-19T10:54:37Z</time></trkpt><trkpt lat="43.46574028979858" lon="10.648333791062122"><ele>293.25</ele><time>2026-04-19T10:54:38Z</time></trkpt><trkpt lat="43.4657084492571" lon="10.648515809531975"><ele>295.0</ele><time>2026-04-19T10:54:39Z</time></trkpt><trkpt lat="43.46567783130432" lon="10.648681778238132"><ele>297.4</ele><time>2026-04-19T10:54:40Z</time></trkpt><trkpt lat="43.465650477089504" lon="10.648827818148236"><ele>299.8</ele><time>2026-04-19T10:54:41Z</time></trkpt><trkpt lat="43.46562406052944" lon="10.648961084359287"><ele>302.2</ele><time>2026-04-19T10:54:42Z</time></trkpt><trkpt lat="43.46559673041274" lon="10.649096470327937"><ele>304.6</ele><time>2026-04-19T10:54:43Z</time></trkpt><trkpt lat="43.46556980818063" lon="10.649235018025713"><ele>307.0</ele><time>2026-04-19T10:54:44Z</time></trkpt><trkpt lat="43.46553886698007" lon="10.649381369643704"><ele>307.0</ele><time>2026-04-19T10:54:45Z</time></trkpt><trkpt lat="43.46550728389576" lon="10.649535788147627"><ele>307.0</ele><time>2026-04-19T10:54:46Z</time></trkpt><trkpt lat="43.465476078610116" lon="10.649680307210504"><ele>307.0</ele><time>2026-04-19T10:54:47Z</time></trkpt><trkpt lat="43.4654511517144" lon="10.649788310832013"><ele>307.0</ele><time>2026-04-19T10:54:48Z</time></trkpt><trkpt lat="43.46543100055983" lon="10.6498804293905"><ele>307.0</ele><time>2026-04-19T10:54:49Z</time></trkpt><trkpt lat="43.465415600243034" lon="10.649973166765742"><ele>307.0</ele><time>2026-04-19T10:54:50Z</time></trkpt><trkpt lat="43.465397776652736" lon="10.650065655624307"><ele>307.0</ele><time>2026-04-19T10:54:51Z</time></trkpt><trkpt lat="43.46536457028264" lon="10.650223949447692"><ele>307.0</ele><time>2026-04-19T10:54:53Z</time></trkpt><trkpt lat="43.465355952809865" lon="10.650385284719718"><ele>307.0</ele><time>2026-04-19T10:54:55Z</time></trkpt><trkpt lat="43.46535973827677" lon="10.650472910064977"><ele>307.0</ele><time>2026-04-19T10:54:56Z</time></trkpt><trkpt lat="43.46535430593616" lon="10.65056817635205"><ele>307.0</ele><time>2026-04-19T10:54:57Z</time></trkpt><trkpt lat="43.465338690021" lon="10.650653956744884"><ele>307.0</ele><time>2026-04-19T10:54:58Z</time></trkpt><trkpt lat="43.465329126506845" lon="10.65074415209793"><ele>307.1428571428571</ele><time>2026-04-19T10:54:59Z</time></trkpt><trkpt lat="43.46532181792582" lon="10.650840842274746"><ele>307.2857142857143</ele><time>2026-04-19T10:55:00Z</time></trkpt><trkpt lat="43.46530806248632" lon="10.650933333083653"><ele>307.42857142857144</ele><time>2026-04-19T10:55:01Z</time></trkpt><trkpt lat="43.46529292343279" lon="10.65102603873959"><ele>307.57142857142856</ele><time>2026-04-19T10:55:02Z</time></trkpt><trkpt lat="43.46527972970154" lon="10.651125334830015"><ele>307.7142857142857</ele><time>2026-04-19T10:55:03Z</time></trkpt><trkpt lat="43.465266359232565" lon="10.651218946706459"><ele>307.85714285714283</ele><time>2026-04-19T10:55:04Z</time></trkpt><trkpt lat="43.465252584650024" lon="10.651315076632455"><ele>308.0</ele><time>2026-04-19T10:55:05Z</time></trkpt><trkpt lat="43.46523918724686" lon="10.651407502511901"><ele>307.7142857142857</ele><time>2026-04-19T10:55:06Z</time></trkpt><trkpt lat="43.4652269738152" lon="10.651500054148917"><ele>307.42857142857144</ele><time>2026-04-19T10:55:07Z</time></trkpt><trkpt lat="43.46521535085772" lon="10.651594833495288"><ele>307.1428571428571</ele><time>2026-04-19T10:55:08Z</time></trkpt><trkpt lat="43.465203608916276" lon="10.651693847689382"><ele>306.8571428571429</ele><time>2026-04-19T10:55:09Z</time></trkpt><trkpt lat="43.465193006470905" lon="10.651793321568226"><ele>306.57142857142856</ele><time>2026-04-19T10:55:10Z</time></trkpt><trkpt lat="43.46517662447426" lon="10.651889697546421"><ele>306.2857142857143</ele><time>2026-04-19T10:55:11Z</time></trkpt><trkpt lat="43.46516073644535" lon="10.65198645595113"><ele>306.0</ele><time>2026-04-19T10:55:12Z</time></trkpt><trkpt lat="43.46514326176485" lon="10.652082192802954"><ele>305.6666666666667</ele><time>2026-04-19T10:55:13Z</time></trkpt><trkpt lat="43.46512245056249" lon="10.652178982737349"><ele>305.3333333333333</ele><time>2026-04-19T10:55:14Z</time></trkpt><trkpt lat="43.46510092760181" lon="10.652279692154819"><ele>305.0</ele><time>2026-04-19T10:55:15Z</time></trkpt><trkpt lat="43.46508357837075" lon="10.652391444497011"><ele>304.66666666666663</ele><time>2026-04-19T10:55:16Z</time></trkpt><trkpt lat="43.46508511051595" lon="10.65250250955956"><ele>304.3333333333333</ele><time>2026-04-19T10:55:17Z</time></trkpt><trkpt lat="43.4650907438272" lon="10.652602449175154"><ele>304.0</ele><time>2026-04-19T10:55:18Z</time></trkpt><trkpt lat="43.465104754459475" lon="10.65269721908471"><ele>304.0</ele><time>2026-04-19T10:55:19Z</time></trkpt><trkpt lat="43.46512138758718" lon="10.652787901849313"><ele>304.0</ele><time>2026-04-19T10:55:20Z</time></trkpt><trkpt lat="43.46514037533655" lon="10.652873564081917"><ele>304.0</ele><time>2026-04-19T10:55:21Z</time></trkpt><trkpt lat="43.46516637521302" lon="10.652953701780202"><ele>304.0</ele><time>2026-04-19T10:55:22Z</time></trkpt><trkpt lat="43.46519589403412" lon="10.653033829030107"><ele>304.0</ele><time>2026-04-19T10:55:23Z</time></trkpt><trkpt lat="43.46522196875542" lon="10.653118275163944"><ele>304.0</ele><time>2026-04-19T10:55:24Z</time></trkpt><trkpt lat="43.46524145575813" lon="10.653211556928921"><ele>304.0</ele><time>2026-04-19T10:55:25Z</time></trkpt><trkpt lat="43.465260015533474" lon="10.653308300736239"><ele>303.5</ele><time>2026-04-19T10:55:26Z</time></trkpt><trkpt lat="43.46528377526437" lon="10.653411685590296"><ele>303.0</ele><time>2026-04-19T10:55:26.999Z</time></trkpt><trkpt lat="43.46531029971033" lon="10.65351655414149"><ele>302.5</ele><time>2026-04-19T10:55:27.999Z</time></trkpt><trkpt lat="43.46533797573716" lon="10.653622051641674"><ele>302.0</ele><time>2026-04-19T10:55:28.999Z</time></trkpt><trkpt lat="43.46536727935147" lon="10.653733679064569"><ele>301.5</ele><time>2026-04-19T10:55:29.999Z</time></trkpt><trkpt lat="43.465394938864904" lon="10.653852795289135"><ele>301.0</ele><time>2026-04-19T10:55:30.999Z</time></trkpt><trkpt lat="43.465420643762485" lon="10.653970892015185"><ele>299.8</ele><time>2026-04-19T10:55:31.999Z</time></trkpt><trkpt lat="43.46544978633617" lon="10.654090456675076"><ele>298.6</ele><time>2026-04-19T10:55:32.999Z</time></trkpt><trkpt lat="43.46547922359346" lon="10.654214111031346"><ele>297.4</ele><time>2026-04-19T10:55:33.999Z</time></trkpt><trkpt lat="43.46550615409728" lon="10.65434404144775"><ele>296.2</ele><time>2026-04-19T10:55:34.999Z</time></trkpt><trkpt lat="43.46553627490066" lon="10.654476698060401"><ele>295.0</ele><time>2026-04-19T10:55:35.999Z</time></trkpt><trkpt lat="43.46557071826766" lon="10.654612831806961"><ele>294.2</ele><time>2026-04-19T10:55:36.999Z</time></trkpt><trkpt lat="43.465604239554814" lon="10.654749369722607"><ele>293.4</ele><time>2026-04-19T10:55:37.999Z</time></trkpt><trkpt lat="43.46563653511064" lon="10.654888871639628"><ele>292.6</ele><time>2026-04-19T10:55:38.999Z</time></trkpt><trkpt lat="43.46566897256908" lon="10.655030341295246"><ele>291.8</ele><time>2026-04-19T10:55:39.999Z</time></trkpt><trkpt lat="43.46570289721994" lon="10.65517323796726"><ele>291.0</ele><time>2026-04-19T10:55:40.999Z</time></trkpt><trkpt lat="43.46573839502324" lon="10.655316131607744"><ele>290.2</ele><time>2026-04-19T10:55:41.999Z</time></trkpt><trkpt lat="43.46577154698867" lon="10.655463135970992"><ele>289.40000000000003</ele><time>2026-04-19T10:55:42.999Z</time></trkpt><trkpt lat="43.465804321064404" lon="10.655609985293088"><ele>288.6</ele><time>2026-04-19T10:55:43.999Z</time></trkpt><trkpt lat="43.46583766672907" lon="10.655756497821733"><ele>287.8</ele><time>2026-04-19T10:55:44.999Z</time></trkpt><trkpt lat="43.46587015769209" lon="10.655905881952279"><ele>287.0</ele><time>2026-04-19T10:55:45.999Z</time></trkpt><trkpt lat="43.465908635023496" lon="10.656059226138504"><ele>285.8</ele><time>2026-04-19T10:55:46.999Z</time></trkpt><trkpt lat="43.46594443570383" lon="10.656211089314132"><ele>284.6</ele><time>2026-04-19T10:55:47.999Z</time></trkpt><trkpt lat="43.46597293550916" lon="10.656355897676791"><ele>283.40000000000003</ele><time>2026-04-19T10:55:48.999Z</time></trkpt><trkpt lat="43.46599449716431" lon="10.656494930548387"><ele>282.2</ele><time>2026-04-19T10:55:49.999Z</time></trkpt><trkpt lat="43.46602282897565" lon="10.656619041284634"><ele>281.0</ele><time>2026-04-19T10:55:50.999Z</time></trkpt><trkpt lat="43.4660646348017" lon="10.656735257256967"><ele>281.0</ele><time>2026-04-19T10:55:51.999Z</time></trkpt><trkpt lat="43.46609028876733" lon="10.65685767089196"><ele>281.0</ele><time>2026-04-19T10:55:52.999Z</time></trkpt><trkpt lat="43.466110720573404" lon="10.656980313949486"><ele>281.0</ele><time>2026-04-19T10:55:53.999Z</time></trkpt><trkpt lat="43.466139786454484" lon="10.657106205001075"><ele>281.0</ele><time>2026-04-19T10:55:54.999Z</time></trkpt><trkpt lat="43.466163013878194" lon="10.657232652871201"><ele>281.0</ele><time>2026-04-19T10:55:55.999Z</time></trkpt><trkpt lat="43.46619240930465" lon="10.657358796374565"><ele>280.0</ele><time>2026-04-19T10:55:57Z</time></trkpt><trkpt lat="43.4662223360655" lon="10.657486056291845"><ele>279.0</ele><time>2026-04-19T10:55:58Z</time></trkpt><trkpt lat="43.46625988083293" lon="10.657607615410944"><ele>278.0</ele><time>2026-04-19T10:55:59Z</time></trkpt><trkpt lat="43.46632188141589" lon="10.65770947536285"><ele>277.0</ele><time>2026-04-19T10:56:00Z</time></trkpt><trkpt lat="43.46639453325068" lon="10.657794426138148"><ele>276.0</ele><time>2026-04-19T10:56:01Z</time></trkpt><trkpt lat="43.46647114873533" lon="10.65786779221735"><ele>274.8</ele><time>2026-04-19T10:56:02Z</time></trkpt><trkpt lat="43.466544480728935" lon="10.657946149254833"><ele>273.6</ele><time>2026-04-19T10:56:03Z</time></trkpt><trkpt lat="43.46662053432052" lon="10.658024377557345"><ele>272.4</ele><time>2026-04-19T10:56:04Z</time></trkpt><trkpt lat="43.46669960352918" lon="10.658102147883664"><ele>271.2</ele><time>2026-04-19T10:56:05Z</time></trkpt><trkpt lat="43.46678365710017" lon="10.658191151797645"><ele>270.0</ele><time>2026-04-19T10:56:06Z</time></trkpt><trkpt lat="43.466866570736464" lon="10.658283362291629"><ele>270.0</ele><time>2026-04-19T10:56:07Z</time></trkpt><trkpt lat="43.466952461070946" lon="10.658378737831159"><ele>270.0</ele><time>2026-04-19T10:56:08Z</time></trkpt><trkpt lat="43.467042016506866" lon="10.65847180099036"><ele>270.0</ele><time>2026-04-19T10:56:09Z</time></trkpt><trkpt lat="43.467133834841555" lon="10.658567593525753"><ele>270.0</ele><time>2026-04-19T10:56:10Z</time></trkpt><trkpt lat="43.46722726279336" lon="10.658666981293463"><ele>266.75</ele><time>2026-04-19T10:56:11Z</time></trkpt><trkpt lat="43.46732174558382" lon="10.658766746138225"><ele>263.5</ele><time>2026-04-19T10:56:12Z</time></trkpt><trkpt lat="43.467418395830904" lon="10.65886889333913"><ele>260.25</ele><time>2026-04-19T10:56:13Z</time></trkpt><trkpt lat="43.467513963392655" lon="10.658979133663065"><ele>257.0</ele><time>2026-04-19T10:56:14Z</time></trkpt><trkpt lat="43.46760963295547" lon="10.659098282336602"><ele>257.0</ele><time>2026-04-19T10:56:15Z</time></trkpt><trkpt lat="43.467705858560755" lon="10.659227753910523"><ele>257.0</ele><time>2026-04-19T10:56:16Z</time></trkpt><trkpt lat="43.46780658305473" lon="10.659363371391088"><ele>257.0</ele><time>2026-04-19T10:56:17Z</time></trkpt><trkpt lat="43.46790479016191" lon="10.659512580248055"><ele>257.0</ele><time>2026-04-19T10:56:18Z</time></trkpt><trkpt lat="43.468008573885044" lon="10.659659260668926"><ele>252.66666666666669</ele><time>2026-04-19T10:56:19Z</time></trkpt><trkpt lat="43.468112555189435" lon="10.659812527372896"><ele>248.33333333333331</ele><time>2026-04-19T10:56:20Z</time></trkpt><trkpt lat="43.46822092395608" lon="10.659968269875511"><ele>244.0</ele><time>2026-04-19T10:56:21Z</time></trkpt><trkpt lat="43.468330441578" lon="10.660126245756299"><ele>241.33333333333331</ele><time>2026-04-19T10:56:22Z</time></trkpt><trkpt lat="43.46844312511158" lon="10.660285285577954"><ele>238.66666666666669</ele><time>2026-04-19T10:56:23Z</time></trkpt><trkpt lat="43.46855499356901" lon="10.660445368299875"><ele>236.0</ele><time>2026-04-19T10:56:24Z</time></trkpt><trkpt lat="43.46866075407012" lon="10.66060862723939"><ele>236.0</ele><time>2026-04-19T10:56:25Z</time></trkpt><trkpt lat="43.46875974883726" lon="10.660776798132385"><ele>236.0</ele><time>2026-04-19T10:56:26Z</time></trkpt><trkpt lat="43.46884750693026" lon="10.660949088033576"><ele>236.0</ele><time>2026-04-19T10:56:27Z</time></trkpt><trkpt lat="43.468927614729616" lon="10.661123621053676"><ele>235.60000000000002</ele><time>2026-04-19T10:56:28Z</time></trkpt><trkpt lat="43.46899765584838" lon="10.661284456466804"><ele>235.20000000000002</ele><time>2026-04-19T10:56:29Z</time></trkpt><trkpt lat="43.46905681841925" lon="10.66142202318469"><ele>234.79999999999998</ele><time>2026-04-19T10:56:30Z</time></trkpt><trkpt lat="43.469109760563356" lon="10.661538862774718"><ele>234.39999999999998</ele><time>2026-04-19T10:56:31Z</time></trkpt><trkpt lat="43.46915541665495" lon="10.66163927624703"><ele>234.0</ele><time>2026-04-19T10:56:32Z</time></trkpt><trkpt lat="43.46919798377256" lon="10.661730350189456"><ele>234.0</ele><time>2026-04-19T10:56:33Z</time></trkpt><trkpt lat="43.4692380542892" lon="10.661815593402677"><ele>234.00000000000003</ele><time>2026-04-19T10:56:34Z</time></trkpt><trkpt lat="43.46927926108951" lon="10.661897477955176"><ele>234.0</ele><time>2026-04-19T10:56:35Z</time></trkpt><trkpt lat="43.46932075922825" lon="10.661970803490435"><ele>234.0</ele><time>2026-04-19T10:56:36Z</time></trkpt><trkpt lat="43.46936635153549" lon="10.662038772709773"><ele>234.00000000000003</ele><time>2026-04-19T10:56:37Z</time></trkpt><trkpt lat="43.46941603072027" lon="10.662106760267731"><ele>234.0</ele><time>2026-04-19T10:56:38Z</time></trkpt><trkpt lat="43.46947236282624" lon="10.662176613823753"><ele>234.0</ele><time>2026-04-19T10:56:39Z</time></trkpt><trkpt lat="43.469533022959006" lon="10.662250833286677"><ele>234.0</ele><time>2026-04-19T10:56:40Z</time></trkpt><trkpt lat="43.469597636803435" lon="10.662328695992333"><ele>233.99999999999997</ele><time>2026-04-19T10:56:41Z</time></trkpt><trkpt lat="43.469665889887395" lon="10.662410987177106"><ele>233.99999999999997</ele><time>2026-04-19T10:56:42Z</time></trkpt><trkpt lat="43.4697361662823" lon="10.662498264827779"><ele>234.0</ele><time>2026-04-19T10:56:43Z</time></trkpt><trkpt lat="43.46981144282528" lon="10.662591288756115"><ele>234.0</ele><time>2026-04-19T10:56:44Z</time></trkpt><trkpt lat="43.46988771028346" lon="10.662690952170239"><ele>232.0</ele><time>2026-04-19T10:56:45Z</time></trkpt><trkpt lat="43.46996570015211" lon="10.662788865464673"><ele>229.99999999999997</ele><time>2026-04-19T10:56:46Z</time></trkpt><trkpt lat="43.47003947138859" lon="10.662881022983328"><ele>227.99999999999997</ele><time>2026-04-19T10:56:47Z</time></trkpt><trkpt lat="43.47010536998625" lon="10.662971869804261"><ele>226.0</ele><time>2026-04-19T10:56:48Z</time></trkpt><trkpt lat="43.47017373962716" lon="10.663071917005082"><ele>224.0</ele><time>2026-04-19T10:56:49Z</time></trkpt><trkpt lat="43.470223694552566" lon="10.663182174081127"><ele>224.00000000000003</ele><time>2026-04-19T10:56:50Z</time></trkpt><trkpt lat="43.47025246196658" lon="10.663300976647347"><ele>224.0</ele><time>2026-04-19T10:56:51Z</time></trkpt><trkpt lat="43.47026096969144" lon="10.663429153125307"><ele>224.0</ele><time>2026-04-19T10:56:52Z</time></trkpt><trkpt lat="43.47026157197464" lon="10.663545560416837"><ele>224.0</ele><time>2026-04-19T10:56:53Z</time></trkpt><trkpt lat="43.47025993227794" lon="10.663649788825017"><ele>224.00000000000003</ele><time>2026-04-19T10:56:54Z</time></trkpt><trkpt lat="43.470254403961064" lon="10.663756387617708"><ele>224.0</ele><time>2026-04-19T10:56:55Z</time></trkpt><trkpt lat="43.470247372338235" lon="10.663872053604381"><ele>223.28571428571428</ele><time>2026-04-19T10:56:56Z</time></trkpt><trkpt lat="43.47023978671833" lon="10.66399249244845"><ele>222.57142857142856</ele><time>2026-04-19T10:56:57Z</time></trkpt><trkpt lat="43.47023246886717" lon="10.66410693534066"><ele>221.85714285714286</ele><time>2026-04-19T10:56:58Z</time></trkpt><trkpt lat="43.47022744275892" lon="10.66420996621893"><ele>221.14285714285714</ele><time>2026-04-19T10:56:59Z</time></trkpt><trkpt lat="43.470230681245035" lon="10.664296909860683"><ele>220.42857142857142</ele><time>2026-04-19T10:57:00Z</time></trkpt><trkpt lat="43.47024877759104" lon="10.664381971427686"><ele>219.71428571428572</ele><time>2026-04-19T10:57:01Z</time></trkpt><trkpt lat="43.470280987716585" lon="10.66446624855935"><ele>219.0</ele><time>2026-04-19T10:57:02Z</time></trkpt><trkpt lat="43.4703157780573" lon="10.664553852260717"><ele>218.66666666666666</ele><time>2026-04-19T10:57:03.001Z</time></trkpt><trkpt lat="43.47035552544461" lon="10.664645637048833"><ele>218.33333333333331</ele><time>2026-04-19T10:57:04.001Z</time></trkpt><trkpt lat="43.47040208937364" lon="10.664741551275986"><ele>218.0</ele><time>2026-04-19T10:57:05.001Z</time></trkpt><trkpt lat="43.47045189756583" lon="10.664832306951979"><ele>217.66666666666666</ele><time>2026-04-19T10:57:06.001Z</time></trkpt><trkpt lat="43.470495417361" lon="10.664926068460781"><ele>217.33333333333331</ele><time>2026-04-19T10:57:07.001Z</time></trkpt><trkpt lat="43.470536707909204" lon="10.665017657351122"><ele>217.0</ele><time>2026-04-19T10:57:08.001Z</time></trkpt><trkpt lat="43.47058210993777" lon="10.66511593211078"><ele>214.33333333333331</ele><time>2026-04-19T10:57:09.001Z</time></trkpt><trkpt lat="43.47063454152805" lon="10.665214360539428"><ele>211.66666666666666</ele><time>2026-04-19T10:57:10.001Z</time></trkpt><trkpt lat="43.47070470881623" lon="10.665288781700404"><ele>209.0</ele><time>2026-04-19T10:57:11.001Z</time></trkpt><trkpt lat="43.47081005387955" lon="10.6653821612874"><ele>206.33333333333331</ele><time>2026-04-19T10:57:13.001Z</time></trkpt><trkpt lat="43.47087186940822" lon="10.66542297055098"><ele>203.66666666666666</ele><time>2026-04-19T10:57:14.001Z</time></trkpt><trkpt lat="43.47093514796601" lon="10.665468742630079"><ele>201.0</ele><time>2026-04-19T10:57:15.001Z</time></trkpt><trkpt lat="43.471000083024535" lon="10.66551681172248"><ele>199.83333333333334</ele><time>2026-04-19T10:57:16.001Z</time></trkpt><trkpt lat="43.47106713049449" lon="10.66556771312098"><ele>198.66666666666669</ele><time>2026-04-19T10:57:17.001Z</time></trkpt><trkpt lat="43.471135910785094" lon="10.665619584913822"><ele>197.5</ele><time>2026-04-19T10:57:18.001Z</time></trkpt><trkpt lat="43.47120612895849" lon="10.66567327353732"><ele>196.33333333333334</ele><time>2026-04-19T10:57:19.001Z</time></trkpt><trkpt lat="43.47127720950227" lon="10.665728355739676"><ele>195.16666666666669</ele><time>2026-04-19T10:57:20.001Z</time></trkpt><trkpt lat="43.47135465292245" lon="10.665787981680758"><ele>194.0</ele><time>2026-04-19T10:57:21.001Z</time></trkpt><trkpt lat="43.471436298994625" lon="10.665852567569006"><ele>193.6</ele><time>2026-04-19T10:57:22.001Z</time></trkpt><trkpt lat="43.471518216944744" lon="10.665917423576344"><ele>193.2</ele><time>2026-04-19T10:57:23.001Z</time></trkpt><trkpt lat="43.471602283049975" lon="10.665986249554654"><ele>192.79999999999998</ele><time>2026-04-19T10:57:24.001Z</time></trkpt><trkpt lat="43.47168810889175" lon="10.666054416709875"><ele>192.39999999999998</ele><time>2026-04-19T10:57:25.001Z</time></trkpt><trkpt lat="43.47177303014751" lon="10.66612090848228"><ele>192.0</ele><time>2026-04-19T10:57:26.001Z</time></trkpt><trkpt lat="43.471858049136166" lon="10.666186084502526"><ele>191.0</ele><time>2026-04-19T10:57:27.001Z</time></trkpt><trkpt lat="43.47194583421298" lon="10.666251690604808"><ele>190.0</ele><time>2026-04-19T10:57:28.001Z</time></trkpt><trkpt lat="43.4720355908172" lon="10.666319995703669"><ele>189.0</ele><time>2026-04-19T10:57:29.001Z</time></trkpt><trkpt lat="43.472123423126675" lon="10.66638792269749"><ele>188.0</ele><time>2026-04-19T10:57:30.001Z</time></trkpt><trkpt lat="43.47220928426629" lon="10.66645437818344"><ele>187.0</ele><time>2026-04-19T10:57:31.001Z</time></trkpt><trkpt lat="43.472292860136136" lon="10.666518941108995"><ele>187.0</ele><time>2026-04-19T10:57:32.001Z</time></trkpt><trkpt lat="43.47237336268939" lon="10.666582120489762"><ele>187.0</ele><time>2026-04-19T10:57:32.999Z</time></trkpt><trkpt lat="43.472451408341385" lon="10.6666421138768"><ele>187.0</ele><time>2026-04-19T10:57:33.999Z</time></trkpt><trkpt lat="43.47253063918435" lon="10.666701613709868"><ele>187.0</ele><time>2026-04-19T10:57:34.999Z</time></trkpt><trkpt lat="43.4726115031456" lon="10.666763530491725"><ele>187.0</ele><time>2026-04-19T10:57:35.999Z</time></trkpt><trkpt lat="43.4726948348838" lon="10.666829249441811"><ele>187.0</ele><time>2026-04-19T10:57:36.999Z</time></trkpt><trkpt lat="43.47277526862949" lon="10.666904975566144"><ele>187.0</ele><time>2026-04-19T10:57:37.999Z</time></trkpt><trkpt lat="43.47284608269012" lon="10.666990486125435"><ele>187.0</ele><time>2026-04-19T10:57:38.999Z</time></trkpt><trkpt lat="43.472907218985355" lon="10.667084054536543"><ele>187.0</ele><time>2026-04-19T10:57:39.999Z</time></trkpt><trkpt lat="43.47296085050504" lon="10.66718549324343"><ele>187.0</ele><time>2026-04-19T10:57:40.999Z</time></trkpt><trkpt lat="43.473002400237164" lon="10.667295462150717"><ele>185.6</ele><time>2026-04-19T10:57:41.999Z</time></trkpt><trkpt lat="43.47304903062206" lon="10.667403248129439"><ele>184.2</ele><time>2026-04-19T10:57:42.999Z</time></trkpt><trkpt lat="43.47310261729545" lon="10.667509932444089"><ele>182.8</ele><time>2026-04-19T10:57:43.999Z</time></trkpt><trkpt lat="43.473164392705286" lon="10.66761011088358"><ele>181.4</ele><time>2026-04-19T10:57:44.999Z</time></trkpt><trkpt lat="43.47323741802129" lon="10.667697558847022"><ele>180.0</ele><time>2026-04-19T10:57:45.999Z</time></trkpt><trkpt lat="43.473320756342176" lon="10.667764408247743"><ele>179.0</ele><time>2026-04-19T10:57:46.999Z</time></trkpt><trkpt lat="43.47341322367328" lon="10.667817470641124"><ele>178.0</ele><time>2026-04-19T10:57:48Z</time></trkpt><trkpt lat="43.47350709152123" lon="10.667869675407513"><ele>177.0</ele><time>2026-04-19T10:57:49Z</time></trkpt><trkpt lat="43.47360456459056" lon="10.667917266951894"><ele>176.0</ele><time>2026-04-19T10:57:50Z</time></trkpt><trkpt lat="43.473705418071866" lon="10.667956480877177"><ele>175.0</ele><time>2026-04-19T10:57:51Z</time></trkpt><trkpt lat="43.47380491442999" lon="10.668007927191931"><ele>174.2</ele><time>2026-04-19T10:57:52Z</time></trkpt><trkpt lat="43.47390099988163" lon="10.668074678279032"><ele>173.4</ele><time>2026-04-19T10:57:53Z</time></trkpt><trkpt lat="43.4740081518321" lon="10.668103739718983"><ele>172.60000000000002</ele><time>2026-04-19T10:57:54Z</time></trkpt><trkpt lat="43.47411180078418" lon="10.66815479669975"><ele>171.8</ele><time>2026-04-19T10:57:55Z</time></trkpt><trkpt lat="43.47421760584005" lon="10.668202461120586"><ele>171.0</ele><time>2026-04-19T10:57:56Z</time></trkpt><trkpt lat="43.47432444907406" lon="10.66825136877588"><ele>171.0</ele><time>2026-04-19T10:57:57Z</time></trkpt><trkpt lat="43.47443430505022" lon="10.668303309796391"><ele>171.0</ele><time>2026-04-19T10:57:58Z</time></trkpt><trkpt lat="43.47454673357998" lon="10.668355165779879"><ele>171.0</ele><time>2026-04-19T10:57:59Z</time></trkpt><trkpt lat="43.4746597952433" lon="10.668407695093151"><ele>171.0</ele><time>2026-04-19T10:58:00Z</time></trkpt><trkpt lat="43.47477391917066" lon="10.668465672709592"><ele>170.0</ele><time>2026-04-19T10:58:01Z</time></trkpt><trkpt lat="43.47488535788381" lon="10.668542074540133"><ele>169.0</ele><time>2026-04-19T10:58:02Z</time></trkpt><trkpt lat="43.47498767346874" lon="10.668647806185033"><ele>168.0</ele><time>2026-04-19T10:58:03Z</time></trkpt><trkpt lat="43.475079092499584" lon="10.668749801661122"><ele>167.0</ele><time>2026-04-19T10:58:04Z</time></trkpt><trkpt lat="43.47515096940484" lon="10.668853871038236"><ele>167.0</ele><time>2026-04-19T10:58:05Z</time></trkpt><trkpt lat="43.475245415996426" lon="10.6689216629279"><ele>167.0</ele><time>2026-04-19T10:58:06Z</time></trkpt><trkpt lat="43.475338383324065" lon="10.669001440560278"><ele>167.0</ele><time>2026-04-19T10:58:07Z</time></trkpt><trkpt lat="43.47547739612565" lon="10.669018289739968"><ele>167.0</ele><time>2026-04-19T10:58:08Z</time></trkpt><trkpt lat="43.47562839030435" lon="10.668982855621502"><ele>164.25</ele><time>2026-04-19T10:58:09Z</time></trkpt><trkpt lat="43.4757658317387" lon="10.6689370122777"><ele>161.5</ele><time>2026-04-19T10:58:10Z</time></trkpt><trkpt lat="43.47589551033003" lon="10.66887677825823"><ele>158.75</ele><time>2026-04-19T10:58:11Z</time></trkpt><trkpt lat="43.4760266488137" lon="10.668837742241255"><ele>156.0</ele><time>2026-04-19T10:58:12Z</time></trkpt><trkpt lat="43.47615823717073" lon="10.668819078935874"><ele>154.75</ele><time>2026-04-19T10:58:13Z</time></trkpt><trkpt lat="43.47628527258021" lon="10.668781758636094"><ele>153.5</ele><time>2026-04-19T10:58:14Z</time></trkpt><trkpt lat="43.47640677973954" lon="10.66874566518764"><ele>152.25</ele><time>2026-04-19T10:58:15Z</time></trkpt><trkpt lat="43.47652438501583" lon="10.668711460793412"><ele>151.0</ele><time>2026-04-19T10:58:16Z</time></trkpt><trkpt lat="43.47663636503745" lon="10.668678970039393"><ele>151.0</ele><time>2026-04-19T10:58:17Z</time></trkpt><trkpt lat="43.476743802225485" lon="10.668647797255629"><ele>151.0</ele><time>2026-04-19T10:58:18Z</time></trkpt><trkpt lat="43.47685136502721" lon="10.668616513884405"><ele>151.0</ele><time>2026-04-19T10:58:19Z</time></trkpt><trkpt lat="43.47695374941548" lon="10.668586078862024"><ele>151.0</ele><time>2026-04-19T10:58:20Z</time></trkpt><trkpt lat="43.47705092223619" lon="10.668560105002856"><ele>151.0</ele><time>2026-04-19T10:58:21Z</time></trkpt><trkpt lat="43.47714564672435" lon="10.668537383933455"><ele>152.6</ele><time>2026-04-19T10:58:22Z</time></trkpt><trkpt lat="43.47723877304487" lon="10.668515046188471"><ele>154.2</ele><time>2026-04-19T10:58:23Z</time></trkpt><trkpt lat="43.47732954095283" lon="10.668493274188858"><ele>155.8</ele><time>2026-04-19T10:58:24Z</time></trkpt><trkpt lat="43.47742118901593" lon="10.668471291027378"><ele>157.4</ele><time>2026-04-19T10:58:25Z</time></trkpt><trkpt lat="43.47751967977765" lon="10.668447666544598"><ele>159.0</ele><time>2026-04-19T10:58:26Z</time></trkpt><trkpt lat="43.47762360512369" lon="10.668425408832585"><ele>159.0</ele><time>2026-04-19T10:58:27Z</time></trkpt><trkpt lat="43.47772119773253" lon="10.668404850752886"><ele>159.0</ele><time>2026-04-19T10:58:28Z</time></trkpt><trkpt lat="43.47781310938639" lon="10.668385489357892"><ele>159.0</ele><time>2026-04-19T10:58:29Z</time></trkpt><trkpt lat="43.47790388593887" lon="10.668351173888187"><ele>159.0</ele><time>2026-04-19T10:58:30Z</time></trkpt><trkpt lat="43.47800095237423" lon="10.668374499415885"><ele>159.0</ele><time>2026-04-19T10:58:31Z</time></trkpt><trkpt lat="43.47809800160451" lon="10.668394631796035"><ele>158.4</ele><time>2026-04-19T10:58:32Z</time></trkpt><trkpt lat="43.478194342552456" lon="10.668399078526923"><ele>157.8</ele><time>2026-04-19T10:58:33Z</time></trkpt><trkpt lat="43.47829127887362" lon="10.668428794153753"><ele>157.2</ele><time>2026-04-19T10:58:34Z</time></trkpt><trkpt lat="43.478392832165575" lon="10.668482545843796"><ele>156.6</ele><time>2026-04-19T10:58:35Z</time></trkpt><trkpt lat="43.478503529840275" lon="10.668515744627165"><ele>156.0</ele><time>2026-04-19T10:58:36Z</time></trkpt><trkpt lat="43.478609548275635" lon="10.66854621035231"><ele>156.0</ele><time>2026-04-19T10:58:37Z</time></trkpt><trkpt lat="43.47871957073137" lon="10.668552746106634"><ele>156.0</ele><time>2026-04-19T10:58:38Z</time></trkpt><trkpt lat="43.47882968861669" lon="10.668577198945657"><ele>156.0</ele><time>2026-04-19T10:58:39Z</time></trkpt><trkpt lat="43.478932256662176" lon="10.668608144722647"><ele>156.0</ele><time>2026-04-19T10:58:40.001Z</time></trkpt><trkpt lat="43.47903479359689" lon="10.668610633850426"><ele>156.0</ele><time>2026-04-19T10:58:41.001Z</time></trkpt><trkpt lat="43.47913678809268" lon="10.668584400814265"><ele>156.0</ele><time>2026-04-19T10:58:42.001Z</time></trkpt><trkpt lat="43.479241452364" lon="10.668551499309281"><ele>156.0</ele><time>2026-04-19T10:58:43.001Z</time></trkpt><trkpt lat="43.47932716299275" lon="10.668480117048837"><ele>156.0</ele><time>2026-04-19T10:58:44.001Z</time></trkpt><trkpt lat="43.479407142077136" lon="10.668416358279542"><ele>156.0</ele><time>2026-04-19T10:58:45.001Z</time></trkpt><trkpt lat="43.479486632440356" lon="10.668364451500855"><ele>156.0</ele><time>2026-04-19T10:58:46.001Z</time></trkpt><trkpt lat="43.479570832484875" lon="10.668325311361293"><ele>155.8</ele><time>2026-04-19T10:58:47.001Z</time></trkpt><trkpt lat="43.479659886451365" lon="10.66832963393195"><ele>155.6</ele><time>2026-04-19T10:58:48.001Z</time></trkpt><trkpt lat="43.479758283843346" lon="10.66835400174906"><ele>155.4</ele><time>2026-04-19T10:58:49.001Z</time></trkpt><trkpt lat="43.4798350887593" lon="10.668443836910265"><ele>155.2</ele><time>2026-04-19T10:58:50.001Z</time></trkpt><trkpt lat="43.47988822478488" lon="10.668553339993647"><ele>155.0</ele><time>2026-04-19T10:58:51.001Z</time></trkpt><trkpt lat="43.47993441792318" lon="10.668664852220772"><ele>155.0</ele><time>2026-04-19T10:58:52.001Z</time></trkpt><trkpt lat="43.47998847581839" lon="10.668769919615436"><ele>155.0</ele><time>2026-04-19T10:58:53.001Z</time></trkpt><trkpt lat="43.480046601817044" lon="10.668881334251548"><ele>155.0</ele><time>2026-04-19T10:58:54.001Z</time></trkpt><trkpt lat="43.48010695936444" lon="10.668994035149865"><ele>155.0</ele><time>2026-04-19T10:58:55.001Z</time></trkpt><trkpt lat="43.480169617731505" lon="10.66911001278559"><ele>155.0</ele><time>2026-04-19T10:58:56.001Z</time></trkpt><trkpt lat="43.48023387268944" lon="10.669226381122119"><ele>155.0</ele><time>2026-04-19T10:58:57.001Z</time></trkpt><trkpt lat="43.48030118185919" lon="10.669338885978135"><ele>155.0</ele><time>2026-04-19T10:58:58.001Z</time></trkpt><trkpt lat="43.480370854434064" lon="10.669452559968152"><ele>155.0</ele><time>2026-04-19T10:58:59.001Z</time></trkpt><trkpt lat="43.48044012718228" lon="10.669565297337432"><ele>155.0</ele><time>2026-04-19T10:59:00.001Z</time></trkpt><trkpt lat="43.48050769664738" lon="10.669673992823524"><ele>155.0</ele><time>2026-04-19T10:59:01.001Z</time></trkpt><trkpt lat="43.48057419314216" lon="10.669780171184431"><ele>155.6</ele><time>2026-04-19T10:59:02.001Z</time></trkpt><trkpt lat="43.48064219864726" lon="10.66988196701755"><ele>156.2</ele><time>2026-04-19T10:59:03.001Z</time></trkpt><trkpt lat="43.48070769092882" lon="10.669985339486859"><ele>156.8</ele><time>2026-04-19T10:59:04.001Z</time></trkpt><trkpt lat="43.48077410721668" lon="10.670090134207646"><ele>157.4</ele><time>2026-04-19T10:59:05.001Z</time></trkpt><trkpt lat="43.480838994032894" lon="10.670199580425969"><ele>158.0</ele><time>2026-04-19T10:59:06.001Z</time></trkpt><trkpt lat="43.48089455645641" lon="10.670324304900879"><ele>158.4</ele><time>2026-04-19T10:59:07.001Z</time></trkpt><trkpt lat="43.48092252779828" lon="10.670466736767068"><ele>158.8</ele><time>2026-04-19T10:59:08.001Z</time></trkpt><trkpt lat="43.48091751008413" lon="10.670604770097544"><ele>159.2</ele><time>2026-04-19T10:59:09.001Z</time></trkpt><trkpt lat="43.48089177729205" lon="10.67073918941963"><ele>159.6</ele><time>2026-04-19T10:59:10.001Z</time></trkpt><trkpt lat="43.480863974526265" lon="10.670865149434704"><ele>160.0</ele><time>2026-04-19T10:59:11.001Z</time></trkpt><trkpt lat="43.48083686336045" lon="10.670987252165375"><ele>160.0</ele><time>2026-04-19T10:59:12.001Z</time></trkpt><trkpt lat="43.48082127333179" lon="10.671107351619199"><ele>160.0</ele><time>2026-04-19T10:59:13.001Z</time></trkpt><trkpt lat="43.48083020809854" lon="10.671237835825226"><ele>160.0</ele><time>2026-04-19T10:59:14.001Z</time></trkpt><trkpt lat="43.480859578351705" lon="10.671371230293728"><ele>160.0</ele><time>2026-04-19T10:59:15.001Z</time></trkpt><trkpt lat="43.48089829758218" lon="10.671507495661226"><ele>160.0</ele><time>2026-04-19T10:59:16.001Z</time></trkpt><trkpt lat="43.4809353762508" lon="10.67165688480901"><ele>158.0</ele><time>2026-04-19T10:59:17.001Z</time></trkpt><trkpt lat="43.48097274216442" lon="10.671810553262981"><ele>156.0</ele><time>2026-04-19T10:59:18.001Z</time></trkpt><trkpt lat="43.48101230845352" lon="10.67197230363269"><ele>154.0</ele><time>2026-04-19T10:59:19.001Z</time></trkpt><trkpt lat="43.481054261116405" lon="10.672145254237531"><ele>152.0</ele><time>2026-04-19T10:59:20.001Z</time></trkpt><trkpt lat="43.48109633075916" lon="10.67232774616103"><ele>150.0</ele><time>2026-04-19T10:59:21.001Z</time></trkpt><trkpt lat="43.48113788058656" lon="10.672514682009734"><ele>148.0</ele><time>2026-04-19T10:59:22.001Z</time></trkpt><trkpt lat="43.481185563788536" lon="10.672701939008475"><ele>146.0</ele><time>2026-04-19T10:59:23.001Z</time></trkpt><trkpt lat="43.48124165553021" lon="10.67288498043768"><ele>144.0</ele><time>2026-04-19T10:59:24.001Z</time></trkpt><trkpt lat="43.48130309820548" lon="10.673065433664409"><ele>142.25</ele><time>2026-04-19T10:59:25.001Z</time></trkpt><trkpt lat="43.48136443685064" lon="10.673246336053772"><ele>140.5</ele><time>2026-04-19T10:59:26.001Z</time></trkpt><trkpt lat="43.481428471648776" lon="10.673420930347113"><ele>138.75</ele><time>2026-04-19T10:59:27.001Z</time></trkpt><trkpt lat="43.48151056444732" lon="10.673565814271868"><ele>137.0</ele><time>2026-04-19T10:59:28.001Z</time></trkpt><trkpt lat="43.481612878561386" lon="10.673674512165602"><ele>136.6</ele><time>2026-04-19T10:59:29.001Z</time></trkpt><trkpt lat="43.48173627971901" lon="10.6737500223662"><ele>136.2</ele><time>2026-04-19T10:59:30.001Z</time></trkpt><trkpt lat="43.48185941770759" lon="10.673770467303322"><ele>135.8</ele><time>2026-04-19T10:59:31.001Z</time></trkpt><trkpt lat="43.481955433164934" lon="10.67379885010484"><ele>135.4</ele><time>2026-04-19T10:59:32.001Z</time></trkpt><trkpt lat="43.48202776490535" lon="10.673805320349725"><ele>135.0</ele><time>2026-04-19T10:59:33.001Z</time></trkpt><trkpt lat="43.482091692682474" lon="10.673792633820497"><ele>135.4</ele><time>2026-04-19T10:59:34.001Z</time></trkpt><trkpt lat="43.48218774540473" lon="10.673827533545152"><ele>135.8</ele><time>2026-04-19T10:59:36.001Z</time></trkpt><trkpt lat="43.482204855669195" lon="10.67395279864049"><ele>136.2</ele><time>2026-04-19T10:59:37.001Z</time></trkpt><trkpt lat="43.482223605967064" lon="10.674088762088592"><ele>136.6</ele><time>2026-04-19T10:59:46Z</time></trkpt><trkpt lat="43.48226160517115" lon="10.674173634990895"><ele>137.0</ele><time>2026-04-19T11:00:04Z</time></trkpt><trkpt lat="43.482294724634514" lon="10.674289564250154"><ele>137.33333333333331</ele><time>2026-04-19T11:00:06Z</time></trkpt><trkpt lat="43.48233277880036" lon="10.674465108793743"><ele>137.66666666666666</ele><time>2026-04-19T11:00:08Z</time></trkpt><trkpt lat="43.48234206136053" lon="10.674567781365635"><ele>138.0</ele><time>2026-04-19T11:00:09Z</time></trkpt><trkpt lat="43.48234363039997" lon="10.674676942881947"><ele>138.33333333333334</ele><time>2026-04-19T11:00:10Z</time></trkpt><trkpt lat="43.482336689275506" lon="10.674790177207692"><ele>138.66666666666669</ele><time>2026-04-19T11:00:11Z</time></trkpt><trkpt lat="43.482323309078986" lon="10.674895733852125"><ele>139.0</ele><time>2026-04-19T11:00:12Z</time></trkpt><trkpt lat="43.48230745814295" lon="10.67499720181665"><ele>139.0</ele><time>2026-04-19T11:00:13Z</time></trkpt><trkpt lat="43.482288837033714" lon="10.675093687790199"><ele>139.0</ele><time>2026-04-19T11:00:14Z</time></trkpt><trkpt lat="43.48226665765593" lon="10.675185698615547"><ele>139.0</ele><time>2026-04-19T11:00:15Z</time></trkpt><trkpt lat="43.48224293364659" lon="10.675275548876836"><ele>139.0</ele><time>2026-04-19T11:00:16Z</time></trkpt><trkpt lat="43.482217266967" lon="10.675363158516125"><ele>139.0</ele><time>2026-04-19T11:00:17Z</time></trkpt><trkpt lat="43.482190335144175" lon="10.675450705500452"><ele>139.0</ele><time>2026-04-19T11:00:18Z</time></trkpt><trkpt lat="43.48216272700642" lon="10.675540514493393"><ele>139.0</ele><time>2026-04-19T11:00:19Z</time></trkpt><trkpt lat="43.48213367172362" lon="10.675634462164608"><ele>138.16666666666669</ele><time>2026-04-19T11:00:20Z</time></trkpt><trkpt lat="43.48210224688753" lon="10.67573547783513"><ele>137.33333333333334</ele><time>2026-04-19T11:00:21Z</time></trkpt><trkpt lat="43.48206845621054" lon="10.675842188991176"><ele>136.5</ele><time>2026-04-19T11:00:22Z</time></trkpt><trkpt lat="43.48203392295403" lon="10.675954378187694"><ele>135.66666666666666</ele><time>2026-04-19T11:00:23Z</time></trkpt><trkpt lat="43.481996932901495" lon="10.676072495124831"><ele>134.83333333333331</ele><time>2026-04-19T11:00:24.001Z</time></trkpt><trkpt lat="43.48195887677733" lon="10.676196623530746"><ele>134.0</ele><time>2026-04-19T11:00:25.001Z</time></trkpt><trkpt lat="43.481919189224584" lon="10.676318765264122"><ele>133.2</ele><time>2026-04-19T11:00:26.001Z</time></trkpt><trkpt lat="43.48188048280848" lon="10.676444530676903"><ele>132.4</ele><time>2026-04-19T11:00:27.001Z</time></trkpt><trkpt lat="43.4818413201113" lon="10.676576120246535"><ele>131.6</ele><time>2026-04-19T11:00:28.001Z</time></trkpt><trkpt lat="43.4818006497738" lon="10.676714590408661"><ele>130.8</ele><time>2026-04-19T11:00:29.001Z</time></trkpt><trkpt lat="43.48175821533133" lon="10.676853639938496"><ele>130.0</ele><time>2026-04-19T11:00:30.001Z</time></trkpt><trkpt lat="43.48171550261277" lon="10.676996469890614"><ele>129.4</ele><time>2026-04-19T11:00:31.001Z</time></trkpt><trkpt lat="43.481670881586396" lon="10.677141044342973"><ele>128.8</ele><time>2026-04-19T11:00:32.001Z</time></trkpt><trkpt lat="43.4816254928425" lon="10.677283781139684"><ele>128.2</ele><time>2026-04-19T11:00:33.001Z</time></trkpt><trkpt lat="43.48158290699112" lon="10.677422939421502"><ele>127.6</ele><time>2026-04-19T11:00:34.001Z</time></trkpt><trkpt lat="43.481544005054324" lon="10.677556090429295"><ele>127.0</ele><time>2026-04-19T11:00:35.001Z</time></trkpt><trkpt lat="43.48150789705094" lon="10.677679672880446"><ele>126.66666666666667</ele><time>2026-04-19T11:00:36.001Z</time></trkpt><trkpt lat="43.481476326734494" lon="10.677793669903107"><ele>126.33333333333334</ele><time>2026-04-19T11:00:37.001Z</time></trkpt><trkpt lat="43.48145006644799" lon="10.677896428500274"><ele>126.0</ele><time>2026-04-19T11:00:38.001Z</time></trkpt><trkpt lat="43.48142912338265" lon="10.67798343977742"><ele>125.66666666666666</ele><time>2026-04-19T11:00:39.001Z</time></trkpt><trkpt lat="43.48140165907421" lon="10.678097163327608"><ele>125.33333333333333</ele><time>2026-04-19T11:00:41.001Z</time></trkpt><trkpt lat="43.4813752360627" lon="10.678187638466097"><ele>125.0</ele><time>2026-04-19T11:00:44.001Z</time></trkpt><trkpt lat="43.48132785035622" lon="10.678102363205204"><ele>124.99999999999999</ele><time>2026-04-19T11:00:45.001Z</time></trkpt><trkpt lat="43.48139241043234" lon="10.678123255920529"><ele>125.0</ele><time>2026-04-19T11:02:33.001Z</time></trkpt><trkpt lat="43.48138585261346" lon="10.67825042974233"><ele>125.0</ele><time>2026-04-19T11:02:34.001Z</time></trkpt><trkpt lat="43.48137425240688" lon="10.678384823372639"><ele>125.0</ele><time>2026-04-19T11:02:36.001Z</time></trkpt><trkpt lat="43.4813647800673" lon="10.678544160552937"><ele>124.99999999999999</ele><time>2026-04-19T11:02:38.001Z</time></trkpt><trkpt lat="43.48136030409518" lon="10.678633902574704"><ele>125.0</ele><time>2026-04-19T11:02:39.001Z</time></trkpt><trkpt lat="43.48135532870038" lon="10.678729904186799"><ele>124.66666666666666</ele><time>2026-04-19T11:02:40.001Z</time></trkpt><trkpt lat="43.481350937037135" lon="10.678828579008332"><ele>124.33333333333333</ele><time>2026-04-19T11:02:41.001Z</time></trkpt><trkpt lat="43.481346844912004" lon="10.678931567963087"><ele>124.0</ele><time>2026-04-19T11:02:42.001Z</time></trkpt><trkpt lat="43.48134296402823" lon="10.679041686642115"><ele>123.66666666666666</ele><time>2026-04-19T11:02:43.001Z</time></trkpt><trkpt lat="43.48133739454765" lon="10.679162407779303"><ele>123.33333333333333</ele><time>2026-04-19T11:02:44.001Z</time></trkpt><trkpt lat="43.48132933869338" lon="10.67928602654445"><ele>123.0</ele><time>2026-04-19T11:02:45.001Z</time></trkpt><trkpt lat="43.481319856310144" lon="10.679413110503637"><ele>122.60000000000001</ele><time>2026-04-19T11:02:46.001Z</time></trkpt><trkpt lat="43.48130985347938" lon="10.679544400709773"><ele>122.20000000000002</ele><time>2026-04-19T11:02:47.001Z</time></trkpt><trkpt lat="43.48130238350111" lon="10.679679313812738"><ele>121.8</ele><time>2026-04-19T11:02:48.001Z</time></trkpt><trkpt lat="43.481295216714706" lon="10.679817849777558"><ele>121.4</ele><time>2026-04-19T11:02:49.001Z</time></trkpt><trkpt lat="43.481289208902076" lon="10.679960393853204"><ele>121.0</ele><time>2026-04-19T11:02:50.001Z</time></trkpt><trkpt lat="43.48128276011182" lon="10.680108933784782"><ele>121.0</ele><time>2026-04-19T11:02:51.001Z</time></trkpt><trkpt lat="43.48127493568779" lon="10.68026364097843"><ele>121.0</ele><time>2026-04-19T11:02:52.001Z</time></trkpt><trkpt lat="43.481265302557176" lon="10.680425704226822"><ele>121.0</ele><time>2026-04-19T11:02:53.001Z</time></trkpt><trkpt lat="43.481255009896046" lon="10.680592980953127"><ele>121.0</ele><time>2026-04-19T11:02:54.001Z</time></trkpt><trkpt lat="43.48124576582665" lon="10.68076416838507"><ele>120.75</ele><time>2026-04-19T11:02:55.001Z</time></trkpt><trkpt lat="43.48123525912522" lon="10.680945733291905"><ele>120.5</ele><time>2026-04-19T11:02:56.001Z</time></trkpt><trkpt lat="43.48122124898565" lon="10.681144874614828"><ele>120.25</ele><time>2026-04-19T11:02:57.001Z</time></trkpt><trkpt lat="43.481206875008304" lon="10.68135143671299"><ele>120.0</ele><time>2026-04-19T11:02:58.001Z</time></trkpt><trkpt lat="43.4811929507114" lon="10.681558246905023"><ele>119.66666666666666</ele><time>2026-04-19T11:02:59.001Z</time></trkpt><trkpt lat="43.481178060861936" lon="10.681769473577969"><ele>119.33333333333333</ele><time>2026-04-19T11:03:00.001Z</time></trkpt><trkpt lat="43.48116376736624" lon="10.681976097444984"><ele>119.0</ele><time>2026-04-19T11:03:01.001Z</time></trkpt><trkpt lat="43.481150133918014" lon="10.682179676315494"><ele>118.75</ele><time>2026-04-19T11:03:02.001Z</time></trkpt><trkpt lat="43.48113759179596" lon="10.682381916786111"><ele>118.5</ele><time>2026-04-19T11:03:03.001Z</time></trkpt><trkpt lat="43.48112474640821" lon="10.682580444743289"><ele>118.25</ele><time>2026-04-19T11:03:04.001Z</time></trkpt><trkpt lat="43.48111197317713" lon="10.682777114856613"><ele>118.0</ele><time>2026-04-19T11:03:05.001Z</time></trkpt><trkpt lat="43.48110159351361" lon="10.682970228479315"><ele>117.5</ele><time>2026-04-19T11:03:06.001Z</time></trkpt><trkpt lat="43.48110865825489" lon="10.683161532779494"><ele>117.0</ele><time>2026-04-19T11:03:07.001Z</time></trkpt><trkpt lat="43.481142172666154" lon="10.683346013818186"><ele>116.5</ele><time>2026-04-19T11:03:08.001Z</time></trkpt><trkpt lat="43.481202220725336" lon="10.68352459958599"><ele>116.0</ele><time>2026-04-19T11:03:09.001Z</time></trkpt><trkpt lat="43.481277473817116" lon="10.68370309774708"><ele>116.0</ele><time>2026-04-19T11:03:10.001Z</time></trkpt><trkpt lat="43.48135421405785" lon="10.683888563379048"><ele>116.0</ele><time>2026-04-19T11:03:11.001Z</time></trkpt><trkpt lat="43.48142566129031" lon="10.68408547578121"><ele>116.0</ele><time>2026-04-19T11:03:12.001Z</time></trkpt><trkpt lat="43.48148434183811" lon="10.6842926544692"><ele>115.66666666666666</ele><time>2026-04-19T11:03:13.001Z</time></trkpt><trkpt lat="43.48153479634074" lon="10.684510168906765"><ele>115.33333333333334</ele><time>2026-04-19T11:03:14.001Z</time></trkpt><trkpt lat="43.48157538019707" lon="10.684738313906587"><ele>115.0</ele><time>2026-04-19T11:03:15.001Z</time></trkpt><trkpt lat="43.48161089028446" lon="10.68496384723876"><ele>115.0</ele><time>2026-04-19T11:03:16.001Z</time></trkpt><trkpt lat="43.48164361525115" lon="10.685189738683354"><ele>115.0</ele><time>2026-04-19T11:03:17.001Z</time></trkpt><trkpt lat="43.48167433134991" lon="10.685410283308117"><ele>115.0</ele><time>2026-04-19T11:03:18.001Z</time></trkpt><trkpt lat="43.48169361923061" lon="10.68563289551102"><ele>114.66666666666667</ele><time>2026-04-19T11:03:19.001Z</time></trkpt><trkpt lat="43.48168620365073" lon="10.68586041533054"><ele>114.33333333333334</ele><time>2026-04-19T11:03:20.001Z</time></trkpt><trkpt lat="43.48163957487974" lon="10.686088407036907"><ele>114.0</ele><time>2026-04-19T11:03:21.001Z</time></trkpt><trkpt lat="43.481571139593086" lon="10.686320251251788"><ele>114.0</ele><time>2026-04-19T11:03:22.001Z</time></trkpt><trkpt lat="43.481515514249374" lon="10.686570862219302"><ele>114.0</ele><time>2026-04-19T11:03:23.001Z</time></trkpt><trkpt lat="43.48146575174331" lon="10.686836820156234"><ele>114.0</ele><time>2026-04-19T11:03:24.001Z</time></trkpt><trkpt lat="43.481422131113725" lon="10.687101043356712"><ele>115.0</ele><time>2026-04-19T11:03:25.001Z</time></trkpt><trkpt lat="43.481371061820056" lon="10.687370617598448"><ele>116.0</ele><time>2026-04-19T11:03:26.002Z</time></trkpt><trkpt lat="43.48132364045187" lon="10.68761934840992"><ele>117.0</ele><time>2026-04-19T11:03:27.002Z</time></trkpt><trkpt lat="43.481293181179424" lon="10.687870809736978"><ele>117.33333333333334</ele><time>2026-04-19T11:03:28.002Z</time></trkpt><trkpt lat="43.48128277072013" lon="10.688141508528664"><ele>117.66666666666667</ele><time>2026-04-19T11:03:29.002Z</time></trkpt><trkpt lat="43.481301369960626" lon="10.688430313377857"><ele>118.0</ele><time>2026-04-19T11:03:30.002Z</time></trkpt><trkpt lat="43.48132550616001" lon="10.688725017217733"><ele>116.66666666666667</ele><time>2026-04-19T11:03:31.002Z</time></trkpt><trkpt lat="43.4813429929658" lon="10.689005308833456"><ele>115.33333333333334</ele><time>2026-04-19T11:03:32.002Z</time></trkpt><trkpt lat="43.48136318018392" lon="10.689276538088533"><ele>114.0</ele><time>2026-04-19T11:03:33.002Z</time></trkpt><trkpt lat="43.4813881456505" lon="10.689535420998494"><ele>113.0</ele><time>2026-04-19T11:03:34.002Z</time></trkpt><trkpt lat="43.48140308662766" lon="10.689786160631897"><ele>112.0</ele><time>2026-04-19T11:03:35.002Z</time></trkpt><trkpt lat="43.48139349096366" lon="10.690046679422718"><ele>111.0</ele><time>2026-04-19T11:03:36.002Z</time></trkpt><trkpt lat="43.48136697788807" lon="10.6903059898453"><ele>111.0</ele><time>2026-04-19T11:03:37.002Z</time></trkpt><trkpt lat="43.481331341343314" lon="10.69053675535688"><ele>111.0</ele><time>2026-04-19T11:03:38.002Z</time></trkpt><trkpt lat="43.48129043233884" lon="10.690750134005235"><ele>111.0</ele><time>2026-04-19T11:03:39.002Z</time></trkpt><trkpt lat="43.48125345978214" lon="10.690960212203166"><ele>110.33333333333334</ele><time>2026-04-19T11:03:40.002Z</time></trkpt><trkpt lat="43.481214510759195" lon="10.691166139553914"><ele>109.66666666666667</ele><time>2026-04-19T11:03:41.002Z</time></trkpt><trkpt lat="43.48117458688092" lon="10.69136640823952"><ele>109.0</ele><time>2026-04-19T11:03:42.002Z</time></trkpt><trkpt lat="43.48113559626749" lon="10.691562202267981"><ele>109.0</ele><time>2026-04-19T11:03:43.002Z</time></trkpt><trkpt lat="43.4810967846514" lon="10.691757178289713"><ele>109.0</ele><time>2026-04-19T11:03:44.002Z</time></trkpt><trkpt lat="43.48105675824517" lon="10.691953542206747"><ele>109.0</ele><time>2026-04-19T11:03:45.002Z</time></trkpt><trkpt lat="43.48102447886764" lon="10.692153625842009"><ele>109.0</ele><time>2026-04-19T11:03:46.002Z</time></trkpt><trkpt lat="43.481000329555" lon="10.69235417965921"><ele>108.5</ele><time>2026-04-19T11:03:47.002Z</time></trkpt><trkpt lat="43.48097950590604" lon="10.69255061484714"><ele>108.0</ele><time>2026-04-19T11:03:48.002Z</time></trkpt><trkpt lat="43.48095016845254" lon="10.692741974683344"><ele>107.5</ele><time>2026-04-19T11:03:49.002Z</time></trkpt><trkpt lat="43.48090383838536" lon="10.692926104941334"><ele>107.0</ele><time>2026-04-19T11:03:50.002Z</time></trkpt><trkpt lat="43.48084344326008" lon="10.693096884383744"><ele>106.75</ele><time>2026-04-19T11:03:51.001Z</time></trkpt><trkpt lat="43.4807731649981" lon="10.69324887343925"><ele>106.5</ele><time>2026-04-19T11:03:52.001Z</time></trkpt><trkpt lat="43.48070613006905" lon="10.693400088144873"><ele>106.25</ele><time>2026-04-19T11:03:53.001Z</time></trkpt><trkpt lat="43.4806358262519" lon="10.693548575785973"><ele>106.0</ele><time>2026-04-19T11:03:54.001Z</time></trkpt><trkpt lat="43.48055116138004" lon="10.69367741463184"><ele>106.25</ele><time>2026-04-19T11:03:55.001Z</time></trkpt><trkpt lat="43.48044287352457" lon="10.69377104907187"><ele>106.5</ele><time>2026-04-19T11:03:56.001Z</time></trkpt><trkpt lat="43.480309494727884" lon="10.693803038749126"><ele>106.75</ele><time>2026-04-19T11:03:57.001Z</time></trkpt><trkpt lat="43.48018343240259" lon="10.693888595409405"><ele>107.0</ele><time>2026-04-19T11:03:58.001Z</time></trkpt><trkpt lat="43.48005306767372" lon="10.693984384196824"><ele>107.0</ele><time>2026-04-19T11:03:59.001Z</time></trkpt><trkpt lat="43.479931082455195" lon="10.694119902230804"><ele>107.0</ele><time>2026-04-19T11:04:00.001Z</time></trkpt><trkpt lat="43.479809891225095" lon="10.694275756417733"><ele>107.0</ele><time>2026-04-19T11:04:01.001Z</time></trkpt><trkpt lat="43.47968689715778" lon="10.694436953573476"><ele>105.66666666666666</ele><time>2026-04-19T11:04:02.001Z</time></trkpt><trkpt lat="43.47957249213766" lon="10.69460677051737"><ele>104.33333333333334</ele><time>2026-04-19T11:04:03.001Z</time></trkpt><trkpt lat="43.479463459827755" lon="10.694792243841327"><ele>103.0</ele><time>2026-04-19T11:04:04.001Z</time></trkpt><trkpt lat="43.47935889273592" lon="10.694990579506781"><ele>103.0</ele><time>2026-04-19T11:04:05.001Z</time></trkpt><trkpt lat="43.47926618548651" lon="10.69520581370753"><ele>103.0</ele><time>2026-04-19T11:04:06.001Z</time></trkpt><trkpt lat="43.4791821385436" lon="10.695421246144083"><ele>103.0</ele><time>2026-04-19T11:04:07.001Z</time></trkpt><trkpt lat="43.47910884570339" lon="10.695644292362392"><ele>103.33333333333334</ele><time>2026-04-19T11:04:08.001Z</time></trkpt><trkpt lat="43.479038838083724" lon="10.69588618541175"><ele>103.66666666666666</ele><time>2026-04-19T11:04:09.001Z</time></trkpt><trkpt lat="43.47898118715365" lon="10.696151231549782"><ele>104.0</ele><time>2026-04-19T11:04:10.001Z</time></trkpt><trkpt lat="43.47893552257285" lon="10.696395794001445"><ele>104.0</ele><time>2026-04-19T11:04:11.001Z</time></trkpt><trkpt lat="43.47890269987077" lon="10.696616119514248"><ele>104.0</ele><time>2026-04-19T11:04:12.001Z</time></trkpt><trkpt lat="43.47886920092142" lon="10.696816047884345"><ele>104.0</ele><time>2026-04-19T11:04:13.001Z</time></trkpt><trkpt lat="43.4788295601008" lon="10.696994363709592"><ele>104.0</ele><time>2026-04-19T11:04:14.001Z</time></trkpt><trkpt lat="43.478789065612716" lon="10.697154367701149"><ele>102.5</ele><time>2026-04-19T11:04:15.001Z</time></trkpt><trkpt lat="43.47872807650585" lon="10.697302690147529"><ele>101.0</ele><time>2026-04-19T11:04:16.001Z</time></trkpt><trkpt lat="43.47863710006557" lon="10.69744481093193"><ele>99.5</ele><time>2026-04-19T11:04:17.001Z</time></trkpt><trkpt lat="43.47852294824521" lon="10.697557223378675"><ele>98.0</ele><time>2026-04-19T11:04:18.001Z</time></trkpt><trkpt lat="43.47840808336863" lon="10.697647183348154"><ele>98.0</ele><time>2026-04-19T11:04:19.001Z</time></trkpt><trkpt lat="43.4782946741406" lon="10.697730563399146"><ele>98.0</ele><time>2026-04-19T11:04:20.001Z</time></trkpt><trkpt lat="43.47818517447838" lon="10.697811629812993"><ele>98.0</ele><time>2026-04-19T11:04:21.001Z</time></trkpt><trkpt lat="43.47807747242847" lon="10.697886875310196"><ele>98.0</ele><time>2026-04-19T11:04:22.001Z</time></trkpt><trkpt lat="43.47797283432276" lon="10.697961864714879"><ele>97.60000000000001</ele><time>2026-04-19T11:04:23.001Z</time></trkpt><trkpt lat="43.47787413490988" lon="10.698038909483799"><ele>97.2</ele><time>2026-04-19T11:04:24.001Z</time></trkpt><trkpt lat="43.47778374799235" lon="10.698117122127284"><ele>96.8</ele><time>2026-04-19T11:04:25.001Z</time></trkpt><trkpt lat="43.47770759342162" lon="10.698195681731237"><ele>96.4</ele><time>2026-04-19T11:04:26.001Z</time></trkpt><trkpt lat="43.47765028014994" lon="10.698271868130288"><ele>96.0</ele><time>2026-04-19T11:04:27.001Z</time></trkpt><trkpt lat="43.477604123173165" lon="10.698348484291591"><ele>96.0</ele><time>2026-04-19T11:04:28.001Z</time></trkpt><trkpt lat="43.4775605319713" lon="10.698433367072395"><ele>96.0</ele><time>2026-04-19T11:04:30.001Z</time></trkpt><trkpt lat="43.477501731106045" lon="10.698519570168402"><ele>96.0</ele><time>2026-04-19T11:04:33.001Z</time></trkpt><trkpt lat="43.47742352702529" lon="10.698407648511497"><ele>96.0</ele><time>2026-04-19T11:04:36.001Z</time></trkpt><trkpt lat="43.477357275563485" lon="10.698325065214037"><ele>96.0</ele><time>2026-04-19T11:04:39.001Z</time></trkpt><trkpt lat="43.477244020163546" lon="10.698406172955444"><ele>96.0</ele><time>2026-04-19T11:04:41.001Z</time></trkpt><trkpt lat="43.47714656719848" lon="10.698435959948077"><ele>96.0</ele><time>2026-04-19T11:04:43.001Z</time></trkpt><trkpt lat="43.47709064062424" lon="10.698485279154612"><ele>96.0</ele><time>2026-04-19T11:04:45.001Z</time></trkpt><trkpt lat="43.47703769589204" lon="10.698559244743606"><ele>96.0</ele><time>2026-04-19T11:04:49.001Z</time></trkpt><trkpt lat="43.47699285266078" lon="10.698634776753453"><ele>96.0</ele><time>2026-04-19T11:04:55.001Z</time></trkpt><trkpt lat="43.47695269219201" lon="10.698718146021616"><ele>96.0</ele><time>2026-04-19T11:05:22.002Z</time></trkpt><trkpt lat="43.47692320606444" lon="10.698824996158956"><ele>95.85714285714285</ele><time>2026-04-19T11:05:28.002Z</time></trkpt><trkpt lat="43.47691660662458" lon="10.698919973801885"><ele>95.71428571428571</ele><time>2026-04-19T11:05:31.002Z</time></trkpt><trkpt lat="43.47690669242342" lon="10.69900895893092"><ele>95.57142857142857</ele><time>2026-04-19T11:05:34.002Z</time></trkpt><trkpt lat="43.476892363751084" lon="10.699103606048283"><ele>95.42857142857142</ele><time>2026-04-19T11:05:37.002Z</time></trkpt><trkpt lat="43.476869616786935" lon="10.699197359341012"><ele>95.28571428571429</ele><time>2026-04-19T11:05:40.002Z</time></trkpt><trkpt lat="43.47687412392129" lon="10.699306009446282"><ele>95.14285714285714</ele><time>2026-04-19T11:05:42.002Z</time></trkpt><trkpt lat="43.47690264814244" lon="10.69939569568649"><ele>95.0</ele><time>2026-04-19T11:05:44.002Z</time></trkpt><trkpt lat="43.47691872473301" lon="10.699490504458078"><ele>95.0</ele><time>2026-04-19T11:05:46.002Z</time></trkpt><trkpt lat="43.47690947950753" lon="10.699595196276684"><ele>95.0</ele><time>2026-04-19T11:05:48.002Z</time></trkpt><trkpt lat="43.4768853439325" lon="10.699695525467666"><ele>95.0</ele><time>2026-04-19T11:05:50.002Z</time></trkpt><trkpt lat="43.47685449646657" lon="10.699824080219663"><ele>95.0</ele><time>2026-04-19T11:05:52.002Z</time></trkpt><trkpt lat="43.47683257514537" lon="10.699972737296731"><ele>95.0</ele><time>2026-04-19T11:05:54.002Z</time></trkpt><trkpt lat="43.4768259505467" lon="10.700065805646547"><ele>95.0</ele><time>2026-04-19T11:05:55.002Z</time></trkpt><trkpt lat="43.47681726577852" lon="10.700171371847363"><ele>95.2</ele><time>2026-04-19T11:05:56.002Z</time></trkpt><trkpt lat="43.47680215735856" lon="10.700283058178554"><ele>95.4</ele><time>2026-04-19T11:05:57Z</time></trkpt><trkpt lat="43.47678131725523" lon="10.700403053801331"><ele>95.6</ele><time>2026-04-19T11:05:58Z</time></trkpt><trkpt lat="43.47675001408029" lon="10.700535258812923"><ele>95.8</ele><time>2026-04-19T11:05:59Z</time></trkpt><trkpt lat="43.47669979490631" lon="10.700696065040702"><ele>96.0</ele><time>2026-04-19T11:06:00Z</time></trkpt><trkpt lat="43.47664730669414" lon="10.700862747808447"><ele>96.0</ele><time>2026-04-19T11:06:01Z</time></trkpt><trkpt lat="43.47659879510814" lon="10.701025134124833"><ele>96.0</ele><time>2026-04-19T11:06:02Z</time></trkpt><trkpt lat="43.47655391168953" lon="10.701179181520098"><ele>96.0</ele><time>2026-04-19T11:06:03Z</time></trkpt><trkpt lat="43.47650961922587" lon="10.701326585212374"><ele>96.0</ele><time>2026-04-19T11:06:04Z</time></trkpt><trkpt lat="43.476468143720965" lon="10.701469239388373"><ele>95.8</ele><time>2026-04-19T11:06:05Z</time></trkpt><trkpt lat="43.47642753580582" lon="10.70160801999167"><ele>95.6</ele><time>2026-04-19T11:06:06Z</time></trkpt><trkpt lat="43.47638918206242" lon="10.701739566154632"><ele>95.4</ele><time>2026-04-19T11:06:07Z</time></trkpt><trkpt lat="43.476350840393245" lon="10.701864714410126"><ele>95.2</ele><time>2026-04-19T11:06:08Z</time></trkpt><trkpt lat="43.47631462130127" lon="10.701985373938118"><ele>95.0</ele><time>2026-04-19T11:06:09Z</time></trkpt><trkpt lat="43.47627953397944" lon="10.702100458274199"><ele>95.0</ele><time>2026-04-19T11:06:10Z</time></trkpt><trkpt lat="43.47624477961261" lon="10.702214572137631"><ele>95.0</ele><time>2026-04-19T11:06:11Z</time></trkpt><trkpt lat="43.476212026528884" lon="10.702324607417747"><ele>95.0</ele><time>2026-04-19T11:06:12Z</time></trkpt><trkpt lat="43.47617831125847" lon="10.702429535469198"><ele>95.0</ele><time>2026-04-19T11:06:13Z</time></trkpt><trkpt lat="43.476148407147164" lon="10.702528659149559"><ele>95.0</ele><time>2026-04-19T11:06:14Z</time></trkpt><trkpt lat="43.476121223846626" lon="10.702613051445363"><ele>95.0</ele><time>2026-04-19T11:06:15Z</time></trkpt><trkpt lat="43.47607602724843" lon="10.702758710845494"><ele>95.0</ele><time>2026-04-19T11:06:17Z</time></trkpt><trkpt lat="43.47605035361313" lon="10.702844029257086"><ele>95.0</ele><time>2026-04-19T11:06:19Z</time></trkpt><trkpt lat="43.47599723426108" lon="10.703008630295749"><ele>95.0</ele><time>2026-04-19T11:06:46.001Z</time></trkpt><trkpt lat="43.475968828551416" lon="10.70311802677641"><ele>95.0</ele><time>2026-04-19T11:06:47.001Z</time></trkpt><trkpt lat="43.47592894688504" lon="10.70324925575656"><ele>95.0</ele><time>2026-04-19T11:06:48.001Z</time></trkpt><trkpt lat="43.47588328414254" lon="10.703401156261855"><ele>94.75</ele><time>2026-04-19T11:06:49.001Z</time></trkpt><trkpt lat="43.47582928694426" lon="10.703584876768733"><ele>94.5</ele><time>2026-04-19T11:06:50.001Z</time></trkpt><trkpt lat="43.47577403045569" lon="10.703770445033529"><ele>94.25</ele><time>2026-04-19T11:06:51.001Z</time></trkpt><trkpt lat="43.475710501539055" lon="10.703970430662942"><ele>94.0</ele><time>2026-04-19T11:06:52.001Z</time></trkpt><trkpt lat="43.475647960582165" lon="10.704188525506245"><ele>94.0</ele><time>2026-04-19T11:06:53.001Z</time></trkpt><trkpt lat="43.47558882646828" lon="10.704409795565262"><ele>94.0</ele><time>2026-04-19T11:06:54.001Z</time></trkpt><trkpt lat="43.475524970771744" lon="10.704633247324256"><ele>94.0</ele><time>2026-04-19T11:06:55.001Z</time></trkpt><trkpt lat="43.47546430013773" lon="10.704832137704308"><ele>94.5</ele><time>2026-04-19T11:06:56.001Z</time></trkpt><trkpt lat="43.475402486527756" lon="10.70500269796619"><ele>95.0</ele><time>2026-04-19T11:06:57.001Z</time></trkpt><trkpt lat="43.47532466278649" lon="10.705153340779871"><ele>95.5</ele><time>2026-04-19T11:06:58.001Z</time></trkpt><trkpt lat="43.47520909730723" lon="10.705263817099523"><ele>96.0</ele><time>2026-04-19T11:06:59.001Z</time></trkpt><trkpt lat="43.47508038974454" lon="10.705372472693893"><ele>96.0</ele><time>2026-04-19T11:07:00.001Z</time></trkpt><trkpt lat="43.474938550182806" lon="10.705506428330855"><ele>96.0</ele><time>2026-04-19T11:07:01.001Z</time></trkpt><trkpt lat="43.47479063871496" lon="10.705609020406007"><ele>96.0</ele><time>2026-04-19T11:07:02.001Z</time></trkpt><trkpt lat="43.474658039430054" lon="10.705704990352691"><ele>96.5</ele><time>2026-04-19T11:07:03.001Z</time></trkpt><trkpt lat="43.474539144679106" lon="10.705799652176163"><ele>97.0</ele><time>2026-04-19T11:07:04.001Z</time></trkpt><trkpt lat="43.47443478092081" lon="10.705911801312244"><ele>97.5</ele><time>2026-04-19T11:07:05.001Z</time></trkpt><trkpt lat="43.47434125688646" lon="10.706045603066709"><ele>98.0</ele><time>2026-04-19T11:07:06.001Z</time></trkpt><trkpt lat="43.47428308809369" lon="10.70622362106542"><ele>98.0</ele><time>2026-04-19T11:07:07.001Z</time></trkpt><trkpt lat="43.474249634821064" lon="10.706432603289445"><ele>98.0</ele><time>2026-04-19T11:07:08.001Z</time></trkpt><trkpt lat="43.474240830641364" lon="10.70666681969451"><ele>98.0</ele><time>2026-04-19T11:07:09.001Z</time></trkpt><trkpt lat="43.474225909904476" lon="10.706914927837573"><ele>98.5</ele><time>2026-04-19T11:07:10.001Z</time></trkpt><trkpt lat="43.474204387588024" lon="10.707170540796737"><ele>99.0</ele><time>2026-04-19T11:07:11.001Z</time></trkpt><trkpt lat="43.474191839432336" lon="10.707365608454833"><ele>99.5</ele><time>2026-04-19T11:07:12.001Z</time></trkpt><trkpt lat="43.474183428604746" lon="10.707527880449776"><ele>100.0</ele><time>2026-04-19T11:07:13.001Z</time></trkpt><trkpt lat="43.474189502433276" lon="10.707669680528063"><ele>101.4</ele><time>2026-04-19T11:07:14.001Z</time></trkpt><trkpt lat="43.47422685081999" lon="10.707799871138265"><ele>102.8</ele><time>2026-04-19T11:07:15.001Z</time></trkpt><trkpt lat="43.474289989752464" lon="10.707903168856332"><ele>104.19999999999999</ele><time>2026-04-19T11:07:16.001Z</time></trkpt><trkpt lat="43.47436365431801" lon="10.707989932632236"><ele>105.6</ele><time>2026-04-19T11:07:17.001Z</time></trkpt><trkpt lat="43.47445687879009" lon="10.708039592391279"><ele>107.0</ele><time>2026-04-19T11:07:18.001Z</time></trkpt><trkpt lat="43.47456366813753" lon="10.708052371186893"><ele>108.0</ele><time>2026-04-19T11:07:19.001Z</time></trkpt><trkpt lat="43.474664591440465" lon="10.70800805320316"><ele>108.99999999999999</ele><time>2026-04-19T11:07:20.001Z</time></trkpt><trkpt lat="43.47475715517212" lon="10.707946738325615"><ele>109.99999999999999</ele><time>2026-04-19T11:07:21.001Z</time></trkpt><trkpt lat="43.474840740342486" lon="10.707857543866"><ele>111.0</ele><time>2026-04-19T11:07:22.001Z</time></trkpt><trkpt lat="43.4749169702989" lon="10.707786698771244"><ele>112.0</ele><time>2026-04-19T11:07:23.001Z</time></trkpt><trkpt lat="43.47499706233214" lon="10.70772576925536"><ele>112.19999999999999</ele><time>2026-04-19T11:07:24.001Z</time></trkpt><trkpt lat="43.47509812723847" lon="10.707739331989693"><ele>112.39999999999999</ele><time>2026-04-19T11:07:25.001Z</time></trkpt><trkpt lat="43.47520518947828" lon="10.707715519433677"><ele>112.60000000000001</ele><time>2026-04-19T11:07:26.001Z</time></trkpt><trkpt lat="43.4753187649748" lon="10.707714794549759"><ele>112.80000000000001</ele><time>2026-04-19T11:07:27.001Z</time></trkpt><trkpt lat="43.47542260272653" lon="10.707733716981481"><ele>113.0</ele><time>2026-04-19T11:07:28.001Z</time></trkpt><trkpt lat="43.47553394685353" lon="10.70776021236852"><ele>113.0</ele><time>2026-04-19T11:07:29.001Z</time></trkpt><trkpt lat="43.4756442223542" lon="10.707804911888624"><ele>113.00000000000001</ele><time>2026-04-19T11:07:30.001Z</time></trkpt><trkpt lat="43.47574144109423" lon="10.707871236897867"><ele>113.00000000000001</ele><time>2026-04-19T11:07:31.001Z</time></trkpt><trkpt lat="43.475829963973965" lon="10.70795762436875"><ele>113.0</ele><time>2026-04-19T11:07:32.001Z</time></trkpt><trkpt lat="43.47591041116387" lon="10.708070740867909"><ele>113.0</ele><time>2026-04-19T11:07:33.001Z</time></trkpt><trkpt lat="43.475990566357794" lon="10.708208191683372"><ele>113.0</ele><time>2026-04-19T11:07:34.001Z</time></trkpt><trkpt lat="43.47606847097934" lon="10.708364135905674"><ele>113.0</ele><time>2026-04-19T11:07:35.001Z</time></trkpt><trkpt lat="43.476132592401775" lon="10.708525315611638"><ele>113.0</ele><time>2026-04-19T11:07:36.001Z</time></trkpt><trkpt lat="43.47616138652796" lon="10.708670632153677"><ele>113.0</ele><time>2026-04-19T11:07:37.002Z</time></trkpt><trkpt lat="43.47616275285833" lon="10.708821373671656"><ele>114.75</ele><time>2026-04-19T11:07:38.002Z</time></trkpt><trkpt lat="43.47614368111775" lon="10.70896759779581"><ele>116.5</ele><time>2026-04-19T11:07:39.002Z</time></trkpt><trkpt lat="43.476095811204985" lon="10.709102747266833"><ele>118.25</ele><time>2026-04-19T11:07:40.002Z</time></trkpt><trkpt lat="43.47605010281058" lon="10.709252438615342"><ele>120.0</ele><time>2026-04-19T11:07:41.002Z</time></trkpt><trkpt lat="43.476003003592325" lon="10.709418677664337"><ele>120.0</ele><time>2026-04-19T11:07:42.002Z</time></trkpt><trkpt lat="43.475960436759145" lon="10.70957269674039"><ele>120.0</ele><time>2026-04-19T11:07:43.002Z</time></trkpt><trkpt lat="43.47591069969467" lon="10.709698565654016"><ele>120.0</ele><time>2026-04-19T11:07:44.002Z</time></trkpt><trkpt lat="43.47585693649398" lon="10.709792742873333"><ele>120.0</ele><time>2026-04-19T11:07:45.002Z</time></trkpt><trkpt lat="43.47580670440548" lon="10.709871720077372"><ele>120.0</ele><time>2026-04-19T11:07:46.002Z</time></trkpt><trkpt lat="43.47575569078185" lon="10.70995705522518"><ele>120.0</ele><time>2026-04-19T11:07:47.002Z</time></trkpt><trkpt lat="43.47569221131397" lon="10.710033495860541"><ele>120.0</ele><time>2026-04-19T11:07:48.002Z</time></trkpt><trkpt lat="43.47562567473724" lon="10.710105924335293"><ele>120.0</ele><time>2026-04-19T11:07:49.002Z</time></trkpt><trkpt lat="43.475557019802906" lon="10.710175385485618"><ele>120.0</ele><time>2026-04-19T11:07:50.002Z</time></trkpt><trkpt lat="43.475489163125694" lon="10.71024671486399"><ele>120.0</ele><time>2026-04-19T11:07:51.002Z</time></trkpt><trkpt lat="43.4754218817085" lon="10.710320672057676"><ele>120.0</ele><time>2026-04-19T11:07:52.002Z</time></trkpt><trkpt lat="43.47535917908582" lon="10.710405537463423"><ele>122.2</ele><time>2026-04-19T11:07:53.002Z</time></trkpt><trkpt lat="43.475301626087834" lon="10.710497699755098"><ele>124.4</ele><time>2026-04-19T11:07:54.002Z</time></trkpt><trkpt lat="43.47525498654166" lon="10.710602868550094"><ele>126.6</ele><time>2026-04-19T11:07:55.002Z</time></trkpt><trkpt lat="43.47521648447598" lon="10.710715249945864"><ele>128.8</ele><time>2026-04-19T11:07:56.002Z</time></trkpt><trkpt lat="43.47517876880568" lon="10.710829529578554"><ele>131.0</ele><time>2026-04-19T11:07:57.002Z</time></trkpt><trkpt lat="43.47514309421379" lon="10.710945078067533"><ele>131.0</ele><time>2026-04-19T11:07:58.002Z</time></trkpt><trkpt lat="43.47510905025466" lon="10.71105855528157"><ele>131.0</ele><time>2026-04-19T11:07:59.002Z</time></trkpt><trkpt lat="43.475075394630274" lon="10.711168390374498"><ele>131.0</ele><time>2026-04-19T11:08:00.002Z</time></trkpt><trkpt lat="43.47504176595752" lon="10.711276555451617"><ele>131.0</ele><time>2026-04-19T11:08:01.002Z</time></trkpt><trkpt lat="43.47500884588672" lon="10.711383474367235"><ele>131.0</ele><time>2026-04-19T11:08:02.002Z</time></trkpt><trkpt lat="43.47497563206385" lon="10.711488984073187"><ele>131.0</ele><time>2026-04-19T11:08:03Z</time></trkpt><trkpt lat="43.474944219972485" lon="10.711591434715997"><ele>131.0</ele><time>2026-04-19T11:08:04Z</time></trkpt><trkpt lat="43.474911655026105" lon="10.711691378510976"><ele>131.0</ele><time>2026-04-19T11:08:05Z</time></trkpt><trkpt lat="43.474876113432146" lon="10.71178713491995"><ele>131.0</ele><time>2026-04-19T11:08:06Z</time></trkpt><trkpt lat="43.47483478621473" lon="10.71187782641336"><ele>131.0</ele><time>2026-04-19T11:08:07Z</time></trkpt><trkpt lat="43.474781939294786" lon="10.711956649971818"><ele>131.0</ele><time>2026-04-19T11:08:08Z</time></trkpt><trkpt lat="43.474714592921714" lon="10.71200847960948"><ele>131.0</ele><time>2026-04-19T11:08:09Z</time></trkpt><trkpt lat="43.47463678593506" lon="10.71203946888236"><ele>132.16666666666666</ele><time>2026-04-19T11:08:10Z</time></trkpt><trkpt lat="43.47455577592824" lon="10.712022635052525"><ele>133.33333333333331</ele><time>2026-04-19T11:08:11Z</time></trkpt><trkpt lat="43.47447210472107" lon="10.712022635054625"><ele>134.5</ele><time>2026-04-19T11:08:12Z</time></trkpt><trkpt lat="43.47438846880285" lon="10.712022635056343"><ele>135.66666666666666</ele><time>2026-04-19T11:08:13Z</time></trkpt><trkpt lat="43.474302590679684" lon="10.71202263505749"><ele>136.83333333333334</ele><time>2026-04-19T11:08:14Z</time></trkpt><trkpt lat="43.47421404468283" lon="10.712023618071143"><ele>138.0</ele><time>2026-04-19T11:08:15Z</time></trkpt><trkpt lat="43.47413256435114" lon="10.712027347310702"><ele>138.0</ele><time>2026-04-19T11:08:16Z</time></trkpt><trkpt lat="43.47405883508929" lon="10.712055708005009"><ele>138.0</ele><time>2026-04-19T11:08:17Z</time></trkpt><trkpt lat="43.47398832425478" lon="10.712073674429199"><ele>138.0</ele><time>2026-04-19T11:08:18Z</time></trkpt><trkpt lat="43.47391814606812" lon="10.71212061995661"><ele>138.0</ele><time>2026-04-19T11:08:19Z</time></trkpt><trkpt lat="43.47385224335529" lon="10.712194666156172"><ele>138.0</ele><time>2026-04-19T11:08:20Z</time></trkpt><trkpt lat="43.47379987719986" lon="10.712300328528633"><ele>138.0</ele><time>2026-04-19T11:08:21Z</time></trkpt><trkpt lat="43.473768719253826" lon="10.71243133379591"><ele>136.4</ele><time>2026-04-19T11:08:22Z</time></trkpt><trkpt lat="43.47376436765599" lon="10.712573542834265"><ele>134.8</ele><time>2026-04-19T11:08:23Z</time></trkpt><trkpt lat="43.473760896635596" lon="10.712700313512025"><ele>133.2</ele><time>2026-04-19T11:08:24Z</time></trkpt><trkpt lat="43.47375774119365" lon="10.712821669171802"><ele>131.6</ele><time>2026-04-19T11:08:25Z</time></trkpt><trkpt lat="43.47375477764087" lon="10.71293891918183"><ele>130.0</ele><time>2026-04-19T11:08:26Z</time></trkpt><trkpt lat="43.473749087695374" lon="10.713051583068065"><ele>129.71428571428572</ele><time>2026-04-19T11:08:27Z</time></trkpt><trkpt lat="43.47374515316141" lon="10.71315974745038"><ele>129.42857142857144</ele><time>2026-04-19T11:08:28Z</time></trkpt><trkpt lat="43.4737415623913" lon="10.713259684658937"><ele>129.14285714285714</ele><time>2026-04-19T11:08:29Z</time></trkpt><trkpt lat="43.47373707849952" lon="10.713354376989637"><ele>128.85714285714286</ele><time>2026-04-19T11:08:30Z</time></trkpt><trkpt lat="43.473731595789495" lon="10.713443427771079"><ele>128.57142857142856</ele><time>2026-04-19T11:08:31Z</time></trkpt><trkpt lat="43.473728519784466" lon="10.713532418850978"><ele>128.28571428571428</ele><time>2026-04-19T11:08:32Z</time></trkpt><trkpt lat="43.47372347927205" lon="10.7136252298816"><ele>128.0</ele><time>2026-04-19T11:08:33.001Z</time></trkpt><trkpt lat="43.47371581516018" lon="10.713719959553753"><ele>127.83333333333333</ele><time>2026-04-19T11:08:34.001Z</time></trkpt><trkpt lat="43.4737091659387" lon="10.713816268593607"><ele>127.66666666666666</ele><time>2026-04-19T11:08:35.001Z</time></trkpt><trkpt lat="43.47370322453455" lon="10.713906535679298"><ele>127.5</ele><time>2026-04-19T11:08:36.001Z</time></trkpt><trkpt lat="43.47369768062576" lon="10.713994289305417"><ele>127.33333333333334</ele><time>2026-04-19T11:08:37.001Z</time></trkpt><trkpt lat="43.47369426876558" lon="10.714161689869634"><ele>127.16666666666667</ele><time>2026-04-19T11:08:39.001Z</time></trkpt><trkpt lat="43.473714033266134" lon="10.714329841537678"><ele>127.0</ele><time>2026-04-19T11:08:41.001Z</time></trkpt><trkpt lat="43.47372980148498" lon="10.714417520743888"><ele>126.85714285714286</ele><time>2026-04-19T11:08:42.001Z</time></trkpt><trkpt lat="43.47375257524265" lon="10.714506556711576"><ele>126.71428571428571</ele><time>2026-04-19T11:08:43.001Z</time></trkpt><trkpt lat="43.47378098107308" lon="10.714596230647357"><ele>126.57142857142857</ele><time>2026-04-19T11:08:44.001Z</time></trkpt><trkpt lat="43.47381349716868" lon="10.714687241345752"><ele>126.42857142857143</ele><time>2026-04-19T11:08:45.001Z</time></trkpt><trkpt lat="43.47385094633751" lon="10.714778080866664"><ele>126.28571428571428</ele><time>2026-04-19T11:08:46.001Z</time></trkpt><trkpt lat="43.473891114436356" lon="10.714868548619517"><ele>126.14285714285714</ele><time>2026-04-19T11:08:47.001Z</time></trkpt><trkpt lat="43.47392634611768" lon="10.71495985263985"><ele>126.0</ele><time>2026-04-19T11:08:48.001Z</time></trkpt><trkpt lat="43.473956500454634" lon="10.715052558187535"><ele>128.0</ele><time>2026-04-19T11:08:49.001Z</time></trkpt><trkpt lat="43.4739834154043" lon="10.715146254547516"><ele>130.0</ele><time>2026-04-19T11:08:50.001Z</time></trkpt><trkpt lat="43.474009687833394" lon="10.715242042013191"><ele>132.0</ele><time>2026-04-19T11:08:51.001Z</time></trkpt><trkpt lat="43.474030844311706" lon="10.715340955888662"><ele>134.0</ele><time>2026-04-19T11:08:52.001Z</time></trkpt><trkpt lat="43.47404676234047" lon="10.71544392910777"><ele>136.0</ele><time>2026-04-19T11:08:53.001Z</time></trkpt><trkpt lat="43.47405748058838" lon="10.715548227176217"><ele>138.0</ele><time>2026-04-19T11:08:54.001Z</time></trkpt><trkpt lat="43.474058364197816" lon="10.715654956672479"><ele>138.0</ele><time>2026-04-19T11:08:55.001Z</time></trkpt><trkpt lat="43.474054056470045" lon="10.71576063109468"><ele>138.0</ele><time>2026-04-19T11:08:56.001Z</time></trkpt><trkpt lat="43.4740448577186" lon="10.71586721996566"><ele>138.0</ele><time>2026-04-19T11:08:57.001Z</time></trkpt><trkpt lat="43.474030668933956" lon="10.715976145488124"><ele>138.0</ele><time>2026-04-19T11:08:58.001Z</time></trkpt><trkpt lat="43.474011030381284" lon="10.716084690558494"><ele>138.0</ele><time>2026-04-19T11:08:59.001Z</time></trkpt><trkpt lat="43.473987290313545" lon="10.716192842323236"><ele>138.0</ele><time>2026-04-19T11:09:00.001Z</time></trkpt><trkpt lat="43.47395414055639" lon="10.716300891989178"><ele>137.6</ele><time>2026-04-19T11:09:01.001Z</time></trkpt><trkpt lat="43.473913541164" lon="10.716408565197192"><ele>137.20000000000002</ele><time>2026-04-19T11:09:02.001Z</time></trkpt><trkpt lat="43.473862442231436" lon="10.71651896645878"><ele>136.8</ele><time>2026-04-19T11:09:03.001Z</time></trkpt><trkpt lat="43.47380006910216" lon="10.71662815288061"><ele>136.4</ele><time>2026-04-19T11:09:04.001Z</time></trkpt><trkpt lat="43.47373527423687" lon="10.716731715878035"><ele>136.0</ele><time>2026-04-19T11:09:05.001Z</time></trkpt><trkpt lat="43.473665396704675" lon="10.716830699062454"><ele>136.8</ele><time>2026-04-19T11:09:06.001Z</time></trkpt><trkpt lat="43.47359350388263" lon="10.71692460313311"><ele>137.6</ele><time>2026-04-19T11:09:07.001Z</time></trkpt><trkpt lat="43.47352540960695" lon="10.71702622669245"><ele>138.4</ele><time>2026-04-19T11:09:08.001Z</time></trkpt><trkpt lat="43.47346051971406" lon="10.717130472106234"><ele>139.2</ele><time>2026-04-19T11:09:09.001Z</time></trkpt><trkpt lat="43.4733905951232" lon="10.717232645646677"><ele>140.0</ele><time>2026-04-19T11:09:10.001Z</time></trkpt><trkpt lat="43.4733166360048" lon="10.717334570548248"><ele>140.0</ele><time>2026-04-19T11:09:11.001Z</time></trkpt><trkpt lat="43.47324098362312" lon="10.717440017433201"><ele>140.0</ele><time>2026-04-19T11:09:12.001Z</time></trkpt><trkpt lat="43.47316452555052" lon="10.71754492351372"><ele>140.0</ele><time>2026-04-19T11:09:13.001Z</time></trkpt><trkpt lat="43.473088254815" lon="10.717649518205025"><ele>140.0</ele><time>2026-04-19T11:09:14.001Z</time></trkpt><trkpt lat="43.47301250677835" lon="10.71774933444095"><ele>140.0</ele><time>2026-04-19T11:09:15.001Z</time></trkpt><trkpt lat="43.472939681198646" lon="10.717846133493495"><ele>140.4</ele><time>2026-04-19T11:09:16.001Z</time></trkpt><trkpt lat="43.47286394899198" lon="10.717946102531515"><ele>140.8</ele><time>2026-04-19T11:09:17.001Z</time></trkpt><trkpt lat="43.47278854560633" lon="10.718047976271729"><ele>141.2</ele><time>2026-04-19T11:09:18.001Z</time></trkpt><trkpt lat="43.472713354531464" lon="10.71815461404552"><ele>141.6</ele><time>2026-04-19T11:09:19.001Z</time></trkpt><trkpt lat="43.47263810648697" lon="10.718263526791489"><ele>142.0</ele><time>2026-04-19T11:09:20.001Z</time></trkpt><trkpt lat="43.47256235031856" lon="10.718372044967676"><ele>142.0</ele><time>2026-04-19T11:09:21.001Z</time></trkpt><trkpt lat="43.47248355497728" lon="10.71848071948833"><ele>142.0</ele><time>2026-04-19T11:09:22.001Z</time></trkpt><trkpt lat="43.47240312890882" lon="10.718586529547116"><ele>142.0</ele><time>2026-04-19T11:09:23.001Z</time></trkpt><trkpt lat="43.47232074270956" lon="10.718693186314852"><ele>142.0</ele><time>2026-04-19T11:09:24.001Z</time></trkpt><trkpt lat="43.47223857626574" lon="10.718803359358436"><ele>141.25</ele><time>2026-04-19T11:09:25.001Z</time></trkpt><trkpt lat="43.472155628629025" lon="10.718916014977083"><ele>140.5</ele><time>2026-04-19T11:09:26.001Z</time></trkpt><trkpt lat="43.47207170851565" lon="10.719031690443579"><ele>139.75</ele><time>2026-04-19T11:09:27.001Z</time></trkpt><trkpt lat="43.471986981132865" lon="10.71915116524797"><ele>139.0</ele><time>2026-04-19T11:09:28.001Z</time></trkpt><trkpt lat="43.4718985501921" lon="10.719274255228855"><ele>140.5</ele><time>2026-04-19T11:09:29.001Z</time></trkpt><trkpt lat="43.471806428987314" lon="10.719400230126164"><ele>142.0</ele><time>2026-04-19T11:09:30.001Z</time></trkpt><trkpt lat="43.47171428582411" lon="10.719524183018411"><ele>143.5</ele><time>2026-04-19T11:09:31.001Z</time></trkpt><trkpt lat="43.471623751613215" lon="10.719645157948838"><ele>145.0</ele><time>2026-04-19T11:09:32.001Z</time></trkpt><trkpt lat="43.471532457379915" lon="10.71977019174167"><ele>145.0</ele><time>2026-04-19T11:09:33.001Z</time></trkpt><trkpt lat="43.471439658592935" lon="10.719897366650958"><ele>145.0</ele><time>2026-04-19T11:09:34.001Z</time></trkpt><trkpt lat="43.47134526373557" lon="10.720025350550968"><ele>145.0</ele><time>2026-04-19T11:09:35.001Z</time></trkpt><trkpt lat="43.47125073326307" lon="10.720158516973546"><ele>145.0</ele><time>2026-04-19T11:09:36.001Z</time></trkpt><trkpt lat="43.47115560749284" lon="10.720291779882277"><ele>146.0</ele><time>2026-04-19T11:09:37.001Z</time></trkpt><trkpt lat="43.47105654200649" lon="10.720418590545679"><ele>147.0</ele><time>2026-04-19T11:09:38.001Z</time></trkpt><trkpt lat="43.47096171859465" lon="10.720548706232814"><ele>148.0</ele><time>2026-04-19T11:09:39.001Z</time></trkpt><trkpt lat="43.47087110374039" lon="10.720682857987994"><ele>149.0</ele><time>2026-04-19T11:09:40.001Z</time></trkpt><trkpt lat="43.4707799679051" lon="10.720817327110412"><ele>149.0</ele><time>2026-04-19T11:09:41.001Z</time></trkpt><trkpt lat="43.47068648134231" lon="10.720950582151668"><ele>149.0</ele><time>2026-04-19T11:09:42.001Z</time></trkpt><trkpt lat="43.47059017255178" lon="10.721078175509035"><ele>149.0</ele><time>2026-04-19T11:09:43.001Z</time></trkpt><trkpt lat="43.47049466567438" lon="10.721202382086608"><ele>149.0</ele><time>2026-04-19T11:09:44.001Z</time></trkpt><trkpt lat="43.470400133939286" lon="10.721323488880538"><ele>151.25</ele><time>2026-04-19T11:09:45.002Z</time></trkpt><trkpt lat="43.470308661863065" lon="10.721441218843811"><ele>153.5</ele><time>2026-04-19T11:09:46.002Z</time></trkpt><trkpt lat="43.47023718728002" lon="10.721571849627292"><ele>155.75</ele><time>2026-04-19T11:09:47.002Z</time></trkpt><trkpt lat="43.47019074983775" lon="10.721712758966195"><ele>158.0</ele><time>2026-04-19T11:09:48.002Z</time></trkpt><trkpt lat="43.47017259890264" lon="10.721861474790533"><ele>159.60000000000002</ele><time>2026-04-19T11:09:49.002Z</time></trkpt><trkpt lat="43.4702049953231" lon="10.721985807230674"><ele>161.20000000000002</ele><time>2026-04-19T11:09:50.002Z</time></trkpt><trkpt lat="43.470258391051665" lon="10.722097853597965"><ele>162.8</ele><time>2026-04-19T11:09:51.002Z</time></trkpt><trkpt lat="43.47031234242907" lon="10.722205993154853"><ele>164.4</ele><time>2026-04-19T11:09:52.002Z</time></trkpt><trkpt lat="43.47036432243656" lon="10.722317190794062"><ele>166.0</ele><time>2026-04-19T11:09:53.002Z</time></trkpt><trkpt lat="43.47040359034572" lon="10.72243799921223"><ele>166.0</ele><time>2026-04-19T11:09:54.002Z</time></trkpt><trkpt lat="43.47041406991418" lon="10.722566616244917"><ele>166.0</ele><time>2026-04-19T11:09:55.002Z</time></trkpt><trkpt lat="43.47039748199281" lon="10.722695508047872"><ele>166.0</ele><time>2026-04-19T11:09:56.002Z</time></trkpt><trkpt lat="43.470361291165474" lon="10.722817583233299"><ele>166.0</ele><time>2026-04-19T11:09:57.002Z</time></trkpt><trkpt lat="43.470321264500356" lon="10.722933917331877"><ele>166.0</ele><time>2026-04-19T11:09:58.002Z</time></trkpt><trkpt lat="43.47027215713283" lon="10.72304360230068"><ele>166.8</ele><time>2026-04-19T11:09:59.002Z</time></trkpt><trkpt lat="43.470216751686316" lon="10.723145440031738"><ele>167.60000000000002</ele><time>2026-04-19T11:10:00.002Z</time></trkpt><trkpt lat="43.47017141885338" lon="10.723256188716844"><ele>168.4</ele><time>2026-04-19T11:10:01.002Z</time></trkpt><trkpt lat="43.470125793401756" lon="10.72336710139336"><ele>169.2</ele><time>2026-04-19T11:10:02.002Z</time></trkpt><trkpt lat="43.47008134108288" lon="10.723476454843572"><ele>170.0</ele><time>2026-04-19T11:10:03.002Z</time></trkpt><trkpt lat="43.4700366306426" lon="10.72358732011293"><ele>170.0</ele><time>2026-04-19T11:10:04.002Z</time></trkpt><trkpt lat="43.46999052923343" lon="10.723696931034757"><ele>170.0</ele><time>2026-04-19T11:10:05.002Z</time></trkpt><trkpt lat="43.46994144031317" lon="10.723803599068459"><ele>170.0</ele><time>2026-04-19T11:10:06.002Z</time></trkpt><trkpt lat="43.46989304192626" lon="10.723903894770158"><ele>170.0</ele><time>2026-04-19T11:10:07.002Z</time></trkpt><trkpt lat="43.46985442710533" lon="10.723989997089113"><ele>170.0</ele><time>2026-04-19T11:10:08.002Z</time></trkpt><trkpt lat="43.469807254248906" lon="10.724089730293402"><ele>170.0</ele><time>2026-04-19T11:10:10.001Z</time></trkpt><trkpt lat="43.46973764265208" lon="10.723973177817763"><ele>170.0</ele><time>2026-04-19T11:10:16.001Z</time></trkpt><trkpt lat="43.46972873494092" lon="10.723810622847873"><ele>170.0</ele><time>2026-04-19T11:10:18.001Z</time></trkpt><trkpt lat="43.46972521376742" lon="10.723697283832955"><ele>170.0</ele><time>2026-04-19T11:10:19.001Z</time></trkpt><trkpt lat="43.46972133573035" lon="10.723572457958078"><ele>170.0</ele><time>2026-04-19T11:10:20.001Z</time></trkpt><trkpt lat="43.46971732513404" lon="10.723443365418111"><ele>170.0</ele><time>2026-04-19T11:10:21.001Z</time></trkpt><trkpt lat="43.46971351297431" lon="10.723320660045408"><ele>170.33333333333331</ele><time>2026-04-19T11:10:22.001Z</time></trkpt><trkpt lat="43.46971133208591" lon="10.723205592712821"><ele>170.66666666666666</ele><time>2026-04-19T11:10:23.001Z</time></trkpt><trkpt lat="43.46971134407637" lon="10.72309474218737"><ele>171.0</ele><time>2026-04-19T11:10:24.001Z</time></trkpt><trkpt lat="43.469712456517044" lon="10.722988782204835"><ele>171.33333333333334</ele><time>2026-04-19T11:10:25.001Z</time></trkpt><trkpt lat="43.46970928677894" lon="10.722885026482947"><ele>171.66666666666669</ele><time>2026-04-19T11:10:26.001Z</time></trkpt><trkpt lat="43.4697011495348" lon="10.722779271699602"><ele>172.0</ele><time>2026-04-19T11:10:27.001Z</time></trkpt><trkpt lat="43.469682539028724" lon="10.72267094764028"><ele>172.33333333333334</ele><time>2026-04-19T11:10:28.001Z</time></trkpt><trkpt lat="43.46965151046324" lon="10.722563553175466"><ele>172.66666666666669</ele><time>2026-04-19T11:10:29.001Z</time></trkpt><trkpt lat="43.469603670292706" lon="10.72246544612649"><ele>173.0</ele><time>2026-04-19T11:10:30.001Z</time></trkpt><trkpt lat="43.469541632261375" lon="10.72238257413434"><ele>173.33333333333334</ele><time>2026-04-19T11:10:31.001Z</time></trkpt><trkpt lat="43.469478889450635" lon="10.722313370904612"><ele>173.66666666666666</ele><time>2026-04-19T11:10:32.001Z</time></trkpt><trkpt lat="43.46940208206357" lon="10.722275828123106"><ele>174.0</ele><time>2026-04-19T11:10:33.001Z</time></trkpt><trkpt lat="43.469331637696705" lon="10.722232460011195"><ele>174.0</ele><time>2026-04-19T11:10:34.001Z</time></trkpt><trkpt lat="43.469259756688594" lon="10.722208993540981"><ele>174.0</ele><time>2026-04-19T11:10:35.001Z</time></trkpt><trkpt lat="43.46918048291356" lon="10.722200149759887"><ele>174.0</ele><time>2026-04-19T11:10:36.001Z</time></trkpt><trkpt lat="43.469092461637395" lon="10.722204619156452"><ele>174.0</ele><time>2026-04-19T11:10:37.001Z</time></trkpt><trkpt lat="43.468998760640595" lon="10.722207245301277"><ele>174.0</ele><time>2026-04-19T11:10:38.001Z</time></trkpt><trkpt lat="43.46889735935658" lon="10.722196821940228"><ele>174.0</ele><time>2026-04-19T11:10:39.001Z</time></trkpt><trkpt lat="43.46879048657267" lon="10.722172666288863"><ele>172.0</ele><time>2026-04-19T11:10:40.001Z</time></trkpt><trkpt lat="43.46868084515453" lon="10.722131340597599"><ele>170.0</ele><time>2026-04-19T11:10:41.001Z</time></trkpt><trkpt lat="43.46857938820543" lon="10.722051705650882"><ele>168.0</ele><time>2026-04-19T11:10:42.001Z</time></trkpt><trkpt lat="43.468469550491854" lon="10.721985250423833"><ele>166.0</ele><time>2026-04-19T11:10:43.001Z</time></trkpt><trkpt lat="43.468355299195665" lon="10.721914917130466"><ele>166.0</ele><time>2026-04-19T11:10:44.001Z</time></trkpt><trkpt lat="43.468236017780335" lon="10.721860483880352"><ele>166.0</ele><time>2026-04-19T11:10:45.001Z</time></trkpt><trkpt lat="43.46812432535537" lon="10.721792752535617"><ele>166.0</ele><time>2026-04-19T11:10:46.001Z</time></trkpt><trkpt lat="43.46801921802443" lon="10.721719104995655"><ele>166.0</ele><time>2026-04-19T11:10:47.001Z</time></trkpt><trkpt lat="43.4679261973378" lon="10.72162891832918"><ele>166.0</ele><time>2026-04-19T11:10:48.001Z</time></trkpt><trkpt lat="43.467829894530375" lon="10.721560525768872"><ele>166.0</ele><time>2026-04-19T11:10:49.001Z</time></trkpt><trkpt lat="43.467738223438936" lon="10.721495422376961"><ele>166.0</ele><time>2026-04-19T11:10:50.001Z</time></trkpt><trkpt lat="43.46764974738843" lon="10.721431684025902"><ele>166.0</ele><time>2026-04-19T11:10:51.001Z</time></trkpt><trkpt lat="43.46755585534129" lon="10.721397848747754"><ele>166.0</ele><time>2026-04-19T11:10:52.001Z</time></trkpt><trkpt lat="43.46747411243016" lon="10.721341945558862"><ele>166.0</ele><time>2026-04-19T11:10:53.001Z</time></trkpt><trkpt lat="43.467393140298846" lon="10.721319985266211"><ele>166.0</ele><time>2026-04-19T11:10:54.001Z</time></trkpt><trkpt lat="43.46733163135074" lon="10.721192665444216"><ele>166.0</ele><time>2026-04-19T11:10:55.001Z</time></trkpt><trkpt lat="43.46725058621291" lon="10.7211243699665"><ele>166.0</ele><time>2026-04-19T11:10:56.001Z</time></trkpt><trkpt lat="43.46716731673114" lon="10.721048583398709"><ele>166.0</ele><time>2026-04-19T11:10:57.001Z</time></trkpt><trkpt lat="43.46709625631733" lon="10.720952631388998"><ele>168.25</ele><time>2026-04-19T11:10:58.001Z</time></trkpt><trkpt lat="43.46704683340503" lon="10.720836374524191"><ele>170.5</ele><time>2026-04-19T11:10:59.001Z</time></trkpt><trkpt lat="43.46702067195348" lon="10.720700693707965"><ele>172.75</ele><time>2026-04-19T11:11:00.001Z</time></trkpt><trkpt lat="43.46699476951969" lon="10.720537992314538"><ele>175.0</ele><time>2026-04-19T11:11:01.001Z</time></trkpt><trkpt lat="43.46694271890063" lon="10.720363476592542"><ele>175.33333333333334</ele><time>2026-04-19T11:11:02.001Z</time></trkpt><trkpt lat="43.466862045418466" lon="10.72019560869466"><ele>175.66666666666666</ele><time>2026-04-19T11:11:03.001Z</time></trkpt><trkpt lat="43.46677611902272" lon="10.720029428115433"><ele>176.0</ele><time>2026-04-19T11:11:04.001Z</time></trkpt><trkpt lat="43.46669383031519" lon="10.719845724463516"><ele>176.0</ele><time>2026-04-19T11:11:05.001Z</time></trkpt><trkpt lat="43.46661750644215" lon="10.719675753467206"><ele>176.0</ele><time>2026-04-19T11:11:06.001Z</time></trkpt><trkpt lat="43.466560880905845" lon="10.719517456586276"><ele>176.0</ele><time>2026-04-19T11:11:07.001Z</time></trkpt><trkpt lat="43.46652382999309" lon="10.719343639547477"><ele>176.0</ele><time>2026-04-19T11:11:08.001Z</time></trkpt><trkpt lat="43.466486100488034" lon="10.719151596962984"><ele>175.5</ele><time>2026-04-19T11:11:09.001Z</time></trkpt><trkpt lat="43.46644940252491" lon="10.718964804935888"><ele>175.0</ele><time>2026-04-19T11:11:10.001Z</time></trkpt><trkpt lat="43.466413466811396" lon="10.718784122152327"><ele>174.5</ele><time>2026-04-19T11:11:11.001Z</time></trkpt><trkpt lat="43.466369209859316" lon="10.718617879855055"><ele>174.0</ele><time>2026-04-19T11:11:12.001Z</time></trkpt><trkpt lat="43.466305142246526" lon="10.718466878364197"><ele>173.75</ele><time>2026-04-19T11:11:13.001Z</time></trkpt><trkpt lat="43.46621275824799" lon="10.718331233148913"><ele>173.5</ele><time>2026-04-19T11:11:14.001Z</time></trkpt><trkpt lat="43.466100515784724" lon="10.718212428797106"><ele>173.25</ele><time>2026-04-19T11:11:15.001Z</time></trkpt><trkpt lat="43.465989763653084" lon="10.718096417269946"><ele>173.0</ele><time>2026-04-19T11:11:16.001Z</time></trkpt><trkpt lat="43.46588357574594" lon="10.71799022713074"><ele>173.0</ele><time>2026-04-19T11:11:17.001Z</time></trkpt><trkpt lat="43.46578829027807" lon="10.717884285415156"><ele>173.0</ele><time>2026-04-19T11:11:18.001Z</time></trkpt><trkpt lat="43.465699805359286" lon="10.71776039823971"><ele>173.0</ele><time>2026-04-19T11:11:19.001Z</time></trkpt><trkpt lat="43.465615287379656" lon="10.717630933692586"><ele>173.0</ele><time>2026-04-19T11:11:20.001Z</time></trkpt><trkpt lat="43.46553204609998" lon="10.717496688381797"><ele>172.60000000000002</ele><time>2026-04-19T11:11:21.001Z</time></trkpt><trkpt lat="43.46545455823295" lon="10.717371721775459"><ele>172.20000000000002</ele><time>2026-04-19T11:11:22.001Z</time></trkpt><trkpt lat="43.465391141942675" lon="10.71725983017365"><ele>171.8</ele><time>2026-04-19T11:11:23.001Z</time></trkpt><trkpt lat="43.46535190793529" lon="10.717145461651047"><ele>171.4</ele><time>2026-04-19T11:11:24.001Z</time></trkpt><trkpt lat="43.465326528440364" lon="10.717006786131432"><ele>171.0</ele><time>2026-04-19T11:11:25.001Z</time></trkpt><trkpt lat="43.46530052490101" lon="10.716838559672208"><ele>169.33333333333334</ele><time>2026-04-19T11:11:26.001Z</time></trkpt><trkpt lat="43.46526866153563" lon="10.716633256552917"><ele>167.66666666666669</ele><time>2026-04-19T11:11:27.001Z</time></trkpt><trkpt lat="43.465229057343386" lon="10.716397286578234"><ele>166.0</ele><time>2026-04-19T11:11:28.001Z</time></trkpt><trkpt lat="43.465176878718324" lon="10.716161510767504"><ele>164.33333333333334</ele><time>2026-04-19T11:11:29.001Z</time></trkpt><trkpt lat="43.46508702032876" lon="10.715916052417462"><ele>162.66666666666666</ele><time>2026-04-19T11:11:30.001Z</time></trkpt><trkpt lat="43.46498947916358" lon="10.715665342189505"><ele>161.0</ele><time>2026-04-19T11:11:31.001Z</time></trkpt><trkpt lat="43.46488610808594" lon="10.71539720210071"><ele>159.66666666666666</ele><time>2026-04-19T11:11:32.001Z</time></trkpt><trkpt lat="43.46478395971042" lon="10.715138954011703"><ele>158.33333333333334</ele><time>2026-04-19T11:11:33.001Z</time></trkpt><trkpt lat="43.46465580514553" lon="10.714894176364739"><ele>157.0</ele><time>2026-04-19T11:11:34.002Z</time></trkpt><trkpt lat="43.464494313934274" lon="10.714670531898097"><ele>156.66666666666669</ele><time>2026-04-19T11:11:35.002Z</time></trkpt><trkpt lat="43.4643274765579" lon="10.714443058740809"><ele>156.33333333333334</ele><time>2026-04-19T11:11:36.002Z</time></trkpt><trkpt lat="43.46417998997674" lon="10.71423635460897"><ele>156.0</ele><time>2026-04-19T11:11:37.002Z</time></trkpt><trkpt lat="43.46406590845654" lon="10.714029883403446"><ele>155.66666666666666</ele><time>2026-04-19T11:11:38.002Z</time></trkpt><trkpt lat="43.463978053100526" lon="10.713804103793846"><ele>155.33333333333331</ele><time>2026-04-19T11:11:39.002Z</time></trkpt><trkpt lat="43.46390249220177" lon="10.713611763645892"><ele>155.0</ele><time>2026-04-19T11:11:40.002Z</time></trkpt><trkpt lat="43.46383413051726" lon="10.713451016083358"><ele>154.8</ele><time>2026-04-19T11:11:41.002Z</time></trkpt><trkpt lat="43.46377214053011" lon="10.713320510824419"><ele>154.6</ele><time>2026-04-19T11:11:42.002Z</time></trkpt><trkpt lat="43.46371342956589" lon="10.713200816874007"><ele>154.4</ele><time>2026-04-19T11:11:43.002Z</time></trkpt><trkpt lat="43.463652863560306" lon="10.713079917559922"><ele>154.2</ele><time>2026-04-19T11:11:44.002Z</time></trkpt><trkpt lat="43.463593594552506" lon="10.712964371663805"><ele>154.0</ele><time>2026-04-19T11:11:45.002Z</time></trkpt><trkpt lat="43.463537245868956" lon="10.712862352449"><ele>154.0</ele><time>2026-04-19T11:11:46.002Z</time></trkpt><trkpt lat="43.46348351297425" lon="10.71276691418717"><ele>154.0</ele><time>2026-04-19T11:11:47.002Z</time></trkpt><trkpt lat="43.46343792272481" lon="10.71266972971148"><ele>154.0</ele><time>2026-04-19T11:11:48.002Z</time></trkpt><trkpt lat="43.46325916874889" lon="10.712721210864636"><ele>154.0</ele><time>2026-04-19T11:11:49.002Z</time></trkpt><trkpt lat="43.46317408005677" lon="10.712717611381025"><ele>154.0</ele><time>2026-04-19T11:11:50.002Z</time></trkpt><trkpt lat="43.46309308440369" lon="10.71270993471549"><ele>154.5</ele><time>2026-04-19T11:11:51.002Z</time></trkpt><trkpt lat="43.46301872893404" lon="10.712673119743656"><ele>155.0</ele><time>2026-04-19T11:11:52.002Z</time></trkpt><trkpt lat="43.46294921760257" lon="10.712646107046824"><ele>155.5</ele><time>2026-04-19T11:11:53.002Z</time></trkpt><trkpt lat="43.46288553369241" lon="10.712611612285551"><ele>156.0</ele><time>2026-04-19T11:11:54.002Z</time></trkpt><trkpt lat="43.46281124386253" lon="10.712555040954124"><ele>156.5</ele><time>2026-04-19T11:11:55.002Z</time></trkpt><trkpt lat="43.462726532010365" lon="10.712480647829558"><ele>157.0</ele><time>2026-04-19T11:11:56.002Z</time></trkpt><trkpt lat="43.46263621245615" lon="10.712390908720282"><ele>157.5</ele><time>2026-04-19T11:11:57.002Z</time></trkpt><trkpt lat="43.46255006176726" lon="10.71230426954585"><ele>158.0</ele><time>2026-04-19T11:11:58.002Z</time></trkpt><trkpt lat="43.462459242971576" lon="10.712203716984712"><ele>158.5</ele><time>2026-04-19T11:11:59.002Z</time></trkpt><trkpt lat="43.46237649635507" lon="10.71209040393541"><ele>159.0</ele><time>2026-04-19T11:12:00.002Z</time></trkpt><trkpt lat="43.462313624838295" lon="10.71196525380078"><ele>160.0</ele><time>2026-04-19T11:12:01.002Z</time></trkpt><trkpt lat="43.46225627662964" lon="10.711838280838512"><ele>161.0</ele><time>2026-04-19T11:12:02.002Z</time></trkpt><trkpt lat="43.4621965492082" lon="10.711714650025092"><ele>162.0</ele><time>2026-04-19T11:12:03.002Z</time></trkpt><trkpt lat="43.46212182445937" lon="10.711607435862275"><ele>163.0</ele><time>2026-04-19T11:12:04.002Z</time></trkpt><trkpt lat="43.46200274464974" lon="10.711563788482833"><ele>164.0</ele><time>2026-04-19T11:12:05.002Z</time></trkpt><trkpt lat="43.46188693784502" lon="10.711541149756188"><ele>164.6</ele><time>2026-04-19T11:12:06.002Z</time></trkpt><trkpt lat="43.46176796863772" lon="10.711547736825501"><ele>165.2</ele><time>2026-04-19T11:12:07.002Z</time></trkpt><trkpt lat="43.46166287638168" lon="10.711545781651191"><ele>165.79999999999998</ele><time>2026-04-19T11:12:08.002Z</time></trkpt><trkpt lat="43.46156273874108" lon="10.71154224143195"><ele>166.39999999999998</ele><time>2026-04-19T11:12:09.002Z</time></trkpt><trkpt lat="43.46146028282184" lon="10.71154027831153"><ele>167.0</ele><time>2026-04-19T11:12:10.002Z</time></trkpt><trkpt lat="43.461355436530575" lon="10.711532556395019"><ele>168.0</ele><time>2026-04-19T11:12:11.002Z</time></trkpt><trkpt lat="43.46124857214583" lon="10.71151303213188"><ele>169.0</ele><time>2026-04-19T11:12:12.002Z</time></trkpt><trkpt lat="43.46113883204895" lon="10.711499446262179"><ele>170.0</ele><time>2026-04-19T11:12:13.002Z</time></trkpt><trkpt lat="43.461027095539656" lon="10.711483838456694"><ele>171.0</ele><time>2026-04-19T11:12:14.001Z</time></trkpt><trkpt lat="43.46091437527315" lon="10.711469915755993"><ele>172.0</ele><time>2026-04-19T11:12:15.001Z</time></trkpt><trkpt lat="43.46080483558115" lon="10.711454832646453"><ele>172.0</ele><time>2026-04-19T11:12:16.001Z</time></trkpt><trkpt lat="43.460697688782766" lon="10.711438478630622"><ele>172.0</ele><time>2026-04-19T11:12:17.001Z</time></trkpt><trkpt lat="43.46059174382559" lon="10.711415405480999"><ele>172.0</ele><time>2026-04-19T11:12:18.001Z</time></trkpt><trkpt lat="43.460493744416226" lon="10.711354293574628"><ele>172.0</ele><time>2026-04-19T11:12:19.001Z</time></trkpt><trkpt lat="43.46039325051299" lon="10.711307417729065"><ele>172.0</ele><time>2026-04-19T11:12:20.001Z</time></trkpt><trkpt lat="43.46028873060206" lon="10.711275041679658"><ele>172.6</ele><time>2026-04-19T11:12:21.001Z</time></trkpt><trkpt lat="43.46019910741586" lon="10.711196239168252"><ele>173.2</ele><time>2026-04-19T11:12:22.001Z</time></trkpt><trkpt lat="43.46010726172618" lon="10.711124566198304"><ele>173.8</ele><time>2026-04-19T11:12:23.001Z</time></trkpt><trkpt lat="43.460018266863436" lon="10.711045784561257"><ele>174.4</ele><time>2026-04-19T11:12:24.001Z</time></trkpt><trkpt lat="43.459939309014686" lon="10.710960162455983"><ele>175.0</ele><time>2026-04-19T11:12:25.001Z</time></trkpt><trkpt lat="43.45989132442529" lon="10.710859905139552"><ele>176.5</ele><time>2026-04-19T11:12:26.001Z</time></trkpt><trkpt lat="43.459855372496826" lon="10.710762708318914"><ele>178.0</ele><time>2026-04-19T11:12:27.001Z</time></trkpt><trkpt lat="43.459842031038534" lon="10.710664843197788"><ele>179.5</ele><time>2026-04-19T11:12:28.001Z</time></trkpt><trkpt lat="43.45985094730255" lon="10.710566159619312"><ele>181.0</ele><time>2026-04-19T11:12:29.001Z</time></trkpt><trkpt lat="43.459874288474516" lon="10.71046859669786"><ele>182.5</ele><time>2026-04-19T11:12:30.001Z</time></trkpt><trkpt lat="43.459909045686224" lon="10.710376163985568"><ele>184.0</ele><time>2026-04-19T11:12:31.001Z</time></trkpt><trkpt lat="43.459940487391485" lon="10.710266678193236"><ele>183.83333333333334</ele><time>2026-04-19T11:12:32.001Z</time></trkpt><trkpt lat="43.45995549896429" lon="10.710154500248578"><ele>183.66666666666669</ele><time>2026-04-19T11:12:33.001Z</time></trkpt><trkpt lat="43.45995685716106" lon="10.710040535575715"><ele>183.5</ele><time>2026-04-19T11:12:34.001Z</time></trkpt><trkpt lat="43.45994057131995" lon="10.709950936235813"><ele>183.33333333333334</ele><time>2026-04-19T11:12:35.001Z</time></trkpt><trkpt lat="43.4598539559471" lon="10.709807675174645"><ele>183.16666666666666</ele><time>2026-04-19T11:12:37.001Z</time></trkpt><trkpt lat="43.45978376902474" lon="10.709758207168166"><ele>183.0</ele><time>2026-04-19T11:12:38.001Z</time></trkpt><trkpt lat="43.4597186360429" lon="10.709727448686433"><ele>183.0</ele><time>2026-04-19T11:12:39.001Z</time></trkpt><trkpt lat="43.45962620515277" lon="10.709697475423045"><ele>183.0</ele><time>2026-04-19T11:12:41.001Z</time></trkpt><trkpt lat="43.459558025950194" lon="10.709682716612612"><ele>183.0</ele><time>2026-04-19T11:12:43.001Z</time></trkpt><trkpt lat="43.45948406053693" lon="10.709670038758272"><ele>183.0</ele><time>2026-04-19T11:12:45.001Z</time></trkpt><trkpt lat="43.45940272270603" lon="10.709657955827886"><ele>183.0</ele><time>2026-04-19T11:12:47.001Z</time></trkpt><trkpt lat="43.45931442712163" lon="10.709666167201954"><ele>183.0</ele><time>2026-04-19T11:12:49.001Z</time></trkpt><trkpt lat="43.459224929193" lon="10.709650492342625"><ele>183.16666666666666</ele><time>2026-04-19T11:12:51.001Z</time></trkpt><trkpt lat="43.45913366012642" lon="10.709637129021715"><ele>183.33333333333334</ele><time>2026-04-19T11:12:53.001Z</time></trkpt><trkpt lat="43.45904633261162" lon="10.709625023943497"><ele>183.5</ele><time>2026-04-19T11:12:55.001Z</time></trkpt><trkpt lat="43.45896720712018" lon="10.709612260934914"><ele>183.66666666666669</ele><time>2026-04-19T11:12:57.001Z</time></trkpt><trkpt lat="43.45888456192957" lon="10.709598896813327"><ele>183.83333333333334</ele><time>2026-04-19T11:12:59.001Z</time></trkpt><trkpt lat="43.458795983878346" lon="10.709565740299581"><ele>184.0</ele><time>2026-04-19T11:13:01.001Z</time></trkpt><trkpt lat="43.45869840496706" lon="10.709545101542394"><ele>183.5</ele><time>2026-04-19T11:13:03.001Z</time></trkpt><trkpt lat="43.4585916671782" lon="10.709522450433965"><ele>183.0</ele><time>2026-04-19T11:13:05.001Z</time></trkpt><trkpt lat="43.4584800287216" lon="10.709498759350534"><ele>182.5</ele><time>2026-04-19T11:13:07.001Z</time></trkpt><trkpt lat="43.45836484851527" lon="10.709474316657188"><ele>182.0</ele><time>2026-04-19T11:13:09.001Z</time></trkpt><trkpt lat="43.45824881632527" lon="10.709449693166999"><ele>182.0</ele><time>2026-04-19T11:13:11.001Z</time></trkpt><trkpt lat="43.45813767061713" lon="10.709428391359069"><ele>182.0</ele><time>2026-04-19T11:13:13.001Z</time></trkpt><trkpt lat="43.458019967084915" lon="10.709406437388536"><ele>182.0</ele><time>2026-04-19T11:13:15.001Z</time></trkpt><trkpt lat="43.45795302336507" lon="10.709393951089412"><ele>182.0</ele><time>2026-04-19T11:13:16.001Z</time></trkpt><trkpt lat="43.45788182822226" lon="10.709378109068568"><ele>182.0</ele><time>2026-04-19T11:13:17.001Z</time></trkpt><trkpt lat="43.45780511088045" lon="10.709360694534405"><ele>182.0</ele><time>2026-04-19T11:13:18.001Z</time></trkpt><trkpt lat="43.457725483900745" lon="10.70934256805119"><ele>181.66666666666666</ele><time>2026-04-19T11:13:19.001Z</time></trkpt><trkpt lat="43.457643132869336" lon="10.709326608848002"><ele>181.33333333333331</ele><time>2026-04-19T11:13:20.001Z</time></trkpt><trkpt lat="43.457563810086945" lon="10.709312653782304"><ele>181.0</ele><time>2026-04-19T11:13:21.001Z</time></trkpt><trkpt lat="43.45748437897594" lon="10.709300625102044"><ele>180.66666666666666</ele><time>2026-04-19T11:13:22.001Z</time></trkpt><trkpt lat="43.457406288411846" lon="10.709292493257728"><ele>180.33333333333334</ele><time>2026-04-19T11:13:23.001Z</time></trkpt><trkpt lat="43.45732954591094" lon="10.709282002557687"><ele>180.0</ele><time>2026-04-19T11:13:24.001Z</time></trkpt><trkpt lat="43.45724957106494" lon="10.709261085665213"><ele>180.0</ele><time>2026-04-19T11:13:25.001Z</time></trkpt><trkpt lat="43.45717875790395" lon="10.70923701121556"><ele>180.0</ele><time>2026-04-19T11:13:26.001Z</time></trkpt><trkpt lat="43.45714059897643" lon="10.709162840679353"><ele>180.0</ele><time>2026-04-19T11:13:27.001Z</time></trkpt><trkpt lat="43.457072004103665" lon="10.709003957131765"><ele>180.0</ele><time>2026-04-19T11:13:29.001Z</time></trkpt><trkpt lat="43.457036991394375" lon="10.708903377094256"><ele>180.0</ele><time>2026-04-19T11:13:30.001Z</time></trkpt><trkpt lat="43.45700111876359" lon="10.708793329004154"><ele>180.0</ele><time>2026-04-19T11:13:31.001Z</time></trkpt><trkpt lat="43.45696855232785" lon="10.708682368392717"><ele>180.2</ele><time>2026-04-19T11:13:32.001Z</time></trkpt><trkpt lat="43.45693427016627" lon="10.70856806229263"><ele>180.4</ele><time>2026-04-19T11:13:33.001Z</time></trkpt><trkpt lat="43.456895498586526" lon="10.70845019398292"><ele>180.60000000000002</ele><time>2026-04-19T11:13:34.001Z</time></trkpt><trkpt lat="43.456850525286434" lon="10.708324929477284"><ele>180.8</ele><time>2026-04-19T11:13:35.001Z</time></trkpt><trkpt lat="43.45679017919685" lon="10.708190365382753"><ele>181.0</ele><time>2026-04-19T11:13:36.001Z</time></trkpt><trkpt lat="43.45671543806009" lon="10.708056453420928"><ele>181.0</ele><time>2026-04-19T11:13:37.001Z</time></trkpt><trkpt lat="43.45663007395744" lon="10.707914177053862"><ele>181.0</ele><time>2026-04-19T11:13:38.001Z</time></trkpt><trkpt lat="43.45652914950098" lon="10.707767928984165"><ele>181.0</ele><time>2026-04-19T11:13:39.002Z</time></trkpt><trkpt lat="43.45641682085864" lon="10.707626982802875"><ele>181.0</ele><time>2026-04-19T11:13:40.002Z</time></trkpt><trkpt lat="43.45630905267015" lon="10.707512169590935"><ele>182.5</ele><time>2026-04-19T11:13:41.002Z</time></trkpt><trkpt lat="43.4562121636436" lon="10.707414233880824"><ele>184.0</ele><time>2026-04-19T11:13:42.002Z</time></trkpt><trkpt lat="43.45612301177802" lon="10.707320420476782"><ele>185.5</ele><time>2026-04-19T11:13:43.002Z</time></trkpt><trkpt lat="43.456031987953374" lon="10.707223190892627"><ele>187.0</ele><time>2026-04-19T11:13:44.002Z</time></trkpt><trkpt lat="43.455939373095156" lon="10.70711591187208"><ele>187.0</ele><time>2026-04-19T11:13:45.002Z</time></trkpt><trkpt lat="43.45584733756011" lon="10.70699888712565"><ele>187.0</ele><time>2026-04-19T11:13:46.002Z</time></trkpt><trkpt lat="43.455773844136225" lon="10.706888160322205"><ele>187.0</ele><time>2026-04-19T11:13:47.002Z</time></trkpt><trkpt lat="43.45571047471724" lon="10.706778182306245"><ele>187.0</ele><time>2026-04-19T11:13:48.002Z</time></trkpt><trkpt lat="43.455655620615545" lon="10.706654934958053"><ele>187.0</ele><time>2026-04-19T11:13:49.002Z</time></trkpt><trkpt lat="43.4556065607441" lon="10.70651867010598"><ele>187.83333333333334</ele><time>2026-04-19T11:13:50.002Z</time></trkpt><trkpt lat="43.45555751439527" lon="10.70639080034964"><ele>188.66666666666669</ele><time>2026-04-19T11:13:51.002Z</time></trkpt><trkpt lat="43.455512508586246" lon="10.706276870377444"><ele>189.5</ele><time>2026-04-19T11:13:52.002Z</time></trkpt><trkpt lat="43.45546762487897" lon="10.706174641757977"><ele>190.33333333333334</ele><time>2026-04-19T11:13:53.002Z</time></trkpt><trkpt lat="43.455422863510094" lon="10.706086716366608"><ele>191.16666666666666</ele><time>2026-04-19T11:13:54.002Z</time></trkpt><trkpt lat="43.45536821322979" lon="10.706006096226906"><ele>192.0</ele><time>2026-04-19T11:13:55.002Z</time></trkpt><trkpt lat="43.45530174792647" lon="10.705948827378958"><ele>193.8</ele><time>2026-04-19T11:13:56.002Z</time></trkpt><trkpt lat="43.45525730984243" lon="10.70587223179494"><ele>195.6</ele><time>2026-04-19T11:13:57.002Z</time></trkpt><trkpt lat="43.455162416790316" lon="10.705786807687721"><ele>197.4</ele><time>2026-04-19T11:13:59.002Z</time></trkpt><trkpt lat="43.455073885821506" lon="10.705711000982088"><ele>199.20000000000002</ele><time>2026-04-19T11:14:01.002Z</time></trkpt><trkpt lat="43.45499104653893" lon="10.705617048348499"><ele>201.0</ele><time>2026-04-19T11:14:03.002Z</time></trkpt><trkpt lat="43.454914084872556" lon="10.7054978358862"><ele>201.0</ele><time>2026-04-19T11:14:05.002Z</time></trkpt><trkpt lat="43.454843304574695" lon="10.7053611154378"><ele>201.0</ele><time>2026-04-19T11:14:07.002Z</time></trkpt><trkpt lat="43.45476687210897" lon="10.705229740602833"><ele>201.0</ele><time>2026-04-19T11:14:09.002Z</time></trkpt><trkpt lat="43.45472303030155" lon="10.705166182336855"><ele>201.0</ele><time>2026-04-19T11:14:10.002Z</time></trkpt><trkpt lat="43.454641814029415" lon="10.705049531475813"><ele>201.0</ele><time>2026-04-19T11:14:12.002Z</time></trkpt><trkpt lat="43.454564808027584" lon="10.70493447016307"><ele>204.20000000000002</ele><time>2026-04-19T11:14:14.002Z</time></trkpt><trkpt lat="43.45449697421442" lon="10.704816827180219"><ele>207.4</ele><time>2026-04-19T11:14:16.002Z</time></trkpt><trkpt lat="43.454450128860366" lon="10.704695143912726"><ele>210.6</ele><time>2026-04-19T11:14:18.002Z</time></trkpt><trkpt lat="43.454426645018245" lon="10.7045562765451"><ele>213.8</ele><time>2026-04-19T11:14:20Z</time></trkpt><trkpt lat="43.454405738442354" lon="10.704409611352276"><ele>217.0</ele><time>2026-04-19T11:14:22Z</time></trkpt><trkpt lat="43.45437689248548" lon="10.704265209664065"><ele>217.33333333333331</ele><time>2026-04-19T11:14:24Z</time></trkpt><trkpt lat="43.454327109736155" lon="10.70411645487082"><ele>217.66666666666666</ele><time>2026-04-19T11:14:26Z</time></trkpt><trkpt lat="43.45428363985779" lon="10.70405309182487"><ele>218.0</ele><time>2026-04-19T11:14:27Z</time></trkpt><trkpt lat="43.45422559752573" lon="10.704010534311111"><ele>218.33333333333331</ele><time>2026-04-19T11:14:28Z</time></trkpt><trkpt lat="43.45415625519556" lon="10.70401469035966"><ele>218.66666666666666</ele><time>2026-04-19T11:14:29Z</time></trkpt><trkpt lat="43.45403024461971" lon="10.703999083465892"><ele>219.0</ele><time>2026-04-19T11:14:31Z</time></trkpt><trkpt lat="43.453961320697005" lon="10.704004148529188"><ele>219.0</ele><time>2026-04-19T11:14:32Z</time></trkpt><trkpt lat="43.45388922844822" lon="10.704010496237913"><ele>219.0</ele><time>2026-04-19T11:14:33Z</time></trkpt><trkpt lat="43.45381198917507" lon="10.704015462777068"><ele>219.0</ele><time>2026-04-19T11:14:34Z</time></trkpt><trkpt lat="43.453731632598405" lon="10.704020846663354"><ele>219.0</ele><time>2026-04-19T11:14:35Z</time></trkpt><trkpt lat="43.45364659943345" lon="10.704024930623047"><ele>219.0</ele><time>2026-04-19T11:14:36Z</time></trkpt><trkpt lat="43.45355711945639" lon="10.704028474490006"><ele>219.0</ele><time>2026-04-19T11:14:37Z</time></trkpt><trkpt lat="43.453463039908506" lon="10.704042191053919"><ele>220.0</ele><time>2026-04-19T11:14:38Z</time></trkpt><trkpt lat="43.453381752288905" lon="10.704057541340818"><ele>221.0</ele><time>2026-04-19T11:14:39Z</time></trkpt><trkpt lat="43.45330031122229" lon="10.704071874991795"><ele>222.0</ele><time>2026-04-19T11:14:40Z</time></trkpt><trkpt lat="43.453215616608574" lon="10.70408352447731"><ele>223.0</ele><time>2026-04-19T11:14:41Z</time></trkpt><trkpt lat="43.453138995788066" lon="10.704093736514842"><ele>224.0</ele><time>2026-04-19T11:14:42Z</time></trkpt><trkpt lat="43.45307250856322" lon="10.704110340744165"><ele>225.0</ele><time>2026-04-19T11:14:43Z</time></trkpt><trkpt lat="43.45296176959082" lon="10.704151233096166"><ele>226.33333333333334</ele><time>2026-04-19T11:14:45Z</time></trkpt><trkpt lat="43.45286106144218" lon="10.704201846714064"><ele>227.66666666666669</ele><time>2026-04-19T11:14:47Z</time></trkpt><trkpt lat="43.45274253920384" lon="10.704263591267736"><ele>229.0</ele><time>2026-04-19T11:14:49.001Z</time></trkpt><trkpt lat="43.452679709971214" lon="10.704298522839736"><ele>230.33333333333334</ele><time>2026-04-19T11:14:50.001Z</time></trkpt><trkpt lat="43.45261657124099" lon="10.704339299435636"><ele>231.66666666666669</ele><time>2026-04-19T11:14:51.001Z</time></trkpt><trkpt lat="43.45255142861992" lon="10.704384245766692"><ele>233.0</ele><time>2026-04-19T11:14:52.001Z</time></trkpt><trkpt lat="43.45248426443603" lon="10.704434469949105"><ele>233.16666666666669</ele><time>2026-04-19T11:14:53.001Z</time></trkpt><trkpt lat="43.452418660064176" lon="10.70448643688831"><ele>233.33333333333334</ele><time>2026-04-19T11:14:54.001Z</time></trkpt><trkpt lat="43.45235112492801" lon="10.704535160594169"><ele>233.5</ele><time>2026-04-19T11:14:55.001Z</time></trkpt><trkpt lat="43.45228230324998" lon="10.704591302509847"><ele>233.66666666666669</ele><time>2026-04-19T11:14:56.001Z</time></trkpt><trkpt lat="43.452213911735356" lon="10.704652254444657"><ele>233.83333333333334</ele><time>2026-04-19T11:14:57.001Z</time></trkpt><trkpt lat="43.45214577194928" lon="10.704715703763098"><ele>234.0</ele><time>2026-04-19T11:14:58.001Z</time></trkpt><trkpt lat="43.45207942943136" lon="10.704788204636433"><ele>235.83333333333334</ele><time>2026-04-19T11:14:59.001Z</time></trkpt><trkpt lat="43.45201719010675" lon="10.704867944488713"><ele>237.66666666666669</ele><time>2026-04-19T11:15:00.001Z</time></trkpt><trkpt lat="43.45196141953595" lon="10.704956355506246"><ele>239.5</ele><time>2026-04-19T11:15:01.001Z</time></trkpt><trkpt lat="43.45191945608608" lon="10.705059919194735"><ele>241.33333333333334</ele><time>2026-04-19T11:15:02.001Z</time></trkpt><trkpt lat="43.451900187654864" lon="10.705179783514854"><ele>243.16666666666669</ele><time>2026-04-19T11:15:03.001Z</time></trkpt><trkpt lat="43.451881291822325" lon="10.705291015142215"><ele>245.0</ele><time>2026-04-19T11:15:04.001Z</time></trkpt><trkpt lat="43.45185827891915" lon="10.70539393369629"><ele>245.00000000000003</ele><time>2026-04-19T11:15:05.001Z</time></trkpt><trkpt lat="43.45182139212521" lon="10.705496327259175"><ele>245.0</ele><time>2026-04-19T11:15:06.001Z</time></trkpt><trkpt lat="43.45177918507613" lon="10.705599597728664"><ele>245.0</ele><time>2026-04-19T11:15:07.001Z</time></trkpt><trkpt lat="43.45173166047204" lon="10.70570468008186"><ele>245.0</ele><time>2026-04-19T11:15:08.001Z</time></trkpt><trkpt lat="43.45168120621406" lon="10.705803135291424"><ele>245.00000000000003</ele><time>2026-04-19T11:15:09.001Z</time></trkpt><trkpt lat="43.451626468862585" lon="10.705903802775854"><ele>245.0</ele><time>2026-04-19T11:15:10.001Z</time></trkpt><trkpt lat="43.45156957041171" lon="10.70600393376499"><ele>244.6</ele><time>2026-04-19T11:15:11.001Z</time></trkpt><trkpt lat="43.451506316625256" lon="10.706107997074204"><ele>244.2</ele><time>2026-04-19T11:15:12.001Z</time></trkpt><trkpt lat="43.45143920331508" lon="10.706214471894926"><ele>243.8</ele><time>2026-04-19T11:15:13.001Z</time></trkpt><trkpt lat="43.451366489155546" lon="10.706317300884104"><ele>243.4</ele><time>2026-04-19T11:15:14.001Z</time></trkpt><trkpt lat="43.451297525979186" lon="10.706403353670764"><ele>243.0</ele><time>2026-04-19T11:15:15.001Z</time></trkpt><trkpt lat="43.45124325503844" lon="10.706472781538155"><ele>242.8</ele><time>2026-04-19T11:15:16.001Z</time></trkpt><trkpt lat="43.45119463876846" lon="10.706547429003097"><ele>242.60000000000002</ele><time>2026-04-19T11:15:17.001Z</time></trkpt><trkpt lat="43.45113918208297" lon="10.706610739861997"><ele>242.39999999999998</ele><time>2026-04-19T11:15:18.001Z</time></trkpt><trkpt lat="43.451072198030026" lon="10.706719871576839"><ele>242.2</ele><time>2026-04-19T11:15:20.001Z</time></trkpt><trkpt lat="43.45116091947651" lon="10.70695360840263"><ele>242.0</ele><time>2026-04-19T11:15:21.001Z</time></trkpt><trkpt lat="43.451166855497625" lon="10.707061665495326"><ele>240.83333333333334</ele><time>2026-04-19T11:15:22.001Z</time></trkpt><trkpt lat="43.451167202188934" lon="10.707170893011035"><ele>239.66666666666669</ele><time>2026-04-19T11:15:23.001Z</time></trkpt><trkpt lat="43.45116463723509" lon="10.707282663826941"><ele>238.5</ele><time>2026-04-19T11:15:24.001Z</time></trkpt><trkpt lat="43.451162709261446" lon="10.707390310125904"><ele>237.33333333333331</ele><time>2026-04-19T11:15:25.001Z</time></trkpt><trkpt lat="43.45116490098658" lon="10.707495390713987"><ele>236.16666666666666</ele><time>2026-04-19T11:15:26.001Z</time></trkpt><trkpt lat="43.45116854035196" lon="10.70759558369526"><ele>235.0</ele><time>2026-04-19T11:15:27.001Z</time></trkpt><trkpt lat="43.451182548573776" lon="10.707690680192998"><ele>234.49999999999997</ele><time>2026-04-19T11:15:28.001Z</time></trkpt><trkpt lat="43.451213384431384" lon="10.707828725903644"><ele>234.0</ele><time>2026-04-19T11:15:30.001Z</time></trkpt><trkpt lat="43.451252321908534" lon="10.707938058041272"><ele>233.5</ele><time>2026-04-19T11:15:33.001Z</time></trkpt><trkpt lat="43.45127180240955" lon="10.7080356765829"><ele>233.0</ele><time>2026-04-19T11:15:35.001Z</time></trkpt><trkpt lat="43.451285527393246" lon="10.708140549334528"><ele>232.49999999999997</ele><time>2026-04-19T11:15:42.001Z</time></trkpt><trkpt lat="43.45129037188396" lon="10.708260193217505"><ele>232.0</ele><time>2026-04-19T11:15:45.001Z</time></trkpt><trkpt lat="43.45128519892608" lon="10.708356184069848"><ele>231.99999999999997</ele><time>2026-04-19T11:15:51.001Z</time></trkpt><trkpt lat="43.45126398321" lon="10.708463147921544"><ele>232.0</ele><time>2026-04-19T11:15:56.001Z</time></trkpt><trkpt lat="43.45122091432245" lon="10.708552887938266"><ele>232.0</ele><time>2026-04-19T11:15:59.001Z</time></trkpt><trkpt lat="43.451174105777326" lon="10.708643977027164"><ele>232.0</ele><time>2026-04-19T11:16:02.001Z</time></trkpt><trkpt lat="43.45113084360013" lon="10.708732881856346"><ele>231.99999999999997</ele><time>2026-04-19T11:16:05.001Z</time></trkpt><trkpt lat="43.451081164611665" lon="10.708833220671526"><ele>232.0</ele><time>2026-04-19T11:16:08.001Z</time></trkpt><trkpt lat="43.451033528946425" lon="10.708934682800452"><ele>231.8571428571429</ele><time>2026-04-19T11:16:11.002Z</time></trkpt><trkpt lat="43.45097342320308" lon="10.708996553585468"><ele>231.71428571428572</ele><time>2026-04-19T11:16:15.002Z</time></trkpt><trkpt lat="43.45090750442705" lon="10.708969424862687"><ele>231.57142857142858</ele><time>2026-04-19T11:16:20.002Z</time></trkpt><trkpt lat="43.450840002771095" lon="10.708956524021717"><ele>231.42857142857144</ele><time>2026-04-19T11:16:23.002Z</time></trkpt><trkpt lat="43.45078749571549" lon="10.709026144304556"><ele>231.28571428571428</ele><time>2026-04-19T11:16:26Z</time></trkpt><trkpt lat="43.45073884939349" lon="10.709110450630556"><ele>231.14285714285714</ele><time>2026-04-19T11:16:29Z</time></trkpt><trkpt lat="43.450702369510246" lon="10.709185913565186"><ele>231.0</ele><time>2026-04-19T11:16:32Z</time></trkpt><trkpt lat="43.45067369531706" lon="10.709287515316042"><ele>231.0</ele><time>2026-04-19T11:16:35Z</time></trkpt><trkpt lat="43.450646986112794" lon="10.709382089642125"><ele>231.0</ele><time>2026-04-19T11:16:38Z</time></trkpt><trkpt lat="43.45060928013944" lon="10.7094875871943"><ele>231.0</ele><time>2026-04-19T11:16:41Z</time></trkpt><trkpt lat="43.45056137704938" lon="10.709575675786088"><ele>231.0</ele><time>2026-04-19T11:16:44Z</time></trkpt><trkpt lat="43.45050422546202" lon="10.709657363639515"><ele>231.0</ele><time>2026-04-19T11:16:47Z</time></trkpt><trkpt lat="43.45043644881931" lon="10.709747543293691"><ele>231.0</ele><time>2026-04-19T11:16:50Z</time></trkpt><trkpt lat="43.4503878658646" lon="10.70980876643216"><ele>228.5</ele><time>2026-04-19T11:16:52Z</time></trkpt><trkpt lat="43.45034719475368" lon="10.709878852535505"><ele>226.0</ele><time>2026-04-19T11:16:54Z</time></trkpt><trkpt lat="43.45031240871896" lon="10.70998538212228"><ele>223.5</ele><time>2026-04-19T11:16:56Z</time></trkpt><trkpt lat="43.45028668940836" lon="10.710091465032653"><ele>221.0</ele><time>2026-04-19T11:16:58Z</time></trkpt><trkpt lat="43.45027522333991" lon="10.710203209861112"><ele>218.5</ele><time>2026-04-19T11:17:00Z</time></trkpt><trkpt lat="43.450277459152176" lon="10.71030278979431"><ele>216.0</ele><time>2026-04-19T11:17:02Z</time></trkpt><trkpt lat="43.45027802922038" lon="10.710419778756178"><ele>215.66666666666666</ele><time>2026-04-19T11:17:04Z</time></trkpt><trkpt lat="43.45027507139907" lon="10.710522458256902"><ele>215.33333333333331</ele><time>2026-04-19T11:17:06Z</time></trkpt><trkpt lat="43.45027198920484" lon="10.710615775698525"><ele>215.0</ele><time>2026-04-19T11:17:08Z</time></trkpt><trkpt lat="43.45027043101909" lon="10.71074869927143"><ele>214.66666666666666</ele><time>2026-04-19T11:17:11Z</time></trkpt><trkpt lat="43.4502720534218" lon="10.710860004006832"><ele>214.33333333333331</ele><time>2026-04-19T11:17:13Z</time></trkpt><trkpt lat="43.45026277760243" lon="10.710974881720055"><ele>214.0</ele><time>2026-04-19T11:17:15.001Z</time></trkpt><trkpt lat="43.450249477109" lon="10.711075922710702"><ele>213.66666666666666</ele><time>2026-04-19T11:17:17.001Z</time></trkpt><trkpt lat="43.45023406180241" lon="10.711163770113133"><ele>213.33333333333331</ele><time>2026-04-19T11:17:19.001Z</time></trkpt><trkpt lat="43.45021241100071" lon="10.711293401588128"><ele>213.0</ele><time>2026-04-19T11:17:22.001Z</time></trkpt><trkpt lat="43.45018508873976" lon="10.711388613091923"><ele>212.66666666666669</ele><time>2026-04-19T11:17:24.001Z</time></trkpt><trkpt lat="43.45016274347526" lon="10.711508815502969"><ele>212.33333333333334</ele><time>2026-04-19T11:17:26.001Z</time></trkpt><trkpt lat="43.45013994473148" lon="10.711635239122776"><ele>212.0</ele><time>2026-04-19T11:17:28.001Z</time></trkpt><trkpt lat="43.45011517717771" lon="10.71175623911378"><ele>212.0</ele><time>2026-04-19T11:17:30.001Z</time></trkpt><trkpt lat="43.45008944215229" lon="10.711869125655147"><ele>212.0</ele><time>2026-04-19T11:17:32.001Z</time></trkpt><trkpt lat="43.45005685426526" lon="10.711999238698926"><ele>212.0</ele><time>2026-04-19T11:17:34.001Z</time></trkpt><trkpt lat="43.450017079754566" lon="10.712143927063762"><ele>212.0</ele><time>2026-04-19T11:17:36.001Z</time></trkpt><trkpt lat="43.44997508127126" lon="10.712291400220513"><ele>212.0</ele><time>2026-04-19T11:17:38.001Z</time></trkpt><trkpt lat="43.44993810084212" lon="10.712430854550513"><ele>211.75</ele><time>2026-04-19T11:17:40.001Z</time></trkpt><trkpt lat="43.44990238290239" lon="10.712568845501657"><ele>211.5</ele><time>2026-04-19T11:17:42.001Z</time></trkpt><trkpt lat="43.449867174557596" lon="10.712713629229048"><ele>211.25</ele><time>2026-04-19T11:17:44.001Z</time></trkpt><trkpt lat="43.449812982036164" lon="10.712856946855146"><ele>211.0</ele><time>2026-04-19T11:17:46.001Z</time></trkpt><trkpt lat="43.44973225659889" lon="10.712970026851075"><ele>211.0</ele><time>2026-04-19T11:17:48.001Z</time></trkpt><trkpt lat="43.44966358459844" lon="10.713066957022592"><ele>211.0</ele><time>2026-04-19T11:17:50.001Z</time></trkpt><trkpt lat="43.44963236094732" lon="10.713170940923481"><ele>211.0</ele><time>2026-04-19T11:17:52.001Z</time></trkpt><trkpt lat="43.44964705806712" lon="10.713269545430723"><ele>211.0</ele><time>2026-04-19T11:17:54.001Z</time></trkpt><trkpt lat="43.449675581010894" lon="10.713348435218165"><ele>211.0</ele><time>2026-04-19T11:17:56.001Z</time></trkpt><trkpt lat="43.449705141595096" lon="10.713427028622005"><ele>211.0</ele><time>2026-04-19T11:17:58.001Z</time></trkpt><trkpt lat="43.449748690490786" lon="10.713493559403465"><ele>211.0</ele><time>2026-04-19T11:18:01.001Z</time></trkpt><trkpt lat="43.4497972568729" lon="10.713553979299727"><ele>209.66666666666666</ele><time>2026-04-19T11:18:04.001Z</time></trkpt><trkpt lat="43.449849948585694" lon="10.71360258326641"><ele>208.33333333333331</ele><time>2026-04-19T11:18:07.001Z</time></trkpt><trkpt lat="43.449919096218935" lon="10.713660672662979"><ele>207.0</ele><time>2026-04-19T11:18:10.001Z</time></trkpt><trkpt lat="43.44998577019756" lon="10.713729109884092"><ele>205.66666666666669</ele><time>2026-04-19T11:18:13.001Z</time></trkpt><trkpt lat="43.45003879651947" lon="10.713782401219714"><ele>204.33333333333334</ele><time>2026-04-19T11:18:16.001Z</time></trkpt><trkpt lat="43.450109233573066" lon="10.713848562137134"><ele>203.0</ele><time>2026-04-19T11:18:19.001Z</time></trkpt><trkpt lat="43.45016940566592" lon="10.713907656188356"><ele>203.0</ele><time>2026-04-19T11:18:21.001Z</time></trkpt><trkpt lat="43.4502373557442" lon="10.713972879944626"><ele>203.0</ele><time>2026-04-19T11:18:23.001Z</time></trkpt><trkpt lat="43.45031595164859" lon="10.714044487037167"><ele>203.0</ele><time>2026-04-19T11:18:25.001Z</time></trkpt><trkpt lat="43.450408186746316" lon="10.714113348089949"><ele>203.0</ele><time>2026-04-19T11:18:27.002Z</time></trkpt><trkpt lat="43.45051210631906" lon="10.714172845234609"><ele>203.0</ele><time>2026-04-19T11:18:29.002Z</time></trkpt><trkpt lat="43.45062452101023" lon="10.714227391265961"><ele>201.33333333333334</ele><time>2026-04-19T11:18:31Z</time></trkpt><trkpt lat="43.450732785902716" lon="10.71429733380838"><ele>199.66666666666669</ele><time>2026-04-19T11:18:33Z</time></trkpt><trkpt lat="43.4508282972519" lon="10.71441602794549"><ele>198.0</ele><time>2026-04-19T11:18:35Z</time></trkpt><trkpt lat="43.45086778023789" lon="10.714488445539793"><ele>196.33333333333331</ele><time>2026-04-19T11:18:36Z</time></trkpt><trkpt lat="43.450903527460056" lon="10.71456207790802"><ele>194.66666666666666</ele><time>2026-04-19T11:18:37Z</time></trkpt><trkpt lat="43.45093612763206" lon="10.71463641888352"><ele>193.0</ele><time>2026-04-19T11:18:38Z</time></trkpt><trkpt lat="43.45096953448393" lon="10.714711628372728"><ele>192.66666666666666</ele><time>2026-04-19T11:18:39Z</time></trkpt><trkpt lat="43.451006366056596" lon="10.714789381905302"><ele>192.33333333333331</ele><time>2026-04-19T11:18:40Z</time></trkpt><trkpt lat="43.45105609771951" lon="10.714870778804773"><ele>192.0</ele><time>2026-04-19T11:18:41Z</time></trkpt><trkpt lat="43.45111195531953" lon="10.714955258598044"><ele>191.66666666666666</ele><time>2026-04-19T11:18:42Z</time></trkpt><trkpt lat="43.45117410863769" lon="10.715042188296215"><ele>191.33333333333331</ele><time>2026-04-19T11:18:43Z</time></trkpt><trkpt lat="43.45123207053916" lon="10.715130938332571"><ele>191.0</ele><time>2026-04-19T11:18:44Z</time></trkpt><trkpt lat="43.451278071945964" lon="10.715211271955917"><ele>190.33333333333331</ele><time>2026-04-19T11:18:45Z</time></trkpt><trkpt lat="43.451332908396715" lon="10.715316978129017"><ele>189.66666666666666</ele><time>2026-04-19T11:18:47Z</time></trkpt><trkpt lat="43.451380478547144" lon="10.715396538033023"><ele>189.0</ele><time>2026-04-19T11:18:49Z</time></trkpt><trkpt lat="43.45149504527506" lon="10.715480682551556"><ele>188.33333333333334</ele><time>2026-04-19T11:18:51Z</time></trkpt><trkpt lat="43.45156009447817" lon="10.715526165562085"><ele>187.66666666666669</ele><time>2026-04-19T11:18:52Z</time></trkpt><trkpt lat="43.45162015414031" lon="10.715584888618995"><ele>187.0</ele><time>2026-04-19T11:18:53Z</time></trkpt><trkpt lat="43.45166740642524" lon="10.71566244627655"><ele>187.0</ele><time>2026-04-19T11:18:54Z</time></trkpt><trkpt lat="43.45170025939702" lon="10.71574600289864"><ele>187.0</ele><time>2026-04-19T11:18:55Z</time></trkpt><trkpt lat="43.451703717298656" lon="10.715887882552817"><ele>187.0</ele><time>2026-04-19T11:18:57Z</time></trkpt><trkpt lat="43.45169107687512" lon="10.715995458364471"><ele>187.0</ele><time>2026-04-19T11:18:59Z</time></trkpt><trkpt lat="43.451711731884096" lon="10.71609114884746"><ele>187.0</ele><time>2026-04-19T11:19:01Z</time></trkpt><trkpt lat="43.451752874922" lon="10.716186477417363"><ele>187.0</ele><time>2026-04-19T11:19:03Z</time></trkpt><trkpt lat="43.45182127031125" lon="10.716284012842626"><ele>186.33333333333334</ele><time>2026-04-19T11:19:05Z</time></trkpt><trkpt lat="43.45192651966106" lon="10.716348766493232"><ele>185.66666666666669</ele><time>2026-04-19T11:19:07Z</time></trkpt><trkpt lat="43.4519852164256" lon="10.716381325633218"><ele>185.0</ele><time>2026-04-19T11:19:08Z</time></trkpt><trkpt lat="43.45204284849333" lon="10.716418724806292"><ele>184.33333333333334</ele><time>2026-04-19T11:19:09Z</time></trkpt><trkpt lat="43.45209935379324" lon="10.716465069036325"><ele>183.66666666666666</ele><time>2026-04-19T11:19:10Z</time></trkpt><trkpt lat="43.452148934483496" lon="10.71652360327504"><ele>183.0</ele><time>2026-04-19T11:19:11Z</time></trkpt><trkpt lat="43.45220792494405" lon="10.716666506697097"><ele>183.0</ele><time>2026-04-19T11:19:13Z</time></trkpt><trkpt lat="43.45225663276739" lon="10.716817944393785"><ele>183.0</ele><time>2026-04-19T11:19:15Z</time></trkpt><trkpt lat="43.452311228439775" lon="10.716961542925272"><ele>183.0</ele><time>2026-04-19T11:19:17Z</time></trkpt><trkpt lat="43.45236458879425" lon="10.717085016152202"><ele>183.0</ele><time>2026-04-19T11:19:19Z</time></trkpt><trkpt lat="43.452417014363434" lon="10.71719199967436"><ele>183.0</ele><time>2026-04-19T11:19:21.001Z</time></trkpt><trkpt lat="43.45249253059997" lon="10.717276123177522"><ele>182.83333333333334</ele><time>2026-04-19T11:19:23.001Z</time></trkpt><trkpt lat="43.45256209855116" lon="10.717348542190768"><ele>182.66666666666666</ele><time>2026-04-19T11:19:25.001Z</time></trkpt><trkpt lat="43.45259941600401" lon="10.717447030103258"><ele>182.5</ele><time>2026-04-19T11:19:27.001Z</time></trkpt><trkpt lat="43.4526286950143" lon="10.717543566724622"><ele>182.33333333333331</ele><time>2026-04-19T11:19:29.001Z</time></trkpt><trkpt lat="43.452658560112255" lon="10.717644480302473"><ele>182.16666666666666</ele><time>2026-04-19T11:19:31.001Z</time></trkpt><trkpt lat="43.452690747314385" lon="10.71774421913705"><ele>182.0</ele><time>2026-04-19T11:19:33.001Z</time></trkpt><trkpt lat="43.45271663588711" lon="10.717836114077187"><ele>182.0</ele><time>2026-04-19T11:19:35.001Z</time></trkpt><trkpt lat="43.45272581162888" lon="10.717923740290955"><ele>182.0</ele><time>2026-04-19T11:19:37.001Z</time></trkpt><trkpt lat="43.45272803838986" lon="10.718014543072556"><ele>182.0</ele><time>2026-04-19T11:19:39.001Z</time></trkpt><trkpt lat="43.452741866898364" lon="10.71812521660997"><ele>182.0</ele><time>2026-04-19T11:19:41.001Z</time></trkpt><trkpt lat="43.452758534634874" lon="10.71825988256818"><ele>182.0</ele><time>2026-04-19T11:19:43.001Z</time></trkpt><trkpt lat="43.45278639324455" lon="10.718412023449888"><ele>182.0</ele><time>2026-04-19T11:19:45.001Z</time></trkpt><trkpt lat="43.452823342237906" lon="10.7185773322492"><ele>181.0</ele><time>2026-04-19T11:19:47.001Z</time></trkpt><trkpt lat="43.45284996208809" lon="10.718659189187184"><ele>180.0</ele><time>2026-04-19T11:19:48.001Z</time></trkpt><trkpt lat="43.452878141431995" lon="10.71873689165988"><ele>179.0</ele><time>2026-04-19T11:19:49.001Z</time></trkpt><trkpt lat="43.452937648875384" lon="10.718879552919676"><ele>178.0</ele><time>2026-04-19T11:19:51.001Z</time></trkpt><trkpt lat="43.45299874751944" lon="10.718997918607126"><ele>177.0</ele><time>2026-04-19T11:19:53.001Z</time></trkpt><trkpt lat="43.45305817790512" lon="10.719101924776696"><ele>176.0</ele><time>2026-04-19T11:19:55.001Z</time></trkpt><trkpt lat="43.45311582829683" lon="10.719203105046459"><ele>176.0</ele><time>2026-04-19T11:19:57.001Z</time></trkpt><trkpt lat="43.45317810857804" lon="10.719303617646275"><ele>176.0</ele><time>2026-04-19T11:19:59.001Z</time></trkpt><trkpt lat="43.45323542653405" lon="10.719381067994552"><ele>176.0</ele><time>2026-04-19T11:20:01.001Z</time></trkpt><trkpt lat="43.45327188610538" lon="10.719467183265333"><ele>176.0</ele><time>2026-04-19T11:20:03.001Z</time></trkpt><trkpt lat="43.45331888760388" lon="10.719556211934572"><ele>176.0</ele><time>2026-04-19T11:20:05.001Z</time></trkpt><trkpt lat="43.45337378901796" lon="10.719660463369848"><ele>176.0</ele><time>2026-04-19T11:20:07.001Z</time></trkpt><trkpt lat="43.453424470900465" lon="10.719760493319423"><ele>175.0</ele><time>2026-04-19T11:20:09.001Z</time></trkpt><trkpt lat="43.45347881720437" lon="10.719867264322161"><ele>174.0</ele><time>2026-04-19T11:20:11.001Z</time></trkpt><trkpt lat="43.453535845726165" lon="10.719985060958557"><ele>173.0</ele><time>2026-04-19T11:20:13.001Z</time></trkpt><trkpt lat="43.453593248430906" lon="10.720099461444834"><ele>172.0</ele><time>2026-04-19T11:20:15.001Z</time></trkpt><trkpt lat="43.453654410670445" lon="10.720215651847877"><ele>171.0</ele><time>2026-04-19T11:20:17.001Z</time></trkpt><trkpt lat="43.45371585628394" lon="10.720335346058892"><ele>170.20000000000002</ele><time>2026-04-19T11:20:19.001Z</time></trkpt><trkpt lat="43.453774864234006" lon="10.720452824961368"><ele>169.4</ele><time>2026-04-19T11:20:21.001Z</time></trkpt><trkpt lat="43.45383599831484" lon="10.720565368188783"><ele>168.6</ele><time>2026-04-19T11:20:23.001Z</time></trkpt><trkpt lat="43.45389993135912" lon="10.720677835455984"><ele>167.8</ele><time>2026-04-19T11:20:25.002Z</time></trkpt><trkpt lat="43.453956928641624" lon="10.720778415012044"><ele>167.0</ele><time>2026-04-19T11:20:27.002Z</time></trkpt><trkpt lat="43.45401379250323" lon="10.720890423144983"><ele>167.0</ele><time>2026-04-19T11:20:29.002Z</time></trkpt><trkpt lat="43.45405378579403" lon="10.721028156649888"><ele>167.0</ele><time>2026-04-19T11:20:31.002Z</time></trkpt><trkpt lat="43.45409404873716" lon="10.72117565659807"><ele>167.0</ele><time>2026-04-19T11:20:33.002Z</time></trkpt><trkpt lat="43.454154126343106" lon="10.721292352160427"><ele>167.0</ele><time>2026-04-19T11:20:35.002Z</time></trkpt><trkpt lat="43.45422272032498" lon="10.721363655920632"><ele>167.0</ele><time>2026-04-19T11:20:36.999Z</time></trkpt><trkpt lat="43.45428289181512" lon="10.721409392412397"><ele>167.66666666666666</ele><time>2026-04-19T11:20:38.999Z</time></trkpt><trkpt lat="43.45436369018832" lon="10.721467675175516"><ele>168.33333333333331</ele><time>2026-04-19T11:20:43.999Z</time></trkpt><trkpt lat="43.45442794398608" lon="10.721511749757626"><ele>169.0</ele><time>2026-04-19T11:20:45.999Z</time></trkpt><trkpt lat="43.4544829948659" lon="10.721588182125053"><ele>169.66666666666666</ele><time>2026-04-19T11:20:49Z</time></trkpt><trkpt lat="43.4545128455495" lon="10.721673866542181"><ele>170.33333333333334</ele><time>2026-04-19T11:20:52Z</time></trkpt><trkpt lat="43.45451418959399" lon="10.72180414467819"><ele>171.0</ele><time>2026-04-19T11:21:02Z</time></trkpt><trkpt lat="43.4545125353666" lon="10.72191269463605"><ele>172.0</ele><time>2026-04-19T11:21:04Z</time></trkpt><trkpt lat="43.45450457956903" lon="10.722020059113605"><ele>173.0</ele><time>2026-04-19T11:21:06Z</time></trkpt><trkpt lat="43.45450086193782" lon="10.722124104479041"><ele>174.0</ele><time>2026-04-19T11:21:08Z</time></trkpt><trkpt lat="43.45450458456044" lon="10.722216226977075"><ele>175.0</ele><time>2026-04-19T11:21:10Z</time></trkpt><trkpt lat="43.454519050142025" lon="10.722308833479008"><ele>176.0</ele><time>2026-04-19T11:21:12Z</time></trkpt><trkpt lat="43.45455877361892" lon="10.722425073018716"><ele>177.0</ele><time>2026-04-19T11:21:15Z</time></trkpt><trkpt lat="43.45459818600657" lon="10.722544004323483"><ele>177.66666666666666</ele><time>2026-04-19T11:21:18Z</time></trkpt><trkpt lat="43.45464670591318" lon="10.722638495517769"><ele>178.33333333333334</ele><time>2026-04-19T11:21:20Z</time></trkpt><trkpt lat="43.45469118770772" lon="10.722720976533388"><ele>179.0</ele><time>2026-04-19T11:21:22Z</time></trkpt><trkpt lat="43.454731055682316" lon="10.722808513665704"><ele>179.66666666666669</ele><time>2026-04-19T11:21:24Z</time></trkpt><trkpt lat="43.45477400907884" lon="10.722899888738983"><ele>180.33333333333334</ele><time>2026-04-19T11:21:26Z</time></trkpt><trkpt lat="43.454817308674244" lon="10.723001117753679"><ele>181.0</ele><time>2026-04-19T11:21:28.001Z</time></trkpt><trkpt lat="43.454862644268" lon="10.723098075408755"><ele>181.33333333333334</ele><time>2026-04-19T11:21:30.001Z</time></trkpt><trkpt lat="43.454909496576974" lon="10.723176355904158"><ele>181.66666666666669</ele><time>2026-04-19T11:21:32.001Z</time></trkpt><trkpt lat="43.45494777274148" lon="10.723249885897634"><ele>182.0</ele><time>2026-04-19T11:21:43.001Z</time></trkpt><trkpt lat="43.45501228418887" lon="10.723376396459878"><ele>182.33333333333334</ele><time>2026-04-19T11:21:45.001Z</time></trkpt><trkpt lat="43.4550668340531" lon="10.723507680832345"><ele>182.66666666666666</ele><time>2026-04-19T11:21:47.001Z</time></trkpt><trkpt lat="43.45509517124358" lon="10.723587047194746"><ele>183.0</ele><time>2026-04-19T11:21:48.001Z</time></trkpt><trkpt lat="43.45513633642677" lon="10.723687069339693"><ele>183.0</ele><time>2026-04-19T11:21:50.001Z</time></trkpt><trkpt lat="43.45516834113794" lon="10.723771015565058"><ele>183.0</ele><time>2026-04-19T11:21:52.001Z</time></trkpt><trkpt lat="43.45521563381293" lon="10.723862554948381"><ele>183.0</ele><time>2026-04-19T11:21:54.001Z</time></trkpt><trkpt lat="43.45527323445806" lon="10.72395057146255"><ele>183.0</ele><time>2026-04-19T11:21:56.001Z</time></trkpt><trkpt lat="43.455322457098376" lon="10.72403157109911"><ele>183.0</ele><time>2026-04-19T11:21:58.001Z</time></trkpt><trkpt lat="43.45539758069749" lon="10.724162751092685"><ele>183.0</ele><time>2026-04-19T11:22:00.001Z</time></trkpt><trkpt lat="43.45544042438573" lon="10.724232131590053"><ele>182.2</ele><time>2026-04-19T11:22:01.001Z</time></trkpt><trkpt lat="43.45548268160226" lon="10.724298598149739"><ele>181.4</ele><time>2026-04-19T11:22:02.001Z</time></trkpt><trkpt lat="43.455528811583626" lon="10.72436228061675"><ele>180.6</ele><time>2026-04-19T11:22:03.001Z</time></trkpt><trkpt lat="43.45561607688776" lon="10.724476180946677"><ele>179.79999999999998</ele><time>2026-04-19T11:22:05.001Z</time></trkpt><trkpt lat="43.45569871211413" lon="10.724587837529308"><ele>179.0</ele><time>2026-04-19T11:22:07.001Z</time></trkpt><trkpt lat="43.45577532836522" lon="10.724704604046451"><ele>179.0</ele><time>2026-04-19T11:22:09.001Z</time></trkpt><trkpt lat="43.45585601214717" lon="10.724827971385333"><ele>179.0</ele><time>2026-04-19T11:22:11.001Z</time></trkpt><trkpt lat="43.45593874160216" lon="10.724948971029749"><ele>179.0</ele><time>2026-04-19T11:22:13.001Z</time></trkpt><trkpt lat="43.456019447983444" lon="10.725065304845252"><ele>179.0</ele><time>2026-04-19T11:22:15.001Z</time></trkpt><trkpt lat="43.456093609941355" lon="10.725171286318368"><ele>177.5</ele><time>2026-04-19T11:22:17.001Z</time></trkpt><trkpt lat="43.456161839275396" lon="10.72526833054507"><ele>176.0</ele><time>2026-04-19T11:22:19.001Z</time></trkpt><trkpt lat="43.45622217723388" lon="10.725359916467132"><ele>174.5</ele><time>2026-04-19T11:22:21.001Z</time></trkpt><trkpt lat="43.45626896845827" lon="10.725451655485541"><ele>173.0</ele><time>2026-04-19T11:22:23.001Z</time></trkpt><trkpt lat="43.45631916764022" lon="10.72551817961429"><ele>171.5</ele><time>2026-04-19T11:22:25.001Z</time></trkpt><trkpt lat="43.45639687840739" lon="10.725594267927116"><ele>170.0</ele><time>2026-04-19T11:22:28.002Z</time></trkpt><trkpt lat="43.456447889701884" lon="10.725676194369994"><ele>169.6</ele><time>2026-04-19T11:22:30.002Z</time></trkpt><trkpt lat="43.45651821718352" lon="10.725771283321102"><ele>169.2</ele><time>2026-04-19T11:22:32.002Z</time></trkpt><trkpt lat="43.45657320297851" lon="10.725856542955965"><ele>168.8</ele><time>2026-04-19T11:22:34.002Z</time></trkpt><trkpt lat="43.45664774605227" lon="10.725973472165379"><ele>168.4</ele><time>2026-04-19T11:22:36.002Z</time></trkpt><trkpt lat="43.45673029919001" lon="10.726093891456259"><ele>168.0</ele><time>2026-04-19T11:22:38.002Z</time></trkpt><trkpt lat="43.45680340018883" lon="10.726221545083233"><ele>166.8</ele><time>2026-04-19T11:22:40.002Z</time></trkpt><trkpt lat="43.45683583262254" lon="10.726298084265064"><ele>165.60000000000002</ele><time>2026-04-19T11:22:41.002Z</time></trkpt><trkpt lat="43.45690705109857" lon="10.726413951816298"><ele>164.39999999999998</ele><time>2026-04-19T11:22:43Z</time></trkpt><trkpt lat="43.4569773109938" lon="10.726537338478096"><ele>163.2</ele><time>2026-04-19T11:22:45Z</time></trkpt><trkpt lat="43.45704318481393" lon="10.726672883954036"><ele>162.0</ele><time>2026-04-19T11:22:47Z</time></trkpt><trkpt lat="43.45710514544784" lon="10.726800648619077"><ele>161.4</ele><time>2026-04-19T11:22:49Z</time></trkpt><trkpt lat="43.45716357919995" lon="10.726894196609317"><ele>160.79999999999998</ele><time>2026-04-19T11:22:51Z</time></trkpt><trkpt lat="43.457174920909836" lon="10.727017255458271"><ele>160.2</ele><time>2026-04-19T11:22:53Z</time></trkpt><trkpt lat="43.45721596810124" lon="10.727169847452314"><ele>159.6</ele><time>2026-04-19T11:22:55Z</time></trkpt><trkpt lat="43.45725110998665" lon="10.72731813633703"><ele>159.0</ele><time>2026-04-19T11:22:57Z</time></trkpt><trkpt lat="43.457285810609584" lon="10.72746439431385"><ele>159.0</ele><time>2026-04-19T11:22:59Z</time></trkpt><trkpt lat="43.457325460453625" lon="10.727596206511011"><ele>159.0</ele><time>2026-04-19T11:23:01Z</time></trkpt><trkpt lat="43.45734843963012" lon="10.727749164191007"><ele>159.0</ele><time>2026-04-19T11:23:03Z</time></trkpt><trkpt lat="43.45737940482945" lon="10.727904797464845"><ele>159.0</ele><time>2026-04-19T11:23:05Z</time></trkpt><trkpt lat="43.45739853982227" lon="10.727990208462778"><ele>159.0</ele><time>2026-04-19T11:23:06Z</time></trkpt><trkpt lat="43.45742058148471" lon="10.728075008899731"><ele>158.6</ele><time>2026-04-19T11:23:07Z</time></trkpt><trkpt lat="43.45745176703336" lon="10.728226364616269"><ele>158.2</ele><time>2026-04-19T11:23:09Z</time></trkpt><trkpt lat="43.457491493494516" lon="10.728383761800647"><ele>157.79999999999998</ele><time>2026-04-19T11:23:11Z</time></trkpt><trkpt lat="43.457505948641" lon="10.72850041219289"><ele>157.4</ele><time>2026-04-19T11:23:13Z</time></trkpt><trkpt lat="43.45752979609797" lon="10.72862534186083"><ele>157.0</ele><time>2026-04-19T11:23:41.001Z</time></trkpt><trkpt lat="43.45755300947617" lon="10.728734804077597"><ele>156.5</ele><time>2026-04-19T11:23:43.001Z</time></trkpt><trkpt lat="43.45757664534652" lon="10.728860972856355"><ele>156.0</ele><time>2026-04-19T11:23:45.001Z</time></trkpt><trkpt lat="43.45760137432884" lon="10.728979516488705"><ele>155.5</ele><time>2026-04-19T11:23:47.001Z</time></trkpt><trkpt lat="43.45762242151296" lon="10.729099965422158"><ele>155.0</ele><time>2026-04-19T11:23:49.001Z</time></trkpt><trkpt lat="43.457640440463216" lon="10.72920647300028"><ele>154.5</ele><time>2026-04-19T11:23:51.001Z</time></trkpt><trkpt lat="43.45766300146579" lon="10.729300888632753"><ele>154.0</ele><time>2026-04-19T11:23:53.001Z</time></trkpt><trkpt lat="43.45769323303544" lon="10.729417322202094"><ele>153.16666666666669</ele><time>2026-04-19T11:23:55.001Z</time></trkpt><trkpt lat="43.45771285503742" lon="10.729551963286895"><ele>152.33333333333334</ele><time>2026-04-19T11:23:57.001Z</time></trkpt><trkpt lat="43.45771751621645" lon="10.729686569429902"><ele>151.5</ele><time>2026-04-19T11:23:59.001Z</time></trkpt><trkpt lat="43.45771342220919" lon="10.729797032370987"><ele>150.66666666666666</ele><time>2026-04-19T11:24:02.001Z</time></trkpt><trkpt lat="43.45768695092306" lon="10.729877457536915"><ele>149.83333333333331</ele><time>2026-04-19T11:24:04.001Z</time></trkpt><trkpt lat="43.45764445105881" lon="10.729946766043927"><ele>149.0</ele><time>2026-04-19T11:24:06.001Z</time></trkpt><trkpt lat="43.45758405637968" lon="10.730024824443479"><ele>149.0</ele><time>2026-04-19T11:24:08.001Z</time></trkpt><trkpt lat="43.457535783956274" lon="10.73008513817124"><ele>149.0</ele><time>2026-04-19T11:24:10.001Z</time></trkpt><trkpt lat="43.45748535268076" lon="10.730146786078715"><ele>149.0</ele><time>2026-04-19T11:24:12.001Z</time></trkpt><trkpt lat="43.457416291673994" lon="10.730235965968868"><ele>149.0</ele><time>2026-04-19T11:24:14.001Z</time></trkpt><trkpt lat="43.4573417396309" lon="10.730337071696201"><ele>149.0</ele><time>2026-04-19T11:24:16.001Z</time></trkpt><trkpt lat="43.457254254283335" lon="10.730438025318813"><ele>149.0</ele><time>2026-04-19T11:24:18.001Z</time></trkpt><trkpt lat="43.45716400520405" lon="10.730554451550395"><ele>146.5</ele><time>2026-04-19T11:24:20.001Z</time></trkpt><trkpt lat="43.45707460294558" lon="10.730657971659692"><ele>144.0</ele><time>2026-04-19T11:24:22.001Z</time></trkpt><trkpt lat="43.45702222849662" lon="10.730725717981555"><ele>141.5</ele><time>2026-04-19T11:24:23.001Z</time></trkpt><trkpt lat="43.4569710668286" lon="10.730791046216368"><ele>139.0</ele><time>2026-04-19T11:24:24.001Z</time></trkpt><trkpt lat="43.456924494239324" lon="10.730857488091303"><ele>136.5</ele><time>2026-04-19T11:24:25.001Z</time></trkpt><trkpt lat="43.456870836211564" lon="10.730923191276508"><ele>134.0</ele><time>2026-04-19T11:24:26.001Z</time></trkpt><trkpt lat="43.45681726982282" lon="10.730986188256324"><ele>134.0</ele><time>2026-04-19T11:24:27.001Z</time></trkpt><trkpt lat="43.456764910151946" lon="10.731049045850222"><ele>134.0</ele><time>2026-04-19T11:24:28.001Z</time></trkpt><trkpt lat="43.45668127693584" lon="10.731163846923247"><ele>134.0</ele><time>2026-04-19T11:24:30.002Z</time></trkpt><trkpt lat="43.45660629691993" lon="10.731266026813454"><ele>134.0</ele><time>2026-04-19T11:24:32.002Z</time></trkpt><trkpt lat="43.45654662563552" lon="10.731337859860202"><ele>134.0</ele><time>2026-04-19T11:24:34.002Z</time></trkpt><trkpt lat="43.45649431436264" lon="10.731406128175049"><ele>134.0</ele><time>2026-04-19T11:24:36.002Z</time></trkpt><trkpt lat="43.45644120979555" lon="10.731507567661406"><ele>133.16666666666666</ele><time>2026-04-19T11:24:38.002Z</time></trkpt><trkpt lat="43.456380456179645" lon="10.731588305420704"><ele>132.33333333333331</ele><time>2026-04-19T11:24:40.002Z</time></trkpt><trkpt lat="43.456305306483145" lon="10.731686934272846"><ele>131.5</ele><time>2026-04-19T11:24:42.002Z</time></trkpt><trkpt lat="43.45623554924137" lon="10.731774925558573"><ele>130.66666666666666</ele><time>2026-04-19T11:24:44.002Z</time></trkpt><trkpt lat="43.45619221412195" lon="10.731839019242281"><ele>129.83333333333334</ele><time>2026-04-19T11:24:47.002Z</time></trkpt><trkpt lat="43.456137895095544" lon="10.731890059253342"><ele>129.0</ele><time>2026-04-19T11:24:52Z</time></trkpt><trkpt lat="43.45605472565068" lon="10.731827714142787"><ele>128.33333333333334</ele><time>2026-04-19T11:24:54Z</time></trkpt><trkpt lat="43.45600271850205" lon="10.731776396217196"><ele>127.66666666666666</ele><time>2026-04-19T11:24:55Z</time></trkpt><trkpt lat="43.455950201916764" lon="10.731725337911739"><ele>127.0</ele><time>2026-04-19T11:24:56Z</time></trkpt><trkpt lat="43.45589057499409" lon="10.731643258319226"><ele>126.33333333333333</ele><time>2026-04-19T11:24:57Z</time></trkpt><trkpt lat="43.45580972080565" lon="10.731600511432736"><ele>125.66666666666666</ele><time>2026-04-19T11:24:58Z</time></trkpt><trkpt lat="43.455743549299946" lon="10.731518781459075"><ele>125.0</ele><time>2026-04-19T11:24:59Z</time></trkpt><trkpt lat="43.45566192810286" lon="10.73144967821711"><ele>125.0</ele><time>2026-04-19T11:25:00Z</time></trkpt><trkpt lat="43.45558237643063" lon="10.731382186859387"><ele>125.0</ele><time>2026-04-19T11:25:01Z</time></trkpt><trkpt lat="43.455486240061326" lon="10.731327270641035"><ele>125.0</ele><time>2026-04-19T11:25:02Z</time></trkpt><trkpt lat="43.45539568449093" lon="10.731249591712105"><ele>125.0</ele><time>2026-04-19T11:25:03Z</time></trkpt><trkpt lat="43.45530350005568" lon="10.731170242422772"><ele>125.0</ele><time>2026-04-19T11:25:04Z</time></trkpt><trkpt lat="43.45521840244757" lon="10.731071762643884"><ele>125.2</ele><time>2026-04-19T11:25:05Z</time></trkpt><trkpt lat="43.45511942785783" lon="10.731011842405112"><ele>125.4</ele><time>2026-04-19T11:25:06Z</time></trkpt><trkpt lat="43.45502605649859" lon="10.730933798763106"><ele>125.6</ele><time>2026-04-19T11:25:07Z</time></trkpt><trkpt lat="43.45494271279544" lon="10.730837346947952"><ele>125.8</ele><time>2026-04-19T11:25:08Z</time></trkpt><trkpt lat="43.45484612103651" lon="10.73077584329946"><ele>126.0</ele><time>2026-04-19T11:25:09Z</time></trkpt><trkpt lat="43.45475425789509" lon="10.730703266590853"><ele>126.0</ele><time>2026-04-19T11:25:10Z</time></trkpt><trkpt lat="43.45466845089102" lon="10.730625176677579"><ele>126.0</ele><time>2026-04-19T11:25:11Z</time></trkpt><trkpt lat="43.454579780667466" lon="10.73055258462407"><ele>126.0</ele><time>2026-04-19T11:25:12Z</time></trkpt><trkpt lat="43.4544914765256" lon="10.730479739790793"><ele>126.0</ele><time>2026-04-19T11:25:13Z</time></trkpt><trkpt lat="43.45440164559003" lon="10.730398537487693"><ele>126.0</ele><time>2026-04-19T11:25:14Z</time></trkpt><trkpt lat="43.45431013988855" lon="10.730322869195868"><ele>125.8</ele><time>2026-04-19T11:25:15Z</time></trkpt><trkpt lat="43.454220443689344" lon="10.730246372369104"><ele>125.6</ele><time>2026-04-19T11:25:16Z</time></trkpt><trkpt lat="43.45412335789288" lon="10.730167702292833"><ele>125.4</ele><time>2026-04-19T11:25:17Z</time></trkpt><trkpt lat="43.454025164485195" lon="10.730086642231225"><ele>125.2</ele><time>2026-04-19T11:25:18Z</time></trkpt><trkpt lat="43.45393659104797" lon="10.729984620214966"><ele>125.0</ele><time>2026-04-19T11:25:19Z</time></trkpt><trkpt lat="43.453829277665534" lon="10.729920645895492"><ele>125.75</ele><time>2026-04-19T11:25:20Z</time></trkpt><trkpt lat="43.45373251968286" lon="10.729826340008376"><ele>126.5</ele><time>2026-04-19T11:25:21Z</time></trkpt><trkpt lat="43.45363024177945" lon="10.729736432273596"><ele>127.25</ele><time>2026-04-19T11:25:22Z</time></trkpt><trkpt lat="43.45352536903421" lon="10.729644037083705"><ele>128.0</ele><time>2026-04-19T11:25:23Z</time></trkpt><trkpt lat="43.45342428926623" lon="10.72955705320277"><ele>128.0</ele><time>2026-04-19T11:25:24Z</time></trkpt><trkpt lat="43.45332450278458" lon="10.729473759262673"><ele>128.0</ele><time>2026-04-19T11:25:25Z</time></trkpt><trkpt lat="43.45322617719798" lon="10.729390753718533"><ele>128.0</ele><time>2026-04-19T11:25:26.001Z</time></trkpt><trkpt lat="43.45312404694005" lon="10.72932188044133"><ele>128.0</ele><time>2026-04-19T11:25:27.001Z</time></trkpt><trkpt lat="43.45301886017697" lon="10.729262986296682"><ele>129.0</ele><time>2026-04-19T11:25:28.001Z</time></trkpt><trkpt lat="43.45290591158803" lon="10.729209926409153"><ele>130.0</ele><time>2026-04-19T11:25:29.001Z</time></trkpt><trkpt lat="43.45279492120555" lon="10.729152238104186"><ele>131.0</ele><time>2026-04-19T11:25:30.001Z</time></trkpt><trkpt lat="43.45266774246967" lon="10.729094555818785"><ele>132.0</ele><time>2026-04-19T11:25:31.001Z</time></trkpt><trkpt lat="43.45254644828685" lon="10.729040303712528"><ele>132.0</ele><time>2026-04-19T11:25:32.001Z</time></trkpt><trkpt lat="43.452428767060006" lon="10.72898819598003"><ele>132.0</ele><time>2026-04-19T11:25:33.001Z</time></trkpt><trkpt lat="43.4523147996995" lon="10.728935290401674"><ele>132.0</ele><time>2026-04-19T11:25:34.001Z</time></trkpt><trkpt lat="43.45220348363125" lon="10.728883678759026"><ele>132.0</ele><time>2026-04-19T11:25:35.001Z</time></trkpt><trkpt lat="43.45209969406109" lon="10.72883422387281"><ele>132.5</ele><time>2026-04-19T11:25:36.001Z</time></trkpt><trkpt lat="43.451995843847996" lon="10.728784945731416"><ele>133.0</ele><time>2026-04-19T11:25:37.001Z</time></trkpt><trkpt lat="43.451880345633846" lon="10.728733350622736"><ele>133.5</ele><time>2026-04-19T11:25:38.001Z</time></trkpt><trkpt lat="43.4517600931758" lon="10.72867689105598"><ele>134.0</ele><time>2026-04-19T11:25:39.001Z</time></trkpt><trkpt lat="43.451638974205544" lon="10.728622030498594"><ele>134.0</ele><time>2026-04-19T11:25:40.001Z</time></trkpt><trkpt lat="43.451520586946124" lon="10.728570164002011"><ele>134.0</ele><time>2026-04-19T11:25:41.001Z</time></trkpt><trkpt lat="43.45139734869659" lon="10.728523352293978"><ele>134.0</ele><time>2026-04-19T11:25:42.001Z</time></trkpt><trkpt lat="43.45127046500445" lon="10.728508111090862"><ele>134.0</ele><time>2026-04-19T11:25:43.001Z</time></trkpt><trkpt lat="43.45114682060727" lon="10.72851696266048"><ele>134.5</ele><time>2026-04-19T11:25:44.001Z</time></trkpt><trkpt lat="43.451023651094246" lon="10.72854607825637"><ele>135.0</ele><time>2026-04-19T11:25:45.001Z</time></trkpt><trkpt lat="43.45090142392221" lon="10.728605513938387"><ele>135.5</ele><time>2026-04-19T11:25:46.001Z</time></trkpt><trkpt lat="43.45077941528004" lon="10.72868130762553"><ele>136.0</ele><time>2026-04-19T11:25:47.001Z</time></trkpt><trkpt lat="43.450654662981314" lon="10.728770300476825"><ele>137.0</ele><time>2026-04-19T11:25:48.001Z</time></trkpt><trkpt lat="43.450524908168525" lon="10.72886183831465"><ele>138.0</ele><time>2026-04-19T11:25:49.001Z</time></trkpt><trkpt lat="43.45039495642697" lon="10.728951836034152"><ele>139.0</ele><time>2026-04-19T11:25:50.001Z</time></trkpt><trkpt lat="43.45026685028656" lon="10.729038500817312"><ele>140.0</ele><time>2026-04-19T11:25:51.001Z</time></trkpt><trkpt lat="43.45013703897432" lon="10.729127581837659"><ele>140.75</ele><time>2026-04-19T11:25:52.001Z</time></trkpt><trkpt lat="43.45001254556742" lon="10.729214233642816"><ele>141.5</ele><time>2026-04-19T11:25:53.001Z</time></trkpt><trkpt lat="43.449896004903664" lon="10.72929499890786"><ele>142.25</ele><time>2026-04-19T11:25:54.001Z</time></trkpt><trkpt lat="43.449792666088264" lon="10.729379246929629"><ele>143.0</ele><time>2026-04-19T11:25:55.001Z</time></trkpt><trkpt lat="43.44970589904425" lon="10.729485571224169"><ele>144.75</ele><time>2026-04-19T11:25:56.001Z</time></trkpt><trkpt lat="43.449636078468416" lon="10.729617962101997"><ele>146.5</ele><time>2026-04-19T11:25:57.001Z</time></trkpt><trkpt lat="43.449604297980656" lon="10.729776736087473"><ele>148.25</ele><time>2026-04-19T11:25:58.001Z</time></trkpt><trkpt lat="43.449583445667955" lon="10.729941011572196"><ele>150.0</ele><time>2026-04-19T11:25:59.001Z</time></trkpt><trkpt lat="43.449546427471724" lon="10.730086921515273"><ele>150.0</ele><time>2026-04-19T11:26:00.001Z</time></trkpt><trkpt lat="43.4494854346138" lon="10.730205850390254"><ele>150.0</ele><time>2026-04-19T11:26:01.001Z</time></trkpt><trkpt lat="43.449395522217614" lon="10.730289814742445"><ele>150.0</ele><time>2026-04-19T11:26:02.001Z</time></trkpt><trkpt lat="43.44928873287943" lon="10.73031271122109"><ele>150.0</ele><time>2026-04-19T11:26:03.001Z</time></trkpt><trkpt lat="43.44919753155554" lon="10.730251892677618"><ele>150.0</ele><time>2026-04-19T11:26:04.001Z</time></trkpt><trkpt lat="43.44909698856299" lon="10.730203782077709"><ele>150.0</ele><time>2026-04-19T11:26:05.001Z</time></trkpt><trkpt lat="43.44898068914967" lon="10.730164849929608"><ele>150.0</ele><time>2026-04-19T11:26:06.001Z</time></trkpt><trkpt lat="43.44886059198221" lon="10.730100952086298"><ele>150.0</ele><time>2026-04-19T11:26:07.001Z</time></trkpt><trkpt lat="43.4487407255215" lon="10.730034754672854"><ele>150.0</ele><time>2026-04-19T11:26:08.001Z</time></trkpt><trkpt lat="43.44863424548858" lon="10.729947925370375"><ele>152.0</ele><time>2026-04-19T11:26:09.001Z</time></trkpt><trkpt lat="43.4485117413323" lon="10.729888032750527"><ele>154.0</ele><time>2026-04-19T11:26:10.001Z</time></trkpt><trkpt lat="43.44839847512045" lon="10.729791905588444"><ele>156.0</ele><time>2026-04-19T11:26:11.001Z</time></trkpt><trkpt lat="43.4482871853752" lon="10.729678148850255"><ele>158.0</ele><time>2026-04-19T11:26:12.001Z</time></trkpt><trkpt lat="43.44817893081927" lon="10.729547050706659"><ele>158.0</ele><time>2026-04-19T11:26:13.001Z</time></trkpt><trkpt lat="43.44807195823435" lon="10.729406772065047"><ele>158.0</ele><time>2026-04-19T11:26:14.001Z</time></trkpt><trkpt lat="43.447976102671845" lon="10.729245729522507"><ele>158.0</ele><time>2026-04-19T11:26:15.002Z</time></trkpt><trkpt lat="43.447869604947506" lon="10.729098239149375"><ele>159.75</ele><time>2026-04-19T11:26:16.002Z</time></trkpt><trkpt lat="43.447753526098325" lon="10.728964825528015"><ele>161.5</ele><time>2026-04-19T11:26:17.002Z</time></trkpt><trkpt lat="43.447656687399416" lon="10.728809297308192"><ele>163.25</ele><time>2026-04-19T11:26:18.002Z</time></trkpt><trkpt lat="43.44759087194949" lon="10.728626351341983"><ele>165.0</ele><time>2026-04-19T11:26:19.002Z</time></trkpt><trkpt lat="43.44751946287196" lon="10.72844686048768"><ele>165.0</ele><time>2026-04-19T11:26:20.002Z</time></trkpt><trkpt lat="43.44744788907252" lon="10.728263315378332"><ele>165.0</ele><time>2026-04-19T11:26:21.002Z</time></trkpt><trkpt lat="43.447362273471335" lon="10.728085385416344"><ele>165.0</ele><time>2026-04-19T11:26:22.002Z</time></trkpt><trkpt lat="43.44729300494408" lon="10.727898261422238"><ele>164.75</ele><time>2026-04-19T11:26:23.002Z</time></trkpt><trkpt lat="43.44724118753777" lon="10.727705683049845"><ele>164.5</ele><time>2026-04-19T11:26:24.002Z</time></trkpt><trkpt lat="43.447160088593186" lon="10.727530396098723"><ele>164.25</ele><time>2026-04-19T11:26:25.002Z</time></trkpt><trkpt lat="43.44709157406361" lon="10.727347603384873"><ele>164.0</ele><time>2026-04-19T11:26:26.002Z</time></trkpt><trkpt lat="43.44702295867521" lon="10.727165304070857"><ele>166.0</ele><time>2026-04-19T11:26:27.002Z</time></trkpt><trkpt lat="43.44695523817139" lon="10.726984510807085"><ele>168.0</ele><time>2026-04-19T11:26:28.002Z</time></trkpt><trkpt lat="43.44690613773956" lon="10.726792199542691"><ele>170.0</ele><time>2026-04-19T11:26:29.002Z</time></trkpt><trkpt lat="43.44683484461198" lon="10.726609369110664"><ele>172.0</ele><time>2026-04-19T11:26:30.002Z</time></trkpt><trkpt lat="43.44677984176667" lon="10.72641214963105"><ele>172.5</ele><time>2026-04-19T11:26:31.002Z</time></trkpt><trkpt lat="43.44672342750949" lon="10.726215235811003"><ele>173.0</ele><time>2026-04-19T11:26:32.002Z</time></trkpt><trkpt lat="43.44666830466641" lon="10.726026391437017"><ele>173.5</ele><time>2026-04-19T11:26:33.002Z</time></trkpt><trkpt lat="43.44661119615525" lon="10.725842408033499"><ele>174.0</ele><time>2026-04-19T11:26:34.002Z</time></trkpt><trkpt lat="43.446550861279334" lon="10.725657623172367"><ele>174.0</ele><time>2026-04-19T11:26:35.002Z</time></trkpt><trkpt lat="43.44650638427185" lon="10.725465305343642"><ele>174.0</ele><time>2026-04-19T11:26:36.002Z</time></trkpt><trkpt lat="43.446437128707345" lon="10.725298608701486"><ele>174.0</ele><time>2026-04-19T11:26:37.002Z</time></trkpt><trkpt lat="43.446390747619866" lon="10.725125997017523"><ele>174.0</ele><time>2026-04-19T11:26:38.002Z</time></trkpt><trkpt lat="43.44637173270665" lon="10.724952457861002"><ele>174.0</ele><time>2026-04-19T11:26:39.002Z</time></trkpt><trkpt lat="43.44637174262786" lon="10.724777006241926"><ele>174.0</ele><time>2026-04-19T11:26:40.002Z</time></trkpt><trkpt lat="43.446406837957454" lon="10.724602263358397"><ele>174.0</ele><time>2026-04-19T11:26:41.002Z</time></trkpt><trkpt lat="43.446454662087255" lon="10.72442645431397"><ele>174.0</ele><time>2026-04-19T11:26:42.002Z</time></trkpt><trkpt lat="43.44649594423737" lon="10.724258800260754"><ele>175.25</ele><time>2026-04-19T11:26:43.002Z</time></trkpt><trkpt lat="43.446516908247546" lon="10.724089971681463"><ele>176.5</ele><time>2026-04-19T11:26:44.002Z</time></trkpt><trkpt lat="43.446503347654975" lon="10.723915659269162"><ele>177.75</ele><time>2026-04-19T11:26:45.002Z</time></trkpt><trkpt lat="43.446460107382826" lon="10.723744272236848"><ele>179.0</ele><time>2026-04-19T11:26:46.002Z</time></trkpt><trkpt lat="43.44639540020413" lon="10.72357958171298"><ele>179.75</ele><time>2026-04-19T11:26:47.002Z</time></trkpt><trkpt lat="43.44633204337439" lon="10.723406775847941"><ele>180.5</ele><time>2026-04-19T11:26:48.002Z</time></trkpt><trkpt lat="43.446268368201274" lon="10.72322263704532"><ele>181.25</ele><time>2026-04-19T11:26:49.002Z</time></trkpt><trkpt lat="43.44620294261209" lon="10.723032455258979"><ele>182.0</ele><time>2026-04-19T11:26:50.002Z</time></trkpt><trkpt lat="43.44613972172674" lon="10.722842512081352"><ele>184.66666666666666</ele><time>2026-04-19T11:26:51.002Z</time></trkpt><trkpt lat="43.44607415227368" lon="10.722654096484987"><ele>187.33333333333334</ele><time>2026-04-19T11:26:52.002Z</time></trkpt><trkpt lat="43.44599225238515" lon="10.722487467905529"><ele>190.0</ele><time>2026-04-19T11:26:53.002Z</time></trkpt><trkpt lat="43.44589500252069" lon="10.722326284565193"><ele>190.0</ele><time>2026-04-19T11:26:54.002Z</time></trkpt><trkpt lat="43.44579263297378" lon="10.722174096207576"><ele>190.0</ele><time>2026-04-19T11:26:55Z</time></trkpt><trkpt lat="43.445698100069585" lon="10.722032843277423"><ele>190.0</ele><time>2026-04-19T11:26:56Z</time></trkpt><trkpt lat="43.445617396852604" lon="10.721880283207303"><ele>190.0</ele><time>2026-04-19T11:26:57Z</time></trkpt><trkpt lat="43.445562953372935" lon="10.72171194054448"><ele>190.0</ele><time>2026-04-19T11:26:58Z</time></trkpt><trkpt lat="43.445525968415744" lon="10.721532403726867"><ele>190.0</ele><time>2026-04-19T11:26:59Z</time></trkpt><trkpt lat="43.445508540904626" lon="10.721342968814943"><ele>190.0</ele><time>2026-04-19T11:27:00Z</time></trkpt><trkpt lat="43.445520419741605" lon="10.721145485741419"><ele>190.0</ele><time>2026-04-19T11:27:01Z</time></trkpt><trkpt lat="43.445551795760174" lon="10.720966451398073"><ele>191.2</ele><time>2026-04-19T11:27:02Z</time></trkpt><trkpt lat="43.44559169699095" lon="10.720803554173878"><ele>192.4</ele><time>2026-04-19T11:27:03Z</time></trkpt><trkpt lat="43.4456262981473" lon="10.720659335757231"><ele>193.60000000000002</ele><time>2026-04-19T11:27:04Z</time></trkpt><trkpt lat="43.44564437642031" lon="10.720530019898606"><ele>194.8</ele><time>2026-04-19T11:27:05Z</time></trkpt><trkpt lat="43.445642696159325" lon="10.720401410683916"><ele>196.0</ele><time>2026-04-19T11:27:06Z</time></trkpt><trkpt lat="43.44561625603893" lon="10.720269782866778"><ele>196.0</ele><time>2026-04-19T11:27:07Z</time></trkpt><trkpt lat="43.44556424554704" lon="10.720142962659365"><ele>196.0</ele><time>2026-04-19T11:27:08Z</time></trkpt><trkpt lat="43.44549437995324" lon="10.720040808727227"><ele>196.0</ele><time>2026-04-19T11:27:09Z</time></trkpt><trkpt lat="43.44541623236034" lon="10.719973199176902"><ele>196.0</ele><time>2026-04-19T11:27:10Z</time></trkpt><trkpt lat="43.44532168190673" lon="10.719954288470118"><ele>196.0</ele><time>2026-04-19T11:27:11Z</time></trkpt><trkpt lat="43.44522459861887" lon="10.719980482318316"><ele>197.4</ele><time>2026-04-19T11:27:12Z</time></trkpt><trkpt lat="43.44513318380302" lon="10.720049170364398"><ele>198.8</ele><time>2026-04-19T11:27:13Z</time></trkpt><trkpt lat="43.44503894599036" lon="10.720123405536121"><ele>200.20000000000002</ele><time>2026-04-19T11:27:14Z</time></trkpt><trkpt lat="43.444943227385146" lon="10.720194467520772"><ele>201.60000000000002</ele><time>2026-04-19T11:27:15Z</time></trkpt><trkpt lat="43.44485740080792" lon="10.720283212474323"><ele>203.0</ele><time>2026-04-19T11:27:16Z</time></trkpt><trkpt lat="43.4447835689169" lon="10.72040683265448"><ele>203.0</ele><time>2026-04-19T11:27:17Z</time></trkpt><trkpt lat="43.444738362383035" lon="10.720552918207384"><ele>203.0</ele><time>2026-04-19T11:27:18Z</time></trkpt><trkpt lat="43.44470390266338" lon="10.720692318514953"><ele>203.0</ele><time>2026-04-19T11:27:19Z</time></trkpt><trkpt lat="43.4446429437363" lon="10.720810252531802"><ele>203.0</ele><time>2026-04-19T11:27:20Z</time></trkpt><trkpt lat="43.4445552104794" lon="10.720894926087679"><ele>203.0</ele><time>2026-04-19T11:27:21.001Z</time></trkpt><trkpt lat="43.44444802078975" lon="10.720954040021477"><ele>206.5</ele><time>2026-04-19T11:27:22.001Z</time></trkpt><trkpt lat="43.444333477288374" lon="10.721000499407381"><ele>210.0</ele><time>2026-04-19T11:27:23.001Z</time></trkpt><trkpt lat="43.444212363092625" lon="10.721028140246268"><ele>213.5</ele><time>2026-04-19T11:27:24.001Z</time></trkpt><trkpt lat="43.44410410468264" lon="10.721041192231944"><ele>217.0</ele><time>2026-04-19T11:27:25.001Z</time></trkpt><trkpt lat="43.44400412345014" lon="10.721048029757995"><ele>216.99999999999997</ele><time>2026-04-19T11:27:26.001Z</time></trkpt><trkpt lat="43.44391004497393" lon="10.721062042166485"><ele>217.0</ele><time>2026-04-19T11:27:27.001Z</time></trkpt><trkpt lat="43.44382233953927" lon="10.721071892332692"><ele>217.0</ele><time>2026-04-19T11:27:28.001Z</time></trkpt><trkpt lat="43.44373738378594" lon="10.721082638919455"><ele>217.0</ele><time>2026-04-19T11:27:29.001Z</time></trkpt><trkpt lat="43.44365207578321" lon="10.721099617420435"><ele>216.99999999999997</ele><time>2026-04-19T11:27:30.001Z</time></trkpt><trkpt lat="43.44357866999952" lon="10.721134258654871"><ele>217.0</ele><time>2026-04-19T11:27:31.001Z</time></trkpt><trkpt lat="43.443516647392386" lon="10.721178137570135"><ele>217.49999999999997</ele><time>2026-04-19T11:27:32.001Z</time></trkpt><trkpt lat="43.44345620349325" lon="10.72122484559948"><ele>218.0</ele><time>2026-04-19T11:27:33.001Z</time></trkpt><trkpt lat="43.44339192212641" lon="10.721275619838467"><ele>218.5</ele><time>2026-04-19T11:27:34.001Z</time></trkpt><trkpt lat="43.44333407138393" lon="10.721324683373512"><ele>219.0</ele><time>2026-04-19T11:27:35.001Z</time></trkpt><trkpt lat="43.44327536984904" lon="10.721375740765495"><ele>219.49999999999997</ele><time>2026-04-19T11:27:36.001Z</time></trkpt><trkpt lat="43.44320052156575" lon="10.721434242437157"><ele>220.0</ele><time>2026-04-19T11:27:37.001Z</time></trkpt><trkpt lat="43.443106353224834" lon="10.721501596402774"><ele>220.0</ele><time>2026-04-19T11:27:38.001Z</time></trkpt><trkpt lat="43.4430040934053" lon="10.721557152852487"><ele>220.0</ele><time>2026-04-19T11:27:39.001Z</time></trkpt><trkpt lat="43.44290188471382" lon="10.721603520431254"><ele>220.0</ele><time>2026-04-19T11:27:40.001Z</time></trkpt><trkpt lat="43.44278926576296" lon="10.72165699790385"><ele>220.0</ele><time>2026-04-19T11:27:41.001Z</time></trkpt><trkpt lat="43.442676049854555" lon="10.72172065619426"><ele>220.2</ele><time>2026-04-19T11:27:42.001Z</time></trkpt><trkpt lat="43.44257100720228" lon="10.72179401398471"><ele>220.4</ele><time>2026-04-19T11:27:43.001Z</time></trkpt><trkpt lat="43.44247880051431" lon="10.721872119829472"><ele>220.60000000000002</ele><time>2026-04-19T11:27:44.001Z</time></trkpt><trkpt lat="43.4423932910646" lon="10.721950908355561"><ele>220.8</ele><time>2026-04-19T11:27:45.001Z</time></trkpt><trkpt lat="43.44232155293282" lon="10.722009509702856"><ele>221.0</ele><time>2026-04-19T11:27:46.001Z</time></trkpt><trkpt lat="43.44221317696293" lon="10.721992033637678"><ele>222.60000000000002</ele><time>2026-04-19T11:27:48.001Z</time></trkpt><trkpt lat="43.442206870729535" lon="10.721834459017016"><ele>224.20000000000002</ele><time>2026-04-19T11:27:50.001Z</time></trkpt><trkpt lat="43.442252607834845" lon="10.721755627963113"><ele>225.79999999999998</ele><time>2026-04-19T11:27:51.001Z</time></trkpt><trkpt lat="43.442291867510626" lon="10.72165795518094"><ele>227.39999999999998</ele><time>2026-04-19T11:27:52.001Z</time></trkpt><trkpt lat="43.44232203737648" lon="10.72152923751725"><ele>229.0</ele><time>2026-04-19T11:27:53.001Z</time></trkpt><trkpt lat="43.44234152302501" lon="10.721380773740707"><ele>229.0</ele><time>2026-04-19T11:27:54.001Z</time></trkpt><trkpt lat="43.442358150895245" lon="10.721228838549779"><ele>229.0</ele><time>2026-04-19T11:27:55.001Z</time></trkpt><trkpt lat="43.44238658073849" lon="10.721081121664444"><ele>229.0</ele><time>2026-04-19T11:27:56.001Z</time></trkpt><trkpt lat="43.442441416128496" lon="10.720937058833124"><ele>229.0</ele><time>2026-04-19T11:27:57.001Z</time></trkpt><trkpt lat="43.44252054018035" lon="10.720818554489158"><ele>231.0</ele><time>2026-04-19T11:27:58.001Z</time></trkpt><trkpt lat="43.442610213380796" lon="10.720716256296614"><ele>232.99999999999997</ele><time>2026-04-19T11:27:59.001Z</time></trkpt><trkpt lat="43.44269372713668" lon="10.720613952912869"><ele>234.99999999999997</ele><time>2026-04-19T11:28:00.001Z</time></trkpt><trkpt lat="43.44276347785074" lon="10.720490721774265"><ele>237.0</ele><time>2026-04-19T11:28:01.002Z</time></trkpt><trkpt lat="43.44281806588882" lon="10.720371058577951"><ele>239.0</ele><time>2026-04-19T11:28:02.002Z</time></trkpt><trkpt lat="43.44286757099033" lon="10.720269947283482"><ele>239.50000000000003</ele><time>2026-04-19T11:28:03.002Z</time></trkpt><trkpt lat="43.44290119392797" lon="10.720177937277258"><ele>240.0</ele><time>2026-04-19T11:28:04.002Z</time></trkpt><trkpt lat="43.442901244081014" lon="10.720086454454286"><ele>240.5</ele><time>2026-04-19T11:28:05.002Z</time></trkpt><trkpt lat="43.44286395408088" lon="10.72000670275066"><ele>241.0</ele><time>2026-04-19T11:28:06.002Z</time></trkpt><trkpt lat="43.442795085673836" lon="10.719964192543529"><ele>241.50000000000003</ele><time>2026-04-19T11:28:07.002Z</time></trkpt><trkpt lat="43.44271077226723" lon="10.719967182034235"><ele>242.0</ele><time>2026-04-19T11:28:08.002Z</time></trkpt><trkpt lat="43.44261889796325" lon="10.719980313860882"><ele>242.0</ele><time>2026-04-19T11:28:09.002Z</time></trkpt><trkpt lat="43.442527476615496" lon="10.719999602224382"><ele>242.0</ele><time>2026-04-19T11:28:10.002Z</time></trkpt><trkpt lat="43.4424359331389" lon="10.72003080707055"><ele>242.0</ele><time>2026-04-19T11:28:11.002Z</time></trkpt><trkpt lat="43.442337070842214" lon="10.720073294460944"><ele>242.0</ele><time>2026-04-19T11:28:12.002Z</time></trkpt><trkpt lat="43.442231970911756" lon="10.720120445008845"><ele>242.0</ele><time>2026-04-19T11:28:13.002Z</time></trkpt><trkpt lat="43.4421221371044" lon="10.720169179278189"><ele>243.25</ele><time>2026-04-19T11:28:14.002Z</time></trkpt><trkpt lat="43.44201328837332" lon="10.72021682425404"><ele>244.5</ele><time>2026-04-19T11:28:15.002Z</time></trkpt><trkpt lat="43.44189994388743" lon="10.72025020813865"><ele>245.75</ele><time>2026-04-19T11:28:16.002Z</time></trkpt><trkpt lat="43.44178018906439" lon="10.720253179519302"><ele>247.0</ele><time>2026-04-19T11:28:17.002Z</time></trkpt><trkpt lat="43.44166343248072" lon="10.720224358594644"><ele>247.5</ele><time>2026-04-19T11:28:18.002Z</time></trkpt><trkpt lat="43.44155927250987" lon="10.720166132696239"><ele>248.0</ele><time>2026-04-19T11:28:19.002Z</time></trkpt><trkpt lat="43.441464281157366" lon="10.720073271855632"><ele>248.5</ele><time>2026-04-19T11:28:20.002Z</time></trkpt><trkpt lat="43.441377415098934" lon="10.719955340660254"><ele>249.0</ele><time>2026-04-19T11:28:21.002Z</time></trkpt><trkpt lat="43.4412906359047" lon="10.719835802664138"><ele>250.5</ele><time>2026-04-19T11:28:22.002Z</time></trkpt><trkpt lat="43.44118846306536" lon="10.719733710031278"><ele>252.0</ele><time>2026-04-19T11:28:23.002Z</time></trkpt><trkpt lat="43.44107088415762" lon="10.719655208903529"><ele>253.5</ele><time>2026-04-19T11:28:24.002Z</time></trkpt><trkpt lat="43.440955644765346" lon="10.719582284839442"><ele>255.0</ele><time>2026-04-19T11:28:25.002Z</time></trkpt><trkpt lat="43.44085591933207" lon="10.719512201450602"><ele>255.0</ele><time>2026-04-19T11:28:26.002Z</time></trkpt><trkpt lat="43.44076141515255" lon="10.719444583012498"><ele>255.0</ele><time>2026-04-19T11:28:27.002Z</time></trkpt><trkpt lat="43.440660991147155" lon="10.719402334519575"><ele>255.0</ele><time>2026-04-19T11:28:28.002Z</time></trkpt><trkpt lat="43.44054871521034" lon="10.719407650393643"><ele>255.0</ele><time>2026-04-19T11:28:29.002Z</time></trkpt><trkpt lat="43.44043837728808" lon="10.719465607297137"><ele>255.0</ele><time>2026-04-19T11:28:30.002Z</time></trkpt><trkpt lat="43.44034062811934" lon="10.7195657950324"><ele>257.25</ele><time>2026-04-19T11:28:31.002Z</time></trkpt><trkpt lat="43.44023939211655" lon="10.719661895526755"><ele>259.5</ele><time>2026-04-19T11:28:32.002Z</time></trkpt><trkpt lat="43.44012592975419" lon="10.719714460853426"><ele>261.75</ele><time>2026-04-19T11:28:33.002Z</time></trkpt><trkpt lat="43.44000681944899" lon="10.71971730045261"><ele>264.0</ele><time>2026-04-19T11:28:34.002Z</time></trkpt><trkpt lat="43.43989638265462" lon="10.719673418458337"><ele>264.0</ele><time>2026-04-19T11:28:35.002Z</time></trkpt><trkpt lat="43.439798882250216" lon="10.719591396082691"><ele>264.0</ele><time>2026-04-19T11:28:36.002Z</time></trkpt><trkpt lat="43.439717967318515" lon="10.719466416748208"><ele>264.0</ele><time>2026-04-19T11:28:37.002Z</time></trkpt><trkpt lat="43.43963543096569" lon="10.719341748933036"><ele>264.0</ele><time>2026-04-19T11:28:38.002Z</time></trkpt><trkpt lat="43.43953688447952" lon="10.719249745983614"><ele>268.75</ele><time>2026-04-19T11:28:39.002Z</time></trkpt><trkpt lat="43.43942717148536" lon="10.719181798519763"><ele>273.5</ele><time>2026-04-19T11:28:40.002Z</time></trkpt><trkpt lat="43.43930780104563" lon="10.719138507218867"><ele>278.25</ele><time>2026-04-19T11:28:41.002Z</time></trkpt><trkpt lat="43.43918618914623" lon="10.719123234934711"><ele>283.0</ele><time>2026-04-19T11:28:42.002Z</time></trkpt><trkpt lat="43.43905933862356" lon="10.719145622083639"><ele>283.0</ele><time>2026-04-19T11:28:43.002Z</time></trkpt><trkpt lat="43.43893419875842" lon="10.719186241651569"><ele>283.0</ele><time>2026-04-19T11:28:44.002Z</time></trkpt><trkpt lat="43.43881110352974" lon="10.719222516823278"><ele>283.0</ele><time>2026-04-19T11:28:45.002Z</time></trkpt><trkpt lat="43.43868130869094" lon="10.71922469404725"><ele>283.0</ele><time>2026-04-19T11:28:46.002Z</time></trkpt><trkpt lat="43.4385483009925" lon="10.719202388852358"><ele>284.75</ele><time>2026-04-19T11:28:47.002Z</time></trkpt><trkpt lat="43.43841924248283" lon="10.719179394395061"><ele>286.5</ele><time>2026-04-19T11:28:48.003Z</time></trkpt><trkpt lat="43.438300820321395" lon="10.71916008954932"><ele>288.25</ele><time>2026-04-19T11:28:49.003Z</time></trkpt><trkpt lat="43.43819217032944" lon="10.719159217803806"><ele>290.0</ele><time>2026-04-19T11:28:50.003Z</time></trkpt><trkpt lat="43.43809433532972" lon="10.719196574052814"><ele>290.0</ele><time>2026-04-19T11:28:51.003Z</time></trkpt><trkpt lat="43.438012191198176" lon="10.71928660734644"><ele>290.0</ele><time>2026-04-19T11:28:52.003Z</time></trkpt><trkpt lat="43.43796283069623" lon="10.719415885744086"><ele>290.0</ele><time>2026-04-19T11:28:53.003Z</time></trkpt><trkpt lat="43.437946623687246" lon="10.71956641012976"><ele>290.0</ele><time>2026-04-19T11:28:54.003Z</time></trkpt><trkpt lat="43.43796720880258" lon="10.719733899226922"><ele>290.0</ele><time>2026-04-19T11:28:55.003Z</time></trkpt><trkpt lat="43.43799671708369" lon="10.7199061811868"><ele>288.75</ele><time>2026-04-19T11:28:56.003Z</time></trkpt><trkpt lat="43.43801372282625" lon="10.720064138237909"><ele>287.5</ele><time>2026-04-19T11:28:57.003Z</time></trkpt><trkpt lat="43.43801625178675" lon="10.720228030778353"><ele>286.25</ele><time>2026-04-19T11:28:58.003Z</time></trkpt><trkpt lat="43.43800024437836" lon="10.72038964693513"><ele>285.0</ele><time>2026-04-19T11:28:59.003Z</time></trkpt><trkpt lat="43.437974926022186" lon="10.720548807690902"><ele>286.0</ele><time>2026-04-19T11:29:00.003Z</time></trkpt><trkpt lat="43.43794203000879" lon="10.720690822985958"><ele>287.0</ele><time>2026-04-19T11:29:01Z</time></trkpt><trkpt lat="43.43790184323885" lon="10.72081424762086"><ele>288.0</ele><time>2026-04-19T11:29:02Z</time></trkpt><trkpt lat="43.43784500400836" lon="10.72092530529247"><ele>289.0</ele><time>2026-04-19T11:29:03Z</time></trkpt><trkpt lat="43.43776614509167" lon="10.721018305492631"><ele>290.0</ele><time>2026-04-19T11:29:04Z</time></trkpt><trkpt lat="43.437665898411346" lon="10.7210815762472"><ele>290.0</ele><time>2026-04-19T11:29:05Z</time></trkpt><trkpt lat="43.43755536564934" lon="10.721128338756285"><ele>290.0</ele><time>2026-04-19T11:29:06Z</time></trkpt><trkpt lat="43.43743841148218" lon="10.721160524380885"><ele>290.0</ele><time>2026-04-19T11:29:07Z</time></trkpt><trkpt lat="43.43732882715393" lon="10.721189021435338"><ele>290.0</ele><time>2026-04-19T11:29:08Z</time></trkpt><trkpt lat="43.43722456507461" lon="10.721220261454754"><ele>294.75</ele><time>2026-04-19T11:29:09Z</time></trkpt><trkpt lat="43.4371258481687" lon="10.721276701598049"><ele>299.5</ele><time>2026-04-19T11:29:10Z</time></trkpt><trkpt lat="43.43703811795807" lon="10.721373138466062"><ele>304.25</ele><time>2026-04-19T11:29:11Z</time></trkpt><trkpt lat="43.436962394178515" lon="10.721495930223101"><ele>309.0</ele><time>2026-04-19T11:29:12Z</time></trkpt><trkpt lat="43.43690508120349" lon="10.721636938986743"><ele>309.0</ele><time>2026-04-19T11:29:13Z</time></trkpt><trkpt lat="43.4368560093349" lon="10.721789863648723"><ele>309.0</ele><time>2026-04-19T11:29:14Z</time></trkpt><trkpt lat="43.43681023922436" lon="10.721936152777964"><ele>309.0</ele><time>2026-04-19T11:29:15Z</time></trkpt><trkpt lat="43.43676626478685" lon="10.722067138873644"><ele>309.0</ele><time>2026-04-19T11:29:16Z</time></trkpt><trkpt lat="43.43671664417078" lon="10.722187437819953"><ele>309.0</ele><time>2026-04-19T11:29:17Z</time></trkpt><trkpt lat="43.4366504029456" lon="10.722285347105405"><ele>307.8</ele><time>2026-04-19T11:29:18Z</time></trkpt><trkpt lat="43.43656649642525" lon="10.722357992268503"><ele>306.59999999999997</ele><time>2026-04-19T11:29:19Z</time></trkpt><trkpt lat="43.436467365318485" lon="10.722410099999166"><ele>305.4</ele><time>2026-04-19T11:29:20Z</time></trkpt><trkpt lat="43.43635689986197" lon="10.72243109611081"><ele>304.2</ele><time>2026-04-19T11:29:21Z</time></trkpt><trkpt lat="43.436247061954916" lon="10.722438562795885"><ele>303.0</ele><time>2026-04-19T11:29:22Z</time></trkpt><trkpt lat="43.43614255563535" lon="10.722460955305003"><ele>305.6</ele><time>2026-04-19T11:29:23Z</time></trkpt><trkpt lat="43.43605376494907" lon="10.722495864201"><ele>308.20000000000005</ele><time>2026-04-19T11:29:24Z</time></trkpt><trkpt lat="43.435982360665754" lon="10.722532164296725"><ele>310.8</ele><time>2026-04-19T11:29:25Z</time></trkpt><trkpt lat="43.43590524832879" lon="10.722642578545571"><ele>313.40000000000003</ele><time>2026-04-19T11:29:27Z</time></trkpt><trkpt lat="43.43589464840704" lon="10.722823040543181"><ele>316.0</ele><time>2026-04-19T11:29:29.001Z</time></trkpt><trkpt lat="43.43589764753399" lon="10.722930513786743"><ele>316.0</ele><time>2026-04-19T11:29:30.001Z</time></trkpt><trkpt lat="43.435905965254214" lon="10.723032049417931"><ele>316.0</ele><time>2026-04-19T11:29:31.001Z</time></trkpt><trkpt lat="43.43588715962348" lon="10.72319857912382"><ele>316.0</ele><time>2026-04-19T11:29:33.001Z</time></trkpt><trkpt lat="43.43585008547102" lon="10.723270713549045"><ele>316.0</ele><time>2026-04-19T11:29:34.001Z</time></trkpt><trkpt lat="43.43573705535897" lon="10.723350077892265"><ele>316.0</ele><time>2026-04-19T11:29:36.001Z</time></trkpt><trkpt lat="43.4356237404452" lon="10.723348503911765"><ele>316.0</ele><time>2026-04-19T11:29:38.001Z</time></trkpt><trkpt lat="43.435552632999695" lon="10.723334444501893"><ele>316.0</ele><time>2026-04-19T11:29:40.001Z</time></trkpt><trkpt lat="43.43548487540642" lon="10.723300652154407"><ele>316.0</ele><time>2026-04-19T11:29:44.001Z</time></trkpt><trkpt lat="43.435444487460984" lon="10.72336901496272"><ele>316.0</ele><time>2026-04-19T11:29:47.001Z</time></trkpt><trkpt lat="43.435399455271096" lon="10.723464120070075"><ele>316.0</ele><time>2026-04-19T11:29:50.001Z</time></trkpt><trkpt lat="43.43532658178251" lon="10.723424569216457"><ele>316.0</ele><time>2026-04-19T11:29:52.001Z</time></trkpt><trkpt lat="43.435256284197166" lon="10.723364018724883"><ele>318.5</ele><time>2026-04-19T11:29:54.001Z</time></trkpt><trkpt lat="43.43518950286643" lon="10.72331713058096"><ele>321.0</ele><time>2026-04-19T11:29:56.001Z</time></trkpt><trkpt lat="43.43515571372233" lon="10.723226692459"><ele>323.5</ele><time>2026-04-19T11:29:58.001Z</time></trkpt><trkpt lat="43.435159831692445" lon="10.723119343422027"><ele>326.0</ele><time>2026-04-19T11:30:00.001Z</time></trkpt><trkpt lat="43.43517350044386" lon="10.722978183946656"><ele>328.5</ele><time>2026-04-19T11:30:02.001Z</time></trkpt><trkpt lat="43.43514676218706" lon="10.722821471500813"><ele>331.0</ele><time>2026-04-19T11:30:04.001Z</time></trkpt><trkpt lat="43.43512839045523" lon="10.722716704458845"><ele>332.14285714285717</ele><time>2026-04-19T11:30:05.001Z</time></trkpt><trkpt lat="43.43511239538472" lon="10.722614404801345"><ele>333.2857142857143</ele><time>2026-04-19T11:30:06.001Z</time></trkpt><trkpt lat="43.43509972788556" lon="10.72251605144392"><ele>334.42857142857144</ele><time>2026-04-19T11:30:07.001Z</time></trkpt><trkpt lat="43.43509253470075" lon="10.722423192261308"><ele>335.57142857142856</ele><time>2026-04-19T11:30:08.001Z</time></trkpt><trkpt lat="43.43509386578679" lon="10.722332917939523"><ele>336.7142857142857</ele><time>2026-04-19T11:30:09.001Z</time></trkpt><trkpt lat="43.43509698141579" lon="10.722242922680268"><ele>337.85714285714283</ele><time>2026-04-19T11:30:10.001Z</time></trkpt><trkpt lat="43.43509850319207" lon="10.722148300036634"><ele>339.0</ele><time>2026-04-19T11:30:11.001Z</time></trkpt><trkpt lat="43.435081471779085" lon="10.722012866177698"><ele>339.0</ele><time>2026-04-19T11:30:13.001Z</time></trkpt><trkpt lat="43.435124678114384" lon="10.721914148110692"><ele>339.0</ele><time>2026-04-19T11:30:15.002Z</time></trkpt><trkpt lat="43.435186013814096" lon="10.721876373673172"><ele>339.0</ele><time>2026-04-19T11:30:21.002Z</time></trkpt><trkpt lat="43.43523362772954" lon="10.72181537790758"><ele>339.0</ele><time>2026-04-19T11:30:31.002Z</time></trkpt><trkpt lat="43.43525472797541" lon="10.721733628857086"><ele>339.0</ele><time>2026-04-19T11:30:33.002Z</time></trkpt><trkpt lat="43.435288188873095" lon="10.721614936268463"><ele>339.0</ele><time>2026-04-19T11:30:35.002Z</time></trkpt><trkpt lat="43.43530034864976" lon="10.721464199717406"><ele>340.3333333333333</ele><time>2026-04-19T11:30:37.002Z</time></trkpt><trkpt lat="43.435301469064264" lon="10.721315839093187"><ele>341.6666666666667</ele><time>2026-04-19T11:30:39.002Z</time></trkpt><trkpt lat="43.43530678110658" lon="10.72122573792763"><ele>343.0</ele><time>2026-04-19T11:30:41.002Z</time></trkpt><trkpt lat="43.43532415878307" lon="10.721138335805117"><ele>344.33333333333337</ele><time>2026-04-19T11:30:44.002Z</time></trkpt><trkpt lat="43.435370767791234" lon="10.721011624958752"><ele>345.6666666666667</ele><time>2026-04-19T11:30:47.002Z</time></trkpt><trkpt lat="43.435422611080945" lon="10.720941357249124"><ele>347.0</ele><time>2026-04-19T11:30:49.002Z</time></trkpt><trkpt lat="43.43537104683149" lon="10.720991398155244"><ele>347.0</ele><time>2026-04-19T11:31:24Z</time></trkpt><trkpt lat="43.43533153556619" lon="10.721065111544263"><ele>347.0</ele><time>2026-04-19T11:31:37Z</time></trkpt><trkpt lat="43.435302389167056" lon="10.72115266067711"><ele>347.0</ele><time>2026-04-19T11:31:46.001Z</time></trkpt><trkpt lat="43.43529495769397" lon="10.721055199315286"><ele>347.0</ele><time>2026-04-19T11:32:07.001Z</time></trkpt><trkpt lat="43.435232948923854" lon="10.720952169253616"><ele>347.0</ele><time>2026-04-19T11:32:09.001Z</time></trkpt><trkpt lat="43.435220116086306" lon="10.720792278717807"><ele>347.0</ele><time>2026-04-19T11:32:11.001Z</time></trkpt><trkpt lat="43.435215964090176" lon="10.72069535914918"><ele>348.1666666666667</ele><time>2026-04-19T11:32:12.001Z</time></trkpt><trkpt lat="43.4352070715304" lon="10.7205860193802"><ele>349.33333333333337</ele><time>2026-04-19T11:32:13.001Z</time></trkpt><trkpt lat="43.43519493475489" lon="10.720479866246816"><ele>350.5</ele><time>2026-04-19T11:32:14.001Z</time></trkpt><trkpt lat="43.435178919509035" lon="10.720376337960706"><ele>351.6666666666667</ele><time>2026-04-19T11:32:15.001Z</time></trkpt><trkpt lat="43.43516177964675" lon="10.72027128824775"><ele>352.8333333333333</ele><time>2026-04-19T11:32:16.001Z</time></trkpt><trkpt lat="43.43514140691323" lon="10.720166748131652"><ele>354.0</ele><time>2026-04-19T11:32:17.001Z</time></trkpt><trkpt lat="43.43512654858013" lon="10.720073933742308"><ele>354.42857142857144</ele><time>2026-04-19T11:32:18.001Z</time></trkpt><trkpt lat="43.43511841018186" lon="10.719977163186028"><ele>354.85714285714283</ele><time>2026-04-19T11:32:19.002Z</time></trkpt><trkpt lat="43.43513357585116" lon="10.719880196253674"><ele>355.2857142857143</ele><time>2026-04-19T11:32:20.002Z</time></trkpt><trkpt lat="43.4351607250863" lon="10.719787794672063"><ele>355.7142857142857</ele><time>2026-04-19T11:32:21.002Z</time></trkpt><trkpt lat="43.435196969303945" lon="10.719701877421441"><ele>356.1428571428571</ele><time>2026-04-19T11:32:22.002Z</time></trkpt><trkpt lat="43.43523038508138" lon="10.719607544046292"><ele>356.57142857142856</ele><time>2026-04-19T11:32:23.002Z</time></trkpt><trkpt lat="43.43523973244001" lon="10.719493721643024"><ele>357.0</ele><time>2026-04-19T11:32:24.002Z</time></trkpt><trkpt lat="43.435232263372974" lon="10.719390587930487"><ele>358.40000000000003</ele><time>2026-04-19T11:32:25.002Z</time></trkpt><trkpt lat="43.435218955121705" lon="10.719295929659415"><ele>359.8</ele><time>2026-04-19T11:32:26.002Z</time></trkpt><trkpt lat="43.43519824583036" lon="10.719203629368765"><ele>361.2</ele><time>2026-04-19T11:32:27.002Z</time></trkpt><trkpt lat="43.43516335687162" lon="10.719057281985387"><ele>362.6</ele><time>2026-04-19T11:32:29.002Z</time></trkpt><trkpt lat="43.43512358262945" lon="10.718905692865482"><ele>364.0</ele><time>2026-04-19T11:32:31.002Z</time></trkpt><trkpt lat="43.43509079614317" lon="10.71872719088843"><ele>364.0</ele><time>2026-04-19T11:32:33.002Z</time></trkpt><trkpt lat="43.435061070069736" lon="10.7186298856399"><ele>364.0</ele><time>2026-04-19T11:32:34.002Z</time></trkpt><trkpt lat="43.43502333029186" lon="10.7185330098062"><ele>364.0</ele><time>2026-04-19T11:32:35.002Z</time></trkpt><trkpt lat="43.43498770970993" lon="10.718431707598866"><ele>364.0</ele><time>2026-04-19T11:32:36.002Z</time></trkpt><trkpt lat="43.43495582811778" lon="10.718334715410803"><ele>364.0</ele><time>2026-04-19T11:32:37.002Z</time></trkpt><trkpt lat="43.434925121552084" lon="10.718231892258535"><ele>364.0</ele><time>2026-04-19T11:32:38.002Z</time></trkpt><trkpt lat="43.434894509961005" lon="10.71813210220263"><ele>364.8333333333333</ele><time>2026-04-19T11:32:39.002Z</time></trkpt><trkpt lat="43.434868853829734" lon="10.718033416214013"><ele>365.66666666666663</ele><time>2026-04-19T11:32:40.002Z</time></trkpt><trkpt lat="43.43484705709721" lon="10.717931792378884"><ele>366.5</ele><time>2026-04-19T11:32:41.002Z</time></trkpt><trkpt lat="43.434821368048325" lon="10.71783211696287"><ele>367.3333333333333</ele><time>2026-04-19T11:32:42.002Z</time></trkpt><trkpt lat="43.434784787888624" lon="10.717737850255894"><ele>368.1666666666667</ele><time>2026-04-19T11:32:43.002Z</time></trkpt><trkpt lat="43.434740847339725" lon="10.717646003741809"><ele>369.0</ele><time>2026-04-19T11:32:44.002Z</time></trkpt><trkpt lat="43.43470166364994" lon="10.717562215500381"><ele>369.42857142857144</ele><time>2026-04-19T11:32:45.002Z</time></trkpt><trkpt lat="43.43466337591108" lon="10.717476957197013"><ele>369.85714285714283</ele><time>2026-04-19T11:32:46.002Z</time></trkpt><trkpt lat="43.434638883113244" lon="10.717380896836517"><ele>370.28571428571433</ele><time>2026-04-19T11:32:47.002Z</time></trkpt><trkpt lat="43.43462207116585" lon="10.717275489251207"><ele>370.7142857142857</ele><time>2026-04-19T11:32:48.002Z</time></trkpt><trkpt lat="43.43460197193191" lon="10.717171046027586"><ele>371.14285714285717</ele><time>2026-04-19T11:32:49.002Z</time></trkpt><trkpt lat="43.43458877825564" lon="10.717067554784794"><ele>371.5714285714286</ele><time>2026-04-19T11:32:50.002Z</time></trkpt><trkpt lat="43.43458785291918" lon="10.716977509549965"><ele>372.0</ele><time>2026-04-19T11:32:51.002Z</time></trkpt><trkpt lat="43.43459325530035" lon="10.716823466934613"><ele>375.8</ele><time>2026-04-19T11:32:53.002Z</time></trkpt><trkpt lat="43.4345685617032" lon="10.716692185616111"><ele>379.6</ele><time>2026-04-19T11:32:55.002Z</time></trkpt><trkpt lat="43.43451490205603" lon="10.716551160758536"><ele>383.40000000000003</ele><time>2026-04-19T11:32:57.002Z</time></trkpt><trkpt lat="43.43444693834421" lon="10.716415285638435"><ele>387.20000000000005</ele><time>2026-04-19T11:32:59.002Z</time></trkpt><trkpt lat="43.43438312074857" lon="10.716294614824594"><ele>391.0</ele><time>2026-04-19T11:33:01.002Z</time></trkpt><trkpt lat="43.434319433986346" lon="10.716182638343348"><ele>391.0</ele><time>2026-04-19T11:33:03.003Z</time></trkpt><trkpt lat="43.43425755293723" lon="10.716078474781561"><ele>391.0</ele><time>2026-04-19T11:33:05.003Z</time></trkpt><trkpt lat="43.4341891754796" lon="10.715984256788731"><ele>391.0</ele><time>2026-04-19T11:33:07.003Z</time></trkpt><trkpt lat="43.43409637671817" lon="10.71593053210888"><ele>391.0</ele><time>2026-04-19T11:33:09.003Z</time></trkpt><trkpt lat="43.43399607602494" lon="10.715902112209902"><ele>391.0</ele><time>2026-04-19T11:33:11.003Z</time></trkpt><trkpt lat="43.43389908581154" lon="10.715872709418548"><ele>391.50000000000006</ele><time>2026-04-19T11:33:13Z</time></trkpt><trkpt lat="43.43382738141424" lon="10.715854791475321"><ele>392.0</ele><time>2026-04-19T11:33:15Z</time></trkpt><trkpt lat="43.43375518824448" lon="10.715816912233802"><ele>392.5</ele><time>2026-04-19T11:33:18Z</time></trkpt><trkpt lat="43.433673040148214" lon="10.715785247105396"><ele>393.0</ele><time>2026-04-19T11:33:20Z</time></trkpt><trkpt lat="43.4335938552488" lon="10.715761986844853"><ele>393.50000000000006</ele><time>2026-04-19T11:33:22Z</time></trkpt><trkpt lat="43.4335254111181" lon="10.715743398229606"><ele>394.0</ele><time>2026-04-19T11:33:24Z</time></trkpt><trkpt lat="43.4334530282154" lon="10.715723293523691"><ele>396.0</ele><time>2026-04-19T11:33:26Z</time></trkpt><trkpt lat="43.43337263307889" lon="10.715704685816185"><ele>398.0</ele><time>2026-04-19T11:33:29Z</time></trkpt><trkpt lat="43.433304025407544" lon="10.715686394539151"><ele>400.0</ele><time>2026-04-19T11:33:31Z</time></trkpt><trkpt lat="43.433219701013385" lon="10.715654194128671"><ele>402.0</ele><time>2026-04-19T11:33:33Z</time></trkpt><trkpt lat="43.433110460103606" lon="10.715599658458753"><ele>404.0</ele><time>2026-04-19T11:33:35Z</time></trkpt><trkpt lat="43.43300809023508" lon="10.715539821636016"><ele>404.79999999999995</ele><time>2026-04-19T11:33:37Z</time></trkpt><trkpt lat="43.432934583927185" lon="10.715464196571068"><ele>405.59999999999997</ele><time>2026-04-19T11:33:39Z</time></trkpt><trkpt lat="43.43287261029975" lon="10.715406361450379"><ele>406.4</ele><time>2026-04-19T11:33:41Z</time></trkpt><trkpt lat="43.43278771938141" lon="10.715323445597507"><ele>407.2</ele><time>2026-04-19T11:33:43Z</time></trkpt><trkpt lat="43.4326986228614" lon="10.715209883420126"><ele>408.0</ele><time>2026-04-19T11:33:45Z</time></trkpt><trkpt lat="43.432610896033815" lon="10.715100579651956"><ele>408.0</ele><time>2026-04-19T11:33:47Z</time></trkpt><trkpt lat="43.43252722469707" lon="10.714972521860295"><ele>408.0</ele><time>2026-04-19T11:33:49.001Z</time></trkpt><trkpt lat="43.43244998682138" lon="10.714854970440149"><ele>408.0</ele><time>2026-04-19T11:33:51.001Z</time></trkpt><trkpt lat="43.432353144643706" lon="10.714753487565657"><ele>408.0</ele><time>2026-04-19T11:33:53.001Z</time></trkpt><trkpt lat="43.43230078745532" lon="10.714697701016611"><ele>408.0</ele><time>2026-04-19T11:33:54.001Z</time></trkpt><trkpt lat="43.4322550149621" lon="10.714636058416303"><ele>408.0</ele><time>2026-04-19T11:33:55.001Z</time></trkpt><trkpt lat="43.432174742972315" lon="10.714528762282143"><ele>408.0</ele><time>2026-04-19T11:33:57.001Z</time></trkpt><trkpt lat="43.43207408653766" lon="10.714442449760883"><ele>408.0</ele><time>2026-04-19T11:33:59.001Z</time></trkpt><trkpt lat="43.43197395897545" lon="10.71436717148323"><ele>408.0</ele><time>2026-04-19T11:34:01.001Z</time></trkpt><trkpt lat="43.431921701360714" lon="10.714304344090158"><ele>408.0</ele><time>2026-04-19T11:34:03.001Z</time></trkpt><trkpt lat="43.43184935343533" lon="10.714218884333198"><ele>409.0</ele><time>2026-04-19T11:34:07.001Z</time></trkpt><trkpt lat="43.4317772026325" lon="10.714143288771293"><ele>410.0</ele><time>2026-04-19T11:34:09.001Z</time></trkpt><trkpt lat="43.43172344224991" lon="10.714059462766183"><ele>411.0</ele><time>2026-04-19T11:34:11.001Z</time></trkpt><trkpt lat="43.43167156842356" lon="10.713960630127481"><ele>412.0</ele><time>2026-04-19T11:34:14.001Z</time></trkpt><trkpt lat="43.431625956305076" lon="10.713887106497147"><ele>413.0</ele><time>2026-04-19T11:34:16.001Z</time></trkpt><trkpt lat="43.43154171923685" lon="10.713831318062846"><ele>414.0</ele><time>2026-04-19T11:34:19.001Z</time></trkpt><trkpt lat="43.431475799108604" lon="10.713890868828916"><ele>414.0</ele><time>2026-04-19T11:34:21.001Z</time></trkpt><trkpt lat="43.43141913417397" lon="10.714000942204825"><ele>414.0</ele><time>2026-04-19T11:34:23.001Z</time></trkpt><trkpt lat="43.43136664123993" lon="10.714094495783295"><ele>414.0</ele><time>2026-04-19T11:34:25.001Z</time></trkpt><trkpt lat="43.4313067436361" lon="10.714185535829762"><ele>414.0</ele><time>2026-04-19T11:34:27.001Z</time></trkpt><trkpt lat="43.431239630284864" lon="10.714274034623669"><ele>414.0</ele><time>2026-04-19T11:34:29.001Z</time></trkpt><trkpt lat="43.43117981116241" lon="10.714355201549676"><ele>417.1666666666667</ele><time>2026-04-19T11:34:31.001Z</time></trkpt><trkpt lat="43.4311298731507" lon="10.714426859248984"><ele>420.33333333333337</ele><time>2026-04-19T11:34:33.001Z</time></trkpt><trkpt lat="43.431066889914675" lon="10.714524866104027"><ele>423.5</ele><time>2026-04-19T11:34:35.001Z</time></trkpt><trkpt lat="43.43100277264977" lon="10.714638900683646"><ele>426.6666666666667</ele><time>2026-04-19T11:34:37.001Z</time></trkpt><trkpt lat="43.43094487956595" lon="10.71473626531366"><ele>429.83333333333337</ele><time>2026-04-19T11:34:39.002Z</time></trkpt><trkpt lat="43.43089014753378" lon="10.714805956638624"><ele>433.0</ele><time>2026-04-19T11:34:41.002Z</time></trkpt><trkpt lat="43.43080172583608" lon="10.714839045505354"><ele>433.0</ele><time>2026-04-19T11:34:43.002Z</time></trkpt><trkpt lat="43.43069070774439" lon="10.7148688744713"><ele>432.99999999999994</ele><time>2026-04-19T11:34:45.002Z</time></trkpt><trkpt lat="43.430578870133246" lon="10.714877029836645"><ele>432.99999999999994</ele><time>2026-04-19T11:34:47.002Z</time></trkpt><trkpt lat="43.43045310820993" lon="10.714882043450485"><ele>433.0</ele><time>2026-04-19T11:34:49.002Z</time></trkpt><trkpt lat="43.430385284368874" lon="10.714891295814345"><ele>433.0</ele><time>2026-04-19T11:34:50.002Z</time></trkpt><trkpt lat="43.430317790461224" lon="10.714897624832139"><ele>434.4</ele><time>2026-04-19T11:34:51.002Z</time></trkpt><trkpt lat="43.43025065550329" lon="10.71490254260458"><ele>435.79999999999995</ele><time>2026-04-19T11:34:52.002Z</time></trkpt><trkpt lat="43.430185442926366" lon="10.714908244573222"><ele>437.2</ele><time>2026-04-19T11:34:53.002Z</time></trkpt><trkpt lat="43.43007036144068" lon="10.714930724956494"><ele>438.6</ele><time>2026-04-19T11:34:55.002Z</time></trkpt><trkpt lat="43.42997019445298" lon="10.714996866858334"><ele>440.0</ele><time>2026-04-19T11:34:57.002Z</time></trkpt><trkpt lat="43.42986792439643" lon="10.715077323892041"><ele>439.99999999999994</ele><time>2026-04-19T11:34:59.002Z</time></trkpt><trkpt lat="43.42975648179285" lon="10.715162604725865"><ele>440.0</ele><time>2026-04-19T11:35:01.002Z</time></trkpt><trkpt lat="43.42969624807918" lon="10.715220277211968"><ele>440.0</ele><time>2026-04-19T11:35:02.002Z</time></trkpt><trkpt lat="43.42963149745816" lon="10.715271298136049"><ele>440.0</ele><time>2026-04-19T11:35:03.002Z</time></trkpt><trkpt lat="43.429561358015235" lon="10.715313356296914"><ele>439.99999999999994</ele><time>2026-04-19T11:35:04.002Z</time></trkpt><trkpt lat="43.42950114289548" lon="10.71535997288463"><ele>440.0</ele><time>2026-04-19T11:35:05.002Z</time></trkpt><trkpt lat="43.42943427371394" lon="10.715414757734058"><ele>442.0</ele><time>2026-04-19T11:35:06.002Z</time></trkpt><trkpt lat="43.42933551696986" lon="10.715497964821877"><ele>444.0</ele><time>2026-04-19T11:35:08.002Z</time></trkpt><trkpt lat="43.42922972968696" lon="10.715584538390358"><ele>446.0</ele><time>2026-04-19T11:35:10.002Z</time></trkpt><trkpt lat="43.429164865012055" lon="10.715638420130587"><ele>448.0</ele><time>2026-04-19T11:35:12.002Z</time></trkpt><trkpt lat="43.42911258621112" lon="10.715711123178407"><ele>450.0</ele><time>2026-04-19T11:35:14.002Z</time></trkpt><trkpt lat="43.42900543367789" lon="10.715751214241374"><ele>450.0</ele><time>2026-04-19T11:35:17.002Z</time></trkpt><trkpt lat="43.428893207209285" lon="10.715715534289492"><ele>450.0</ele><time>2026-04-19T11:35:19Z</time></trkpt><trkpt lat="43.42877902973244" lon="10.71564953833806"><ele>450.0</ele><time>2026-04-19T11:35:21Z</time></trkpt><trkpt lat="43.428714367425016" lon="10.715611369809768"><ele>450.0</ele><time>2026-04-19T11:35:22Z</time></trkpt><trkpt lat="43.428656235517394" lon="10.715570143214936"><ele>450.0</ele><time>2026-04-19T11:35:23Z</time></trkpt><trkpt lat="43.42860003404841" lon="10.715497919224505"><ele>450.28571428571433</ele><time>2026-04-19T11:35:24Z</time></trkpt><trkpt lat="43.428546124708525" lon="10.7154452808971"><ele>450.57142857142856</ele><time>2026-04-19T11:35:25Z</time></trkpt><trkpt lat="43.42849264033582" lon="10.715385583772113"><ele>450.8571428571429</ele><time>2026-04-19T11:35:26Z</time></trkpt><trkpt lat="43.42843561667306" lon="10.715328673350957"><ele>451.14285714285717</ele><time>2026-04-19T11:35:27Z</time></trkpt><trkpt lat="43.42838040522116" lon="10.715281558768496"><ele>451.42857142857144</ele><time>2026-04-19T11:35:28Z</time></trkpt><trkpt lat="43.42832900146857" lon="10.71522412219706"><ele>451.7142857142857</ele><time>2026-04-19T11:35:29Z</time></trkpt><trkpt lat="43.428272392204285" lon="10.715160535816858"><ele>452.0</ele><time>2026-04-19T11:35:30Z</time></trkpt><trkpt lat="43.42820743686224" lon="10.715101216680651"><ele>451.99999999999994</ele><time>2026-04-19T11:35:31Z</time></trkpt><trkpt lat="43.42814298780045" lon="10.715037052073278"><ele>452.0</ele><time>2026-04-19T11:35:32Z</time></trkpt><trkpt lat="43.428086007587616" lon="10.714979243995286"><ele>452.0</ele><time>2026-04-19T11:35:33Z</time></trkpt><trkpt lat="43.428022840847234" lon="10.714925599079525"><ele>452.0</ele><time>2026-04-19T11:35:34Z</time></trkpt><trkpt lat="43.427948357891836" lon="10.714888592734066"><ele>451.99999999999994</ele><time>2026-04-19T11:35:35Z</time></trkpt><trkpt lat="43.42786768199269" lon="10.714849035035936"><ele>452.0</ele><time>2026-04-19T11:35:36Z</time></trkpt><trkpt lat="43.42778744958394" lon="10.714801755222679"><ele>452.3333333333333</ele><time>2026-04-19T11:35:37Z</time></trkpt><trkpt lat="43.42772374368601" lon="10.714760977986877"><ele>452.66666666666663</ele><time>2026-04-19T11:35:38Z</time></trkpt><trkpt lat="43.42761461715031" lon="10.714687229794562"><ele>453.0</ele><time>2026-04-19T11:35:40Z</time></trkpt><trkpt lat="43.427536535904906" lon="10.71460927398014"><ele>453.33333333333337</ele><time>2026-04-19T11:35:42Z</time></trkpt><trkpt lat="43.427485540141106" lon="10.714550981296892"><ele>453.6666666666667</ele><time>2026-04-19T11:35:44.001Z</time></trkpt><trkpt lat="43.42742248434643" lon="10.714483520656625"><ele>454.0</ele><time>2026-04-19T11:35:47.001Z</time></trkpt><trkpt lat="43.4273395010583" lon="10.714422740146281"><ele>454.1666666666667</ele><time>2026-04-19T11:35:50.001Z</time></trkpt><trkpt lat="43.42727418751773" lon="10.71437728486456"><ele>454.33333333333337</ele><time>2026-04-19T11:35:52.001Z</time></trkpt><trkpt lat="43.42721775235158" lon="10.714337160337346"><ele>454.5</ele><time>2026-04-19T11:35:54.001Z</time></trkpt><trkpt lat="43.42713609583522" lon="10.714341624822042"><ele>454.66666666666663</ele><time>2026-04-19T11:43:45.002Z</time></trkpt><trkpt lat="43.42704827050225" lon="10.71435830692973"><ele>454.8333333333333</ele><time>2026-04-19T11:43:48.002Z</time></trkpt><trkpt lat="43.42697358463017" lon="10.714393617955311"><ele>455.0</ele><time>2026-04-19T11:43:51.002Z</time></trkpt><trkpt lat="43.42690776812667" lon="10.714419348215664"><ele>455.8571428571429</ele><time>2026-04-19T11:43:55.002Z</time></trkpt><trkpt lat="43.42684404219718" lon="10.714446576381564"><ele>456.7142857142857</ele><time>2026-04-19T11:43:59.002Z</time></trkpt><trkpt lat="43.426776677289745" lon="10.714485942476527"><ele>457.57142857142856</ele><time>2026-04-19T11:44:03.001Z</time></trkpt><trkpt lat="43.42671189152826" lon="10.71451786929169"><ele>458.42857142857144</ele><time>2026-04-19T11:44:06.001Z</time></trkpt><trkpt lat="43.4266457386703" lon="10.714537466812361"><ele>459.28571428571433</ele><time>2026-04-19T11:44:09.001Z</time></trkpt><trkpt lat="43.42657153460849" lon="10.714560706227978"><ele>460.14285714285717</ele><time>2026-04-19T11:44:12.001Z</time></trkpt><trkpt lat="43.42649399442864" lon="10.714595472911132"><ele>461.0</ele><time>2026-04-19T11:44:15.001Z</time></trkpt><trkpt lat="43.42643403841248" lon="10.714643272428155"><ele>461.0</ele><time>2026-04-19T11:44:19.001Z</time></trkpt><trkpt lat="43.426385008476004" lon="10.714711428837653"><ele>461.00000000000006</ele><time>2026-04-19T11:44:23.001Z</time></trkpt><trkpt lat="43.426344365210625" lon="10.714781491326889"><ele>461.0</ele><time>2026-04-19T11:44:27.001Z</time></trkpt><trkpt lat="43.42628639458308" lon="10.714858758468502"><ele>461.0</ele><time>2026-04-19T11:44:31.001Z</time></trkpt><trkpt lat="43.42624101065542" lon="10.714965190875812"><ele>461.00000000000006</ele><time>2026-04-19T11:44:35.001Z</time></trkpt><trkpt lat="43.426191815978484" lon="10.715042755689279"><ele>461.0</ele><time>2026-04-19T11:44:39.001Z</time></trkpt><trkpt lat="43.42614580739167" lon="10.715104068715679"><ele>461.0</ele><time>2026-04-19T11:44:41.001Z</time></trkpt><trkpt lat="43.42606799862353" lon="10.715126094470449"><ele>462.7142857142857</ele><time>2026-04-19T11:44:45.001Z</time></trkpt><trkpt lat="43.42600484669538" lon="10.715094783009276"><ele>464.42857142857144</ele><time>2026-04-19T11:44:47.001Z</time></trkpt><trkpt lat="43.42595523491865" lon="10.715025230045462"><ele>466.14285714285717</ele><time>2026-04-19T11:44:50.001Z</time></trkpt><trkpt lat="43.42590878887052" lon="10.714959135470187"><ele>467.8571428571429</ele><time>2026-04-19T11:44:53.001Z</time></trkpt><trkpt lat="43.42585795738463" lon="10.714896132900916"><ele>469.57142857142856</ele><time>2026-04-19T11:44:55.001Z</time></trkpt><trkpt lat="43.425805524842694" lon="10.714840787964024"><ele>471.28571428571433</ele><time>2026-04-19T11:44:57.002Z</time></trkpt><trkpt lat="43.42573791574942" lon="10.714766264029427"><ele>473.0</ele><time>2026-04-19T11:45:00.002Z</time></trkpt><trkpt lat="43.42567655222308" lon="10.714700561632016"><ele>472.99999999999994</ele><time>2026-04-19T11:45:03.002Z</time></trkpt><trkpt lat="43.42560933097361" lon="10.71465820137167"><ele>473.0</ele><time>2026-04-19T11:45:06.002Z</time></trkpt><trkpt lat="43.425525732054254" lon="10.71461545461938"><ele>473.0</ele><time>2026-04-19T11:45:09.002Z</time></trkpt><trkpt lat="43.425458080763306" lon="10.714625901797008"><ele>473.0</ele><time>2026-04-19T11:45:11.002Z</time></trkpt><trkpt lat="43.42536794038903" lon="10.714622705779904"><ele>472.99999999999994</ele><time>2026-04-19T11:45:14.002Z</time></trkpt><trkpt lat="43.42527811454373" lon="10.714613672903274"><ele>473.0</ele><time>2026-04-19T11:45:17.002Z</time></trkpt><trkpt lat="43.42520858040365" lon="10.7146111696755"><ele>474.16666666666663</ele><time>2026-04-19T11:45:19.002Z</time></trkpt><trkpt lat="43.42513548581984" lon="10.71461316609221"><ele>475.3333333333333</ele><time>2026-04-19T11:45:21.002Z</time></trkpt><trkpt lat="43.42506522888138" lon="10.714637280731122"><ele>476.5</ele><time>2026-04-19T11:45:23.002Z</time></trkpt><trkpt lat="43.42500312394836" lon="10.714654833125632"><ele>477.66666666666663</ele><time>2026-04-19T11:45:25.002Z</time></trkpt><trkpt lat="43.42491560737708" lon="10.714665901494937"><ele>478.8333333333333</ele><time>2026-04-19T11:46:22.001Z</time></trkpt><trkpt lat="43.42483186981109" lon="10.714708196525752"><ele>480.0</ele><time>2026-04-19T11:46:25.001Z</time></trkpt><trkpt lat="43.42476662208949" lon="10.714712722024926"><ele>480.0</ele><time>2026-04-19T11:46:27.001Z</time></trkpt><trkpt lat="43.42470413736122" lon="10.714687804157045"><ele>480.0</ele><time>2026-04-19T11:46:30.001Z</time></trkpt><trkpt lat="43.42463256110893" lon="10.714683050998568"><ele>480.0</ele><time>2026-04-19T11:46:59.001Z</time></trkpt><trkpt lat="43.42456785137583" lon="10.714650033019865"><ele>480.0</ele><time>2026-04-19T11:47:32.001Z</time></trkpt><trkpt lat="43.42448007356679" lon="10.714601895407327"><ele>480.0</ele><time>2026-04-19T11:47:35.001Z</time></trkpt><trkpt lat="43.4244174037173" lon="10.71456556788932"><ele>480.0</ele><time>2026-04-19T11:47:37.001Z</time></trkpt><trkpt lat="43.4243494980335" lon="10.71451905325926"><ele>480.0</ele><time>2026-04-19T11:47:39.001Z</time></trkpt><trkpt lat="43.424278314537105" lon="10.714467176655965"><ele>480.6666666666667</ele><time>2026-04-19T11:47:41.001Z</time></trkpt><trkpt lat="43.42420927402214" lon="10.71441534278868"><ele>481.33333333333337</ele><time>2026-04-19T11:47:43.001Z</time></trkpt><trkpt lat="43.42414600244686" lon="10.714374119317622"><ele>482.0</ele><time>2026-04-19T11:47:45.001Z</time></trkpt><trkpt lat="43.42405125066395" lon="10.714333164353688"><ele>482.6666666666667</ele><time>2026-04-19T11:47:48.001Z</time></trkpt><trkpt lat="43.42398046284736" lon="10.714337719990011"><ele>483.33333333333337</ele><time>2026-04-19T11:47:50.001Z</time></trkpt><trkpt lat="43.42390384569351" lon="10.71433023190947"><ele>484.0</ele><time>2026-04-19T11:47:52.001Z</time></trkpt><trkpt lat="43.42381863332994" lon="10.714322929634015"><ele>487.50000000000006</ele><time>2026-04-19T11:47:54.001Z</time></trkpt><trkpt lat="43.42374319329394" lon="10.71430488431461"><ele>491.0</ele><time>2026-04-19T11:47:56.001Z</time></trkpt><trkpt lat="43.42367245899533" lon="10.714283356832148"><ele>494.5</ele><time>2026-04-19T11:47:58.001Z</time></trkpt><trkpt lat="43.42359424150397" lon="10.714273259672694"><ele>498.0</ele><time>2026-04-19T11:48:00.001Z</time></trkpt><trkpt lat="43.42351855672159" lon="10.714268110607083"><ele>501.50000000000006</ele><time>2026-04-19T11:48:02Z</time></trkpt><trkpt lat="43.42343008797318" lon="10.714247981145354"><ele>505.0</ele><time>2026-04-19T11:48:04Z</time></trkpt><trkpt lat="43.4233536062693" lon="10.714222931373527"><ele>505.00000000000006</ele><time>2026-04-19T11:48:06Z</time></trkpt><trkpt lat="43.42327811021595" lon="10.714228522591203"><ele>505.0</ele><time>2026-04-19T11:48:08Z</time></trkpt><trkpt lat="43.42319131802246" lon="10.714257116713567"><ele>505.0</ele><time>2026-04-19T11:48:10Z</time></trkpt><trkpt lat="43.42311354195654" lon="10.714286714153925"><ele>505.0</ele><time>2026-04-19T11:48:12Z</time></trkpt><trkpt lat="43.423031916737685" lon="10.714293603299394"><ele>505.00000000000006</ele><time>2026-04-19T11:48:14Z</time></trkpt><trkpt lat="43.422944491543824" lon="10.714307243915297"><ele>505.0</ele><time>2026-04-19T11:48:16Z</time></trkpt><trkpt lat="43.42285042183428" lon="10.714312030225353"><ele>504.50000000000006</ele><time>2026-04-19T11:48:18Z</time></trkpt><trkpt lat="43.42275927690445" lon="10.714309137525328"><ele>504.0</ele><time>2026-04-19T11:48:21Z</time></trkpt><trkpt lat="43.42269527519486" lon="10.714301598563742"><ele>503.5</ele><time>2026-04-19T11:48:23Z</time></trkpt><trkpt lat="43.42260943717657" lon="10.714286701372554"><ele>503.0</ele><time>2026-04-19T11:48:25Z</time></trkpt><trkpt lat="43.4225268208706" lon="10.714315450715354"><ele>502.50000000000006</ele><time>2026-04-19T11:48:27Z</time></trkpt><trkpt lat="43.42245519769019" lon="10.714361429954009"><ele>502.0</ele><time>2026-04-19T11:48:29Z</time></trkpt><trkpt lat="43.42238529843353" lon="10.714412412508194"><ele>502.00000000000006</ele><time>2026-04-19T11:48:31Z</time></trkpt><trkpt lat="43.42231924342767" lon="10.714471420801578"><ele>502.0</ele><time>2026-04-19T11:48:33Z</time></trkpt><trkpt lat="43.42224970860327" lon="10.714518335627131"><ele>502.0</ele><time>2026-04-19T11:48:35Z</time></trkpt><trkpt lat="43.42219015647567" lon="10.714568720492775"><ele>502.0</ele><time>2026-04-19T11:48:37Z</time></trkpt><trkpt lat="43.42213214526367" lon="10.714608335016779"><ele>502.00000000000006</ele><time>2026-04-19T11:48:39Z</time></trkpt><trkpt lat="43.42206257113658" lon="10.714645826010772"><ele>502.0</ele><time>2026-04-19T11:48:41Z</time></trkpt><trkpt lat="43.42198687281089" lon="10.714707495930353"><ele>503.00000000000006</ele><time>2026-04-19T11:48:43Z</time></trkpt><trkpt lat="43.42191037436865" lon="10.714745012209901"><ele>504.0</ele><time>2026-04-19T11:48:45Z</time></trkpt><trkpt lat="43.421829068729615" lon="10.714757214935142"><ele>505.0</ele><time>2026-04-19T11:48:47Z</time></trkpt><trkpt lat="43.42174554490383" lon="10.714742536428622"><ele>506.0</ele><time>2026-04-19T11:48:49Z</time></trkpt><trkpt lat="43.42166990845842" lon="10.714741060633028"><ele>507.00000000000006</ele><time>2026-04-19T11:48:51Z</time></trkpt><trkpt lat="43.421602681392166" lon="10.714712285472272"><ele>508.0</ele><time>2026-04-19T11:48:53Z</time></trkpt><trkpt lat="43.42153393335742" lon="10.714692174830505"><ele>508.0</ele><time>2026-04-19T11:48:55Z</time></trkpt><trkpt lat="43.42146838798696" lon="10.714684678300092"><ele>508.0</ele><time>2026-04-19T11:48:57.001Z</time></trkpt><trkpt lat="43.42140309897612" lon="10.71467109319687"><ele>508.0</ele><time>2026-04-19T11:48:59.001Z</time></trkpt><trkpt lat="43.42133975176062" lon="10.714641146191203"><ele>508.0</ele><time>2026-04-19T11:49:01.001Z</time></trkpt><trkpt lat="43.421261374885795" lon="10.71461517968521"><ele>508.0</ele><time>2026-04-19T11:49:04.001Z</time></trkpt><trkpt lat="43.421220348905024" lon="10.714549018821522"><ele>508.0</ele><time>2026-04-19T11:49:07.001Z</time></trkpt><trkpt lat="43.421160809085684" lon="10.714480740502959"><ele>508.0</ele><time>2026-04-19T11:49:10.001Z</time></trkpt><trkpt lat="43.42110387162899" lon="10.71443336268132"><ele>508.00000000000006</ele><time>2026-04-19T11:49:13.001Z</time></trkpt><trkpt lat="43.421051432004994" lon="10.714368215743296"><ele>508.0</ele><time>2026-04-19T11:49:17.001Z</time></trkpt><trkpt lat="43.42102852115412" lon="10.714265755481177"><ele>508.0</ele><time>2026-04-19T11:50:07Z</time></trkpt><trkpt lat="43.42098786464629" lon="10.71418868520534"><ele>508.0</ele><time>2026-04-19T11:50:10Z</time></trkpt><trkpt lat="43.420949974958035" lon="10.714097257910218"><ele>508.00000000000006</ele><time>2026-04-19T11:50:13Z</time></trkpt><trkpt lat="43.42091838802091" lon="10.714015394592582"><ele>508.0</ele><time>2026-04-19T11:50:15Z</time></trkpt><trkpt lat="43.4208692108182" lon="10.713907332537708"><ele>508.0</ele><time>2026-04-19T11:50:18Z</time></trkpt><trkpt lat="43.42083413423542" lon="10.713834853891264"><ele>508.0</ele><time>2026-04-19T11:50:20Z</time></trkpt><trkpt lat="43.420801456412214" lon="10.713759465874613"><ele>508.0</ele><time>2026-04-19T11:50:22Z</time></trkpt><trkpt lat="43.42074628395413" lon="10.713677329060323"><ele>508.0</ele><time>2026-04-19T11:50:26Z</time></trkpt><trkpt lat="43.420705862697986" lon="10.71360246856524"><ele>508.0</ele><time>2026-04-19T11:50:29Z</time></trkpt><trkpt lat="43.42063999059201" lon="10.713549754021507"><ele>508.0</ele><time>2026-04-19T11:50:32Z</time></trkpt><trkpt lat="43.420579841538164" lon="10.713524062273814"><ele>508.0</ele><time>2026-04-19T11:50:34Z</time></trkpt><trkpt lat="43.420516468591416" lon="10.713499318801524"><ele>508.1666666666667</ele><time>2026-04-19T11:50:36Z</time></trkpt><trkpt lat="43.420433589023446" lon="10.713474373035739"><ele>508.33333333333337</ele><time>2026-04-19T11:50:39Z</time></trkpt><trkpt lat="43.42035780156041" lon="10.71343517122893"><ele>508.5</ele><time>2026-04-19T11:50:42Z</time></trkpt><trkpt lat="43.42029409647216" lon="10.713390653378708"><ele>508.66666666666663</ele><time>2026-04-19T11:50:45Z</time></trkpt><trkpt lat="43.42021403688388" lon="10.713341218933035"><ele>508.8333333333333</ele><time>2026-04-19T11:50:47Z</time></trkpt><trkpt lat="43.42014086039445" lon="10.713297101235437"><ele>509.0</ele><time>2026-04-19T11:50:50Z</time></trkpt><trkpt lat="43.42007079718329" lon="10.713245999715266"><ele>508.99999999999994</ele><time>2026-04-19T11:50:52Z</time></trkpt><trkpt lat="43.42001795184737" lon="10.713198435165138"><ele>509.0</ele><time>2026-04-19T11:50:55Z</time></trkpt><trkpt lat="43.41995990531731" lon="10.71314000901049"><ele>509.0</ele><time>2026-04-19T11:50:58Z</time></trkpt><trkpt lat="43.419897652523595" lon="10.71307083922986"><ele>509.0</ele><time>2026-04-19T11:51:00Z</time></trkpt><trkpt lat="43.41984101363489" lon="10.712975266074084"><ele>508.99999999999994</ele><time>2026-04-19T11:51:03Z</time></trkpt><trkpt lat="43.41979016170253" lon="10.712898326295925"><ele>509.0</ele><time>2026-04-19T11:51:06Z</time></trkpt><trkpt lat="43.41974539983982" lon="10.712824247736435"><ele>508.99999999999994</ele><time>2026-04-19T11:51:08Z</time></trkpt><trkpt lat="43.41970329361092" lon="10.712758785409816"><ele>509.0</ele><time>2026-04-19T11:51:10Z</time></trkpt><trkpt lat="43.41966265681429" lon="10.712685564625842"><ele>508.99999999999994</ele><time>2026-04-19T11:51:12Z</time></trkpt><trkpt lat="43.419628433660144" lon="10.712608324111569"><ele>508.99999999999994</ele><time>2026-04-19T11:51:15Z</time></trkpt><trkpt lat="43.419594647738755" lon="10.712527266621082"><ele>509.0</ele><time>2026-04-19T11:51:22Z</time></trkpt><trkpt lat="43.419545682365445" lon="10.712456723888767"><ele>508.99999999999994</ele><time>2026-04-19T11:51:26Z</time></trkpt><trkpt lat="43.41950519505288" lon="10.712358112861503"><ele>508.99999999999994</ele><time>2026-04-19T11:51:31Z</time></trkpt><trkpt lat="43.419453646102525" lon="10.712270995767145"><ele>508.99999999999994</ele><time>2026-04-19T11:52:06.999Z</time></trkpt><trkpt lat="43.419386557312656" lon="10.712200320819468"><ele>509.0</ele><time>2026-04-19T11:52:10.999Z</time></trkpt><trkpt lat="43.4193071559297" lon="10.71214958531142"><ele>509.0</ele><time>2026-04-19T11:52:13.999Z</time></trkpt><trkpt lat="43.41924892576847" lon="10.712090406541428"><ele>509.0</ele><time>2026-04-19T11:52:16.999Z</time></trkpt><trkpt lat="43.419190191238314" lon="10.712018717678442"><ele>508.99999999999994</ele><time>2026-04-19T11:52:20Z</time></trkpt><trkpt lat="43.41912502279843" lon="10.711965458074436"><ele>509.0</ele><time>2026-04-19T11:52:24Z</time></trkpt><trkpt lat="43.41905643372" lon="10.711894189526305"><ele>508.16666666666663</ele><time>2026-04-19T11:52:27Z</time></trkpt><trkpt lat="43.418997861688894" lon="10.711818087560491"><ele>507.3333333333333</ele><time>2026-04-19T11:52:31Z</time></trkpt><trkpt lat="43.41895200517586" lon="10.711752727128387"><ele>506.5</ele><time>2026-04-19T11:52:33Z</time></trkpt><trkpt lat="43.41889621903419" lon="10.711683802099188"><ele>505.66666666666663</ele><time>2026-04-19T11:52:36Z</time></trkpt><trkpt lat="43.41884802196789" lon="10.711607842718088"><ele>504.8333333333333</ele><time>2026-04-19T11:52:39Z</time></trkpt><trkpt lat="43.41880882114279" lon="10.711517787023874"><ele>504.0</ele><time>2026-04-19T11:52:42Z</time></trkpt><trkpt lat="43.4187961548676" lon="10.711402617389044"><ele>504.0</ele><time>2026-04-19T11:52:46Z</time></trkpt><trkpt lat="43.41878337542272" lon="10.711309196813378"><ele>504.0</ele><time>2026-04-19T11:52:48Z</time></trkpt><trkpt lat="43.41877376657371" lon="10.71119288760863"><ele>504.0</ele><time>2026-04-19T11:52:50Z</time></trkpt><trkpt lat="43.41877064316989" lon="10.711105340709041"><ele>504.0</ele><time>2026-04-19T11:52:52Z</time></trkpt><trkpt lat="43.41874626048847" lon="10.710997855949461"><ele>504.0</ele><time>2026-04-19T11:52:56Z</time></trkpt><trkpt lat="43.41873382462601" lon="10.710890353376467"><ele>504.0</ele><time>2026-04-19T11:53:00Z</time></trkpt><trkpt lat="43.4187210668981" lon="10.71077211687785"><ele>505.6666666666667</ele><time>2026-04-19T11:53:04Z</time></trkpt><trkpt lat="43.418670959232024" lon="10.710698869831603"><ele>507.33333333333337</ele><time>2026-04-19T11:53:07Z</time></trkpt><trkpt lat="43.41861321625142" lon="10.710652656843381"><ele>509.0</ele><time>2026-04-19T11:53:10Z</time></trkpt><trkpt lat="43.41853810563006" lon="10.710632080909432"><ele>510.6666666666667</ele><time>2026-04-19T11:53:14Z</time></trkpt><trkpt lat="43.418421801468575" lon="10.710571198205976"><ele>512.3333333333334</ele><time>2026-04-19T11:53:17Z</time></trkpt><trkpt lat="43.41836374487309" lon="10.710510143275656"><ele>514.0</ele><time>2026-04-19T11:53:20Z</time></trkpt><trkpt lat="43.41830484931378" lon="10.710420620424461"><ele>514.0</ele><time>2026-04-19T11:53:23Z</time></trkpt><trkpt lat="43.41826424004313" lon="10.710353363354088"><ele>514.0</ele><time>2026-04-19T11:53:25Z</time></trkpt><trkpt lat="43.418218944602614" lon="10.71027982818953"><ele>514.0</ele><time>2026-04-19T11:53:27Z</time></trkpt><trkpt lat="43.41817061448333" lon="10.710199177781695"><ele>514.0</ele><time>2026-04-19T11:53:29Z</time></trkpt><trkpt lat="43.41811408022063" lon="10.71011225383389"><ele>514.0</ele><time>2026-04-19T11:53:31Z</time></trkpt><trkpt lat="43.418065877265896" lon="10.71005194552149"><ele>514.0</ele><time>2026-04-19T11:53:33Z</time></trkpt><trkpt lat="43.41801698704956" lon="10.709992667802457"><ele>514.0</ele><time>2026-04-19T11:53:36Z</time></trkpt><trkpt lat="43.417962132849404" lon="10.709924795276644"><ele>513.8333333333334</ele><time>2026-04-19T11:53:39Z</time></trkpt><trkpt lat="43.41791843615452" lon="10.709830864576439"><ele>513.6666666666667</ele><time>2026-04-19T11:53:43Z</time></trkpt><trkpt lat="43.417882857925335" lon="10.70973875423183"><ele>513.5</ele><time>2026-04-19T11:53:46Z</time></trkpt><trkpt lat="43.417842441892276" lon="10.709642283234968"><ele>513.3333333333334</ele><time>2026-04-19T11:53:49Z</time></trkpt><trkpt lat="43.417809871627966" lon="10.709566072312557"><ele>513.1666666666666</ele><time>2026-04-19T11:53:53Z</time></trkpt><trkpt lat="43.417769615850325" lon="10.70945960422114"><ele>513.0</ele><time>2026-04-19T11:53:59Z</time></trkpt><trkpt lat="43.41773944591422" lon="10.709371016295272"><ele>513.0000000000001</ele><time>2026-04-19T11:54:02.001Z</time></trkpt><trkpt lat="43.417704441786384" lon="10.709271236727236"><ele>513.0</ele><time>2026-04-19T11:54:05.001Z</time></trkpt><trkpt lat="43.41767363676136" lon="10.70917992454643"><ele>513.0</ele><time>2026-04-19T11:54:08.001Z</time></trkpt><trkpt lat="43.41764563647604" lon="10.709099420159797"><ele>513.0</ele><time>2026-04-19T11:54:11.999Z</time></trkpt><trkpt lat="43.417606904456605" lon="10.709026359625675"><ele>513.0</ele><time>2026-04-19T11:54:14.999Z</time></trkpt><trkpt lat="43.417568005526874" lon="10.708914078335068"><ele>513.0000000000001</ele><time>2026-04-19T11:54:17.999Z</time></trkpt><trkpt lat="43.417543234436394" lon="10.708817116485024"><ele>513.0</ele><time>2026-04-19T11:54:20.999Z</time></trkpt><trkpt lat="43.41751706624833" lon="10.708732353986955"><ele>513.0000000000001</ele><time>2026-04-19T11:55:15Z</time></trkpt><trkpt lat="43.417494091438655" lon="10.70863992209512"><ele>513.0</ele><time>2026-04-19T11:55:17Z</time></trkpt><trkpt lat="43.41747232594697" lon="10.708555366225722"><ele>513.0</ele><time>2026-04-19T11:55:19Z</time></trkpt><trkpt lat="43.41742947339254" lon="10.708451279336671"><ele>513.0</ele><time>2026-04-19T11:55:23Z</time></trkpt><trkpt lat="43.4173795169982" lon="10.708388996624976"><ele>513.0</ele><time>2026-04-19T11:55:26Z</time></trkpt><trkpt lat="43.41730502064186" lon="10.708355736417984"><ele>513.0000000000001</ele><time>2026-04-19T11:55:29Z</time></trkpt><trkpt lat="43.41723617489883" lon="10.70837471963167"><ele>513.0</ele><time>2026-04-19T11:55:33Z</time></trkpt><trkpt lat="43.417163850492386" lon="10.708363379140495"><ele>512.5714285714287</ele><time>2026-04-19T11:55:37Z</time></trkpt><trkpt lat="43.417091982632726" lon="10.708305774885863"><ele>512.1428571428571</ele><time>2026-04-19T11:55:41Z</time></trkpt><trkpt lat="43.417024470874274" lon="10.708248469928789"><ele>511.7142857142858</ele><time>2026-04-19T11:55:45Z</time></trkpt><trkpt lat="43.41696768983713" lon="10.708184588675302"><ele>511.28571428571433</ele><time>2026-04-19T11:55:49Z</time></trkpt><trkpt lat="43.416909438602914" lon="10.708132000997328"><ele>510.8571428571429</ele><time>2026-04-19T11:55:53Z</time></trkpt><trkpt lat="43.41684183954362" lon="10.708137353430272"><ele>510.42857142857144</ele><time>2026-04-19T11:56:17.001Z</time></trkpt><trkpt lat="43.41677531308055" lon="10.708152751482057"><ele>510.0</ele><time>2026-04-19T11:56:22.999Z</time></trkpt><trkpt lat="43.41672114327887" lon="10.708222695800732"><ele>510.0</ele><time>2026-04-19T11:56:35Z</time></trkpt><trkpt lat="43.41667099254058" lon="10.70828247265804"><ele>510.00000000000006</ele><time>2026-04-19T11:56:39Z</time></trkpt><trkpt lat="43.41659992512793" lon="10.708301856576627"><ele>510.0</ele><time>2026-04-19T11:56:52Z</time></trkpt><trkpt lat="43.41652321819532" lon="10.708271675801381"><ele>510.0</ele><time>2026-04-19T11:57:18Z</time></trkpt><trkpt lat="43.4164662753602" lon="10.708227500454626"><ele>510.00000000000006</ele><time>2026-04-19T11:57:43Z</time></trkpt><trkpt lat="43.416412554059896" lon="10.708163900165598"><ele>510.0</ele><time>2026-04-19T11:57:54Z</time></trkpt><trkpt lat="43.41635403450479" lon="10.70811861144097"><ele>510.0</ele><time>2026-04-19T11:58:13.001Z</time></trkpt><trkpt lat="43.41630424207358" lon="10.708064294382227"><ele>510.42857142857144</ele><time>2026-04-19T11:58:20.001Z</time></trkpt><trkpt lat="43.416238866752686" lon="10.70800566533249"><ele>510.8571428571429</ele><time>2026-04-19T11:58:29Z</time></trkpt><trkpt lat="43.416182201726556" lon="10.707952706736462"><ele>511.28571428571433</ele><time>2026-04-19T11:58:33Z</time></trkpt><trkpt lat="43.41611821810048" lon="10.707894407267181"><ele>511.7142857142858</ele><time>2026-04-19T11:58:37Z</time></trkpt><trkpt lat="43.41606148114332" lon="10.7078522048404"><ele>512.1428571428571</ele><time>2026-04-19T11:58:43Z</time></trkpt><trkpt lat="43.415999141071254" lon="10.707801752378991"><ele>512.5714285714287</ele><time>2026-04-19T11:59:10Z</time></trkpt><trkpt lat="43.415936066431115" lon="10.70775546501378"><ele>513.0</ele><time>2026-04-19T11:59:20Z</time></trkpt><trkpt lat="43.41586972180308" lon="10.70769972584401"><ele>513.0000000000001</ele><time>2026-04-19T11:59:26Z</time></trkpt><trkpt lat="43.41581741376818" lon="10.70764964257551"><ele>513.0</ele><time>2026-04-19T11:59:30Z</time></trkpt><trkpt lat="43.41575509522764" lon="10.707607461983828"><ele>513.0</ele><time>2026-04-19T11:59:44Z</time></trkpt><trkpt lat="43.415695244196534" lon="10.70757052207834"><ele>513.0</ele><time>2026-04-19T11:59:57.001Z</time></trkpt><trkpt lat="43.41563552568473" lon="10.707536833080388"><ele>513.0</ele><time>2026-04-19T12:00:02.001Z</time></trkpt><trkpt lat="43.415571912898834" lon="10.707506312389402"><ele>513.0000000000001</ele><time>2026-04-19T12:00:13.001Z</time></trkpt><trkpt lat="43.4154912672246" lon="10.707488235810803"><ele>513.0</ele><time>2026-04-19T12:00:15.001Z</time></trkpt><trkpt lat="43.415416313096046" lon="10.707477835816764"><ele>511.00000000000006</ele><time>2026-04-19T12:00:17.001Z</time></trkpt><trkpt lat="43.415340623820484" lon="10.707465324499465"><ele>509.0</ele><time>2026-04-19T12:00:19.001Z</time></trkpt><trkpt lat="43.41527605462478" lon="10.707447234520998"><ele>507.00000000000006</ele><time>2026-04-19T12:00:21.001Z</time></trkpt><trkpt lat="43.41521873116737" lon="10.70740830256314"><ele>505.00000000000006</ele><time>2026-04-19T12:00:25.001Z</time></trkpt><trkpt lat="43.415158020732804" lon="10.707366342707084"><ele>503.0</ele><time>2026-04-19T12:00:38Z</time></trkpt><trkpt lat="43.41510465839197" lon="10.707310464486616"><ele>501.00000000000006</ele><time>2026-04-19T12:00:57Z</time></trkpt><trkpt lat="43.41506011194743" lon="10.707243315116902"><ele>499.00000000000006</ele><time>2026-04-19T12:01:09Z</time></trkpt><trkpt lat="43.41501810353994" lon="10.707166750619606"><ele>499.00000000000006</ele><time>2026-04-19T12:01:23Z</time></trkpt><trkpt lat="43.414975776135684" lon="10.707096121252897"><ele>499.0</ele><time>2026-04-19T12:01:36Z</time></trkpt><trkpt lat="43.41492408131432" lon="10.707045200657335"><ele>499.00000000000006</ele><time>2026-04-19T12:01:39Z</time></trkpt><trkpt lat="43.41486498001393" lon="10.706977371227259"><ele>499.00000000000006</ele><time>2026-04-19T12:01:43Z</time></trkpt><trkpt lat="43.414819010192275" lon="10.706896477600628"><ele>499.0</ele><time>2026-04-19T12:01:47Z</time></trkpt><trkpt lat="43.41478002125999" lon="10.706816280849873"><ele>499.00000000000006</ele><time>2026-04-19T12:01:51Z</time></trkpt><trkpt lat="43.41475195484249" lon="10.706736665361783"><ele>499.00000000000006</ele><time>2026-04-19T12:01:55Z</time></trkpt><trkpt lat="43.41473242076271" lon="10.70663592296758"><ele>498.50000000000006</ele><time>2026-04-19T12:02:00Z</time></trkpt><trkpt lat="43.4146853471719" lon="10.706557820264335"><ele>498.0</ele><time>2026-04-19T12:02:04.001Z</time></trkpt><trkpt lat="43.41463111135805" lon="10.706476677852141"><ele>497.5</ele><time>2026-04-19T12:02:08.001Z</time></trkpt><trkpt lat="43.41456413246279" lon="10.706408804807111"><ele>497.0</ele><time>2026-04-19T12:02:11.001Z</time></trkpt><trkpt lat="43.41450385473728" lon="10.70637608787609"><ele>496.50000000000006</ele><time>2026-04-19T12:02:14.001Z</time></trkpt><trkpt lat="43.41443633427318" lon="10.706361085869762"><ele>496.0</ele><time>2026-04-19T12:02:18.001Z</time></trkpt><trkpt lat="43.41434855102156" lon="10.706374289850174"><ele>496.0</ele><time>2026-04-19T12:02:22.001Z</time></trkpt><trkpt lat="43.4142573024716" lon="10.706393613900856"><ele>496.00000000000006</ele><time>2026-04-19T12:02:25.001Z</time></trkpt><trkpt lat="43.41419276712164" lon="10.706392183808141"><ele>496.0</ele><time>2026-04-19T12:02:27.001Z</time></trkpt><trkpt lat="43.414123167134704" lon="10.706383371662795"><ele>496.0</ele><time>2026-04-19T12:02:29.001Z</time></trkpt><trkpt lat="43.41404234111266" lon="10.706361039797287"><ele>496.00000000000006</ele><time>2026-04-19T12:02:32.001Z</time></trkpt><trkpt lat="43.413977252000606" lon="10.706366588164268"><ele>496.0</ele><time>2026-04-19T12:02:35.999Z</time></trkpt><trkpt lat="43.41390813900762" lon="10.706329096698783"><ele>496.0</ele><time>2026-04-19T12:02:41.999Z</time></trkpt><trkpt lat="43.41384861608763" lon="10.706281850109997"><ele>496.50000000000006</ele><time>2026-04-19T12:02:43.999Z</time></trkpt><trkpt lat="43.41379184835945" lon="10.706205560451169"><ele>497.0</ele><time>2026-04-19T12:02:47.999Z</time></trkpt><trkpt lat="43.41372506373176" lon="10.706134455970586"><ele>497.5</ele><time>2026-04-19T12:02:51.999Z</time></trkpt><trkpt lat="43.4136779294101" lon="10.70604952496934"><ele>498.0</ele><time>2026-04-19T12:02:55Z</time></trkpt><trkpt lat="43.413618147124915" lon="10.70596381218538"><ele>498.50000000000006</ele><time>2026-04-19T12:02:58Z</time></trkpt><trkpt lat="43.41356997872919" lon="10.705903574953838"><ele>499.0</ele><time>2026-04-19T12:03:00Z</time></trkpt><trkpt lat="43.413514332220196" lon="10.705838323722128"><ele>499.00000000000006</ele><time>2026-04-19T12:03:02Z</time></trkpt><trkpt lat="43.413461176628424" lon="10.705771539054263"><ele>499.0</ele><time>2026-04-19T12:03:04Z</time></trkpt><trkpt lat="43.41340650365977" lon="10.705697204827139"><ele>499.00000000000006</ele><time>2026-04-19T12:03:07Z</time></trkpt><trkpt lat="43.413364472857744" lon="10.705629208003668"><ele>499.00000000000006</ele><time>2026-04-19T12:03:10Z</time></trkpt><trkpt lat="43.41330672275389" lon="10.705572981779417"><ele>499.0</ele><time>2026-04-19T12:03:24Z</time></trkpt><trkpt lat="43.413259353543786" lon="10.70551072330909"><ele>499.00000000000006</ele><time>2026-04-19T12:03:28Z</time></trkpt><trkpt lat="43.413202692145575" lon="10.70543712026161"><ele>499.00000000000006</ele><time>2026-04-19T12:03:33Z</time></trkpt><trkpt lat="43.41315159528077" lon="10.705381503069544"><ele>499.00000000000006</ele><time>2026-04-19T12:03:37Z</time></trkpt><trkpt lat="43.41309850998609" lon="10.705332856660023"><ele>499.0</ele><time>2026-04-19T12:03:40Z</time></trkpt><trkpt lat="43.41302518732612" lon="10.705317407649725"><ele>499.00000000000006</ele><time>2026-04-19T12:03:43Z</time></trkpt><trkpt lat="43.41294296892822" lon="10.705314943924925"><ele>499.00000000000006</ele><time>2026-04-19T12:03:46Z</time></trkpt><trkpt lat="43.412861237468775" lon="10.705306155490831"><ele>499.0</ele><time>2026-04-19T12:03:50Z</time></trkpt><trkpt lat="43.41280437641989" lon="10.705268475299684"><ele>499.00000000000006</ele><time>2026-04-19T12:03:53Z</time></trkpt><trkpt lat="43.41274083779304" lon="10.70524807175696"><ele>499.00000000000006</ele><time>2026-04-19T12:03:56Z</time></trkpt><trkpt lat="43.41267729892035" lon="10.705256054682193"><ele>498.28571428571433</ele><time>2026-04-19T12:04:01Z</time></trkpt><trkpt lat="43.412605391749494" lon="10.705269148394589"><ele>497.57142857142856</ele><time>2026-04-19T12:04:06Z</time></trkpt><trkpt lat="43.41253977775716" lon="10.705281946756452"><ele>496.8571428571429</ele><time>2026-04-19T12:04:10Z</time></trkpt><trkpt lat="43.41246984266015" lon="10.705298915721775"><ele>496.14285714285717</ele><time>2026-04-19T12:04:14.001Z</time></trkpt><trkpt lat="43.41240618925985" lon="10.705348643507918"><ele>495.42857142857144</ele><time>2026-04-19T12:04:19.001Z</time></trkpt><trkpt lat="43.412351226154605" lon="10.705420893632722"><ele>494.7142857142857</ele><time>2026-04-19T12:04:45.999Z</time></trkpt><trkpt lat="43.41230186195037" lon="10.705492697187548"><ele>494.0</ele><time>2026-04-19T12:04:50.999Z</time></trkpt><trkpt lat="43.41224276912765" lon="10.705539461697102"><ele>494.0</ele><time>2026-04-19T12:04:55.999Z</time></trkpt><trkpt lat="43.41217001022198" lon="10.705548415185536"><ele>494.0</ele><time>2026-04-19T12:05:01.999Z</time></trkpt><trkpt lat="43.41210246643919" lon="10.705538620895883"><ele>494.0</ele><time>2026-04-19T12:05:09Z</time></trkpt><trkpt lat="43.41203793971533" lon="10.70549879079404"><ele>494.0</ele><time>2026-04-19T12:06:25.001Z</time></trkpt><trkpt lat="43.41197603826527" lon="10.705464039841262"><ele>494.0</ele><time>2026-04-19T12:06:36.001Z</time></trkpt><trkpt lat="43.41191266586191" lon="10.705441771804088"><ele>494.0</ele><time>2026-04-19T12:06:46.001Z</time></trkpt><trkpt lat="43.411846354931996" lon="10.705396085586429"><ele>494.0</ele><time>2026-04-19T12:06:53Z</time></trkpt><trkpt lat="43.41178390895227" lon="10.705380294482161"><ele>493.8571428571429</ele><time>2026-04-19T12:06:59Z</time></trkpt><trkpt lat="43.41171635971528" lon="10.70536517919321"><ele>493.71428571428567</ele><time>2026-04-19T12:07:05Z</time></trkpt><trkpt lat="43.41165133406249" lon="10.705330507960458"><ele>493.57142857142856</ele><time>2026-04-19T12:07:10Z</time></trkpt><trkpt lat="43.411580461426674" lon="10.70529990313976"><ele>493.42857142857144</ele><time>2026-04-19T12:07:15Z</time></trkpt><trkpt lat="43.41150874856451" lon="10.705285526020019"><ele>493.28571428571433</ele><time>2026-04-19T12:07:20Z</time></trkpt><trkpt lat="43.41144560206034" lon="10.705281651355204"><ele>493.1428571428571</ele><time>2026-04-19T12:07:24Z</time></trkpt><trkpt lat="43.4113706117512" lon="10.705298685758041"><ele>493.0</ele><time>2026-04-19T12:07:28Z</time></trkpt><trkpt lat="43.411293660401384" lon="10.705332395438775"><ele>494.6666666666667</ele><time>2026-04-19T12:07:32Z</time></trkpt><trkpt lat="43.411230679888675" lon="10.705361382096335"><ele>496.33333333333337</ele><time>2026-04-19T12:07:36Z</time></trkpt><trkpt lat="43.411164443918366" lon="10.705412181678504"><ele>498.0</ele><time>2026-04-19T12:07:40Z</time></trkpt><trkpt lat="43.41111278684537" lon="10.705467877203567"><ele>499.66666666666663</ele><time>2026-04-19T12:07:44Z</time></trkpt><trkpt lat="43.41104345549923" lon="10.705541028789582"><ele>501.3333333333333</ele><time>2026-04-19T12:07:46Z</time></trkpt><trkpt lat="43.410983726650144" lon="10.705614671172935"><ele>503.0</ele><time>2026-04-19T12:07:47Z</time></trkpt><trkpt lat="43.41092786062608" lon="10.70569008800062"><ele>502.99999999999994</ele><time>2026-04-19T12:07:48Z</time></trkpt><trkpt lat="43.41086681120629" lon="10.705804963452824"><ele>503.0</ele><time>2026-04-19T12:07:50Z</time></trkpt><trkpt lat="43.41082443555343" lon="10.705887101449196"><ele>503.0</ele><time>2026-04-19T12:07:52Z</time></trkpt><trkpt lat="43.410776607772895" lon="10.705955568441114"><ele>503.0</ele><time>2026-04-19T12:07:59Z</time></trkpt><trkpt lat="43.41072655937876" lon="10.706018130877416"><ele>502.99999999999994</ele><time>2026-04-19T12:08:04Z</time></trkpt><trkpt lat="43.41066024088621" lon="10.706080627464104"><ele>503.0</ele><time>2026-04-19T12:08:09.001Z</time></trkpt><trkpt lat="43.41060017294002" lon="10.706128331224027"><ele>502.99999999999994</ele><time>2026-04-19T12:08:13.001Z</time></trkpt><trkpt lat="43.41053458358051" lon="10.706181671038348"><ele>503.0</ele><time>2026-04-19T12:08:18.001Z</time></trkpt><trkpt lat="43.410475841996664" lon="10.706227315756728"><ele>503.0</ele><time>2026-04-19T12:08:21.001Z</time></trkpt><trkpt lat="43.4104079948511" lon="10.706297000754551"><ele>503.0</ele><time>2026-04-19T12:08:24.001Z</time></trkpt><trkpt lat="43.41035070429217" lon="10.706336052931405"><ele>502.99999999999994</ele><time>2026-04-19T12:08:26.001Z</time></trkpt><trkpt lat="43.41026941592174" lon="10.70636055049674"><ele>503.0</ele><time>2026-04-19T12:08:30.001Z</time></trkpt><trkpt lat="43.41018082223706" lon="10.706349203567926"><ele>503.0</ele><time>2026-04-19T12:08:33.001Z</time></trkpt><trkpt lat="43.41010835890007" lon="10.706339290999844"><ele>503.00000000000006</ele><time>2026-04-19T12:08:36.001Z</time></trkpt><trkpt lat="43.41003497276223" lon="10.7063414887781"><ele>503.0</ele><time>2026-04-19T12:08:40.001Z</time></trkpt><trkpt lat="43.4099695886239" lon="10.706340132134764"><ele>503.0</ele><time>2026-04-19T12:08:43.001Z</time></trkpt><trkpt lat="43.4099062660894" lon="10.706359296856597"><ele>503.00000000000006</ele><time>2026-04-19T12:08:48.001Z</time></trkpt><trkpt lat="43.409844804753554" lon="10.706396306444445"><ele>503.0</ele><time>2026-04-19T12:08:55Z</time></trkpt><trkpt lat="43.409792024205444" lon="10.706444085326313"><ele>503.0</ele><time>2026-04-19T12:09:04Z</time></trkpt><trkpt lat="43.409719858742115" lon="10.70651987834319"><ele>503.42857142857144</ele><time>2026-04-19T12:09:08Z</time></trkpt><trkpt lat="43.40965576948167" lon="10.706621248600227"><ele>503.8571428571429</ele><time>2026-04-19T12:09:10Z</time></trkpt><trkpt lat="43.40962565697623" lon="10.706701085875546"><ele>504.28571428571433</ele><time>2026-04-19T12:09:13Z</time></trkpt><trkpt lat="43.40959102049529" lon="10.706773983927249"><ele>504.7142857142858</ele><time>2026-04-19T12:09:30Z</time></trkpt><trkpt lat="43.409548770031094" lon="10.706856618635904"><ele>505.14285714285717</ele><time>2026-04-19T12:09:36Z</time></trkpt><trkpt lat="43.40949043812889" lon="10.706921137634817"><ele>505.57142857142867</ele><time>2026-04-19T12:09:41Z</time></trkpt><trkpt lat="43.40943201797682" lon="10.706960802207071"><ele>506.00000000000006</ele><time>2026-04-19T12:09:44Z</time></trkpt><trkpt lat="43.409370500727405" lon="10.707014041913608"><ele>506.00000000000006</ele><time>2026-04-19T12:09:47Z</time></trkpt><trkpt lat="43.40931307489007" lon="10.707053192519666"><ele>506.0</ele><time>2026-04-19T12:09:50Z</time></trkpt><trkpt lat="43.409253931548946" lon="10.707104317539313"><ele>506.00000000000006</ele><time>2026-04-19T12:09:53Z</time></trkpt><trkpt lat="43.4091981105468" lon="10.707168832560667"><ele>506.00000000000006</ele><time>2026-04-19T12:09:57Z</time></trkpt><trkpt lat="43.40915671976503" lon="10.70725066303819"><ele>506.0</ele><time>2026-04-19T12:10:00Z</time></trkpt><trkpt lat="43.40912876660339" lon="10.707348894632664"><ele>506.00000000000006</ele><time>2026-04-19T12:10:03Z</time></trkpt><trkpt lat="43.40910529468884" lon="10.707437548253075"><ele>506.00000000000006</ele><time>2026-04-19T12:10:06Z</time></trkpt><trkpt lat="43.40907609841898" lon="10.707522087704517"><ele>506.00000000000006</ele><time>2026-04-19T12:10:09Z</time></trkpt><trkpt lat="43.409070408111916" lon="10.707636475811778"><ele>506.0</ele><time>2026-04-19T12:10:30.001Z</time></trkpt><trkpt lat="43.40906467541945" lon="10.70772496128735"><ele>506.00000000000006</ele><time>2026-04-19T12:10:35.001Z</time></trkpt><trkpt lat="43.40905307249835" lon="10.707833130530998"><ele>506.00000000000006</ele><time>2026-04-19T12:10:39.001Z</time></trkpt><trkpt lat="43.409049343766085" lon="10.707929335959584"><ele>506.0</ele><time>2026-04-19T12:10:42.001Z</time></trkpt><trkpt lat="43.409039760127214" lon="10.708033687656425"><ele>506.00000000000006</ele><time>2026-04-19T12:10:45.001Z</time></trkpt><trkpt lat="43.40903123864487" lon="10.708133405286915"><ele>506.00000000000006</ele><time>2026-04-19T12:10:50.001Z</time></trkpt><trkpt lat="43.40902546510758" lon="10.708221156785804"><ele>505.28571428571433</ele><time>2026-04-19T12:10:57.001Z</time></trkpt><trkpt lat="43.4090276367776" lon="10.708326448216923"><ele>504.57142857142856</ele><time>2026-04-19T12:11:13Z</time></trkpt><trkpt lat="43.40903054713509" lon="10.708424320992739"><ele>503.8571428571429</ele><time>2026-04-19T12:11:24Z</time></trkpt><trkpt lat="43.40904327263039" lon="10.708515887614151"><ele>503.14285714285717</ele><time>2026-04-19T12:11:30Z</time></trkpt><trkpt lat="43.40905924908632" lon="10.708615295070882"><ele>502.42857142857144</ele><time>2026-04-19T12:11:35Z</time></trkpt><trkpt lat="43.40907893183127" lon="10.708724865513565"><ele>501.7142857142857</ele><time>2026-04-19T12:11:38Z</time></trkpt><trkpt lat="43.409070796884215" lon="10.708816287816486"><ele>501.0</ele><time>2026-04-19T12:11:43Z</time></trkpt><trkpt lat="43.40909685495389" lon="10.708904894655056"><ele>500.57142857142856</ele><time>2026-04-19T12:12:42.001Z</time></trkpt><trkpt lat="43.4091320472481" lon="10.708989307156928"><ele>500.1428571428571</ele><time>2026-04-19T12:12:46.001Z</time></trkpt><trkpt lat="43.40915400743569" lon="10.70907989406321"><ele>499.71428571428567</ele><time>2026-04-19T12:12:49.001Z</time></trkpt><trkpt lat="43.40917135202415" lon="10.709172915570432"><ele>499.2857142857143</ele><time>2026-04-19T12:12:52.001Z</time></trkpt><trkpt lat="43.40917994508824" lon="10.70926669662805"><ele>498.8571428571428</ele><time>2026-04-19T12:12:55.001Z</time></trkpt><trkpt lat="43.40916265802694" lon="10.70935196740513"><ele>498.4285714285714</ele><time>2026-04-19T12:12:57.001Z</time></trkpt><trkpt lat="43.409142071124236" lon="10.709437087553985"><ele>498.0</ele><time>2026-04-19T12:12:59.001Z</time></trkpt><trkpt lat="43.40911391081643" lon="10.709529372127875"><ele>497.3333333333333</ele><time>2026-04-19T12:13:02.001Z</time></trkpt><trkpt lat="43.409077036278575" lon="10.70965169232567"><ele>496.66666666666663</ele><time>2026-04-19T12:13:05Z</time></trkpt><trkpt lat="43.409053410558734" lon="10.709751618882823"><ele>496.0</ele><time>2026-04-19T12:13:07Z</time></trkpt><trkpt lat="43.40902445994381" lon="10.70984500717829"><ele>495.3333333333333</ele><time>2026-04-19T12:13:09Z</time></trkpt><trkpt lat="43.40899429536561" lon="10.70993072123272"><ele>494.66666666666663</ele><time>2026-04-19T12:13:11Z</time></trkpt><trkpt lat="43.40896557112983" lon="10.710013792858335"><ele>494.0</ele><time>2026-04-19T12:13:13Z</time></trkpt><trkpt lat="43.40893518084978" lon="10.710112810553591"><ele>493.99999999999994</ele><time>2026-04-19T12:13:15Z</time></trkpt><trkpt lat="43.408912060639196" lon="10.710204918582702"><ele>494.0</ele><time>2026-04-19T12:13:17Z</time></trkpt><trkpt lat="43.40889698242971" lon="10.710301929882624"><ele>494.0</ele><time>2026-04-19T12:13:19Z</time></trkpt><trkpt lat="43.40887141548971" lon="10.710405203961765"><ele>494.0</ele><time>2026-04-19T12:13:21Z</time></trkpt><trkpt lat="43.40884582404524" lon="10.710538584000512"><ele>493.99999999999994</ele><time>2026-04-19T12:13:24Z</time></trkpt><trkpt lat="43.40881578481913" lon="10.71064421721566"><ele>494.0</ele><time>2026-04-19T12:13:26Z</time></trkpt><trkpt lat="43.408769902285044" lon="10.71073663079898"><ele>494.49999999999994</ele><time>2026-04-19T12:13:28Z</time></trkpt><trkpt lat="43.408725001045205" lon="10.710817762393162"><ele>495.0</ele><time>2026-04-19T12:13:30Z</time></trkpt><trkpt lat="43.4086695658457" lon="10.710873093172262"><ele>495.5</ele><time>2026-04-19T12:13:32Z</time></trkpt><trkpt lat="43.40860946071027" lon="10.710909271154907"><ele>496.0</ele><time>2026-04-19T12:13:34Z</time></trkpt><trkpt lat="43.408514924170596" lon="10.710925991244855"><ele>496.49999999999994</ele><time>2026-04-19T12:13:37Z</time></trkpt><trkpt lat="43.408430040521196" lon="10.710947954827502"><ele>497.0</ele><time>2026-04-19T12:13:39Z</time></trkpt><trkpt lat="43.40835368304109" lon="10.710993311892885"><ele>496.99999999999994</ele><time>2026-04-19T12:13:41Z</time></trkpt><trkpt lat="43.408268611869076" lon="10.711057636081181"><ele>497.0</ele><time>2026-04-19T12:13:43Z</time></trkpt><trkpt lat="43.408172493322716" lon="10.711099155316825"><ele>497.0</ele><time>2026-04-19T12:13:45Z</time></trkpt><trkpt lat="43.40809536384092" lon="10.711132931280046"><ele>497.0</ele><time>2026-04-19T12:13:48Z</time></trkpt><trkpt lat="43.40802159150455" lon="10.711166826743236"><ele>496.99999999999994</ele><time>2026-04-19T12:13:51Z</time></trkpt><trkpt lat="43.40794792620924" lon="10.711204221168403"><ele>497.0</ele><time>2026-04-19T12:13:54Z</time></trkpt><trkpt lat="43.40788243356497" lon="10.711225834886717"><ele>496.20000000000005</ele><time>2026-04-19T12:13:56Z</time></trkpt><trkpt lat="43.40779062956898" lon="10.711261353137658"><ele>495.40000000000003</ele><time>2026-04-19T12:13:59Z</time></trkpt><trkpt lat="43.407716655139886" lon="10.711299283631671"><ele>494.59999999999997</ele><time>2026-04-19T12:14:01Z</time></trkpt><trkpt lat="43.407638675347215" lon="10.711342944514731"><ele>493.79999999999995</ele><time>2026-04-19T12:14:03Z</time></trkpt><trkpt lat="43.40755423497178" lon="10.711390235223478"><ele>493.0</ele><time>2026-04-19T12:14:05.001Z</time></trkpt><trkpt lat="43.40746160359867" lon="10.711444203388021"><ele>493.00000000000006</ele><time>2026-04-19T12:14:07.001Z</time></trkpt><trkpt lat="43.40737034499964" lon="10.711463928063493"><ele>493.0</ele><time>2026-04-19T12:14:09.001Z</time></trkpt><trkpt lat="43.40728718006832" lon="10.711469442595858"><ele>493.0</ele><time>2026-04-19T12:14:11.001Z</time></trkpt><trkpt lat="43.40721740546994" lon="10.711465189149546"><ele>493.0</ele><time>2026-04-19T12:14:13.001Z</time></trkpt><trkpt lat="43.40714629855432" lon="10.711456853757992"><ele>493.00000000000006</ele><time>2026-04-19T12:14:15.001Z</time></trkpt><trkpt lat="43.407081208670895" lon="10.711467691282866"><ele>493.0</ele><time>2026-04-19T12:14:17.001Z</time></trkpt><trkpt lat="43.40701882207205" lon="10.711509606961492"><ele>495.50000000000006</ele><time>2026-04-19T12:14:19.001Z</time></trkpt><trkpt lat="43.40696072129358" lon="10.711560725944533"><ele>498.0</ele><time>2026-04-19T12:14:21.001Z</time></trkpt><trkpt lat="43.40690130030375" lon="10.711604638277532"><ele>500.5</ele><time>2026-04-19T12:14:23.001Z</time></trkpt><trkpt lat="43.40682239686121" lon="10.711662853651335"><ele>503.0</ele><time>2026-04-19T12:14:25.001Z</time></trkpt><trkpt lat="43.40674554209204" lon="10.711729553512253"><ele>505.50000000000006</ele><time>2026-04-19T12:14:27.001Z</time></trkpt><trkpt lat="43.40667506252253" lon="10.711768593191628"><ele>508.0</ele><time>2026-04-19T12:14:29.001Z</time></trkpt><trkpt lat="43.40661450490205" lon="10.711822598770333"><ele>508.00000000000006</ele><time>2026-04-19T12:14:31.001Z</time></trkpt><trkpt lat="43.406551593747125" lon="10.711885356433289"><ele>508.0</ele><time>2026-04-19T12:14:33.001Z</time></trkpt><trkpt lat="43.406486264603345" lon="10.711945527238539"><ele>508.0</ele><time>2026-04-19T12:14:35.001Z</time></trkpt><trkpt lat="43.40642077384617" lon="10.71200523717989"><ele>508.0</ele><time>2026-04-19T12:14:37.001Z</time></trkpt><trkpt lat="43.40636766167444" lon="10.712069030458474"><ele>508.00000000000006</ele><time>2026-04-19T12:14:39.001Z</time></trkpt><trkpt lat="43.40631482283781" lon="10.712169170005238"><ele>508.0</ele><time>2026-04-19T12:14:42.001Z</time></trkpt><trkpt lat="43.40628049933952" lon="10.712259558206211"><ele>507.4</ele><time>2026-04-19T12:14:44.001Z</time></trkpt><trkpt lat="43.40624846652449" lon="10.712382993674456"><ele>506.79999999999995</ele><time>2026-04-19T12:14:47.001Z</time></trkpt><trkpt lat="43.4062000891866" lon="10.712504561405154"><ele>506.2</ele><time>2026-04-19T12:14:49.001Z</time></trkpt><trkpt lat="43.40615123731182" lon="10.712643396800745"><ele>505.6</ele><time>2026-04-19T12:14:51.001Z</time></trkpt><trkpt lat="43.40610886807167" lon="10.712733684527642"><ele>505.0</ele><time>2026-04-19T12:14:53.001Z</time></trkpt><trkpt lat="43.40604863729812" lon="10.712820626447575"><ele>505.00000000000006</ele><time>2026-04-19T12:14:56.001Z</time></trkpt><trkpt lat="43.40599519718292" lon="10.71288751197358"><ele>505.0</ele><time>2026-04-19T12:14:58.001Z</time></trkpt><trkpt lat="43.40593049619826" lon="10.712968419468908"><ele>505.0</ele><time>2026-04-19T12:15:00.001Z</time></trkpt><trkpt lat="43.40589065258162" lon="10.713050130572315"><ele>505.0</ele><time>2026-04-19T12:15:02.001Z</time></trkpt><trkpt lat="43.40584268848407" lon="10.71314918138745"><ele>505.00000000000006</ele><time>2026-04-19T12:15:05.001Z</time></trkpt><trkpt lat="43.40579432164107" lon="10.713302915896714"><ele>505.0</ele><time>2026-04-19T12:15:08.001Z</time></trkpt><trkpt lat="43.40577199931048" lon="10.713384583171937"><ele>505.0</ele><time>2026-04-19T12:15:09.001Z</time></trkpt><trkpt lat="43.405750995465546" lon="10.713485722378563"><ele>504.99999999999994</ele><time>2026-04-19T12:15:11Z</time></trkpt><trkpt lat="43.405717636688216" lon="10.713561293486876"><ele>505.0</ele><time>2026-04-19T12:15:13Z</time></trkpt><trkpt lat="43.40567659554091" lon="10.713653580258958"><ele>505.0</ele><time>2026-04-19T12:15:15Z</time></trkpt><trkpt lat="43.40564482883001" lon="10.713741732761465"><ele>504.99999999999994</ele><time>2026-04-19T12:15:17Z</time></trkpt><trkpt lat="43.40561246653072" lon="10.71382059609206"><ele>505.0</ele><time>2026-04-19T12:15:19Z</time></trkpt><trkpt lat="43.405584806845965" lon="10.71390233512432"><ele>505.0</ele><time>2026-04-19T12:15:21Z</time></trkpt><trkpt lat="43.405549439766844" lon="10.71399701165109"><ele>503.33333333333337</ele><time>2026-04-19T12:15:23Z</time></trkpt><trkpt lat="43.405513651851265" lon="10.714087786721711"><ele>501.6666666666667</ele><time>2026-04-19T12:15:25Z</time></trkpt><trkpt lat="43.40548057421275" lon="10.714178844857301"><ele>500.0</ele><time>2026-04-19T12:15:27Z</time></trkpt><trkpt lat="43.40545312025547" lon="10.714274239299838"><ele>498.33333333333337</ele><time>2026-04-19T12:15:29Z</time></trkpt><trkpt lat="43.4054305732765" lon="10.714361807023492"><ele>496.6666666666667</ele><time>2026-04-19T12:15:31Z</time></trkpt><trkpt lat="43.40541393614019" lon="10.714466103240683"><ele>495.0</ele><time>2026-04-19T12:15:33Z</time></trkpt><trkpt lat="43.40542351931151" lon="10.71463484064704"><ele>496.8</ele><time>2026-04-19T12:15:35Z</time></trkpt><trkpt lat="43.40542144736084" lon="10.714748007914075"><ele>498.6</ele><time>2026-04-19T12:15:37Z</time></trkpt><trkpt lat="43.405429706087666" lon="10.71487122800845"><ele>500.4</ele><time>2026-04-19T12:15:39Z</time></trkpt><trkpt lat="43.40540306404492" lon="10.71501415273036"><ele>502.2</ele><time>2026-04-19T12:15:41Z</time></trkpt><trkpt lat="43.4053824716132" lon="10.71516424557183"><ele>504.0</ele><time>2026-04-19T12:15:43Z</time></trkpt><trkpt lat="43.40536463023178" lon="10.715326875590824"><ele>504.0</ele><time>2026-04-19T12:15:45Z</time></trkpt><trkpt lat="43.40533134144943" lon="10.715482212247682"><ele>504.0</ele><time>2026-04-19T12:15:47Z</time></trkpt><trkpt lat="43.405298596182334" lon="10.715633195193126"><ele>504.0</ele><time>2026-04-19T12:15:49Z</time></trkpt><trkpt lat="43.40527739051519" lon="10.71579997014788"><ele>504.0</ele><time>2026-04-19T12:15:51Z</time></trkpt><trkpt lat="43.40526295856618" lon="10.715890008251742"><ele>504.0</ele><time>2026-04-19T12:15:52Z</time></trkpt><trkpt lat="43.405215807660326" lon="10.716053404960688"><ele>500.5</ele><time>2026-04-19T12:15:54Z</time></trkpt><trkpt lat="43.40517090477101" lon="10.716119927445588"><ele>497.0</ele><time>2026-04-19T12:15:55Z</time></trkpt><trkpt lat="43.40504513996785" lon="10.71618801457693"><ele>493.5</ele><time>2026-04-19T12:15:57Z</time></trkpt><trkpt lat="43.40496211255416" lon="10.716174137423812"><ele>490.0</ele><time>2026-04-19T12:15:58Z</time></trkpt><trkpt lat="43.40489884023369" lon="10.71620453616509"><ele>486.5</ele><time>2026-04-19T12:15:59Z</time></trkpt><trkpt lat="43.40482989692179" lon="10.716246336215784"><ele>483.0</ele><time>2026-04-19T12:16:00Z</time></trkpt><trkpt lat="43.40476592413109" lon="10.716277315630586"><ele>483.0</ele><time>2026-04-19T12:16:01Z</time></trkpt><trkpt lat="43.40467040495286" lon="10.71631845027537"><ele>483.0</ele><time>2026-04-19T12:16:03Z</time></trkpt><trkpt lat="43.40459084802661" lon="10.716361267127093"><ele>483.0</ele><time>2026-04-19T12:16:17Z</time></trkpt><trkpt lat="43.40450263479178" lon="10.716417447674468"><ele>483.0</ele><time>2026-04-19T12:16:19Z</time></trkpt><trkpt lat="43.404414540173434" lon="10.716469280341128"><ele>483.0</ele><time>2026-04-19T12:16:21Z</time></trkpt><trkpt lat="43.40435250827894" lon="10.71650341748742"><ele>483.0</ele><time>2026-04-19T12:16:23.001Z</time></trkpt><trkpt lat="43.40428623064019" lon="10.716535773336924"><ele>482.8571428571429</ele><time>2026-04-19T12:16:25.001Z</time></trkpt><trkpt lat="43.404214120495375" lon="10.71656385480617"><ele>482.7142857142857</ele><time>2026-04-19T12:16:27.001Z</time></trkpt><trkpt lat="43.40414972839141" lon="10.716582424972884"><ele>482.57142857142856</ele><time>2026-04-19T12:16:29.001Z</time></trkpt><trkpt lat="43.40409113327084" lon="10.716629278279894"><ele>482.42857142857144</ele><time>2026-04-19T12:16:31.001Z</time></trkpt><trkpt lat="43.40402809418659" lon="10.71673232228839"><ele>482.28571428571433</ele><time>2026-04-19T12:16:34.001Z</time></trkpt><trkpt lat="43.404002267936434" lon="10.716819192348298"><ele>482.14285714285717</ele><time>2026-04-19T12:16:36.001Z</time></trkpt><trkpt lat="43.40398548020408" lon="10.716909070347588"><ele>482.0</ele><time>2026-04-19T12:16:38.001Z</time></trkpt><trkpt lat="43.4039808872985" lon="10.717012045477457"><ele>481.99999999999994</ele><time>2026-04-19T12:16:40.001Z</time></trkpt><trkpt lat="43.40399049921805" lon="10.717117297342515"><ele>482.0</ele><time>2026-04-19T12:16:42.001Z</time></trkpt><trkpt lat="43.40399464214188" lon="10.717217848365019"><ele>482.0</ele><time>2026-04-19T12:16:44.001Z</time></trkpt><trkpt lat="43.403935078420915" lon="10.717312664610775"><ele>482.0</ele><time>2026-04-19T12:16:47.001Z</time></trkpt><trkpt lat="43.403841325217854" lon="10.7172994277124"><ele>481.99999999999994</ele><time>2026-04-19T12:16:50.001Z</time></trkpt><trkpt lat="43.403766474119635" lon="10.717226437671291"><ele>482.0</ele><time>2026-04-19T12:16:53.001Z</time></trkpt><trkpt lat="43.40370548785571" lon="10.717136867216306"><ele>481.40000000000003</ele><time>2026-04-19T12:16:56.001Z</time></trkpt><trkpt lat="43.403654384256484" lon="10.717043124570049"><ele>480.80000000000007</ele><time>2026-04-19T12:16:59.001Z</time></trkpt><trkpt lat="43.40358980937208" lon="10.716910019054005"><ele>480.2</ele><time>2026-04-19T12:17:01.001Z</time></trkpt><trkpt lat="43.40358795773595" lon="10.71674824637222"><ele>479.6</ele><time>2026-04-19T12:17:03.001Z</time></trkpt><trkpt lat="43.40352664205662" lon="10.716622362700743"><ele>479.0</ele><time>2026-04-19T12:17:05.001Z</time></trkpt><trkpt lat="43.40346950572992" lon="10.716496405966318"><ele>481.6</ele><time>2026-04-19T12:17:07.001Z</time></trkpt><trkpt lat="43.40341857095341" lon="10.716355616058117"><ele>484.2</ele><time>2026-04-19T12:17:09.001Z</time></trkpt><trkpt lat="43.40338027942566" lon="10.716206773730653"><ele>486.80000000000007</ele><time>2026-04-19T12:17:11.001Z</time></trkpt><trkpt lat="43.40336944760735" lon="10.716116840342666"><ele>489.40000000000003</ele><time>2026-04-19T12:17:12.001Z</time></trkpt><trkpt lat="43.40336000552312" lon="10.716017211674433"><ele>492.0</ele><time>2026-04-19T12:17:13.001Z</time></trkpt><trkpt lat="43.40333365127104" lon="10.715903895997151"><ele>494.5</ele><time>2026-04-19T12:17:14.001Z</time></trkpt><trkpt lat="43.40329871156569" lon="10.715792858408255"><ele>497.0</ele><time>2026-04-19T12:17:15.001Z</time></trkpt><trkpt lat="43.40325934413471" lon="10.715685208541522"><ele>499.5</ele><time>2026-04-19T12:17:15.999Z</time></trkpt><trkpt lat="43.40322242505468" lon="10.715581985787724"><ele>502.0</ele><time>2026-04-19T12:17:16.999Z</time></trkpt><trkpt lat="43.40319739303866" lon="10.71547945619149"><ele>504.5</ele><time>2026-04-19T12:17:17.999Z</time></trkpt><trkpt lat="43.40319090869216" lon="10.715379622882029"><ele>507.0</ele><time>2026-04-19T12:17:18.999Z</time></trkpt><trkpt lat="43.403188250246075" lon="10.71526193195012"><ele>509.0</ele><time>2026-04-19T12:17:19.999Z</time></trkpt><trkpt lat="43.40319311621691" lon="10.715138960058821"><ele>511.0</ele><time>2026-04-19T12:17:20.999Z</time></trkpt><trkpt lat="43.403204860620605" lon="10.715021934521404"><ele>513.0</ele><time>2026-04-19T12:17:21.999Z</time></trkpt><trkpt lat="43.40321613092188" lon="10.714922562649503"><ele>515.0</ele><time>2026-04-19T12:17:22.999Z</time></trkpt><trkpt lat="43.403224054792865" lon="10.71482174687212"><ele>517.0</ele><time>2026-04-19T12:17:23.999Z</time></trkpt><trkpt lat="43.40322596412156" lon="10.714721698614353"><ele>519.0</ele><time>2026-04-19T12:17:24.999Z</time></trkpt><trkpt lat="43.40322205490411" lon="10.71462387832417"><ele>519.0</ele><time>2026-04-19T12:17:25.999Z</time></trkpt><trkpt lat="43.40321236132545" lon="10.71452416468752"><ele>519.0</ele><time>2026-04-19T12:17:27Z</time></trkpt><trkpt lat="43.40319415491406" lon="10.714419637852721"><ele>519.0</ele><time>2026-04-19T12:17:28Z</time></trkpt><trkpt lat="43.40317265957073" lon="10.714313979965196"><ele>519.0</ele><time>2026-04-19T12:17:29Z</time></trkpt><trkpt lat="43.40314671559612" lon="10.714207049253318"><ele>519.0</ele><time>2026-04-19T12:17:30Z</time></trkpt><trkpt lat="43.403119559335686" lon="10.714115393492648"><ele>519.0</ele><time>2026-04-19T12:17:31Z</time></trkpt><trkpt lat="43.40308844732449" lon="10.714024730271918"><ele>517.8333333333334</ele><time>2026-04-19T12:17:32Z</time></trkpt><trkpt lat="43.40305707773433" lon="10.713943333473255"><ele>516.6666666666666</ele><time>2026-04-19T12:17:33Z</time></trkpt><trkpt lat="43.40302650943256" lon="10.713866057080157"><ele>515.5</ele><time>2026-04-19T12:17:34Z</time></trkpt><trkpt lat="43.40299347559627" lon="10.713785098471606"><ele>514.3333333333333</ele><time>2026-04-19T12:17:35Z</time></trkpt><trkpt lat="43.402931181382094" lon="10.713633097857995"><ele>513.1666666666666</ele><time>2026-04-19T12:17:37Z</time></trkpt><trkpt lat="43.40290131164551" lon="10.713554024800365"><ele>512.0</ele><time>2026-04-19T12:17:38Z</time></trkpt><trkpt lat="43.40287126003912" lon="10.713472567909434"><ele>514.3333333333333</ele><time>2026-04-19T12:17:39Z</time></trkpt><trkpt lat="43.40284098619618" lon="10.713388812735406"><ele>516.6666666666666</ele><time>2026-04-19T12:17:40Z</time></trkpt><trkpt lat="43.40281142552267" lon="10.713305920775802"><ele>519.0</ele><time>2026-04-19T12:17:41Z</time></trkpt><trkpt lat="43.402782171127356" lon="10.7132238870911"><ele>521.3333333333334</ele><time>2026-04-19T12:17:42Z</time></trkpt><trkpt lat="43.402728270628735" lon="10.713073580319266"><ele>523.6666666666667</ele><time>2026-04-19T12:17:44Z</time></trkpt><trkpt lat="43.40267504446" lon="10.712926133904041"><ele>526.0</ele><time>2026-04-19T12:17:46Z</time></trkpt><trkpt lat="43.40261189914598" lon="10.712771183031597"><ele>528.6666666666667</ele><time>2026-04-19T12:17:48Z</time></trkpt><trkpt lat="43.40257489886106" lon="10.712691157451953"><ele>531.3333333333334</ele><time>2026-04-19T12:17:49Z</time></trkpt><trkpt lat="43.40252486910464" lon="10.712623889344837"><ele>534.0</ele><time>2026-04-19T12:17:50Z</time></trkpt><trkpt lat="43.40248746827151" lon="10.712529344899547"><ele>536.6666666666666</ele><time>2026-04-19T12:17:51Z</time></trkpt><trkpt lat="43.402436138923946" lon="10.712454399197998"><ele>539.3333333333333</ele><time>2026-04-19T12:17:52Z</time></trkpt><trkpt lat="43.40237667043002" lon="10.712380603959357"><ele>542.0</ele><time>2026-04-19T12:17:53Z</time></trkpt><trkpt lat="43.402312369246786" lon="10.712317714794857"><ele>542.0</ele><time>2026-04-19T12:17:54Z</time></trkpt><trkpt lat="43.40222214270441" lon="10.712284724140485"><ele>542.0</ele><time>2026-04-19T12:17:55Z</time></trkpt><trkpt lat="43.4021333137539" lon="10.712285049100963"><ele>542.0</ele><time>2026-04-19T12:17:56Z</time></trkpt><trkpt lat="43.402043060962015" lon="10.712302392138428"><ele>542.0</ele><time>2026-04-19T12:17:57Z</time></trkpt><trkpt lat="43.40195857763477" lon="10.71229277215317"><ele>542.0</ele><time>2026-04-19T12:17:58Z</time></trkpt><trkpt lat="43.401882958330106" lon="10.712259960868503"><ele>542.0</ele><time>2026-04-19T12:17:59Z</time></trkpt><trkpt lat="43.401817068171454" lon="10.712248485367658"><ele>542.1666666666666</ele><time>2026-04-19T12:18:00Z</time></trkpt><trkpt lat="43.40175140810222" lon="10.712237049948875"><ele>542.3333333333333</ele><time>2026-04-19T12:18:01Z</time></trkpt><trkpt lat="43.401682587765706" lon="10.71222506412941"><ele>542.5</ele><time>2026-04-19T12:18:02Z</time></trkpt><trkpt lat="43.40160650365424" lon="10.71221181327333"><ele>542.6666666666666</ele><time>2026-04-19T12:18:03Z</time></trkpt><trkpt lat="43.401523889243606" lon="10.712220703614872"><ele>542.8333333333334</ele><time>2026-04-19T12:18:04Z</time></trkpt><trkpt lat="43.40143572885698" lon="10.712190247627255"><ele>543.0</ele><time>2026-04-19T12:18:05Z</time></trkpt><trkpt lat="43.40134537082989" lon="10.712201474481644"><ele>543.0</ele><time>2026-04-19T12:18:06Z</time></trkpt><trkpt lat="43.401259594972565" lon="10.712191226218229"><ele>543.0</ele><time>2026-04-19T12:18:07Z</time></trkpt><trkpt lat="43.40117595936035" lon="10.712191970003483"><ele>543.0</ele><time>2026-04-19T12:18:08Z</time></trkpt><trkpt lat="43.4010894330251" lon="10.71220761441432"><ele>543.0</ele><time>2026-04-19T12:18:09Z</time></trkpt><trkpt lat="43.4010154690012" lon="10.712223570301232"><ele>543.0</ele><time>2026-04-19T12:18:10Z</time></trkpt><trkpt lat="43.400937377830964" lon="10.712221837774647"><ele>543.0</ele><time>2026-04-19T12:18:11Z</time></trkpt><trkpt lat="43.400870053241626" lon="10.71223962830007"><ele>543.0</ele><time>2026-04-19T12:18:12Z</time></trkpt><trkpt lat="43.40079908047941" lon="10.71226199828165"><ele>543.0</ele><time>2026-04-19T12:18:13Z</time></trkpt><trkpt lat="43.40072469614104" lon="10.712294379265447"><ele>543.0</ele><time>2026-04-19T12:18:14Z</time></trkpt><trkpt lat="43.40065165251092" lon="10.712331798316866"><ele>543.0</ele><time>2026-04-19T12:18:15Z</time></trkpt><trkpt lat="43.40057618095861" lon="10.71237226234792"><ele>543.0</ele><time>2026-04-19T12:18:16Z</time></trkpt><trkpt lat="43.400492262798316" lon="10.712418123468948"><ele>543.0</ele><time>2026-04-19T12:18:17Z</time></trkpt><trkpt lat="43.400404194703064" lon="10.712469860679587"><ele>543.0</ele><time>2026-04-19T12:18:18Z</time></trkpt><trkpt lat="43.4003143671147" lon="10.712524319494532"><ele>543.0</ele><time>2026-04-19T12:18:19Z</time></trkpt><trkpt lat="43.40021964395117" lon="10.71256207100652"><ele>543.0</ele><time>2026-04-19T12:18:20Z</time></trkpt><trkpt lat="43.40012599883641" lon="10.712615938362994"><ele>543.0</ele><time>2026-04-19T12:18:21Z</time></trkpt><trkpt lat="43.400025298435246" lon="10.712648758121322"><ele>543.0</ele><time>2026-04-19T12:18:22Z</time></trkpt><trkpt lat="43.39992542227767" lon="10.71270260036075"><ele>544.0</ele><time>2026-04-19T12:18:23Z</time></trkpt><trkpt lat="43.39982771083182" lon="10.712761370653775"><ele>545.0</ele><time>2026-04-19T12:18:24Z</time></trkpt><trkpt lat="43.39973966990357" lon="10.712816813311319"><ele>546.0</ele><time>2026-04-19T12:18:25Z</time></trkpt><trkpt lat="43.39964801259554" lon="10.712833454044961"><ele>547.0</ele><time>2026-04-19T12:18:26Z</time></trkpt><trkpt lat="43.39956453140453" lon="10.712855049897597"><ele>548.0</ele><time>2026-04-19T12:18:27Z</time></trkpt><trkpt lat="43.399492896687775" lon="10.712893368173033"><ele>548.0000000000001</ele><time>2026-04-19T12:18:28.001Z</time></trkpt><trkpt lat="43.399429949668054" lon="10.712934759557884"><ele>548.0</ele><time>2026-04-19T12:18:29.001Z</time></trkpt><trkpt lat="43.39938429781173" lon="10.712999823424715"><ele>548.0</ele><time>2026-04-19T12:18:30.001Z</time></trkpt><trkpt lat="43.399351606749676" lon="10.713083409178843"><ele>548.0</ele><time>2026-04-19T12:18:31.001Z</time></trkpt><trkpt lat="43.39932306810134" lon="10.713171739001684"><ele>548.0</ele><time>2026-04-19T12:18:32.001Z</time></trkpt><trkpt lat="43.39928852046781" lon="10.713258119832972"><ele>548.0000000000001</ele><time>2026-04-19T12:18:33.001Z</time></trkpt><trkpt lat="43.399239130078165" lon="10.713332874787753"><ele>548.0</ele><time>2026-04-19T12:18:34.001Z</time></trkpt><trkpt lat="43.39917001542949" lon="10.713375465264157"><ele>548.0</ele><time>2026-04-19T12:18:35.001Z</time></trkpt><trkpt lat="43.39910660108858" lon="10.713437410634421"><ele>548.0</ele><time>2026-04-19T12:18:36.001Z</time></trkpt><trkpt lat="43.39903933655348" lon="10.713497763184767"><ele>548.0</ele><time>2026-04-19T12:18:37.001Z</time></trkpt><trkpt lat="43.398983300142355" lon="10.71357560279574"><ele>548.0</ele><time>2026-04-19T12:18:38.001Z</time></trkpt><trkpt lat="43.39891875218651" lon="10.713626877889379"><ele>548.0</ele><time>2026-04-19T12:18:39.001Z</time></trkpt><trkpt lat="43.39885512815367" lon="10.713681207800388"><ele>548.0</ele><time>2026-04-19T12:18:40.001Z</time></trkpt><trkpt lat="43.398781094116835" lon="10.713714605144897"><ele>549.8333333333333</ele><time>2026-04-19T12:18:41.001Z</time></trkpt><trkpt lat="43.39871997174934" lon="10.71377287943778"><ele>551.6666666666666</ele><time>2026-04-19T12:18:42.001Z</time></trkpt><trkpt lat="43.39865937037243" lon="10.713847770015109"><ele>553.5</ele><time>2026-04-19T12:18:43.001Z</time></trkpt><trkpt lat="43.39860871460918" lon="10.713932731719906"><ele>555.3333333333334</ele><time>2026-04-19T12:18:44.001Z</time></trkpt><trkpt lat="43.39856452021531" lon="10.714021834345678"><ele>557.1666666666667</ele><time>2026-04-19T12:18:45.001Z</time></trkpt><trkpt lat="43.398522957270956" lon="10.714114206373427"><ele>559.0</ele><time>2026-04-19T12:18:46.001Z</time></trkpt><trkpt lat="43.398480763314275" lon="10.71420798024897"><ele>559.0</ele><time>2026-04-19T12:18:47.001Z</time></trkpt><trkpt lat="43.39843742678877" lon="10.714293036875718"><ele>559.0</ele><time>2026-04-19T12:18:48.001Z</time></trkpt><trkpt lat="43.39839015043895" lon="10.714366561118918"><ele>559.0</ele><time>2026-04-19T12:18:49.001Z</time></trkpt><trkpt lat="43.398334972769156" lon="10.714430457868458"><ele>559.0</ele><time>2026-04-19T12:18:50.001Z</time></trkpt><trkpt lat="43.39827175531013" lon="10.71446968082329"><ele>559.0</ele><time>2026-04-19T12:18:51.001Z</time></trkpt><trkpt lat="43.39819353681862" lon="10.714520990908241"><ele>559.0</ele><time>2026-04-19T12:18:52.001Z</time></trkpt><trkpt lat="43.398118434886406" lon="10.71459729774685"><ele>558.1666666666667</ele><time>2026-04-19T12:18:53.001Z</time></trkpt><trkpt lat="43.39805223845526" lon="10.714676384710627"><ele>557.3333333333334</ele><time>2026-04-19T12:18:54.001Z</time></trkpt><trkpt lat="43.39799735435227" lon="10.714769669567456"><ele>556.5</ele><time>2026-04-19T12:18:55.001Z</time></trkpt><trkpt lat="43.39792016293694" lon="10.714830318466776"><ele>555.6666666666666</ele><time>2026-04-19T12:18:56.001Z</time></trkpt><trkpt lat="43.397844928207434" lon="10.714878373987997"><ele>554.8333333333333</ele><time>2026-04-19T12:18:57.001Z</time></trkpt><trkpt lat="43.39775952703795" lon="10.714911962010568"><ele>554.0</ele><time>2026-04-19T12:18:58.001Z</time></trkpt><trkpt lat="43.397666902434736" lon="10.714871380070836"><ele>554.0</ele><time>2026-04-19T12:18:59.001Z</time></trkpt><trkpt lat="43.39755842467169" lon="10.714873839042742"><ele>554.0</ele><time>2026-04-19T12:19:00.001Z</time></trkpt><trkpt lat="43.397453261064165" lon="10.714918119034815"><ele>554.0</ele><time>2026-04-19T12:19:01.001Z</time></trkpt><trkpt lat="43.39735785658466" lon="10.71498550308606"><ele>554.0</ele><time>2026-04-19T12:19:02.001Z</time></trkpt><trkpt lat="43.397259330607305" lon="10.715039469888346"><ele>554.0</ele><time>2026-04-19T12:19:03.001Z</time></trkpt><trkpt lat="43.39717107775686" lon="10.715087809841929"><ele>554.0</ele><time>2026-04-19T12:19:04.001Z</time></trkpt><trkpt lat="43.39708474338431" lon="10.715131839899426"><ele>554.0</ele><time>2026-04-19T12:19:05.001Z</time></trkpt><trkpt lat="43.39700120855632" lon="10.715165041442209"><ele>554.0</ele><time>2026-04-19T12:19:06.001Z</time></trkpt><trkpt lat="43.39692043685179" lon="10.715187619695008"><ele>554.0</ele><time>2026-04-19T12:19:07.001Z</time></trkpt><trkpt lat="43.39684525932517" lon="10.715167812490384"><ele>554.0</ele><time>2026-04-19T12:19:08.001Z</time></trkpt><trkpt lat="43.396771354950445" lon="10.71512366395692"><ele>554.0</ele><time>2026-04-19T12:19:09.001Z</time></trkpt><trkpt lat="43.39668945305883" lon="10.715064438727802"><ele>554.0</ele><time>2026-04-19T12:19:10.001Z</time></trkpt><trkpt lat="43.396617193491274" lon="10.714990290070597"><ele>554.0</ele><time>2026-04-19T12:19:11.001Z</time></trkpt><trkpt lat="43.3965412192885" lon="10.714904078569642"><ele>554.0</ele><time>2026-04-19T12:19:12.001Z</time></trkpt><trkpt lat="43.396466721731244" lon="10.714806231564632"><ele>554.0</ele><time>2026-04-19T12:19:13.001Z</time></trkpt><trkpt lat="43.396383690661246" lon="10.714710626461443"><ele>554.0</ele><time>2026-04-19T12:19:14.001Z</time></trkpt><trkpt lat="43.396300538797234" lon="10.714624770741"><ele>554.6</ele><time>2026-04-19T12:19:15.001Z</time></trkpt><trkpt lat="43.39621300916739" lon="10.714542628755014"><ele>555.2</ele><time>2026-04-19T12:19:16.001Z</time></trkpt><trkpt lat="43.39611868747896" lon="10.714464241785414"><ele>555.8000000000001</ele><time>2026-04-19T12:19:17.001Z</time></trkpt><trkpt lat="43.39601926520421" lon="10.714407936356757"><ele>556.4</ele><time>2026-04-19T12:19:18.001Z</time></trkpt><trkpt lat="43.395924531350694" lon="10.714363310844922"><ele>557.0</ele><time>2026-04-19T12:19:19.001Z</time></trkpt><trkpt lat="43.395837179548494" lon="10.714320959631912"><ele>557.0</ele><time>2026-04-19T12:19:20.001Z</time></trkpt><trkpt lat="43.395744175064905" lon="10.714269233768109"><ele>557.0</ele><time>2026-04-19T12:19:21.001Z</time></trkpt><trkpt lat="43.395646896336444" lon="10.714229785407568"><ele>557.0</ele><time>2026-04-19T12:19:21.999Z</time></trkpt><trkpt lat="43.39554919982583" lon="10.714194343777844"><ele>557.0</ele><time>2026-04-19T12:19:22.999Z</time></trkpt><trkpt lat="43.39545031195438" lon="10.714158379701054"><ele>557.0</ele><time>2026-04-19T12:19:23.999Z</time></trkpt><trkpt lat="43.39534052709737" lon="10.714140304245115"><ele>556.4</ele><time>2026-04-19T12:19:24.999Z</time></trkpt><trkpt lat="43.39523548261365" lon="10.714078083763596"><ele>555.8000000000001</ele><time>2026-04-19T12:19:25.999Z</time></trkpt><trkpt lat="43.39512468895391" lon="10.714037743568902"><ele>555.2</ele><time>2026-04-19T12:19:26.999Z</time></trkpt><trkpt lat="43.39501470292253" lon="10.713999681166015"><ele>554.6</ele><time>2026-04-19T12:19:27.999Z</time></trkpt><trkpt lat="43.39491104561342" lon="10.713987136335806"><ele>554.0</ele><time>2026-04-19T12:19:28.999Z</time></trkpt><trkpt lat="43.39482503095459" lon="10.713955305125168"><ele>554.0</ele><time>2026-04-19T12:19:29.999Z</time></trkpt><trkpt lat="43.39475854203286" lon="10.713925912127957"><ele>554.0</ele><time>2026-04-19T12:19:30.999Z</time></trkpt><trkpt lat="43.394677291514164" lon="10.71385059138221"><ele>554.0</ele><time>2026-04-19T12:19:32.999Z</time></trkpt><trkpt lat="43.39455121502448" lon="10.71399685861287"><ele>554.0</ele><time>2026-04-19T12:19:35.999Z</time></trkpt><trkpt lat="43.39452740538935" lon="10.714107120789379"><ele>554.0</ele><time>2026-04-19T12:19:36.999Z</time></trkpt><trkpt lat="43.394501443028005" lon="10.714205801703745"><ele>553.5714285714286</ele><time>2026-04-19T12:19:38Z</time></trkpt><trkpt lat="43.394477350900054" lon="10.71430191580871"><ele>553.1428571428571</ele><time>2026-04-19T12:19:39Z</time></trkpt><trkpt lat="43.39445215088645" lon="10.714392481210664"><ele>552.7142857142857</ele><time>2026-04-19T12:19:40Z</time></trkpt><trkpt lat="43.394428360238436" lon="10.714481240337197"><ele>552.2857142857142</ele><time>2026-04-19T12:19:41Z</time></trkpt><trkpt lat="43.39440302899784" lon="10.714572109690247"><ele>551.8571428571429</ele><time>2026-04-19T12:19:42Z</time></trkpt><trkpt lat="43.39437558640531" lon="10.714675328184109"><ele>551.4285714285713</ele><time>2026-04-19T12:19:43Z</time></trkpt><trkpt lat="43.3943485737256" lon="10.714783009746133"><ele>551.0</ele><time>2026-04-19T12:19:44Z</time></trkpt><trkpt lat="43.39432179521191" lon="10.714895407655074"><ele>551.0</ele><time>2026-04-19T12:19:45Z</time></trkpt><trkpt lat="43.394291500854855" lon="10.715007674163248"><ele>551.0</ele><time>2026-04-19T12:19:46Z</time></trkpt><trkpt lat="43.39424175365419" lon="10.715112996610392"><ele>551.0</ele><time>2026-04-19T12:19:47Z</time></trkpt><trkpt lat="43.39417779957036" lon="10.715210414275077"><ele>551.0</ele><time>2026-04-19T12:19:48Z</time></trkpt><trkpt lat="43.39410495233841" lon="10.715299644061371"><ele>551.0</ele><time>2026-04-19T12:19:49Z</time></trkpt><trkpt lat="43.394025510906616" lon="10.71538338123308"><ele>551.2</ele><time>2026-04-19T12:19:50Z</time></trkpt><trkpt lat="43.39394896646302" lon="10.715468498488232"><ele>551.4000000000001</ele><time>2026-04-19T12:19:51Z</time></trkpt><trkpt lat="43.393874161294214" lon="10.715554015770316"><ele>551.6</ele><time>2026-04-19T12:19:52Z</time></trkpt><trkpt lat="43.39379811944686" lon="10.715636689830438"><ele>551.8000000000001</ele><time>2026-04-19T12:19:53Z</time></trkpt><trkpt lat="43.39372103570332" lon="10.715724257849587"><ele>552.0</ele><time>2026-04-19T12:19:54Z</time></trkpt><trkpt lat="43.39364324505399" lon="10.715808483122055"><ele>553.0</ele><time>2026-04-19T12:19:55Z</time></trkpt><trkpt lat="43.393573941499184" lon="10.71590699033293"><ele>554.0</ele><time>2026-04-19T12:19:56Z</time></trkpt><trkpt lat="43.39351873867824" lon="10.716022156591475"><ele>555.0</ele><time>2026-04-19T12:19:57Z</time></trkpt><trkpt lat="43.39347568539955" lon="10.716153902779954"><ele>556.0</ele><time>2026-04-19T12:19:58Z</time></trkpt><trkpt lat="43.39344369965241" lon="10.716300525774273"><ele>557.0</ele><time>2026-04-19T12:19:59Z</time></trkpt><trkpt lat="43.39342013685453" lon="10.71645883915923"><ele>557.25</ele><time>2026-04-19T12:20:00Z</time></trkpt><trkpt lat="43.39339959171663" lon="10.716623608417304"><ele>557.5</ele><time>2026-04-19T12:20:01Z</time></trkpt><trkpt lat="43.39338843379402" lon="10.716797828126895"><ele>557.75</ele><time>2026-04-19T12:20:02Z</time></trkpt><trkpt lat="43.393373696593635" lon="10.716969557415602"><ele>558.0</ele><time>2026-04-19T12:20:03Z</time></trkpt><trkpt lat="43.393353133824476" lon="10.717145909055112"><ele>558.0</ele><time>2026-04-19T12:20:04Z</time></trkpt><trkpt lat="43.39332852210309" lon="10.717330796758109"><ele>558.0</ele><time>2026-04-19T12:20:05Z</time></trkpt><trkpt lat="43.39329417533344" lon="10.717509300132232"><ele>558.0</ele><time>2026-04-19T12:20:06Z</time></trkpt><trkpt lat="43.393253280071704" lon="10.717689907344434"><ele>558.0</ele><time>2026-04-19T12:20:07Z</time></trkpt><trkpt lat="43.39320751140771" lon="10.717864104330626"><ele>558.0</ele><time>2026-04-19T12:20:08Z</time></trkpt><trkpt lat="43.393161075513774" lon="10.718031783853137"><ele>558.0</ele><time>2026-04-19T12:20:09Z</time></trkpt><trkpt lat="43.393111098620984" lon="10.718195235198234"><ele>558.0</ele><time>2026-04-19T12:20:10Z</time></trkpt><trkpt lat="43.393057676313006" lon="10.718351202600578"><ele>558.0</ele><time>2026-04-19T12:20:11Z</time></trkpt><trkpt lat="43.39300228594217" lon="10.718503609124461"><ele>556.25</ele><time>2026-04-19T12:20:12Z</time></trkpt><trkpt lat="43.3929441947685" lon="10.718654513524534"><ele>554.5</ele><time>2026-04-19T12:20:13Z</time></trkpt><trkpt lat="43.392883643429975" lon="10.718805014923829"><ele>552.75</ele><time>2026-04-19T12:20:14Z</time></trkpt><trkpt lat="43.39282163341678" lon="10.718952427431292"><ele>551.0</ele><time>2026-04-19T12:20:15Z</time></trkpt><trkpt lat="43.39275645190234" lon="10.719100002068206"><ele>551.0</ele><time>2026-04-19T12:20:16Z</time></trkpt><trkpt lat="43.3926850827555" lon="10.719246273060627"><ele>551.0</ele><time>2026-04-19T12:20:17Z</time></trkpt><trkpt lat="43.39260579219546" lon="10.719391065026102"><ele>551.0</ele><time>2026-04-19T12:20:18Z</time></trkpt><trkpt lat="43.392525281082335" lon="10.71953708490559"><ele>551.0</ele><time>2026-04-19T12:20:19Z</time></trkpt><trkpt lat="43.39243977319155" lon="10.719680754029264"><ele>549.25</ele><time>2026-04-19T12:20:20Z</time></trkpt><trkpt lat="43.39235033962203" lon="10.719823161590858"><ele>547.5</ele><time>2026-04-19T12:20:21Z</time></trkpt><trkpt lat="43.39226724501929" lon="10.71996618834154"><ele>545.75</ele><time>2026-04-19T12:20:22Z</time></trkpt><trkpt lat="43.3922033790699" lon="10.720129607187847"><ele>544.0</ele><time>2026-04-19T12:20:23Z</time></trkpt><trkpt lat="43.39214643909138" lon="10.720307171737383"><ele>540.25</ele><time>2026-04-19T12:20:24Z</time></trkpt><trkpt lat="43.392091340938045" lon="10.72048776511517"><ele>536.5</ele><time>2026-04-19T12:20:25Z</time></trkpt><trkpt lat="43.392035217342546" lon="10.720669645492036"><ele>532.75</ele><time>2026-04-19T12:20:26Z</time></trkpt><trkpt lat="43.3919764906916" lon="10.720850744187171"><ele>529.0</ele><time>2026-04-19T12:20:27Z</time></trkpt><trkpt lat="43.39192116272885" lon="10.721028410016483"><ele>528.75</ele><time>2026-04-19T12:20:28Z</time></trkpt><trkpt lat="43.391865929031496" lon="10.721190030591925"><ele>528.5</ele><time>2026-04-19T12:20:29Z</time></trkpt><trkpt lat="43.39182541429776" lon="10.721345981481054"><ele>528.25</ele><time>2026-04-19T12:20:30Z</time></trkpt><trkpt lat="43.39180972838379" lon="10.72150504951836"><ele>528.0</ele><time>2026-04-19T12:20:31Z</time></trkpt><trkpt lat="43.391815922773866" lon="10.72166766359994"><ele>528.0</ele><time>2026-04-19T12:20:32Z</time></trkpt><trkpt lat="43.39184091711277" lon="10.72183875571489"><ele>528.0</ele><time>2026-04-19T12:20:33Z</time></trkpt><trkpt lat="43.39186784448034" lon="10.722022135050025"><ele>528.0</ele><time>2026-04-19T12:20:34Z</time></trkpt><trkpt lat="43.391890630292366" lon="10.722201835360742"><ele>528.0</ele><time>2026-04-19T12:20:35Z</time></trkpt><trkpt lat="43.39191887695218" lon="10.722383576998043"><ele>527.0</ele><time>2026-04-19T12:20:36.001Z</time></trkpt><trkpt lat="43.391946712695166" lon="10.722567756612094"><ele>526.0</ele><time>2026-04-19T12:20:37.001Z</time></trkpt><trkpt lat="43.39197230877715" lon="10.722750049703453"><ele>525.0</ele><time>2026-04-19T12:20:38.001Z</time></trkpt><trkpt lat="43.39200153993633" lon="10.722928740605155"><ele>524.0</ele><time>2026-04-19T12:20:39.001Z</time></trkpt><trkpt lat="43.392044342151124" lon="10.723099246380109"><ele>522.5</ele><time>2026-04-19T12:20:40.001Z</time></trkpt><trkpt lat="43.39210127319506" lon="10.72325927089488"><ele>521.0</ele><time>2026-04-19T12:20:41.001Z</time></trkpt><trkpt lat="43.39216435551568" lon="10.723403120543525"><ele>519.5</ele><time>2026-04-19T12:20:42.001Z</time></trkpt><trkpt lat="43.39222540664364" lon="10.723542847707922"><ele>518.0</ele><time>2026-04-19T12:20:43.001Z</time></trkpt><trkpt lat="43.39228789841061" lon="10.72368757420891"><ele>516.25</ele><time>2026-04-19T12:20:44.001Z</time></trkpt><trkpt lat="43.39234750235766" lon="10.723840925768597"><ele>514.5</ele><time>2026-04-19T12:20:45.001Z</time></trkpt><trkpt lat="43.39240932834461" lon="10.723986771474053"><ele>512.75</ele><time>2026-04-19T12:20:46.001Z</time></trkpt><trkpt lat="43.39247528836236" lon="10.724134254154373"><ele>511.0</ele><time>2026-04-19T12:20:47.001Z</time></trkpt><trkpt lat="43.39254848170496" lon="10.724269797429296"><ele>509.75</ele><time>2026-04-19T12:20:48.001Z</time></trkpt><trkpt lat="43.39262149764283" lon="10.724406775291454"><ele>508.5</ele><time>2026-04-19T12:20:49.001Z</time></trkpt><trkpt lat="43.3926968662794" lon="10.724545045375637"><ele>507.25</ele><time>2026-04-19T12:20:50.001Z</time></trkpt><trkpt lat="43.392767718764134" lon="10.724696550396775"><ele>506.0</ele><time>2026-04-19T12:20:51.001Z</time></trkpt><trkpt lat="43.392836498885195" lon="10.72485533589537"><ele>506.0</ele><time>2026-04-19T12:20:52.001Z</time></trkpt><trkpt lat="43.39289458893282" lon="10.725030918152989"><ele>506.0</ele><time>2026-04-19T12:20:53.001Z</time></trkpt><trkpt lat="43.39294463813975" lon="10.725206505799807"><ele>506.0</ele><time>2026-04-19T12:20:54.001Z</time></trkpt><trkpt lat="43.39298216608601" lon="10.725371635676991"><ele>506.0</ele><time>2026-04-19T12:20:55.001Z</time></trkpt><trkpt lat="43.39300762240201" lon="10.725536587755675"><ele>506.75</ele><time>2026-04-19T12:20:56.001Z</time></trkpt><trkpt lat="43.393011269029394" lon="10.725699904277535"><ele>507.5</ele><time>2026-04-19T12:20:57.001Z</time></trkpt><trkpt lat="43.392982490714665" lon="10.725866941337982"><ele>508.25</ele><time>2026-04-19T12:20:58.001Z</time></trkpt><trkpt lat="43.39291253206819" lon="10.726021015206213"><ele>509.0</ele><time>2026-04-19T12:20:59.001Z</time></trkpt><trkpt lat="43.39282164840071" lon="10.726166423009195"><ele>511.3333333333333</ele><time>2026-04-19T12:21:00.001Z</time></trkpt><trkpt lat="43.39273820312426" lon="10.726333418257338"><ele>513.6666666666666</ele><time>2026-04-19T12:21:01.001Z</time></trkpt><trkpt lat="43.39267060792979" lon="10.726533618370913"><ele>516.0</ele><time>2026-04-19T12:21:02.001Z</time></trkpt><trkpt lat="43.39260490118455" lon="10.726748085316888"><ele>518.25</ele><time>2026-04-19T12:21:03.001Z</time></trkpt><trkpt lat="43.39253160807081" lon="10.726925372551987"><ele>520.5</ele><time>2026-04-19T12:21:04.001Z</time></trkpt><trkpt lat="43.39246893339182" lon="10.727070443963548"><ele>522.75</ele><time>2026-04-19T12:21:05.001Z</time></trkpt><trkpt lat="43.39242824816592" lon="10.727219146573521"><ele>525.0</ele><time>2026-04-19T12:21:06.001Z</time></trkpt><trkpt lat="43.3924070753911" lon="10.727383304423986"><ele>525.0</ele><time>2026-04-19T12:21:07.001Z</time></trkpt><trkpt lat="43.39238958083479" lon="10.727562591538783"><ele>525.0</ele><time>2026-04-19T12:21:08.001Z</time></trkpt><trkpt lat="43.392355932909744" lon="10.727756123241573"><ele>525.0</ele><time>2026-04-19T12:21:09.001Z</time></trkpt><trkpt lat="43.392308313297875" lon="10.727952125309006"><ele>525.0</ele><time>2026-04-19T12:21:10.001Z</time></trkpt><trkpt lat="43.39223691181747" lon="10.72811957261929"><ele>525.4</ele><time>2026-04-19T12:21:11.001Z</time></trkpt><trkpt lat="43.39216422898187" lon="10.728248279642413"><ele>525.8</ele><time>2026-04-19T12:21:12.001Z</time></trkpt><trkpt lat="43.39210153044976" lon="10.72836502820865"><ele>526.2</ele><time>2026-04-19T12:21:13.001Z</time></trkpt><trkpt lat="43.39206849152005" lon="10.728504913021428"><ele>526.6</ele><time>2026-04-19T12:21:14.001Z</time></trkpt><trkpt lat="43.39205685190704" lon="10.728652179866781"><ele>527.0</ele><time>2026-04-19T12:21:15.001Z</time></trkpt><trkpt lat="43.39205839546137" lon="10.728810103090447"><ele>528.25</ele><time>2026-04-19T12:21:16.001Z</time></trkpt><trkpt lat="43.392067927882245" lon="10.728979260814157"><ele>529.5</ele><time>2026-04-19T12:21:17.001Z</time></trkpt><trkpt lat="43.39206700955198" lon="10.729162164948187"><ele>530.75</ele><time>2026-04-19T12:21:18.001Z</time></trkpt><trkpt lat="43.39206263129555" lon="10.729361854458245"><ele>532.0</ele><time>2026-04-19T12:21:19.001Z</time></trkpt><trkpt lat="43.39205115214962" lon="10.729578803847934"><ele>533.0</ele><time>2026-04-19T12:21:20.001Z</time></trkpt><trkpt lat="43.39203206949761" lon="10.729814830495394"><ele>534.0</ele><time>2026-04-19T12:21:21.001Z</time></trkpt><trkpt lat="43.39200634178505" lon="10.730042571851527"><ele>535.0</ele><time>2026-04-19T12:21:22.001Z</time></trkpt><trkpt lat="43.39197385240447" lon="10.730224442536333"><ele>534.75</ele><time>2026-04-19T12:21:23.001Z</time></trkpt><trkpt lat="43.39194314943721" lon="10.730370786629589"><ele>534.5</ele><time>2026-04-19T12:21:24.001Z</time></trkpt><trkpt lat="43.39191687192203" lon="10.730517941468891"><ele>534.25</ele><time>2026-04-19T12:21:25.001Z</time></trkpt><trkpt lat="43.39188651720395" lon="10.730688689108362"><ele>534.0</ele><time>2026-04-19T12:21:26.001Z</time></trkpt><trkpt lat="43.3918494004166" lon="10.730880165369625"><ele>532.6666666666666</ele><time>2026-04-19T12:21:27.001Z</time></trkpt><trkpt lat="43.39181350661835" lon="10.731074108683513"><ele>531.3333333333333</ele><time>2026-04-19T12:21:27.999Z</time></trkpt><trkpt lat="43.391775986397924" lon="10.731275687005802"><ele>530.0</ele><time>2026-04-19T12:21:28.999Z</time></trkpt><trkpt lat="43.391734425997186" lon="10.7314944467157"><ele>530.0</ele><time>2026-04-19T12:21:29.999Z</time></trkpt><trkpt lat="43.39167882259072" lon="10.731734002222456"><ele>530.0</ele><time>2026-04-19T12:21:30.999Z</time></trkpt><trkpt lat="43.39162417097807" lon="10.731974097094591"><ele>530.0</ele><time>2026-04-19T12:21:31.999Z</time></trkpt><trkpt lat="43.39156153620855" lon="10.732203723870796"><ele>529.3333333333333</ele><time>2026-04-19T12:21:32.999Z</time></trkpt><trkpt lat="43.39148983247792" lon="10.732426578025086"><ele>528.6666666666666</ele><time>2026-04-19T12:21:33.999Z</time></trkpt><trkpt lat="43.39141413494129" lon="10.73262913327819"><ele>528.0</ele><time>2026-04-19T12:21:34.999Z</time></trkpt><trkpt lat="43.39134521200962" lon="10.732798936989987"><ele>524.4</ele><time>2026-04-19T12:21:35.999Z</time></trkpt><trkpt lat="43.39127581673946" lon="10.732936433618974"><ele>520.8</ele><time>2026-04-19T12:21:36.999Z</time></trkpt><trkpt lat="43.391200205714696" lon="10.73306274494646"><ele>517.2</ele><time>2026-04-19T12:21:37.999Z</time></trkpt><trkpt lat="43.39112701539695" lon="10.733163937336316"><ele>513.6</ele><time>2026-04-19T12:21:38.999Z</time></trkpt><trkpt lat="43.39105824684276" lon="10.73325667449929"><ele>510.0</ele><time>2026-04-19T12:21:39.999Z</time></trkpt><trkpt lat="43.39099527924865" lon="10.733351302081473"><ele>510.0</ele><time>2026-04-19T12:21:40.999Z</time></trkpt><trkpt lat="43.390941567925495" lon="10.73343703729216"><ele>510.0</ele><time>2026-04-19T12:21:41.999Z</time></trkpt><trkpt lat="43.39089126306352" lon="10.73349719043412"><ele>510.0</ele><time>2026-04-19T12:21:42.999Z</time></trkpt><trkpt lat="43.390857285776406" lon="10.7335701751143"><ele>510.0</ele><time>2026-04-19T12:21:43.999Z</time></trkpt><trkpt lat="43.39078652641516" lon="10.733672520246358"><ele>510.0</ele><time>2026-04-19T12:21:45.999Z</time></trkpt><trkpt lat="43.39070767143598" lon="10.733794256101387"><ele>510.0</ele><time>2026-04-19T12:21:47.999Z</time></trkpt><trkpt lat="43.390658906125864" lon="10.733867962908619"><ele>510.0</ele><time>2026-04-19T12:21:49Z</time></trkpt><trkpt lat="43.39060478514325" lon="10.733952013799206"><ele>510.0</ele><time>2026-04-19T12:21:50Z</time></trkpt><trkpt lat="43.39055741997719" lon="10.73403096999008"><ele>510.0</ele><time>2026-04-19T12:21:51Z</time></trkpt><trkpt lat="43.39051060836325" lon="10.734110794328938"><ele>510.0</ele><time>2026-04-19T12:21:52Z</time></trkpt><trkpt lat="43.39046288357668" lon="10.734187015574452"><ele>510.0</ele><time>2026-04-19T12:21:53Z</time></trkpt><trkpt lat="43.39040933769167" lon="10.734271520202178"><ele>510.0</ele><time>2026-04-19T12:21:54Z</time></trkpt><trkpt lat="43.39035610865104" lon="10.734357998684466"><ele>508.0</ele><time>2026-04-19T12:21:55Z</time></trkpt><trkpt lat="43.3903031921881" lon="10.734442844129243"><ele>506.0</ele><time>2026-04-19T12:21:56Z</time></trkpt><trkpt lat="43.39025069227206" lon="10.73452809357502"><ele>504.0</ele><time>2026-04-19T12:21:57Z</time></trkpt><trkpt lat="43.39019654346428" lon="10.73461324865293"><ele>502.0</ele><time>2026-04-19T12:21:58Z</time></trkpt><trkpt lat="43.390136414690524" lon="10.734693843848861"><ele>500.0</ele><time>2026-04-19T12:21:59Z</time></trkpt><trkpt lat="43.390077089160414" lon="10.734777848518737"><ele>498.0</ele><time>2026-04-19T12:22:00Z</time></trkpt><trkpt lat="43.390017782309585" lon="10.734860424869497"><ele>498.0</ele><time>2026-04-19T12:22:01Z</time></trkpt><trkpt lat="43.389957685628595" lon="10.73494008072118"><ele>497.99999999999994</ele><time>2026-04-19T12:22:02Z</time></trkpt><trkpt lat="43.3899009378942" lon="10.735018634668547"><ele>497.99999999999994</ele><time>2026-04-19T12:22:03Z</time></trkpt><trkpt lat="43.389847146953095" lon="10.735086283155683"><ele>498.0</ele><time>2026-04-19T12:22:04Z</time></trkpt><trkpt lat="43.38976751938251" lon="10.735189368790746"><ele>498.0</ele><time>2026-04-19T12:22:06Z</time></trkpt><trkpt lat="43.38978933058244" lon="10.73537210031504"><ele>496.79999999999995</ele><time>2026-04-19T12:22:09Z</time></trkpt><trkpt lat="43.38983407469708" lon="10.735463156474362"><ele>495.59999999999997</ele><time>2026-04-19T12:22:10Z</time></trkpt><trkpt lat="43.38984748638064" lon="10.735591751277973"><ele>494.40000000000003</ele><time>2026-04-19T12:22:11Z</time></trkpt><trkpt lat="43.38988526857946" lon="10.73571627026961"><ele>493.20000000000005</ele><time>2026-04-19T12:22:12Z</time></trkpt><trkpt lat="43.389939726313216" lon="10.735846671066646"><ele>492.0</ele><time>2026-04-19T12:22:13Z</time></trkpt><trkpt lat="43.39002604186408" lon="10.735977680993368"><ele>489.40000000000003</ele><time>2026-04-19T12:22:14Z</time></trkpt><trkpt lat="43.39011922497402" lon="10.736101318256907"><ele>486.80000000000007</ele><time>2026-04-19T12:22:15Z</time></trkpt><trkpt lat="43.39020353903467" lon="10.736209229993392"><ele>484.2</ele><time>2026-04-19T12:22:16Z</time></trkpt><trkpt lat="43.39029101526959" lon="10.73628413024917"><ele>481.6</ele><time>2026-04-19T12:22:17Z</time></trkpt><trkpt lat="43.390377826033756" lon="10.736324896157067"><ele>479.0</ele><time>2026-04-19T12:22:18Z</time></trkpt><trkpt lat="43.39046812693609" lon="10.736309377082891"><ele>479.16666666666663</ele><time>2026-04-19T12:22:19Z</time></trkpt><trkpt lat="43.39056084365944" lon="10.736259970978773"><ele>479.3333333333333</ele><time>2026-04-19T12:22:20Z</time></trkpt><trkpt lat="43.390626825641974" lon="10.736177709913695"><ele>479.5</ele><time>2026-04-19T12:22:21Z</time></trkpt><trkpt lat="43.390696040911706" lon="10.736126170663328"><ele>479.66666666666663</ele><time>2026-04-19T12:22:22Z</time></trkpt><trkpt lat="43.39076339287027" lon="10.736138819428607"><ele>479.8333333333333</ele><time>2026-04-19T12:22:23Z</time></trkpt><trkpt lat="43.390837711003556" lon="10.736192903612805"><ele>480.0</ele><time>2026-04-19T12:22:24Z</time></trkpt><trkpt lat="43.39090286990501" lon="10.736260907449223"><ele>480.0</ele><time>2026-04-19T12:22:25Z</time></trkpt><trkpt lat="43.39097596629712" lon="10.736290566926437"><ele>480.0</ele><time>2026-04-19T12:22:26Z</time></trkpt><trkpt lat="43.39105287705523" lon="10.736308202826372"><ele>480.0</ele><time>2026-04-19T12:22:27Z</time></trkpt><trkpt lat="43.391131895376226" lon="10.736308198161995"><ele>480.0</ele><time>2026-04-19T12:22:28Z</time></trkpt><trkpt lat="43.39120609356528" lon="10.736311214744417"><ele>480.0</ele><time>2026-04-19T12:22:29Z</time></trkpt><trkpt lat="43.39128022658852" lon="10.736320674335628"><ele>480.0</ele><time>2026-04-19T12:22:30Z</time></trkpt><trkpt lat="43.39135467296889" lon="10.736331943892896"><ele>481.0</ele><time>2026-04-19T12:22:31Z</time></trkpt><trkpt lat="43.391428536997346" lon="10.736321343423839"><ele>482.0</ele><time>2026-04-19T12:22:32Z</time></trkpt><trkpt lat="43.391498068084054" lon="10.73633610123066"><ele>483.0</ele><time>2026-04-19T12:22:33Z</time></trkpt><trkpt lat="43.3915640863662" lon="10.73635133676968"><ele>484.0</ele><time>2026-04-19T12:22:34Z</time></trkpt><trkpt lat="43.391625820631916" lon="10.736384412611347"><ele>485.0</ele><time>2026-04-19T12:22:35Z</time></trkpt><trkpt lat="43.39171080480952" lon="10.73650372694552"><ele>486.0</ele><time>2026-04-19T12:22:37Z</time></trkpt><trkpt lat="43.391753566291555" lon="10.736656901442368"><ele>486.0</ele><time>2026-04-19T12:22:39Z</time></trkpt><trkpt lat="43.39175990505701" lon="10.736837970121558"><ele>486.0</ele><time>2026-04-19T12:22:41.001Z</time></trkpt><trkpt lat="43.3917579811662" lon="10.736940149867603"><ele>486.0</ele><time>2026-04-19T12:22:42.001Z</time></trkpt><trkpt lat="43.391747142491134" lon="10.737047907371446"><ele>486.0</ele><time>2026-04-19T12:22:43.001Z</time></trkpt><trkpt lat="43.39173226685596" lon="10.737162009461253"><ele>486.0</ele><time>2026-04-19T12:22:44.001Z</time></trkpt><trkpt lat="43.39170878832259" lon="10.737277588098669"><ele>484.20000000000005</ele><time>2026-04-19T12:22:45.001Z</time></trkpt><trkpt lat="43.39167760599135" lon="10.737393761739288"><ele>482.40000000000003</ele><time>2026-04-19T12:22:46.001Z</time></trkpt><trkpt lat="43.391646235682984" lon="10.737514509968264"><ele>480.6</ele><time>2026-04-19T12:22:47.001Z</time></trkpt><trkpt lat="43.39161805466483" lon="10.737644442151518"><ele>478.8</ele><time>2026-04-19T12:22:48.001Z</time></trkpt><trkpt lat="43.39159850613857" lon="10.737780623247717"><ele>477.0</ele><time>2026-04-19T12:22:49.001Z</time></trkpt><trkpt lat="43.39158758242558" lon="10.737922600691489"><ele>475.20000000000005</ele><time>2026-04-19T12:22:50.001Z</time></trkpt><trkpt lat="43.39158938709691" lon="10.738066116929776"><ele>473.40000000000003</ele><time>2026-04-19T12:22:51.001Z</time></trkpt><trkpt lat="43.3916058575335" lon="10.738211743561758"><ele>471.59999999999997</ele><time>2026-04-19T12:22:52.001Z</time></trkpt><trkpt lat="43.39162888142675" lon="10.738359371475033"><ele>469.79999999999995</ele><time>2026-04-19T12:22:53.001Z</time></trkpt><trkpt lat="43.39163933676009" lon="10.738506074259057"><ele>468.0</ele><time>2026-04-19T12:22:54.001Z</time></trkpt><trkpt lat="43.39162440316961" lon="10.738651047999133"><ele>467.2</ele><time>2026-04-19T12:22:55.001Z</time></trkpt><trkpt lat="43.3915991361435" lon="10.738794934741623"><ele>466.4</ele><time>2026-04-19T12:22:56.001Z</time></trkpt><trkpt lat="43.39157995424469" lon="10.738932743536633"><ele>465.59999999999997</ele><time>2026-04-19T12:22:57.001Z</time></trkpt><trkpt lat="43.391569574502036" lon="10.739062791152021"><ele>464.79999999999995</ele><time>2026-04-19T12:22:58.001Z</time></trkpt><trkpt lat="43.39156358640574" lon="10.739185976339423"><ele>464.0</ele><time>2026-04-19T12:22:59.001Z</time></trkpt><trkpt lat="43.39154637099564" lon="10.739297764053342"><ele>463.66666666666663</ele><time>2026-04-19T12:23:00.001Z</time></trkpt><trkpt lat="43.39150266143819" lon="10.739397674888105"><ele>463.3333333333333</ele><time>2026-04-19T12:23:01.001Z</time></trkpt><trkpt lat="43.39145719365309" lon="10.7394603021076"><ele>463.0</ele><time>2026-04-19T12:23:02.001Z</time></trkpt><trkpt lat="43.39136522005551" lon="10.739566045533492"><ele>462.66666666666663</ele><time>2026-04-19T12:23:04.001Z</time></trkpt><trkpt lat="43.391288372512605" lon="10.739594735754492"><ele>462.3333333333333</ele><time>2026-04-19T12:23:05.001Z</time></trkpt><trkpt lat="43.391210787926205" lon="10.739627282395428"><ele>462.0</ele><time>2026-04-19T12:23:06.001Z</time></trkpt><trkpt lat="43.391153614876345" lon="10.739664760035348"><ele>459.6</ele><time>2026-04-19T12:23:07.001Z</time></trkpt><trkpt lat="43.391168286974455" lon="10.739880678179993"><ele>457.20000000000005</ele><time>2026-04-19T12:23:10.001Z</time></trkpt><trkpt lat="43.391203345218585" lon="10.73996651203709"><ele>454.8</ele><time>2026-04-19T12:23:11.001Z</time></trkpt><trkpt lat="43.39123078653058" lon="10.740055214014864"><ele>452.4</ele><time>2026-04-19T12:23:12.001Z</time></trkpt><trkpt lat="43.39126206662372" lon="10.740147631547403"><ele>450.0</ele><time>2026-04-19T12:23:13.001Z</time></trkpt><trkpt lat="43.39129586834261" lon="10.740249927988256"><ele>449.6666666666667</ele><time>2026-04-19T12:23:14.001Z</time></trkpt><trkpt lat="43.39132940814635" lon="10.74034945440366"><ele>449.33333333333337</ele><time>2026-04-19T12:23:15.001Z</time></trkpt><trkpt lat="43.39136108962193" lon="10.740445318506504"><ele>449.0</ele><time>2026-04-19T12:23:16.001Z</time></trkpt><trkpt lat="43.39139290866285" lon="10.740542591089842"><ele>448.6666666666667</ele><time>2026-04-19T12:23:17.001Z</time></trkpt><trkpt lat="43.391424212724054" lon="10.740643245703016"><ele>448.33333333333337</ele><time>2026-04-19T12:23:18.001Z</time></trkpt><trkpt lat="43.39145589307634" lon="10.740749432032992"><ele>448.0</ele><time>2026-04-19T12:23:19.001Z</time></trkpt><trkpt lat="43.3914914040715" lon="10.740856081129747"><ele>447.1666666666667</ele><time>2026-04-19T12:23:20.001Z</time></trkpt><trkpt lat="43.39154502483591" lon="10.74095046411397"><ele>446.33333333333337</ele><time>2026-04-19T12:23:21.001Z</time></trkpt><trkpt lat="43.3916141351875" lon="10.741025646970217"><ele>445.5</ele><time>2026-04-19T12:23:22.001Z</time></trkpt><trkpt lat="43.39168505540497" lon="10.741094255924473"><ele>444.66666666666663</ele><time>2026-04-19T12:23:23.001Z</time></trkpt><trkpt lat="43.39174867688232" lon="10.741161862780944"><ele>443.8333333333333</ele><time>2026-04-19T12:23:24.001Z</time></trkpt><trkpt lat="43.39180212787719" lon="10.741219643363772"><ele>443.0</ele><time>2026-04-19T12:23:25.001Z</time></trkpt><trkpt lat="43.39189208873749" lon="10.741310823170075"><ele>443.0</ele><time>2026-04-19T12:23:27.001Z</time></trkpt><trkpt lat="43.39190675221257" lon="10.741470364099392"><ele>442.99999999999994</ele><time>2026-04-19T12:23:29.001Z</time></trkpt><trkpt lat="43.391877579549764" lon="10.741578767553095"><ele>442.99999999999994</ele><time>2026-04-19T12:23:30.001Z</time></trkpt><trkpt lat="43.39185600328187" lon="10.741686181049632"><ele>443.0</ele><time>2026-04-19T12:23:31.001Z</time></trkpt><trkpt lat="43.39183598882624" lon="10.74180681546204"><ele>443.0</ele><time>2026-04-19T12:23:32.001Z</time></trkpt><trkpt lat="43.3918160865299" lon="10.741940215613745"><ele>442.0</ele><time>2026-04-19T12:23:33.001Z</time></trkpt><trkpt lat="43.39179564569931" lon="10.742073160874451"><ele>440.99999999999994</ele><time>2026-04-19T12:23:33.999Z</time></trkpt><trkpt lat="43.39177815136078" lon="10.742208333558827"><ele>439.99999999999994</ele><time>2026-04-19T12:23:34.999Z</time></trkpt><trkpt lat="43.39176140902567" lon="10.742344579985561"><ele>439.0</ele><time>2026-04-19T12:23:35.999Z</time></trkpt><trkpt lat="43.391747479291695" lon="10.742484910354094"><ele>438.0</ele><time>2026-04-19T12:23:36.999Z</time></trkpt><trkpt lat="43.391735967263855" lon="10.742629902782225"><ele>437.2</ele><time>2026-04-19T12:23:37.999Z</time></trkpt><trkpt lat="43.3917270267167" lon="10.74277608666085"><ele>436.4</ele><time>2026-04-19T12:23:38.999Z</time></trkpt><trkpt lat="43.39172013949954" lon="10.742926196143328"><ele>435.59999999999997</ele><time>2026-04-19T12:23:39.999Z</time></trkpt><trkpt lat="43.3917158483471" lon="10.743069983417724"><ele>434.79999999999995</ele><time>2026-04-19T12:23:40.999Z</time></trkpt><trkpt lat="43.3917257064943" lon="10.74319340174797"><ele>434.0</ele><time>2026-04-19T12:23:41.999Z</time></trkpt><trkpt lat="43.39174204021934" lon="10.743294587419431"><ele>434.0</ele><time>2026-04-19T12:23:42.999Z</time></trkpt><trkpt lat="43.391727575485824" lon="10.74343941468545"><ele>434.0</ele><time>2026-04-19T12:23:44.999Z</time></trkpt><trkpt lat="43.39162570457659" lon="10.743429089475761"><ele>434.0</ele><time>2026-04-19T12:23:46.999Z</time></trkpt><trkpt lat="43.39159116448387" lon="10.743265166066331"><ele>434.0</ele><time>2026-04-19T12:23:48.999Z</time></trkpt><trkpt lat="43.39158061909334" lon="10.74314721174394"><ele>434.0</ele><time>2026-04-19T12:23:49.999Z</time></trkpt><trkpt lat="43.39157342732043" lon="10.743025764825374"><ele>434.0</ele><time>2026-04-19T12:23:50.999Z</time></trkpt><trkpt lat="43.39156820791015" lon="10.742904622108925"><ele>434.0</ele><time>2026-04-19T12:23:51.999Z</time></trkpt><trkpt lat="43.39154263612928" lon="10.742791720502199"><ele>434.0</ele><time>2026-04-19T12:23:52.999Z</time></trkpt><trkpt lat="43.39153558581007" lon="10.742690382909059"><ele>434.0</ele><time>2026-04-19T12:23:53.999Z</time></trkpt><trkpt lat="43.3914648235814" lon="10.74264756210724"><ele>434.0</ele><time>2026-04-19T12:23:54.999Z</time></trkpt><trkpt lat="43.39135947136237" lon="10.742748417359648"><ele>434.0</ele><time>2026-04-19T12:23:56.999Z</time></trkpt><trkpt lat="43.391357979145766" lon="10.742870839325818"><ele>434.0</ele><time>2026-04-19T12:23:57.999Z</time></trkpt><trkpt lat="43.39135676973162" lon="10.742999085288591"><ele>434.0</ele><time>2026-04-19T12:23:59Z</time></trkpt><trkpt lat="43.39135092134017" lon="10.743131804889769"><ele>434.0</ele><time>2026-04-19T12:24:00Z</time></trkpt><trkpt lat="43.39135053536511" lon="10.743262715617357"><ele>434.0</ele><time>2026-04-19T12:24:01Z</time></trkpt><trkpt lat="43.39135926606531" lon="10.74339502754266"><ele>434.0</ele><time>2026-04-19T12:24:02Z</time></trkpt><trkpt lat="43.39138149458309" lon="10.743528112576868"><ele>434.0</ele><time>2026-04-19T12:24:03Z</time></trkpt><trkpt lat="43.39141721587895" lon="10.74366027911881"><ele>434.0</ele><time>2026-04-19T12:24:04Z</time></trkpt><trkpt lat="43.391463838264535" lon="10.743789909546575"><ele>434.0</ele><time>2026-04-19T12:24:05Z</time></trkpt><trkpt lat="43.391515954125616" lon="10.743919286087593"><ele>434.0</ele><time>2026-04-19T12:24:06Z</time></trkpt><trkpt lat="43.39156567126285" lon="10.744050994072474"><ele>431.2</ele><time>2026-04-19T12:24:07Z</time></trkpt><trkpt lat="43.39160635288532" lon="10.744172208995407"><ele>428.4</ele><time>2026-04-19T12:24:08Z</time></trkpt><trkpt lat="43.391634081177614" lon="10.744271126454167"><ele>425.6</ele><time>2026-04-19T12:24:09Z</time></trkpt><trkpt lat="43.391641515505185" lon="10.74441029620703"><ele>422.8</ele><time>2026-04-19T12:24:11Z</time></trkpt><trkpt lat="43.39172717330369" lon="10.744564027759944"><ele>420.0</ele><time>2026-04-19T12:24:13Z</time></trkpt><trkpt lat="43.39177692024375" lon="10.74466783817386"><ele>416.8</ele><time>2026-04-19T12:24:14Z</time></trkpt><trkpt lat="43.39183398484879" lon="10.744764298607988"><ele>413.6</ele><time>2026-04-19T12:24:15Z</time></trkpt><trkpt lat="43.39189310754732" lon="10.744860691416452"><ele>410.4</ele><time>2026-04-19T12:24:16Z</time></trkpt><trkpt lat="43.39195516583277" lon="10.744959802223041"><ele>407.2</ele><time>2026-04-19T12:24:17Z</time></trkpt><trkpt lat="43.39201639906795" lon="10.745057133876246"><ele>404.0</ele><time>2026-04-19T12:24:18Z</time></trkpt><trkpt lat="43.392076165205985" lon="10.745152939940054"><ele>404.49999999999994</ele><time>2026-04-19T12:24:19Z</time></trkpt><trkpt lat="43.39213045329972" lon="10.745246428200742"><ele>405.0</ele><time>2026-04-19T12:24:20Z</time></trkpt><trkpt lat="43.39217368512931" lon="10.745344820049112"><ele>405.5</ele><time>2026-04-19T12:24:21Z</time></trkpt><trkpt lat="43.39218938032379" lon="10.745450004898311"><ele>406.0</ele><time>2026-04-19T12:24:22Z</time></trkpt><trkpt lat="43.392177460037736" lon="10.745556980904915"><ele>406.49999999999994</ele><time>2026-04-19T12:24:23Z</time></trkpt><trkpt lat="43.39214491256866" lon="10.74565039421929"><ele>407.0</ele><time>2026-04-19T12:24:24Z</time></trkpt><trkpt lat="43.39210677117451" lon="10.74573167847341"><ele>406.20000000000005</ele><time>2026-04-19T12:24:25Z</time></trkpt><trkpt lat="43.392064905657136" lon="10.745800119195314"><ele>405.4</ele><time>2026-04-19T12:24:26Z</time></trkpt><trkpt lat="43.391994168143626" lon="10.745902298651266"><ele>404.6</ele><time>2026-04-19T12:24:28Z</time></trkpt><trkpt lat="43.39194276277161" lon="10.745986337257168"><ele>403.79999999999995</ele><time>2026-04-19T12:24:40Z</time></trkpt><trkpt lat="43.39188074780733" lon="10.746092072049777"><ele>403.0</ele><time>2026-04-19T12:24:42Z</time></trkpt><trkpt lat="43.39179112232485" lon="10.746233011784385"><ele>403.00000000000006</ele><time>2026-04-19T12:24:44Z</time></trkpt><trkpt lat="43.391732863439444" lon="10.74632632371428"><ele>403.0</ele><time>2026-04-19T12:24:45Z</time></trkpt><trkpt lat="43.391671513563445" lon="10.746425335240607"><ele>403.0</ele><time>2026-04-19T12:24:46Z</time></trkpt><trkpt lat="43.39161917050963" lon="10.746525201444229"><ele>403.0</ele><time>2026-04-19T12:24:47Z</time></trkpt><trkpt lat="43.39157401421966" lon="10.746629452602985"><ele>403.00000000000006</ele><time>2026-04-19T12:24:48Z</time></trkpt><trkpt lat="43.391543039825685" lon="10.746737836549508"><ele>403.0</ele><time>2026-04-19T12:24:49Z</time></trkpt><trkpt lat="43.39152097876899" lon="10.746842135832289"><ele>402.83333333333337</ele><time>2026-04-19T12:24:50Z</time></trkpt><trkpt lat="43.39150817414229" lon="10.746935234956249"><ele>402.6666666666667</ele><time>2026-04-19T12:24:51.001Z</time></trkpt><trkpt lat="43.39150173962997" lon="10.747050861007937"><ele>402.5</ele><time>2026-04-19T12:24:53.001Z</time></trkpt><trkpt lat="43.39150001553519" lon="10.747204283079505"><ele>402.33333333333337</ele><time>2026-04-19T12:25:20.001Z</time></trkpt><trkpt lat="43.391492524473634" lon="10.747349175037"><ele>402.1666666666667</ele><time>2026-04-19T12:25:22.001Z</time></trkpt><trkpt lat="43.391497969113274" lon="10.747438062848047"><ele>402.0</ele><time>2026-04-19T12:25:23.001Z</time></trkpt><trkpt lat="43.39151272530699" lon="10.747534013609936"><ele>402.0</ele><time>2026-04-19T12:25:24.001Z</time></trkpt><trkpt lat="43.39153985749129" lon="10.747629083843963"><ele>402.0</ele><time>2026-04-19T12:25:25.001Z</time></trkpt><trkpt lat="43.391570975616766" lon="10.74771029912473"><ele>402.0</ele><time>2026-04-19T12:25:26.001Z</time></trkpt><trkpt lat="43.391607234019" lon="10.747787104686623"><ele>402.0</ele><time>2026-04-19T12:25:27.001Z</time></trkpt><trkpt lat="43.391655251606295" lon="10.747863942997963"><ele>402.0</ele><time>2026-04-19T12:25:28.001Z</time></trkpt><trkpt lat="43.3917168800551" lon="10.747934187442226"><ele>402.0</ele><time>2026-04-19T12:25:29.001Z</time></trkpt><trkpt lat="43.39178156884477" lon="10.747991630982106"><ele>402.0</ele><time>2026-04-19T12:25:30.001Z</time></trkpt><trkpt lat="43.39184483065081" lon="10.748046719185302"><ele>400.6666666666667</ele><time>2026-04-19T12:25:31.001Z</time></trkpt><trkpt lat="43.3919072187946" lon="10.748100827270452"><ele>399.33333333333337</ele><time>2026-04-19T12:25:32.001Z</time></trkpt><trkpt lat="43.39196622637028" lon="10.748158099907855"><ele>398.0</ele><time>2026-04-19T12:25:33.001Z</time></trkpt><trkpt lat="43.392019207711904" lon="10.748224564049835"><ele>396.6666666666667</ele><time>2026-04-19T12:25:34.001Z</time></trkpt><trkpt lat="43.39206205340557" lon="10.748307548808032"><ele>395.33333333333337</ele><time>2026-04-19T12:25:35.001Z</time></trkpt><trkpt lat="43.39209880120099" lon="10.748407806170466"><ele>394.0</ele><time>2026-04-19T12:25:36.001Z</time></trkpt><trkpt lat="43.392133520553465" lon="10.748510483718"><ele>394.50000000000006</ele><time>2026-04-19T12:25:37.001Z</time></trkpt><trkpt lat="43.39216480176203" lon="10.748617702894016"><ele>395.0</ele><time>2026-04-19T12:25:38.001Z</time></trkpt><trkpt lat="43.39219634914859" lon="10.748721331233144"><ele>395.5</ele><time>2026-04-19T12:25:39.001Z</time></trkpt><trkpt lat="43.39222797418761" lon="10.748821611306116"><ele>396.0</ele><time>2026-04-19T12:25:39.999Z</time></trkpt><trkpt lat="43.392258774808" lon="10.74891992992231"><ele>396.50000000000006</ele><time>2026-04-19T12:25:40.999Z</time></trkpt><trkpt lat="43.39228987712915" lon="10.749015578095388"><ele>397.0</ele><time>2026-04-19T12:25:42Z</time></trkpt><trkpt lat="43.392318978186836" lon="10.749109237435823"><ele>397.0</ele><time>2026-04-19T12:25:43Z</time></trkpt><trkpt lat="43.39234689707935" lon="10.749201368542375"><ele>397.0</ele><time>2026-04-19T12:25:44Z</time></trkpt><trkpt lat="43.39237127381246" lon="10.74929101929189"><ele>397.0</ele><time>2026-04-19T12:25:45Z</time></trkpt><trkpt lat="43.392393800180514" lon="10.749380215134376"><ele>397.0</ele><time>2026-04-19T12:25:46Z</time></trkpt><trkpt lat="43.39241553985284" lon="10.74946831811435"><ele>397.0</ele><time>2026-04-19T12:25:47Z</time></trkpt><trkpt lat="43.3924367835325" lon="10.749555731232382"><ele>397.0</ele><time>2026-04-19T12:25:48Z</time></trkpt><trkpt lat="43.3924652748948" lon="10.749636962790092"><ele>397.0</ele><time>2026-04-19T12:25:49Z</time></trkpt><trkpt lat="43.392512055768044" lon="10.74970316784114"><ele>396.40000000000003</ele><time>2026-04-19T12:25:50Z</time></trkpt><trkpt lat="43.39254626785605" lon="10.749781468669974"><ele>395.8</ele><time>2026-04-19T12:25:51Z</time></trkpt><trkpt lat="43.3926458731923" lon="10.749879116727698"><ele>395.2</ele><time>2026-04-19T12:25:53Z</time></trkpt><trkpt lat="43.3927620220444" lon="10.749894043772851"><ele>394.6</ele><time>2026-04-19T12:25:55Z</time></trkpt><trkpt lat="43.39288195367161" lon="10.74987224792963"><ele>394.0</ele><time>2026-04-19T12:25:57Z</time></trkpt><trkpt lat="43.392943164668154" lon="10.749838808315733"><ele>394.00000000000006</ele><time>2026-04-19T12:25:58Z</time></trkpt><trkpt lat="43.393005340217485" lon="10.749789033257889"><ele>394.0</ele><time>2026-04-19T12:25:59Z</time></trkpt><trkpt lat="43.39306236381655" lon="10.74972501865639"><ele>394.0</ele><time>2026-04-19T12:26:00Z</time></trkpt><trkpt lat="43.39311464270927" lon="10.749647361469213"><ele>394.0</ele><time>2026-04-19T12:26:01Z</time></trkpt><trkpt lat="43.393160263924685" lon="10.7495605893901"><ele>394.00000000000006</ele><time>2026-04-19T12:26:02Z</time></trkpt><trkpt lat="43.393201577815745" lon="10.749466100263165"><ele>394.0</ele><time>2026-04-19T12:26:03Z</time></trkpt><trkpt lat="43.39324088381527" lon="10.749363378533948"><ele>393.00000000000006</ele><time>2026-04-19T12:26:04Z</time></trkpt><trkpt lat="43.39328746890133" lon="10.749264472309784"><ele>392.0</ele><time>2026-04-19T12:26:05Z</time></trkpt><trkpt lat="43.39332678929069" lon="10.749162471407445"><ele>391.0</ele><time>2026-04-19T12:26:06Z</time></trkpt><trkpt lat="43.3933725146829" lon="10.749063439696943"><ele>390.0</ele><time>2026-04-19T12:26:07Z</time></trkpt><trkpt lat="43.39342729774101" lon="10.748965689351648"><ele>389.00000000000006</ele><time>2026-04-19T12:26:08Z</time></trkpt><trkpt lat="43.39349063769519" lon="10.748870990133168"><ele>388.0</ele><time>2026-04-19T12:26:09Z</time></trkpt><trkpt lat="43.39355865778157" lon="10.74878522552036"><ele>388.0</ele><time>2026-04-19T12:26:10Z</time></trkpt><trkpt lat="43.39363417958433" lon="10.748708338414984"><ele>388.0</ele><time>2026-04-19T12:26:11Z</time></trkpt><trkpt lat="43.39371114243878" lon="10.74864178743582"><ele>388.0</ele><time>2026-04-19T12:26:12Z</time></trkpt><trkpt lat="43.39380014675502" lon="10.748603849450355"><ele>388.0</ele><time>2026-04-19T12:26:13Z</time></trkpt><trkpt lat="43.3938931924563" lon="10.748617361666483"><ele>388.0</ele><time>2026-04-19T12:26:14Z</time></trkpt><trkpt lat="43.393987110190984" lon="10.748621448947285"><ele>387.2</ele><time>2026-04-19T12:26:15Z</time></trkpt><trkpt lat="43.39408537926485" lon="10.748609750261041"><ele>386.4</ele><time>2026-04-19T12:26:16Z</time></trkpt><trkpt lat="43.39418507666072" lon="10.748615954349471"><ele>385.59999999999997</ele><time>2026-04-19T12:26:17Z</time></trkpt><trkpt lat="43.39428125144213" lon="10.748601272369452"><ele>384.79999999999995</ele><time>2026-04-19T12:26:18Z</time></trkpt><trkpt lat="43.394371814304655" lon="10.748553845716192"><ele>384.0</ele><time>2026-04-19T12:26:19Z</time></trkpt><trkpt lat="43.39446232946661" lon="10.748508369730006"><ele>384.0</ele><time>2026-04-19T12:26:20Z</time></trkpt><trkpt lat="43.394537343158945" lon="10.748440714318455"><ele>384.0</ele><time>2026-04-19T12:26:21Z</time></trkpt><trkpt lat="43.39460886789317" lon="10.748383871291608"><ele>384.0</ele><time>2026-04-19T12:26:22Z</time></trkpt><trkpt lat="43.394687151942435" lon="10.7483461419043"><ele>384.0</ele><time>2026-04-19T12:26:23Z</time></trkpt><trkpt lat="43.394778106727294" lon="10.74837157061692"><ele>384.0</ele><time>2026-04-19T12:26:24Z</time></trkpt><trkpt lat="43.39486007570768" lon="10.74845539261506"><ele>384.0</ele><time>2026-04-19T12:26:25Z</time></trkpt><trkpt lat="43.394953012212014" lon="10.74851368907743"><ele>384.0</ele><time>2026-04-19T12:26:26Z</time></trkpt><trkpt lat="43.39504800285761" lon="10.748573772414616"><ele>384.0</ele><time>2026-04-19T12:26:27Z</time></trkpt><trkpt lat="43.39513485036653" lon="10.748655196741257"><ele>384.0</ele><time>2026-04-19T12:26:28Z</time></trkpt><trkpt lat="43.395213552876776" lon="10.748757082335356"><ele>384.0</ele><time>2026-04-19T12:26:29Z</time></trkpt><trkpt lat="43.39529053517826" lon="10.748858704119806"><ele>381.6</ele><time>2026-04-19T12:26:30Z</time></trkpt><trkpt lat="43.395367607496475" lon="10.74896044493965"><ele>379.2</ele><time>2026-04-19T12:26:31Z</time></trkpt><trkpt lat="43.39545386874632" lon="10.749047281419342"><ele>376.8</ele><time>2026-04-19T12:26:32Z</time></trkpt><trkpt lat="43.395531154958014" lon="10.749145802431446"><ele>374.40000000000003</ele><time>2026-04-19T12:26:33Z</time></trkpt><trkpt lat="43.39561456815716" lon="10.749238829590727"><ele>372.0</ele><time>2026-04-19T12:26:34Z</time></trkpt><trkpt lat="43.39570512059079" lon="10.74930927973975"><ele>372.0</ele><time>2026-04-19T12:26:35.001Z</time></trkpt><trkpt lat="43.39580497008823" lon="10.749340163149673"><ele>372.0</ele><time>2026-04-19T12:26:36.001Z</time></trkpt><trkpt lat="43.395908861591494" lon="10.749329081702964"><ele>372.0</ele><time>2026-04-19T12:26:37.001Z</time></trkpt><trkpt lat="43.39601450690715" lon="10.749280165645285"><ele>372.0</ele><time>2026-04-19T12:26:38.001Z</time></trkpt><trkpt lat="43.39613237747293" lon="10.749255110259357"><ele>372.0</ele><time>2026-04-19T12:26:39.001Z</time></trkpt><trkpt lat="43.39625666369124" lon="10.749208424813022"><ele>369.5</ele><time>2026-04-19T12:26:40.001Z</time></trkpt><trkpt lat="43.396386415660245" lon="10.74915968621943"><ele>367.0</ele><time>2026-04-19T12:26:41.001Z</time></trkpt><trkpt lat="43.39651436469783" lon="10.749087106875239"><ele>364.5</ele><time>2026-04-19T12:26:42.001Z</time></trkpt><trkpt lat="43.396646127790234" lon="10.749040790780741"><ele>362.0</ele><time>2026-04-19T12:26:43.001Z</time></trkpt><trkpt lat="43.396781219286275" lon="10.749007633026741"><ele>362.0</ele><time>2026-04-19T12:26:44.001Z</time></trkpt><trkpt lat="43.39690876059761" lon="10.748937867176984"><ele>362.0</ele><time>2026-04-19T12:26:45.001Z</time></trkpt><trkpt lat="43.39704362711277" lon="10.748901325011529"><ele>362.0</ele><time>2026-04-19T12:26:46.001Z</time></trkpt><trkpt lat="43.397170955796476" lon="10.748866052532646"><ele>362.0</ele><time>2026-04-19T12:26:47.001Z</time></trkpt><trkpt lat="43.39729048292869" lon="10.748826649952768"><ele>360.20000000000005</ele><time>2026-04-19T12:26:48.001Z</time></trkpt><trkpt lat="43.39740102486013" lon="10.748790209363444"><ele>358.4</ele><time>2026-04-19T12:26:49.001Z</time></trkpt><trkpt lat="43.39749130513977" lon="10.748737728662725"><ele>356.6</ele><time>2026-04-19T12:26:50.001Z</time></trkpt><trkpt lat="43.39757458732175" lon="10.748730757790558"><ele>354.79999999999995</ele><time>2026-04-19T12:26:51.001Z</time></trkpt><trkpt lat="43.39763711766064" lon="10.748698994433852"><ele>353.0</ele><time>2026-04-19T12:26:52.001Z</time></trkpt><trkpt lat="43.39771005191956" lon="10.74882260589194"><ele>353.0</ele><time>2026-04-19T12:26:54.001Z</time></trkpt><trkpt lat="43.39767331908625" lon="10.748911817390713"><ele>353.0</ele><time>2026-04-19T12:26:55.001Z</time></trkpt><trkpt lat="43.39758439267712" lon="10.748924090619946"><ele>353.0</ele><time>2026-04-19T12:26:56.001Z</time></trkpt><trkpt lat="43.39750601476918" lon="10.74896900571747"><ele>353.0</ele><time>2026-04-19T12:26:57.001Z</time></trkpt><trkpt lat="43.397421680481806" lon="10.749011631640489"><ele>353.0</ele><time>2026-04-19T12:26:58.001Z</time></trkpt><trkpt lat="43.39733587106175" lon="10.749063167345623"><ele>353.0</ele><time>2026-04-19T12:26:59.001Z</time></trkpt><trkpt lat="43.39724745245061" lon="10.74911460829177"><ele>354.5</ele><time>2026-04-19T12:27:00.001Z</time></trkpt><trkpt lat="43.39715962552015" lon="10.749168517520927"><ele>356.0</ele><time>2026-04-19T12:27:01.001Z</time></trkpt><trkpt lat="43.397071219539185" lon="10.749221517760391"><ele>357.5</ele><time>2026-04-19T12:27:02.001Z</time></trkpt><trkpt lat="43.39699430028005" lon="10.749270378378338"><ele>359.0</ele><time>2026-04-19T12:27:03.001Z</time></trkpt><trkpt lat="43.396929441019026" lon="10.749320704913364"><ele>360.5</ele><time>2026-04-19T12:27:04.001Z</time></trkpt><trkpt lat="43.39689459136876" lon="10.749398863455209"><ele>362.0</ele><time>2026-04-19T12:27:05.001Z</time></trkpt><trkpt lat="43.396905229843284" lon="10.749484866255612"><ele>357.40000000000003</ele><time>2026-04-19T12:27:06.001Z</time></trkpt><trkpt lat="43.39696617503147" lon="10.749550312867852"><ele>352.8</ele><time>2026-04-19T12:27:07.001Z</time></trkpt><trkpt lat="43.397053260841425" lon="10.749549225491657"><ele>348.2</ele><time>2026-04-19T12:27:08.001Z</time></trkpt><trkpt lat="43.39714615935235" lon="10.749502788253677"><ele>343.6</ele><time>2026-04-19T12:27:09.001Z</time></trkpt><trkpt lat="43.39724574935617" lon="10.749465880570172"><ele>339.0</ele><time>2026-04-19T12:27:10.001Z</time></trkpt><trkpt lat="43.39735070466654" lon="10.749422446462201"><ele>336.0</ele><time>2026-04-19T12:27:11.001Z</time></trkpt><trkpt lat="43.39745816954569" lon="10.749375832565072"><ele>333.0</ele><time>2026-04-19T12:27:12.001Z</time></trkpt><trkpt lat="43.397573452961275" lon="10.74933568956737"><ele>330.0</ele><time>2026-04-19T12:27:13.001Z</time></trkpt><trkpt lat="43.39769183976148" lon="10.749319630409282"><ele>327.0</ele><time>2026-04-19T12:27:14.001Z</time></trkpt><trkpt lat="43.397803226885614" lon="10.749258140927832"><ele>329.0</ele><time>2026-04-19T12:27:15.001Z</time></trkpt><trkpt lat="43.39791991235865" lon="10.749217134780208"><ele>331.0</ele><time>2026-04-19T12:27:16.001Z</time></trkpt><trkpt lat="43.398035605883244" lon="10.749161683980088"><ele>333.0</ele><time>2026-04-19T12:27:17.001Z</time></trkpt><trkpt lat="43.3981513907452" lon="10.749094371133097"><ele>335.0</ele><time>2026-04-19T12:27:18.001Z</time></trkpt><trkpt lat="43.39826645467567" lon="10.749019837868783"><ele>335.0</ele><time>2026-04-19T12:27:19.001Z</time></trkpt><trkpt lat="43.398381883933425" lon="10.748935663167789"><ele>335.0</ele><time>2026-04-19T12:27:20.001Z</time></trkpt><trkpt lat="43.39849605373278" lon="10.748848312775317"><ele>335.0</ele><time>2026-04-19T12:27:21.001Z</time></trkpt><trkpt lat="43.39861396603439" lon="10.74876591322979"><ele>335.0</ele><time>2026-04-19T12:27:22.001Z</time></trkpt><trkpt lat="43.39873289379554" lon="10.748670815673465"><ele>334.25</ele><time>2026-04-19T12:27:23.001Z</time></trkpt><trkpt lat="43.398852731961135" lon="10.74857104542005"><ele>333.5</ele><time>2026-04-19T12:27:24.001Z</time></trkpt><trkpt lat="43.398970298896266" lon="10.74846126632491"><ele>332.75</ele><time>2026-04-19T12:27:25.001Z</time></trkpt><trkpt lat="43.39906539390974" lon="10.748321906087623"><ele>332.0</ele><time>2026-04-19T12:27:26.001Z</time></trkpt><trkpt lat="43.39914019738873" lon="10.748183139410301"><ele>332.0</ele><time>2026-04-19T12:27:27.001Z</time></trkpt><trkpt lat="43.399193349050485" lon="10.74806546253696"><ele>332.0</ele><time>2026-04-19T12:27:28.001Z</time></trkpt><trkpt lat="43.399249971426606" lon="10.7479812710245"><ele>332.0</ele><time>2026-04-19T12:27:29.001Z</time></trkpt><trkpt lat="43.39933658410384" lon="10.747958447921159"><ele>332.0</ele><time>2026-04-19T12:27:30.001Z</time></trkpt><trkpt lat="43.39942468921693" lon="10.747987025448722"><ele>332.0</ele><time>2026-04-19T12:27:31.002Z</time></trkpt><trkpt lat="43.39950659825903" lon="10.748072899286985"><ele>332.0</ele><time>2026-04-19T12:27:32.002Z</time></trkpt><trkpt lat="43.39956404364794" lon="10.748196616650574"><ele>332.0</ele><time>2026-04-19T12:27:33.002Z</time></trkpt><trkpt lat="43.39961467270858" lon="10.748340127469362"><ele>332.0</ele><time>2026-04-19T12:27:34.002Z</time></trkpt><trkpt lat="43.39966827923684" lon="10.748481371633625"><ele>332.0</ele><time>2026-04-19T12:27:35.002Z</time></trkpt><trkpt lat="43.399716737533375" lon="10.748632314793346"><ele>327.6</ele><time>2026-04-19T12:27:36.002Z</time></trkpt><trkpt lat="43.399760132415594" lon="10.748781121909525"><ele>323.20000000000005</ele><time>2026-04-19T12:27:37.002Z</time></trkpt><trkpt lat="43.39980606145967" lon="10.748909489602982"><ele>318.8</ele><time>2026-04-19T12:27:38.002Z</time></trkpt><trkpt lat="43.399872902418814" lon="10.749033889143528"><ele>314.4</ele><time>2026-04-19T12:27:39.002Z</time></trkpt><trkpt lat="43.399960820475265" lon="10.749124670976673"><ele>310.0</ele><time>2026-04-19T12:27:40.002Z</time></trkpt><trkpt lat="43.40006857353419" lon="10.749178150242457"><ele>310.0</ele><time>2026-04-19T12:27:41.002Z</time></trkpt><trkpt lat="43.400184521482494" lon="10.749205452633433"><ele>310.0</ele><time>2026-04-19T12:27:42.002Z</time></trkpt><trkpt lat="43.40030303882499" lon="10.74921285659231"><ele>310.0</ele><time>2026-04-19T12:27:43.002Z</time></trkpt><trkpt lat="43.40042626675939" lon="10.74920173948758"><ele>310.0</ele><time>2026-04-19T12:27:44.002Z</time></trkpt><trkpt lat="43.40054987075386" lon="10.74917232300561"><ele>307.75</ele><time>2026-04-19T12:27:45.002Z</time></trkpt><trkpt lat="43.40066905250276" lon="10.749118599940573"><ele>305.5</ele><time>2026-04-19T12:27:46Z</time></trkpt><trkpt lat="43.40077753682016" lon="10.749031509794223"><ele>303.25</ele><time>2026-04-19T12:27:47Z</time></trkpt><trkpt lat="43.40087102364967" lon="10.748916480105688"><ele>301.0</ele><time>2026-04-19T12:27:48Z</time></trkpt><trkpt lat="43.4009483268054" lon="10.748777212981336"><ele>301.0</ele><time>2026-04-19T12:27:49Z</time></trkpt><trkpt lat="43.40101480466053" lon="10.748626717709016"><ele>301.0</ele><time>2026-04-19T12:27:50Z</time></trkpt><trkpt lat="43.40108335061975" lon="10.748482640785081"><ele>301.0</ele><time>2026-04-19T12:27:51Z</time></trkpt><trkpt lat="43.40116693491651" lon="10.748358632485438"><ele>301.0</ele><time>2026-04-19T12:27:52Z</time></trkpt><trkpt lat="43.40127012421434" lon="10.74827109241396"><ele>300.75</ele><time>2026-04-19T12:27:53Z</time></trkpt><trkpt lat="43.401363856028965" lon="10.748161824482713"><ele>300.5</ele><time>2026-04-19T12:27:54Z</time></trkpt><trkpt lat="43.401477446372006" lon="10.74808884298132"><ele>300.25</ele><time>2026-04-19T12:27:55Z</time></trkpt><trkpt lat="43.40159791021266" lon="10.748035655121134"><ele>300.0</ele><time>2026-04-19T12:27:56Z</time></trkpt><trkpt lat="43.40172412244527" lon="10.748020630018512"><ele>300.0</ele><time>2026-04-19T12:27:57Z</time></trkpt><trkpt lat="43.401847482329835" lon="10.748061446067904"><ele>300.0</ele><time>2026-04-19T12:27:58Z</time></trkpt><trkpt lat="43.401976510445124" lon="10.748095195061032"><ele>300.0</ele><time>2026-04-19T12:27:59Z</time></trkpt><trkpt lat="43.402099312542695" lon="10.748175190969691"><ele>300.0</ele><time>2026-04-19T12:28:00Z</time></trkpt><trkpt lat="43.40221411755661" lon="10.74828205751853"><ele>298.75</ele><time>2026-04-19T12:28:01Z</time></trkpt><trkpt lat="43.402310167909704" lon="10.748431067982729"><ele>297.5</ele><time>2026-04-19T12:28:02Z</time></trkpt><trkpt lat="43.40237618092601" lon="10.74860428441399"><ele>296.25</ele><time>2026-04-19T12:28:03Z</time></trkpt><trkpt lat="43.40242272854354" lon="10.748780342645784"><ele>295.0</ele><time>2026-04-19T12:28:04Z</time></trkpt><trkpt lat="43.402484179492035" lon="10.748937566463916"><ele>295.0</ele><time>2026-04-19T12:28:05Z</time></trkpt><trkpt lat="43.4025740517297" lon="10.749069568284622"><ele>295.0</ele><time>2026-04-19T12:28:06Z</time></trkpt><trkpt lat="43.40268059349862" lon="10.749190739706682"><ele>295.0</ele><time>2026-04-19T12:28:07Z</time></trkpt><trkpt lat="43.402794306701445" lon="10.7492937532662"><ele>295.0</ele><time>2026-04-19T12:28:08Z</time></trkpt><trkpt lat="43.40291991077533" lon="10.74936035590863"><ele>293.25</ele><time>2026-04-19T12:28:09Z</time></trkpt><trkpt lat="43.40305212394002" lon="10.74938777219766"><ele>291.5</ele><time>2026-04-19T12:28:10Z</time></trkpt><trkpt lat="43.40317805225051" lon="10.749406148951604"><ele>289.75</ele><time>2026-04-19T12:28:11Z</time></trkpt><trkpt lat="43.40328879584809" lon="10.74945025632467"><ele>288.0</ele><time>2026-04-19T12:28:12Z</time></trkpt><trkpt lat="43.403388070431745" lon="10.749532428160723"><ele>288.0</ele><time>2026-04-19T12:28:13Z</time></trkpt><trkpt lat="43.403476862393696" lon="10.749639314573006"><ele>288.0</ele><time>2026-04-19T12:28:14Z</time></trkpt><trkpt lat="43.40354465963489" lon="10.749776565293722"><ele>288.0</ele><time>2026-04-19T12:28:15Z</time></trkpt><trkpt lat="43.40360456336986" lon="10.749921644706363"><ele>288.0</ele><time>2026-04-19T12:28:16Z</time></trkpt><trkpt lat="43.40367694291606" lon="10.750057762933471"><ele>288.0</ele><time>2026-04-19T12:28:17Z</time></trkpt><trkpt lat="43.40377000925868" lon="10.750170400943075"><ele>288.0</ele><time>2026-04-19T12:28:18Z</time></trkpt><trkpt lat="43.4038636507963" lon="10.750273073353423"><ele>288.0</ele><time>2026-04-19T12:28:19Z</time></trkpt><trkpt lat="43.4039399973779" lon="10.750369471818109"><ele>288.0</ele><time>2026-04-19T12:28:20Z</time></trkpt><trkpt lat="43.40399351065118" lon="10.750473760572154"><ele>288.0</ele><time>2026-04-19T12:28:21Z</time></trkpt><trkpt lat="43.404021061790445" lon="10.750608214747002"><ele>287.5</ele><time>2026-04-19T12:28:22Z</time></trkpt><trkpt lat="43.40403990929819" lon="10.750760875672245"><ele>287.0</ele><time>2026-04-19T12:28:23Z</time></trkpt><trkpt lat="43.40405003403151" lon="10.750919255195578"><ele>286.5</ele><time>2026-04-19T12:28:24Z</time></trkpt><trkpt lat="43.40405802046765" lon="10.751070645837075"><ele>286.0</ele><time>2026-04-19T12:28:25Z</time></trkpt><trkpt lat="43.404069180048" lon="10.75122589380332"><ele>284.0</ele><time>2026-04-19T12:28:26Z</time></trkpt><trkpt lat="43.404078928678636" lon="10.7513878156894"><ele>282.0</ele><time>2026-04-19T12:28:27.001Z</time></trkpt><trkpt lat="43.40408895364284" lon="10.751553794561715"><ele>280.0</ele><time>2026-04-19T12:28:28.001Z</time></trkpt><trkpt lat="43.40409690740151" lon="10.751724124627021"><ele>278.0</ele><time>2026-04-19T12:28:29.001Z</time></trkpt><trkpt lat="43.40410441535296" lon="10.751898902892718"><ele>276.25</ele><time>2026-04-19T12:28:30.001Z</time></trkpt><trkpt lat="43.4041142330202" lon="10.752081710054702"><ele>274.5</ele><time>2026-04-19T12:28:31.001Z</time></trkpt><trkpt lat="43.404129154483115" lon="10.7522715729912"><ele>272.75</ele><time>2026-04-19T12:28:32.001Z</time></trkpt><trkpt lat="43.404154260121786" lon="10.752468042777666"><ele>271.0</ele><time>2026-04-19T12:28:33.001Z</time></trkpt><trkpt lat="43.40419637425438" lon="10.752663908894043"><ele>269.25</ele><time>2026-04-19T12:28:34.001Z</time></trkpt><trkpt lat="43.404256163156056" lon="10.752843869131171"><ele>267.5</ele><time>2026-04-19T12:28:35.001Z</time></trkpt><trkpt lat="43.40432330426047" lon="10.753011050155177"><ele>265.75</ele><time>2026-04-19T12:28:36.001Z</time></trkpt><trkpt lat="43.40439147825236" lon="10.753167998703047"><ele>264.0</ele><time>2026-04-19T12:28:37.001Z</time></trkpt><trkpt lat="43.40446731681489" lon="10.753316477456965"><ele>264.0</ele><time>2026-04-19T12:28:38.001Z</time></trkpt><trkpt lat="43.40455633063087" lon="10.753453405675637"><ele>264.0</ele><time>2026-04-19T12:28:39.001Z</time></trkpt><trkpt lat="43.404656690184154" lon="10.753581048436025"><ele>264.0</ele><time>2026-04-19T12:28:40.001Z</time></trkpt><trkpt lat="43.404766001988364" lon="10.753698805387"><ele>264.0</ele><time>2026-04-19T12:28:41.001Z</time></trkpt><trkpt lat="43.40488663355581" lon="10.753792864189782"><ele>262.75</ele><time>2026-04-19T12:28:42.001Z</time></trkpt><trkpt lat="43.40501871895394" lon="10.753851901625223"><ele>261.5</ele><time>2026-04-19T12:28:43.001Z</time></trkpt><trkpt lat="43.405155945844385" lon="10.753882832604651"><ele>260.25</ele><time>2026-04-19T12:28:44.001Z</time></trkpt><trkpt lat="43.40529472770142" lon="10.753913973424192"><ele>259.0</ele><time>2026-04-19T12:28:45.001Z</time></trkpt><trkpt lat="43.405427293106854" lon="10.753976205781283"><ele>257.75</ele><time>2026-04-19T12:28:46.001Z</time></trkpt><trkpt lat="43.40553916156555" lon="10.754093898561562"><ele>256.5</ele><time>2026-04-19T12:28:47.001Z</time></trkpt><trkpt lat="43.405645883403395" lon="10.754215067660423"><ele>255.25</ele><time>2026-04-19T12:28:48.001Z</time></trkpt><trkpt lat="43.40571356890254" lon="10.754385482928305"><ele>254.0</ele><time>2026-04-19T12:28:49.001Z</time></trkpt><trkpt lat="43.40575723550195" lon="10.754567633224086"><ele>254.0</ele><time>2026-04-19T12:28:50.001Z</time></trkpt><trkpt lat="43.40580174387826" lon="10.754741173680804"><ele>254.0</ele><time>2026-04-19T12:28:51.001Z</time></trkpt><trkpt lat="43.40585567780566" lon="10.754903844079523"><ele>254.0</ele><time>2026-04-19T12:28:52.001Z</time></trkpt><trkpt lat="43.4059167744589" lon="10.755046550959284"><ele>254.0</ele><time>2026-04-19T12:28:53.001Z</time></trkpt><trkpt lat="43.405991018334625" lon="10.75517062957613"><ele>252.39999999999998</ele><time>2026-04-19T12:28:54.001Z</time></trkpt><trkpt lat="43.406090761646254" lon="10.755268962843182"><ele>250.79999999999998</ele><time>2026-04-19T12:28:55.001Z</time></trkpt><trkpt lat="43.40619578540098" lon="10.755344922794393"><ele>249.20000000000002</ele><time>2026-04-19T12:28:56.001Z</time></trkpt><trkpt lat="43.406283521856295" lon="10.755411659985135"><ele>247.60000000000002</ele><time>2026-04-19T12:28:57.001Z</time></trkpt><trkpt lat="43.40633740900786" lon="10.755474058815215"><ele>246.0</ele><time>2026-04-19T12:28:58.001Z</time></trkpt><trkpt lat="43.406351176254276" lon="10.755603344745744"><ele>244.60000000000002</ele><time>2026-04-19T12:29:00.001Z</time></trkpt><trkpt lat="43.406269865933574" lon="10.755716458686965"><ele>243.20000000000002</ele><time>2026-04-19T12:29:02.001Z</time></trkpt><trkpt lat="43.40619353931683" lon="10.755740528978414"><ele>241.79999999999998</ele><time>2026-04-19T12:29:03.001Z</time></trkpt><trkpt lat="43.40610817333323" lon="10.75572466000493"><ele>240.39999999999998</ele><time>2026-04-19T12:29:04.001Z</time></trkpt><trkpt lat="43.40603409233666" lon="10.755657719965907"><ele>239.0</ele><time>2026-04-19T12:29:05.001Z</time></trkpt><trkpt lat="43.40596257876926" lon="10.755601196043449"><ele>239.00000000000003</ele><time>2026-04-19T12:29:06.001Z</time></trkpt><trkpt lat="43.405892879941646" lon="10.75554135210567"><ele>239.0</ele><time>2026-04-19T12:29:07.001Z</time></trkpt><trkpt lat="43.40582886466599" lon="10.755475433322298"><ele>239.0</ele><time>2026-04-19T12:29:08.001Z</time></trkpt><trkpt lat="43.405762290172795" lon="10.755405486308765"><ele>239.0</ele><time>2026-04-19T12:29:09.001Z</time></trkpt><trkpt lat="43.405696653505885" lon="10.755338542373027"><ele>239.00000000000003</ele><time>2026-04-19T12:29:10.001Z</time></trkpt><trkpt lat="43.405627008212804" lon="10.755274598036943"><ele>239.0</ele><time>2026-04-19T12:29:11.001Z</time></trkpt><trkpt lat="43.40554218349362" lon="10.755242593274765"><ele>237.79999999999998</ele><time>2026-04-19T12:29:12.001Z</time></trkpt><trkpt lat="43.40545779699912" lon="10.755209091563128"><ele>236.59999999999997</ele><time>2026-04-19T12:29:13.001Z</time></trkpt><trkpt lat="43.40536141722065" lon="10.75520348647258"><ele>235.4</ele><time>2026-04-19T12:29:14.001Z</time></trkpt><trkpt lat="43.405263782361864" lon="10.755224349822377"><ele>234.2</ele><time>2026-04-19T12:29:15.001Z</time></trkpt><trkpt lat="43.405167716531594" lon="10.755253150239309"><ele>233.0</ele><time>2026-04-19T12:29:16.001Z</time></trkpt><trkpt lat="43.40507079616121" lon="10.75527623006379"><ele>233.0</ele><time>2026-04-19T12:29:17.001Z</time></trkpt><trkpt lat="43.404971328997895" lon="10.755286250979747"><ele>233.0</ele><time>2026-04-19T12:29:18.001Z</time></trkpt><trkpt lat="43.40486880544861" lon="10.755284478620393"><ele>233.0</ele><time>2026-04-19T12:29:19.001Z</time></trkpt><trkpt lat="43.40476778328473" lon="10.755247140271225"><ele>233.0</ele><time>2026-04-19T12:29:20.001Z</time></trkpt><trkpt lat="43.40466494897162" lon="10.75522105000222"><ele>233.0</ele><time>2026-04-19T12:29:21.001Z</time></trkpt><trkpt lat="43.40456157478385" lon="10.755192013170939"><ele>233.60000000000002</ele><time>2026-04-19T12:29:22.001Z</time></trkpt><trkpt lat="43.40445882067393" lon="10.755155838584008"><ele>234.20000000000002</ele><time>2026-04-19T12:29:23.001Z</time></trkpt><trkpt lat="43.4043482281958" lon="10.755141932579797"><ele>234.8</ele><time>2026-04-19T12:29:24.001Z</time></trkpt><trkpt lat="43.40423923320846" lon="10.75511276928201"><ele>235.4</ele><time>2026-04-19T12:29:25.002Z</time></trkpt><trkpt lat="43.40413264108322" lon="10.755095868860105"><ele>236.0</ele><time>2026-04-19T12:29:26.002Z</time></trkpt><trkpt lat="43.40402614662989" lon="10.755097601921848"><ele>236.0</ele><time>2026-04-19T12:29:27.002Z</time></trkpt><trkpt lat="43.403919403063604" lon="10.755118119635036"><ele>236.00000000000003</ele><time>2026-04-19T12:29:28.002Z</time></trkpt><trkpt lat="43.40382061777689" lon="10.755148886503486"><ele>236.00000000000003</ele><time>2026-04-19T12:29:29.002Z</time></trkpt><trkpt lat="43.403723585286166" lon="10.755196504683669"><ele>236.0</ele><time>2026-04-19T12:29:30.002Z</time></trkpt><trkpt lat="43.40362438337466" lon="10.75525940952007"><ele>236.0</ele><time>2026-04-19T12:29:31.002Z</time></trkpt><trkpt lat="43.403533549983024" lon="10.755339658883768"><ele>232.0</ele><time>2026-04-19T12:29:32.002Z</time></trkpt><trkpt lat="43.403461781409135" lon="10.755439167589818"><ele>228.00000000000003</ele><time>2026-04-19T12:29:33.002Z</time></trkpt><trkpt lat="43.40341243963769" lon="10.75555466067057"><ele>224.00000000000003</ele><time>2026-04-19T12:29:34.002Z</time></trkpt><trkpt lat="43.4033967479218" lon="10.755684762908523"><ele>220.0</ele><time>2026-04-19T12:29:35.002Z</time></trkpt><trkpt lat="43.4034098632674" lon="10.755815931494483"><ele>216.0</ele><time>2026-04-19T12:29:36.002Z</time></trkpt><trkpt lat="43.40343777456778" lon="10.755946363280756"><ele>214.4</ele><time>2026-04-19T12:29:37.002Z</time></trkpt><trkpt lat="43.40346820988631" lon="10.756077453216356"><ele>212.8</ele><time>2026-04-19T12:29:38.002Z</time></trkpt><trkpt lat="43.40350369233847" lon="10.756208174794702"><ele>211.20000000000002</ele><time>2026-04-19T12:29:39.002Z</time></trkpt><trkpt lat="43.40354910159235" lon="10.756334234192769"><ele>209.60000000000002</ele><time>2026-04-19T12:29:40.002Z</time></trkpt><trkpt lat="43.40360691142438" lon="10.756451913503298"><ele>208.0</ele><time>2026-04-19T12:29:41.002Z</time></trkpt><trkpt lat="43.403677174557465" lon="10.756559461127292"><ele>208.0</ele><time>2026-04-19T12:29:42.002Z</time></trkpt><trkpt lat="43.403752792990794" lon="10.756664378359561"><ele>208.0</ele><time>2026-04-19T12:29:43.002Z</time></trkpt><trkpt lat="43.40382780228781" lon="10.756774825593043"><ele>208.0</ele><time>2026-04-19T12:29:44.002Z</time></trkpt><trkpt lat="43.4038997295061" lon="10.756888823206337"><ele>208.0</ele><time>2026-04-19T12:29:45.002Z</time></trkpt><trkpt lat="43.403965265196916" lon="10.756995120111114"><ele>208.0</ele><time>2026-04-19T12:29:46.002Z</time></trkpt><trkpt lat="43.40402349411008" lon="10.757091732268426"><ele>208.2</ele><time>2026-04-19T12:29:47.002Z</time></trkpt><trkpt lat="43.404077207807134" lon="10.757187263605426"><ele>208.4</ele><time>2026-04-19T12:29:48.002Z</time></trkpt><trkpt lat="43.40412736311536" lon="10.757291403256975"><ele>208.6</ele><time>2026-04-19T12:29:49.002Z</time></trkpt><trkpt lat="43.40416530492358" lon="10.757408989729036"><ele>208.79999999999998</ele><time>2026-04-19T12:29:50.002Z</time></trkpt><trkpt lat="43.404190448633805" lon="10.75753649895563"><ele>209.0</ele><time>2026-04-19T12:29:51.002Z</time></trkpt><trkpt lat="43.404200598966916" lon="10.75766857007163"><ele>208.0</ele><time>2026-04-19T12:29:52Z</time></trkpt><trkpt lat="43.404197612283696" lon="10.757803946292453"><ele>207.0</ele><time>2026-04-19T12:29:53Z</time></trkpt><trkpt lat="43.404179181829434" lon="10.757938430077"><ele>206.0</ele><time>2026-04-19T12:29:54Z</time></trkpt><trkpt lat="43.40414036531941" lon="10.758068281248182"><ele>205.0</ele><time>2026-04-19T12:29:55Z</time></trkpt><trkpt lat="43.404079798001234" lon="10.75818528560858"><ele>204.0</ele><time>2026-04-19T12:29:56Z</time></trkpt><trkpt lat="43.40398699511968" lon="10.758284370288857"><ele>204.0</ele><time>2026-04-19T12:29:57Z</time></trkpt><trkpt lat="43.40385707202333" lon="10.758333634023836"><ele>204.0</ele><time>2026-04-19T12:29:58Z</time></trkpt><trkpt lat="43.403716319516505" lon="10.758413734951265"><ele>204.0</ele><time>2026-04-19T12:29:59Z</time></trkpt><trkpt lat="43.40355913731269" lon="10.758520723773115"><ele>199.66666666666666</ele><time>2026-04-19T12:30:00Z</time></trkpt><trkpt lat="43.40337823946334" lon="10.758613134013249"><ele>195.33333333333331</ele><time>2026-04-19T12:30:01Z</time></trkpt><trkpt lat="43.4032002879718" lon="10.758706388946635"><ele>191.0</ele><time>2026-04-19T12:30:02Z</time></trkpt><trkpt lat="43.40301054187024" lon="10.758806211443154"><ele>190.0</ele><time>2026-04-19T12:30:03Z</time></trkpt><trkpt lat="43.4028186075171" lon="10.758908484071027"><ele>189.0</ele><time>2026-04-19T12:30:04Z</time></trkpt><trkpt lat="43.40265202382227" lon="10.758998198518636"><ele>188.0</ele><time>2026-04-19T12:30:05Z</time></trkpt><trkpt lat="43.402508973934744" lon="10.759075992255678"><ele>188.0</ele><time>2026-04-19T12:30:06Z</time></trkpt><trkpt lat="43.40238613039532" lon="10.759142801242742"><ele>188.0</ele><time>2026-04-19T12:30:07Z</time></trkpt><trkpt lat="43.40228635472348" lon="10.759207921609564"><ele>188.0</ele><time>2026-04-19T12:30:08Z</time></trkpt><trkpt lat="43.40219642032146" lon="10.759294132501344"><ele>188.0</ele><time>2026-04-19T12:30:09Z</time></trkpt><trkpt lat="43.40217153605159" lon="10.75948744282284"><ele>187.66666666666666</ele><time>2026-04-19T12:30:10Z</time></trkpt><trkpt lat="43.402167936390384" lon="10.759691525568181"><ele>187.33333333333334</ele><time>2026-04-19T12:30:11Z</time></trkpt><trkpt lat="43.4022097730301" lon="10.759913093180792"><ele>187.0</ele><time>2026-04-19T12:30:12Z</time></trkpt><trkpt lat="43.40229402590294" lon="10.760136736203163"><ele>188.0</ele><time>2026-04-19T12:30:13Z</time></trkpt><trkpt lat="43.402386969247075" lon="10.760366752019166"><ele>189.0</ele><time>2026-04-19T12:30:14Z</time></trkpt><trkpt lat="43.40247765426403" lon="10.760596266471042"><ele>190.0</ele><time>2026-04-19T12:30:15Z</time></trkpt><trkpt lat="43.40256975527835" lon="10.760830816537764"><ele>193.0</ele><time>2026-04-19T12:30:16Z</time></trkpt><trkpt lat="43.40266951554619" lon="10.761077786125995"><ele>196.0</ele><time>2026-04-19T12:30:17Z</time></trkpt><trkpt lat="43.40277291115735" lon="10.761333056826592"><ele>199.0</ele><time>2026-04-19T12:30:18Z</time></trkpt><trkpt lat="43.40288166172988" lon="10.7615942656235"><ele>199.0</ele><time>2026-04-19T12:30:19Z</time></trkpt><trkpt lat="43.40299273149154" lon="10.761863965069907"><ele>199.0</ele><time>2026-04-19T12:30:20Z</time></trkpt><trkpt lat="43.4031054503367" lon="10.76214240379586"><ele>198.5</ele><time>2026-04-19T12:30:21Z</time></trkpt><trkpt lat="43.40321913387748" lon="10.762427980301236"><ele>198.0</ele><time>2026-04-19T12:30:22Z</time></trkpt><trkpt lat="43.403330436752405" lon="10.76270190115682"><ele>201.0</ele><time>2026-04-19T12:30:23Z</time></trkpt><trkpt lat="43.40343437654988" lon="10.76295816959753"><ele>204.0</ele><time>2026-04-19T12:30:24Z</time></trkpt><trkpt lat="43.40353103672986" lon="10.76320618871574"><ele>207.0</ele><time>2026-04-19T12:30:25Z</time></trkpt><trkpt lat="43.403612751318484" lon="10.763451222007639"><ele>207.33333333333331</ele><time>2026-04-19T12:30:26Z</time></trkpt><trkpt lat="43.4036856323232" lon="10.763693873082056"><ele>207.66666666666666</ele><time>2026-04-19T12:30:27Z</time></trkpt><trkpt lat="43.40375614081122" lon="10.763925570525013"><ele>208.0</ele><time>2026-04-19T12:30:28Z</time></trkpt><trkpt lat="43.40381928674514" lon="10.764131849908729"><ele>207.25</ele><time>2026-04-19T12:30:29Z</time></trkpt><trkpt lat="43.40386446394334" lon="10.764317434796915"><ele>206.5</ele><time>2026-04-19T12:30:30Z</time></trkpt><trkpt lat="43.403886913570076" lon="10.764496254858688"><ele>205.75</ele><time>2026-04-19T12:30:31Z</time></trkpt><trkpt lat="43.40388353225713" lon="10.764672502064544"><ele>205.0</ele><time>2026-04-19T12:30:32.001Z</time></trkpt><trkpt lat="43.40385034035489" lon="10.764847494568789"><ele>204.5</ele><time>2026-04-19T12:30:33.001Z</time></trkpt><trkpt lat="43.40379738630934" lon="10.765026100680803"><ele>204.0</ele><time>2026-04-19T12:30:34.001Z</time></trkpt><trkpt lat="43.40374474403747" lon="10.76522358429191"><ele>203.5</ele><time>2026-04-19T12:30:35.001Z</time></trkpt><trkpt lat="43.40369305335225" lon="10.765422502221972"><ele>203.0</ele><time>2026-04-19T12:30:36.001Z</time></trkpt><trkpt lat="43.403640638760145" lon="10.765622185291251"><ele>200.66666666666669</ele><time>2026-04-19T12:30:37.001Z</time></trkpt><trkpt lat="43.40358757693609" lon="10.765823485302203"><ele>198.33333333333331</ele><time>2026-04-19T12:30:38.001Z</time></trkpt><trkpt lat="43.403534101024725" lon="10.766027364264861"><ele>196.0</ele><time>2026-04-19T12:30:39.001Z</time></trkpt><trkpt lat="43.40348050237245" lon="10.766233758689078"><ele>195.0</ele><time>2026-04-19T12:30:40.001Z</time></trkpt><trkpt lat="43.40342379990907" lon="10.766435953739746"><ele>194.0</ele><time>2026-04-19T12:30:41.001Z</time></trkpt><trkpt lat="43.40337192479809" lon="10.766623062939168"><ele>193.0</ele><time>2026-04-19T12:30:42.001Z</time></trkpt><trkpt lat="43.40333845052911" lon="10.766819511144046"><ele>193.33333333333331</ele><time>2026-04-19T12:30:43.001Z</time></trkpt><trkpt lat="43.40333468194695" lon="10.767021615315036"><ele>193.66666666666669</ele><time>2026-04-19T12:30:44.001Z</time></trkpt><trkpt lat="43.403364777569955" lon="10.767222686755021"><ele>194.0</ele><time>2026-04-19T12:30:45.001Z</time></trkpt><trkpt lat="43.403424714378325" lon="10.767419877909166"><ele>194.0</ele><time>2026-04-19T12:30:46.001Z</time></trkpt><trkpt lat="43.403500382130986" lon="10.767617378584758"><ele>194.0</ele><time>2026-04-19T12:30:47.001Z</time></trkpt><trkpt lat="43.4035736057332" lon="10.767819492096297"><ele>194.0</ele><time>2026-04-19T12:30:48.001Z</time></trkpt><trkpt lat="43.40364528278782" lon="10.768019272413337"><ele>193.25</ele><time>2026-04-19T12:30:49.001Z</time></trkpt><trkpt lat="43.40370696116161" lon="10.768213650035623"><ele>192.5</ele><time>2026-04-19T12:30:50.001Z</time></trkpt><trkpt lat="43.4037529831827" lon="10.76840201308404"><ele>191.75</ele><time>2026-04-19T12:30:51.001Z</time></trkpt><trkpt lat="43.403774323635936" lon="10.768581490529522"><ele>191.0</ele><time>2026-04-19T12:30:52.001Z</time></trkpt><trkpt lat="43.40376759663161" lon="10.768779541190838"><ele>189.0</ele><time>2026-04-19T12:30:53.001Z</time></trkpt><trkpt lat="43.40373854404129" lon="10.768988694728558"><ele>187.0</ele><time>2026-04-19T12:30:54.001Z</time></trkpt><trkpt lat="43.403682132371486" lon="10.769202942818083"><ele>185.0</ele><time>2026-04-19T12:30:55.001Z</time></trkpt><trkpt lat="43.40361712725898" lon="10.769430230648176"><ele>183.0</ele><time>2026-04-19T12:30:56.001Z</time></trkpt><trkpt lat="43.40356439282045" lon="10.769680456718154"><ele>181.0</ele><time>2026-04-19T12:30:57.001Z</time></trkpt><trkpt lat="43.40353132438353" lon="10.769949591360731"><ele>179.0</ele><time>2026-04-19T12:30:58.001Z</time></trkpt><trkpt lat="43.40351935984832" lon="10.770216253404847"><ele>177.33333333333331</ele><time>2026-04-19T12:30:59.001Z</time></trkpt><trkpt lat="43.40352950399171" lon="10.77048436346909"><ele>175.66666666666666</ele><time>2026-04-19T12:31:00.001Z</time></trkpt><trkpt lat="43.40354745197764" lon="10.77075224072842"><ele>174.0</ele><time>2026-04-19T12:31:01.001Z</time></trkpt><trkpt lat="43.403567271509004" lon="10.771020399064815"><ele>172.0</ele><time>2026-04-19T12:31:02.001Z</time></trkpt><trkpt lat="43.40358744103883" lon="10.771288307273052"><ele>170.0</ele><time>2026-04-19T12:31:03.001Z</time></trkpt><trkpt lat="43.403604842508095" lon="10.77155760231417"><ele>168.0</ele><time>2026-04-19T12:31:04.001Z</time></trkpt><trkpt lat="43.40362162540544" lon="10.771824525696731"><ele>166.66666666666666</ele><time>2026-04-19T12:31:05.001Z</time></trkpt><trkpt lat="43.40363964782456" lon="10.772092397452191"><ele>165.33333333333331</ele><time>2026-04-19T12:31:06.001Z</time></trkpt><trkpt lat="43.403654172427515" lon="10.772355804958812"><ele>164.0</ele><time>2026-04-19T12:31:07.001Z</time></trkpt><trkpt lat="43.403665748973694" lon="10.772592527065964"><ele>163.66666666666666</ele><time>2026-04-19T12:31:08.001Z</time></trkpt><trkpt lat="43.40367458656441" lon="10.77281077574961"><ele>163.33333333333334</ele><time>2026-04-19T12:31:09.001Z</time></trkpt><trkpt lat="43.40366641479834" lon="10.77302690672053"><ele>163.0</ele><time>2026-04-19T12:31:10.001Z</time></trkpt><trkpt lat="43.403624830848365" lon="10.773247848363539"><ele>163.0</ele><time>2026-04-19T12:31:11.001Z</time></trkpt><trkpt lat="43.40354509522513" lon="10.773468643466314"><ele>163.0</ele><time>2026-04-19T12:31:12.001Z</time></trkpt><trkpt lat="43.40344464278483" lon="10.773659592693198"><ele>163.0</ele><time>2026-04-19T12:31:13.001Z</time></trkpt><trkpt lat="43.403344478466614" lon="10.77384844109105"><ele>162.66666666666669</ele><time>2026-04-19T12:31:14.001Z</time></trkpt><trkpt lat="43.4032484986793" lon="10.774037809403021"><ele>162.33333333333334</ele><time>2026-04-19T12:31:15.001Z</time></trkpt><trkpt lat="43.403159176086376" lon="10.774215851813846"><ele>162.0</ele><time>2026-04-19T12:31:16.001Z</time></trkpt><trkpt lat="43.403080875754355" lon="10.774371293868787"><ele>161.75</ele><time>2026-04-19T12:31:17.001Z</time></trkpt><trkpt lat="43.40300762165038" lon="10.774508417972012"><ele>161.5</ele><time>2026-04-19T12:31:18.001Z</time></trkpt><trkpt lat="43.40291871675113" lon="10.774632185133822"><ele>161.25</ele><time>2026-04-19T12:31:19.001Z</time></trkpt><trkpt lat="43.40281385786358" lon="10.774729251019643"><ele>161.0</ele><time>2026-04-19T12:31:20.001Z</time></trkpt><trkpt lat="43.40270957671791" lon="10.774822822822328"><ele>161.0</ele><time>2026-04-19T12:31:21.001Z</time></trkpt><trkpt lat="43.40261356444867" lon="10.774919410299365"><ele>161.0</ele><time>2026-04-19T12:31:22.001Z</time></trkpt><trkpt lat="43.40253701989108" lon="10.775033109560304"><ele>161.0</ele><time>2026-04-19T12:31:23.001Z</time></trkpt><trkpt lat="43.40249282860667" lon="10.775169173015199"><ele>161.0</ele><time>2026-04-19T12:31:24.001Z</time></trkpt><trkpt lat="43.40247746586001" lon="10.77531460508127"><ele>161.0</ele><time>2026-04-19T12:31:25.001Z</time></trkpt><trkpt lat="43.402500088899195" lon="10.775451776661983"><ele>160.0</ele><time>2026-04-19T12:31:26.001Z</time></trkpt><trkpt lat="43.40253194941293" lon="10.775552317663957"><ele>159.0</ele><time>2026-04-19T12:31:27.001Z</time></trkpt><trkpt lat="43.402297410202145" lon="10.77564841242503"><ele>158.0</ele><time>2026-04-19T12:31:34.002Z</time></trkpt><trkpt lat="43.40237051919495" lon="10.775899588801044"><ele>158.0</ele><time>2026-04-19T12:31:35.002Z</time></trkpt><trkpt lat="43.40234337739047" lon="10.776035897279684"><ele>158.0</ele><time>2026-04-19T12:31:36.002Z</time></trkpt><trkpt lat="43.40232861662634" lon="10.77620587613994"><ele>158.0</ele><time>2026-04-19T12:31:37.002Z</time></trkpt><trkpt lat="43.40232041741619" lon="10.776372354079145"><ele>158.0</ele><time>2026-04-19T12:31:38.002Z</time></trkpt><trkpt lat="43.40230417574707" lon="10.776538469404453"><ele>158.0</ele><time>2026-04-19T12:31:39.002Z</time></trkpt><trkpt lat="43.40228516018357" lon="10.776711011528125"><ele>158.0</ele><time>2026-04-19T12:31:40.002Z</time></trkpt><trkpt lat="43.40225142802394" lon="10.776881976936096"><ele>158.0</ele><time>2026-04-19T12:31:41.002Z</time></trkpt><trkpt lat="43.402206270754114" lon="10.777042357987128"><ele>158.0</ele><time>2026-04-19T12:31:42.002Z</time></trkpt><trkpt lat="43.4021656733026" lon="10.777200931745684"><ele>159.5</ele><time>2026-04-19T12:31:43.002Z</time></trkpt><trkpt lat="43.40212366580706" lon="10.777361984897428"><ele>161.0</ele><time>2026-04-19T12:31:44.002Z</time></trkpt><trkpt lat="43.4020806114922" lon="10.777535937885611"><ele>162.5</ele><time>2026-04-19T12:31:45.002Z</time></trkpt><trkpt lat="43.40204616893237" lon="10.777710552871675"><ele>164.0</ele><time>2026-04-19T12:31:46.002Z</time></trkpt><trkpt lat="43.40202253233691" lon="10.77789921016223"><ele>164.66666666666666</ele><time>2026-04-19T12:31:47.002Z</time></trkpt><trkpt lat="43.40200941934348" lon="10.77809912267003"><ele>165.33333333333334</ele><time>2026-04-19T12:31:48.002Z</time></trkpt><trkpt lat="43.40200125532071" lon="10.778313449885783"><ele>166.0</ele><time>2026-04-19T12:31:49.002Z</time></trkpt><trkpt lat="43.40199721278657" lon="10.778541606883163"><ele>166.33333333333334</ele><time>2026-04-19T12:31:50.002Z</time></trkpt><trkpt lat="43.402004394915416" lon="10.77876457527951"><ele>166.66666666666666</ele><time>2026-04-19T12:31:51.002Z</time></trkpt><trkpt lat="43.40201701013049" lon="10.778987982114328"><ele>167.0</ele><time>2026-04-19T12:31:52.002Z</time></trkpt><trkpt lat="43.4020282546385" lon="10.779213220123102"><ele>166.66666666666666</ele><time>2026-04-19T12:31:53.002Z</time></trkpt><trkpt lat="43.402038716667406" lon="10.779439100348892"><ele>166.33333333333334</ele><time>2026-04-19T12:31:54.002Z</time></trkpt><trkpt lat="43.40204356206483" lon="10.779675700248381"><ele>166.0</ele><time>2026-04-19T12:31:55.002Z</time></trkpt><trkpt lat="43.40203686751983" lon="10.779918990220972"><ele>166.0</ele><time>2026-04-19T12:31:56.002Z</time></trkpt><trkpt lat="43.4020167406894" lon="10.780170515608651"><ele>166.0</ele><time>2026-04-19T12:31:57.002Z</time></trkpt><trkpt lat="43.40198573240233" lon="10.78041341482042"><ele>166.0</ele><time>2026-04-19T12:31:58.001Z</time></trkpt><trkpt lat="43.40195504450346" lon="10.780651407765488"><ele>165.66666666666669</ele><time>2026-04-19T12:31:59.001Z</time></trkpt><trkpt lat="43.401924549537846" lon="10.780887064614255"><ele>165.33333333333334</ele><time>2026-04-19T12:32:00.001Z</time></trkpt><trkpt lat="43.40189688240463" lon="10.781119743112617"><ele>165.0</ele><time>2026-04-19T12:32:01.001Z</time></trkpt><trkpt lat="43.401875370201495" lon="10.781350728176069"><ele>165.0</ele><time>2026-04-19T12:32:02.001Z</time></trkpt><trkpt lat="43.40186288860238" lon="10.781579156130691"><ele>165.0</ele><time>2026-04-19T12:32:03.001Z</time></trkpt><trkpt lat="43.401859688457776" lon="10.78179898273191"><ele>165.0</ele><time>2026-04-19T12:32:04.001Z</time></trkpt><trkpt lat="43.401867566888235" lon="10.78201376253057"><ele>164.75</ele><time>2026-04-19T12:32:05.001Z</time></trkpt><trkpt lat="43.40188186344047" lon="10.7822084053345"><ele>164.5</ele><time>2026-04-19T12:32:06.001Z</time></trkpt><trkpt lat="43.40189621634204" lon="10.782381925944732"><ele>164.25</ele><time>2026-04-19T12:32:07.001Z</time></trkpt><trkpt lat="43.40190839652174" lon="10.78253359975278"><ele>164.0</ele><time>2026-04-19T12:32:08.001Z</time></trkpt><trkpt lat="43.4019181765358" lon="10.78266143807987"><ele>163.5</ele><time>2026-04-19T12:32:09.001Z</time></trkpt><trkpt lat="43.40192543419524" lon="10.78277122857503"><ele>163.0</ele><time>2026-04-19T12:32:10.001Z</time></trkpt><trkpt lat="43.40191154691449" lon="10.782917011011296"><ele>162.5</ele><time>2026-04-19T12:32:12.001Z</time></trkpt><trkpt lat="43.40186207142576" lon="10.782977661626232"><ele>162.0</ele><time>2026-04-19T12:32:14.001Z</time></trkpt><trkpt lat="43.4019033601565" lon="10.783098019383079"><ele>161.5</ele><time>2026-04-19T12:32:16.001Z</time></trkpt><trkpt lat="43.401915672222266" lon="10.783197348133498"><ele>161.0</ele><time>2026-04-19T12:32:19.001Z</time></trkpt><trkpt lat="43.40192992235387" lon="10.783308012830897"><ele>161.0</ele><time>2026-04-19T12:38:32.001Z</time></trkpt><trkpt lat="43.40193821992418" lon="10.783406646739722"><ele>161.0</ele><time>2026-04-19T12:38:34.001Z</time></trkpt><trkpt lat="43.40198345658233" lon="10.783488717310377"><ele>161.0</ele><time>2026-04-19T12:38:43.001Z</time></trkpt><trkpt lat="43.402029726917746" lon="10.783624928793024"><ele>161.0</ele><time>2026-04-19T12:38:45.001Z</time></trkpt><trkpt lat="43.40203653008461" lon="10.783723730556764"><ele>161.0</ele><time>2026-04-19T12:38:46.001Z</time></trkpt><trkpt lat="43.402043453226604" lon="10.783831129839562"><ele>161.0</ele><time>2026-04-19T12:38:47.001Z</time></trkpt><trkpt lat="43.40205638744755" lon="10.783968752828464"><ele>160.25</ele><time>2026-04-19T12:38:48.001Z</time></trkpt><trkpt lat="43.40207323679167" lon="10.78413736820762"><ele>159.5</ele><time>2026-04-19T12:38:49.001Z</time></trkpt><trkpt lat="43.402097275087726" lon="10.784321730256908"><ele>158.75</ele><time>2026-04-19T12:38:50.001Z</time></trkpt><trkpt lat="43.40212906067628" lon="10.78449375147304"><ele>158.0</ele><time>2026-04-19T12:38:51.001Z</time></trkpt><trkpt lat="43.402168215847176" lon="10.78466960645445"><ele>160.0</ele><time>2026-04-19T12:38:52.001Z</time></trkpt><trkpt lat="43.40221790493052" lon="10.78485330747163"><ele>162.0</ele><time>2026-04-19T12:38:53.001Z</time></trkpt><trkpt lat="43.40227209362795" lon="10.785055557324824"><ele>164.0</ele><time>2026-04-19T12:38:54.001Z</time></trkpt><trkpt lat="43.40232607522747" lon="10.785263789778716"><ele>164.0</ele><time>2026-04-19T12:38:55.001Z</time></trkpt><trkpt lat="43.402376016818174" lon="10.785462047588691"><ele>164.0</ele><time>2026-04-19T12:38:56.001Z</time></trkpt><trkpt lat="43.40242197601984" lon="10.785649900388645"><ele>164.0</ele><time>2026-04-19T12:38:57.001Z</time></trkpt><trkpt lat="43.402464726561185" lon="10.785835508647976"><ele>164.0</ele><time>2026-04-19T12:38:58.001Z</time></trkpt><trkpt lat="43.40251022845275" lon="10.786024533666163"><ele>164.5</ele><time>2026-04-19T12:38:59.001Z</time></trkpt><trkpt lat="43.40255865511264" lon="10.786213609842829"><ele>165.0</ele><time>2026-04-19T12:39:00.001Z</time></trkpt><trkpt lat="43.40260863554816" lon="10.786403228923033"><ele>165.5</ele><time>2026-04-19T12:39:01.001Z</time></trkpt><trkpt lat="43.4026590638655" lon="10.786591670479512"><ele>166.0</ele><time>2026-04-19T12:39:02.001Z</time></trkpt><trkpt lat="43.402708141502345" lon="10.786783848139097"><ele>166.5</ele><time>2026-04-19T12:39:03.001Z</time></trkpt><trkpt lat="43.40275442473353" lon="10.786967056216257"><ele>167.0</ele><time>2026-04-19T12:39:04.001Z</time></trkpt><trkpt lat="43.40279776684674" lon="10.787143780400084"><ele>167.5</ele><time>2026-04-19T12:39:05.001Z</time></trkpt><trkpt lat="43.402835890846085" lon="10.787313051182972"><ele>168.0</ele><time>2026-04-19T12:39:06.001Z</time></trkpt><trkpt lat="43.40285961633145" lon="10.787470696076118"><ele>168.0</ele><time>2026-04-19T12:39:07.001Z</time></trkpt><trkpt lat="43.402876258273764" lon="10.787600072806146"><ele>168.0</ele><time>2026-04-19T12:39:08.001Z</time></trkpt><trkpt lat="43.40288472864623" lon="10.787701784376223"><ele>168.0</ele><time>2026-04-19T12:39:09.001Z</time></trkpt><trkpt lat="43.40289421216546" lon="10.787849906641451"><ele>168.0</ele><time>2026-04-19T12:39:11.001Z</time></trkpt><trkpt lat="43.40300828022342" lon="10.78792803379883"><ele>168.0</ele><time>2026-04-19T12:39:13.001Z</time></trkpt><trkpt lat="43.40307277456084" lon="10.787987209663404"><ele>169.66666666666666</ele><time>2026-04-19T12:39:14.001Z</time></trkpt><trkpt lat="43.403147994536674" lon="10.788037824965675"><ele>171.33333333333334</ele><time>2026-04-19T12:39:15.001Z</time></trkpt><trkpt lat="43.403217530659" lon="10.788112810107906"><ele>173.0</ele><time>2026-04-19T12:39:16.001Z</time></trkpt><trkpt lat="43.403276164744746" lon="10.78819842830952"><ele>174.66666666666669</ele><time>2026-04-19T12:39:17.001Z</time></trkpt><trkpt lat="43.403330833499965" lon="10.788297026448387"><ele>176.33333333333334</ele><time>2026-04-19T12:39:18.001Z</time></trkpt><trkpt lat="43.40338475833094" lon="10.788405231483987"><ele>178.0</ele><time>2026-04-19T12:39:19.001Z</time></trkpt><trkpt lat="43.4034411840043" lon="10.788525865186783"><ele>179.75</ele><time>2026-04-19T12:39:20.001Z</time></trkpt><trkpt lat="43.403503484545254" lon="10.788655839693138"><ele>181.5</ele><time>2026-04-19T12:39:21.001Z</time></trkpt><trkpt lat="43.40356638259772" lon="10.78879161668421"><ele>183.25</ele><time>2026-04-19T12:39:22.001Z</time></trkpt><trkpt lat="43.403634247668414" lon="10.788931802524052"><ele>185.0</ele><time>2026-04-19T12:39:23.001Z</time></trkpt><trkpt lat="43.40370318566294" lon="10.789075978743258"><ele>185.0</ele><time>2026-04-19T12:39:24.001Z</time></trkpt><trkpt lat="43.40377194125071" lon="10.789225998877699"><ele>185.0</ele><time>2026-04-19T12:39:25.001Z</time></trkpt><trkpt lat="43.40383507526252" lon="10.789381188954623"><ele>185.0</ele><time>2026-04-19T12:39:26.001Z</time></trkpt><trkpt lat="43.40388958012073" lon="10.789535553342558"><ele>185.0</ele><time>2026-04-19T12:39:27.001Z</time></trkpt><trkpt lat="43.403935549353236" lon="10.789699182057234"><ele>185.0</ele><time>2026-04-19T12:39:28.001Z</time></trkpt><trkpt lat="43.403973492731254" lon="10.789858606622039"><ele>185.0</ele><time>2026-04-19T12:39:29.001Z</time></trkpt><trkpt lat="43.40401673688565" lon="10.790005171519127"><ele>185.0</ele><time>2026-04-19T12:39:30.001Z</time></trkpt><trkpt lat="43.404067552488776" lon="10.790143249496603"><ele>185.0</ele><time>2026-04-19T12:39:31.001Z</time></trkpt><trkpt lat="43.40413012704658" lon="10.790276243411995"><ele>186.25</ele><time>2026-04-19T12:39:32.001Z</time></trkpt><trkpt lat="43.40420574674328" lon="10.790397481982067"><ele>187.5</ele><time>2026-04-19T12:39:33.001Z</time></trkpt><trkpt lat="43.4042941802706" lon="10.790513796574324"><ele>188.75</ele><time>2026-04-19T12:39:34.001Z</time></trkpt><trkpt lat="43.404391098302206" lon="10.790632633148876"><ele>190.0</ele><time>2026-04-19T12:39:35.001Z</time></trkpt><trkpt lat="43.404493392005065" lon="10.79075707389934"><ele>190.0</ele><time>2026-04-19T12:39:36.001Z</time></trkpt><trkpt lat="43.40459450709472" lon="10.790874077653246"><ele>190.0</ele><time>2026-04-19T12:39:37.001Z</time></trkpt><trkpt lat="43.40470142318274" lon="10.790995328296612"><ele>190.0</ele><time>2026-04-19T12:39:38.001Z</time></trkpt><trkpt lat="43.40480348100201" lon="10.791129220797819"><ele>190.0</ele><time>2026-04-19T12:39:39.001Z</time></trkpt><trkpt lat="43.404898062307815" lon="10.791285164245693"><ele>191.5</ele><time>2026-04-19T12:39:40.001Z</time></trkpt><trkpt lat="43.404986087507034" lon="10.791458590657987"><ele>193.0</ele><time>2026-04-19T12:39:41.001Z</time></trkpt><trkpt lat="43.40508626000757" lon="10.791607439762789"><ele>194.5</ele><time>2026-04-19T12:39:42.001Z</time></trkpt><trkpt lat="43.40519131633861" lon="10.791731006516187"><ele>196.0</ele><time>2026-04-19T12:39:43.001Z</time></trkpt><trkpt lat="43.40528989170351" lon="10.791846180245349"><ele>197.75</ele><time>2026-04-19T12:39:44.001Z</time></trkpt><trkpt lat="43.405364754995524" lon="10.791979503441928"><ele>199.5</ele><time>2026-04-19T12:39:45.001Z</time></trkpt><trkpt lat="43.405414068911945" lon="10.792133486514146"><ele>201.25</ele><time>2026-04-19T12:39:46.001Z</time></trkpt><trkpt lat="43.40542177814315" lon="10.792296599462139"><ele>203.0</ele><time>2026-04-19T12:39:47.001Z</time></trkpt><trkpt lat="43.40539977448905" lon="10.792459428684385"><ele>203.0</ele><time>2026-04-19T12:39:48.001Z</time></trkpt><trkpt lat="43.405394565377655" lon="10.79261440919956"><ele>203.0</ele><time>2026-04-19T12:39:49.001Z</time></trkpt><trkpt lat="43.40541892525454" lon="10.792753609339563"><ele>203.0</ele><time>2026-04-19T12:39:50.001Z</time></trkpt><trkpt lat="43.405468108076875" lon="10.792879328037774"><ele>203.0</ele><time>2026-04-19T12:39:51.001Z</time></trkpt><trkpt lat="43.40552325998783" lon="10.793007828857995"><ele>203.0</ele><time>2026-04-19T12:39:52.001Z</time></trkpt><trkpt lat="43.40557824451209" lon="10.79314508119289"><ele>202.25</ele><time>2026-04-19T12:39:53.001Z</time></trkpt><trkpt lat="43.40564918630028" lon="10.793268725661582"><ele>201.5</ele><time>2026-04-19T12:39:54.001Z</time></trkpt><trkpt lat="43.405745605950685" lon="10.793359484280654"><ele>200.75</ele><time>2026-04-19T12:39:55.001Z</time></trkpt><trkpt lat="43.40586376465298" lon="10.79341252667454"><ele>200.0</ele><time>2026-04-19T12:39:56.001Z</time></trkpt><trkpt lat="43.40599450226862" lon="10.793423737861518"><ele>200.0</ele><time>2026-04-19T12:39:57.001Z</time></trkpt><trkpt lat="43.406129374967676" lon="10.793417863945272"><ele>200.0</ele><time>2026-04-19T12:39:58.001Z</time></trkpt><trkpt lat="43.406267250860616" lon="10.793420468775517"><ele>200.0</ele><time>2026-04-19T12:39:59.001Z</time></trkpt><trkpt lat="43.40640583477671" lon="10.793445306774018"><ele>200.0</ele><time>2026-04-19T12:40:00.001Z</time></trkpt><trkpt lat="43.406538993394875" lon="10.793452535160318"><ele>201.0</ele><time>2026-04-19T12:40:01.001Z</time></trkpt><trkpt lat="43.40667737250382" lon="10.793465720892632"><ele>202.0</ele><time>2026-04-19T12:40:02.001Z</time></trkpt><trkpt lat="43.40681235637443" lon="10.793542528445707"><ele>203.0</ele><time>2026-04-19T12:40:03.001Z</time></trkpt><trkpt lat="43.4069396261412" lon="10.79365770400711"><ele>204.0</ele><time>2026-04-19T12:40:04.001Z</time></trkpt><trkpt lat="43.407059028685524" lon="10.793807828157854"><ele>205.66666666666669</ele><time>2026-04-19T12:40:05.001Z</time></trkpt><trkpt lat="43.40717434586987" lon="10.793969659368635"><ele>207.33333333333334</ele><time>2026-04-19T12:40:06.001Z</time></trkpt><trkpt lat="43.40726763713543" lon="10.794140670161655"><ele>209.0</ele><time>2026-04-19T12:40:07.001Z</time></trkpt><trkpt lat="43.4073370451334" lon="10.794324101975006"><ele>207.25</ele><time>2026-04-19T12:40:08.001Z</time></trkpt><trkpt lat="43.407392084204965" lon="10.79451165557091"><ele>205.5</ele><time>2026-04-19T12:40:09.001Z</time></trkpt><trkpt lat="43.40743440328889" lon="10.794701046656169"><ele>203.75</ele><time>2026-04-19T12:40:10.001Z</time></trkpt><trkpt lat="43.40747212483832" lon="10.794891876760254"><ele>202.0</ele><time>2026-04-19T12:40:11.001Z</time></trkpt><trkpt lat="43.40751254182111" lon="10.795084415192632"><ele>201.0</ele><time>2026-04-19T12:40:12.001Z</time></trkpt><trkpt lat="43.40755515172566" lon="10.795272859576313"><ele>200.0</ele><time>2026-04-19T12:40:13.001Z</time></trkpt><trkpt lat="43.40759600545869" lon="10.79545735676804"><ele>199.0</ele><time>2026-04-19T12:40:14.001Z</time></trkpt><trkpt lat="43.40763283902576" lon="10.795636592641992"><ele>198.0</ele><time>2026-04-19T12:40:15.001Z</time></trkpt><trkpt lat="43.40766587489505" lon="10.795790347343816"><ele>198.0</ele><time>2026-04-19T12:40:16.001Z</time></trkpt><trkpt lat="43.40771295974938" lon="10.79591106992891"><ele>198.0</ele><time>2026-04-19T12:40:17.001Z</time></trkpt><trkpt lat="43.40778868688471" lon="10.795990447023897"><ele>198.0</ele><time>2026-04-19T12:40:18.001Z</time></trkpt><trkpt lat="43.40788942300489" lon="10.79602676448868"><ele>198.0</ele><time>2026-04-19T12:40:19.001Z</time></trkpt><trkpt lat="43.40800222149052" lon="10.796014069223848"><ele>198.0</ele><time>2026-04-19T12:40:20.001Z</time></trkpt><trkpt lat="43.40811386425495" lon="10.795987096611833"><ele>198.66666666666666</ele><time>2026-04-19T12:40:20.999Z</time></trkpt><trkpt lat="43.40821399782843" lon="10.79596380490366"><ele>199.33333333333331</ele><time>2026-04-19T12:40:21.999Z</time></trkpt><trkpt lat="43.408288985803914" lon="10.79589876340577"><ele>200.0</ele><time>2026-04-19T12:40:22.999Z</time></trkpt><trkpt lat="43.40835559592218" lon="10.79587446507773"><ele>200.66666666666666</ele><time>2026-04-19T12:40:23.999Z</time></trkpt><trkpt lat="43.40844093746548" lon="10.79590215868484"><ele>201.33333333333331</ele><time>2026-04-19T12:40:25.999Z</time></trkpt><trkpt lat="43.4085131912123" lon="10.79595482185329"><ele>202.0</ele><time>2026-04-19T12:40:27.999Z</time></trkpt><trkpt lat="43.40860496191817" lon="10.795860437014762"><ele>202.0</ele><time>2026-04-19T12:40:29.999Z</time></trkpt><trkpt lat="43.4086853146855" lon="10.795747667421768"><ele>202.0</ele><time>2026-04-19T12:40:31.999Z</time></trkpt><trkpt lat="43.40865868228036" lon="10.7955168140965"><ele>202.0</ele><time>2026-04-19T12:40:33.999Z</time></trkpt><trkpt lat="43.40864888187026" lon="10.795404153397843"><ele>202.0</ele><time>2026-04-19T12:40:34.999Z</time></trkpt><trkpt lat="43.40862651917245" lon="10.79527253818011"><ele>203.0</ele><time>2026-04-19T12:40:35.999Z</time></trkpt><trkpt lat="43.408604187730305" lon="10.795115659515625"><ele>204.0</ele><time>2026-04-19T12:40:36.999Z</time></trkpt><trkpt lat="43.40857810654899" lon="10.794962034764579"><ele>205.0</ele><time>2026-04-19T12:40:37.999Z</time></trkpt><trkpt lat="43.40856768351273" lon="10.794794467082554"><ele>206.0</ele><time>2026-04-19T12:40:38.999Z</time></trkpt><trkpt lat="43.40854350683208" lon="10.79464373233417"><ele>206.0</ele><time>2026-04-19T12:40:39.999Z</time></trkpt><trkpt lat="43.40852111544002" lon="10.79448767551016"><ele>206.0</ele><time>2026-04-19T12:40:40.999Z</time></trkpt><trkpt lat="43.408508071447514" lon="10.794319082577356"><ele>206.0</ele><time>2026-04-19T12:40:41.999Z</time></trkpt><trkpt lat="43.40851748050057" lon="10.794129716236217"><ele>206.0</ele><time>2026-04-19T12:40:42.999Z</time></trkpt><trkpt lat="43.40852368574896" lon="10.793938174780665"><ele>206.8</ele><time>2026-04-19T12:40:43.999Z</time></trkpt><trkpt lat="43.40852921412394" lon="10.79376752679212"><ele>207.60000000000002</ele><time>2026-04-19T12:40:44.999Z</time></trkpt><trkpt lat="43.40852840638642" lon="10.793613043742338"><ele>208.4</ele><time>2026-04-19T12:40:45.999Z</time></trkpt><trkpt lat="43.40851602275772" lon="10.793473822014814"><ele>209.2</ele><time>2026-04-19T12:40:46.999Z</time></trkpt><trkpt lat="43.40847344459376" lon="10.793369976395448"><ele>210.0</ele><time>2026-04-19T12:40:47.999Z</time></trkpt><trkpt lat="43.408430430412565" lon="10.793286122110159"><ele>210.0</ele><time>2026-04-19T12:40:48.999Z</time></trkpt><trkpt lat="43.40840082930557" lon="10.793193263618644"><ele>210.0</ele><time>2026-04-19T12:40:49.999Z</time></trkpt><trkpt lat="43.40835182407794" lon="10.793105588208963"><ele>210.0</ele><time>2026-04-19T12:40:50.999Z</time></trkpt><trkpt lat="43.40830052520878" lon="10.793016994621917"><ele>210.0</ele><time>2026-04-19T12:40:51.999Z</time></trkpt><trkpt lat="43.40825229169586" lon="10.792919448830435"><ele>210.0</ele><time>2026-04-19T12:40:52.999Z</time></trkpt><trkpt lat="43.40821160822727" lon="10.792799064604573"><ele>210.0</ele><time>2026-04-19T12:40:53.999Z</time></trkpt><trkpt lat="43.40820109049215" lon="10.792659374246753"><ele>210.0</ele><time>2026-04-19T12:40:54.999Z</time></trkpt><trkpt lat="43.40820301990234" lon="10.792504363726165"><ele>210.0</ele><time>2026-04-19T12:40:55.999Z</time></trkpt><trkpt lat="43.4081896653464" lon="10.792339268169194"><ele>210.0</ele><time>2026-04-19T12:40:56.999Z</time></trkpt><trkpt lat="43.408214512126854" lon="10.792182197983355"><ele>210.0</ele><time>2026-04-19T12:40:57.999Z</time></trkpt><trkpt lat="43.40823453903968" lon="10.792053756748283"><ele>210.0</ele><time>2026-04-19T12:40:58.999Z</time></trkpt><trkpt lat="43.40827213727566" lon="10.791931993981374"><ele>210.6</ele><time>2026-04-19T12:40:59.999Z</time></trkpt><trkpt lat="43.408334924180274" lon="10.79183062826409"><ele>211.2</ele><time>2026-04-19T12:41:00.999Z</time></trkpt><trkpt lat="43.408420175962775" lon="10.791710182607558"><ele>211.8</ele><time>2026-04-19T12:41:01.999Z</time></trkpt><trkpt lat="43.40848017783909" lon="10.791583161480254"><ele>212.4</ele><time>2026-04-19T12:41:02.999Z</time></trkpt><trkpt lat="43.40854137857436" lon="10.791497077787316"><ele>213.0</ele><time>2026-04-19T12:41:03.999Z</time></trkpt><trkpt lat="43.40860020828628" lon="10.791415545854761"><ele>213.0</ele><time>2026-04-19T12:41:04.999Z</time></trkpt><trkpt lat="43.40864011625171" lon="10.791298743458444"><ele>213.0</ele><time>2026-04-19T12:41:05.999Z</time></trkpt><trkpt lat="43.40870311058788" lon="10.791189155256161"><ele>213.0</ele><time>2026-04-19T12:41:06.999Z</time></trkpt><trkpt lat="43.40874647190244" lon="10.791045766449816"><ele>213.0</ele><time>2026-04-19T12:41:07.999Z</time></trkpt><trkpt lat="43.408784995029805" lon="10.79088327645011"><ele>213.0</ele><time>2026-04-19T12:41:08.999Z</time></trkpt><trkpt lat="43.408805321582605" lon="10.790718757558007"><ele>212.0</ele><time>2026-04-19T12:41:09.999Z</time></trkpt><trkpt lat="43.40883849363205" lon="10.79057213599083"><ele>211.0</ele><time>2026-04-19T12:41:10.999Z</time></trkpt><trkpt lat="43.40888907096355" lon="10.79044216173532"><ele>210.0</ele><time>2026-04-19T12:41:11.999Z</time></trkpt><trkpt lat="43.40893326672429" lon="10.790311348725806"><ele>209.0</ele><time>2026-04-19T12:41:12.999Z</time></trkpt><trkpt lat="43.408974483626196" lon="10.790174939186269"><ele>208.0</ele><time>2026-04-19T12:41:13.999Z</time></trkpt><trkpt lat="43.409015869649224" lon="10.79003320663563"><ele>208.0</ele><time>2026-04-19T12:41:14.999Z</time></trkpt><trkpt lat="43.409055949076595" lon="10.789891311682448"><ele>208.0</ele><time>2026-04-19T12:41:15.999Z</time></trkpt><trkpt lat="43.4090892643116" lon="10.789751455022614"><ele>208.0</ele><time>2026-04-19T12:41:16.999Z</time></trkpt><trkpt lat="43.40911951377028" lon="10.789635159082302"><ele>208.0</ele><time>2026-04-19T12:41:17.999Z</time></trkpt><trkpt lat="43.409157536010625" lon="10.789544174700941"><ele>208.0</ele><time>2026-04-19T12:41:18.999Z</time></trkpt><trkpt lat="43.40921884632738" lon="10.789476317605548"><ele>208.0</ele><time>2026-04-19T12:41:19.999Z</time></trkpt><trkpt lat="43.40928613885549" lon="10.789408920009302"><ele>208.0</ele><time>2026-04-19T12:41:21Z</time></trkpt><trkpt lat="43.40937854327303" lon="10.78937554696355"><ele>208.0</ele><time>2026-04-19T12:41:22Z</time></trkpt><trkpt lat="43.409471070872065" lon="10.789310440811311"><ele>208.0</ele><time>2026-04-19T12:41:23Z</time></trkpt><trkpt lat="43.40956762040257" lon="10.789237898025721"><ele>208.0</ele><time>2026-04-19T12:41:24Z</time></trkpt><trkpt lat="43.40966349335591" lon="10.789176254652741"><ele>208.4</ele><time>2026-04-19T12:41:25Z</time></trkpt><trkpt lat="43.40975911157897" lon="10.789155013590241"><ele>208.8</ele><time>2026-04-19T12:41:26Z</time></trkpt><trkpt lat="43.409849347845544" lon="10.789195227172643"><ele>209.2</ele><time>2026-04-19T12:41:27Z</time></trkpt><trkpt lat="43.4099302078034" lon="10.789271717332271"><ele>209.6</ele><time>2026-04-19T12:41:28Z</time></trkpt><trkpt lat="43.410030173816395" lon="10.789332256682506"><ele>210.0</ele><time>2026-04-19T12:41:29Z</time></trkpt><trkpt lat="43.41012772013373" lon="10.789422623753127"><ele>210.25</ele><time>2026-04-19T12:41:30Z</time></trkpt><trkpt lat="43.41021592981947" lon="10.789506098143544"><ele>210.5</ele><time>2026-04-19T12:41:31Z</time></trkpt><trkpt lat="43.410311143986455" lon="10.789590075748587"><ele>210.75</ele><time>2026-04-19T12:41:32Z</time></trkpt><trkpt lat="43.41042000724783" lon="10.78967448613219"><ele>211.0</ele><time>2026-04-19T12:41:33Z</time></trkpt><trkpt lat="43.4105208889649" lon="10.789764317861506"><ele>211.0</ele><time>2026-04-19T12:41:34Z</time></trkpt><trkpt lat="43.41062026980833" lon="10.789851431350852"><ele>211.0</ele><time>2026-04-19T12:41:35Z</time></trkpt><trkpt lat="43.41072901872069" lon="10.78994326655933"><ele>211.0</ele><time>2026-04-19T12:41:36Z</time></trkpt><trkpt lat="43.4108350026204" lon="10.790037552757772"><ele>211.0</ele><time>2026-04-19T12:41:37Z</time></trkpt><trkpt lat="43.410930387234906" lon="10.790138483748658"><ele>209.4</ele><time>2026-04-19T12:41:38Z</time></trkpt><trkpt lat="43.41103008862422" lon="10.79023623413894"><ele>207.8</ele><time>2026-04-19T12:41:39Z</time></trkpt><trkpt lat="43.41114143675144" lon="10.790314113413627"><ele>206.20000000000002</ele><time>2026-04-19T12:41:40Z</time></trkpt><trkpt lat="43.411243751511805" lon="10.790368669593452"><ele>204.60000000000002</ele><time>2026-04-19T12:41:41Z</time></trkpt><trkpt lat="43.41132861959915" lon="10.790411902852364"><ele>203.0</ele><time>2026-04-19T12:41:42Z</time></trkpt><trkpt lat="43.411396309890826" lon="10.790430545933638"><ele>203.00000000000003</ele><time>2026-04-19T12:41:43Z</time></trkpt><trkpt lat="43.411470712850324" lon="10.790410307159464"><ele>203.0</ele><time>2026-04-19T12:41:44Z</time></trkpt><trkpt lat="43.41154516186467" lon="10.790350406780053"><ele>203.0</ele><time>2026-04-19T12:41:45Z</time></trkpt><trkpt lat="43.41163298204645" lon="10.790297549075225"><ele>203.0</ele><time>2026-04-19T12:41:46Z</time></trkpt><trkpt lat="43.411718610547155" lon="10.790233388439237"><ele>203.00000000000003</ele><time>2026-04-19T12:41:47Z</time></trkpt><trkpt lat="43.41178687333211" lon="10.790146795632952"><ele>203.0</ele><time>2026-04-19T12:41:48Z</time></trkpt><trkpt lat="43.41184739954663" lon="10.790071410511917"><ele>204.2</ele><time>2026-04-19T12:41:49Z</time></trkpt><trkpt lat="43.41189192026303" lon="10.789960321050517"><ele>205.4</ele><time>2026-04-19T12:41:50Z</time></trkpt><trkpt lat="43.411915501366224" lon="10.789819109204192"><ele>206.6</ele><time>2026-04-19T12:41:51Z</time></trkpt><trkpt lat="43.41196346405436" lon="10.789672322443545"><ele>207.79999999999998</ele><time>2026-04-19T12:41:52Z</time></trkpt><trkpt lat="43.41198764936152" lon="10.789523923248582"><ele>209.0</ele><time>2026-04-19T12:41:53Z</time></trkpt><trkpt lat="43.41200310056167" lon="10.789375721671458"><ele>209.79999999999998</ele><time>2026-04-19T12:41:54Z</time></trkpt><trkpt lat="43.412013715390195" lon="10.789219269421954"><ele>210.6</ele><time>2026-04-19T12:41:55Z</time></trkpt><trkpt lat="43.41202370426559" lon="10.789055340930426"><ele>211.4</ele><time>2026-04-19T12:41:56Z</time></trkpt><trkpt lat="43.41203117195144" lon="10.788907112481443"><ele>212.2</ele><time>2026-04-19T12:41:57Z</time></trkpt><trkpt lat="43.41203785682638" lon="10.788774422317916"><ele>213.0</ele><time>2026-04-19T12:41:58Z</time></trkpt><trkpt lat="43.41204631526224" lon="10.788649388462533"><ele>213.0</ele><time>2026-04-19T12:41:59Z</time></trkpt><trkpt lat="43.412051551022095" lon="10.788527994838422"><ele>213.0</ele><time>2026-04-19T12:42:00Z</time></trkpt><trkpt lat="43.41205685366963" lon="10.78842794208069"><ele>213.0</ele><time>2026-04-19T12:42:01Z</time></trkpt><trkpt lat="43.41207749327829" lon="10.78833359331265"><ele>213.0</ele><time>2026-04-19T12:42:02Z</time></trkpt><trkpt lat="43.41211304386703" lon="10.788242719292144"><ele>213.0</ele><time>2026-04-19T12:42:03Z</time></trkpt><trkpt lat="43.4121598797892" lon="10.788139000513315"><ele>213.0</ele><time>2026-04-19T12:42:04Z</time></trkpt><trkpt lat="43.412218594815144" lon="10.788028276481118"><ele>209.0</ele><time>2026-04-19T12:42:05Z</time></trkpt><trkpt lat="43.41227759260679" lon="10.787930561350926"><ele>205.0</ele><time>2026-04-19T12:42:06Z</time></trkpt><trkpt lat="43.412321615618445" lon="10.787815136337988"><ele>201.0</ele><time>2026-04-19T12:42:07Z</time></trkpt><trkpt lat="43.41236927951543" lon="10.787706717109428"><ele>197.0</ele><time>2026-04-19T12:42:08Z</time></trkpt><trkpt lat="43.41240596798154" lon="10.787586499626764"><ele>193.0</ele><time>2026-04-19T12:42:09Z</time></trkpt><trkpt lat="43.41237866940371" lon="10.787439439164812"><ele>192.83333333333331</ele><time>2026-04-19T12:42:10Z</time></trkpt><trkpt lat="43.41237698276384" lon="10.787306574092733"><ele>192.66666666666666</ele><time>2026-04-19T12:42:11Z</time></trkpt><trkpt lat="43.412371751814305" lon="10.787197083803575"><ele>192.5</ele><time>2026-04-19T12:42:12Z</time></trkpt><trkpt lat="43.412387356764256" lon="10.78710587270156"><ele>192.33333333333331</ele><time>2026-04-19T12:42:13Z</time></trkpt><trkpt lat="43.41242518051005" lon="10.787012786712781"><ele>192.16666666666666</ele><time>2026-04-19T12:42:14Z</time></trkpt><trkpt lat="43.41249234147804" lon="10.786941032782522"><ele>192.0</ele><time>2026-04-19T12:42:15Z</time></trkpt><trkpt lat="43.41257211478537" lon="10.786860918637819"><ele>193.25</ele><time>2026-04-19T12:42:16Z</time></trkpt><trkpt lat="43.412655214286" lon="10.786798583773034"><ele>194.5</ele><time>2026-04-19T12:42:17Z</time></trkpt><trkpt lat="43.41275040126313" lon="10.786718193194679"><ele>195.75</ele><time>2026-04-19T12:42:18Z</time></trkpt><trkpt lat="43.41286016234412" lon="10.786632497560307"><ele>197.0</ele><time>2026-04-19T12:42:19Z</time></trkpt><trkpt lat="43.41297136860321" lon="10.786555799548792"><ele>194.25</ele><time>2026-04-19T12:42:20Z</time></trkpt><trkpt lat="43.41307736529893" lon="10.786459481449032"><ele>191.5</ele><time>2026-04-19T12:42:21Z</time></trkpt><trkpt lat="43.413180221519056" lon="10.786367932817319"><ele>188.75</ele><time>2026-04-19T12:42:22Z</time></trkpt><trkpt lat="43.41327598354972" lon="10.786268266613423"><ele>186.0</ele><time>2026-04-19T12:42:23Z</time></trkpt><trkpt lat="43.413376802981546" lon="10.786229467446823"><ele>186.0</ele><time>2026-04-19T12:42:24Z</time></trkpt><trkpt lat="43.413483249270435" lon="10.786230005236542"><ele>186.0</ele><time>2026-04-19T12:42:25Z</time></trkpt><trkpt lat="43.41359533140243" lon="10.786286184697678"><ele>186.0</ele><time>2026-04-19T12:42:26Z</time></trkpt><trkpt lat="43.4137199376283" lon="10.786300200399156"><ele>186.0</ele><time>2026-04-19T12:42:26.998Z</time></trkpt><trkpt lat="43.41385501823427" lon="10.786299360145728"><ele>184.33333333333334</ele><time>2026-04-19T12:42:27.997Z</time></trkpt><trkpt lat="43.414007517209974" lon="10.786267188072948"><ele>182.66666666666669</ele><time>2026-04-19T12:42:28.997Z</time></trkpt><trkpt lat="43.41417819233254" lon="10.786227902368672"><ele>181.0</ele><time>2026-04-19T12:42:29.997Z</time></trkpt><trkpt lat="43.41435332039842" lon="10.786200193406177"><ele>181.0</ele><time>2026-04-19T12:42:30.998Z</time></trkpt><trkpt lat="43.41453127703465" lon="10.786198983047692"><ele>181.0</ele><time>2026-04-19T12:42:31.998Z</time></trkpt><trkpt lat="43.41470470906347" lon="10.786226583912416"><ele>181.0</ele><time>2026-04-19T12:42:32.998Z</time></trkpt><trkpt lat="43.414887213816904" lon="10.786260159892217"><ele>180.66666666666669</ele><time>2026-04-19T12:42:33.998Z</time></trkpt><trkpt lat="43.41508115203051" lon="10.786306577171015"><ele>180.33333333333334</ele><time>2026-04-19T12:42:34.998Z</time></trkpt><trkpt lat="43.41528752618312" lon="10.786351956252242"><ele>180.0</ele><time>2026-04-19T12:42:35.998Z</time></trkpt><trkpt lat="43.41549559459345" lon="10.786399238632729"><ele>181.66666666666666</ele><time>2026-04-19T12:42:36.998Z</time></trkpt><trkpt lat="43.41567220338968" lon="10.786444523781245"><ele>183.33333333333331</ele><time>2026-04-19T12:42:37.998Z</time></trkpt><trkpt lat="43.41581985887987" lon="10.786474868898514"><ele>185.0</ele><time>2026-04-19T12:42:38.998Z</time></trkpt><trkpt lat="43.41596591994027" lon="10.786505255318936"><ele>185.0</ele><time>2026-04-19T12:42:39.998Z</time></trkpt><trkpt lat="43.41611621122213" lon="10.786543732411888"><ele>185.0</ele><time>2026-04-19T12:42:40.998Z</time></trkpt><trkpt lat="43.41627728453978" lon="10.786595086700299"><ele>185.0</ele><time>2026-04-19T12:42:41.998Z</time></trkpt><trkpt lat="43.41642500327365" lon="10.786675664210582"><ele>184.0</ele><time>2026-04-19T12:42:42.998Z</time></trkpt><trkpt lat="43.41657410022062" lon="10.786780347134615"><ele>183.0</ele><time>2026-04-19T12:42:43.998Z</time></trkpt><trkpt lat="43.41673384643023" lon="10.786899239472197"><ele>182.0</ele><time>2026-04-19T12:42:44.998Z</time></trkpt><trkpt lat="43.416896705980676" lon="10.787028306046103"><ele>182.0</ele><time>2026-04-19T12:42:45.998Z</time></trkpt><trkpt lat="43.41703264633939" lon="10.787145981448981"><ele>182.0</ele><time>2026-04-19T12:42:46.998Z</time></trkpt><trkpt lat="43.417160826596955" lon="10.787241909150753"><ele>182.0</ele><time>2026-04-19T12:42:47.998Z</time></trkpt><trkpt lat="43.417279505595744" lon="10.787330441607125"><ele>182.0</ele><time>2026-04-19T12:42:48.998Z</time></trkpt><trkpt lat="43.41739184201193" lon="10.787412448829778"><ele>184.5</ele><time>2026-04-19T12:42:49.998Z</time></trkpt><trkpt lat="43.41751062811452" lon="10.787481552988734"><ele>187.0</ele><time>2026-04-19T12:42:50.998Z</time></trkpt><trkpt lat="43.41764519633162" lon="10.787541013961507"><ele>189.5</ele><time>2026-04-19T12:42:51.999Z</time></trkpt><trkpt lat="43.417791074481784" lon="10.787598263529501"><ele>192.0</ele><time>2026-04-19T12:42:52.999Z</time></trkpt><trkpt lat="43.4179169014467" lon="10.787659717579357"><ele>192.39999999999998</ele><time>2026-04-19T12:42:53.999Z</time></trkpt><trkpt lat="43.41801618596424" lon="10.787727338607244"><ele>192.79999999999998</ele><time>2026-04-19T12:42:54.999Z</time></trkpt><trkpt lat="43.41809599391039" lon="10.787808568245676"><ele>193.2</ele><time>2026-04-19T12:42:55.999Z</time></trkpt><trkpt lat="43.418164323690945" lon="10.787914214578217"><ele>193.6</ele><time>2026-04-19T12:42:56.999Z</time></trkpt><trkpt lat="43.4182204234945" lon="10.788031752704265"><ele>194.0</ele><time>2026-04-19T12:42:57.999Z</time></trkpt><trkpt lat="43.41826785969245" lon="10.78814335847189"><ele>194.0</ele><time>2026-04-19T12:42:58.999Z</time></trkpt><trkpt lat="43.4183261147024" lon="10.788254857929008"><ele>194.0</ele><time>2026-04-19T12:42:59.999Z</time></trkpt><trkpt lat="43.41840272035932" lon="10.788367206736389"><ele>194.0</ele><time>2026-04-19T12:43:00.999Z</time></trkpt><trkpt lat="43.41849206146924" lon="10.788466379556485"><ele>194.0</ele><time>2026-04-19T12:43:01.999Z</time></trkpt><trkpt lat="43.41859168995341" lon="10.788538613481785"><ele>194.0</ele><time>2026-04-19T12:43:02.999Z</time></trkpt><trkpt lat="43.41870767275033" lon="10.788591635611311"><ele>193.0</ele><time>2026-04-19T12:43:03.999Z</time></trkpt><trkpt lat="43.4188346252983" lon="10.78862652778656"><ele>192.0</ele><time>2026-04-19T12:43:04.999Z</time></trkpt><trkpt lat="43.418961224407916" lon="10.788651282442222"><ele>191.0</ele><time>2026-04-19T12:43:05.999Z</time></trkpt><trkpt lat="43.41908476379312" lon="10.788682503328356"><ele>190.0</ele><time>2026-04-19T12:43:06.999Z</time></trkpt><trkpt lat="43.41920150071763" lon="10.788733961821675"><ele>190.0</ele><time>2026-04-19T12:43:07.999Z</time></trkpt><trkpt lat="43.41931883362402" lon="10.78879924104959"><ele>190.0</ele><time>2026-04-19T12:43:08.999Z</time></trkpt><trkpt lat="43.41943291371787" lon="10.788888170289027"><ele>190.0</ele><time>2026-04-19T12:43:09.999Z</time></trkpt><trkpt lat="43.419552955983065" lon="10.788997638529292"><ele>190.0</ele><time>2026-04-19T12:43:10.999Z</time></trkpt><trkpt lat="43.419680997833" lon="10.789106836929138"><ele>191.0</ele><time>2026-04-19T12:43:11.999Z</time></trkpt><trkpt lat="43.41980116208196" lon="10.7892107060811"><ele>192.0</ele><time>2026-04-19T12:43:12.999Z</time></trkpt><trkpt lat="43.419927652746566" lon="10.789319473287497"><ele>193.0</ele><time>2026-04-19T12:43:13.999Z</time></trkpt><trkpt lat="43.42006155964778" lon="10.789435890064292"><ele>194.0</ele><time>2026-04-19T12:43:14.999Z</time></trkpt><trkpt lat="43.42019282792135" lon="10.78954502966109"><ele>194.0</ele><time>2026-04-19T12:43:15.999Z</time></trkpt><trkpt lat="43.420325947295304" lon="10.789659253348333"><ele>194.0</ele><time>2026-04-19T12:43:16.999Z</time></trkpt><trkpt lat="43.42044571613694" lon="10.789772432829885"><ele>194.0</ele><time>2026-04-19T12:43:17.999Z</time></trkpt><trkpt lat="43.420566722771426" lon="10.789872863379971"><ele>194.0</ele><time>2026-04-19T12:43:18.999Z</time></trkpt><trkpt lat="43.42068327109464" lon="10.789962661097393"><ele>195.25</ele><time>2026-04-19T12:43:19.999Z</time></trkpt><trkpt lat="43.42079096119017" lon="10.790041750715494"><ele>196.5</ele><time>2026-04-19T12:43:20.999Z</time></trkpt><trkpt lat="43.420898169622404" lon="10.790118660614183"><ele>197.75</ele><time>2026-04-19T12:43:21.999Z</time></trkpt><trkpt lat="43.42100815316416" lon="10.79019846398358"><ele>199.0</ele><time>2026-04-19T12:43:22.999Z</time></trkpt><trkpt lat="43.42112221990926" lon="10.790278731244792"><ele>200.0</ele><time>2026-04-19T12:43:23.999Z</time></trkpt><trkpt lat="43.42123936179808" lon="10.79036261724088"><ele>201.0</ele><time>2026-04-19T12:43:24.999Z</time></trkpt><trkpt lat="43.42135997077241" lon="10.79044905202802"><ele>202.0</ele><time>2026-04-19T12:43:25.999Z</time></trkpt><trkpt lat="43.421482677369525" lon="10.790539379829994"><ele>203.0</ele><time>2026-04-19T12:43:26.999Z</time></trkpt><trkpt lat="43.42160434977422" lon="10.7906334875419"><ele>203.0</ele><time>2026-04-19T12:43:27.999Z</time></trkpt><trkpt lat="43.421727072651784" lon="10.790727320115009"><ele>203.0</ele><time>2026-04-19T12:43:28.999Z</time></trkpt><trkpt lat="43.42184171939952" lon="10.790810750295284"><ele>203.0</ele><time>2026-04-19T12:43:29.999Z</time></trkpt><trkpt lat="43.4219461209019" lon="10.79088427528268"><ele>203.0</ele><time>2026-04-19T12:43:30.999Z</time></trkpt><trkpt lat="43.4220546704778" lon="10.790938678902636"><ele>201.60000000000002</ele><time>2026-04-19T12:43:31.999Z</time></trkpt><trkpt lat="43.422160046213904" lon="10.790990433323158"><ele>200.20000000000002</ele><time>2026-04-19T12:43:32.999Z</time></trkpt><trkpt lat="43.42224548365177" lon="10.791042419428303"><ele>198.8</ele><time>2026-04-19T12:43:33.999Z</time></trkpt><trkpt lat="43.42233222288211" lon="10.79110771926636"><ele>197.4</ele><time>2026-04-19T12:43:34.999Z</time></trkpt><trkpt lat="43.42240332686441" lon="10.791182241015703"><ele>196.0</ele><time>2026-04-19T12:43:35.999Z</time></trkpt><trkpt lat="43.42248335343337" lon="10.791272191221761"><ele>195.66666666666666</ele><time>2026-04-19T12:43:37.999Z</time></trkpt><trkpt lat="43.422576150446325" lon="10.79135538494906"><ele>195.33333333333331</ele><time>2026-04-19T12:43:40Z</time></trkpt><trkpt lat="43.42263824394309" lon="10.791400615968088"><ele>195.0</ele><time>2026-04-19T12:43:41Z</time></trkpt><trkpt lat="43.42270022066329" lon="10.791442798284168"><ele>194.66666666666669</ele><time>2026-04-19T12:43:42Z</time></trkpt><trkpt lat="43.422767779048456" lon="10.791480470271267"><ele>194.33333333333334</ele><time>2026-04-19T12:43:43Z</time></trkpt><trkpt lat="43.422828832185175" lon="10.79151571556069"><ele>194.0</ele><time>2026-04-19T12:43:44Z</time></trkpt><trkpt lat="43.422939877265776" lon="10.791582718895588"><ele>194.16666666666669</ele><time>2026-04-19T12:43:46Z</time></trkpt><trkpt lat="43.423041406852306" lon="10.79164376392375"><ele>194.33333333333334</ele><time>2026-04-19T12:43:48Z</time></trkpt><trkpt lat="43.42310478845472" lon="10.791662807350798"><ele>194.5</ele><time>2026-04-19T12:43:49Z</time></trkpt><trkpt lat="43.42317938598477" lon="10.791676444129115"><ele>194.66666666666669</ele><time>2026-04-19T12:43:50Z</time></trkpt><trkpt lat="43.423265764583945" lon="10.791692271519477"><ele>194.83333333333334</ele><time>2026-04-19T12:43:51Z</time></trkpt><trkpt lat="43.42334916364291" lon="10.791730504880654"><ele>195.0</ele><time>2026-04-19T12:43:52Z</time></trkpt><trkpt lat="43.42341242226653" lon="10.791777504836393"><ele>192.66666666666666</ele><time>2026-04-19T12:43:53Z</time></trkpt><trkpt lat="43.423505215158876" lon="10.791861310896397"><ele>190.33333333333334</ele><time>2026-04-19T12:43:55Z</time></trkpt><trkpt lat="43.423598112543516" lon="10.79197828748586"><ele>188.0</ele><time>2026-04-19T12:43:57Z</time></trkpt><trkpt lat="43.42364533654815" lon="10.792041145020058"><ele>185.66666666666669</ele><time>2026-04-19T12:43:58Z</time></trkpt><trkpt lat="43.42369245604181" lon="10.792099328920395"><ele>183.33333333333334</ele><time>2026-04-19T12:43:59Z</time></trkpt><trkpt lat="43.423745580309614" lon="10.7921471513061"><ele>181.0</ele><time>2026-04-19T12:44:00Z</time></trkpt><trkpt lat="43.423805500178894" lon="10.792190926818991"><ele>183.33333333333334</ele><time>2026-04-19T12:44:01Z</time></trkpt><trkpt lat="43.42386908441419" lon="10.792228895482143"><ele>185.66666666666669</ele><time>2026-04-19T12:44:02Z</time></trkpt><trkpt lat="43.423934205805715" lon="10.792262577995748"><ele>188.0</ele><time>2026-04-19T12:44:03Z</time></trkpt><trkpt lat="43.42399917444342" lon="10.792295183456487"><ele>190.33333333333334</ele><time>2026-04-19T12:44:04Z</time></trkpt><trkpt lat="43.42406436046282" lon="10.79232293018616"><ele>192.66666666666666</ele><time>2026-04-19T12:44:05Z</time></trkpt><trkpt lat="43.424129282147796" lon="10.792347974251419"><ele>195.0</ele><time>2026-04-19T12:44:06Z</time></trkpt><trkpt lat="43.4242508613106" lon="10.79238765466462"><ele>195.0</ele><time>2026-04-19T12:44:08Z</time></trkpt><trkpt lat="43.424357870555944" lon="10.792484286050879"><ele>195.0</ele><time>2026-04-19T12:44:10Z</time></trkpt><trkpt lat="43.42440704910427" lon="10.7925549645894"><ele>195.0</ele><time>2026-04-19T12:44:11Z</time></trkpt><trkpt lat="43.42445453398722" lon="10.792624567256297"><ele>195.0</ele><time>2026-04-19T12:44:12Z</time></trkpt><trkpt lat="43.42449945267906" lon="10.79268908230742"><ele>195.0</ele><time>2026-04-19T12:44:13Z</time></trkpt><trkpt lat="43.424577591285264" lon="10.79281426348253"><ele>195.16666666666666</ele><time>2026-04-19T12:44:15Z</time></trkpt><trkpt lat="43.42467468810316" lon="10.792930667017352"><ele>195.33333333333331</ele><time>2026-04-19T12:44:17Z</time></trkpt><trkpt lat="43.42473001874081" lon="10.792983230006246"><ele>195.5</ele><time>2026-04-19T12:44:18Z</time></trkpt><trkpt lat="43.42478162484026" lon="10.793036852915122"><ele>195.66666666666666</ele><time>2026-04-19T12:44:19Z</time></trkpt><trkpt lat="43.4248326277647" lon="10.7930895430527"><ele>195.83333333333331</ele><time>2026-04-19T12:44:20Z</time></trkpt><trkpt lat="43.42488168028506" lon="10.793144418090163"><ele>196.0</ele><time>2026-04-19T12:44:21Z</time></trkpt><trkpt lat="43.424952718430404" lon="10.793231065612652"><ele>195.99999999999997</ele><time>2026-04-19T12:44:23Z</time></trkpt><trkpt lat="43.425024355270224" lon="10.793305210210384"><ele>196.0</ele><time>2026-04-19T12:44:37.998Z</time></trkpt><trkpt lat="43.42507978366241" lon="10.793368373273243"><ele>196.0</ele><time>2026-04-19T12:44:39.998Z</time></trkpt><trkpt lat="43.425148313194626" lon="10.793433274454488"><ele>196.0</ele><time>2026-04-19T12:44:41.998Z</time></trkpt><trkpt lat="43.42524070326216" lon="10.793473439770354"><ele>195.99999999999997</ele><time>2026-04-19T12:44:43.998Z</time></trkpt><trkpt lat="43.42533041525535" lon="10.79347290936199"><ele>196.0</ele><time>2026-04-19T12:44:45.998Z</time></trkpt><trkpt lat="43.42540507488019" lon="10.793462661638298"><ele>196.0</ele><time>2026-04-19T12:44:47.998Z</time></trkpt><trkpt lat="43.42546413792682" lon="10.793356677608694"><ele>196.0</ele><time>2026-04-19T12:44:49.998Z</time></trkpt><trkpt lat="43.425535539340714" lon="10.793233085252542"><ele>196.0</ele><time>2026-04-19T12:44:51.998Z</time></trkpt><trkpt lat="43.4255994841152" lon="10.793075441764488"><ele>196.0</ele><time>2026-04-19T12:44:53.999Z</time></trkpt><trkpt lat="43.42563184476104" lon="10.79298208594566"><ele>196.0</ele><time>2026-04-19T12:44:54.999Z</time></trkpt><trkpt lat="43.42566564505432" lon="10.792882974440076"><ele>195.49999999999997</ele><time>2026-04-19T12:44:55.999Z</time></trkpt><trkpt lat="43.4257031783691" lon="10.792780201111041"><ele>195.0</ele><time>2026-04-19T12:44:56.999Z</time></trkpt><trkpt lat="43.425743751167644" lon="10.792680331102284"><ele>194.5</ele><time>2026-04-19T12:44:57.999Z</time></trkpt><trkpt lat="43.42578829835457" lon="10.79257379833887"><ele>194.0</ele><time>2026-04-19T12:44:58.999Z</time></trkpt><trkpt lat="43.4258273763996" lon="10.792471681715515"><ele>193.49999999999997</ele><time>2026-04-19T12:44:59.999Z</time></trkpt><trkpt lat="43.425863481940645" lon="10.79237473903378"><ele>193.0</ele><time>2026-04-19T12:45:00.999Z</time></trkpt><trkpt lat="43.42589916448415" lon="10.792278921762689"><ele>193.0</ele><time>2026-04-19T12:45:01.999Z</time></trkpt><trkpt lat="43.42593491782565" lon="10.792189052424035"><ele>193.0</ele><time>2026-04-19T12:45:02.999Z</time></trkpt><trkpt lat="43.425970964203856" lon="10.792108021677143"><ele>193.0</ele><time>2026-04-19T12:45:03.999Z</time></trkpt><trkpt lat="43.426033446464466" lon="10.791967712999659"><ele>193.0</ele><time>2026-04-19T12:45:05.999Z</time></trkpt><trkpt lat="43.42609876349112" lon="10.791825436800151"><ele>193.0</ele><time>2026-04-19T12:45:07.999Z</time></trkpt><trkpt lat="43.42613463774024" lon="10.791748360454802"><ele>192.60000000000002</ele><time>2026-04-19T12:45:08.999Z</time></trkpt><trkpt lat="43.42619956537669" lon="10.791598585842818"><ele>192.20000000000002</ele><time>2026-04-19T12:45:10.999Z</time></trkpt><trkpt lat="43.42624813533132" lon="10.791440340693121"><ele>191.8</ele><time>2026-04-19T12:45:12.999Z</time></trkpt><trkpt lat="43.4262712180943" lon="10.791356347249796"><ele>191.4</ele><time>2026-04-19T12:45:13.999Z</time></trkpt><trkpt lat="43.42630854149279" lon="10.791206324251593"><ele>191.0</ele><time>2026-04-19T12:45:15.999Z</time></trkpt><trkpt lat="43.42633776346857" lon="10.791089860095962"><ele>189.8</ele><time>2026-04-19T12:45:17.999Z</time></trkpt><trkpt lat="43.42637087545987" lon="10.790960083728725"><ele>188.60000000000002</ele><time>2026-04-19T12:45:19.999Z</time></trkpt><trkpt lat="43.42640832565594" lon="10.790813304631682"><ele>187.4</ele><time>2026-04-19T12:45:21.999Z</time></trkpt><trkpt lat="43.42644109401711" lon="10.79067554059441"><ele>186.2</ele><time>2026-04-19T12:45:23.999Z</time></trkpt><trkpt lat="43.42647283110438" lon="10.790541723421764"><ele>185.0</ele><time>2026-04-19T12:45:25.999Z</time></trkpt><trkpt lat="43.42649735104026" lon="10.790459864993954"><ele>185.0</ele><time>2026-04-19T12:45:28Z</time></trkpt><trkpt lat="43.42653173803992" lon="10.790349004284046"><ele>185.0</ele><time>2026-04-19T12:45:31Z</time></trkpt><trkpt lat="43.4265587626093" lon="10.790224054339731"><ele>185.0</ele><time>2026-04-19T12:45:33Z</time></trkpt><trkpt lat="43.426574901272936" lon="10.790085952242853"><ele>185.0</ele><time>2026-04-19T12:45:35Z</time></trkpt><trkpt lat="43.42657615100291" lon="10.789977152819512"><ele>185.0</ele><time>2026-04-19T12:45:37Z</time></trkpt><trkpt lat="43.42657802120807" lon="10.78988278221204"><ele>185.0</ele><time>2026-04-19T12:45:44Z</time></trkpt><trkpt lat="43.42658687981164" lon="10.789761974222353"><ele>185.5</ele><time>2026-04-19T12:45:53Z</time></trkpt><trkpt lat="43.42661458253895" lon="10.789658817700017"><ele>186.0</ele><time>2026-04-19T12:45:57Z</time></trkpt><trkpt lat="43.42666465205229" lon="10.789562335852416"><ele>186.5</ele><time>2026-04-19T12:46:00Z</time></trkpt><trkpt lat="43.42670411812038" lon="10.789459464286182"><ele>187.0</ele><time>2026-04-19T12:46:03Z</time></trkpt><trkpt lat="43.426738820137075" lon="10.78936901075439"><ele>187.5</ele><time>2026-04-19T12:46:06Z</time></trkpt><trkpt lat="43.42677740931808" lon="10.789270633646693"><ele>188.0</ele><time>2026-04-19T12:46:09Z</time></trkpt><trkpt lat="43.426818064508744" lon="10.789184598589177"><ele>188.60000000000002</ele><time>2026-04-19T12:46:13Z</time></trkpt><trkpt lat="43.42686680376581" lon="10.789096262782818"><ele>189.20000000000002</ele><time>2026-04-19T12:46:57.999Z</time></trkpt><trkpt lat="43.42689344054414" lon="10.788919462628282"><ele>189.8</ele><time>2026-04-19T12:46:59.999Z</time></trkpt><trkpt lat="43.426907350525944" lon="10.788739477774072"><ele>190.4</ele><time>2026-04-19T12:47:01.999Z</time></trkpt><trkpt lat="43.426920019570254" lon="10.788621715571582"><ele>191.0</ele><time>2026-04-19T12:47:02.999Z</time></trkpt><trkpt lat="43.4269325597037" lon="10.78850753335074"><ele>191.20000000000002</ele><time>2026-04-19T12:47:03.999Z</time></trkpt><trkpt lat="43.42694794528808" lon="10.788402348991314"><ele>191.4</ele><time>2026-04-19T12:47:04.999Z</time></trkpt><trkpt lat="43.42697721560779" lon="10.788286094991461"><ele>191.6</ele><time>2026-04-19T12:47:05.999Z</time></trkpt><trkpt lat="43.42702773693736" lon="10.788156474155533"><ele>191.8</ele><time>2026-04-19T12:47:06.999Z</time></trkpt><trkpt lat="43.42708951765311" lon="10.788030867038334"><ele>192.0</ele><time>2026-04-19T12:47:07.999Z</time></trkpt><trkpt lat="43.42716364518074" lon="10.787894352605079"><ele>192.0</ele><time>2026-04-19T12:47:08.999Z</time></trkpt><trkpt lat="43.427246544622015" lon="10.787754601860833"><ele>192.0</ele><time>2026-04-19T12:47:09.999Z</time></trkpt><trkpt lat="43.42734307617617" lon="10.787606471011523"><ele>192.0</ele><time>2026-04-19T12:47:10.999Z</time></trkpt><trkpt lat="43.42743756688325" lon="10.787462241158245"><ele>192.0</ele><time>2026-04-19T12:47:11.999Z</time></trkpt><trkpt lat="43.42751994803531" lon="10.787336440120054"><ele>193.66666666666666</ele><time>2026-04-19T12:47:12.999Z</time></trkpt><trkpt lat="43.42758568462256" lon="10.787221754015007"><ele>195.33333333333331</ele><time>2026-04-19T12:47:13.999Z</time></trkpt><trkpt lat="43.42765510366002" lon="10.787143487842558"><ele>197.0</ele><time>2026-04-19T12:47:14.999Z</time></trkpt><trkpt lat="43.427717229225856" lon="10.787105879675606"><ele>198.66666666666666</ele><time>2026-04-19T12:47:15.999Z</time></trkpt><trkpt lat="43.42778783720037" lon="10.787061754073834"><ele>200.33333333333331</ele><time>2026-04-19T12:47:23Z</time></trkpt><trkpt lat="43.42783592563904" lon="10.78698539015409"><ele>202.0</ele><time>2026-04-19T12:47:28Z</time></trkpt><trkpt lat="43.42792159911877" lon="10.787079491750958"><ele>203.16666666666666</ele><time>2026-04-19T12:47:29Z</time></trkpt><trkpt lat="43.42798971068998" lon="10.78703941903075"><ele>204.33333333333331</ele><time>2026-04-19T12:47:32Z</time></trkpt><trkpt lat="43.42807790482843" lon="10.786998688010087"><ele>205.5</ele><time>2026-04-19T12:47:35Z</time></trkpt><trkpt lat="43.428153163734905" lon="10.786999588872439"><ele>206.66666666666669</ele><time>2026-04-19T12:47:37Z</time></trkpt><trkpt lat="43.42824815931771" lon="10.786958958932882"><ele>207.83333333333334</ele><time>2026-04-19T12:47:39Z</time></trkpt><trkpt lat="43.42833956471234" lon="10.786919864501575"><ele>209.0</ele><time>2026-04-19T12:47:41Z</time></trkpt><trkpt lat="43.42844392459563" lon="10.78687503348167"><ele>209.0</ele><time>2026-04-19T12:47:43Z</time></trkpt><trkpt lat="43.42855386299765" lon="10.78682928515642"><ele>209.0</ele><time>2026-04-19T12:47:45Z</time></trkpt><trkpt lat="43.42866288667366" lon="10.786826997185162"><ele>209.0</ele><time>2026-04-19T12:47:47Z</time></trkpt><trkpt lat="43.4287646090204" lon="10.78691236232966"><ele>209.0</ele><time>2026-04-19T12:47:49Z</time></trkpt><trkpt lat="43.428820211466494" lon="10.786972350990073"><ele>209.0</ele><time>2026-04-19T12:47:50Z</time></trkpt><trkpt lat="43.42888763072344" lon="10.787019939339082"><ele>209.42857142857142</ele><time>2026-04-19T12:47:51Z</time></trkpt><trkpt lat="43.42893680909169" lon="10.787078483169292"><ele>209.85714285714283</ele><time>2026-04-19T12:47:52Z</time></trkpt><trkpt lat="43.42898742179472" lon="10.787135824614326"><ele>210.28571428571428</ele><time>2026-04-19T12:47:53Z</time></trkpt><trkpt lat="43.42904631464534" lon="10.787197357017593"><ele>210.71428571428572</ele><time>2026-04-19T12:47:54Z</time></trkpt><trkpt lat="43.42911199048815" lon="10.787257658678099"><ele>211.14285714285714</ele><time>2026-04-19T12:47:55Z</time></trkpt><trkpt lat="43.42918899897105" lon="10.78730315086309"><ele>211.57142857142858</ele><time>2026-04-19T12:47:56Z</time></trkpt><trkpt lat="43.42926573834019" lon="10.787327460183018"><ele>212.0</ele><time>2026-04-19T12:47:57Z</time></trkpt><trkpt lat="43.42933641834833" lon="10.787360091706068"><ele>212.00000000000003</ele><time>2026-04-19T12:47:58Z</time></trkpt><trkpt lat="43.42941237189868" lon="10.787351722439764"><ele>212.0</ele><time>2026-04-19T12:47:59Z</time></trkpt><trkpt lat="43.42949256063318" lon="10.787367871735311"><ele>212.0</ele><time>2026-04-19T12:48:00Z</time></trkpt><trkpt lat="43.42957851564121" lon="10.78737994374337"><ele>212.0</ele><time>2026-04-19T12:48:01Z</time></trkpt><trkpt lat="43.42966752867847" lon="10.78739341224905"><ele>212.00000000000003</ele><time>2026-04-19T12:48:02Z</time></trkpt><trkpt lat="43.42975736886715" lon="10.787404055637754"><ele>212.0</ele><time>2026-04-19T12:48:03Z</time></trkpt><trkpt lat="43.42984162750245" lon="10.78741416951678"><ele>211.14285714285714</ele><time>2026-04-19T12:48:04Z</time></trkpt><trkpt lat="43.429919275223355" lon="10.78741952807924"><ele>210.28571428571428</ele><time>2026-04-19T12:48:05Z</time></trkpt><trkpt lat="43.429992642401054" lon="10.787426683013111"><ele>209.42857142857142</ele><time>2026-04-19T12:48:06Z</time></trkpt><trkpt lat="43.43005841688805" lon="10.787450070700505"><ele>208.57142857142856</ele><time>2026-04-19T12:48:07Z</time></trkpt><trkpt lat="43.430127232763134" lon="10.787480912412265"><ele>207.71428571428572</ele><time>2026-04-19T12:48:08Z</time></trkpt><trkpt lat="43.43019301629267" lon="10.787522900953203"><ele>206.85714285714283</ele><time>2026-04-19T12:48:09.001Z</time></trkpt><trkpt lat="43.43026360379305" lon="10.787575011738321"><ele>206.0</ele><time>2026-04-19T12:48:10.001Z</time></trkpt><trkpt lat="43.43034175564167" lon="10.787638498554387"><ele>207.0</ele><time>2026-04-19T12:48:11.001Z</time></trkpt><trkpt lat="43.430424025953634" lon="10.78770751962825"><ele>208.0</ele><time>2026-04-19T12:48:12.001Z</time></trkpt><trkpt lat="43.43050460985963" lon="10.787780671377826"><ele>209.0</ele><time>2026-04-19T12:48:13.001Z</time></trkpt><trkpt lat="43.43057381109573" lon="10.787848580641466"><ele>210.0</ele><time>2026-04-19T12:48:14.001Z</time></trkpt><trkpt lat="43.43065760426048" lon="10.78789400719521"><ele>211.0</ele><time>2026-04-19T12:48:15.001Z</time></trkpt><trkpt lat="43.43075997048227" lon="10.787890977695133"><ele>208.20000000000002</ele><time>2026-04-19T12:48:16.001Z</time></trkpt><trkpt lat="43.43086761178404" lon="10.787875310366053"><ele>205.4</ele><time>2026-04-19T12:48:17.001Z</time></trkpt><trkpt lat="43.430966753072205" lon="10.787848119001445"><ele>202.6</ele><time>2026-04-19T12:48:18.001Z</time></trkpt><trkpt lat="43.431061643877804" lon="10.787817794508106"><ele>199.8</ele><time>2026-04-19T12:48:19.001Z</time></trkpt><trkpt lat="43.431157426832684" lon="10.787789152627866"><ele>197.0</ele><time>2026-04-19T12:48:20.001Z</time></trkpt><trkpt lat="43.43125046174527" lon="10.787763440624724"><ele>197.2</ele><time>2026-04-19T12:48:21.001Z</time></trkpt><trkpt lat="43.43134289952042" lon="10.787734754009495"><ele>197.39999999999998</ele><time>2026-04-19T12:48:22.001Z</time></trkpt><trkpt lat="43.43143157644944" lon="10.787711982850384"><ele>197.60000000000002</ele><time>2026-04-19T12:48:23.001Z</time></trkpt><trkpt lat="43.431518871249956" lon="10.78769007267555"><ele>197.8</ele><time>2026-04-19T12:48:24.001Z</time></trkpt><trkpt lat="43.43160735319114" lon="10.787658642910028"><ele>198.0</ele><time>2026-04-19T12:48:25.001Z</time></trkpt><trkpt lat="43.43169865876689" lon="10.787636479681007"><ele>198.0</ele><time>2026-04-19T12:48:26.001Z</time></trkpt><trkpt lat="43.43178490924495" lon="10.787608239136611"><ele>198.0</ele><time>2026-04-19T12:48:27.001Z</time></trkpt><trkpt lat="43.43186849905962" lon="10.787577478140479"><ele>198.0</ele><time>2026-04-19T12:48:28.001Z</time></trkpt><trkpt lat="43.43194424755884" lon="10.787520226761623"><ele>198.0</ele><time>2026-04-19T12:48:29.001Z</time></trkpt><trkpt lat="43.432021444520934" lon="10.787466869005984"><ele>198.0</ele><time>2026-04-19T12:48:30.001Z</time></trkpt><trkpt lat="43.43208811352363" lon="10.787402708333834"><ele>198.0</ele><time>2026-04-19T12:48:31.001Z</time></trkpt><trkpt lat="43.4321538167241" lon="10.787339226008159"><ele>196.60000000000002</ele><time>2026-04-19T12:48:32.001Z</time></trkpt><trkpt lat="43.43221081498581" lon="10.787284154326823"><ele>195.20000000000002</ele><time>2026-04-19T12:48:33.001Z</time></trkpt><trkpt lat="43.43228190635698" lon="10.78718257736155"><ele>193.8</ele><time>2026-04-19T12:48:35.001Z</time></trkpt><trkpt lat="43.432361275450035" lon="10.787081204193228"><ele>192.4</ele><time>2026-04-19T12:48:37.001Z</time></trkpt><trkpt lat="43.432420071069274" lon="10.786964797963547"><ele>191.0</ele><time>2026-04-19T12:48:39.001Z</time></trkpt><trkpt lat="43.43247771730382" lon="10.786844003918443"><ele>191.0</ele><time>2026-04-19T12:48:41.001Z</time></trkpt><trkpt lat="43.432533601637864" lon="10.786721683303313"><ele>191.0</ele><time>2026-04-19T12:48:43.001Z</time></trkpt><trkpt lat="43.43259390320317" lon="10.786597091347959"><ele>191.0</ele><time>2026-04-19T12:48:44.998Z</time></trkpt><trkpt lat="43.432657344479125" lon="10.786481512044446"><ele>191.0</ele><time>2026-04-19T12:48:46.998Z</time></trkpt><trkpt lat="43.43273590215788" lon="10.786375666557017"><ele>191.0</ele><time>2026-04-19T12:48:48.998Z</time></trkpt><trkpt lat="43.43282494963447" lon="10.786266937242402"><ele>191.0</ele><time>2026-04-19T12:48:50.998Z</time></trkpt><trkpt lat="43.43291381502532" lon="10.786156260703619"><ele>191.0</ele><time>2026-04-19T12:48:52.999Z</time></trkpt><trkpt lat="43.433007043702005" lon="10.786039334902275"><ele>191.0</ele><time>2026-04-19T12:48:54.999Z</time></trkpt><trkpt lat="43.43310015295399" lon="10.78592173214323"><ele>191.0</ele><time>2026-04-19T12:48:56.999Z</time></trkpt><trkpt lat="43.43314924262957" lon="10.785859008784183"><ele>191.0</ele><time>2026-04-19T12:48:57.999Z</time></trkpt><trkpt lat="43.4331976789352" lon="10.785795529002932"><ele>190.14285714285714</ele><time>2026-04-19T12:48:58.999Z</time></trkpt><trkpt lat="43.43324641773789" lon="10.78573165278445"><ele>189.28571428571428</ele><time>2026-04-19T12:48:59.999Z</time></trkpt><trkpt lat="43.43329443260174" lon="10.785668822681794"><ele>188.42857142857142</ele><time>2026-04-19T12:49:00.999Z</time></trkpt><trkpt lat="43.4333467936885" lon="10.785606433473099"><ele>187.57142857142856</ele><time>2026-04-19T12:49:01.999Z</time></trkpt><trkpt lat="43.433399111514426" lon="10.785546955490858"><ele>186.71428571428572</ele><time>2026-04-19T12:49:02.999Z</time></trkpt><trkpt lat="43.433453064432484" lon="10.785491501977894"><ele>185.85714285714283</ele><time>2026-04-19T12:49:03.999Z</time></trkpt><trkpt lat="43.433509723711474" lon="10.78543567105481"><ele>185.0</ele><time>2026-04-19T12:49:04.999Z</time></trkpt><trkpt lat="43.43356451137842" lon="10.785381306764148"><ele>184.99999999999997</ele><time>2026-04-19T12:49:05.999Z</time></trkpt><trkpt lat="43.433620543445514" lon="10.785325707599583"><ele>185.0</ele><time>2026-04-19T12:49:06.999Z</time></trkpt><trkpt lat="43.43367399821366" lon="10.78527262836075"><ele>185.0</ele><time>2026-04-19T12:49:07.999Z</time></trkpt><trkpt lat="43.43372990371324" lon="10.78521973861003"><ele>185.0</ele><time>2026-04-19T12:49:08.999Z</time></trkpt><trkpt lat="43.4337827739395" lon="10.785170357536305"><ele>185.0</ele><time>2026-04-19T12:49:09.999Z</time></trkpt><trkpt lat="43.43383674601507" lon="10.785122185201633"><ele>184.99999999999997</ele><time>2026-04-19T12:49:10.999Z</time></trkpt><trkpt lat="43.43389151507314" lon="10.785073467671003"><ele>185.0</ele><time>2026-04-19T12:49:11.999Z</time></trkpt><trkpt lat="43.43399536931643" lon="10.784976467310365"><ele>183.28571428571428</ele><time>2026-04-19T12:49:13.999Z</time></trkpt><trkpt lat="43.434048483398264" lon="10.784923591450564"><ele>181.57142857142856</ele><time>2026-04-19T12:49:14.999Z</time></trkpt><trkpt lat="43.43410010839364" lon="10.784868063588775"><ele>179.85714285714283</ele><time>2026-04-19T12:49:15.999Z</time></trkpt><trkpt lat="43.434151201579375" lon="10.784805238891336"><ele>178.14285714285714</ele><time>2026-04-19T12:49:16.999Z</time></trkpt><trkpt lat="43.43420338287726" lon="10.784728430401488"><ele>176.42857142857144</ele><time>2026-04-19T12:49:18Z</time></trkpt><trkpt lat="43.43425671549451" lon="10.784640933813487"><ele>174.7142857142857</ele><time>2026-04-19T12:49:19Z</time></trkpt><trkpt lat="43.43431075912476" lon="10.784545933466923"><ele>173.0</ele><time>2026-04-19T12:49:20Z</time></trkpt><trkpt lat="43.43435351389135" lon="10.784431767411519"><ele>172.60000000000002</ele><time>2026-04-19T12:49:21Z</time></trkpt><trkpt lat="43.43441121198323" lon="10.784331690428312"><ele>172.20000000000002</ele><time>2026-04-19T12:49:22Z</time></trkpt><trkpt lat="43.434467870306705" lon="10.784233007600326"><ele>171.8</ele><time>2026-04-19T12:49:23Z</time></trkpt><trkpt lat="43.434540745044444" lon="10.78414274416892"><ele>171.4</ele><time>2026-04-19T12:49:24Z</time></trkpt><trkpt lat="43.434605906197056" lon="10.784033308513978"><ele>171.0</ele><time>2026-04-19T12:49:25Z</time></trkpt><trkpt lat="43.43467564000592" lon="10.783927129721182"><ele>170.0</ele><time>2026-04-19T12:49:26Z</time></trkpt><trkpt lat="43.434746555947534" lon="10.7838161529407"><ele>169.0</ele><time>2026-04-19T12:49:27Z</time></trkpt><trkpt lat="43.43481776577893" lon="10.783698074067678"><ele>168.0</ele><time>2026-04-19T12:49:28Z</time></trkpt><trkpt lat="43.434889709616144" lon="10.783575896561986"><ele>167.0</ele><time>2026-04-19T12:49:29Z</time></trkpt><trkpt lat="43.43496304377595" lon="10.783449830324738"><ele>167.0</ele><time>2026-04-19T12:49:30Z</time></trkpt><trkpt lat="43.435038404751566" lon="10.783320189518944"><ele>167.0</ele><time>2026-04-19T12:49:31Z</time></trkpt><trkpt lat="43.43511010599904" lon="10.783196844558947"><ele>167.0</ele><time>2026-04-19T12:49:32Z</time></trkpt><trkpt lat="43.4351807451448" lon="10.783074979253561"><ele>167.0</ele><time>2026-04-19T12:49:33Z</time></trkpt><trkpt lat="43.435242873540226" lon="10.78295424187936"><ele>167.0</ele><time>2026-04-19T12:49:34Z</time></trkpt><trkpt lat="43.43529580220103" lon="10.782831812440397"><ele>167.0</ele><time>2026-04-19T12:49:35Z</time></trkpt><trkpt lat="43.435345325383395" lon="10.782706759706953"><ele>167.0</ele><time>2026-04-19T12:49:36Z</time></trkpt><trkpt lat="43.43539654272898" lon="10.782581622223091"><ele>167.0</ele><time>2026-04-19T12:49:37Z</time></trkpt><trkpt lat="43.43544938738405" lon="10.782458988284297"><ele>167.0</ele><time>2026-04-19T12:49:38Z</time></trkpt><trkpt lat="43.43550602938695" lon="10.782343322730892"><ele>167.39999999999998</ele><time>2026-04-19T12:49:39Z</time></trkpt><trkpt lat="43.435569532603786" lon="10.782231171109968"><ele>167.79999999999998</ele><time>2026-04-19T12:49:40Z</time></trkpt><trkpt lat="43.43564247311268" lon="10.78212176383758"><ele>168.2</ele><time>2026-04-19T12:49:41Z</time></trkpt><trkpt lat="43.43571135393314" lon="10.781999690954947"><ele>168.6</ele><time>2026-04-19T12:49:42Z</time></trkpt><trkpt lat="43.43580613186536" lon="10.781920614163685"><ele>169.0</ele><time>2026-04-19T12:49:43Z</time></trkpt><trkpt lat="43.43588782414374" lon="10.781825054908353"><ele>169.0</ele><time>2026-04-19T12:49:44Z</time></trkpt><trkpt lat="43.43596426074666" lon="10.781733036859494"><ele>169.0</ele><time>2026-04-19T12:49:45Z</time></trkpt><trkpt lat="43.43602960360858" lon="10.781624347101337"><ele>169.0</ele><time>2026-04-19T12:49:46Z</time></trkpt><trkpt lat="43.4361088386249" lon="10.781528696183543"><ele>169.0</ele><time>2026-04-19T12:49:47Z</time></trkpt><trkpt lat="43.43619869227499" lon="10.781450302371612"><ele>169.0</ele><time>2026-04-19T12:49:48Z</time></trkpt><trkpt lat="43.436277061892234" lon="10.781355378061017"><ele>168.0</ele><time>2026-04-19T12:49:49Z</time></trkpt><trkpt lat="43.43634526241612" lon="10.781242353914084"><ele>167.0</ele><time>2026-04-19T12:49:50Z</time></trkpt><trkpt lat="43.43643514302749" lon="10.781167873813711"><ele>166.0</ele><time>2026-04-19T12:49:51Z</time></trkpt><trkpt lat="43.436506788907735" lon="10.781084188919413"><ele>165.0</ele><time>2026-04-19T12:49:52Z</time></trkpt><trkpt lat="43.43657050490379" lon="10.780998958348754"><ele>164.0</ele><time>2026-04-19T12:49:53Z</time></trkpt><trkpt lat="43.436625911680274" lon="10.780902258486698"><ele>164.0</ele><time>2026-04-19T12:49:54Z</time></trkpt><trkpt lat="43.43668512157703" lon="10.780810379460759"><ele>164.0</ele><time>2026-04-19T12:49:55Z</time></trkpt><trkpt lat="43.43674593368061" lon="10.780718027304168"><ele>164.0</ele><time>2026-04-19T12:49:56Z</time></trkpt><trkpt lat="43.43680662654023" lon="10.780625856296034"><ele>164.0</ele><time>2026-04-19T12:49:57.001Z</time></trkpt><trkpt lat="43.436868401865794" lon="10.780532041123017"><ele>164.0</ele><time>2026-04-19T12:49:58.001Z</time></trkpt><trkpt lat="43.436929805544196" lon="10.780435883801063"><ele>164.0</ele><time>2026-04-19T12:49:59.001Z</time></trkpt><trkpt lat="43.436990786123204" lon="10.78033997070997"><ele>164.0</ele><time>2026-04-19T12:50:00.001Z</time></trkpt><trkpt lat="43.43705103487876" lon="10.780245204219845"><ele>164.0</ele><time>2026-04-19T12:50:01.001Z</time></trkpt><trkpt lat="43.43711028428952" lon="10.780152009618867"><ele>164.0</ele><time>2026-04-19T12:50:02.001Z</time></trkpt><trkpt lat="43.43715323447625" lon="10.780033001982371"><ele>164.0</ele><time>2026-04-19T12:50:03.001Z</time></trkpt><trkpt lat="43.437230719244376" lon="10.779959884713387"><ele>162.83333333333331</ele><time>2026-04-19T12:50:04.001Z</time></trkpt><trkpt lat="43.43731673686195" lon="10.779900639772661"><ele>161.66666666666666</ele><time>2026-04-19T12:50:05.001Z</time></trkpt><trkpt lat="43.4374025327305" lon="10.779873259232879"><ele>160.5</ele><time>2026-04-19T12:50:06.001Z</time></trkpt><trkpt lat="43.437485831012104" lon="10.779870098309715"><ele>159.33333333333334</ele><time>2026-04-19T12:50:07.001Z</time></trkpt><trkpt lat="43.43756699722478" lon="10.779899772726269"><ele>158.16666666666669</ele><time>2026-04-19T12:50:08.001Z</time></trkpt><trkpt lat="43.43763721531621" lon="10.779941566319517"><ele>157.0</ele><time>2026-04-19T12:50:09.001Z</time></trkpt><trkpt lat="43.437703047720404" lon="10.779979789420278"><ele>156.99999999999997</ele><time>2026-04-19T12:50:10.001Z</time></trkpt><trkpt lat="43.43776763626204" lon="10.78001821830571"><ele>157.0</ele><time>2026-04-19T12:50:11.001Z</time></trkpt><trkpt lat="43.43783250594786" lon="10.780046910010146"><ele>157.0</ele><time>2026-04-19T12:50:12.001Z</time></trkpt><trkpt lat="43.437896895119344" lon="10.780079944139404"><ele>157.0</ele><time>2026-04-19T12:50:13.001Z</time></trkpt><trkpt lat="43.43796044813305" lon="10.780119688799534"><ele>157.0</ele><time>2026-04-19T12:50:14.001Z</time></trkpt><trkpt lat="43.438022641859" lon="10.780161892644701"><ele>156.99999999999997</ele><time>2026-04-19T12:50:15.001Z</time></trkpt><trkpt lat="43.43808783429315" lon="10.780205043192801"><ele>157.0</ele><time>2026-04-19T12:50:16.001Z</time></trkpt><trkpt lat="43.43815930366278" lon="10.78024666658356"><ele>156.33333333333334</ele><time>2026-04-19T12:50:17.001Z</time></trkpt><trkpt lat="43.438234213616056" lon="10.780286731869424"><ele>155.66666666666669</ele><time>2026-04-19T12:50:18.001Z</time></trkpt><trkpt lat="43.438307799321336" lon="10.780327110754524"><ele>155.0</ele><time>2026-04-19T12:50:19.001Z</time></trkpt><trkpt lat="43.43838227036519" lon="10.780373311973284"><ele>154.33333333333334</ele><time>2026-04-19T12:50:20.001Z</time></trkpt><trkpt lat="43.438461058537" lon="10.780420221081505"><ele>153.66666666666666</ele><time>2026-04-19T12:50:21.001Z</time></trkpt><trkpt lat="43.43854343996848" lon="10.780467468335253"><ele>153.0</ele><time>2026-04-19T12:50:22.001Z</time></trkpt><trkpt lat="43.43863109086562" lon="10.78051744421183"><ele>153.0</ele><time>2026-04-19T12:50:23.001Z</time></trkpt><trkpt lat="43.43872225781961" lon="10.780570906940804"><ele>153.0</ele><time>2026-04-19T12:50:24.001Z</time></trkpt><trkpt lat="43.43881832649819" lon="10.780623295996312"><ele>153.0</ele><time>2026-04-19T12:50:25.001Z</time></trkpt><trkpt lat="43.43891978998694" lon="10.780667211602868"><ele>153.0</ele><time>2026-04-19T12:50:26.001Z</time></trkpt><trkpt lat="43.43902509225795" lon="10.780703221097566"><ele>153.0</ele><time>2026-04-19T12:50:27.001Z</time></trkpt><trkpt lat="43.439143221850756" lon="10.780728697863854"><ele>152.75</ele><time>2026-04-19T12:50:28.001Z</time></trkpt><trkpt lat="43.439270939757925" lon="10.780742316042277"><ele>152.5</ele><time>2026-04-19T12:50:29.001Z</time></trkpt><trkpt lat="43.43940623150442" lon="10.780752935057473"><ele>152.25</ele><time>2026-04-19T12:50:30.001Z</time></trkpt><trkpt lat="43.43955075269153" lon="10.780763069882548"><ele>152.0</ele><time>2026-04-19T12:50:31.001Z</time></trkpt><trkpt lat="43.439701074380196" lon="10.780783462956947"><ele>151.0</ele><time>2026-04-19T12:50:32.001Z</time></trkpt><trkpt lat="43.43985072540488" lon="10.780801071794787"><ele>150.0</ele><time>2026-04-19T12:50:33.001Z</time></trkpt><trkpt lat="43.440002308078654" lon="10.78081620952412"><ele>149.0</ele><time>2026-04-19T12:50:34.001Z</time></trkpt><trkpt lat="43.44015556450937" lon="10.78082618947698"><ele>149.0</ele><time>2026-04-19T12:50:35.001Z</time></trkpt><trkpt lat="43.44030644345833" lon="10.780837651624852"><ele>149.0</ele><time>2026-04-19T12:50:36.001Z</time></trkpt><trkpt lat="43.44045495282434" lon="10.780852457886393"><ele>149.0</ele><time>2026-04-19T12:50:37.001Z</time></trkpt><trkpt lat="43.440602029815594" lon="10.780865968710797"><ele>149.0</ele><time>2026-04-19T12:50:38.001Z</time></trkpt><trkpt lat="43.44074323043312" lon="10.780879926642486"><ele>150.0</ele><time>2026-04-19T12:50:39.001Z</time></trkpt><trkpt lat="43.44087705370929" lon="10.780894611827462"><ele>151.0</ele><time>2026-04-19T12:50:40.001Z</time></trkpt><trkpt lat="43.441005404499734" lon="10.780909705902724"><ele>152.0</ele><time>2026-04-19T12:50:41.001Z</time></trkpt><trkpt lat="43.44112548251743" lon="10.780919728590709"><ele>153.0</ele><time>2026-04-19T12:50:42.002Z</time></trkpt><trkpt lat="43.44124041233455" lon="10.78092896435283"><ele>153.8</ele><time>2026-04-19T12:50:43.002Z</time></trkpt><trkpt lat="43.44134717048911" lon="10.780929628955244"><ele>154.60000000000002</ele><time>2026-04-19T12:50:44.002Z</time></trkpt><trkpt lat="43.44144702230348" lon="10.78089126488193"><ele>155.39999999999998</ele><time>2026-04-19T12:50:45.002Z</time></trkpt><trkpt lat="43.44153481923672" lon="10.780816547393714"><ele>156.2</ele><time>2026-04-19T12:50:46.002Z</time></trkpt><trkpt lat="43.441614633643525" lon="10.780722677545752"><ele>157.0</ele><time>2026-04-19T12:50:47.002Z</time></trkpt><trkpt lat="43.4416958234007" lon="10.780633583064368"><ele>157.0</ele><time>2026-04-19T12:50:48.002Z</time></trkpt><trkpt lat="43.44178228611559" lon="10.780552950272767"><ele>157.0</ele><time>2026-04-19T12:50:49.002Z</time></trkpt><trkpt lat="43.44187273747373" lon="10.780496878603804"><ele>157.0</ele><time>2026-04-19T12:50:50.002Z</time></trkpt><trkpt lat="43.44195985497256" lon="10.780475055563272"><ele>157.0</ele><time>2026-04-19T12:50:50.999Z</time></trkpt><trkpt lat="43.44205246425922" lon="10.780500093392906"><ele>157.0</ele><time>2026-04-19T12:50:51.999Z</time></trkpt><trkpt lat="43.4421430061646" lon="10.780554684172925"><ele>155.33333333333334</ele><time>2026-04-19T12:50:52.999Z</time></trkpt><trkpt lat="43.44222577054335" lon="10.780620059103908"><ele>153.66666666666669</ele><time>2026-04-19T12:50:53.999Z</time></trkpt><trkpt lat="43.44230281264365" lon="10.780677242184494"><ele>152.0</ele><time>2026-04-19T12:50:54.999Z</time></trkpt><trkpt lat="43.442370201368846" lon="10.780726872096986"><ele>150.33333333333334</ele><time>2026-04-19T12:50:55.999Z</time></trkpt><trkpt lat="43.4424697045089" lon="10.78078237354345"><ele>148.66666666666666</ele><time>2026-04-19T12:50:57.999Z</time></trkpt><trkpt lat="43.442542782805454" lon="10.780788950708796"><ele>147.0</ele><time>2026-04-19T12:50:58.999Z</time></trkpt><trkpt lat="43.4426371187669" lon="10.78076426670441"><ele>147.0</ele><time>2026-04-19T12:50:59.999Z</time></trkpt><trkpt lat="43.442725786359354" lon="10.780690837340535"><ele>147.0</ele><time>2026-04-19T12:51:00.999Z</time></trkpt><trkpt lat="43.442809007875944" lon="10.780578957293631"><ele>147.0</ele><time>2026-04-19T12:51:01.999Z</time></trkpt><trkpt lat="43.442905897045215" lon="10.780453329173849"><ele>147.0</ele><time>2026-04-19T12:51:02.999Z</time></trkpt><trkpt lat="43.44301733251408" lon="10.780331190045603"><ele>144.0</ele><time>2026-04-19T12:51:03.999Z</time></trkpt><trkpt lat="43.443137634651606" lon="10.78020627920027"><ele>141.0</ele><time>2026-04-19T12:51:04.999Z</time></trkpt><trkpt lat="43.44327476543722" lon="10.780074884572043"><ele>138.0</ele><time>2026-04-19T12:51:05.999Z</time></trkpt><trkpt lat="43.44342079361622" lon="10.779944002266797"><ele>138.0</ele><time>2026-04-19T12:51:06.999Z</time></trkpt><trkpt lat="43.443553236919335" lon="10.779817121661338"><ele>138.0</ele><time>2026-04-19T12:51:07.999Z</time></trkpt><trkpt lat="43.443678368549406" lon="10.779684151626169"><ele>138.0</ele><time>2026-04-19T12:51:08.999Z</time></trkpt><trkpt lat="43.44379630361685" lon="10.779561684533782"><ele>136.25</ele><time>2026-04-19T12:51:09.999Z</time></trkpt><trkpt lat="43.443909288376" lon="10.779441778889344"><ele>134.5</ele><time>2026-04-19T12:51:10.999Z</time></trkpt><trkpt lat="43.444010474366124" lon="10.779343966412155"><ele>132.75</ele><time>2026-04-19T12:51:11.999Z</time></trkpt><trkpt lat="43.4440964867655" lon="10.779260743168006"><ele>131.0</ele><time>2026-04-19T12:51:12.999Z</time></trkpt><trkpt lat="43.444186916384815" lon="10.779174981436446"><ele>131.0</ele><time>2026-04-19T12:51:13.999Z</time></trkpt><trkpt lat="43.444280946036315" lon="10.77909278185177"><ele>131.0</ele><time>2026-04-19T12:51:14.999Z</time></trkpt><trkpt lat="43.44437485239716" lon="10.779013912604963"><ele>131.0</ele><time>2026-04-19T12:51:15.999Z</time></trkpt><trkpt lat="43.444473680166894" lon="10.778938089630156"><ele>131.0</ele><time>2026-04-19T12:51:17Z</time></trkpt><trkpt lat="43.444576007132135" lon="10.778862674088522"><ele>129.25</ele><time>2026-04-19T12:51:18Z</time></trkpt><trkpt lat="43.444679083688456" lon="10.77878617974559"><ele>127.5</ele><time>2026-04-19T12:51:19Z</time></trkpt><trkpt lat="43.44478005884161" lon="10.778706930176194"><ele>125.75</ele><time>2026-04-19T12:51:20Z</time></trkpt><trkpt lat="43.444880780267404" lon="10.778624632098412"><ele>124.0</ele><time>2026-04-19T12:51:21Z</time></trkpt><trkpt lat="43.44497874928717" lon="10.77854446598679"><ele>123.6</ele><time>2026-04-19T12:51:22Z</time></trkpt><trkpt lat="43.445076500766184" lon="10.778463763431702"><ele>123.2</ele><time>2026-04-19T12:51:23Z</time></trkpt><trkpt lat="43.44517204550859" lon="10.778385258691381"><ele>122.79999999999998</ele><time>2026-04-19T12:51:24Z</time></trkpt><trkpt lat="43.44526941109999" lon="10.778311777400901"><ele>122.39999999999999</ele><time>2026-04-19T12:51:25Z</time></trkpt><trkpt lat="43.44537525703778" lon="10.778269948368377"><ele>122.0</ele><time>2026-04-19T12:51:26Z</time></trkpt><trkpt lat="43.445484736494386" lon="10.778254565991821"><ele>121.6</ele><time>2026-04-19T12:51:27Z</time></trkpt><trkpt lat="43.445590181860716" lon="10.778289339755272"><ele>121.19999999999999</ele><time>2026-04-19T12:51:28Z</time></trkpt><trkpt lat="43.445693576276824" lon="10.77833244779523"><ele>120.8</ele><time>2026-04-19T12:51:29Z</time></trkpt><trkpt lat="43.44579297884657" lon="10.778383111600338"><ele>120.4</ele><time>2026-04-19T12:51:30Z</time></trkpt><trkpt lat="43.445892917874126" lon="10.778428883042602"><ele>120.0</ele><time>2026-04-19T12:51:31Z</time></trkpt><trkpt lat="43.445993596158196" lon="10.778473646560515"><ele>120.6</ele><time>2026-04-19T12:51:32Z</time></trkpt><trkpt lat="43.446090713533614" lon="10.778520747043995"><ele>121.2</ele><time>2026-04-19T12:51:33Z</time></trkpt><trkpt lat="43.44619144959032" lon="10.778569376585247"><ele>121.80000000000001</ele><time>2026-04-19T12:51:34Z</time></trkpt><trkpt lat="43.446299098578855" lon="10.778618013078725"><ele>122.4</ele><time>2026-04-19T12:51:35Z</time></trkpt><trkpt lat="43.44641177804821" lon="10.778662961993192"><ele>123.0</ele><time>2026-04-19T12:51:36Z</time></trkpt><trkpt lat="43.446529044823805" lon="10.77869970106865"><ele>123.0</ele><time>2026-04-19T12:51:37Z</time></trkpt><trkpt lat="43.44664722551969" lon="10.778714672001534"><ele>123.00000000000001</ele><time>2026-04-19T12:51:38Z</time></trkpt><trkpt lat="43.446759206312954" lon="10.778714316034385"><ele>123.00000000000001</ele><time>2026-04-19T12:51:39Z</time></trkpt><trkpt lat="43.44686149946309" lon="10.778707219659342"><ele>123.0</ele><time>2026-04-19T12:51:40Z</time></trkpt><trkpt lat="43.44696804096974" lon="10.778710039042256"><ele>123.0</ele><time>2026-04-19T12:51:41Z</time></trkpt><trkpt lat="43.44708125657813" lon="10.778739134969737"><ele>123.75</ele><time>2026-04-19T12:51:42Z</time></trkpt><trkpt lat="43.4471952935571" lon="10.778775679157155"><ele>124.5</ele><time>2026-04-19T12:51:43Z</time></trkpt><trkpt lat="43.44731285757271" lon="10.778812538951998"><ele>125.25</ele><time>2026-04-19T12:51:44Z</time></trkpt><trkpt lat="43.447428359050896" lon="10.778855956544216"><ele>126.0</ele><time>2026-04-19T12:51:45Z</time></trkpt><trkpt lat="43.44753727536386" lon="10.7788958684476"><ele>126.0</ele><time>2026-04-19T12:51:46Z</time></trkpt><trkpt lat="43.447639524474255" lon="10.778939554180614"><ele>126.0</ele><time>2026-04-19T12:51:47.001Z</time></trkpt><trkpt lat="43.447731942610325" lon="10.77897842688341"><ele>126.0</ele><time>2026-04-19T12:51:48.001Z</time></trkpt><trkpt lat="43.44783213224791" lon="10.778995075139942"><ele>126.0</ele><time>2026-04-19T12:51:49.001Z</time></trkpt><trkpt lat="43.44794310049648" lon="10.778988381891612"><ele>126.0</ele><time>2026-04-19T12:51:50.001Z</time></trkpt><trkpt lat="43.44805955431523" lon="10.77895785567146"><ele>124.0</ele><time>2026-04-19T12:51:51.001Z</time></trkpt><trkpt lat="43.448179359568236" lon="10.77891385781092"><ele>122.0</ele><time>2026-04-19T12:51:52.001Z</time></trkpt><trkpt lat="43.44830171667755" lon="10.778869836315987"><ele>120.0</ele><time>2026-04-19T12:51:53.001Z</time></trkpt><trkpt lat="43.44842473656914" lon="10.778826334187887"><ele>118.0</ele><time>2026-04-19T12:51:54.001Z</time></trkpt><trkpt lat="43.44854507274263" lon="10.77877867220514"><ele>118.0</ele><time>2026-04-19T12:51:55.001Z</time></trkpt><trkpt lat="43.448670088321066" lon="10.778735083606099"><ele>118.0</ele><time>2026-04-19T12:51:56.001Z</time></trkpt><trkpt lat="43.44879998033436" lon="10.778693693894589"><ele>118.0</ele><time>2026-04-19T12:51:57.001Z</time></trkpt><trkpt lat="43.44893153523883" lon="10.778647314974373"><ele>118.0</ele><time>2026-04-19T12:51:58.001Z</time></trkpt><trkpt lat="43.44906823422068" lon="10.778600232696784"><ele>116.66666666666667</ele><time>2026-04-19T12:51:59.001Z</time></trkpt><trkpt lat="43.449212496450464" lon="10.778551490164366"><ele>115.33333333333334</ele><time>2026-04-19T12:52:00.001Z</time></trkpt><trkpt lat="43.44936600009878" lon="10.77850455082318"><ele>114.0</ele><time>2026-04-19T12:52:01.001Z</time></trkpt><trkpt lat="43.449526313619835" lon="10.77845532449086"><ele>116.33333333333334</ele><time>2026-04-19T12:52:02.001Z</time></trkpt><trkpt lat="43.44968106674903" lon="10.778400680888844"><ele>118.66666666666667</ele><time>2026-04-19T12:52:03.001Z</time></trkpt><trkpt lat="43.44983663436356" lon="10.77834346915394"><ele>121.0</ele><time>2026-04-19T12:52:04.001Z</time></trkpt><trkpt lat="43.449986928641465" lon="10.778290396735207"><ele>121.0</ele><time>2026-04-19T12:52:05.001Z</time></trkpt><trkpt lat="43.45012362009692" lon="10.778244019868671"><ele>121.0</ele><time>2026-04-19T12:52:06.001Z</time></trkpt><trkpt lat="43.450256176406775" lon="10.778201502240606"><ele>121.0</ele><time>2026-04-19T12:52:07.001Z</time></trkpt><trkpt lat="43.450383251250024" lon="10.778161005522962"><ele>121.0</ele><time>2026-04-19T12:52:08.001Z</time></trkpt><trkpt lat="43.45050315848847" lon="10.778124899890342"><ele>123.75</ele><time>2026-04-19T12:52:09.001Z</time></trkpt><trkpt lat="43.45061761294075" lon="10.778088756036741"><ele>126.5</ele><time>2026-04-19T12:52:10.001Z</time></trkpt><trkpt lat="43.450728744654526" lon="10.778057692149636"><ele>129.25</ele><time>2026-04-19T12:52:11.001Z</time></trkpt><trkpt lat="43.45084255694158" lon="10.778054611669491"><ele>132.0</ele><time>2026-04-19T12:52:12.001Z</time></trkpt><trkpt lat="43.450955949110245" lon="10.778080263788349"><ele>132.0</ele><time>2026-04-19T12:52:13.001Z</time></trkpt><trkpt lat="43.451073970556415" lon="10.778119699612587"><ele>132.0</ele><time>2026-04-19T12:52:14.001Z</time></trkpt><trkpt lat="43.45119899985096" lon="10.778164694687215"><ele>132.0</ele><time>2026-04-19T12:52:15.001Z</time></trkpt><trkpt lat="43.45133357963946" lon="10.778209332947782"><ele>132.0</ele><time>2026-04-19T12:52:16.001Z</time></trkpt><trkpt lat="43.451478733110214" lon="10.778255343868457"><ele>132.0</ele><time>2026-04-19T12:52:17.001Z</time></trkpt><trkpt lat="43.45162235465564" lon="10.778302399253263"><ele>132.0</ele><time>2026-04-19T12:52:18.001Z</time></trkpt><trkpt lat="43.45175226522253" lon="10.778340788557687"><ele>132.0</ele><time>2026-04-19T12:52:19.001Z</time></trkpt><trkpt lat="43.45185784058674" lon="10.778373405449353"><ele>132.0</ele><time>2026-04-19T12:52:20.001Z</time></trkpt><trkpt lat="43.45192886491014" lon="10.77839788530844"><ele>132.0</ele><time>2026-04-19T12:52:21.001Z</time></trkpt><trkpt lat="43.45199849623833" lon="10.77845327279214"><ele>132.0</ele><time>2026-04-19T12:52:28.002Z</time></trkpt><trkpt lat="43.45210902618552" lon="10.778367036171206"><ele>132.0</ele><time>2026-04-19T12:52:30.002Z</time></trkpt><trkpt lat="43.452177227823626" lon="10.778303364456974"><ele>132.0</ele><time>2026-04-19T12:52:31.002Z</time></trkpt><trkpt lat="43.452252797942236" lon="10.778237936138748"><ele>132.0</ele><time>2026-04-19T12:52:32.002Z</time></trkpt><trkpt lat="43.45231722921256" lon="10.778184966935587"><ele>130.6</ele><time>2026-04-19T12:52:33.002Z</time></trkpt><trkpt lat="43.45241383859873" lon="10.778145470685638"><ele>129.2</ele><time>2026-04-19T12:52:35.002Z</time></trkpt><trkpt lat="43.4524716446812" lon="10.778252218291993"><ele>127.8</ele><time>2026-04-19T12:52:37.002Z</time></trkpt><trkpt lat="43.4524723118518" lon="10.778355986096273"><ele>126.4</ele><time>2026-04-19T12:52:38.002Z</time></trkpt><trkpt lat="43.45247316340383" lon="10.778474838028423"><ele>125.0</ele><time>2026-04-19T12:52:39.002Z</time></trkpt><trkpt lat="43.45246948328346" lon="10.778624208947791"><ele>125.0</ele><time>2026-04-19T12:52:40.002Z</time></trkpt><trkpt lat="43.452468638908755" lon="10.778766986323848"><ele>125.0</ele><time>2026-04-19T12:52:41.002Z</time></trkpt><trkpt lat="43.4524670560308" lon="10.778914267221845"><ele>125.0</ele><time>2026-04-19T12:52:42.002Z</time></trkpt><trkpt lat="43.452494492248654" lon="10.779063430115473"><ele>125.0</ele><time>2026-04-19T12:52:43.002Z</time></trkpt><trkpt lat="43.452538066518734" lon="10.779215295242928"><ele>125.0</ele><time>2026-04-19T12:52:44.002Z</time></trkpt><trkpt lat="43.452578672407526" lon="10.779380095136322"><ele>126.4</ele><time>2026-04-19T12:52:45.002Z</time></trkpt><trkpt lat="43.45261815570962" lon="10.779546162021175"><ele>127.8</ele><time>2026-04-19T12:52:46.002Z</time></trkpt><trkpt lat="43.452668468487595" lon="10.7796595495562"><ele>129.2</ele><time>2026-04-19T12:52:47.002Z</time></trkpt><trkpt lat="43.45272680705235" lon="10.779772297682783"><ele>130.6</ele><time>2026-04-19T12:52:48.002Z</time></trkpt><trkpt lat="43.45278407565374" lon="10.779899170527443"><ele>132.0</ele><time>2026-04-19T12:52:49.002Z</time></trkpt><trkpt lat="43.45284115237112" lon="10.780040923982549"><ele>133.2</ele><time>2026-04-19T12:52:50.002Z</time></trkpt><trkpt lat="43.45289748159367" lon="10.780184517030742"><ele>134.39999999999998</ele><time>2026-04-19T12:52:51.002Z</time></trkpt><trkpt lat="43.452942617327416" lon="10.780311884142252"><ele>135.60000000000002</ele><time>2026-04-19T12:52:52.002Z</time></trkpt><trkpt lat="43.45298108837143" lon="10.780417180135029"><ele>136.8</ele><time>2026-04-19T12:52:53.002Z</time></trkpt><trkpt lat="43.45304240961768" lon="10.780546988488032"><ele>138.0</ele><time>2026-04-19T12:52:55.002Z</time></trkpt><trkpt lat="43.45310167651186" lon="10.780674955168063"><ele>136.33333333333334</ele><time>2026-04-19T12:52:56.999Z</time></trkpt><trkpt lat="43.45313307337095" lon="10.78076110370402"><ele>134.66666666666666</ele><time>2026-04-19T12:52:57.999Z</time></trkpt><trkpt lat="43.45318048489317" lon="10.78084747586621"><ele>133.0</ele><time>2026-04-19T12:52:58.999Z</time></trkpt><trkpt lat="43.45323992886919" lon="10.780926112678818"><ele>131.33333333333331</ele><time>2026-04-19T12:52:59.999Z</time></trkpt><trkpt lat="43.453300005677285" lon="10.78099989064444"><ele>129.66666666666666</ele><time>2026-04-19T12:53:00.999Z</time></trkpt><trkpt lat="43.45336276293535" lon="10.781065802662289"><ele>128.0</ele><time>2026-04-19T12:53:01.999Z</time></trkpt><trkpt lat="43.45345380572719" lon="10.78112957779719"><ele>127.99999999999999</ele><time>2026-04-19T12:53:03.999Z</time></trkpt><trkpt lat="43.45354424759417" lon="10.781158149927583"><ele>128.0</ele><time>2026-04-19T12:53:09.999Z</time></trkpt><trkpt lat="43.45360715779892" lon="10.781170334181502"><ele>128.0</ele><time>2026-04-19T12:53:10.999Z</time></trkpt><trkpt lat="43.45367533294406" lon="10.781198336726208"><ele>128.0</ele><time>2026-04-19T12:53:12Z</time></trkpt><trkpt lat="43.45376027017351" lon="10.781227677873995"><ele>127.99999999999999</ele><time>2026-04-19T12:53:13Z</time></trkpt><trkpt lat="43.45384842433981" lon="10.78125512613324"><ele>128.0</ele><time>2026-04-19T12:53:14Z</time></trkpt><trkpt lat="43.45393690854097" lon="10.781284100052371"><ele>126.83333333333333</ele><time>2026-04-19T12:53:15Z</time></trkpt><trkpt lat="43.454025138025635" lon="10.781309113617644"><ele>125.66666666666666</ele><time>2026-04-19T12:53:16Z</time></trkpt><trkpt lat="43.45411088110485" lon="10.781328597459412"><ele>124.5</ele><time>2026-04-19T12:53:17Z</time></trkpt><trkpt lat="43.4541923957359" lon="10.781338804709936"><ele>123.33333333333334</ele><time>2026-04-19T12:53:18Z</time></trkpt><trkpt lat="43.454269345304" lon="10.78134975806985"><ele>122.16666666666667</ele><time>2026-04-19T12:53:19Z</time></trkpt><trkpt lat="43.45434813844309" lon="10.781361364854257"><ele>121.0</ele><time>2026-04-19T12:53:20Z</time></trkpt><trkpt lat="43.45442689698154" lon="10.7813670381242"><ele>121.00000000000001</ele><time>2026-04-19T12:53:21Z</time></trkpt><trkpt lat="43.454509146065156" lon="10.781349827850889"><ele>121.0</ele><time>2026-04-19T12:53:22Z</time></trkpt><trkpt lat="43.45458673894528" lon="10.781325442309509"><ele>121.0</ele><time>2026-04-19T12:53:23Z</time></trkpt><trkpt lat="43.45465977021028" lon="10.781276259297409"><ele>121.0</ele><time>2026-04-19T12:53:24Z</time></trkpt><trkpt lat="43.45473347749708" lon="10.78120437411941"><ele>121.00000000000001</ele><time>2026-04-19T12:53:25Z</time></trkpt><trkpt lat="43.45480833392588" lon="10.781125870480352"><ele>121.0</ele><time>2026-04-19T12:53:26Z</time></trkpt><trkpt lat="43.454888045159116" lon="10.78105615924848"><ele>118.50000000000001</ele><time>2026-04-19T12:53:27Z</time></trkpt><trkpt lat="43.45496131385211" lon="10.78097521278112"><ele>116.0</ele><time>2026-04-19T12:53:28Z</time></trkpt><trkpt lat="43.45503030014129" lon="10.7808831465598"><ele>113.5</ele><time>2026-04-19T12:53:29Z</time></trkpt><trkpt lat="43.45509452350252" lon="10.780798056567964"><ele>111.0</ele><time>2026-04-19T12:53:30Z</time></trkpt><trkpt lat="43.45515933525194" lon="10.78073516969634"><ele>108.50000000000001</ele><time>2026-04-19T12:53:31Z</time></trkpt><trkpt lat="43.45524132682852" lon="10.78070024272644"><ele>106.0</ele><time>2026-04-19T12:53:32Z</time></trkpt><trkpt lat="43.455324660357604" lon="10.780701909288483"><ele>106.00000000000001</ele><time>2026-04-19T12:53:33Z</time></trkpt><trkpt lat="43.45541335852756" lon="10.780723421125263"><ele>106.0</ele><time>2026-04-19T12:53:34Z</time></trkpt><trkpt lat="43.45548476152714" lon="10.780766067835676"><ele>106.0</ele><time>2026-04-19T12:53:35Z</time></trkpt><trkpt lat="43.4555522461229" lon="10.780813667034273"><ele>106.0</ele><time>2026-04-19T12:53:36Z</time></trkpt><trkpt lat="43.455626016703654" lon="10.78085009157719"><ele>106.00000000000001</ele><time>2026-04-19T12:53:37Z</time></trkpt><trkpt lat="43.4556979656323" lon="10.780895716605766"><ele>106.0</ele><time>2026-04-19T12:53:38Z</time></trkpt><trkpt lat="43.455760684912725" lon="10.780938279001733"><ele>106.0</ele><time>2026-04-19T12:53:39Z</time></trkpt><trkpt lat="43.45582825885757" lon="10.780977933194922"><ele>106.0</ele><time>2026-04-19T12:53:40Z</time></trkpt><trkpt lat="43.455896687057546" lon="10.781014358379233"><ele>106.0</ele><time>2026-04-19T12:53:41Z</time></trkpt><trkpt lat="43.45596651033039" lon="10.781048682185938"><ele>106.0</ele><time>2026-04-19T12:53:42.001Z</time></trkpt><trkpt lat="43.456037245822905" lon="10.78108038363501"><ele>106.0</ele><time>2026-04-19T12:53:43.001Z</time></trkpt><trkpt lat="43.45610552188015" lon="10.781111222940782"><ele>106.0</ele><time>2026-04-19T12:53:44.001Z</time></trkpt><trkpt lat="43.45617483553104" lon="10.781146800051818"><ele>106.0</ele><time>2026-04-19T12:53:45.001Z</time></trkpt><trkpt lat="43.456241286138216" lon="10.781195369833231"><ele>103.00000000000001</ele><time>2026-04-19T12:53:46.001Z</time></trkpt><trkpt lat="43.456298355983414" lon="10.781265094121652"><ele>100.0</ele><time>2026-04-19T12:53:47.001Z</time></trkpt><trkpt lat="43.45634241687677" lon="10.781350329058924"><ele>97.0</ele><time>2026-04-19T12:53:48.001Z</time></trkpt><trkpt lat="43.456372019075786" lon="10.781447079815152"><ele>94.0</ele><time>2026-04-19T12:53:49.001Z</time></trkpt><trkpt lat="43.456390247702444" lon="10.781548603913704"><ele>91.0</ele><time>2026-04-19T12:53:50.001Z</time></trkpt><trkpt lat="43.456427655250046" lon="10.781643301893334"><ele>88.0</ele><time>2026-04-19T12:53:51.001Z</time></trkpt><trkpt lat="43.45649369641299" lon="10.78172148410213"><ele>88.0</ele><time>2026-04-19T12:53:52.001Z</time></trkpt><trkpt lat="43.456583681681806" lon="10.781770662148539"><ele>88.0</ele><time>2026-04-19T12:53:53.001Z</time></trkpt><trkpt lat="43.45668433205437" lon="10.781775211577395"><ele>88.0</ele><time>2026-04-19T12:53:54.001Z</time></trkpt><trkpt lat="43.45678148427358" lon="10.781776972405073"><ele>88.0</ele><time>2026-04-19T12:53:55.001Z</time></trkpt><trkpt lat="43.45687536494894" lon="10.781788664770168"><ele>88.0</ele><time>2026-04-19T12:53:56.001Z</time></trkpt><trkpt lat="43.4569652453871" lon="10.781798940179316"><ele>88.0</ele><time>2026-04-19T12:53:57.001Z</time></trkpt><trkpt lat="43.45705277971662" lon="10.781809562365638"><ele>88.0</ele><time>2026-04-19T12:53:58.001Z</time></trkpt><trkpt lat="43.45713910700791" lon="10.781817037265293"><ele>88.0</ele><time>2026-04-19T12:53:59.001Z</time></trkpt><trkpt lat="43.4572236069573" lon="10.781823330898959"><ele>88.0</ele><time>2026-04-19T12:54:00.001Z</time></trkpt><trkpt lat="43.45730145965746" lon="10.781824258576794"><ele>88.0</ele><time>2026-04-19T12:54:01.001Z</time></trkpt><trkpt lat="43.4573781063171" lon="10.781829766801236"><ele>88.0</ele><time>2026-04-19T12:54:02.001Z</time></trkpt><trkpt lat="43.45744952619756" lon="10.781845390959397"><ele>87.16666666666666</ele><time>2026-04-19T12:54:03.001Z</time></trkpt><trkpt lat="43.45751242434364" lon="10.781884989061519"><ele>86.33333333333333</ele><time>2026-04-19T12:54:04.001Z</time></trkpt><trkpt lat="43.457561226442" lon="10.781947044027449"><ele>85.5</ele><time>2026-04-19T12:54:05.001Z</time></trkpt><trkpt lat="43.45760446647732" lon="10.782076358345673"><ele>84.66666666666667</ele><time>2026-04-19T12:54:07.001Z</time></trkpt><trkpt lat="43.45769424030766" lon="10.782126451739687"><ele>83.83333333333334</ele><time>2026-04-19T12:54:12.001Z</time></trkpt><trkpt lat="43.45775809694871" lon="10.782076709400338"><ele>83.0</ele><time>2026-04-19T12:54:13.001Z</time></trkpt><trkpt lat="43.45781048588146" lon="10.782013514214643"><ele>83.0</ele><time>2026-04-19T12:54:14.001Z</time></trkpt><trkpt lat="43.45787749635363" lon="10.781940465689003"><ele>83.0</ele><time>2026-04-19T12:54:15.001Z</time></trkpt><trkpt lat="43.45794711055381" lon="10.781863705665913"><ele>83.0</ele><time>2026-04-19T12:54:16.001Z</time></trkpt><trkpt lat="43.45802000100633" lon="10.781785636484088"><ele>83.0</ele><time>2026-04-19T12:54:17.001Z</time></trkpt><trkpt lat="43.45810284899" lon="10.781697747498354"><ele>83.0</ele><time>2026-04-19T12:54:18.001Z</time></trkpt><trkpt lat="43.45819310703367" lon="10.781602449382717"><ele>83.0</ele><time>2026-04-19T12:54:19.001Z</time></trkpt><trkpt lat="43.45828322926383" lon="10.781504158433327"><ele>83.0</ele><time>2026-04-19T12:54:20.002Z</time></trkpt><trkpt lat="43.4583741643299" lon="10.78140887900295"><ele>83.0</ele><time>2026-04-19T12:54:21.002Z</time></trkpt><trkpt lat="43.458470024959226" lon="10.781311071682598"><ele>83.0</ele><time>2026-04-19T12:54:22.002Z</time></trkpt><trkpt lat="43.4585681614707" lon="10.781208410814228"><ele>83.0</ele><time>2026-04-19T12:54:23.002Z</time></trkpt><trkpt lat="43.458668695431115" lon="10.781101786719255"><ele>83.0</ele><time>2026-04-19T12:54:24.002Z</time></trkpt><trkpt lat="43.4587710869671" lon="10.78099110895543"><ele>83.0</ele><time>2026-04-19T12:54:25.002Z</time></trkpt><trkpt lat="43.458876890174736" lon="10.780878169151245"><ele>83.0</ele><time>2026-04-19T12:54:26.002Z</time></trkpt><trkpt lat="43.45898501635203" lon="10.78076443805515"><ele>82.75</ele><time>2026-04-19T12:54:27.002Z</time></trkpt><trkpt lat="43.45909529677414" lon="10.780647649320997"><ele>82.5</ele><time>2026-04-19T12:54:28.002Z</time></trkpt><trkpt lat="43.459207241633464" lon="10.78053095534457"><ele>82.25</ele><time>2026-04-19T12:54:29.002Z</time></trkpt><trkpt lat="43.45932063062724" lon="10.780412608736526"><ele>82.0</ele><time>2026-04-19T12:54:30.002Z</time></trkpt><trkpt lat="43.45943514226354" lon="10.780292609108521"><ele>82.5</ele><time>2026-04-19T12:54:31.002Z</time></trkpt><trkpt lat="43.45954995237063" lon="10.78017183690269"><ele>83.0</ele><time>2026-04-19T12:54:32.002Z</time></trkpt><trkpt lat="43.45966490147843" lon="10.780049270116805"><ele>83.5</ele><time>2026-04-19T12:54:33.002Z</time></trkpt><trkpt lat="43.459780775773396" lon="10.779926968471763"><ele>84.0</ele><time>2026-04-19T12:54:34.002Z</time></trkpt><trkpt lat="43.45989761693884" lon="10.779804398816072"><ele>84.0</ele><time>2026-04-19T12:54:35.002Z</time></trkpt><trkpt lat="43.460016385886505" lon="10.77968192917229"><ele>84.0</ele><time>2026-04-19T12:54:36.002Z</time></trkpt><trkpt lat="43.46013641163595" lon="10.779559676345317"><ele>84.0</ele><time>2026-04-19T12:54:37.002Z</time></trkpt><trkpt lat="43.460253642679454" lon="10.779437032054282"><ele>84.0</ele><time>2026-04-19T12:54:38.002Z</time></trkpt><trkpt lat="43.460370865974646" lon="10.779315698199845"><ele>84.25</ele><time>2026-04-19T12:54:39.002Z</time></trkpt><trkpt lat="43.460487390687156" lon="10.779191816903923"><ele>84.5</ele><time>2026-04-19T12:54:40.002Z</time></trkpt><trkpt lat="43.46060418482362" lon="10.779066479719805"><ele>84.75</ele><time>2026-04-19T12:54:41.002Z</time></trkpt><trkpt lat="43.46072221484123" lon="10.778942795843987"><ele>85.0</ele><time>2026-04-19T12:54:42.002Z</time></trkpt><trkpt lat="43.46084237392044" lon="10.778820514543044"><ele>85.0</ele><time>2026-04-19T12:54:43.002Z</time></trkpt><trkpt lat="43.460962929537935" lon="10.778695266094697"><ele>85.0</ele><time>2026-04-19T12:54:44.002Z</time></trkpt><trkpt lat="43.46108440690902" lon="10.778570188456417"><ele>85.0</ele><time>2026-04-19T12:54:45.002Z</time></trkpt><trkpt lat="43.461206142109795" lon="10.778446212065575"><ele>84.33333333333333</ele><time>2026-04-19T12:54:46.002Z</time></trkpt><trkpt lat="43.46133169724331" lon="10.778328316546666"><ele>83.66666666666667</ele><time>2026-04-19T12:54:47.002Z</time></trkpt><trkpt lat="43.46145913733324" lon="10.778213061367966"><ele>83.0</ele><time>2026-04-19T12:54:48.002Z</time></trkpt><trkpt lat="43.461591373359184" lon="10.778102535239167"><ele>83.0</ele><time>2026-04-19T12:54:49.002Z</time></trkpt><trkpt lat="43.46172616405765" lon="10.777992405673098"><ele>83.0</ele><time>2026-04-19T12:54:50.002Z</time></trkpt><trkpt lat="43.46186272997077" lon="10.777882247820173"><ele>83.0</ele><time>2026-04-19T12:54:51.002Z</time></trkpt><trkpt lat="43.461999906777045" lon="10.777774059024335"><ele>83.0</ele><time>2026-04-19T12:54:52.002Z</time></trkpt><trkpt lat="43.46213769027221" lon="10.777665679916717"><ele>83.0</ele><time>2026-04-19T12:54:53.002Z</time></trkpt><trkpt lat="43.462277656278516" lon="10.777556456351846"><ele>83.0</ele><time>2026-04-19T12:54:54.002Z</time></trkpt><trkpt lat="43.462418707504526" lon="10.777445113244925"><ele>83.0</ele><time>2026-04-19T12:54:55.002Z</time></trkpt><trkpt lat="43.46256323405201" lon="10.777331925998274"><ele>83.0</ele><time>2026-04-19T12:54:56.002Z</time></trkpt><trkpt lat="43.462708896327655" lon="10.777216785604365"><ele>83.0</ele><time>2026-04-19T12:54:57.002Z</time></trkpt><trkpt lat="43.4628571312724" lon="10.777098913310008"><ele>82.33333333333334</ele><time>2026-04-19T12:54:58.002Z</time></trkpt><trkpt lat="43.46300787747164" lon="10.776981213513043"><ele>81.66666666666667</ele><time>2026-04-19T12:54:59.003Z</time></trkpt><trkpt lat="43.46316085094511" lon="10.776862679128214"><ele>81.0</ele><time>2026-04-19T12:55:00.003Z</time></trkpt><trkpt lat="43.46331359237109" lon="10.776741635226623"><ele>81.0</ele><time>2026-04-19T12:55:01.003Z</time></trkpt><trkpt lat="43.463468025355574" lon="10.77661951469516"><ele>81.0</ele><time>2026-04-19T12:55:02.003Z</time></trkpt><trkpt lat="43.463620785633736" lon="10.776500393529943"><ele>81.0</ele><time>2026-04-19T12:55:03Z</time></trkpt><trkpt lat="43.46377392253976" lon="10.776378962017773"><ele>80.33333333333333</ele><time>2026-04-19T12:55:04Z</time></trkpt><trkpt lat="43.463928259276045" lon="10.77625635495719"><ele>79.66666666666666</ele><time>2026-04-19T12:55:05Z</time></trkpt><trkpt lat="43.464083119215545" lon="10.776135509841412"><ele>79.0</ele><time>2026-04-19T12:55:06Z</time></trkpt><trkpt lat="43.464237265720506" lon="10.776014086052752"><ele>79.0</ele><time>2026-04-19T12:55:07Z</time></trkpt><trkpt lat="43.46439178171817" lon="10.775892990196116"><ele>79.0</ele><time>2026-04-19T12:55:08Z</time></trkpt><trkpt lat="43.46454558452443" lon="10.775772552530245"><ele>79.0</ele><time>2026-04-19T12:55:09Z</time></trkpt><trkpt lat="43.46469926226406" lon="10.775650758042076"><ele>79.0</ele><time>2026-04-19T12:55:10Z</time></trkpt><trkpt lat="43.46485248637733" lon="10.775527684807267"><ele>79.0</ele><time>2026-04-19T12:55:11Z</time></trkpt><trkpt lat="43.46500562781861" lon="10.77540402597065"><ele>79.0</ele><time>2026-04-19T12:55:12Z</time></trkpt><trkpt lat="43.46515612987535" lon="10.77528394329972"><ele>78.66666666666666</ele><time>2026-04-19T12:55:13Z</time></trkpt><trkpt lat="43.465304709556214" lon="10.775164985413282"><ele>78.33333333333333</ele><time>2026-04-19T12:55:14Z</time></trkpt><trkpt lat="43.46545516682559" lon="10.775045208794985"><ele>78.0</ele><time>2026-04-19T12:55:15Z</time></trkpt><trkpt lat="43.46560843747216" lon="10.774928121142345"><ele>78.0</ele><time>2026-04-19T12:55:16Z</time></trkpt><trkpt lat="43.465765819020945" lon="10.774830382199765"><ele>78.0</ele><time>2026-04-19T12:55:17Z</time></trkpt><trkpt lat="43.465924475383396" lon="10.774750409284378"><ele>78.0</ele><time>2026-04-19T12:55:18Z</time></trkpt><trkpt lat="43.466085081985455" lon="10.774687059191665"><ele>78.0</ele><time>2026-04-19T12:55:19Z</time></trkpt><trkpt lat="43.466247679485235" lon="10.774636967871446"><ele>78.0</ele><time>2026-04-19T12:55:20Z</time></trkpt><trkpt lat="43.466409950460324" lon="10.774589854466408"><ele>78.0</ele><time>2026-04-19T12:55:21Z</time></trkpt><trkpt lat="43.4665704665667" lon="10.774542936339648"><ele>77.66666666666667</ele><time>2026-04-19T12:55:22Z</time></trkpt><trkpt lat="43.46672944997533" lon="10.774494451910586"><ele>77.33333333333334</ele><time>2026-04-19T12:55:23Z</time></trkpt><trkpt lat="43.46688626258748" lon="10.774446551298254"><ele>77.0</ele><time>2026-04-19T12:55:24Z</time></trkpt><trkpt lat="43.46704209218586" lon="10.774402643792547"><ele>77.0</ele><time>2026-04-19T12:55:25Z</time></trkpt><trkpt lat="43.46719777688346" lon="10.774359902482843"><ele>77.0</ele><time>2026-04-19T12:55:26Z</time></trkpt><trkpt lat="43.46734929830844" lon="10.774315125493644"><ele>77.0</ele><time>2026-04-19T12:55:27Z</time></trkpt><trkpt lat="43.467496190665756" lon="10.774261959691348"><ele>79.0</ele><time>2026-04-19T12:55:28Z</time></trkpt><trkpt lat="43.467636334168695" lon="10.774192797530283"><ele>81.0</ele><time>2026-04-19T12:55:29Z</time></trkpt><trkpt lat="43.46777016171936" lon="10.77409943134331"><ele>83.0</ele><time>2026-04-19T12:55:30Z</time></trkpt><trkpt lat="43.46789893894417" lon="10.773989341486624"><ele>81.33333333333334</ele><time>2026-04-19T12:55:31Z</time></trkpt><trkpt lat="43.4680243294878" lon="10.773864774231669"><ele>79.66666666666667</ele><time>2026-04-19T12:55:32Z</time></trkpt><trkpt lat="43.468150329494826" lon="10.773733525371357"><ele>78.0</ele><time>2026-04-19T12:55:33Z</time></trkpt><trkpt lat="43.4682770106518" lon="10.773600295141952"><ele>80.66666666666667</ele><time>2026-04-19T12:55:34Z</time></trkpt><trkpt lat="43.46840404754962" lon="10.773468013713254"><ele>83.33333333333334</ele><time>2026-04-19T12:55:35Z</time></trkpt><trkpt lat="43.46853144714276" lon="10.773337752010193"><ele>86.0</ele><time>2026-04-19T12:55:36Z</time></trkpt><trkpt lat="43.46865855426757" lon="10.773204017323678"><ele>83.0</ele><time>2026-04-19T12:55:37.001Z</time></trkpt><trkpt lat="43.46879015415606" lon="10.773068818964921"><ele>80.0</ele><time>2026-04-19T12:55:38.001Z</time></trkpt><trkpt lat="43.468921340744615" lon="10.772934375794529"><ele>77.0</ele><time>2026-04-19T12:55:39.001Z</time></trkpt><trkpt lat="43.46905518572026" lon="10.772798391526308"><ele>78.66666666666667</ele><time>2026-04-19T12:55:40.001Z</time></trkpt><trkpt lat="43.46918909449685" lon="10.772659012402604"><ele>80.33333333333333</ele><time>2026-04-19T12:55:41.001Z</time></trkpt><trkpt lat="43.469321965146904" lon="10.772520123169388"><ele>82.0</ele><time>2026-04-19T12:55:42.001Z</time></trkpt><trkpt lat="43.46945635070205" lon="10.772378358881918"><ele>82.0</ele><time>2026-04-19T12:55:43.001Z</time></trkpt><trkpt lat="43.46958881420576" lon="10.77223502543457"><ele>82.0</ele><time>2026-04-19T12:55:44.001Z</time></trkpt><trkpt lat="43.469722177371594" lon="10.77208882274158"><ele>82.0</ele><time>2026-04-19T12:55:45.001Z</time></trkpt><trkpt lat="43.46985747692967" lon="10.771937494546243"><ele>82.33333333333333</ele><time>2026-04-19T12:55:46.001Z</time></trkpt><trkpt lat="43.469993659111985" lon="10.771775809157756"><ele>82.66666666666667</ele><time>2026-04-19T12:55:47.001Z</time></trkpt><trkpt lat="43.470135179680085" lon="10.771608752151963"><ele>83.0</ele><time>2026-04-19T12:55:48.001Z</time></trkpt><trkpt lat="43.470276843958025" lon="10.771446118438467"><ele>83.0</ele><time>2026-04-19T12:55:49.001Z</time></trkpt><trkpt lat="43.4704189346353" lon="10.77127954743683"><ele>83.0</ele><time>2026-04-19T12:55:50.001Z</time></trkpt><trkpt lat="43.47056315726338" lon="10.771107922563507"><ele>83.0</ele><time>2026-04-19T12:55:51.001Z</time></trkpt><trkpt lat="43.47071184748839" lon="10.770928913613695"><ele>81.66666666666667</ele><time>2026-04-19T12:55:52.001Z</time></trkpt><trkpt lat="43.47085837287433" lon="10.770733686375973"><ele>80.33333333333333</ele><time>2026-04-19T12:55:53.001Z</time></trkpt><trkpt lat="43.47099909910158" lon="10.770525030321267"><ele>79.0</ele><time>2026-04-19T12:55:54.001Z</time></trkpt><trkpt lat="43.47113093010561" lon="10.770315836989848"><ele>77.66666666666666</ele><time>2026-04-19T12:55:55.001Z</time></trkpt><trkpt lat="43.47125552636856" lon="10.770109039808206"><ele>76.33333333333333</ele><time>2026-04-19T12:55:56.001Z</time></trkpt><trkpt lat="43.47137571324522" lon="10.769904144872596"><ele>75.0</ele><time>2026-04-19T12:55:57.001Z</time></trkpt><trkpt lat="43.47148908388566" lon="10.769700096843938"><ele>75.0</ele><time>2026-04-19T12:55:58.001Z</time></trkpt><trkpt lat="43.47159264957851" lon="10.769494914177669"><ele>75.0</ele><time>2026-04-19T12:55:59.001Z</time></trkpt><trkpt lat="43.47168597162274" lon="10.769287795838776"><ele>75.0</ele><time>2026-04-19T12:56:00.001Z</time></trkpt><trkpt lat="43.471765001750924" lon="10.769078695254095"><ele>76.0</ele><time>2026-04-19T12:56:01.001Z</time></trkpt><trkpt lat="43.47183000064921" lon="10.768866739356021"><ele>77.0</ele><time>2026-04-19T12:56:02.001Z</time></trkpt><trkpt lat="43.47188652688779" lon="10.768658997301294"><ele>78.0</ele><time>2026-04-19T12:56:03.001Z</time></trkpt><trkpt lat="43.47194172880804" lon="10.768458991900227"><ele>78.0</ele><time>2026-04-19T12:56:04.001Z</time></trkpt><trkpt lat="43.4719987281412" lon="10.768262562862242"><ele>78.0</ele><time>2026-04-19T12:56:05.001Z</time></trkpt><trkpt lat="43.4720552971075" lon="10.768064524446912"><ele>78.0</ele><time>2026-04-19T12:56:06.001Z</time></trkpt><trkpt lat="43.472111388884414" lon="10.767863057673686"><ele>77.33333333333333</ele><time>2026-04-19T12:56:07.001Z</time></trkpt><trkpt lat="43.472166595419615" lon="10.767659980333443"><ele>76.66666666666666</ele><time>2026-04-19T12:56:08.001Z</time></trkpt><trkpt lat="43.472224261499385" lon="10.767454457687784"><ele>76.0</ele><time>2026-04-19T12:56:09.001Z</time></trkpt><trkpt lat="43.472280769354626" lon="10.767244853348185"><ele>76.0</ele><time>2026-04-19T12:56:10.001Z</time></trkpt><trkpt lat="43.47233956612473" lon="10.767030361736397"><ele>76.0</ele><time>2026-04-19T12:56:11.001Z</time></trkpt><trkpt lat="43.47239853782624" lon="10.766817518955307"><ele>76.0</ele><time>2026-04-19T12:56:12.001Z</time></trkpt><trkpt lat="43.47245718690218" lon="10.766609432542547"><ele>76.0</ele><time>2026-04-19T12:56:13.001Z</time></trkpt><trkpt lat="43.47251348766629" lon="10.766398967083669"><ele>76.0</ele><time>2026-04-19T12:56:14.001Z</time></trkpt><trkpt lat="43.47257013353319" lon="10.766189613258028"><ele>76.0</ele><time>2026-04-19T12:56:15.002Z</time></trkpt><trkpt lat="43.472627138798536" lon="10.765979818146336"><ele>76.66666666666666</ele><time>2026-04-19T12:56:16.002Z</time></trkpt><trkpt lat="43.47268605910023" lon="10.765772208350205"><ele>77.33333333333333</ele><time>2026-04-19T12:56:17.002Z</time></trkpt><trkpt lat="43.47274713163367" lon="10.765566242878572"><ele>78.0</ele><time>2026-04-19T12:56:18.002Z</time></trkpt><trkpt lat="43.472802422190824" lon="10.765356348328336"><ele>78.33333333333333</ele><time>2026-04-19T12:56:19.002Z</time></trkpt><trkpt lat="43.472850711085464" lon="10.765143618148457"><ele>78.66666666666666</ele><time>2026-04-19T12:56:20.002Z</time></trkpt><trkpt lat="43.472889990130135" lon="10.764935034900196"><ele>79.0</ele><time>2026-04-19T12:56:21.002Z</time></trkpt><trkpt lat="43.47291980182756" lon="10.764730606190032"><ele>79.0</ele><time>2026-04-19T12:56:22.002Z</time></trkpt><trkpt lat="43.472943449706754" lon="10.76453055314269"><ele>79.0</ele><time>2026-04-19T12:56:23.002Z</time></trkpt><trkpt lat="43.472963573250375" lon="10.764337700890055"><ele>79.0</ele><time>2026-04-19T12:56:24.002Z</time></trkpt><trkpt lat="43.472980219204686" lon="10.764152383203665"><ele>79.0</ele><time>2026-04-19T12:56:25.002Z</time></trkpt><trkpt lat="43.47299394005691" lon="10.763982719040294"><ele>79.0</ele><time>2026-04-19T12:56:26.002Z</time></trkpt><trkpt lat="43.47300562012993" lon="10.763831915694926"><ele>79.0</ele><time>2026-04-19T12:56:27.002Z</time></trkpt><trkpt lat="43.47301443396565" lon="10.76370230278377"><ele>79.0</ele><time>2026-04-19T12:56:28.002Z</time></trkpt><trkpt lat="43.473021723530884" lon="10.763599349845585"><ele>79.0</ele><time>2026-04-19T12:56:29.002Z</time></trkpt><trkpt lat="43.473027287746106" lon="10.76351187424734"><ele>79.0</ele><time>2026-04-19T12:56:30.002Z</time></trkpt><trkpt lat="43.47303516333517" lon="10.763407224510027"><ele>79.0</ele><time>2026-04-19T12:56:32.002Z</time></trkpt><trkpt lat="43.47303149723726" lon="10.763294635475896"><ele>79.66666666666666</ele><time>2026-04-19T12:56:38.002Z</time></trkpt><trkpt lat="43.47304002222638" lon="10.76314969629543"><ele>80.33333333333333</ele><time>2026-04-19T12:56:40.002Z</time></trkpt><trkpt lat="43.47306193927191" lon="10.763062880567194"><ele>81.0</ele><time>2026-04-19T12:56:41.002Z</time></trkpt><trkpt lat="43.473091237414714" lon="10.762959575421139"><ele>81.66666666666667</ele><time>2026-04-19T12:56:42.002Z</time></trkpt><trkpt lat="43.47312557435835" lon="10.762854510201077"><ele>82.33333333333334</ele><time>2026-04-19T12:56:43.002Z</time></trkpt><trkpt lat="43.47317498429457" lon="10.762755837348482"><ele>83.0</ele><time>2026-04-19T12:56:44.002Z</time></trkpt><trkpt lat="43.47324239843341" lon="10.762667195958407"><ele>84.2</ele><time>2026-04-19T12:56:45.002Z</time></trkpt><trkpt lat="43.47331393984392" lon="10.76260252814223"><ele>85.4</ele><time>2026-04-19T12:56:46.002Z</time></trkpt><trkpt lat="43.47339248939681" lon="10.762541504853376"><ele>86.60000000000001</ele><time>2026-04-19T12:56:47.002Z</time></trkpt><trkpt lat="43.473476504546774" lon="10.762484241869638"><ele>87.80000000000001</ele><time>2026-04-19T12:56:48.002Z</time></trkpt><trkpt lat="43.47356748459143" lon="10.762424732354054"><ele>89.0</ele><time>2026-04-19T12:56:49.002Z</time></trkpt><trkpt lat="43.47366212576494" lon="10.7623570568533"><ele>89.0</ele><time>2026-04-19T12:56:50.002Z</time></trkpt><trkpt lat="43.47375800926929" lon="10.762275717786169"><ele>89.0</ele><time>2026-04-19T12:56:51.002Z</time></trkpt><trkpt lat="43.47385705891478" lon="10.762194098439458"><ele>89.0</ele><time>2026-04-19T12:56:52.002Z</time></trkpt><trkpt lat="43.473959051576884" lon="10.762109205116388"><ele>89.0</ele><time>2026-04-19T12:56:53.002Z</time></trkpt><trkpt lat="43.47406198918044" lon="10.762023634831415"><ele>89.0</ele><time>2026-04-19T12:56:54.003Z</time></trkpt><trkpt lat="43.474159419136846" lon="10.761943214780711"><ele>89.0</ele><time>2026-04-19T12:56:55.003Z</time></trkpt><trkpt lat="43.47425543993057" lon="10.761861183675505"><ele>89.0</ele><time>2026-04-19T12:56:56.003Z</time></trkpt><trkpt lat="43.47435051813328" lon="10.761775074274098"><ele>89.0</ele><time>2026-04-19T12:56:57.003Z</time></trkpt><trkpt lat="43.47444806035548" lon="10.761687690113542"><ele>90.5</ele><time>2026-04-19T12:56:58.003Z</time></trkpt><trkpt lat="43.47454718232071" lon="10.761606627983618"><ele>92.0</ele><time>2026-04-19T12:56:59.003Z</time></trkpt><trkpt lat="43.474651681175324" lon="10.761527107816615"><ele>93.5</ele><time>2026-04-19T12:57:00.003Z</time></trkpt><trkpt lat="43.474758385030995" lon="10.761445275346702"><ele>95.0</ele><time>2026-04-19T12:57:01.003Z</time></trkpt><trkpt lat="43.474864364205125" lon="10.761356200257465"><ele>95.0</ele><time>2026-04-19T12:57:02.003Z</time></trkpt><trkpt lat="43.47496659552794" lon="10.76125237481748"><ele>95.0</ele><time>2026-04-19T12:57:03.003Z</time></trkpt><trkpt lat="43.47505744779042" lon="10.761132449952395"><ele>95.0</ele><time>2026-04-19T12:57:04.003Z</time></trkpt><trkpt lat="43.47513279497972" lon="10.76100504968896"><ele>95.0</ele><time>2026-04-19T12:57:05.003Z</time></trkpt><trkpt lat="43.47518499966865" lon="10.760871313976223"><ele>97.4</ele><time>2026-04-19T12:57:06.003Z</time></trkpt><trkpt lat="43.47521829386027" lon="10.760724264008303"><ele>99.8</ele><time>2026-04-19T12:57:07.003Z</time></trkpt><trkpt lat="43.47524046583254" lon="10.760572187534464"><ele>102.19999999999999</ele><time>2026-04-19T12:57:08.003Z</time></trkpt><trkpt lat="43.47525555574574" lon="10.760420577431335"><ele>104.6</ele><time>2026-04-19T12:57:09Z</time></trkpt><trkpt lat="43.47525800122538" lon="10.760271197939034"><ele>107.0</ele><time>2026-04-19T12:57:10Z</time></trkpt><trkpt lat="43.47525289817541" lon="10.760133540027441"><ele>108.19999999999999</ele><time>2026-04-19T12:57:11Z</time></trkpt><trkpt lat="43.475243772307316" lon="10.760003224699604"><ele>109.39999999999999</ele><time>2026-04-19T12:57:12Z</time></trkpt><trkpt lat="43.4752336371475" lon="10.75986975167541"><ele>110.60000000000001</ele><time>2026-04-19T12:57:13Z</time></trkpt><trkpt lat="43.47522731549262" lon="10.759741448734282"><ele>111.80000000000001</ele><time>2026-04-19T12:57:14Z</time></trkpt><trkpt lat="43.475223608449504" lon="10.75961002115286"><ele>113.0</ele><time>2026-04-19T12:57:15Z</time></trkpt><trkpt lat="43.475219988486366" lon="10.759480006853313"><ele>113.33333333333333</ele><time>2026-04-19T12:57:16Z</time></trkpt><trkpt lat="43.47521461242377" lon="10.75935483382327"><ele>113.66666666666666</ele><time>2026-04-19T12:57:17Z</time></trkpt><trkpt lat="43.475206687996526" lon="10.759230045450224"><ele>114.0</ele><time>2026-04-19T12:57:18Z</time></trkpt><trkpt lat="43.47520107956476" lon="10.759107996610362"><ele>114.33333333333334</ele><time>2026-04-19T12:57:19Z</time></trkpt><trkpt lat="43.475190936697096" lon="10.758994026387589"><ele>114.66666666666667</ele><time>2026-04-19T12:57:20Z</time></trkpt><trkpt lat="43.475176575004475" lon="10.758881932386304"><ele>115.0</ele><time>2026-04-19T12:57:21Z</time></trkpt><trkpt lat="43.475155667013794" lon="10.758775828568874"><ele>114.99999999999999</ele><time>2026-04-19T12:57:22Z</time></trkpt><trkpt lat="43.475137236223844" lon="10.758683370846775"><ele>115.0</ele><time>2026-04-19T12:57:23Z</time></trkpt><trkpt lat="43.47512002215751" lon="10.758589974403927"><ele>114.99999999999999</ele><time>2026-04-19T12:57:24Z</time></trkpt><trkpt lat="43.47510401947497" lon="10.758494723114874"><ele>114.99999999999999</ele><time>2026-04-19T12:57:25Z</time></trkpt><trkpt lat="43.475086807451945" lon="10.758400159256173"><ele>115.0</ele><time>2026-04-19T12:57:26Z</time></trkpt><trkpt lat="43.475062828187646" lon="10.7583100302552"><ele>114.99999999999999</ele><time>2026-04-19T12:57:27Z</time></trkpt><trkpt lat="43.47503173391763" lon="10.758227134189019"><ele>114.99999999999999</ele><time>2026-04-19T12:57:28Z</time></trkpt><trkpt lat="43.47500035018038" lon="10.758150473486428"><ele>116.2</ele><time>2026-04-19T12:57:29Z</time></trkpt><trkpt lat="43.474931963003286" lon="10.758020119321632"><ele>117.4</ele><time>2026-04-19T12:57:31Z</time></trkpt><trkpt lat="43.474874164916116" lon="10.757933983218937"><ele>118.6</ele><time>2026-04-19T12:57:33.001Z</time></trkpt><trkpt lat="43.474810694166194" lon="10.757868402771201"><ele>119.8</ele><time>2026-04-19T12:57:38.001Z</time></trkpt><trkpt lat="43.474729033618644" lon="10.757805890135476"><ele>121.0</ele><time>2026-04-19T12:57:41.001Z</time></trkpt><trkpt lat="43.474630190263404" lon="10.757712264542027"><ele>122.16666666666667</ele><time>2026-04-19T12:57:43.001Z</time></trkpt><trkpt lat="43.474527860295716" lon="10.757610507557025"><ele>123.33333333333334</ele><time>2026-04-19T12:57:45.001Z</time></trkpt><trkpt lat="43.47446637733081" lon="10.757549453508279"><ele>124.5</ele><time>2026-04-19T12:57:46.001Z</time></trkpt><trkpt lat="43.4744000870292" lon="10.757483483321131"><ele>125.66666666666666</ele><time>2026-04-19T12:57:47.001Z</time></trkpt><trkpt lat="43.47433441483439" lon="10.757415819932897"><ele>126.83333333333333</ele><time>2026-04-19T12:57:48.001Z</time></trkpt><trkpt lat="43.47427388872043" lon="10.757350210240489"><ele>128.0</ele><time>2026-04-19T12:57:49.001Z</time></trkpt><trkpt lat="43.47421081450039" lon="10.757286968424086"><ele>127.99999999999999</ele><time>2026-04-19T12:57:50.001Z</time></trkpt><trkpt lat="43.47414893265359" lon="10.757223210214722"><ele>128.0</ele><time>2026-04-19T12:57:51.001Z</time></trkpt><trkpt lat="43.474088726618255" lon="10.757159817002613"><ele>128.0</ele><time>2026-04-19T12:57:52.001Z</time></trkpt><trkpt lat="43.47402962651551" lon="10.75709452304381"><ele>128.0</ele><time>2026-04-19T12:57:53.001Z</time></trkpt><trkpt lat="43.47397047989198" lon="10.757029535433512"><ele>127.99999999999999</ele><time>2026-04-19T12:57:54.001Z</time></trkpt><trkpt lat="43.47391076242509" lon="10.756960860603646"><ele>128.0</ele><time>2026-04-19T12:57:55.001Z</time></trkpt><trkpt lat="43.473854612092794" lon="10.7568848068802"><ele>127.66666666666666</ele><time>2026-04-19T12:57:56.001Z</time></trkpt><trkpt lat="43.473800883635356" lon="10.756798386850043"><ele>127.33333333333333</ele><time>2026-04-19T12:57:57.001Z</time></trkpt><trkpt lat="43.47375152580638" lon="10.75670815913696"><ele>127.0</ele><time>2026-04-19T12:57:58.001Z</time></trkpt><trkpt lat="43.473709271579516" lon="10.756614050410466"><ele>126.66666666666666</ele><time>2026-04-19T12:57:59.001Z</time></trkpt><trkpt lat="43.47366711811404" lon="10.756509029644107"><ele>126.33333333333333</ele><time>2026-04-19T12:58:00.001Z</time></trkpt><trkpt lat="43.47362353925735" lon="10.756396574893818"><ele>126.0</ele><time>2026-04-19T12:58:01.001Z</time></trkpt><trkpt lat="43.473585269856" lon="10.756279491771748"><ele>126.0</ele><time>2026-04-19T12:58:02.001Z</time></trkpt><trkpt lat="43.473551926189884" lon="10.756165578979795"><ele>126.0</ele><time>2026-04-19T12:58:03.001Z</time></trkpt><trkpt lat="43.473517127264564" lon="10.756053031929074"><ele>126.0</ele><time>2026-04-19T12:58:04.001Z</time></trkpt><trkpt lat="43.47348238327025" lon="10.755940144161979"><ele>126.0</ele><time>2026-04-19T12:58:05.001Z</time></trkpt><trkpt lat="43.47344534929915" lon="10.755820506287703"><ele>126.0</ele><time>2026-04-19T12:58:06.001Z</time></trkpt><trkpt lat="43.473405763880834" lon="10.755694054051178"><ele>126.0</ele><time>2026-04-19T12:58:07.001Z</time></trkpt><trkpt lat="43.47336443061916" lon="10.75556212483559"><ele>126.0</ele><time>2026-04-19T12:58:08.001Z</time></trkpt><trkpt lat="43.47332024985621" lon="10.755428662417035"><ele>126.0</ele><time>2026-04-19T12:58:09.001Z</time></trkpt><trkpt lat="43.473274604032135" lon="10.755294793116066"><ele>126.0</ele><time>2026-04-19T12:58:10.001Z</time></trkpt><trkpt lat="43.473229972062605" lon="10.755168530246712"><ele>126.0</ele><time>2026-04-19T12:58:11.001Z</time></trkpt><trkpt lat="43.47318307538419" lon="10.755048960719865"><ele>126.0</ele><time>2026-04-19T12:58:12.001Z</time></trkpt><trkpt lat="43.473135279300486" lon="10.754935690784736"><ele>126.0</ele><time>2026-04-19T12:58:13.002Z</time></trkpt><trkpt lat="43.47308893431381" lon="10.754822234525834"><ele>126.0</ele><time>2026-04-19T12:58:14.002Z</time></trkpt><trkpt lat="43.47304070127926" lon="10.754706336453282"><ele>126.0</ele><time>2026-04-19T12:58:15.002Z</time></trkpt><trkpt lat="43.47298913897859" lon="10.754589773972056"><ele>126.0</ele><time>2026-04-19T12:58:16.002Z</time></trkpt><trkpt lat="43.47294420723496" lon="10.754472168071672"><ele>125.8</ele><time>2026-04-19T12:58:17.002Z</time></trkpt><trkpt lat="43.47290150003235" lon="10.754345319509724"><ele>125.6</ele><time>2026-04-19T12:58:18.002Z</time></trkpt><trkpt lat="43.4728609426414" lon="10.754215131601816"><ele>125.4</ele><time>2026-04-19T12:58:19.002Z</time></trkpt><trkpt lat="43.47282398990262" lon="10.75408099087721"><ele>125.2</ele><time>2026-04-19T12:58:20.002Z</time></trkpt><trkpt lat="43.4727868754376" lon="10.753944660610408"><ele>125.0</ele><time>2026-04-19T12:58:21.002Z</time></trkpt><trkpt lat="43.4727505263769" lon="10.753807123129523"><ele>125.0</ele><time>2026-04-19T12:58:22.002Z</time></trkpt><trkpt lat="43.47271453184947" lon="10.753667128986967"><ele>125.0</ele><time>2026-04-19T12:58:23.002Z</time></trkpt><trkpt lat="43.4726789085712" lon="10.753527927803024"><ele>125.0</ele><time>2026-04-19T12:58:24.002Z</time></trkpt><trkpt lat="43.4726434528695" lon="10.753389064604157"><ele>125.0</ele><time>2026-04-19T12:58:25.002Z</time></trkpt><trkpt lat="43.47260673697112" lon="10.753252775430756"><ele>125.0</ele><time>2026-04-19T12:58:26.002Z</time></trkpt><trkpt lat="43.47256863489559" lon="10.75311571284686"><ele>125.2</ele><time>2026-04-19T12:58:27.002Z</time></trkpt><trkpt lat="43.472534825003116" lon="10.752972224211383"><ele>125.4</ele><time>2026-04-19T12:58:28.002Z</time></trkpt><trkpt lat="43.47249702512267" lon="10.752830654672719"><ele>125.6</ele><time>2026-04-19T12:58:29.002Z</time></trkpt><trkpt lat="43.47245791647789" lon="10.752689458422159"><ele>125.8</ele><time>2026-04-19T12:58:30.002Z</time></trkpt><trkpt lat="43.4724162001024" lon="10.75254670997414"><ele>126.0</ele><time>2026-04-19T12:58:31.002Z</time></trkpt><trkpt lat="43.472373916480095" lon="10.752402381258122"><ele>126.0</ele><time>2026-04-19T12:58:32.002Z</time></trkpt><trkpt lat="43.47233481927003" lon="10.752259055203611"><ele>126.0</ele><time>2026-04-19T12:58:33.002Z</time></trkpt><trkpt lat="43.47229536907472" lon="10.752115911930673"><ele>126.0</ele><time>2026-04-19T12:58:34.002Z</time></trkpt><trkpt lat="43.47225462119104" lon="10.751971573633233"><ele>126.0</ele><time>2026-04-19T12:58:35.002Z</time></trkpt><trkpt lat="43.47221562466447" lon="10.75182888532184"><ele>126.0</ele><time>2026-04-19T12:58:36.002Z</time></trkpt><trkpt lat="43.47217650543111" lon="10.751690968437241"><ele>125.6</ele><time>2026-04-19T12:58:37.002Z</time></trkpt><trkpt lat="43.47213703286402" lon="10.75154871476773"><ele>125.19999999999999</ele><time>2026-04-19T12:58:38.002Z</time></trkpt><trkpt lat="43.47209744647104" lon="10.751405960452527"><ele>124.80000000000001</ele><time>2026-04-19T12:58:39.002Z</time></trkpt><trkpt lat="43.47206140329814" lon="10.751260937861957"><ele>124.4</ele><time>2026-04-19T12:58:40.002Z</time></trkpt><trkpt lat="43.47202355550072" lon="10.751113548999601"><ele>124.0</ele><time>2026-04-19T12:58:41.002Z</time></trkpt><trkpt lat="43.47198544544791" lon="10.750962392963952"><ele>123.75</ele><time>2026-04-19T12:58:42.002Z</time></trkpt><trkpt lat="43.47194795359485" lon="10.750811614387462"><ele>123.5</ele><time>2026-04-19T12:58:43.002Z</time></trkpt><trkpt lat="43.471908845305805" lon="10.750659238865882"><ele>123.25</ele><time>2026-04-19T12:58:44.002Z</time></trkpt><trkpt lat="43.47186876115187" lon="10.750505539099407"><ele>123.0</ele><time>2026-04-19T12:58:45.002Z</time></trkpt><trkpt lat="43.47182487263634" lon="10.750350440720341"><ele>123.0</ele><time>2026-04-19T12:58:46.002Z</time></trkpt><trkpt lat="43.47177669343756" lon="10.750196198949517"><ele>123.0</ele><time>2026-04-19T12:58:47.002Z</time></trkpt><trkpt lat="43.47172108123552" lon="10.750039537100786"><ele>123.0</ele><time>2026-04-19T12:58:48.002Z</time></trkpt><trkpt lat="43.47166053759371" lon="10.749884917796427"><ele>123.0</ele><time>2026-04-19T12:58:49.002Z</time></trkpt><trkpt lat="43.47159904924478" lon="10.749731126593636"><ele>123.0</ele><time>2026-04-19T12:58:50.002Z</time></trkpt><trkpt lat="43.4715390075894" lon="10.749577574789704"><ele>123.0</ele><time>2026-04-19T12:58:51.002Z</time></trkpt><trkpt lat="43.47148078962113" lon="10.74942640759299"><ele>123.0</ele><time>2026-04-19T12:58:52.003Z</time></trkpt><trkpt lat="43.47142440233329" lon="10.749276375432572"><ele>123.0</ele><time>2026-04-19T12:58:53.003Z</time></trkpt><trkpt lat="43.471369380914545" lon="10.749130175712418"><ele>122.5</ele><time>2026-04-19T12:58:54.003Z</time></trkpt><trkpt lat="43.47130972272652" lon="10.748992059320686"><ele>122.0</ele><time>2026-04-19T12:58:55.003Z</time></trkpt><trkpt lat="43.47124720104896" lon="10.748860529496751"><ele>121.5</ele><time>2026-04-19T12:58:56.003Z</time></trkpt><trkpt lat="43.47116829374518" lon="10.748742536746292"><ele>121.0</ele><time>2026-04-19T12:58:57.003Z</time></trkpt><trkpt lat="43.471071187015895" lon="10.748639737710635"><ele>121.25</ele><time>2026-04-19T12:58:58.003Z</time></trkpt><trkpt lat="43.470963075270305" lon="10.748552058832288"><ele>121.5</ele><time>2026-04-19T12:58:59.003Z</time></trkpt><trkpt lat="43.47084404870288" lon="10.748475295213321"><ele>121.75</ele><time>2026-04-19T12:59:00.003Z</time></trkpt><trkpt lat="43.47071751663923" lon="10.748400317468647"><ele>122.0</ele><time>2026-04-19T12:59:01.003Z</time></trkpt><trkpt lat="43.470581799913695" lon="10.748324004505852"><ele>121.75</ele><time>2026-04-19T12:59:02.003Z</time></trkpt><trkpt lat="43.47043717322321" lon="10.748246704251033"><ele>121.5</ele><time>2026-04-19T12:59:03.003Z</time></trkpt><trkpt lat="43.47029980773775" lon="10.748172882052366"><ele>121.25</ele><time>2026-04-19T12:59:04.003Z</time></trkpt><trkpt lat="43.470168364996915" lon="10.748092631790854"><ele>121.0</ele><time>2026-04-19T12:59:05.003Z</time></trkpt><trkpt lat="43.47003803691048" lon="10.748003037146942"><ele>121.0</ele><time>2026-04-19T12:59:06.003Z</time></trkpt><trkpt lat="43.46990917084095" lon="10.747905756615642"><ele>121.0</ele><time>2026-04-19T12:59:07.003Z</time></trkpt><trkpt lat="43.46978113548395" lon="10.747798895055771"><ele>121.0</ele><time>2026-04-19T12:59:08.003Z</time></trkpt><trkpt lat="43.46964921866465" lon="10.747682067536468"><ele>123.33333333333334</ele><time>2026-04-19T12:59:09.003Z</time></trkpt><trkpt lat="43.46950978474367" lon="10.747551191108062"><ele>125.66666666666666</ele><time>2026-04-19T12:59:10.003Z</time></trkpt><trkpt lat="43.46936317977394" lon="10.747416939591494"><ele>128.0</ele><time>2026-04-19T12:59:11.003Z</time></trkpt><trkpt lat="43.46921360583349" lon="10.747285100894159"><ele>128.0</ele><time>2026-04-19T12:59:12.003Z</time></trkpt><trkpt lat="43.46907582532746" lon="10.747168226230986"><ele>128.0</ele><time>2026-04-19T12:59:13.003Z</time></trkpt><trkpt lat="43.46894972878122" lon="10.747048263556103"><ele>128.0</ele><time>2026-04-19T12:59:14.003Z</time></trkpt><trkpt lat="43.468833131423146" lon="10.746922360973704"><ele>130.0</ele><time>2026-04-19T12:59:15Z</time></trkpt><trkpt lat="43.468735889518015" lon="10.746786875074967"><ele>132.0</ele><time>2026-04-19T12:59:16Z</time></trkpt><trkpt lat="43.46865511087396" lon="10.746633779599316"><ele>134.0</ele><time>2026-04-19T12:59:17Z</time></trkpt><trkpt lat="43.468601908141096" lon="10.746472188016917"><ele>136.0</ele><time>2026-04-19T12:59:18Z</time></trkpt><trkpt lat="43.46855901278715" lon="10.74629819008687"><ele>136.0</ele><time>2026-04-19T12:59:19Z</time></trkpt><trkpt lat="43.46851312367773" lon="10.746120458538302"><ele>136.0</ele><time>2026-04-19T12:59:20Z</time></trkpt><trkpt lat="43.46847246677914" lon="10.74593697499577"><ele>136.0</ele><time>2026-04-19T12:59:21Z</time></trkpt><trkpt lat="43.468430428876594" lon="10.745756561248552"><ele>136.0</ele><time>2026-04-19T12:59:22Z</time></trkpt><trkpt lat="43.468390229200565" lon="10.745584981470007"><ele>135.75</ele><time>2026-04-19T12:59:23Z</time></trkpt><trkpt lat="43.468350122319585" lon="10.745428716329691"><ele>135.5</ele><time>2026-04-19T12:59:24Z</time></trkpt><trkpt lat="43.46829240709973" lon="10.74528887559898"><ele>135.25</ele><time>2026-04-19T12:59:25Z</time></trkpt><trkpt lat="43.468216861672154" lon="10.745159485374844"><ele>135.0</ele><time>2026-04-19T12:59:26Z</time></trkpt><trkpt lat="43.46813352419264" lon="10.745032957503842"><ele>133.75</ele><time>2026-04-19T12:59:27Z</time></trkpt><trkpt lat="43.46803174659538" lon="10.744928074051272"><ele>132.5</ele><time>2026-04-19T12:59:28Z</time></trkpt><trkpt lat="43.46791705321334" lon="10.744835579352367"><ele>131.25</ele><time>2026-04-19T12:59:29Z</time></trkpt><trkpt lat="43.467802151827435" lon="10.744737472106513"><ele>130.0</ele><time>2026-04-19T12:59:30Z</time></trkpt><trkpt lat="43.46768640028804" lon="10.744650514338979"><ele>131.0</ele><time>2026-04-19T12:59:31Z</time></trkpt><trkpt lat="43.46757548495444" lon="10.744567445705984"><ele>132.0</ele><time>2026-04-19T12:59:32Z</time></trkpt><trkpt lat="43.46747992094567" lon="10.744501565449148"><ele>133.0</ele><time>2026-04-19T12:59:33Z</time></trkpt><trkpt lat="43.46739440986633" lon="10.744439104995374"><ele>134.0</ele><time>2026-04-19T12:59:34.001Z</time></trkpt><trkpt lat="43.467320927766615" lon="10.744372198927255"><ele>135.0</ele><time>2026-04-19T12:59:35.001Z</time></trkpt><trkpt lat="43.46726146524922" lon="10.74427767161905"><ele>135.0</ele><time>2026-04-19T12:59:36.001Z</time></trkpt><trkpt lat="43.4672219183457" lon="10.744142403212347"><ele>135.0</ele><time>2026-04-19T12:59:37.001Z</time></trkpt><trkpt lat="43.46721801211942" lon="10.743979292265074"><ele>135.0</ele><time>2026-04-19T12:59:38.001Z</time></trkpt><trkpt lat="43.46724443246408" lon="10.743801399474691"><ele>135.0</ele><time>2026-04-19T12:59:39.001Z</time></trkpt><trkpt lat="43.46727324332607" lon="10.743603273008151"><ele>133.75</ele><time>2026-04-19T12:59:40.001Z</time></trkpt><trkpt lat="43.46729822207415" lon="10.74341787301087"><ele>132.5</ele><time>2026-04-19T12:59:41.001Z</time></trkpt><trkpt lat="43.467314637252855" lon="10.743223335992722"><ele>131.25</ele><time>2026-04-19T12:59:42.001Z</time></trkpt><trkpt lat="43.467330156819614" lon="10.74302798977055"><ele>130.0</ele><time>2026-04-19T12:59:43.001Z</time></trkpt><trkpt lat="43.46735515831168" lon="10.742845441594607"><ele>131.0</ele><time>2026-04-19T12:59:44.001Z</time></trkpt><trkpt lat="43.46740507114581" lon="10.742647757805916"><ele>132.0</ele><time>2026-04-19T12:59:45.001Z</time></trkpt><trkpt lat="43.467474780111644" lon="10.742431857895982"><ele>133.0</ele><time>2026-04-19T12:59:46.001Z</time></trkpt><trkpt lat="43.46756481601449" lon="10.742201542066015"><ele>133.0</ele><time>2026-04-19T12:59:47.001Z</time></trkpt><trkpt lat="43.46765209050515" lon="10.741975442371508"><ele>133.0</ele><time>2026-04-19T12:59:48.001Z</time></trkpt><trkpt lat="43.46771622165088" lon="10.741770376212127"><ele>133.0</ele><time>2026-04-19T12:59:49.001Z</time></trkpt><trkpt lat="43.4677803293947" lon="10.741581631451139"><ele>133.25</ele><time>2026-04-19T12:59:50.001Z</time></trkpt><trkpt lat="43.46783565832587" lon="10.741417827655491"><ele>133.5</ele><time>2026-04-19T12:59:51.001Z</time></trkpt><trkpt lat="43.46790951234444" lon="10.741273679206746"><ele>133.75</ele><time>2026-04-19T12:59:52.001Z</time></trkpt><trkpt lat="43.468005037999525" lon="10.741130099802248"><ele>134.0</ele><time>2026-04-19T12:59:53.001Z</time></trkpt><trkpt lat="43.46812312287652" lon="10.740987156187884"><ele>133.25</ele><time>2026-04-19T12:59:54.001Z</time></trkpt><trkpt lat="43.46824275035836" lon="10.740855252311645"><ele>132.5</ele><time>2026-04-19T12:59:55.001Z</time></trkpt><trkpt lat="43.46832431321263" lon="10.74073310164174"><ele>131.75</ele><time>2026-04-19T12:59:56.001Z</time></trkpt><trkpt lat="43.468385913038965" lon="10.74059324755395"><ele>131.0</ele><time>2026-04-19T12:59:57.001Z</time></trkpt><trkpt lat="43.468425806274254" lon="10.740416975954153"><ele>131.0</ele><time>2026-04-19T12:59:58.001Z</time></trkpt><trkpt lat="43.46844013380301" lon="10.740212233137711"><ele>131.0</ele><time>2026-04-19T12:59:59.001Z</time></trkpt><trkpt lat="43.468457821407476" lon="10.740020435298863"><ele>131.0</ele><time>2026-04-19T13:00:00.001Z</time></trkpt><trkpt lat="43.46847911045333" lon="10.73983930585499"><ele>131.0</ele><time>2026-04-19T13:00:01.001Z</time></trkpt><trkpt lat="43.46850125851118" lon="10.73966857073147"><ele>131.0</ele><time>2026-04-19T13:00:02.001Z</time></trkpt><trkpt lat="43.46851668141436" lon="10.739515563440385"><ele>131.0</ele><time>2026-04-19T13:00:03.001Z</time></trkpt><trkpt lat="43.46851781962582" lon="10.739362613029874"><ele>131.0</ele><time>2026-04-19T13:00:04.001Z</time></trkpt><trkpt lat="43.468469115103815" lon="10.73920982140044"><ele>131.0</ele><time>2026-04-19T13:00:05.001Z</time></trkpt><trkpt lat="43.46838657965139" lon="10.73906619186299"><ele>131.4</ele><time>2026-04-19T13:00:06.001Z</time></trkpt><trkpt lat="43.468301615355614" lon="10.738912436988088"><ele>131.8</ele><time>2026-04-19T13:00:07.001Z</time></trkpt><trkpt lat="43.46822898664425" lon="10.738786990882245"><ele>132.20000000000002</ele><time>2026-04-19T13:00:08.001Z</time></trkpt><trkpt lat="43.468180159153526" lon="10.738668673322973"><ele>132.6</ele><time>2026-04-19T13:00:09.001Z</time></trkpt><trkpt lat="43.46815606043666" lon="10.738557727138588"><ele>133.0</ele><time>2026-04-19T13:00:10.001Z</time></trkpt><trkpt lat="43.46814356674882" lon="10.738419125733314"><ele>133.57142857142858</ele><time>2026-04-19T13:00:12.001Z</time></trkpt><trkpt lat="43.468121168077566" lon="10.738327074899608"><ele>134.14285714285714</ele><time>2026-04-19T13:00:14.001Z</time></trkpt><trkpt lat="43.46816864729544" lon="10.738265435817912"><ele>134.71428571428572</ele><time>2026-04-19T13:00:17.002Z</time></trkpt><trkpt lat="43.46823545387785" lon="10.738246847610458"><ele>135.28571428571428</ele><time>2026-04-19T13:01:05.003Z</time></trkpt><trkpt lat="43.46830750693791" lon="10.738207326136626"><ele>135.85714285714286</ele><time>2026-04-19T13:01:12.003Z</time></trkpt><trkpt lat="43.46837057451683" lon="10.738202424483003"><ele>136.42857142857144</ele><time>2026-04-19T13:01:20.003Z</time></trkpt><trkpt lat="43.46843718173423" lon="10.738213315193713"><ele>137.0</ele><time>2026-04-19T13:01:28.001Z</time></trkpt><trkpt lat="43.4684958785338" lon="10.738264060741669"><ele>137.00000000000003</ele><time>2026-04-19T13:01:38.001Z</time></trkpt><trkpt lat="43.468553177810676" lon="10.738321071915424"><ele>137.0</ele><time>2026-04-19T13:01:50.001Z</time></trkpt><trkpt lat="43.468607372006055" lon="10.738374947868213"><ele>137.0</ele><time>2026-04-19T13:01:59.001Z</time></trkpt><trkpt lat="43.46862200628214" lon="10.738459636850067"><ele>137.0</ele><time>2026-04-19T13:02:13.001Z</time></trkpt><trkpt lat="43.46864984255887" lon="10.73853859687668"><ele>137.0</ele><time>2026-04-19T13:02:20.002Z</time></trkpt><trkpt lat="43.46869319386" lon="10.73846620298625"><ele>137.00000000000003</ele><time>2026-04-19T13:02:45.002Z</time></trkpt><trkpt lat="43.4687173966811" lon="10.73838130060614"><ele>137.0</ele><time>2026-04-19T13:02:54.002Z</time></trkpt><trkpt lat="43.46877335348375" lon="10.738336092110004"><ele>137.00000000000003</ele><time>2026-04-19T13:03:02.003Z</time></trkpt><trkpt lat="43.468835487937" lon="10.73829964293587"><ele>137.0</ele><time>2026-04-19T13:03:10.003Z</time></trkpt><trkpt lat="43.46891218926256" lon="10.738294332997137"><ele>137.0</ele><time>2026-04-19T13:03:18.003Z</time></trkpt><trkpt lat="43.46897707588467" lon="10.738317088347152"><ele>137.0</ele><time>2026-04-19T13:03:41.002Z</time></trkpt><trkpt lat="43.468910781160204" lon="10.738327593396145"><ele>137.0</ele><time>2026-04-19T13:05:07.003Z</time></trkpt><trkpt lat="43.46884227855856" lon="10.738339553375441"><ele>137.00000000000003</ele><time>2026-04-19T13:05:14.003Z</time></trkpt><trkpt lat="43.468770984306055" lon="10.738365752226768"><ele>137.0</ele><time>2026-04-19T13:05:23.003Z</time></trkpt><trkpt lat="43.46871720401231" lon="10.738412505245588"><ele>137.00000000000003</ele><time>2026-04-19T13:05:31.004Z</time></trkpt><trkpt lat="43.46870164236892" lon="10.738502457917631"><ele>137.0</ele><time>2026-04-19T13:05:38.003Z</time></trkpt><trkpt lat="43.468680082373595" lon="10.738590699937918"><ele>137.0</ele><time>2026-04-19T13:05:45.003Z</time></trkpt><trkpt lat="43.46862227795126" lon="10.73853705872545"><ele>137.0</ele><time>2026-04-19T13:06:07.002Z</time></trkpt><trkpt lat="43.46861360394477" lon="10.7384465438278"><ele>137.0</ele><time>2026-04-19T13:06:39.003Z</time></trkpt><trkpt lat="43.468587896310574" lon="10.738364318241759"><ele>137.00000000000003</ele><time>2026-04-19T13:06:50.003Z</time></trkpt><trkpt lat="43.468527438849264" lon="10.738311617673357"><ele>137.0</ele><time>2026-04-19T13:06:57.003Z</time></trkpt><trkpt lat="43.46846789859097" lon="10.738263127399506"><ele>137.00000000000003</ele><time>2026-04-19T13:07:05.003Z</time></trkpt><trkpt lat="43.46840905447778" lon="10.738212517089545"><ele>137.0</ele><time>2026-04-19T13:07:13.003Z</time></trkpt><trkpt lat="43.46833837625839" lon="10.738203106600789"><ele>137.0</ele><time>2026-04-19T13:07:19.003Z</time></trkpt><trkpt lat="43.468269491224966" lon="10.738219663279397"><ele>137.0</ele><time>2026-04-19T13:07:25.003Z</time></trkpt><trkpt lat="43.4682028095758" lon="10.738251224459502"><ele>137.0</ele><time>2026-04-19T13:07:32.003Z</time></trkpt><trkpt lat="43.46825936072109" lon="10.738210546036514"><ele>137.00000000000003</ele><time>2026-04-19T13:08:53.002Z</time></trkpt><trkpt lat="43.46834535710035" lon="10.738185584125183"><ele>137.0</ele><time>2026-04-19T13:08:55.002Z</time></trkpt><trkpt lat="43.468430565585464" lon="10.738156909218159"><ele>137.0</ele><time>2026-04-19T13:08:57.002Z</time></trkpt><trkpt lat="43.46853693060272" lon="10.738111038542726"><ele>137.0</ele><time>2026-04-19T13:08:59.002Z</time></trkpt><trkpt lat="43.468600270129684" lon="10.73809130269184"><ele>137.0</ele><time>2026-04-19T13:09:00.002Z</time></trkpt><trkpt lat="43.46867055596119" lon="10.738077467976963"><ele>137.0</ele><time>2026-04-19T13:09:01.002Z</time></trkpt><trkpt lat="43.46874600875308" lon="10.738071992477755"><ele>137.0</ele><time>2026-04-19T13:09:02.002Z</time></trkpt><trkpt lat="43.46882712741154" lon="10.73807403977233"><ele>137.0</ele><time>2026-04-19T13:09:03.002Z</time></trkpt><trkpt lat="43.46890387605173" lon="10.738099186657157"><ele>137.5</ele><time>2026-04-19T13:09:04.002Z</time></trkpt><trkpt lat="43.46897923245672" lon="10.738091702249484"><ele>138.0</ele><time>2026-04-19T13:09:05.002Z</time></trkpt><trkpt lat="43.469054764998546" lon="10.738071947591054"><ele>138.5</ele><time>2026-04-19T13:09:06.002Z</time></trkpt><trkpt lat="43.4691294569129" lon="10.73804274516701"><ele>139.0</ele><time>2026-04-19T13:09:07.002Z</time></trkpt><trkpt lat="43.46920570738328" lon="10.737997386014795"><ele>139.5</ele><time>2026-04-19T13:09:08.002Z</time></trkpt><trkpt lat="43.46927936774703" lon="10.737934613474078"><ele>140.0</ele><time>2026-04-19T13:09:09.002Z</time></trkpt><trkpt lat="43.46934091739436" lon="10.737841582531166"><ele>140.0</ele><time>2026-04-19T13:09:10.002Z</time></trkpt><trkpt lat="43.46939658232657" lon="10.737754214591039"><ele>140.0</ele><time>2026-04-19T13:09:11.002Z</time></trkpt><trkpt lat="43.469449706661564" lon="10.737662817028385"><ele>140.0</ele><time>2026-04-19T13:09:12.002Z</time></trkpt><trkpt lat="43.46949946819267" lon="10.73757053222502"><ele>140.0</ele><time>2026-04-19T13:09:13.002Z</time></trkpt><trkpt lat="43.469549492758986" lon="10.73747649024521"><ele>140.0</ele><time>2026-04-19T13:09:14.002Z</time></trkpt><trkpt lat="43.46959944574989" lon="10.73738129025517"><ele>140.0</ele><time>2026-04-19T13:09:15.002Z</time></trkpt><trkpt lat="43.469651506416135" lon="10.737282073472617"><ele>141.8</ele><time>2026-04-19T13:09:16.002Z</time></trkpt><trkpt lat="43.46970112674985" lon="10.737184413285346"><ele>143.6</ele><time>2026-04-19T13:09:17.002Z</time></trkpt><trkpt lat="43.46974678342175" lon="10.73709404799908"><ele>145.4</ele><time>2026-04-19T13:09:18.002Z</time></trkpt><trkpt lat="43.469786845938195" lon="10.73701095108689"><ele>147.2</ele><time>2026-04-19T13:09:19.002Z</time></trkpt><trkpt lat="43.46985221154364" lon="10.736872903337957"><ele>149.0</ele><time>2026-04-19T13:09:21.002Z</time></trkpt><trkpt lat="43.469906668549136" lon="10.736754404130599"><ele>150.2</ele><time>2026-04-19T13:09:23.002Z</time></trkpt><trkpt lat="43.46997287606725" lon="10.736608986876329"><ele>151.4</ele><time>2026-04-19T13:09:25.002Z</time></trkpt><trkpt lat="43.47000692135068" lon="10.736533072072278"><ele>152.6</ele><time>2026-04-19T13:09:26.002Z</time></trkpt><trkpt lat="43.47004001974881" lon="10.736458538448948"><ele>153.8</ele><time>2026-04-19T13:09:27.002Z</time></trkpt><trkpt lat="43.47010327147001" lon="10.736313837011748"><ele>155.0</ele><time>2026-04-19T13:09:29.002Z</time></trkpt><trkpt lat="43.470160929256494" lon="10.736173052554472"><ele>156.4</ele><time>2026-04-19T13:09:31.002Z</time></trkpt><trkpt lat="43.47020284120773" lon="10.736021452237384"><ele>157.8</ele><time>2026-04-19T13:09:33.002Z</time></trkpt><trkpt lat="43.4702611159804" lon="10.73588356251031"><ele>159.2</ele><time>2026-04-19T13:09:35.002Z</time></trkpt><trkpt lat="43.47028410390303" lon="10.735798640770673"><ele>160.6</ele><time>2026-04-19T13:09:36.002Z</time></trkpt><trkpt lat="43.47030550290756" lon="10.735702737618777"><ele>162.0</ele><time>2026-04-19T13:09:37.002Z</time></trkpt><trkpt lat="43.47032912759713" lon="10.735594457774658"><ele>162.0</ele><time>2026-04-19T13:09:38.002Z</time></trkpt><trkpt lat="43.470354899641436" lon="10.735463610075037"><ele>162.0</ele><time>2026-04-19T13:09:39.003Z</time></trkpt><trkpt lat="43.47037598778836" lon="10.735328434074733"><ele>162.0</ele><time>2026-04-19T13:09:40.003Z</time></trkpt><trkpt lat="43.47039076117471" lon="10.735210390353423"><ele>162.0</ele><time>2026-04-19T13:09:41.003Z</time></trkpt><trkpt lat="43.470403249079" lon="10.7350933824863"><ele>162.0</ele><time>2026-04-19T13:09:42.003Z</time></trkpt><trkpt lat="43.47041224506374" lon="10.734978014676093"><ele>164.66666666666666</ele><time>2026-04-19T13:09:43.003Z</time></trkpt><trkpt lat="43.47041545092492" lon="10.734863256743976"><ele>167.33333333333334</ele><time>2026-04-19T13:09:44.003Z</time></trkpt><trkpt lat="43.47041144206423" lon="10.734744336138437"><ele>170.0</ele><time>2026-04-19T13:09:45.001Z</time></trkpt><trkpt lat="43.47039542536475" lon="10.734623336244757"><ele>172.66666666666669</ele><time>2026-04-19T13:09:46.001Z</time></trkpt><trkpt lat="43.470375172914196" lon="10.734499929530298"><ele>175.33333333333334</ele><time>2026-04-19T13:09:47.001Z</time></trkpt><trkpt lat="43.47035191230041" lon="10.734374131845243"><ele>178.0</ele><time>2026-04-19T13:09:48.001Z</time></trkpt><trkpt lat="43.47033535097407" lon="10.73424056479364"><ele>178.0</ele><time>2026-04-19T13:09:49.001Z</time></trkpt><trkpt lat="43.4703327509074" lon="10.734105061872622"><ele>178.0</ele><time>2026-04-19T13:09:50.001Z</time></trkpt><trkpt lat="43.47034323432034" lon="10.733973829652369"><ele>178.0</ele><time>2026-04-19T13:09:51.001Z</time></trkpt><trkpt lat="43.47036102039459" lon="10.733833700280503"><ele>178.0</ele><time>2026-04-19T13:09:52Z</time></trkpt><trkpt lat="43.4703798612834" lon="10.733686658409018"><ele>178.0</ele><time>2026-04-19T13:09:53Z</time></trkpt><trkpt lat="43.47039488375227" lon="10.733532932109464"><ele>177.0</ele><time>2026-04-19T13:09:54Z</time></trkpt><trkpt lat="43.47040738003202" lon="10.733378700760987"><ele>176.0</ele><time>2026-04-19T13:09:55Z</time></trkpt><trkpt lat="43.470419072174934" lon="10.733225953441586"><ele>175.0</ele><time>2026-04-19T13:09:56Z</time></trkpt><trkpt lat="43.4704021719346" lon="10.733067315612079"><ele>174.0</ele><time>2026-04-19T13:09:57Z</time></trkpt><trkpt lat="43.47040984019929" lon="10.732912627908002"><ele>174.0</ele><time>2026-04-19T13:09:58Z</time></trkpt><trkpt lat="43.470423250089496" lon="10.732757249826138"><ele>174.0</ele><time>2026-04-19T13:09:59Z</time></trkpt><trkpt lat="43.470445231102545" lon="10.732600744137992"><ele>174.0</ele><time>2026-04-19T13:10:00Z</time></trkpt><trkpt lat="43.470501202953955" lon="10.732457133019086"><ele>174.0</ele><time>2026-04-19T13:10:01Z</time></trkpt><trkpt lat="43.47053109339058" lon="10.732301369649873"><ele>177.25</ele><time>2026-04-19T13:10:02Z</time></trkpt><trkpt lat="43.47056202902386" lon="10.732140159610346"><ele>180.5</ele><time>2026-04-19T13:10:03Z</time></trkpt><trkpt lat="43.47058753600654" lon="10.731970293968974"><ele>183.75</ele><time>2026-04-19T13:10:04Z</time></trkpt><trkpt lat="43.47061119644073" lon="10.731800597507304"><ele>187.0</ele><time>2026-04-19T13:10:05Z</time></trkpt><trkpt lat="43.47063477711428" lon="10.731631473094009"><ele>189.25</ele><time>2026-04-19T13:10:06Z</time></trkpt><trkpt lat="43.47065841046288" lon="10.731466210615585"><ele>191.5</ele><time>2026-04-19T13:10:07Z</time></trkpt><trkpt lat="43.470681008638984" lon="10.73130804820106"><ele>193.75</ele><time>2026-04-19T13:10:08Z</time></trkpt><trkpt lat="43.47070334175581" lon="10.731143916194734"><ele>196.0</ele><time>2026-04-19T13:10:09Z</time></trkpt><trkpt lat="43.47072186168262" lon="10.730978663932856"><ele>196.20000000000002</ele><time>2026-04-19T13:10:10Z</time></trkpt><trkpt lat="43.47073437620699" lon="10.730831201302694"><ele>196.4</ele><time>2026-04-19T13:10:11Z</time></trkpt><trkpt lat="43.47073951129497" lon="10.730705587293887"><ele>196.6</ele><time>2026-04-19T13:10:12Z</time></trkpt><trkpt lat="43.47073119805266" lon="10.730569816454897"><ele>196.8</ele><time>2026-04-19T13:10:13Z</time></trkpt><trkpt lat="43.4707063063165" lon="10.730426622013324"><ele>197.0</ele><time>2026-04-19T13:10:14Z</time></trkpt><trkpt lat="43.47067371476111" lon="10.730275897692138"><ele>197.0</ele><time>2026-04-19T13:10:15Z</time></trkpt><trkpt lat="43.47063549393922" lon="10.730109368517766"><ele>197.0</ele><time>2026-04-19T13:10:16Z</time></trkpt><trkpt lat="43.470599569324115" lon="10.729954095306208"><ele>197.0</ele><time>2026-04-19T13:10:17Z</time></trkpt><trkpt lat="43.470552276779465" lon="10.729812462134957"><ele>197.0</ele><time>2026-04-19T13:10:18Z</time></trkpt><trkpt lat="43.470520594621256" lon="10.729672294416863"><ele>197.00000000000003</ele><time>2026-04-19T13:10:19Z</time></trkpt><trkpt lat="43.47050061273959" lon="10.729543174891853"><ele>197.0</ele><time>2026-04-19T13:10:20Z</time></trkpt><trkpt lat="43.470482211619554" lon="10.729433159042355"><ele>197.0</ele><time>2026-04-19T13:10:21Z</time></trkpt><trkpt lat="43.47048424338724" lon="10.72934640901593"><ele>197.0</ele><time>2026-04-19T13:10:22Z</time></trkpt><trkpt lat="43.470553431905024" lon="10.729201439825708"><ele>197.00000000000003</ele><time>2026-04-19T13:10:24Z</time></trkpt><trkpt lat="43.47062848820458" lon="10.729162717003778"><ele>197.0</ele><time>2026-04-19T13:10:25Z</time></trkpt><trkpt lat="43.47070634577816" lon="10.729094393263756"><ele>198.39999999999998</ele><time>2026-04-19T13:10:26Z</time></trkpt><trkpt lat="43.4707853858569" lon="10.728997915453311"><ele>199.79999999999998</ele><time>2026-04-19T13:10:27.001Z</time></trkpt><trkpt lat="43.47087341275234" lon="10.72894541633721"><ele>201.2</ele><time>2026-04-19T13:10:28.001Z</time></trkpt><trkpt lat="43.470947700268326" lon="10.728877820054423"><ele>202.6</ele><time>2026-04-19T13:10:29.001Z</time></trkpt><trkpt lat="43.4710176454036" lon="10.728788026240418"><ele>204.0</ele><time>2026-04-19T13:10:30.001Z</time></trkpt><trkpt lat="43.471104985112284" lon="10.728723622467358"><ele>204.0</ele><time>2026-04-19T13:10:31.001Z</time></trkpt><trkpt lat="43.47119183677524" lon="10.728675342970819"><ele>204.0</ele><time>2026-04-19T13:10:32.001Z</time></trkpt><trkpt lat="43.47127937698777" lon="10.728632848025164"><ele>204.0</ele><time>2026-04-19T13:10:33.001Z</time></trkpt><trkpt lat="43.4713716772338" lon="10.728613342294299"><ele>204.0</ele><time>2026-04-19T13:10:34.001Z</time></trkpt><trkpt lat="43.471451921096396" lon="10.72855425674409"><ele>204.0</ele><time>2026-04-19T13:10:35.001Z</time></trkpt><trkpt lat="43.47153699131099" lon="10.728516246944798"><ele>204.16666666666666</ele><time>2026-04-19T13:10:36.001Z</time></trkpt><trkpt lat="43.47162336441901" lon="10.728477520679174"><ele>204.33333333333331</ele><time>2026-04-19T13:10:37.001Z</time></trkpt><trkpt lat="43.47170799110234" lon="10.728435734579678"><ele>204.5</ele><time>2026-04-19T13:10:38.001Z</time></trkpt><trkpt lat="43.47178790311107" lon="10.728400863146403"><ele>204.66666666666666</ele><time>2026-04-19T13:10:39.001Z</time></trkpt><trkpt lat="43.47186718908655" lon="10.728379547172853"><ele>204.83333333333331</ele><time>2026-04-19T13:10:40.001Z</time></trkpt><trkpt lat="43.47195550017865" lon="10.728376422041432"><ele>205.0</ele><time>2026-04-19T13:10:41.001Z</time></trkpt><trkpt lat="43.47205138504063" lon="10.728385075787715"><ele>204.8</ele><time>2026-04-19T13:10:42.001Z</time></trkpt><trkpt lat="43.47214771287027" lon="10.728385731661557"><ele>204.6</ele><time>2026-04-19T13:10:43.001Z</time></trkpt><trkpt lat="43.47224147486174" lon="10.728371571720695"><ele>204.39999999999998</ele><time>2026-04-19T13:10:44.001Z</time></trkpt><trkpt lat="43.4723353826421" lon="10.728341370493409"><ele>204.2</ele><time>2026-04-19T13:10:45.001Z</time></trkpt><trkpt lat="43.47242744846289" lon="10.72829575202163"><ele>204.0</ele><time>2026-04-19T13:10:46.001Z</time></trkpt><trkpt lat="43.47251642437297" lon="10.728237112014115"><ele>204.0</ele><time>2026-04-19T13:10:47.001Z</time></trkpt><trkpt lat="43.472602236824486" lon="10.728174668267535"><ele>204.0</ele><time>2026-04-19T13:10:48.001Z</time></trkpt><trkpt lat="43.47269464982332" lon="10.728112931705608"><ele>204.0</ele><time>2026-04-19T13:10:49.001Z</time></trkpt><trkpt lat="43.472789617202174" lon="10.72804971121186"><ele>204.0</ele><time>2026-04-19T13:10:50.001Z</time></trkpt><trkpt lat="43.472883947379636" lon="10.7279872687749"><ele>204.0</ele><time>2026-04-19T13:10:51.001Z</time></trkpt><trkpt lat="43.47297622286408" lon="10.727934691088155"><ele>203.6</ele><time>2026-04-19T13:10:52.001Z</time></trkpt><trkpt lat="43.47307435799751" lon="10.727917042858458"><ele>203.2</ele><time>2026-04-19T13:10:53.001Z</time></trkpt><trkpt lat="43.47317508710356" lon="10.727925471951838"><ele>202.79999999999998</ele><time>2026-04-19T13:10:54.001Z</time></trkpt><trkpt lat="43.473276421210294" lon="10.727948053590252"><ele>202.39999999999998</ele><time>2026-04-19T13:10:55.001Z</time></trkpt><trkpt lat="43.47337591792548" lon="10.727977169276754"><ele>202.0</ele><time>2026-04-19T13:10:56.001Z</time></trkpt><trkpt lat="43.47347239665066" lon="10.728009466725329"><ele>201.99999999999997</ele><time>2026-04-19T13:10:57.001Z</time></trkpt><trkpt lat="43.473563920013866" lon="10.728041494460914"><ele>202.0</ele><time>2026-04-19T13:10:58.001Z</time></trkpt><trkpt lat="43.47364992614322" lon="10.728074565884475"><ele>202.0</ele><time>2026-04-19T13:10:59.001Z</time></trkpt><trkpt lat="43.4737305076499" lon="10.72810724546135"><ele>202.0</ele><time>2026-04-19T13:11:00.001Z</time></trkpt><trkpt lat="43.4738068275608" lon="10.728135510623838"><ele>201.99999999999997</ele><time>2026-04-19T13:11:01.001Z</time></trkpt><trkpt lat="43.473879448216266" lon="10.728162785315561"><ele>202.0</ele><time>2026-04-19T13:11:02.001Z</time></trkpt><trkpt lat="43.47394502113841" lon="10.728186616711548"><ele>203.8</ele><time>2026-04-19T13:11:03.001Z</time></trkpt><trkpt lat="43.47403926311217" lon="10.72821605781182"><ele>205.6</ele><time>2026-04-19T13:11:05.001Z</time></trkpt><trkpt lat="43.47412326379089" lon="10.728236906756324"><ele>207.4</ele><time>2026-04-19T13:11:07.001Z</time></trkpt><trkpt lat="43.47421771404041" lon="10.728264812892007"><ele>209.20000000000002</ele><time>2026-04-19T13:11:09.001Z</time></trkpt><trkpt lat="43.47434094793719" lon="10.728300673608913"><ele>211.0</ele><time>2026-04-19T13:11:11.001Z</time></trkpt><trkpt lat="43.47440476500424" lon="10.728317754529394"><ele>210.99999999999997</ele><time>2026-04-19T13:11:12.001Z</time></trkpt><trkpt lat="43.4745212313266" lon="10.728350074048576"><ele>211.0</ele><time>2026-04-19T13:11:14.001Z</time></trkpt><trkpt lat="43.47463971685599" lon="10.728384672192622"><ele>211.0</ele><time>2026-04-19T13:11:16.001Z</time></trkpt><trkpt lat="43.474703353962994" lon="10.72839347983284"><ele>211.0</ele><time>2026-04-19T13:11:17.001Z</time></trkpt><trkpt lat="43.47477052799794" lon="10.728393809240403"><ele>210.99999999999997</ele><time>2026-04-19T13:11:18.001Z</time></trkpt><trkpt lat="43.47483358086281" lon="10.72839043868768"><ele>211.0</ele><time>2026-04-19T13:11:19.001Z</time></trkpt><trkpt lat="43.47494674967586" lon="10.728384793753072"><ele>211.49999999999997</ele><time>2026-04-19T13:11:21.001Z</time></trkpt><trkpt lat="43.47504136787597" lon="10.728380424913597"><ele>212.0</ele><time>2026-04-19T13:11:23.001Z</time></trkpt><trkpt lat="43.475136286532" lon="10.72837496238403"><ele>212.5</ele><time>2026-04-19T13:11:25.001Z</time></trkpt><trkpt lat="43.475210052633834" lon="10.728371990884249"><ele>213.0</ele><time>2026-04-19T13:11:27.001Z</time></trkpt><trkpt lat="43.475281680275984" lon="10.728387592019608"><ele>213.49999999999997</ele><time>2026-04-19T13:11:30.001Z</time></trkpt><trkpt lat="43.475340613886125" lon="10.728426832253794"><ele>214.0</ele><time>2026-04-19T13:11:57.998Z</time></trkpt><trkpt lat="43.47531062394522" lon="10.728346020005059"><ele>214.00000000000003</ele><time>2026-04-19T13:12:17.999Z</time></trkpt><trkpt lat="43.47533444047021" lon="10.72826312326682"><ele>214.0</ele><time>2026-04-19T13:12:31.999Z</time></trkpt><trkpt lat="43.47538624666205" lon="10.728207716465805"><ele>214.0</ele><time>2026-04-19T13:12:40Z</time></trkpt><trkpt lat="43.47540595289187" lon="10.728118255242384"><ele>214.0</ele><time>2026-04-19T13:13:10Z</time></trkpt><trkpt lat="43.475378119081554" lon="10.728037472060583"><ele>214.0</ele><time>2026-04-19T13:13:34Z</time></trkpt><trkpt lat="43.47537140581369" lon="10.728127666747474"><ele>214.00000000000003</ele><time>2026-04-19T13:13:48.001Z</time></trkpt><trkpt lat="43.475373308740856" lon="10.728236172318896"><ele>214.0</ele><time>2026-04-19T13:13:59Z</time></trkpt><trkpt lat="43.47535234043655" lon="10.728321368916113"><ele>214.0</ele><time>2026-04-19T13:14:07Z</time></trkpt><trkpt lat="43.4753112899347" lon="10.728410193664343"><ele>213.99999999999997</ele><time>2026-04-19T13:14:17Z</time></trkpt><trkpt lat="43.4752599545969" lon="10.72848535999743"><ele>213.99999999999997</ele><time>2026-04-19T13:14:26Z</time></trkpt><trkpt lat="43.47531284506943" lon="10.728543456622521"><ele>214.0</ele><time>2026-04-19T13:14:46.001Z</time></trkpt><trkpt lat="43.47527185882488" lon="10.728631137921008"><ele>214.0</ele><time>2026-04-19T13:14:49.001Z</time></trkpt><trkpt lat="43.47536849000001" lon="10.728290555"><ele>214.0</ele><time>2026-04-19T13:15:16.307Z</time></trkpt><trkpt lat="43.475276233915366" lon="10.728476198329545"><ele>214.0</ele><time>2026-04-19T13:15:20.001Z</time></trkpt><trkpt lat="43.47535457118643" lon="10.728805621560928"><ele>214.0</ele><time>2026-04-19T13:15:25.073Z</time></trkpt><trkpt lat="43.47533686444839" lon="10.728330530715859"><ele>213.99999999999997</ele><time>2026-04-19T13:16:01.039Z</time></trkpt><trkpt lat="43.47540332371596" lon="10.728365712445253"><ele>214.0</ele><time>2026-04-19T13:16:47.015Z</time></trkpt><trkpt lat="43.47533885934249" lon="10.728404099319732"><ele>214.0</ele><time>2026-04-19T13:17:13.002Z</time></trkpt><trkpt lat="43.47540692194189" lon="10.728481899119464"><ele>214.0</ele><time>2026-04-19T13:17:55.001Z</time></trkpt><trkpt lat="43.47549817817551" lon="10.728525566566885"><ele>213.99999999999997</ele><time>2026-04-19T13:17:58.001Z</time></trkpt><trkpt lat="43.475569920445515" lon="10.72856231924489"><ele>214.0</ele><time>2026-04-19T13:18:00.001Z</time></trkpt><trkpt lat="43.47564153976926" lon="10.728595982787764"><ele>212.71428571428572</ele><time>2026-04-19T13:18:02.002Z</time></trkpt><trkpt lat="43.475706957294804" lon="10.72863284956164"><ele>211.42857142857144</ele><time>2026-04-19T13:18:04.002Z</time></trkpt><trkpt lat="43.475779649230624" lon="10.728663561582232"><ele>210.14285714285717</ele><time>2026-04-19T13:18:06.002Z</time></trkpt><trkpt lat="43.47584407344002" lon="10.728697771182382"><ele>208.85714285714286</ele><time>2026-04-19T13:18:08.002Z</time></trkpt><trkpt lat="43.475922640769284" lon="10.72873422150871"><ele>207.57142857142856</ele><time>2026-04-19T13:18:10.002Z</time></trkpt><trkpt lat="43.475988972070645" lon="10.7287660256973"><ele>206.2857142857143</ele><time>2026-04-19T13:18:12.002Z</time></trkpt><trkpt lat="43.476049512427224" lon="10.728799002972039"><ele>205.0</ele><time>2026-04-19T13:18:14.002Z</time></trkpt><trkpt lat="43.476130498853564" lon="10.728848596079112"><ele>205.0</ele><time>2026-04-19T13:18:17.002Z</time></trkpt><trkpt lat="43.476189893140095" lon="10.728895575118809"><ele>205.0</ele><time>2026-04-19T13:18:19.002Z</time></trkpt><trkpt lat="43.47624025722873" lon="10.72895615705194"><ele>205.0</ele><time>2026-04-19T13:18:21.002Z</time></trkpt><trkpt lat="43.47630261763132" lon="10.72901498271341"><ele>205.0</ele><time>2026-04-19T13:18:24.002Z</time></trkpt><trkpt lat="43.476357198166895" lon="10.729058708620283"><ele>205.0</ele><time>2026-04-19T13:18:26.002Z</time></trkpt><trkpt lat="43.47642672995834" lon="10.729106298102279"><ele>205.0</ele><time>2026-04-19T13:18:28.002Z</time></trkpt><trkpt lat="43.476505426068755" lon="10.729167920091857"><ele>205.0</ele><time>2026-04-19T13:18:30.002Z</time></trkpt><trkpt lat="43.47660852482645" lon="10.729213023751097"><ele>205.2</ele><time>2026-04-19T13:18:32.002Z</time></trkpt><trkpt lat="43.476712927779886" lon="10.729252495918999"><ele>205.4</ele><time>2026-04-19T13:18:34.002Z</time></trkpt><trkpt lat="43.47678156960419" lon="10.729273404458166"><ele>205.60000000000002</ele><time>2026-04-19T13:18:36.002Z</time></trkpt><trkpt lat="43.47688665218312" lon="10.729304507249386"><ele>205.8</ele><time>2026-04-19T13:18:38.002Z</time></trkpt><trkpt lat="43.47698580007435" lon="10.72934601067897"><ele>206.0</ele><time>2026-04-19T13:18:40.002Z</time></trkpt><trkpt lat="43.477050292906455" lon="10.729452482009865"><ele>205.33333333333334</ele><time>2026-04-19T13:18:42.002Z</time></trkpt><trkpt lat="43.47705129699733" lon="10.729619690684983"><ele>204.66666666666669</ele><time>2026-04-19T13:18:44.002Z</time></trkpt><trkpt lat="43.47705452478495" lon="10.72970800456874"><ele>204.0</ele><time>2026-04-19T13:18:45.002Z</time></trkpt><trkpt lat="43.477055922499524" lon="10.729798686122809"><ele>203.33333333333331</ele><time>2026-04-19T13:18:46.002Z</time></trkpt><trkpt lat="43.4770668144381" lon="10.729890375957623"><ele>202.66666666666666</ele><time>2026-04-19T13:18:47.002Z</time></trkpt><trkpt lat="43.477089844920286" lon="10.729983151480543"><ele>202.0</ele><time>2026-04-19T13:18:48.002Z</time></trkpt><trkpt lat="43.47712855860528" lon="10.730079214850615"><ele>201.6</ele><time>2026-04-19T13:18:49.002Z</time></trkpt><trkpt lat="43.4771757316678" lon="10.730180454333173"><ele>201.2</ele><time>2026-04-19T13:18:50.002Z</time></trkpt><trkpt lat="43.47722259912705" lon="10.730283222536771"><ele>200.8</ele><time>2026-04-19T13:18:51.002Z</time></trkpt><trkpt lat="43.47726870342805" lon="10.730391505467537"><ele>200.4</ele><time>2026-04-19T13:18:52.002Z</time></trkpt><trkpt lat="43.47730473439246" lon="10.730508445086292"><ele>200.0</ele><time>2026-04-19T13:18:53.002Z</time></trkpt><trkpt lat="43.47732551165528" lon="10.730632154510069"><ele>198.0</ele><time>2026-04-19T13:18:54.002Z</time></trkpt><trkpt lat="43.47733778606101" lon="10.730761894615297"><ele>196.0</ele><time>2026-04-19T13:18:55.002Z</time></trkpt><trkpt lat="43.4773466199802" lon="10.730893062795438"><ele>194.0</ele><time>2026-04-19T13:18:56.002Z</time></trkpt><trkpt lat="43.47735459519719" lon="10.73102778918536"><ele>192.0</ele><time>2026-04-19T13:18:57.002Z</time></trkpt><trkpt lat="43.477366030452735" lon="10.731166218652897"><ele>190.0</ele><time>2026-04-19T13:18:58.002Z</time></trkpt><trkpt lat="43.47738316034846" lon="10.731305813182397"><ele>188.4</ele><time>2026-04-19T13:18:59.002Z</time></trkpt><trkpt lat="43.47740952802661" lon="10.731442700933025"><ele>186.8</ele><time>2026-04-19T13:19:00.002Z</time></trkpt><trkpt lat="43.477443575695396" lon="10.731579284495144"><ele>185.2</ele><time>2026-04-19T13:19:01.002Z</time></trkpt><trkpt lat="43.47748591861134" lon="10.731707949146708"><ele>183.6</ele><time>2026-04-19T13:19:02.002Z</time></trkpt><trkpt lat="43.477536995024195" lon="10.731816323826097"><ele>182.0</ele><time>2026-04-19T13:19:03.002Z</time></trkpt><trkpt lat="43.477596051401314" lon="10.731897354778946"><ele>179.83333333333331</ele><time>2026-04-19T13:19:04.002Z</time></trkpt><trkpt lat="43.47766301066565" lon="10.731944280890005"><ele>177.66666666666666</ele><time>2026-04-19T13:19:05.002Z</time></trkpt><trkpt lat="43.47773470852776" lon="10.731960156733603"><ele>175.5</ele><time>2026-04-19T13:19:06.002Z</time></trkpt><trkpt lat="43.47780531227893" lon="10.731942350776803"><ele>173.33333333333334</ele><time>2026-04-19T13:19:07.002Z</time></trkpt><trkpt lat="43.477875324032574" lon="10.731903737061542"><ele>171.16666666666669</ele><time>2026-04-19T13:19:08.001Z</time></trkpt><trkpt lat="43.477945753807816" lon="10.731848766025308"><ele>169.0</ele><time>2026-04-19T13:19:09.001Z</time></trkpt><trkpt lat="43.47801023053855" lon="10.731765331406706"><ele>168.83333333333334</ele><time>2026-04-19T13:19:10.001Z</time></trkpt><trkpt lat="43.47806285272916" lon="10.731669256783114"><ele>168.66666666666669</ele><time>2026-04-19T13:19:11.001Z</time></trkpt><trkpt lat="43.47809969170611" lon="10.731557720452301"><ele>168.5</ele><time>2026-04-19T13:19:12.001Z</time></trkpt><trkpt lat="43.478126089905864" lon="10.731442961987074"><ele>168.33333333333334</ele><time>2026-04-19T13:19:13.001Z</time></trkpt><trkpt lat="43.478145143655155" lon="10.731326341319477"><ele>168.16666666666666</ele><time>2026-04-19T13:19:14.001Z</time></trkpt><trkpt lat="43.47816340854909" lon="10.731206622893943"><ele>168.0</ele><time>2026-04-19T13:19:15.001Z</time></trkpt><trkpt lat="43.47817792081219" lon="10.731084813930954"><ele>168.85714285714286</ele><time>2026-04-19T13:19:16.001Z</time></trkpt><trkpt lat="43.47818887913999" lon="10.730962065619472"><ele>169.71428571428572</ele><time>2026-04-19T13:19:17.001Z</time></trkpt><trkpt lat="43.478200698496394" lon="10.730850459981951"><ele>170.57142857142856</ele><time>2026-04-19T13:19:18Z</time></trkpt><trkpt lat="43.47823203303267" lon="10.730764524070583"><ele>171.42857142857144</ele><time>2026-04-19T13:19:19Z</time></trkpt><trkpt lat="43.478277602601175" lon="10.730698479610295"><ele>172.28571428571428</ele><time>2026-04-19T13:19:20Z</time></trkpt><trkpt lat="43.478334023019826" lon="10.730651794081215"><ele>173.14285714285714</ele><time>2026-04-19T13:19:21Z</time></trkpt><trkpt lat="43.478397967188265" lon="10.730618930102011"><ele>174.0</ele><time>2026-04-19T13:19:22Z</time></trkpt><trkpt lat="43.47846344456062" lon="10.73059215421984"><ele>174.0</ele><time>2026-04-19T13:19:23Z</time></trkpt><trkpt lat="43.478527585946594" lon="10.73057146224909"><ele>174.0</ele><time>2026-04-19T13:19:24Z</time></trkpt><trkpt lat="43.47858980882963" lon="10.73055220131479"><ele>174.0</ele><time>2026-04-19T13:19:25Z</time></trkpt><trkpt lat="43.47865515648651" lon="10.730530485575756"><ele>174.0</ele><time>2026-04-19T13:19:26Z</time></trkpt><trkpt lat="43.47872353737213" lon="10.730503121461906"><ele>174.0</ele><time>2026-04-19T13:19:27Z</time></trkpt><trkpt lat="43.47879239544613" lon="10.730467422420501"><ele>174.0</ele><time>2026-04-19T13:19:28Z</time></trkpt><trkpt lat="43.4788615696895" lon="10.730422433479339"><ele>174.0</ele><time>2026-04-19T13:19:29Z</time></trkpt><trkpt lat="43.47892830142054" lon="10.730368422939561"><ele>171.83333333333334</ele><time>2026-04-19T13:19:30Z</time></trkpt><trkpt lat="43.47898787889305" lon="10.730298983879832"><ele>169.66666666666666</ele><time>2026-04-19T13:19:31Z</time></trkpt><trkpt lat="43.47903620221482" lon="10.730215530029987"><ele>167.5</ele><time>2026-04-19T13:19:32Z</time></trkpt><trkpt lat="43.47907356790807" lon="10.730123130418647"><ele>165.33333333333331</ele><time>2026-04-19T13:19:33Z</time></trkpt><trkpt lat="43.479103958275005" lon="10.730024717164103"><ele>163.16666666666666</ele><time>2026-04-19T13:19:34Z</time></trkpt><trkpt lat="43.47913184939397" lon="10.729924249593436"><ele>161.0</ele><time>2026-04-19T13:19:35Z</time></trkpt><trkpt lat="43.479155279441464" lon="10.729830813032972"><ele>161.0</ele><time>2026-04-19T13:19:36Z</time></trkpt><trkpt lat="43.47920901305032" lon="10.72970071835999"><ele>161.0</ele><time>2026-04-19T13:19:38Z</time></trkpt><trkpt lat="43.47928624242204" lon="10.729638394019375"><ele>161.0</ele><time>2026-04-19T13:19:40.001Z</time></trkpt><trkpt lat="43.479258582219096" lon="10.729487595855526"><ele>161.0</ele><time>2026-04-19T13:19:43.001Z</time></trkpt><trkpt lat="43.47921338641615" lon="10.729385955068533"><ele>161.0</ele><time>2026-04-19T13:19:45.001Z</time></trkpt><trkpt lat="43.47918022019096" lon="10.729298336561005"><ele>161.33333333333331</ele><time>2026-04-19T13:19:46.001Z</time></trkpt><trkpt lat="43.47914226267868" lon="10.729212123056813"><ele>161.66666666666666</ele><time>2026-04-19T13:19:47.001Z</time></trkpt><trkpt lat="43.47910115917737" lon="10.729138306500344"><ele>162.0</ele><time>2026-04-19T13:19:48.001Z</time></trkpt><trkpt lat="43.47904775711033" lon="10.72906171451658"><ele>162.33333333333334</ele><time>2026-04-19T13:19:49.001Z</time></trkpt><trkpt lat="43.47897987280309" lon="10.728984297671385"><ele>162.66666666666669</ele><time>2026-04-19T13:19:50.001Z</time></trkpt><trkpt lat="43.47889868401605" lon="10.728911894371727"><ele>163.0</ele><time>2026-04-19T13:19:51.001Z</time></trkpt><trkpt lat="43.47880451848741" lon="10.728853521729288"><ele>167.16666666666669</ele><time>2026-04-19T13:19:52.001Z</time></trkpt><trkpt lat="43.47870555782239" lon="10.72880411325273"><ele>171.33333333333334</ele><time>2026-04-19T13:19:53.001Z</time></trkpt><trkpt lat="43.478627635538665" lon="10.72876212586808"><ele>175.5</ele><time>2026-04-19T13:19:54.001Z</time></trkpt><trkpt lat="43.47855213325237" lon="10.728730492596341"><ele>179.66666666666666</ele><time>2026-04-19T13:19:55.001Z</time></trkpt><trkpt lat="43.47848005744296" lon="10.728699605447051"><ele>183.83333333333331</ele><time>2026-04-19T13:19:56.001Z</time></trkpt><trkpt lat="43.478408515180504" lon="10.728664557901668"><ele>188.0</ele><time>2026-04-19T13:19:57.001Z</time></trkpt><trkpt lat="43.47833613218581" lon="10.728635528025269"><ele>188.0</ele><time>2026-04-19T13:19:58.001Z</time></trkpt><trkpt lat="43.47826250964518" lon="10.728606200719604"><ele>188.0</ele><time>2026-04-19T13:19:59.001Z</time></trkpt><trkpt lat="43.478187445550795" lon="10.728576054606323"><ele>188.0</ele><time>2026-04-19T13:20:00.001Z</time></trkpt><trkpt lat="43.478109812578616" lon="10.72854582370556"><ele>188.0</ele><time>2026-04-19T13:20:01.001Z</time></trkpt><trkpt lat="43.478031503623896" lon="10.728511299221838"><ele>188.0</ele><time>2026-04-19T13:20:02.001Z</time></trkpt><trkpt lat="43.47794775724667" lon="10.728481256670383"><ele>188.0</ele><time>2026-04-19T13:20:03.001Z</time></trkpt><trkpt lat="43.47786323542495" lon="10.728450147666791"><ele>188.5</ele><time>2026-04-19T13:20:04.001Z</time></trkpt><trkpt lat="43.47778303227815" lon="10.728414706939862"><ele>189.0</ele><time>2026-04-19T13:20:05.001Z</time></trkpt><trkpt lat="43.47770180909805" lon="10.728391024315597"><ele>189.5</ele><time>2026-04-19T13:20:06.001Z</time></trkpt><trkpt lat="43.477631821595836" lon="10.728374792922052"><ele>190.0</ele><time>2026-04-19T13:20:07.001Z</time></trkpt><trkpt lat="43.477545258908656" lon="10.728369525258186"><ele>190.5</ele><time>2026-04-19T13:20:09.001Z</time></trkpt><trkpt lat="43.47761483735647" lon="10.728394762871467"><ele>191.0</ele><time>2026-04-19T13:20:35.001Z</time></trkpt><trkpt lat="43.47768135168827" lon="10.728408328425854"><ele>191.0</ele><time>2026-04-19T13:20:47.001Z</time></trkpt><trkpt lat="43.47775414020908" lon="10.728410122718135"><ele>191.0</ele><time>2026-04-19T13:20:55.001Z</time></trkpt><trkpt lat="43.47785171476984" lon="10.728426634654397"><ele>191.0</ele><time>2026-04-19T13:20:57.001Z</time></trkpt><trkpt lat="43.47790753913301" lon="10.728494637765202"><ele>191.0</ele><time>2026-04-19T13:20:58.001Z</time></trkpt><trkpt lat="43.47799900868021" lon="10.728517023859805"><ele>191.0</ele><time>2026-04-19T13:21:00.001Z</time></trkpt><trkpt lat="43.47807623235257" lon="10.728553582639835"><ele>191.0</ele><time>2026-04-19T13:21:05.001Z</time></trkpt><trkpt lat="43.47814912929756" lon="10.72859037965392"><ele>190.5</ele><time>2026-04-19T13:21:07.001Z</time></trkpt><trkpt lat="43.47820880502626" lon="10.728618068903682"><ele>190.0</ele><time>2026-04-19T13:21:09.001Z</time></trkpt><trkpt lat="43.47830203014131" lon="10.728656077889104"><ele>189.5</ele><time>2026-04-19T13:21:11.001Z</time></trkpt><trkpt lat="43.47840504531303" lon="10.728695178302699"><ele>189.0</ele><time>2026-04-19T13:21:13.001Z</time></trkpt><trkpt lat="43.47851862081498" lon="10.728737416387245"><ele>188.5</ele><time>2026-04-19T13:21:14.999Z</time></trkpt><trkpt lat="43.47857887500538" lon="10.728764366717218"><ele>188.0</ele><time>2026-04-19T13:21:15.999Z</time></trkpt><trkpt lat="43.47863989539254" lon="10.728794220144687"><ele>188.0</ele><time>2026-04-19T13:21:16.999Z</time></trkpt><trkpt lat="43.47870421726886" lon="10.728828409971713"><ele>188.0</ele><time>2026-04-19T13:21:17.999Z</time></trkpt><trkpt lat="43.478771070682434" lon="10.728864522949962"><ele>188.0</ele><time>2026-04-19T13:21:18.999Z</time></trkpt><trkpt lat="43.47883889242539" lon="10.728902770543854"><ele>188.0</ele><time>2026-04-19T13:21:19.999Z</time></trkpt><trkpt lat="43.47890565228497" lon="10.728945214889631"><ele>188.0</ele><time>2026-04-19T13:21:20.999Z</time></trkpt><trkpt lat="43.47896689997007" lon="10.729001610820344"><ele>188.0</ele><time>2026-04-19T13:21:21.999Z</time></trkpt><trkpt lat="43.47902508336135" lon="10.729069657607223"><ele>188.0</ele><time>2026-04-19T13:21:22.999Z</time></trkpt><trkpt lat="43.47907933165978" lon="10.729145687064676"><ele>183.0</ele><time>2026-04-19T13:21:23.999Z</time></trkpt><trkpt lat="43.47913361145503" lon="10.729235824093816"><ele>178.0</ele><time>2026-04-19T13:21:24.999Z</time></trkpt><trkpt lat="43.47918125512017" lon="10.729331319457657"><ele>173.0</ele><time>2026-04-19T13:21:25.999Z</time></trkpt><trkpt lat="43.47921560910071" lon="10.729416706188543"><ele>168.0</ele><time>2026-04-19T13:21:26.999Z</time></trkpt><trkpt lat="43.47923842002874" lon="10.729563040720112"><ele>163.0</ele><time>2026-04-19T13:21:28.999Z</time></trkpt><trkpt lat="43.47919153472049" lon="10.729694949771382"><ele>162.60000000000002</ele><time>2026-04-19T13:21:30.999Z</time></trkpt><trkpt lat="43.47915925508103" lon="10.729779241623632"><ele>162.20000000000002</ele><time>2026-04-19T13:21:31.999Z</time></trkpt><trkpt lat="43.47912700912237" lon="10.729876643406145"><ele>161.8</ele><time>2026-04-19T13:21:32.999Z</time></trkpt><trkpt lat="43.479092512732535" lon="10.729997922344866"><ele>161.4</ele><time>2026-04-19T13:21:33.999Z</time></trkpt><trkpt lat="43.47904843031055" lon="10.730130584961804"><ele>161.0</ele><time>2026-04-19T13:21:34.999Z</time></trkpt><trkpt lat="43.47898299172541" lon="10.730251504959451"><ele>159.0</ele><time>2026-04-19T13:21:35.999Z</time></trkpt><trkpt lat="43.478901313668956" lon="10.730352436447898"><ele>157.0</ele><time>2026-04-19T13:21:36.999Z</time></trkpt><trkpt lat="43.47881136269528" lon="10.730427016380396"><ele>155.0</ele><time>2026-04-19T13:21:37.999Z</time></trkpt><trkpt lat="43.47870642581188" lon="10.730479646296725"><ele>153.0</ele><time>2026-04-19T13:21:38.999Z</time></trkpt><trkpt lat="43.478591436508765" lon="10.730525464631617"><ele>151.0</ele><time>2026-04-19T13:21:40Z</time></trkpt><trkpt lat="43.478471210077565" lon="10.730576533420964"><ele>154.4</ele><time>2026-04-19T13:21:41Z</time></trkpt><trkpt lat="43.47835732015614" lon="10.730603573483322"><ele>157.8</ele><time>2026-04-19T13:21:42Z</time></trkpt><trkpt lat="43.47825484610883" lon="10.730666821152825"><ele>161.20000000000002</ele><time>2026-04-19T13:21:43Z</time></trkpt><trkpt lat="43.47819224311764" lon="10.73079331560868"><ele>164.6</ele><time>2026-04-19T13:21:44Z</time></trkpt><trkpt lat="43.4781707668998" lon="10.730923440533724"><ele>168.0</ele><time>2026-04-19T13:21:45Z</time></trkpt><trkpt lat="43.47816744389675" lon="10.731064351741251"><ele>168.0</ele><time>2026-04-19T13:21:46Z</time></trkpt><trkpt lat="43.47815292363045" lon="10.731202857854655"><ele>168.0</ele><time>2026-04-19T13:21:47Z</time></trkpt><trkpt lat="43.47813251974916" lon="10.731354829269439"><ele>168.0</ele><time>2026-04-19T13:21:48Z</time></trkpt><trkpt lat="43.47810268291662" lon="10.731509115590104"><ele>168.0</ele><time>2026-04-19T13:21:49Z</time></trkpt><trkpt lat="43.47806511932679" lon="10.731644953959526"><ele>168.0</ele><time>2026-04-19T13:21:50Z</time></trkpt><trkpt lat="43.47800568561331" lon="10.731765526676318"><ele>168.16666666666666</ele><time>2026-04-19T13:21:51Z</time></trkpt><trkpt lat="43.47791786229927" lon="10.731830609242728"><ele>168.33333333333334</ele><time>2026-04-19T13:21:52Z</time></trkpt><trkpt lat="43.477860885948736" lon="10.731894971446854"><ele>168.5</ele><time>2026-04-19T13:21:53Z</time></trkpt><trkpt lat="43.47777259006162" lon="10.731918809245148"><ele>168.66666666666669</ele><time>2026-04-19T13:21:55Z</time></trkpt><trkpt lat="43.47776988781035" lon="10.732039241760688"><ele>168.83333333333334</ele><time>2026-04-19T13:21:57Z</time></trkpt><trkpt lat="43.477793143834056" lon="10.732165138621127"><ele>169.0</ele><time>2026-04-19T13:21:59Z</time></trkpt><trkpt lat="43.47781611503064" lon="10.7323282962627"><ele>169.0</ele><time>2026-04-19T13:22:01Z</time></trkpt><trkpt lat="43.477828028256056" lon="10.732421986796956"><ele>169.0</ele><time>2026-04-19T13:22:02Z</time></trkpt><trkpt lat="43.477842289470544" lon="10.732523963229289"><ele>169.0</ele><time>2026-04-19T13:22:03Z</time></trkpt><trkpt lat="43.477854087011316" lon="10.73263349970317"><ele>169.0</ele><time>2026-04-19T13:22:04Z</time></trkpt><trkpt lat="43.477863902865685" lon="10.73272473550094"><ele>169.0</ele><time>2026-04-19T13:22:05Z</time></trkpt><trkpt lat="43.47787866450496" lon="10.732831311498913"><ele>169.0</ele><time>2026-04-19T13:22:07Z</time></trkpt><trkpt lat="43.47789118647013" lon="10.732951839568106"><ele>168.0</ele><time>2026-04-19T13:22:09Z</time></trkpt><trkpt lat="43.47790208109805" lon="10.73304059613912"><ele>167.0</ele><time>2026-04-19T13:22:10Z</time></trkpt><trkpt lat="43.477916400066" lon="10.733142909535387"><ele>166.0</ele><time>2026-04-19T13:22:11Z</time></trkpt><trkpt lat="43.477929004103615" lon="10.733252966744653"><ele>165.0</ele><time>2026-04-19T13:22:12Z</time></trkpt><trkpt lat="43.477942671199635" lon="10.733364773707093"><ele>164.0</ele><time>2026-04-19T13:22:13Z</time></trkpt><trkpt lat="43.4779540905646" lon="10.733466992363848"><ele>163.0</ele><time>2026-04-19T13:22:14Z</time></trkpt><trkpt lat="43.47796468304948" lon="10.73356493932869"><ele>162.57142857142858</ele><time>2026-04-19T13:22:15Z</time></trkpt><trkpt lat="43.47797907694525" lon="10.733661965263538"><ele>162.14285714285714</ele><time>2026-04-19T13:22:16Z</time></trkpt><trkpt lat="43.47799082790078" lon="10.733755946624727"><ele>161.71428571428572</ele><time>2026-04-19T13:22:17Z</time></trkpt><trkpt lat="43.47800062699163" lon="10.73384813361905"><ele>161.28571428571428</ele><time>2026-04-19T13:22:18Z</time></trkpt><trkpt lat="43.478012499132284" lon="10.733940717912645"><ele>160.85714285714286</ele><time>2026-04-19T13:22:19Z</time></trkpt><trkpt lat="43.47802092406849" lon="10.734033393291215"><ele>160.42857142857142</ele><time>2026-04-19T13:22:20Z</time></trkpt><trkpt lat="43.47803452169624" lon="10.734125002239773"><ele>160.0</ele><time>2026-04-19T13:22:21Z</time></trkpt><trkpt lat="43.47805915302979" lon="10.734260074247102"><ele>160.0</ele><time>2026-04-19T13:22:23Z</time></trkpt><trkpt lat="43.47807764165666" lon="10.73434568170371"><ele>160.0</ele><time>2026-04-19T13:22:27Z</time></trkpt><trkpt lat="43.47831505169021" lon="10.73423785381104"><ele>160.0</ele><time>2026-04-19T13:22:46.001Z</time></trkpt><trkpt lat="43.47833172885672" lon="10.734149715294276"><ele>160.0</ele><time>2026-04-19T13:22:47.001Z</time></trkpt><trkpt lat="43.47834581224682" lon="10.734038456449237"><ele>160.0</ele><time>2026-04-19T13:22:48.001Z</time></trkpt><trkpt lat="43.47835198057936" lon="10.733943664155573"><ele>160.0</ele><time>2026-04-19T13:22:49.001Z</time></trkpt><trkpt lat="43.478363113243226" lon="10.733775065808212"><ele>160.0</ele><time>2026-04-19T13:22:51.001Z</time></trkpt><trkpt lat="43.47823132667928" lon="10.733335006652714"><ele>159.83333333333334</ele><time>2026-04-19T13:22:53.001Z</time></trkpt><trkpt lat="43.478173495237414" lon="10.73323063994574"><ele>159.66666666666669</ele><time>2026-04-19T13:22:56.001Z</time></trkpt><trkpt lat="43.47811024919987" lon="10.733103728406867"><ele>159.5</ele><time>2026-04-19T13:22:58.001Z</time></trkpt><trkpt lat="43.47806502272103" lon="10.733011011253785"><ele>159.33333333333334</ele><time>2026-04-19T13:22:59.001Z</time></trkpt><trkpt lat="43.4780188173498" lon="10.732919238337287"><ele>159.16666666666666</ele><time>2026-04-19T13:23:00.001Z</time></trkpt><trkpt lat="43.47797929607773" lon="10.73284050622174"><ele>159.0</ele><time>2026-04-19T13:23:01.001Z</time></trkpt><trkpt lat="43.47792377188457" lon="10.732731501896035"><ele>159.0</ele><time>2026-04-19T13:23:03.001Z</time></trkpt><trkpt lat="43.47787164691634" lon="10.73287721510787"><ele>159.0</ele><time>2026-04-19T13:23:19.999Z</time></trkpt><trkpt lat="43.47788718717106" lon="10.733001933430149"><ele>159.0</ele><time>2026-04-19T13:23:21.999Z</time></trkpt><trkpt lat="43.47790485916335" lon="10.733127525440176"><ele>159.0</ele><time>2026-04-19T13:23:23.999Z</time></trkpt><trkpt lat="43.47791963599542" lon="10.733252694972979"><ele>159.0</ele><time>2026-04-19T13:23:25.999Z</time></trkpt><trkpt lat="43.47793504307365" lon="10.73338735288964"><ele>159.2</ele><time>2026-04-19T13:23:27.999Z</time></trkpt><trkpt lat="43.47794723241408" lon="10.733488463216563"><ele>159.4</ele><time>2026-04-19T13:23:29.999Z</time></trkpt><trkpt lat="43.47804274778555" lon="10.733552213687153"><ele>159.6</ele><time>2026-04-19T13:23:32.999Z</time></trkpt><trkpt lat="43.47809524428226" lon="10.733649804755869"><ele>159.8</ele><time>2026-04-19T13:23:34.999Z</time></trkpt><trkpt lat="43.478097576823465" lon="10.733818231945023"><ele>160.0</ele><time>2026-04-19T13:23:36.999Z</time></trkpt><trkpt lat="43.47853047633408" lon="10.73380749402369"><ele>160.0</ele><time>2026-04-19T13:23:37.999Z</time></trkpt><trkpt lat="43.47856116382728" lon="10.733906306418861"><ele>160.0</ele><time>2026-04-19T13:23:38.999Z</time></trkpt><trkpt lat="43.478591117814055" lon="10.734007542354206"><ele>160.0</ele><time>2026-04-19T13:23:39.999Z</time></trkpt><trkpt lat="43.478607383858325" lon="10.73411886404639"><ele>160.0</ele><time>2026-04-19T13:23:40.999Z</time></trkpt><trkpt lat="43.478620555637576" lon="10.73423876154413"><ele>160.0</ele><time>2026-04-19T13:23:41.999Z</time></trkpt><trkpt lat="43.47862140568382" lon="10.734362767762361"><ele>160.0</ele><time>2026-04-19T13:23:42.999Z</time></trkpt><trkpt lat="43.47862185541551" lon="10.734489520389142"><ele>158.8</ele><time>2026-04-19T13:23:43.999Z</time></trkpt><trkpt lat="43.478630385579244" lon="10.734618289436687"><ele>157.6</ele><time>2026-04-19T13:23:44.999Z</time></trkpt><trkpt lat="43.47864497273961" lon="10.734749065655203"><ele>156.4</ele><time>2026-04-19T13:23:45.999Z</time></trkpt><trkpt lat="43.47866665348615" lon="10.734882351521216"><ele>155.2</ele><time>2026-04-19T13:23:46.999Z</time></trkpt><trkpt lat="43.47869297014376" lon="10.735013312778474"><ele>154.0</ele><time>2026-04-19T13:23:48Z</time></trkpt><trkpt lat="43.47872018787714" lon="10.735143039948538"><ele>151.6</ele><time>2026-04-19T13:23:49Z</time></trkpt><trkpt lat="43.47874476702295" lon="10.735272921907427"><ele>149.2</ele><time>2026-04-19T13:23:50Z</time></trkpt><trkpt lat="43.47876881234553" lon="10.735403507561678"><ele>146.79999999999998</ele><time>2026-04-19T13:23:51Z</time></trkpt><trkpt lat="43.47879436914852" lon="10.735533816196297"><ele>144.4</ele><time>2026-04-19T13:23:52Z</time></trkpt><trkpt lat="43.47882901418306" lon="10.735658493615757"><ele>142.0</ele><time>2026-04-19T13:23:53Z</time></trkpt><trkpt lat="43.47886566628189" lon="10.735772418559769"><ele>141.33333333333334</ele><time>2026-04-19T13:23:54Z</time></trkpt><trkpt lat="43.47889655188297" lon="10.73587952459266"><ele>140.66666666666669</ele><time>2026-04-19T13:23:55Z</time></trkpt><trkpt lat="43.47893755486929" lon="10.73598186330932"><ele>140.0</ele><time>2026-04-19T13:23:56Z</time></trkpt><trkpt lat="43.47899204156255" lon="10.736064991787039"><ele>139.33333333333334</ele><time>2026-04-19T13:23:57Z</time></trkpt><trkpt lat="43.47904660985364" lon="10.736127277111695"><ele>138.66666666666666</ele><time>2026-04-19T13:23:58Z</time></trkpt><trkpt lat="43.47910997739915" lon="10.73618319825228"><ele>138.0</ele><time>2026-04-19T13:23:59Z</time></trkpt><trkpt lat="43.47918399933467" lon="10.736230585612786"><ele>136.33333333333334</ele><time>2026-04-19T13:24:00Z</time></trkpt><trkpt lat="43.479263376285886" lon="10.736271945285033"><ele>134.66666666666666</ele><time>2026-04-19T13:24:01Z</time></trkpt><trkpt lat="43.479343689764605" lon="10.736313149096576"><ele>133.0</ele><time>2026-04-19T13:24:02Z</time></trkpt><trkpt lat="43.47942537316986" lon="10.736361997904883"><ele>131.33333333333331</ele><time>2026-04-19T13:24:03Z</time></trkpt><trkpt lat="43.47950240136753" lon="10.736428080487345"><ele>129.66666666666666</ele><time>2026-04-19T13:24:04Z</time></trkpt><trkpt lat="43.47957583913055" lon="10.736507448634459"><ele>128.0</ele><time>2026-04-19T13:24:05Z</time></trkpt><trkpt lat="43.47964679606061" lon="10.736592468747485"><ele>127.0</ele><time>2026-04-19T13:24:06Z</time></trkpt><trkpt lat="43.47971487072598" lon="10.736677564249788"><ele>126.00000000000001</ele><time>2026-04-19T13:24:07Z</time></trkpt><trkpt lat="43.479781799908345" lon="10.73676642223784"><ele>125.00000000000001</ele><time>2026-04-19T13:24:08Z</time></trkpt><trkpt lat="43.479848895782176" lon="10.736849930105702"><ele>124.0</ele><time>2026-04-19T13:24:09Z</time></trkpt><trkpt lat="43.479919791082736" lon="10.736926364329875"><ele>123.0</ele><time>2026-04-19T13:24:10Z</time></trkpt><trkpt lat="43.4799965170035" lon="10.736988957532189"><ele>122.66666666666667</ele><time>2026-04-19T13:24:11Z</time></trkpt><trkpt lat="43.48007277774972" lon="10.737054693445318"><ele>122.33333333333334</ele><time>2026-04-19T13:24:12Z</time></trkpt><trkpt lat="43.48014971373715" lon="10.737121843378288"><ele>122.0</ele><time>2026-04-19T13:24:13Z</time></trkpt><trkpt lat="43.48022706702334" lon="10.737187053349192"><ele>121.66666666666667</ele><time>2026-04-19T13:24:14Z</time></trkpt><trkpt lat="43.48030202802009" lon="10.73725230454521"><ele>121.33333333333334</ele><time>2026-04-19T13:24:15Z</time></trkpt><trkpt lat="43.48037474227343" lon="10.737319864477056"><ele>121.0</ele><time>2026-04-19T13:24:16Z</time></trkpt><trkpt lat="43.480448071645604" lon="10.73738940103086"><ele>120.6</ele><time>2026-04-19T13:24:17Z</time></trkpt><trkpt lat="43.48051564412224" lon="10.73746220372812"><ele>120.19999999999999</ele><time>2026-04-19T13:24:18Z</time></trkpt><trkpt lat="43.48057230526444" lon="10.737534979420321"><ele>119.80000000000001</ele><time>2026-04-19T13:24:19Z</time></trkpt><trkpt lat="43.480637857748626" lon="10.737620664054962"><ele>119.4</ele><time>2026-04-19T13:24:21Z</time></trkpt><trkpt lat="43.48067514747361" lon="10.737698308491767"><ele>119.0</ele><time>2026-04-19T13:24:30Z</time></trkpt><trkpt lat="43.480808932682436" lon="10.73763360808347"><ele>119.0</ele><time>2026-04-19T13:24:34Z</time></trkpt><trkpt lat="43.48093187058921" lon="10.737671130778557"><ele>119.0</ele><time>2026-04-19T13:24:36Z</time></trkpt><trkpt lat="43.48102359645735" lon="10.737690600927301"><ele>119.0</ele><time>2026-04-19T13:24:37Z</time></trkpt><trkpt lat="43.48113649038043" lon="10.73769256639612"><ele>119.0</ele><time>2026-04-19T13:24:38Z</time></trkpt><trkpt lat="43.481249859338824" lon="10.737683435427247"><ele>119.0</ele><time>2026-04-19T13:24:39Z</time></trkpt><trkpt lat="43.481380632709936" lon="10.737661496159992"><ele>118.0</ele><time>2026-04-19T13:24:40Z</time></trkpt><trkpt lat="43.48152915211081" lon="10.73766422702618"><ele>117.0</ele><time>2026-04-19T13:24:41Z</time></trkpt><trkpt lat="43.48167756424546" lon="10.73768755573608"><ele>116.0</ele><time>2026-04-19T13:24:42Z</time></trkpt><trkpt lat="43.48180703413639" lon="10.737720054824264"><ele>115.0</ele><time>2026-04-19T13:24:43.001Z</time></trkpt><trkpt lat="43.48191927989028" lon="10.737763099387337"><ele>114.50000000000001</ele><time>2026-04-19T13:24:44.001Z</time></trkpt><trkpt lat="43.482007437551054" lon="10.737811984193295"><ele>114.0</ele><time>2026-04-19T13:24:45.001Z</time></trkpt><trkpt lat="43.48208508314953" lon="10.737869327016167"><ele>113.5</ele><time>2026-04-19T13:24:46.001Z</time></trkpt><trkpt lat="43.482152772480596" lon="10.737922030821872"><ele>113.0</ele><time>2026-04-19T13:24:47.001Z</time></trkpt><trkpt lat="43.48222109071542" lon="10.737974691204373"><ele>112.50000000000001</ele><time>2026-04-19T13:24:48.001Z</time></trkpt><trkpt lat="43.4823026499353" lon="10.73801911308846"><ele>112.0</ele><time>2026-04-19T13:24:49.001Z</time></trkpt><trkpt lat="43.48238608476494" lon="10.738063390361052"><ele>111.0</ele><time>2026-04-19T13:24:50.001Z</time></trkpt><trkpt lat="43.48247962248835" lon="10.738098522707741"><ele>109.99999999999999</ele><time>2026-04-19T13:24:51.001Z</time></trkpt><trkpt lat="43.48257111456388" lon="10.738132680617953"><ele>108.99999999999999</ele><time>2026-04-19T13:24:52.001Z</time></trkpt><trkpt lat="43.48266117971651" lon="10.73818218320961"><ele>108.0</ele><time>2026-04-19T13:24:53.001Z</time></trkpt><trkpt lat="43.48275466704121" lon="10.73824999857307"><ele>107.0</ele><time>2026-04-19T13:24:54.001Z</time></trkpt><trkpt lat="43.4828503408544" lon="10.738339493728715"><ele>106.0</ele><time>2026-04-19T13:24:55.001Z</time></trkpt><trkpt lat="43.48294222182714" lon="10.738448044556064"><ele>105.0</ele><time>2026-04-19T13:24:56.001Z</time></trkpt><trkpt lat="43.48304231827546" lon="10.73856305380029"><ele>104.0</ele><time>2026-04-19T13:24:57.001Z</time></trkpt><trkpt lat="43.483139106416026" lon="10.738673054437964"><ele>103.0</ele><time>2026-04-19T13:24:58.001Z</time></trkpt><trkpt lat="43.483235568728425" lon="10.738777245619012"><ele>103.0</ele><time>2026-04-19T13:24:59.001Z</time></trkpt><trkpt lat="43.48333299721321" lon="10.738880074729794"><ele>103.0</ele><time>2026-04-19T13:25:00.001Z</time></trkpt><trkpt lat="43.483435065624576" lon="10.738985720268447"><ele>103.0</ele><time>2026-04-19T13:25:01.001Z</time></trkpt><trkpt lat="43.483534921473314" lon="10.739087914733721"><ele>103.0</ele><time>2026-04-19T13:25:02.001Z</time></trkpt><trkpt lat="43.483633539463426" lon="10.739191034354134"><ele>103.0</ele><time>2026-04-19T13:25:03.001Z</time></trkpt><trkpt lat="43.48372551881847" lon="10.739290097124895"><ele>103.0</ele><time>2026-04-19T13:25:04.001Z</time></trkpt><trkpt lat="43.48381149824773" lon="10.739395421985268"><ele>103.0</ele><time>2026-04-19T13:25:05.001Z</time></trkpt><trkpt lat="43.48388311358155" lon="10.7395089287714"><ele>103.0</ele><time>2026-04-19T13:25:06.001Z</time></trkpt><trkpt lat="43.483946340371716" lon="10.73963416423905"><ele>101.75</ele><time>2026-04-19T13:25:07.001Z</time></trkpt><trkpt lat="43.4839921659231" lon="10.739779071742358"><ele>100.5</ele><time>2026-04-19T13:25:08.001Z</time></trkpt><trkpt lat="43.484005929848166" lon="10.73994262827542"><ele>99.25</ele><time>2026-04-19T13:25:09.001Z</time></trkpt><trkpt lat="43.48402366647017" lon="10.74012344728532"><ele>98.0</ele><time>2026-04-19T13:25:10.001Z</time></trkpt><trkpt lat="43.484043961368535" lon="10.740279952816694"><ele>97.80000000000001</ele><time>2026-04-19T13:25:11.001Z</time></trkpt><trkpt lat="43.48407848775204" lon="10.740416843130616"><ele>97.6</ele><time>2026-04-19T13:25:12.001Z</time></trkpt><trkpt lat="43.484132666967156" lon="10.740524639439586"><ele>97.4</ele><time>2026-04-19T13:25:13.001Z</time></trkpt><trkpt lat="43.48418964310354" lon="10.740618495487235"><ele>97.19999999999999</ele><time>2026-04-19T13:25:14.001Z</time></trkpt><trkpt lat="43.484256293645544" lon="10.74071511523716"><ele>97.0</ele><time>2026-04-19T13:25:15.001Z</time></trkpt><trkpt lat="43.484335965048466" lon="10.740821553190925"><ele>97.0</ele><time>2026-04-19T13:25:16.001Z</time></trkpt><trkpt lat="43.48441806855056" lon="10.74093597373825"><ele>97.0</ele><time>2026-04-19T13:25:17.001Z</time></trkpt><trkpt lat="43.48450818368132" lon="10.741054278775527"><ele>97.0</ele><time>2026-04-19T13:25:18.001Z</time></trkpt><trkpt lat="43.48459608069133" lon="10.741171612040404"><ele>97.0</ele><time>2026-04-19T13:25:19.001Z</time></trkpt><trkpt lat="43.48467760778259" lon="10.741281116234962"><ele>96.25</ele><time>2026-04-19T13:25:20.001Z</time></trkpt><trkpt lat="43.48476168869644" lon="10.741396334884254"><ele>95.5</ele><time>2026-04-19T13:25:21.001Z</time></trkpt><trkpt lat="43.48484583985928" lon="10.741514351135988"><ele>94.75</ele><time>2026-04-19T13:25:22.001Z</time></trkpt><trkpt lat="43.48492864915904" lon="10.74162881759657"><ele>94.0</ele><time>2026-04-19T13:25:23.001Z</time></trkpt><trkpt lat="43.485008624517924" lon="10.741739009833784"><ele>94.0</ele><time>2026-04-19T13:25:24.001Z</time></trkpt><trkpt lat="43.48507660310996" lon="10.741838446277029"><ele>94.0</ele><time>2026-04-19T13:25:25.001Z</time></trkpt><trkpt lat="43.48514632976507" lon="10.741929805323878"><ele>94.0</ele><time>2026-04-19T13:25:25.999Z</time></trkpt><trkpt lat="43.485215519399375" lon="10.742014683512565"><ele>94.0</ele><time>2026-04-19T13:25:26.999Z</time></trkpt><trkpt lat="43.48527846561123" lon="10.742106566507331"><ele>94.0</ele><time>2026-04-19T13:25:27.999Z</time></trkpt><trkpt lat="43.48534330995223" lon="10.742192778056102"><ele>93.83333333333333</ele><time>2026-04-19T13:25:28.999Z</time></trkpt><trkpt lat="43.485408925634296" lon="10.742273736567896"><ele>93.66666666666666</ele><time>2026-04-19T13:25:29.999Z</time></trkpt><trkpt lat="43.4854691829326" lon="10.742353786728613"><ele>93.5</ele><time>2026-04-19T13:25:30.999Z</time></trkpt><trkpt lat="43.48552782569739" lon="10.742437629899223"><ele>93.33333333333333</ele><time>2026-04-19T13:25:31.999Z</time></trkpt><trkpt lat="43.48558753278844" lon="10.742518557362542"><ele>93.16666666666667</ele><time>2026-04-19T13:25:32.999Z</time></trkpt><trkpt lat="43.48564231056465" lon="10.742592935483087"><ele>93.0</ele><time>2026-04-19T13:25:33.999Z</time></trkpt><trkpt lat="43.48569006408693" lon="10.742662784760563"><ele>93.0</ele><time>2026-04-19T13:25:34.999Z</time></trkpt><trkpt lat="43.485771714230566" lon="10.742717684583118"><ele>93.0</ele><time>2026-04-19T13:25:36.999Z</time></trkpt><trkpt lat="43.485853614393946" lon="10.742645355403745"><ele>93.0</ele><time>2026-04-19T13:25:38.999Z</time></trkpt><trkpt lat="43.48596000700648" lon="10.742552571469341"><ele>93.0</ele><time>2026-04-19T13:25:40.999Z</time></trkpt><trkpt lat="43.486028465829676" lon="10.742526613546517"><ele>93.0</ele><time>2026-04-19T13:25:41.999Z</time></trkpt><trkpt lat="43.48609480543744" lon="10.742486940126653"><ele>93.0</ele><time>2026-04-19T13:25:42.999Z</time></trkpt><trkpt lat="43.48616465286114" lon="10.742451474821285"><ele>93.0</ele><time>2026-04-19T13:25:43.999Z</time></trkpt><trkpt lat="43.486242666883456" lon="10.742465260838316"><ele>93.0</ele><time>2026-04-19T13:25:44.999Z</time></trkpt><trkpt lat="43.486317986230844" lon="10.742502369360626"><ele>93.0</ele><time>2026-04-19T13:25:45.999Z</time></trkpt><trkpt lat="43.486388865671245" lon="10.742548233631316"><ele>93.0</ele><time>2026-04-19T13:25:46.999Z</time></trkpt><trkpt lat="43.486456536136124" lon="10.742591102065804"><ele>93.0</ele><time>2026-04-19T13:25:47.999Z</time></trkpt><trkpt lat="43.48652356118495" lon="10.742623690552799"><ele>92.5</ele><time>2026-04-19T13:25:48.999Z</time></trkpt><trkpt lat="43.48659467063541" lon="10.742662947163666"><ele>92.0</ele><time>2026-04-19T13:25:49.999Z</time></trkpt><trkpt lat="43.4866803017556" lon="10.742652598484602"><ele>91.5</ele><time>2026-04-19T13:25:50.999Z</time></trkpt><trkpt lat="43.48676338641252" lon="10.742618637984744"><ele>91.0</ele><time>2026-04-19T13:25:52Z</time></trkpt><trkpt lat="43.48685547567917" lon="10.742608620862436"><ele>90.5</ele><time>2026-04-19T13:25:53Z</time></trkpt><trkpt lat="43.486953799825336" lon="10.74259718293824"><ele>90.0</ele><time>2026-04-19T13:25:54Z</time></trkpt><trkpt lat="43.48705563723443" lon="10.742587352391663"><ele>87.8</ele><time>2026-04-19T13:25:55Z</time></trkpt><trkpt lat="43.48716109564513" lon="10.74258046583002"><ele>85.6</ele><time>2026-04-19T13:25:56Z</time></trkpt><trkpt lat="43.487271536427706" lon="10.742595102131023"><ele>83.4</ele><time>2026-04-19T13:25:57Z</time></trkpt><trkpt lat="43.487384906363765" lon="10.742591999724695"><ele>81.2</ele><time>2026-04-19T13:25:58Z</time></trkpt><trkpt lat="43.487502058050815" lon="10.7425743624044"><ele>79.0</ele><time>2026-04-19T13:25:59Z</time></trkpt><trkpt lat="43.48762454822068" lon="10.742581264919664"><ele>79.0</ele><time>2026-04-19T13:26:00Z</time></trkpt><trkpt lat="43.48774936662972" lon="10.742590575155768"><ele>79.0</ele><time>2026-04-19T13:26:01Z</time></trkpt><trkpt lat="43.48787173778362" lon="10.742618406191069"><ele>79.0</ele><time>2026-04-19T13:26:02Z</time></trkpt><trkpt lat="43.48798708983373" lon="10.742650209816535"><ele>79.0</ele><time>2026-04-19T13:26:03Z</time></trkpt><trkpt lat="43.488089907757924" lon="10.742683202931836"><ele>78.0</ele><time>2026-04-19T13:26:04Z</time></trkpt><trkpt lat="43.48817737671604" lon="10.742713670370938"><ele>77.0</ele><time>2026-04-19T13:26:05Z</time></trkpt><trkpt lat="43.48825233792338" lon="10.742745038797082"><ele>76.0</ele><time>2026-04-19T13:26:06Z</time></trkpt><trkpt lat="43.48831362508892" lon="10.742787157725074"><ele>75.0</ele><time>2026-04-19T13:26:07Z</time></trkpt><trkpt lat="43.48836532161244" lon="10.74286951186429"><ele>74.0</ele><time>2026-04-19T13:26:09Z</time></trkpt><trkpt lat="43.48841497818965" lon="10.742931641341407"><ele>73.0</ele><time>2026-04-19T13:26:22Z</time></trkpt><trkpt lat="43.48853099941601" lon="10.742803414977358"><ele>73.0</ele><time>2026-04-19T13:26:23Z</time></trkpt><trkpt lat="43.48858937879473" lon="10.742752744107081"><ele>73.0</ele><time>2026-04-19T13:26:24Z</time></trkpt><trkpt lat="43.48866304621216" lon="10.742674964621134"><ele>73.0</ele><time>2026-04-19T13:26:25Z</time></trkpt><trkpt lat="43.488754307506035" lon="10.742582789228328"><ele>73.0</ele><time>2026-04-19T13:26:26Z</time></trkpt><trkpt lat="43.48884666077137" lon="10.742491257991462"><ele>73.0</ele><time>2026-04-19T13:26:27Z</time></trkpt><trkpt lat="43.488951214336645" lon="10.742393181171328"><ele>72.25</ele><time>2026-04-19T13:26:28Z</time></trkpt><trkpt lat="43.489073077533476" lon="10.74229385424221"><ele>71.5</ele><time>2026-04-19T13:26:29Z</time></trkpt><trkpt lat="43.489206687694576" lon="10.742196462062802"><ele>70.75</ele><time>2026-04-19T13:26:30Z</time></trkpt><trkpt lat="43.489340451065445" lon="10.742105949386236"><ele>70.0</ele><time>2026-04-19T13:26:31Z</time></trkpt><trkpt lat="43.489483923659414" lon="10.742015280740965"><ele>69.66666666666666</ele><time>2026-04-19T13:26:32Z</time></trkpt><trkpt lat="43.489633520229134" lon="10.741918172420267"><ele>69.33333333333333</ele><time>2026-04-19T13:26:33Z</time></trkpt><trkpt lat="43.489793419885935" lon="10.741814358625533"><ele>69.0</ele><time>2026-04-19T13:26:34.001Z</time></trkpt><trkpt lat="43.48996636807754" lon="10.741719294039415"><ele>68.66666666666667</ele><time>2026-04-19T13:26:35.001Z</time></trkpt><trkpt lat="43.49013391810666" lon="10.741590728867546"><ele>68.33333333333334</ele><time>2026-04-19T13:26:36.001Z</time></trkpt><trkpt lat="43.49029701187393" lon="10.741453388349894"><ele>68.0</ele><time>2026-04-19T13:26:37.001Z</time></trkpt><trkpt lat="43.490459288720224" lon="10.741302055147125"><ele>68.0</ele><time>2026-04-19T13:26:38.001Z</time></trkpt><trkpt lat="43.490617631885215" lon="10.741135103718465"><ele>68.0</ele><time>2026-04-19T13:26:39.001Z</time></trkpt><trkpt lat="43.49077068139119" lon="10.740956115213445"><ele>68.0</ele><time>2026-04-19T13:26:40.001Z</time></trkpt><trkpt lat="43.49091311043625" lon="10.740768327073422"><ele>68.0</ele><time>2026-04-19T13:26:41.001Z</time></trkpt><trkpt lat="43.491055471391455" lon="10.740576644763529"><ele>68.0</ele><time>2026-04-19T13:26:42.001Z</time></trkpt><trkpt lat="43.49119906389094" lon="10.74038330430575"><ele>68.0</ele><time>2026-04-19T13:26:43.001Z</time></trkpt><trkpt lat="43.49128669322716" lon="10.740109874091726"><ele>68.0</ele><time>2026-04-19T13:26:44.001Z</time></trkpt><trkpt lat="43.49140509939307" lon="10.739876918722299"><ele>68.0</ele><time>2026-04-19T13:26:45.001Z</time></trkpt><trkpt lat="43.49152222260438" lon="10.739634707101407"><ele>68.0</ele><time>2026-04-19T13:26:46.001Z</time></trkpt><trkpt lat="43.49163729756042" lon="10.739391770709732"><ele>68.66666666666667</ele><time>2026-04-19T13:26:47.001Z</time></trkpt><trkpt lat="43.491751367578445" lon="10.739148350461713"><ele>69.33333333333333</ele><time>2026-04-19T13:26:48.001Z</time></trkpt><trkpt lat="43.49186638943981" lon="10.738904178964894"><ele>70.0</ele><time>2026-04-19T13:26:49.001Z</time></trkpt><trkpt lat="43.49198653783828" lon="10.738663401051804"><ele>69.66666666666666</ele><time>2026-04-19T13:26:50.001Z</time></trkpt><trkpt lat="43.492115247276224" lon="10.73842489256356"><ele>69.33333333333333</ele><time>2026-04-19T13:26:51.001Z</time></trkpt><trkpt lat="43.492251006428184" lon="10.738196243439763"><ele>69.0</ele><time>2026-04-19T13:26:52.001Z</time></trkpt><trkpt lat="43.49239064226252" lon="10.737980597303418"><ele>69.0</ele><time>2026-04-19T13:26:53.001Z</time></trkpt><trkpt lat="43.49253254305402" lon="10.737776505053816"><ele>69.0</ele><time>2026-04-19T13:26:54.001Z</time></trkpt><trkpt lat="43.49267780188243" lon="10.737586277474598"><ele>69.0</ele><time>2026-04-19T13:26:55.001Z</time></trkpt><trkpt lat="43.492823910561754" lon="10.73741342084721"><ele>69.0</ele><time>2026-04-19T13:26:56.001Z</time></trkpt><trkpt lat="43.49296856620432" lon="10.737255205319967"><ele>69.0</ele><time>2026-04-19T13:26:57.001Z</time></trkpt><trkpt lat="43.49310636912178" lon="10.737113852245228"><ele>69.0</ele><time>2026-04-19T13:26:58.001Z</time></trkpt><trkpt lat="43.493244930600966" lon="10.736978433763541"><ele>69.0</ele><time>2026-04-19T13:26:59.001Z</time></trkpt><trkpt lat="43.49338250023731" lon="10.736846949365301"><ele>69.0</ele><time>2026-04-19T13:27:00.001Z</time></trkpt><trkpt lat="43.49351812285807" lon="10.736720980749185"><ele>69.0</ele><time>2026-04-19T13:27:01.001Z</time></trkpt><trkpt lat="43.49365879913108" lon="10.736594232485439"><ele>69.33333333333333</ele><time>2026-04-19T13:27:02.001Z</time></trkpt><trkpt lat="43.49380180195912" lon="10.736475676376456"><ele>69.66666666666666</ele><time>2026-04-19T13:27:03.001Z</time></trkpt><trkpt lat="43.493948378756215" lon="10.736360984713672"><ele>70.0</ele><time>2026-04-19T13:27:04.001Z</time></trkpt><trkpt lat="43.49409900031192" lon="10.736253481319833"><ele>70.0</ele><time>2026-04-19T13:27:05.001Z</time></trkpt><trkpt lat="43.49425489820196" lon="10.736156008200965"><ele>70.0</ele><time>2026-04-19T13:27:06.001Z</time></trkpt><trkpt lat="43.494413200704585" lon="10.736067009357301"><ele>70.0</ele><time>2026-04-19T13:27:07.001Z</time></trkpt><trkpt lat="43.49457280427468" lon="10.735984949654382"><ele>70.33333333333333</ele><time>2026-04-19T13:27:08.001Z</time></trkpt><trkpt lat="43.494733967740885" lon="10.735908797687536"><ele>70.66666666666667</ele><time>2026-04-19T13:27:09.001Z</time></trkpt><trkpt lat="43.494894776790574" lon="10.735837229519465"><ele>71.0</ele><time>2026-04-19T13:27:10.001Z</time></trkpt><trkpt lat="43.49505526769786" lon="10.7357714804487"><ele>71.0</ele><time>2026-04-19T13:27:11.001Z</time></trkpt><trkpt lat="43.49521200485676" lon="10.735709896041737"><ele>71.0</ele><time>2026-04-19T13:27:12.001Z</time></trkpt><trkpt lat="43.495365911139814" lon="10.735646739590115"><ele>71.0</ele><time>2026-04-19T13:27:13.001Z</time></trkpt><trkpt lat="43.495515462393925" lon="10.73557522844261"><ele>70.0</ele><time>2026-04-19T13:27:14.001Z</time></trkpt><trkpt lat="43.495663101670594" lon="10.735493063348754"><ele>69.0</ele><time>2026-04-19T13:27:15.001Z</time></trkpt><trkpt lat="43.49580798174733" lon="10.735406174728684"><ele>68.0</ele><time>2026-04-19T13:27:16.001Z</time></trkpt><trkpt lat="43.49594753214742" lon="10.7353114381352"><ele>67.66666666666667</ele><time>2026-04-19T13:27:17.001Z</time></trkpt><trkpt lat="43.49608353006009" lon="10.735208148422497"><ele>67.33333333333333</ele><time>2026-04-19T13:27:18.001Z</time></trkpt><trkpt lat="43.49621573548668" lon="10.735096131207051"><ele>67.0</ele><time>2026-04-19T13:27:19.001Z</time></trkpt><trkpt lat="43.496343861716625" lon="10.734974876733475"><ele>67.0</ele><time>2026-04-19T13:27:20.001Z</time></trkpt><trkpt lat="43.49646757941996" lon="10.734844645235283"><ele>67.0</ele><time>2026-04-19T13:27:21.001Z</time></trkpt><trkpt lat="43.49659051797981" lon="10.734709307922277"><ele>67.0</ele><time>2026-04-19T13:27:22.001Z</time></trkpt><trkpt lat="43.49671369855777" lon="10.73457313193462"><ele>67.0</ele><time>2026-04-19T13:27:23.001Z</time></trkpt><trkpt lat="43.496840696576925" lon="10.734439085757243"><ele>67.0</ele><time>2026-04-19T13:27:24.001Z</time></trkpt><trkpt lat="43.49697060140098" lon="10.73431233239352"><ele>67.0</ele><time>2026-04-19T13:27:25.001Z</time></trkpt><trkpt lat="43.49710524395804" lon="10.734189248564817"><ele>66.66666666666666</ele><time>2026-04-19T13:27:26.001Z</time></trkpt><trkpt lat="43.497242960850656" lon="10.734068445826697"><ele>66.33333333333333</ele><time>2026-04-19T13:27:27.001Z</time></trkpt><trkpt lat="43.49738586183785" lon="10.73395227874073"><ele>66.0</ele><time>2026-04-19T13:27:28.001Z</time></trkpt><trkpt lat="43.497534211618635" lon="10.73384276142192"><ele>66.0</ele><time>2026-04-19T13:27:29.001Z</time></trkpt><trkpt lat="43.49768924124042" lon="10.733745285307805"><ele>66.0</ele><time>2026-04-19T13:27:30.001Z</time></trkpt><trkpt lat="43.497846186509655" lon="10.733656355428964"><ele>66.0</ele><time>2026-04-19T13:27:31.001Z</time></trkpt><trkpt lat="43.49800268246658" lon="10.733570820624307"><ele>67.33333333333333</ele><time>2026-04-19T13:27:31.999Z</time></trkpt><trkpt lat="43.49816044383026" lon="10.733486936330547"><ele>68.66666666666666</ele><time>2026-04-19T13:27:32.999Z</time></trkpt><trkpt lat="43.49831999899028" lon="10.73340565060954"><ele>70.0</ele><time>2026-04-19T13:27:33.999Z</time></trkpt><trkpt lat="43.49847924143414" lon="10.733325729416512"><ele>70.0</ele><time>2026-04-19T13:27:34.999Z</time></trkpt><trkpt lat="43.498636152401495" lon="10.733248364203746"><ele>70.0</ele><time>2026-04-19T13:27:35.999Z</time></trkpt><trkpt lat="43.49879012241585" lon="10.73317113843212"><ele>70.0</ele><time>2026-04-19T13:27:36.999Z</time></trkpt><trkpt lat="43.498944168300106" lon="10.733094397999496"><ele>69.33333333333333</ele><time>2026-04-19T13:27:37.999Z</time></trkpt><trkpt lat="43.4990942851745" lon="10.733022939199396"><ele>68.66666666666667</ele><time>2026-04-19T13:27:38.999Z</time></trkpt><trkpt lat="43.49924174258695" lon="10.732952675836943"><ele>68.0</ele><time>2026-04-19T13:27:39.999Z</time></trkpt><trkpt lat="43.499386937579615" lon="10.732880259630527"><ele>68.0</ele><time>2026-04-19T13:27:40.999Z</time></trkpt><trkpt lat="43.49952889842732" lon="10.732801561652646"><ele>68.0</ele><time>2026-04-19T13:27:41.999Z</time></trkpt><trkpt lat="43.49966465181265" lon="10.732705312793607"><ele>68.0</ele><time>2026-04-19T13:27:42.999Z</time></trkpt><trkpt lat="43.4997894921731" lon="10.732585524014343"><ele>67.66666666666667</ele><time>2026-04-19T13:27:43.999Z</time></trkpt><trkpt lat="43.49990482970078" lon="10.732443106744904"><ele>67.33333333333333</ele><time>2026-04-19T13:27:44.999Z</time></trkpt><trkpt lat="43.500005910825344" lon="10.732291304599144"><ele>67.0</ele><time>2026-04-19T13:27:45.999Z</time></trkpt><trkpt lat="43.50009000170699" lon="10.732127363546697"><ele>67.0</ele><time>2026-04-19T13:27:46.999Z</time></trkpt><trkpt lat="43.50015634423395" lon="10.73195973760911"><ele>67.0</ele><time>2026-04-19T13:27:47.999Z</time></trkpt><trkpt lat="43.50020720555021" lon="10.731788743923586"><ele>67.0</ele><time>2026-04-19T13:27:48.999Z</time></trkpt><trkpt lat="43.500239825422526" lon="10.731621952028757"><ele>67.0</ele><time>2026-04-19T13:27:49.999Z</time></trkpt><trkpt lat="43.50025606939456" lon="10.731451613867373"><ele>67.0</ele><time>2026-04-19T13:27:50.999Z</time></trkpt><trkpt lat="43.500260396073436" lon="10.731278283966105"><ele>67.0</ele><time>2026-04-19T13:27:51.999Z</time></trkpt><trkpt lat="43.500258770133016" lon="10.73110371346023"><ele>67.0</ele><time>2026-04-19T13:27:52.999Z</time></trkpt><trkpt lat="43.50025459874739" lon="10.730933844273592"><ele>67.0</ele><time>2026-04-19T13:27:53.999Z</time></trkpt><trkpt lat="43.500247919122536" lon="10.730766056656943"><ele>67.0</ele><time>2026-04-19T13:27:54.999Z</time></trkpt><trkpt lat="43.50023966671835" lon="10.73059888242373"><ele>67.0</ele><time>2026-04-19T13:27:56Z</time></trkpt><trkpt lat="43.50022960978784" lon="10.73043267335988"><ele>67.0</ele><time>2026-04-19T13:27:57Z</time></trkpt><trkpt lat="43.50021886654159" lon="10.730268741056358"><ele>67.0</ele><time>2026-04-19T13:27:58Z</time></trkpt><trkpt lat="43.50020686563972" lon="10.730105198522157"><ele>67.75</ele><time>2026-04-19T13:27:59Z</time></trkpt><trkpt lat="43.50019511493456" lon="10.729939250271077"><ele>68.5</ele><time>2026-04-19T13:28:00Z</time></trkpt><trkpt lat="43.500179315414115" lon="10.729774513519013"><ele>69.25</ele><time>2026-04-19T13:28:01Z</time></trkpt><trkpt lat="43.50016087888019" lon="10.7296110716908"><ele>70.0</ele><time>2026-04-19T13:28:02Z</time></trkpt><trkpt lat="43.50013832663772" lon="10.72945467057824"><ele>70.0</ele><time>2026-04-19T13:28:03Z</time></trkpt><trkpt lat="43.500112173035745" lon="10.729300336483373"><ele>70.0</ele><time>2026-04-19T13:28:04Z</time></trkpt><trkpt lat="43.500079758438176" lon="10.729149757265148"><ele>70.0</ele><time>2026-04-19T13:28:05Z</time></trkpt><trkpt lat="43.50004164103812" lon="10.728997633739656"><ele>70.0</ele><time>2026-04-19T13:28:06Z</time></trkpt><trkpt lat="43.50000277135211" lon="10.728846551634225"><ele>70.0</ele><time>2026-04-19T13:28:07Z</time></trkpt><trkpt lat="43.49996077257126" lon="10.728697391568607"><ele>70.0</ele><time>2026-04-19T13:28:08Z</time></trkpt><trkpt lat="43.499916650759545" lon="10.728546940833741"><ele>70.0</ele><time>2026-04-19T13:28:09Z</time></trkpt><trkpt lat="43.49987302734498" lon="10.728395255686731"><ele>70.0</ele><time>2026-04-19T13:28:10Z</time></trkpt><trkpt lat="43.49982673694964" lon="10.728245682862074"><ele>71.75</ele><time>2026-04-19T13:28:11Z</time></trkpt><trkpt lat="43.49977701838312" lon="10.728097230297376"><ele>73.5</ele><time>2026-04-19T13:28:12Z</time></trkpt><trkpt lat="43.499725932492595" lon="10.727948202674895"><ele>75.25</ele><time>2026-04-19T13:28:13Z</time></trkpt><trkpt lat="43.499673133001906" lon="10.72780041255581"><ele>77.0</ele><time>2026-04-19T13:28:14Z</time></trkpt><trkpt lat="43.49961941126689" lon="10.727651884661537"><ele>75.5</ele><time>2026-04-19T13:28:15Z</time></trkpt><trkpt lat="43.49956508728762" lon="10.727505659430946"><ele>74.0</ele><time>2026-04-19T13:28:16Z</time></trkpt><trkpt lat="43.49950789151127" lon="10.727359409693626"><ele>72.5</ele><time>2026-04-19T13:28:17Z</time></trkpt><trkpt lat="43.49944939773596" lon="10.727216278078318"><ele>71.0</ele><time>2026-04-19T13:28:18Z</time></trkpt><trkpt lat="43.499389749471206" lon="10.72707315067814"><ele>71.0</ele><time>2026-04-19T13:28:19Z</time></trkpt><trkpt lat="43.49932991982901" lon="10.72693097154017"><ele>71.0</ele><time>2026-04-19T13:28:20Z</time></trkpt><trkpt lat="43.49926971369784" lon="10.72678748121739"><ele>71.0</ele><time>2026-04-19T13:28:21Z</time></trkpt><trkpt lat="43.499211558777105" lon="10.726646904586296"><ele>71.0</ele><time>2026-04-19T13:28:22Z</time></trkpt><trkpt lat="43.49915338917144" lon="10.726509299783897"><ele>71.39999999999999</ele><time>2026-04-19T13:28:23Z</time></trkpt><trkpt lat="43.49909672835203" lon="10.726376133410389"><ele>71.8</ele><time>2026-04-19T13:28:24Z</time></trkpt><trkpt lat="43.49904053420057" lon="10.726242782501416"><ele>72.19999999999999</ele><time>2026-04-19T13:28:25Z</time></trkpt><trkpt lat="43.49898488369361" lon="10.72611202440235"><ele>72.6</ele><time>2026-04-19T13:28:26Z</time></trkpt><trkpt lat="43.49893049703618" lon="10.72598134120339"><ele>73.0</ele><time>2026-04-19T13:28:27Z</time></trkpt><trkpt lat="43.49887692841747" lon="10.725855667388737"><ele>73.4</ele><time>2026-04-19T13:28:28Z</time></trkpt><trkpt lat="43.49882150118879" lon="10.72572966728579"><ele>73.8</ele><time>2026-04-19T13:28:29Z</time></trkpt><trkpt lat="43.49876603278352" lon="10.725602292284478"><ele>74.2</ele><time>2026-04-19T13:28:30Z</time></trkpt><trkpt lat="43.49871193648578" lon="10.725480351782444"><ele>74.6</ele><time>2026-04-19T13:28:31Z</time></trkpt><trkpt lat="43.49865986161213" lon="10.72536482252444"><ele>75.0</ele><time>2026-04-19T13:28:32Z</time></trkpt><trkpt lat="43.498613175385664" lon="10.725244782087575"><ele>75.2</ele><time>2026-04-19T13:28:33Z</time></trkpt><trkpt lat="43.49857251156287" lon="10.72511992206285"><ele>75.4</ele><time>2026-04-19T13:28:34Z</time></trkpt><trkpt lat="43.49853995500974" lon="10.724985502624246"><ele>75.6</ele><time>2026-04-19T13:28:35Z</time></trkpt><trkpt lat="43.498521204654104" lon="10.72484754478112"><ele>75.8</ele><time>2026-04-19T13:28:36.001Z</time></trkpt><trkpt lat="43.49851092967979" lon="10.724705550933216"><ele>76.0</ele><time>2026-04-19T13:28:37.001Z</time></trkpt><trkpt lat="43.49850942019695" lon="10.72455832936209"><ele>76.0</ele><time>2026-04-19T13:28:38.001Z</time></trkpt><trkpt lat="43.49851043011127" lon="10.724407242985961"><ele>76.0</ele><time>2026-04-19T13:28:39.001Z</time></trkpt><trkpt lat="43.49851461764714" lon="10.724258432287963"><ele>76.0</ele><time>2026-04-19T13:28:40.001Z</time></trkpt><trkpt lat="43.49852398590003" lon="10.72410668021043"><ele>76.0</ele><time>2026-04-19T13:28:41.001Z</time></trkpt><trkpt lat="43.498544158718296" lon="10.723954615424697"><ele>76.0</ele><time>2026-04-19T13:28:42.001Z</time></trkpt><trkpt lat="43.49857282330661" lon="10.723802578758095"><ele>75.25</ele><time>2026-04-19T13:28:43.001Z</time></trkpt><trkpt lat="43.49860405705368" lon="10.723648440791074"><ele>74.5</ele><time>2026-04-19T13:28:44.001Z</time></trkpt><trkpt lat="43.498634906683726" lon="10.723491734875834"><ele>73.75</ele><time>2026-04-19T13:28:45.001Z</time></trkpt><trkpt lat="43.49866673618147" lon="10.72333433706905"><ele>73.0</ele><time>2026-04-19T13:28:46.001Z</time></trkpt><trkpt lat="43.49869628804927" lon="10.723182213354045"><ele>71.75</ele><time>2026-04-19T13:28:47.001Z</time></trkpt><trkpt lat="43.49872765731219" lon="10.723030363648837"><ele>70.5</ele><time>2026-04-19T13:28:48.001Z</time></trkpt><trkpt lat="43.49875967000661" lon="10.72287947894622"><ele>69.25</ele><time>2026-04-19T13:28:49.001Z</time></trkpt><trkpt lat="43.49879164766851" lon="10.722728003664093"><ele>68.0</ele><time>2026-04-19T13:28:50.001Z</time></trkpt><trkpt lat="43.49882181280137" lon="10.722574552252876"><ele>68.0</ele><time>2026-04-19T13:28:51.001Z</time></trkpt><trkpt lat="43.49885305191573" lon="10.722422802227676"><ele>68.0</ele><time>2026-04-19T13:28:52.001Z</time></trkpt><trkpt lat="43.498884655924726" lon="10.722272026253895"><ele>68.0</ele><time>2026-04-19T13:28:53.001Z</time></trkpt><trkpt lat="43.49891409800602" lon="10.722126848295852"><ele>68.0</ele><time>2026-04-19T13:28:54.001Z</time></trkpt><trkpt lat="43.498941906989764" lon="10.721992238159919"><ele>68.0</ele><time>2026-04-19T13:28:55.001Z</time></trkpt><trkpt lat="43.49896785229684" lon="10.721873883045925"><ele>68.33333333333334</ele><time>2026-04-19T13:28:56.001Z</time></trkpt><trkpt lat="43.498997053223775" lon="10.721773379306647"><ele>68.66666666666667</ele><time>2026-04-19T13:28:57.001Z</time></trkpt><trkpt lat="43.49903218217587" lon="10.721688740541815"><ele>69.0</ele><time>2026-04-19T13:28:58.001Z</time></trkpt><trkpt lat="43.499079328882914" lon="10.721617193784983"><ele>69.33333333333333</ele><time>2026-04-19T13:28:59.001Z</time></trkpt><trkpt lat="43.49913291687341" lon="10.721559569217096"><ele>69.66666666666666</ele><time>2026-04-19T13:29:00.001Z</time></trkpt><trkpt lat="43.49921703768512" lon="10.721454734166437"><ele>70.0</ele><time>2026-04-19T13:29:02.001Z</time></trkpt><trkpt lat="43.499246642311945" lon="10.721303388498697"><ele>70.0</ele><time>2026-04-19T13:29:04.001Z</time></trkpt><trkpt lat="43.49920384737011" lon="10.721236846652943"><ele>70.0</ele><time>2026-04-19T13:29:05.001Z</time></trkpt><trkpt lat="43.499146129552166" lon="10.721177331505585"><ele>70.0</ele><time>2026-04-19T13:29:06.001Z</time></trkpt><trkpt lat="43.49909343380022" lon="10.721102104004236"><ele>70.0</ele><time>2026-04-19T13:29:07.001Z</time></trkpt><trkpt lat="43.49905458810417" lon="10.721014781893047"><ele>70.0</ele><time>2026-04-19T13:29:08.001Z</time></trkpt><trkpt lat="43.49902286532246" lon="10.720910052823351"><ele>70.0</ele><time>2026-04-19T13:29:09.001Z</time></trkpt><trkpt lat="43.49899604818691" lon="10.720790873724704"><ele>69.25</ele><time>2026-04-19T13:29:10.001Z</time></trkpt><trkpt lat="43.49897386208049" lon="10.720653384524072"><ele>68.5</ele><time>2026-04-19T13:29:11.001Z</time></trkpt><trkpt lat="43.498958061194095" lon="10.720503080463924"><ele>67.75</ele><time>2026-04-19T13:29:12.001Z</time></trkpt><trkpt lat="43.49894462042482" lon="10.720339267038398"><ele>67.0</ele><time>2026-04-19T13:29:13.001Z</time></trkpt><trkpt lat="43.49892943104239" lon="10.720165333708808"><ele>67.0</ele><time>2026-04-19T13:29:14.001Z</time></trkpt><trkpt lat="43.49891509503831" lon="10.719986516788573"><ele>67.0</ele><time>2026-04-19T13:29:15.001Z</time></trkpt><trkpt lat="43.49890301417854" lon="10.71981545095705"><ele>67.0</ele><time>2026-04-19T13:29:16.001Z</time></trkpt><trkpt lat="43.49888888431636" lon="10.719634865120797"><ele>67.0</ele><time>2026-04-19T13:29:17.001Z</time></trkpt><trkpt lat="43.49887489232374" lon="10.71944215353982"><ele>67.0</ele><time>2026-04-19T13:29:18.001Z</time></trkpt><trkpt lat="43.498860625645776" lon="10.719238235190595"><ele>67.0</ele><time>2026-04-19T13:29:19.001Z</time></trkpt><trkpt lat="43.49884661204964" lon="10.719023164268476"><ele>67.0</ele><time>2026-04-19T13:29:20.001Z</time></trkpt><trkpt lat="43.49883034376361" lon="10.718798937869998"><ele>67.0</ele><time>2026-04-19T13:29:21.001Z</time></trkpt><trkpt lat="43.49881363310376" lon="10.718560876355427"><ele>67.0</ele><time>2026-04-19T13:29:22.001Z</time></trkpt><trkpt lat="43.49879059858737" lon="10.718306905678304"><ele>67.0</ele><time>2026-04-19T13:29:23.001Z</time></trkpt><trkpt lat="43.49873750845492" lon="10.71804430817527"><ele>68.0</ele><time>2026-04-19T13:29:24.001Z</time></trkpt><trkpt lat="43.498656730406346" lon="10.717782965322005"><ele>69.0</ele><time>2026-04-19T13:29:25.001Z</time></trkpt><trkpt lat="43.498553559007746" lon="10.71754230581035"><ele>70.0</ele><time>2026-04-19T13:29:26.001Z</time></trkpt><trkpt lat="43.49843784908509" lon="10.717325218799887"><ele>71.0</ele><time>2026-04-19T13:29:27.001Z</time></trkpt><trkpt lat="43.498308955023084" lon="10.71713243108517"><ele>72.0</ele><time>2026-04-19T13:29:28.002Z</time></trkpt><trkpt lat="43.498174832498236" lon="10.716954351993518"><ele>73.0</ele><time>2026-04-19T13:29:29.002Z</time></trkpt><trkpt lat="43.49804009062735" lon="10.716784091880832"><ele>73.33333333333333</ele><time>2026-04-19T13:29:30.002Z</time></trkpt><trkpt lat="43.49790891660135" lon="10.71661279302679"><ele>73.66666666666667</ele><time>2026-04-19T13:29:31.002Z</time></trkpt><trkpt lat="43.49777705793872" lon="10.716447345278977"><ele>74.0</ele><time>2026-04-19T13:29:32.002Z</time></trkpt><trkpt lat="43.49763580031532" lon="10.716295563557097"><ele>74.0</ele><time>2026-04-19T13:29:33.002Z</time></trkpt><trkpt lat="43.49748696695912" lon="10.716155498821376"><ele>74.0</ele><time>2026-04-19T13:29:34.002Z</time></trkpt><trkpt lat="43.49733325864283" lon="10.716024264966059"><ele>74.0</ele><time>2026-04-19T13:29:35.002Z</time></trkpt><trkpt lat="43.49717719213549" lon="10.715893737524105"><ele>75.0</ele><time>2026-04-19T13:29:36.002Z</time></trkpt><trkpt lat="43.497019480768074" lon="10.715762938679038"><ele>76.0</ele><time>2026-04-19T13:29:37.002Z</time></trkpt><trkpt lat="43.49686277130247" lon="10.715629340942758"><ele>77.0</ele><time>2026-04-19T13:29:37.999Z</time></trkpt><trkpt lat="43.49670672324681" lon="10.715492323676568"><ele>77.0</ele><time>2026-04-19T13:29:38.999Z</time></trkpt><trkpt lat="43.49655158389638" lon="10.715358085655978"><ele>77.0</ele><time>2026-04-19T13:29:39.999Z</time></trkpt><trkpt lat="43.49640010715975" lon="10.715227290096397"><ele>77.0</ele><time>2026-04-19T13:29:40.999Z</time></trkpt><trkpt lat="43.49624890047528" lon="10.715099523423754"><ele>76.0</ele><time>2026-04-19T13:29:41.999Z</time></trkpt><trkpt lat="43.49609599338839" lon="10.714969222947065"><ele>75.0</ele><time>2026-04-19T13:29:42.999Z</time></trkpt><trkpt lat="43.495941181641" lon="10.71483964896799"><ele>74.0</ele><time>2026-04-19T13:29:43.999Z</time></trkpt><trkpt lat="43.49578905743921" lon="10.714716856248724"><ele>74.0</ele><time>2026-04-19T13:29:44.999Z</time></trkpt><trkpt lat="43.49563179547877" lon="10.714612843750777"><ele>74.0</ele><time>2026-04-19T13:29:45.999Z</time></trkpt><trkpt lat="43.495465144867346" lon="10.71453019920654"><ele>74.0</ele><time>2026-04-19T13:29:46.999Z</time></trkpt><trkpt lat="43.495289668688585" lon="10.71446375920602"><ele>75.66666666666667</ele><time>2026-04-19T13:29:47.999Z</time></trkpt><trkpt lat="43.49510937216003" lon="10.714400998327188"><ele>77.33333333333333</ele><time>2026-04-19T13:29:48.999Z</time></trkpt><trkpt lat="43.49492104700497" lon="10.714340960718465"><ele>79.0</ele><time>2026-04-19T13:29:49.999Z</time></trkpt><trkpt lat="43.494728475289385" lon="10.714282635295431"><ele>78.0</ele><time>2026-04-19T13:29:50.999Z</time></trkpt><trkpt lat="43.494531197703736" lon="10.714221822800859"><ele>77.0</ele><time>2026-04-19T13:29:51.999Z</time></trkpt><trkpt lat="43.49433394538461" lon="10.714153150768832"><ele>76.0</ele><time>2026-04-19T13:29:52.999Z</time></trkpt><trkpt lat="43.49414284698318" lon="10.714074889197763"><ele>76.0</ele><time>2026-04-19T13:29:53.999Z</time></trkpt><trkpt lat="43.49395562619085" lon="10.713978624314443"><ele>76.0</ele><time>2026-04-19T13:29:54.999Z</time></trkpt><trkpt lat="43.49376866823373" lon="10.713859467469192"><ele>76.0</ele><time>2026-04-19T13:29:55.999Z</time></trkpt><trkpt lat="43.49358581545821" lon="10.713713727529457"><ele>77.66666666666666</ele><time>2026-04-19T13:29:56.999Z</time></trkpt><trkpt lat="43.49340488488168" lon="10.713543347832164"><ele>79.33333333333333</ele><time>2026-04-19T13:29:57.999Z</time></trkpt><trkpt lat="43.49322310457746" lon="10.713362594365634"><ele>81.0</ele><time>2026-04-19T13:29:58.999Z</time></trkpt><trkpt lat="43.49303736583516" lon="10.71317604479829"><ele>81.33333333333333</ele><time>2026-04-19T13:29:59.999Z</time></trkpt><trkpt lat="43.49285981692176" lon="10.713000019820493"><ele>81.66666666666666</ele><time>2026-04-19T13:30:00.999Z</time></trkpt><trkpt lat="43.492696475137265" lon="10.712837857768852"><ele>82.0</ele><time>2026-04-19T13:30:01.999Z</time></trkpt><trkpt lat="43.49254716219964" lon="10.712667492936152"><ele>82.0</ele><time>2026-04-19T13:30:02.999Z</time></trkpt><trkpt lat="43.49241036689194" lon="10.712478983465115"><ele>82.0</ele><time>2026-04-19T13:30:04Z</time></trkpt><trkpt lat="43.492286350848374" lon="10.712274168043367"><ele>82.0</ele><time>2026-04-19T13:30:05Z</time></trkpt><trkpt lat="43.492170626480586" lon="10.712056071996606"><ele>80.66666666666666</ele><time>2026-04-19T13:30:06Z</time></trkpt><trkpt lat="43.492056479570934" lon="10.71182651561628"><ele>79.33333333333333</ele><time>2026-04-19T13:30:07Z</time></trkpt><trkpt lat="43.4919403312491" lon="10.711590183114678"><ele>78.0</ele><time>2026-04-19T13:30:08Z</time></trkpt><trkpt lat="43.491821733479256" lon="10.71135056276455"><ele>78.0</ele><time>2026-04-19T13:30:09Z</time></trkpt><trkpt lat="43.491708209026854" lon="10.71111621870422"><ele>78.0</ele><time>2026-04-19T13:30:10Z</time></trkpt><trkpt lat="43.49159977337214" lon="10.710890480347688"><ele>78.0</ele><time>2026-04-19T13:30:11Z</time></trkpt><trkpt lat="43.49149260827827" lon="10.710678122359372"><ele>78.66666666666667</ele><time>2026-04-19T13:30:12Z</time></trkpt><trkpt lat="43.491387110022934" lon="10.710481577918648"><ele>79.33333333333334</ele><time>2026-04-19T13:30:13Z</time></trkpt><trkpt lat="43.491280143003685" lon="10.710304989310364"><ele>80.0</ele><time>2026-04-19T13:30:14Z</time></trkpt><trkpt lat="43.491167167928495" lon="10.710147979466521"><ele>80.0</ele><time>2026-04-19T13:30:15Z</time></trkpt><trkpt lat="43.49104387576156" lon="10.710013528874143"><ele>80.0</ele><time>2026-04-19T13:30:16Z</time></trkpt><trkpt lat="43.49091266460155" lon="10.709891015943434"><ele>80.0</ele><time>2026-04-19T13:30:17Z</time></trkpt><trkpt lat="43.49077641840903" lon="10.709771288759613"><ele>80.0</ele><time>2026-04-19T13:30:18Z</time></trkpt><trkpt lat="43.4906442269225" lon="10.709659135186252"><ele>80.0</ele><time>2026-04-19T13:30:19Z</time></trkpt><trkpt lat="43.49051242411186" lon="10.709545824376175"><ele>80.0</ele><time>2026-04-19T13:30:20Z</time></trkpt><trkpt lat="43.490386727054116" lon="10.70943635548055"><ele>80.75</ele><time>2026-04-19T13:30:21Z</time></trkpt><trkpt lat="43.49026927691715" lon="10.709305265661735"><ele>81.5</ele><time>2026-04-19T13:30:22Z</time></trkpt><trkpt lat="43.49016361795256" lon="10.70916880614666"><ele>82.25</ele><time>2026-04-19T13:30:23Z</time></trkpt><trkpt lat="43.490062288315634" lon="10.709048488189246"><ele>83.0</ele><time>2026-04-19T13:30:24Z</time></trkpt><trkpt lat="43.48995745033929" lon="10.708963147357487"><ele>83.0</ele><time>2026-04-19T13:30:25Z</time></trkpt><trkpt lat="43.48985465189901" lon="10.70887897199809"><ele>83.0</ele><time>2026-04-19T13:30:26Z</time></trkpt><trkpt lat="43.48977414421875" lon="10.708786273256917"><ele>83.0</ele><time>2026-04-19T13:30:27Z</time></trkpt><trkpt lat="43.48971789632853" lon="10.70868056986403"><ele>83.0</ele><time>2026-04-19T13:30:28Z</time></trkpt><trkpt lat="43.489678875859404" lon="10.708550339889433"><ele>83.0</ele><time>2026-04-19T13:30:29Z</time></trkpt><trkpt lat="43.48967624992421" lon="10.70841907394095"><ele>84.60000000000001</ele><time>2026-04-19T13:30:30Z</time></trkpt><trkpt lat="43.48968234256925" lon="10.708276385458621"><ele>86.2</ele><time>2026-04-19T13:30:31Z</time></trkpt><trkpt lat="43.48971623956551" lon="10.708130253061112"><ele>87.8</ele><time>2026-04-19T13:30:32Z</time></trkpt><trkpt lat="43.489768398925044" lon="10.707985112413652"><ele>89.4</ele><time>2026-04-19T13:30:33Z</time></trkpt><trkpt lat="43.48981998301643" lon="10.707843156720136"><ele>91.0</ele><time>2026-04-19T13:30:34Z</time></trkpt><trkpt lat="43.4898891146217" lon="10.70770711418397"><ele>91.5</ele><time>2026-04-19T13:30:35Z</time></trkpt><trkpt lat="43.48996042002494" lon="10.707559073089584"><ele>92.0</ele><time>2026-04-19T13:30:36Z</time></trkpt><trkpt lat="43.490035496427154" lon="10.70739885465026"><ele>92.5</ele><time>2026-04-19T13:30:37.001Z</time></trkpt><trkpt lat="43.49010692474034" lon="10.707237276423012"><ele>93.0</ele><time>2026-04-19T13:30:38.001Z</time></trkpt><trkpt lat="43.49016808503158" lon="10.707093629943937"><ele>93.0</ele><time>2026-04-19T13:30:39.001Z</time></trkpt><trkpt lat="43.490241550797826" lon="10.706968330689318"><ele>93.0</ele><time>2026-04-19T13:30:40.001Z</time></trkpt><trkpt lat="43.490329391425526" lon="10.706842436739038"><ele>93.0</ele><time>2026-04-19T13:30:41.001Z</time></trkpt><trkpt lat="43.49041982746777" lon="10.706720472544502"><ele>93.0</ele><time>2026-04-19T13:30:42.001Z</time></trkpt><trkpt lat="43.49049868008589" lon="10.706607065152616"><ele>94.5</ele><time>2026-04-19T13:30:43.001Z</time></trkpt><trkpt lat="43.49055876441868" lon="10.706477061831732"><ele>96.0</ele><time>2026-04-19T13:30:44.001Z</time></trkpt><trkpt lat="43.49060668299297" lon="10.706327728021638"><ele>97.5</ele><time>2026-04-19T13:30:45.001Z</time></trkpt><trkpt lat="43.490653042235294" lon="10.706169845348434"><ele>99.0</ele><time>2026-04-19T13:30:46.001Z</time></trkpt><trkpt lat="43.490701553778045" lon="10.706007259901888"><ele>99.5</ele><time>2026-04-19T13:30:47.001Z</time></trkpt><trkpt lat="43.49074605773504" lon="10.70583613456177"><ele>100.0</ele><time>2026-04-19T13:30:48.001Z</time></trkpt><trkpt lat="43.490792353036134" lon="10.70566028523887"><ele>100.5</ele><time>2026-04-19T13:30:49.001Z</time></trkpt><trkpt lat="43.49084010643485" lon="10.70547942086918"><ele>101.0</ele><time>2026-04-19T13:30:50.001Z</time></trkpt><trkpt lat="43.49088729947238" lon="10.705293694789933"><ele>101.66666666666666</ele><time>2026-04-19T13:30:51.001Z</time></trkpt><trkpt lat="43.490939390081124" lon="10.70510401141789"><ele>102.33333333333334</ele><time>2026-04-19T13:30:52.001Z</time></trkpt><trkpt lat="43.490995096783614" lon="10.70490945626184"><ele>103.0</ele><time>2026-04-19T13:30:53.001Z</time></trkpt><trkpt lat="43.49105017911373" lon="10.70470758269548"><ele>103.0</ele><time>2026-04-19T13:30:54.001Z</time></trkpt><trkpt lat="43.49110636246355" lon="10.704500089265547"><ele>103.0</ele><time>2026-04-19T13:30:55.001Z</time></trkpt><trkpt lat="43.4911661398923" lon="10.704292216845644"><ele>103.0</ele><time>2026-04-19T13:30:56.001Z</time></trkpt><trkpt lat="43.49121644060372" lon="10.704088736236782"><ele>104.0</ele><time>2026-04-19T13:30:57.001Z</time></trkpt><trkpt lat="43.491273445680925" lon="10.703875500437354"><ele>105.0</ele><time>2026-04-19T13:30:58.001Z</time></trkpt><trkpt lat="43.49133256505507" lon="10.703661792665256"><ele>106.0</ele><time>2026-04-19T13:30:59.001Z</time></trkpt><trkpt lat="43.491390491037194" lon="10.703444427997496"><ele>107.66666666666667</ele><time>2026-04-19T13:31:00.001Z</time></trkpt><trkpt lat="43.491451064516546" lon="10.703231984912248"><ele>109.33333333333334</ele><time>2026-04-19T13:31:01.001Z</time></trkpt><trkpt lat="43.491520518549436" lon="10.703019978236519"><ele>111.0</ele><time>2026-04-19T13:31:02.001Z</time></trkpt><trkpt lat="43.49159975028903" lon="10.702814401302236"><ele>112.0</ele><time>2026-04-19T13:31:03.001Z</time></trkpt><trkpt lat="43.49168492416334" lon="10.702611312356415"><ele>113.0</ele><time>2026-04-19T13:31:04.001Z</time></trkpt><trkpt lat="43.49176294486542" lon="10.702408891061326"><ele>114.0</ele><time>2026-04-19T13:31:05.001Z</time></trkpt><trkpt lat="43.49183867378259" lon="10.70220963250853"><ele>114.0</ele><time>2026-04-19T13:31:06.001Z</time></trkpt><trkpt lat="43.491906292607034" lon="10.702008227194922"><ele>114.0</ele><time>2026-04-19T13:31:07.001Z</time></trkpt><trkpt lat="43.491960966945776" lon="10.701805806110421"><ele>114.0</ele><time>2026-04-19T13:31:08.001Z</time></trkpt><trkpt lat="43.4920166264867" lon="10.70161619627055"><ele>114.5</ele><time>2026-04-19T13:31:09.001Z</time></trkpt><trkpt lat="43.49206475195942" lon="10.701434553675327"><ele>115.0</ele><time>2026-04-19T13:31:10.001Z</time></trkpt><trkpt lat="43.49210048052725" lon="10.701259774774613"><ele>115.5</ele><time>2026-04-19T13:31:11.001Z</time></trkpt><trkpt lat="43.492122305097624" lon="10.701085463339089"><ele>116.0</ele><time>2026-04-19T13:31:12.001Z</time></trkpt><trkpt lat="43.492130579867364" lon="10.700906564745992"><ele>116.5</ele><time>2026-04-19T13:31:13.001Z</time></trkpt><trkpt lat="43.49213413584585" lon="10.700725278878664"><ele>117.0</ele><time>2026-04-19T13:31:14.001Z</time></trkpt><trkpt lat="43.49213353815555" lon="10.700556946717022"><ele>117.5</ele><time>2026-04-19T13:31:15.001Z</time></trkpt><trkpt lat="43.492129905116975" lon="10.700398111038922"><ele>118.0</ele><time>2026-04-19T13:31:16.001Z</time></trkpt><trkpt lat="43.49212596045367" lon="10.700250002756835"><ele>118.80000000000001</ele><time>2026-04-19T13:31:17.001Z</time></trkpt><trkpt lat="43.492126354318856" lon="10.70010836291828"><ele>119.60000000000001</ele><time>2026-04-19T13:31:18.001Z</time></trkpt><trkpt lat="43.49213933891007" lon="10.699971129744663"><ele>120.39999999999999</ele><time>2026-04-19T13:31:19.001Z</time></trkpt><trkpt lat="43.49216019209916" lon="10.699846734516763"><ele>121.19999999999999</ele><time>2026-04-19T13:31:20.001Z</time></trkpt><trkpt lat="43.49218911360583" lon="10.699726309516956"><ele>122.0</ele><time>2026-04-19T13:31:21.001Z</time></trkpt><trkpt lat="43.49222675123985" lon="10.699611669144264"><ele>121.99999999999999</ele><time>2026-04-19T13:31:22.002Z</time></trkpt><trkpt lat="43.49227111492639" lon="10.69950498947385"><ele>122.0</ele><time>2026-04-19T13:31:23.002Z</time></trkpt><trkpt lat="43.49232111438342" lon="10.699406804026816"><ele>122.0</ele><time>2026-04-19T13:31:24.002Z</time></trkpt><trkpt lat="43.49236721365812" lon="10.699305724748669"><ele>122.0</ele><time>2026-04-19T13:31:25.002Z</time></trkpt><trkpt lat="43.49239538600349" lon="10.699194136091942"><ele>121.99999999999999</ele><time>2026-04-19T13:31:26.002Z</time></trkpt><trkpt lat="43.492402851896365" lon="10.699067557903296"><ele>122.0</ele><time>2026-04-19T13:31:27.002Z</time></trkpt><trkpt lat="43.49241072795558" lon="10.698937202724013"><ele>123.0</ele><time>2026-04-19T13:31:28.002Z</time></trkpt><trkpt lat="43.492423657855966" lon="10.698805495355822"><ele>123.99999999999999</ele><time>2026-04-19T13:31:29.002Z</time></trkpt><trkpt lat="43.49244816958703" lon="10.69867248855337"><ele>124.99999999999999</ele><time>2026-04-19T13:31:30.002Z</time></trkpt><trkpt lat="43.49247905678244" lon="10.698542002198286"><ele>126.0</ele><time>2026-04-19T13:31:31.002Z</time></trkpt><trkpt lat="43.49250902435665" lon="10.698405113419462"><ele>127.0</ele><time>2026-04-19T13:31:32.002Z</time></trkpt><trkpt lat="43.49254729168127" lon="10.698265137788326"><ele>128.0</ele><time>2026-04-19T13:31:33.002Z</time></trkpt><trkpt lat="43.492588602183794" lon="10.698120192712643"><ele>129.0</ele><time>2026-04-19T13:31:34.002Z</time></trkpt><trkpt lat="43.492630869724735" lon="10.697970392392593"><ele>130.0</ele><time>2026-04-19T13:31:35.002Z</time></trkpt><trkpt lat="43.49267538187024" lon="10.69782052146248"><ele>131.0</ele><time>2026-04-19T13:31:36.002Z</time></trkpt><trkpt lat="43.49271785340127" lon="10.697673509536799"><ele>130.8</ele><time>2026-04-19T13:31:37.002Z</time></trkpt><trkpt lat="43.49275984891203" lon="10.697537933266622"><ele>130.6</ele><time>2026-04-19T13:31:38.002Z</time></trkpt><trkpt lat="43.492812921167015" lon="10.697417342073996"><ele>130.4</ele><time>2026-04-19T13:31:39.002Z</time></trkpt><trkpt lat="43.492881494277675" lon="10.697304567820447"><ele>130.2</ele><time>2026-04-19T13:31:40.002Z</time></trkpt><trkpt lat="43.492959767270186" lon="10.697219355122728"><ele>130.0</ele><time>2026-04-19T13:31:41.002Z</time></trkpt><trkpt lat="43.493034485393395" lon="10.697140388879014"><ele>130.0</ele><time>2026-04-19T13:31:42.002Z</time></trkpt><trkpt lat="43.4931046355885" lon="10.69706900861234"><ele>130.0</ele><time>2026-04-19T13:31:43.002Z</time></trkpt><trkpt lat="43.49316876300128" lon="10.697004836539506"><ele>130.0</ele><time>2026-04-19T13:31:43.999Z</time></trkpt><trkpt lat="43.49323557563371" lon="10.696932322198451"><ele>130.0</ele><time>2026-04-19T13:31:44.999Z</time></trkpt><trkpt lat="43.49331153785965" lon="10.696859247326014"><ele>130.0</ele><time>2026-04-19T13:31:45.999Z</time></trkpt><trkpt lat="43.49338773376106" lon="10.696786605476323"><ele>130.0</ele><time>2026-04-19T13:31:46.999Z</time></trkpt><trkpt lat="43.493476663717246" lon="10.696697128981192"><ele>130.75</ele><time>2026-04-19T13:31:47.999Z</time></trkpt><trkpt lat="43.4935765061317" lon="10.696599540909972"><ele>131.5</ele><time>2026-04-19T13:31:48.999Z</time></trkpt><trkpt lat="43.493686344330456" lon="10.696493468350427"><ele>132.25</ele><time>2026-04-19T13:31:49.999Z</time></trkpt><trkpt lat="43.493799137110265" lon="10.69637402631423"><ele>133.0</ele><time>2026-04-19T13:31:50.999Z</time></trkpt><trkpt lat="43.49392366228134" lon="10.696244937986757"><ele>133.0</ele><time>2026-04-19T13:31:51.999Z</time></trkpt><trkpt lat="43.4940374586596" lon="10.696126371107846"><ele>133.0</ele><time>2026-04-19T13:31:52.999Z</time></trkpt><trkpt lat="43.49414426820221" lon="10.696014350352922"><ele>133.0</ele><time>2026-04-19T13:31:53.999Z</time></trkpt><trkpt lat="43.494250171871705" lon="10.69590677982729"><ele>133.0</ele><time>2026-04-19T13:31:54.999Z</time></trkpt><trkpt lat="43.494354938103235" lon="10.6958025228208"><ele>133.75</ele><time>2026-04-19T13:31:55.999Z</time></trkpt><trkpt lat="43.494456813803765" lon="10.69569875194268"><ele>134.5</ele><time>2026-04-19T13:31:56.999Z</time></trkpt><trkpt lat="43.49455739343941" lon="10.69559934520037"><ele>135.25</ele><time>2026-04-19T13:31:57.999Z</time></trkpt><trkpt lat="43.494651892390394" lon="10.695497476600519"><ele>136.0</ele><time>2026-04-19T13:31:58.999Z</time></trkpt><trkpt lat="43.49474881207379" lon="10.695399973665852"><ele>136.75</ele><time>2026-04-19T13:32:00Z</time></trkpt><trkpt lat="43.494848744285235" lon="10.695306299396625"><ele>137.5</ele><time>2026-04-19T13:32:01Z</time></trkpt><trkpt lat="43.49495121592414" lon="10.69520749528007"><ele>138.25</ele><time>2026-04-19T13:32:02Z</time></trkpt><trkpt lat="43.49505291857241" lon="10.69510596775386"><ele>139.0</ele><time>2026-04-19T13:32:03Z</time></trkpt><trkpt lat="43.49514897142668" lon="10.695005573264368"><ele>138.4</ele><time>2026-04-19T13:32:04Z</time></trkpt><trkpt lat="43.495239579906155" lon="10.694910780420543"><ele>137.8</ele><time>2026-04-19T13:32:05Z</time></trkpt><trkpt lat="43.49532779203294" lon="10.69482155864389"><ele>137.2</ele><time>2026-04-19T13:32:06Z</time></trkpt><trkpt lat="43.49541722984227" lon="10.69474374929736"><ele>136.6</ele><time>2026-04-19T13:32:07Z</time></trkpt><trkpt lat="43.49550442166169" lon="10.694689541127282"><ele>136.0</ele><time>2026-04-19T13:32:08Z</time></trkpt><trkpt lat="43.49558954368529" lon="10.694667985128916"><ele>136.0</ele><time>2026-04-19T13:32:09Z</time></trkpt><trkpt lat="43.495674759359" lon="10.694652496177387"><ele>136.0</ele><time>2026-04-19T13:32:10Z</time></trkpt><trkpt lat="43.495756314117884" lon="10.694631333802425"><ele>136.0</ele><time>2026-04-19T13:32:11Z</time></trkpt><trkpt lat="43.49584107065446" lon="10.694597944289207"><ele>136.0</ele><time>2026-04-19T13:32:12Z</time></trkpt><trkpt lat="43.49591990942875" lon="10.694570882777953"><ele>136.0</ele><time>2026-04-19T13:32:13Z</time></trkpt><trkpt lat="43.49599236638384" lon="10.694551825138436"><ele>136.0</ele><time>2026-04-19T13:32:14Z</time></trkpt><trkpt lat="43.496082122719976" lon="10.694526388606956"><ele>136.0</ele><time>2026-04-19T13:32:15Z</time></trkpt><trkpt lat="43.49617512321704" lon="10.694504685626068"><ele>136.0</ele><time>2026-04-19T13:32:16Z</time></trkpt><trkpt lat="43.49627116077099" lon="10.694483014939221"><ele>136.0</ele><time>2026-04-19T13:32:17Z</time></trkpt><trkpt lat="43.49636014287331" lon="10.69445282835622"><ele>136.0</ele><time>2026-04-19T13:32:18Z</time></trkpt><trkpt lat="43.49644744530921" lon="10.694404401690223"><ele>136.0</ele><time>2026-04-19T13:32:19Z</time></trkpt><trkpt lat="43.49652892106415" lon="10.694342149465"><ele>138.16666666666669</ele><time>2026-04-19T13:32:20Z</time></trkpt><trkpt lat="43.49660296040993" lon="10.694283131776581"><ele>140.33333333333334</ele><time>2026-04-19T13:32:21Z</time></trkpt><trkpt lat="43.49666557552389" lon="10.69421517326598"><ele>142.5</ele><time>2026-04-19T13:32:22Z</time></trkpt><trkpt lat="43.49671053700077" lon="10.694130577015143"><ele>144.66666666666666</ele><time>2026-04-19T13:32:23Z</time></trkpt><trkpt lat="43.496751467238454" lon="10.694034819804761"><ele>146.83333333333331</ele><time>2026-04-19T13:32:24Z</time></trkpt><trkpt lat="43.49677817363315" lon="10.693930547988376"><ele>149.0</ele><time>2026-04-19T13:32:25Z</time></trkpt><trkpt lat="43.49679530441205" lon="10.693829731354647"><ele>149.0</ele><time>2026-04-19T13:32:26Z</time></trkpt><trkpt lat="43.49680488901861" lon="10.693734298880527"><ele>149.0</ele><time>2026-04-19T13:32:27Z</time></trkpt><trkpt lat="43.49681661474361" lon="10.693643988385064"><ele>149.0</ele><time>2026-04-19T13:32:28Z</time></trkpt><trkpt lat="43.496828584044536" lon="10.693557292767675"><ele>149.0</ele><time>2026-04-19T13:32:29Z</time></trkpt><trkpt lat="43.49685133451454" lon="10.693409218511714"><ele>149.0</ele><time>2026-04-19T13:32:31.001Z</time></trkpt><trkpt lat="43.496869741712416" lon="10.693297139449955"><ele>149.0</ele><time>2026-04-19T13:32:33.001Z</time></trkpt><trkpt lat="43.49688396582671" lon="10.69317958790767"><ele>148.6</ele><time>2026-04-19T13:32:35.001Z</time></trkpt><trkpt lat="43.49690184807778" lon="10.693063105284384"><ele>148.2</ele><time>2026-04-19T13:32:37.001Z</time></trkpt><trkpt lat="43.496917296114006" lon="10.692940965100577"><ele>147.79999999999998</ele><time>2026-04-19T13:32:39.001Z</time></trkpt><trkpt lat="43.49693893145313" lon="10.692795837459476"><ele>147.4</ele><time>2026-04-19T13:32:41.001Z</time></trkpt><trkpt lat="43.49695782998691" lon="10.692644812035704"><ele>147.0</ele><time>2026-04-19T13:32:43.001Z</time></trkpt><trkpt lat="43.49698525643205" lon="10.692492657309547"><ele>145.66666666666666</ele><time>2026-04-19T13:32:45.001Z</time></trkpt><trkpt lat="43.49700983842476" lon="10.692348514135675"><ele>144.33333333333334</ele><time>2026-04-19T13:32:47.001Z</time></trkpt><trkpt lat="43.49701950566198" lon="10.692237520801955"><ele>143.0</ele><time>2026-04-19T13:32:49.001Z</time></trkpt><trkpt lat="43.49702592311857" lon="10.692145241506479"><ele>141.66666666666669</ele><time>2026-04-19T13:32:55.001Z</time></trkpt><trkpt lat="43.49703033877305" lon="10.692053433626052"><ele>140.33333333333334</ele><time>2026-04-19T13:33:01.001Z</time></trkpt><trkpt lat="43.49705290485731" lon="10.69194497334965"><ele>139.0</ele><time>2026-04-19T13:33:06.001Z</time></trkpt><trkpt lat="43.49707068784686" lon="10.691859988304095"><ele>139.16666666666669</ele><time>2026-04-19T13:33:08.001Z</time></trkpt><trkpt lat="43.49708374450814" lon="10.691759102966607"><ele>139.33333333333334</ele><time>2026-04-19T13:33:10.002Z</time></trkpt><trkpt lat="43.497093963899616" lon="10.69165738850901"><ele>139.5</ele><time>2026-04-19T13:33:12.002Z</time></trkpt><trkpt lat="43.49711027304334" lon="10.691552236586665"><ele>139.66666666666666</ele><time>2026-04-19T13:33:14.002Z</time></trkpt><trkpt lat="43.49712589736532" lon="10.691441112452925"><ele>139.83333333333331</ele><time>2026-04-19T13:33:16.002Z</time></trkpt><trkpt lat="43.49714200089648" lon="10.691324678609858"><ele>140.0</ele><time>2026-04-19T13:33:18.002Z</time></trkpt><trkpt lat="43.49715558825773" lon="10.691206400030715"><ele>140.2</ele><time>2026-04-19T13:33:20.002Z</time></trkpt><trkpt lat="43.497174360116084" lon="10.691072365583103"><ele>140.4</ele><time>2026-04-19T13:33:22.002Z</time></trkpt><trkpt lat="43.4971916157294" lon="10.690933156131178"><ele>140.6</ele><time>2026-04-19T13:33:24.002Z</time></trkpt><trkpt lat="43.497209764871" lon="10.690817378321233"><ele>140.8</ele><time>2026-04-19T13:33:26.002Z</time></trkpt><trkpt lat="43.49722753144382" lon="10.690698143225836"><ele>141.0</ele><time>2026-04-19T13:33:28.002Z</time></trkpt><trkpt lat="43.49724002474794" lon="10.690572708855541"><ele>141.0</ele><time>2026-04-19T13:33:30.002Z</time></trkpt><trkpt lat="43.497233618517086" lon="10.690484866792016"><ele>141.0</ele><time>2026-04-19T13:33:32.002Z</time></trkpt><trkpt lat="43.497240298562595" lon="10.690392147906584"><ele>141.0</ele><time>2026-04-19T13:33:36.002Z</time></trkpt><trkpt lat="43.49725018175013" lon="10.690301560411498"><ele>141.0</ele><time>2026-04-19T13:33:42.002Z</time></trkpt><trkpt lat="43.49726285179053" lon="10.69021535275707"><ele>141.0</ele><time>2026-04-19T13:33:45.002Z</time></trkpt><trkpt lat="43.49728552092927" lon="10.690128609695982"><ele>141.0</ele><time>2026-04-19T13:33:47.002Z</time></trkpt><trkpt lat="43.49730506624223" lon="10.690038347093884"><ele>141.0</ele><time>2026-04-19T13:33:49.002Z</time></trkpt><trkpt lat="43.49731829768104" lon="10.689948190497423"><ele>141.2</ele><time>2026-04-19T13:33:51Z</time></trkpt><trkpt lat="43.49732879844536" lon="10.689843111009381"><ele>141.39999999999998</ele><time>2026-04-19T13:33:53Z</time></trkpt><trkpt lat="43.497347593022255" lon="10.689722810203692"><ele>141.6</ele><time>2026-04-19T13:33:55Z</time></trkpt><trkpt lat="43.49737460982868" lon="10.689577157353153"><ele>141.79999999999998</ele><time>2026-04-19T13:33:57Z</time></trkpt><trkpt lat="43.4973952006244" lon="10.68942728383563"><ele>142.0</ele><time>2026-04-19T13:33:59Z</time></trkpt><trkpt lat="43.49742369629193" lon="10.68930044745059"><ele>142.0</ele><time>2026-04-19T13:34:01Z</time></trkpt><trkpt lat="43.497443814619324" lon="10.689166704798852"><ele>142.0</ele><time>2026-04-19T13:34:03Z</time></trkpt><trkpt lat="43.497461008075554" lon="10.68901194742815"><ele>142.0</ele><time>2026-04-19T13:34:05Z</time></trkpt><trkpt lat="43.49748517946034" lon="10.688850734456215"><ele>142.0</ele><time>2026-04-19T13:34:07Z</time></trkpt><trkpt lat="43.4974947138451" lon="10.688763454929969"><ele>142.0</ele><time>2026-04-19T13:34:08.001Z</time></trkpt><trkpt lat="43.49750550257218" lon="10.688675057340594"><ele>142.14285714285714</ele><time>2026-04-19T13:34:09.001Z</time></trkpt><trkpt lat="43.49751538573916" lon="10.68858459079124"><ele>142.28571428571428</ele><time>2026-04-19T13:34:10.001Z</time></trkpt><trkpt lat="43.49752802202877" lon="10.688487734279446"><ele>142.42857142857142</ele><time>2026-04-19T13:34:11.001Z</time></trkpt><trkpt lat="43.49754306978685" lon="10.688390204504906"><ele>142.57142857142856</ele><time>2026-04-19T13:34:12.001Z</time></trkpt><trkpt lat="43.49755622498282" lon="10.68828773299025"><ele>142.71428571428572</ele><time>2026-04-19T13:34:13.001Z</time></trkpt><trkpt lat="43.49757264789786" lon="10.688183720300218"><ele>142.85714285714283</ele><time>2026-04-19T13:34:14.001Z</time></trkpt><trkpt lat="43.49758357990712" lon="10.68807994051676"><ele>143.0</ele><time>2026-04-19T13:34:15.001Z</time></trkpt><trkpt lat="43.49759856422536" lon="10.687976218399697"><ele>143.0</ele><time>2026-04-19T13:34:16.001Z</time></trkpt><trkpt lat="43.497605430559226" lon="10.687865125231346"><ele>143.0</ele><time>2026-04-19T13:34:17.001Z</time></trkpt><trkpt lat="43.49761471169725" lon="10.687757134684192"><ele>143.0</ele><time>2026-04-19T13:34:18.001Z</time></trkpt><trkpt lat="43.49762601343153" lon="10.687644802772718"><ele>143.0</ele><time>2026-04-19T13:34:19.001Z</time></trkpt><trkpt lat="43.49764261619624" lon="10.687532095111887"><ele>143.0</ele><time>2026-04-19T13:34:20.001Z</time></trkpt><trkpt lat="43.49766214742798" lon="10.687423985549742"><ele>143.0</ele><time>2026-04-19T13:34:21.001Z</time></trkpt><trkpt lat="43.497685807926814" lon="10.687320565617162"><ele>143.5</ele><time>2026-04-19T13:34:22.001Z</time></trkpt><trkpt lat="43.4977055781884" lon="10.687218313643486"><ele>144.0</ele><time>2026-04-19T13:34:23.001Z</time></trkpt><trkpt lat="43.49772038791376" lon="10.687107787913902"><ele>144.5</ele><time>2026-04-19T13:34:24.001Z</time></trkpt><trkpt lat="43.49773561757974" lon="10.687005363196253"><ele>145.0</ele><time>2026-04-19T13:34:25.001Z</time></trkpt><trkpt lat="43.49775695893683" lon="10.686900944275942"><ele>145.5</ele><time>2026-04-19T13:34:26.001Z</time></trkpt><trkpt lat="43.497784957089166" lon="10.68680485699492"><ele>146.0</ele><time>2026-04-19T13:34:27.001Z</time></trkpt><trkpt lat="43.49781809095657" lon="10.68671302677567"><ele>146.16666666666666</ele><time>2026-04-19T13:34:28.001Z</time></trkpt><trkpt lat="43.49786098663102" lon="10.686621744854799"><ele>146.33333333333331</ele><time>2026-04-19T13:34:29.001Z</time></trkpt><trkpt lat="43.49790528431856" lon="10.686531962609882"><ele>146.5</ele><time>2026-04-19T13:34:30.001Z</time></trkpt><trkpt lat="43.497950470902246" lon="10.68644285890892"><ele>146.66666666666666</ele><time>2026-04-19T13:34:31.001Z</time></trkpt><trkpt lat="43.49799208053615" lon="10.686355436837681"><ele>146.83333333333334</ele><time>2026-04-19T13:34:32.001Z</time></trkpt><trkpt lat="43.49803747911689" lon="10.68627089091654"><ele>147.0</ele><time>2026-04-19T13:34:33.001Z</time></trkpt><trkpt lat="43.498081489986326" lon="10.686185781855901"><ele>147.0</ele><time>2026-04-19T13:34:34.001Z</time></trkpt><trkpt lat="43.49812514199071" lon="10.686097059665988"><ele>147.0</ele><time>2026-04-19T13:34:35.001Z</time></trkpt><trkpt lat="43.4981683266994" lon="10.686009201562504"><ele>147.0</ele><time>2026-04-19T13:34:36.001Z</time></trkpt><trkpt lat="43.49821184003082" lon="10.685920389266672"><ele>147.0</ele><time>2026-04-19T13:34:37.001Z</time></trkpt><trkpt lat="43.49825522405902" lon="10.685826578476133"><ele>147.0</ele><time>2026-04-19T13:34:38.001Z</time></trkpt><trkpt lat="43.49829499585656" lon="10.685730292625772"><ele>147.0</ele><time>2026-04-19T13:34:39.001Z</time></trkpt><trkpt lat="43.49833227795831" lon="10.685636645952293"><ele>147.0</ele><time>2026-04-19T13:34:40.001Z</time></trkpt><trkpt lat="43.49836273544819" lon="10.685548626107275"><ele>147.0</ele><time>2026-04-19T13:34:41.001Z</time></trkpt><trkpt lat="43.49838830665405" lon="10.685467406340459"><ele>147.0</ele><time>2026-04-19T13:34:42.001Z</time></trkpt><trkpt lat="43.49841951153748" lon="10.685319214023256"><ele>147.0</ele><time>2026-04-19T13:34:44.001Z</time></trkpt><trkpt lat="43.49843614300546" lon="10.685143044155923"><ele>147.0</ele><time>2026-04-19T13:34:46.001Z</time></trkpt><trkpt lat="43.49844826702555" lon="10.684991611436178"><ele>148.2</ele><time>2026-04-19T13:34:48.001Z</time></trkpt><trkpt lat="43.49840863926384" lon="10.684743377169582"><ele>149.39999999999998</ele><time>2026-04-19T13:34:51.002Z</time></trkpt><trkpt lat="43.498385612202384" lon="10.684659759773862"><ele>150.60000000000002</ele><time>2026-04-19T13:34:52.002Z</time></trkpt><trkpt lat="43.4983628188132" lon="10.68457497445093"><ele>151.8</ele><time>2026-04-19T13:34:53.002Z</time></trkpt><trkpt lat="43.49834307802547" lon="10.684483398562763"><ele>153.0</ele><time>2026-04-19T13:34:54.002Z</time></trkpt><trkpt lat="43.49832469369792" lon="10.68439473514263"><ele>153.0</ele><time>2026-04-19T13:34:55.002Z</time></trkpt><trkpt lat="43.498305337645476" lon="10.68431130186454"><ele>153.0</ele><time>2026-04-19T13:34:56.002Z</time></trkpt><trkpt lat="43.4982857119974" lon="10.684224446826546"><ele>153.0</ele><time>2026-04-19T13:34:57.002Z</time></trkpt><trkpt lat="43.498250334888795" lon="10.68405583338186"><ele>153.0</ele><time>2026-04-19T13:34:59.002Z</time></trkpt><trkpt lat="43.49821881917429" lon="10.683886285123872"><ele>153.0</ele><time>2026-04-19T13:35:01.002Z</time></trkpt><trkpt lat="43.49821330201294" lon="10.683714292245972"><ele>153.0</ele><time>2026-04-19T13:35:03.002Z</time></trkpt><trkpt lat="43.49822384693284" lon="10.683628278076945"><ele>153.0</ele><time>2026-04-19T13:35:04.002Z</time></trkpt><trkpt lat="43.49823868243728" lon="10.683541128340062"><ele>153.0</ele><time>2026-04-19T13:35:05.002Z</time></trkpt><trkpt lat="43.498251784740894" lon="10.683453191782093"><ele>153.0</ele><time>2026-04-19T13:35:06.002Z</time></trkpt><trkpt lat="43.498268775784496" lon="10.683360571178186"><ele>153.0</ele><time>2026-04-19T13:35:07.002Z</time></trkpt><trkpt lat="43.498283930192315" lon="10.683272433250034"><ele>153.0</ele><time>2026-04-19T13:35:08.002Z</time></trkpt><trkpt lat="43.49830384165755" lon="10.68315290180579"><ele>153.0</ele><time>2026-04-19T13:35:10.002Z</time></trkpt><trkpt lat="43.49831563936635" lon="10.683056854371685"><ele>152.83333333333334</ele><time>2026-04-19T13:35:15.002Z</time></trkpt><trkpt lat="43.49832879915874" lon="10.68296295321279"><ele>152.66666666666666</ele><time>2026-04-19T13:35:17.002Z</time></trkpt><trkpt lat="43.498346896535494" lon="10.682856850253623"><ele>152.5</ele><time>2026-04-19T13:35:19.002Z</time></trkpt><trkpt lat="43.49836603121491" lon="10.682744271626154"><ele>152.33333333333331</ele><time>2026-04-19T13:35:21.002Z</time></trkpt><trkpt lat="43.49838784356074" lon="10.682637530567732"><ele>152.16666666666666</ele><time>2026-04-19T13:35:23.002Z</time></trkpt><trkpt lat="43.49841025857409" lon="10.682529767065272"><ele>152.0</ele><time>2026-04-19T13:35:25.002Z</time></trkpt><trkpt lat="43.498448181477805" lon="10.682425002543983"><ele>151.4</ele><time>2026-04-19T13:35:27.002Z</time></trkpt><trkpt lat="43.49851013911571" lon="10.6823333916155"><ele>150.79999999999998</ele><time>2026-04-19T13:35:29.002Z</time></trkpt><trkpt lat="43.49857914244376" lon="10.682243324696595"><ele>150.2</ele><time>2026-04-19T13:35:31.003Z</time></trkpt><trkpt lat="43.49865323360833" lon="10.6821683152044"><ele>149.6</ele><time>2026-04-19T13:35:33.003Z</time></trkpt><trkpt lat="43.498739249501" lon="10.682121523459708"><ele>149.0</ele><time>2026-04-19T13:35:35.003Z</time></trkpt><trkpt lat="43.49884047667671" lon="10.682084413476774"><ele>149.0</ele><time>2026-04-19T13:35:37.003Z</time></trkpt><trkpt lat="43.49893633240575" lon="10.682048021353483"><ele>149.0</ele><time>2026-04-19T13:35:39.003Z</time></trkpt><trkpt lat="43.49900821253737" lon="10.682019694520271"><ele>149.0</ele><time>2026-04-19T13:35:41.003Z</time></trkpt><trkpt lat="43.49907078774802" lon="10.681995346070718"><ele>149.0</ele><time>2026-04-19T13:35:43.003Z</time></trkpt><trkpt lat="43.49913986745626" lon="10.68196215154512"><ele>149.0</ele><time>2026-04-19T13:35:45.003Z</time></trkpt><trkpt lat="43.49921160084022" lon="10.681938854730632"><ele>149.0</ele><time>2026-04-19T13:35:47.003Z</time></trkpt><trkpt lat="43.49929147692935" lon="10.681906308808548"><ele>149.66666666666666</ele><time>2026-04-19T13:35:49.003Z</time></trkpt><trkpt lat="43.499381756581755" lon="10.68187580016443"><ele>150.33333333333331</ele><time>2026-04-19T13:35:51.003Z</time></trkpt><trkpt lat="43.49946975318824" lon="10.681848614106613"><ele>151.0</ele><time>2026-04-19T13:35:53.003Z</time></trkpt><trkpt lat="43.499544267250954" lon="10.681821720681597"><ele>151.66666666666666</ele><time>2026-04-19T13:35:55.003Z</time></trkpt><trkpt lat="43.49962916355441" lon="10.681782225001413"><ele>152.33333333333334</ele><time>2026-04-19T13:35:57.001Z</time></trkpt><trkpt lat="43.49971836245212" lon="10.681742562714646"><ele>153.0</ele><time>2026-04-19T13:35:59.001Z</time></trkpt><trkpt lat="43.49979675110628" lon="10.681711469623211"><ele>153.0</ele><time>2026-04-19T13:36:01.001Z</time></trkpt><trkpt lat="43.4998662685867" lon="10.681684959105768"><ele>153.0</ele><time>2026-04-19T13:36:03.001Z</time></trkpt><trkpt lat="43.49993868629638" lon="10.68165169275813"><ele>153.0</ele><time>2026-04-19T13:36:05.001Z</time></trkpt><trkpt lat="43.500008002199166" lon="10.68162358400357"><ele>153.0</ele><time>2026-04-19T13:36:07.001Z</time></trkpt><trkpt lat="43.50007788802274" lon="10.681594065893412"><ele>153.0</ele><time>2026-04-19T13:36:10.001Z</time></trkpt><trkpt lat="43.500152666552275" lon="10.681558095156126"><ele>153.0</ele><time>2026-04-19T13:36:15.001Z</time></trkpt><trkpt lat="43.50022244406629" lon="10.681524750576024"><ele>153.0</ele><time>2026-04-19T13:36:18.001Z</time></trkpt><trkpt lat="43.50030264929008" lon="10.681494461728425"><ele>153.0</ele><time>2026-04-19T13:36:21.001Z</time></trkpt><trkpt lat="43.50039171042453" lon="10.681458155110208"><ele>153.0</ele><time>2026-04-19T13:36:24.001Z</time></trkpt><trkpt lat="43.500465111882825" lon="10.68143836531697"><ele>153.0</ele><time>2026-04-19T13:36:26.001Z</time></trkpt><trkpt lat="43.50052746668962" lon="10.681418904070547"><ele>153.0</ele><time>2026-04-19T13:36:28.001Z</time></trkpt><trkpt lat="43.50060162779201" lon="10.681402396403902"><ele>153.0</ele><time>2026-04-19T13:36:30.001Z</time></trkpt><trkpt lat="43.500687470096004" lon="10.681390616379645"><ele>153.0</ele><time>2026-04-19T13:36:32.001Z</time></trkpt><trkpt lat="43.50076472424337" lon="10.681373804428873"><ele>152.71428571428572</ele><time>2026-04-19T13:36:34.001Z</time></trkpt><trkpt lat="43.500833375880966" lon="10.681366006581372"><ele>152.42857142857144</ele><time>2026-04-19T13:36:36.001Z</time></trkpt><trkpt lat="43.50089997385387" lon="10.681369904044926"><ele>152.14285714285717</ele><time>2026-04-19T13:36:38.002Z</time></trkpt><trkpt lat="43.5009671619658" lon="10.681363684710947"><ele>151.85714285714286</ele><time>2026-04-19T13:36:40.002Z</time></trkpt><trkpt lat="43.50104039625433" lon="10.68135167377852"><ele>151.57142857142858</ele><time>2026-04-19T13:36:42.002Z</time></trkpt><trkpt lat="43.501107356655226" lon="10.681342574804352"><ele>151.2857142857143</ele><time>2026-04-19T13:36:44.002Z</time></trkpt><trkpt lat="43.50119874785932" lon="10.681314162318296"><ele>151.0</ele><time>2026-04-19T13:36:47.002Z</time></trkpt><trkpt lat="43.50126803525605" lon="10.681283866418825"><ele>150.8</ele><time>2026-04-19T13:36:50.002Z</time></trkpt><trkpt lat="43.50134298187691" lon="10.681247038245855"><ele>150.6</ele><time>2026-04-19T13:37:26.003Z</time></trkpt><trkpt lat="43.501424386515765" lon="10.681197533600294"><ele>150.4</ele><time>2026-04-19T13:37:28.003Z</time></trkpt><trkpt lat="43.50150607479783" lon="10.681140654181789"><ele>150.2</ele><time>2026-04-19T13:37:30.003Z</time></trkpt><trkpt lat="43.50158759874967" lon="10.681063599809201"><ele>150.0</ele><time>2026-04-19T13:37:32.003Z</time></trkpt><trkpt lat="43.50168154183319" lon="10.680960657746416"><ele>150.0</ele><time>2026-04-19T13:37:34.003Z</time></trkpt><trkpt lat="43.50177786709874" lon="10.680851547373056"><ele>150.0</ele><time>2026-04-19T13:37:36.003Z</time></trkpt><trkpt lat="43.50186376759978" lon="10.680736731204705"><ele>150.0</ele><time>2026-04-19T13:37:38.003Z</time></trkpt><trkpt lat="43.50195042741502" lon="10.680620497551859"><ele>150.0</ele><time>2026-04-19T13:37:40.003Z</time></trkpt><trkpt lat="43.50203222730437" lon="10.680504413684165"><ele>149.0</ele><time>2026-04-19T13:37:42.003Z</time></trkpt><trkpt lat="43.502101603455195" lon="10.680396548909398"><ele>148.0</ele><time>2026-04-19T13:37:44.003Z</time></trkpt><trkpt lat="43.502189509053004" lon="10.680290417644061"><ele>147.0</ele><time>2026-04-19T13:37:46.003Z</time></trkpt><trkpt lat="43.502264214839734" lon="10.680201688532287"><ele>146.0</ele><time>2026-04-19T13:37:48.003Z</time></trkpt><trkpt lat="43.502313818631485" lon="10.680128600285551"><ele>145.0</ele><time>2026-04-19T13:37:50.003Z</time></trkpt><trkpt lat="43.50236513739396" lon="10.680065719651166"><ele>145.0</ele><time>2026-04-19T13:37:52.003Z</time></trkpt><trkpt lat="43.50244380702712" lon="10.679976947943867"><ele>145.0</ele><time>2026-04-19T13:37:54.003Z</time></trkpt><trkpt lat="43.502538414865725" lon="10.679867153176602"><ele>145.0</ele><time>2026-04-19T13:37:56.003Z</time></trkpt><trkpt lat="43.502635355497304" lon="10.679760447582487"><ele>145.0</ele><time>2026-04-19T13:37:58.003Z</time></trkpt><trkpt lat="43.50268399503313" lon="10.679703874406007"><ele>145.0</ele><time>2026-04-19T13:37:59.003Z</time></trkpt><trkpt lat="43.5027323952542" lon="10.679644746155827"><ele>145.0</ele><time>2026-04-19T13:38:00.003Z</time></trkpt><trkpt lat="43.50278306807618" lon="10.67958953203697"><ele>145.0</ele><time>2026-04-19T13:38:01.003Z</time></trkpt><trkpt lat="43.50288112196538" lon="10.679498905854242"><ele>145.0</ele><time>2026-04-19T13:38:03.002Z</time></trkpt><trkpt lat="43.50295259426504" lon="10.679438292682022"><ele>145.0</ele><time>2026-04-19T13:38:06.002Z</time></trkpt><trkpt lat="43.503018393801746" lon="10.679405508220547"><ele>145.0</ele><time>2026-04-19T13:38:08.002Z</time></trkpt><trkpt lat="43.50310868785024" lon="10.679341654006686"><ele>145.0</ele><time>2026-04-19T13:38:10.002Z</time></trkpt><trkpt lat="43.503188070455685" lon="10.679296296991016"><ele>146.57142857142858</ele><time>2026-04-19T13:38:12.001Z</time></trkpt><trkpt lat="43.50325587631472" lon="10.679262211734056"><ele>148.14285714285717</ele><time>2026-04-19T13:38:14.001Z</time></trkpt><trkpt lat="43.50332650068023" lon="10.679219416031856"><ele>149.71428571428572</ele><time>2026-04-19T13:38:16.001Z</time></trkpt><trkpt lat="43.50339531488066" lon="10.679196804371445"><ele>151.28571428571428</ele><time>2026-04-19T13:38:21.001Z</time></trkpt><trkpt lat="43.50346307595292" lon="10.679178406037462"><ele>152.85714285714283</ele><time>2026-04-19T13:38:23.001Z</time></trkpt><trkpt lat="43.503533233661585" lon="10.679184774145847"><ele>154.42857142857144</ele><time>2026-04-19T13:38:25.001Z</time></trkpt><trkpt lat="43.50360779368774" lon="10.67919117159971"><ele>156.0</ele><time>2026-04-19T13:38:27.001Z</time></trkpt><trkpt lat="43.50369040730712" lon="10.679203689895447"><ele>155.66666666666666</ele><time>2026-04-19T13:38:29.002Z</time></trkpt><trkpt lat="43.503763864196976" lon="10.679223644288646"><ele>155.33333333333334</ele><time>2026-04-19T13:38:31.002Z</time></trkpt><trkpt lat="43.503834433652024" lon="10.679231797150539"><ele>155.0</ele><time>2026-04-19T13:38:33.002Z</time></trkpt><trkpt lat="43.50391144452405" lon="10.679250432291845"><ele>154.66666666666669</ele><time>2026-04-19T13:38:35.002Z</time></trkpt><trkpt lat="43.50399276091019" lon="10.679277977879975"><ele>154.33333333333334</ele><time>2026-04-19T13:38:37.002Z</time></trkpt><trkpt lat="43.50406052596606" lon="10.67928809423187"><ele>154.0</ele><time>2026-04-19T13:38:40.002Z</time></trkpt><trkpt lat="43.504136509854476" lon="10.679314890142786"><ele>154.0</ele><time>2026-04-19T13:38:43.002Z</time></trkpt><trkpt lat="43.50421504768737" lon="10.67934058187835"><ele>154.0</ele><time>2026-04-19T13:38:45.002Z</time></trkpt><trkpt lat="43.50429657460443" lon="10.679365438760257"><ele>154.0</ele><time>2026-04-19T13:38:47.002Z</time></trkpt><trkpt lat="43.50437613361589" lon="10.679396626274325"><ele>154.0</ele><time>2026-04-19T13:38:49.002Z</time></trkpt><trkpt lat="43.504458074076794" lon="10.679423849804529"><ele>154.0</ele><time>2026-04-19T13:38:51.002Z</time></trkpt><trkpt lat="43.50453441994371" lon="10.679455767799965"><ele>154.0</ele><time>2026-04-19T13:38:53.002Z</time></trkpt><trkpt lat="43.50461248470853" lon="10.679473240394369"><ele>154.0</ele><time>2026-04-19T13:39:00.002Z</time></trkpt><trkpt lat="43.50468298550559" lon="10.679479873842912"><ele>154.0</ele><time>2026-04-19T13:39:02.002Z</time></trkpt><trkpt lat="43.50474682315328" lon="10.679492850949694"><ele>154.0</ele><time>2026-04-19T13:39:04.002Z</time></trkpt><trkpt lat="43.5048122575668" lon="10.679519590503505"><ele>154.0</ele><time>2026-04-19T13:39:07.002Z</time></trkpt><trkpt lat="43.50487911639561" lon="10.67956432614374"><ele>154.0</ele><time>2026-04-19T13:39:09.002Z</time></trkpt><trkpt lat="43.50493632354408" lon="10.679607193033064"><ele>154.0</ele><time>2026-04-19T13:39:11.002Z</time></trkpt><trkpt lat="43.50501478190052" lon="10.679596228178664"><ele>154.0</ele><time>2026-04-19T13:39:16.002Z</time></trkpt><trkpt lat="43.50506668572676" lon="10.67950291208405"><ele>153.5</ele><time>2026-04-19T13:39:19.002Z</time></trkpt><trkpt lat="43.505107268362885" lon="10.679419578458608"><ele>153.0</ele><time>2026-04-19T13:39:21.002Z</time></trkpt><trkpt lat="43.50515662803938" lon="10.67931805753741"><ele>152.5</ele><time>2026-04-19T13:39:23.002Z</time></trkpt><trkpt lat="43.50521466946392" lon="10.679199263505708"><ele>152.0</ele><time>2026-04-19T13:39:25.003Z</time></trkpt><trkpt lat="43.505263021112256" lon="10.679098608292469"><ele>151.5</ele><time>2026-04-19T13:39:27.003Z</time></trkpt><trkpt lat="43.50530599469123" lon="10.679001766351883"><ele>151.0</ele><time>2026-04-19T13:39:29.003Z</time></trkpt><trkpt lat="43.5053362482349" lon="10.678924426323695"><ele>151.0</ele><time>2026-04-19T13:39:39.003Z</time></trkpt><trkpt lat="43.50538235277691" lon="10.678836724946771"><ele>151.0</ele><time>2026-04-19T13:39:46.003Z</time></trkpt><trkpt lat="43.50542911730081" lon="10.678758785433676"><ele>151.0</ele><time>2026-04-19T13:39:48.003Z</time></trkpt><trkpt lat="43.50547477892236" lon="10.678667874518204"><ele>151.0</ele><time>2026-04-19T13:39:50.003Z</time></trkpt><trkpt lat="43.50551955495058" lon="10.678564689567644"><ele>151.0</ele><time>2026-04-19T13:39:52.003Z</time></trkpt><trkpt lat="43.50556842151773" lon="10.678426577767706"><ele>151.0</ele><time>2026-04-19T13:39:54.003Z</time></trkpt><trkpt lat="43.50559080279181" lon="10.678337654782016"><ele>151.00000000000003</ele><time>2026-04-19T13:39:55.003Z</time></trkpt><trkpt lat="43.50561053490979" lon="10.678246901943512"><ele>151.0</ele><time>2026-04-19T13:39:56.003Z</time></trkpt><trkpt lat="43.505624489754766" lon="10.678154709378424"><ele>151.0</ele><time>2026-04-19T13:39:57.003Z</time></trkpt><trkpt lat="43.5056393795097" lon="10.678058235137287"><ele>151.0</ele><time>2026-04-19T13:39:58.003Z</time></trkpt><trkpt lat="43.50565509827962" lon="10.677957288032372"><ele>151.0</ele><time>2026-04-19T13:39:59.003Z</time></trkpt><trkpt lat="43.50567076777252" lon="10.677850956978"><ele>151.00000000000003</ele><time>2026-04-19T13:40:00.003Z</time></trkpt><trkpt lat="43.50568711242198" lon="10.677742788536614"><ele>151.0</ele><time>2026-04-19T13:40:01.003Z</time></trkpt><trkpt lat="43.50570482951838" lon="10.677639115104816"><ele>151.00000000000003</ele><time>2026-04-19T13:40:02.003Z</time></trkpt><trkpt lat="43.50572379150926" lon="10.677541231650881"><ele>151.0</ele><time>2026-04-19T13:40:03.003Z</time></trkpt><trkpt lat="43.50573390510306" lon="10.677441054129837"><ele>151.0</ele><time>2026-04-19T13:40:04.003Z</time></trkpt><trkpt lat="43.50573534598906" lon="10.677344322987096"><ele>151.0</ele><time>2026-04-19T13:40:05.003Z</time></trkpt><trkpt lat="43.505724883218505" lon="10.67725227530033"><ele>151.0</ele><time>2026-04-19T13:40:06.003Z</time></trkpt><trkpt lat="43.50571587781192" lon="10.677159531309762"><ele>151.00000000000003</ele><time>2026-04-19T13:40:07.003Z</time></trkpt><trkpt lat="43.505709810571744" lon="10.677062355157181"><ele>151.0</ele><time>2026-04-19T13:40:08.002Z</time></trkpt><trkpt lat="43.50570173728679" lon="10.676966148695765"><ele>150.83333333333334</ele><time>2026-04-19T13:40:09.002Z</time></trkpt><trkpt lat="43.50568658083862" lon="10.676876643588228"><ele>150.66666666666669</ele><time>2026-04-19T13:40:10.002Z</time></trkpt><trkpt lat="43.50566981964318" lon="10.676791404452876"><ele>150.5</ele><time>2026-04-19T13:40:11.002Z</time></trkpt><trkpt lat="43.50566075730124" lon="10.676634453873286"><ele>150.33333333333334</ele><time>2026-04-19T13:40:13.002Z</time></trkpt><trkpt lat="43.50566199879067" lon="10.676462225198145"><ele>150.16666666666666</ele><time>2026-04-19T13:40:15.002Z</time></trkpt><trkpt lat="43.5056577346109" lon="10.676364483427639"><ele>150.0</ele><time>2026-04-19T13:40:16.002Z</time></trkpt><trkpt lat="43.50565411695238" lon="10.676257871193844"><ele>150.0</ele><time>2026-04-19T13:40:17.001Z</time></trkpt><trkpt lat="43.505654025342814" lon="10.676143360875518"><ele>150.0</ele><time>2026-04-19T13:40:18.001Z</time></trkpt><trkpt lat="43.50565425191512" lon="10.676026287343355"><ele>150.0</ele><time>2026-04-19T13:40:19.001Z</time></trkpt><trkpt lat="43.50565616614365" lon="10.675906523845079"><ele>150.0</ele><time>2026-04-19T13:40:20.001Z</time></trkpt><trkpt lat="43.50566271967325" lon="10.675790054399357"><ele>150.0</ele><time>2026-04-19T13:40:21.001Z</time></trkpt><trkpt lat="43.50567223340403" lon="10.67568811639884"><ele>150.0</ele><time>2026-04-19T13:40:22.001Z</time></trkpt><trkpt lat="43.50568352331963" lon="10.67559578883083"><ele>150.5</ele><time>2026-04-19T13:40:23.001Z</time></trkpt><trkpt lat="43.50569696151237" lon="10.675502725851475"><ele>151.0</ele><time>2026-04-19T13:40:24.001Z</time></trkpt><trkpt lat="43.50571852795855" lon="10.67535464278585"><ele>151.5</ele><time>2026-04-19T13:40:26.001Z</time></trkpt><trkpt lat="43.50573760980867" lon="10.675188876340703"><ele>152.0</ele><time>2026-04-19T13:40:28.001Z</time></trkpt><trkpt lat="43.50574089683094" lon="10.675093784128858"><ele>152.5</ele><time>2026-04-19T13:40:29.001Z</time></trkpt><trkpt lat="43.50574514642361" lon="10.674995084615182"><ele>153.0</ele><time>2026-04-19T13:40:30.001Z</time></trkpt><trkpt lat="43.50575003166865" lon="10.674887103787059"><ele>153.0</ele><time>2026-04-19T13:40:31.001Z</time></trkpt><trkpt lat="43.50575714266618" lon="10.674774326905794"><ele>153.0</ele><time>2026-04-19T13:40:32.001Z</time></trkpt><trkpt lat="43.50576332472866" lon="10.674654975487723"><ele>153.0</ele><time>2026-04-19T13:40:33.001Z</time></trkpt><trkpt lat="43.50576297727461" lon="10.67453124446978"><ele>153.0</ele><time>2026-04-19T13:40:34.001Z</time></trkpt><trkpt lat="43.505762788997906" lon="10.674413424969154"><ele>153.0</ele><time>2026-04-19T13:40:35.001Z</time></trkpt><trkpt lat="43.505757936622224" lon="10.674299860324247"><ele>153.0</ele><time>2026-04-19T13:40:36.001Z</time></trkpt><trkpt lat="43.50573928627941" lon="10.674198328595539"><ele>152.33333333333334</ele><time>2026-04-19T13:40:37.001Z</time></trkpt><trkpt lat="43.505703968490586" lon="10.674108367360432"><ele>151.66666666666666</ele><time>2026-04-19T13:40:38.002Z</time></trkpt><trkpt lat="43.50565617394791" lon="10.674027925328131"><ele>151.0</ele><time>2026-04-19T13:40:39.002Z</time></trkpt><trkpt lat="43.50561251572928" lon="10.673941844579966"><ele>150.33333333333331</ele><time>2026-04-19T13:40:40.002Z</time></trkpt><trkpt lat="43.50557286644592" lon="10.673848288110449"><ele>149.66666666666666</ele><time>2026-04-19T13:40:41.002Z</time></trkpt><trkpt lat="43.505545033192234" lon="10.67374701276216"><ele>149.0</ele><time>2026-04-19T13:40:42.002Z</time></trkpt><trkpt lat="43.5055286687594" lon="10.673642379105093"><ele>148.0</ele><time>2026-04-19T13:40:43.002Z</time></trkpt><trkpt lat="43.505516591658306" lon="10.673538485953976"><ele>147.0</ele><time>2026-04-19T13:40:44.002Z</time></trkpt><trkpt lat="43.505512731680355" lon="10.673436556324672"><ele>146.0</ele><time>2026-04-19T13:40:45.002Z</time></trkpt><trkpt lat="43.505506785308974" lon="10.673334293412228"><ele>145.0</ele><time>2026-04-19T13:40:46.002Z</time></trkpt><trkpt lat="43.505498465228015" lon="10.673229818367751"><ele>144.0</ele><time>2026-04-19T13:40:47.002Z</time></trkpt><trkpt lat="43.50548930374954" lon="10.673124347416602"><ele>143.0</ele><time>2026-04-19T13:40:48.002Z</time></trkpt><trkpt lat="43.50548653835766" lon="10.673019452307846"><ele>142.99999999999997</ele><time>2026-04-19T13:40:49.002Z</time></trkpt><trkpt lat="43.5054851468874" lon="10.672914080286652"><ele>143.0</ele><time>2026-04-19T13:40:50.002Z</time></trkpt><trkpt lat="43.50548192612051" lon="10.672806263384441"><ele>143.0</ele><time>2026-04-19T13:40:51.002Z</time></trkpt><trkpt lat="43.50548091359785" lon="10.672700438020343"><ele>143.0</ele><time>2026-04-19T13:40:52.002Z</time></trkpt><trkpt lat="43.50548586579796" lon="10.672597503316934"><ele>143.0</ele><time>2026-04-19T13:40:53.002Z</time></trkpt><trkpt lat="43.50548645326881" lon="10.672501926107053"><ele>142.99999999999997</ele><time>2026-04-19T13:40:54.002Z</time></trkpt><trkpt lat="43.50548442917167" lon="10.672409832824139"><ele>143.0</ele><time>2026-04-19T13:40:55.002Z</time></trkpt><trkpt lat="43.505478883268204" lon="10.67231618427898"><ele>142.57142857142856</ele><time>2026-04-19T13:40:56.002Z</time></trkpt><trkpt lat="43.50547096436408" lon="10.67221228359182"><ele>142.14285714285714</ele><time>2026-04-19T13:40:57.002Z</time></trkpt><trkpt lat="43.505460844896135" lon="10.672104342881472"><ele>141.71428571428572</ele><time>2026-04-19T13:40:58.002Z</time></trkpt><trkpt lat="43.505451431244516" lon="10.67199865468574"><ele>141.28571428571428</ele><time>2026-04-19T13:40:59.002Z</time></trkpt><trkpt lat="43.50544167545147" lon="10.67190184146327"><ele>140.85714285714286</ele><time>2026-04-19T13:41:00.002Z</time></trkpt><trkpt lat="43.50542655763839" lon="10.671804363330331"><ele>140.42857142857142</ele><time>2026-04-19T13:41:01.002Z</time></trkpt><trkpt lat="43.505412980863724" lon="10.671704018820526"><ele>140.0</ele><time>2026-04-19T13:41:02.002Z</time></trkpt><trkpt lat="43.50540184512031" lon="10.671603025801868"><ele>139.14285714285714</ele><time>2026-04-19T13:41:03.002Z</time></trkpt><trkpt lat="43.5053880128666" lon="10.671498305150072"><ele>138.28571428571428</ele><time>2026-04-19T13:41:04.002Z</time></trkpt><trkpt lat="43.50537472808825" lon="10.671391917738047"><ele>137.42857142857144</ele><time>2026-04-19T13:41:05.002Z</time></trkpt><trkpt lat="43.5053637126709" lon="10.671285422356718"><ele>136.57142857142856</ele><time>2026-04-19T13:41:06.002Z</time></trkpt><trkpt lat="43.505349698979565" lon="10.671184801843236"><ele>135.71428571428572</ele><time>2026-04-19T13:41:07.002Z</time></trkpt><trkpt lat="43.505333511609884" lon="10.671089501622667"><ele>134.85714285714286</ele><time>2026-04-19T13:41:08.002Z</time></trkpt><trkpt lat="43.5053132361832" lon="10.67100003954623"><ele>134.0</ele><time>2026-04-19T13:41:09.002Z</time></trkpt><trkpt lat="43.50529163816741" lon="10.670911741550766"><ele>134.0</ele><time>2026-04-19T13:41:10.002Z</time></trkpt><trkpt lat="43.50527906057167" lon="10.670814567445488"><ele>134.0</ele><time>2026-04-19T13:41:11.002Z</time></trkpt><trkpt lat="43.50526459159207" lon="10.670705159241828"><ele>134.0</ele><time>2026-04-19T13:41:12.002Z</time></trkpt><trkpt lat="43.50525143625208" lon="10.67058984469663"><ele>134.0</ele><time>2026-04-19T13:41:13.002Z</time></trkpt><trkpt lat="43.505235794365305" lon="10.670471342805707"><ele>134.0</ele><time>2026-04-19T13:41:14.002Z</time></trkpt><trkpt lat="43.50522224441628" lon="10.670354577144339"><ele>134.0</ele><time>2026-04-19T13:41:15.002Z</time></trkpt><trkpt lat="43.50520855933068" lon="10.670233664008885"><ele>133.5</ele><time>2026-04-19T13:41:16.002Z</time></trkpt><trkpt lat="43.50519300029645" lon="10.670117905298106"><ele>133.0</ele><time>2026-04-19T13:41:17.002Z</time></trkpt><trkpt lat="43.50517588473715" lon="10.670000929689547"><ele>132.5</ele><time>2026-04-19T13:41:18.002Z</time></trkpt><trkpt lat="43.505162356922064" lon="10.669883964770538"><ele>132.0</ele><time>2026-04-19T13:41:19.002Z</time></trkpt><trkpt lat="43.50515499096268" lon="10.66977182038017"><ele>131.5</ele><time>2026-04-19T13:41:20.002Z</time></trkpt><trkpt lat="43.505151091570625" lon="10.669659529284909"><ele>131.0</ele><time>2026-04-19T13:41:21.002Z</time></trkpt><trkpt lat="43.50515888290764" lon="10.66955293025572"><ele>130.5</ele><time>2026-04-19T13:41:22.002Z</time></trkpt><trkpt lat="43.50517497834457" lon="10.669441563109038"><ele>130.0</ele><time>2026-04-19T13:41:23.002Z</time></trkpt><trkpt lat="43.505181859964665" lon="10.669321536181002"><ele>129.5</ele><time>2026-04-19T13:41:24.002Z</time></trkpt><trkpt lat="43.50517091542712" lon="10.669206953230923"><ele>129.0</ele><time>2026-04-19T13:41:25.002Z</time></trkpt><trkpt lat="43.50513917619158" lon="10.669091107815394"><ele>128.5</ele><time>2026-04-19T13:41:26.002Z</time></trkpt><trkpt lat="43.50509532326819" lon="10.668980885627217"><ele>128.0</ele><time>2026-04-19T13:41:27.002Z</time></trkpt><trkpt lat="43.50504799132022" lon="10.668872627100846"><ele>127.99999999999999</ele><time>2026-04-19T13:41:28.002Z</time></trkpt><trkpt lat="43.5050039301753" lon="10.66876966749662"><ele>128.0</ele><time>2026-04-19T13:41:29.002Z</time></trkpt><trkpt lat="43.504978245945466" lon="10.668655749514633"><ele>128.0</ele><time>2026-04-19T13:41:30.002Z</time></trkpt><trkpt lat="43.50496335000786" lon="10.668544232592874"><ele>128.0</ele><time>2026-04-19T13:41:31.002Z</time></trkpt><trkpt lat="43.504953086552014" lon="10.668435926889755"><ele>127.99999999999999</ele><time>2026-04-19T13:41:32.002Z</time></trkpt><trkpt lat="43.504943081677155" lon="10.668326559386479"><ele>128.0</ele><time>2026-04-19T13:41:33.002Z</time></trkpt><trkpt lat="43.504930851247714" lon="10.668219880091053"><ele>127.33333333333333</ele><time>2026-04-19T13:41:34.002Z</time></trkpt><trkpt lat="43.5049158245165" lon="10.668115129068706"><ele>126.66666666666666</ele><time>2026-04-19T13:41:35.002Z</time></trkpt><trkpt lat="43.504898020463486" lon="10.66800935566039"><ele>126.0</ele><time>2026-04-19T13:41:36.002Z</time></trkpt><trkpt lat="43.50487899251582" lon="10.667901669855924"><ele>125.33333333333334</ele><time>2026-04-19T13:41:37.003Z</time></trkpt><trkpt lat="43.50486277753392" lon="10.667808024915837"><ele>124.66666666666667</ele><time>2026-04-19T13:41:38.003Z</time></trkpt><trkpt lat="43.50484295753457" lon="10.667673859625788"><ele>124.0</ele><time>2026-04-19T13:41:40.003Z</time></trkpt><trkpt lat="43.50481466212429" lon="10.667495212364908"><ele>123.57142857142858</ele><time>2026-04-19T13:41:42.003Z</time></trkpt><trkpt lat="43.50478830389154" lon="10.667390092851322"><ele>123.14285714285715</ele><time>2026-04-19T13:41:43.003Z</time></trkpt><trkpt lat="43.504763137366794" lon="10.667289859022665"><ele>122.71428571428572</ele><time>2026-04-19T13:41:44.003Z</time></trkpt><trkpt lat="43.50474459581416" lon="10.667193557400719"><ele>122.28571428571428</ele><time>2026-04-19T13:41:45.003Z</time></trkpt><trkpt lat="43.5047271928915" lon="10.667098601500818"><ele>121.85714285714285</ele><time>2026-04-19T13:41:46.003Z</time></trkpt><trkpt lat="43.504714075020104" lon="10.667000392328019"><ele>121.42857142857142</ele><time>2026-04-19T13:41:47.003Z</time></trkpt><trkpt lat="43.50470366406737" lon="10.6669013427937"><ele>121.0</ele><time>2026-04-19T13:41:48.003Z</time></trkpt><trkpt lat="43.50470121343355" lon="10.666805914808892"><ele>120.00000000000001</ele><time>2026-04-19T13:41:49.003Z</time></trkpt><trkpt lat="43.50470182334008" lon="10.666717971421265"><ele>119.0</ele><time>2026-04-19T13:41:50.003Z</time></trkpt><trkpt lat="43.50473192453415" lon="10.66657687548943"><ele>118.0</ele><time>2026-04-19T13:41:52.003Z</time></trkpt><trkpt lat="43.504787195578466" lon="10.666521857452834"><ele>117.0</ele><time>2026-04-19T13:41:53.003Z</time></trkpt><trkpt lat="43.50484222887651" lon="10.666462128302681"><ele>116.00000000000001</ele><time>2026-04-19T13:41:54.003Z</time></trkpt><trkpt lat="43.50490246856127" lon="10.666406190156286"><ele>115.0</ele><time>2026-04-19T13:41:55.003Z</time></trkpt><trkpt lat="43.50495557630487" lon="10.666329406012343"><ele>115.00000000000001</ele><time>2026-04-19T13:41:56.003Z</time></trkpt><trkpt lat="43.5049918337473" lon="10.666230236570238"><ele>115.0</ele><time>2026-04-19T13:41:57.003Z</time></trkpt><trkpt lat="43.5049951206845" lon="10.666143246893562"><ele>115.0</ele><time>2026-04-19T13:41:58.003Z</time></trkpt><trkpt lat="43.50499328266383" lon="10.666028481415093"><ele>115.0</ele><time>2026-04-19T13:42:01.003Z</time></trkpt><trkpt lat="43.50500666480479" lon="10.665942495459499"><ele>115.00000000000001</ele><time>2026-04-19T13:42:03.003Z</time></trkpt><trkpt lat="43.50501815970598" lon="10.66583432454492"><ele>115.0</ele><time>2026-04-19T13:42:05.003Z</time></trkpt><trkpt lat="43.50502750109105" lon="10.665711605951621"><ele>113.6</ele><time>2026-04-19T13:42:07.003Z</time></trkpt><trkpt lat="43.505044554347805" lon="10.665579154804883"><ele>112.2</ele><time>2026-04-19T13:42:09.003Z</time></trkpt><trkpt lat="43.50506157957437" lon="10.665438998664175"><ele>110.80000000000001</ele><time>2026-04-19T13:42:11.003Z</time></trkpt><trkpt lat="43.505074441952864" lon="10.665296807902942"><ele>109.4</ele><time>2026-04-19T13:42:13.003Z</time></trkpt><trkpt lat="43.50507456217022" lon="10.665150320317428"><ele>108.0</ele><time>2026-04-19T13:42:15.001Z</time></trkpt><trkpt lat="43.50505558799186" lon="10.664997887048477"><ele>106.2</ele><time>2026-04-19T13:42:17.001Z</time></trkpt><trkpt lat="43.50502973009188" lon="10.664826468538113"><ele>104.4</ele><time>2026-04-19T13:42:19.001Z</time></trkpt><trkpt lat="43.50499316308944" lon="10.664622520457787"><ele>102.60000000000001</ele><time>2026-04-19T13:42:21.001Z</time></trkpt><trkpt lat="43.50497856295649" lon="10.664514811471738"><ele>100.80000000000001</ele><time>2026-04-19T13:42:22.001Z</time></trkpt><trkpt lat="43.50495949810774" lon="10.664408217929532"><ele>99.0</ele><time>2026-04-19T13:42:23.001Z</time></trkpt><trkpt lat="43.50494096552704" lon="10.664305292278886"><ele>97.83333333333333</ele><time>2026-04-19T13:42:24.001Z</time></trkpt><trkpt lat="43.50491884253954" lon="10.664202905458241"><ele>96.66666666666667</ele><time>2026-04-19T13:42:25.001Z</time></trkpt><trkpt lat="43.504903885703946" lon="10.664093115469141"><ele>95.5</ele><time>2026-04-19T13:42:26.001Z</time></trkpt><trkpt lat="43.50488816140219" lon="10.663977556891712"><ele>94.33333333333334</ele><time>2026-04-19T13:42:27.001Z</time></trkpt><trkpt lat="43.50488120766422" lon="10.663862133831783"><ele>93.16666666666667</ele><time>2026-04-19T13:42:28.001Z</time></trkpt><trkpt lat="43.504872328327906" lon="10.663753822583756"><ele>92.0</ele><time>2026-04-19T13:42:29.001Z</time></trkpt><trkpt lat="43.504862621726936" lon="10.663644719823525"><ele>90.6</ele><time>2026-04-19T13:42:30.001Z</time></trkpt><trkpt lat="43.50485443161893" lon="10.663530355398121"><ele>89.19999999999999</ele><time>2026-04-19T13:42:31.001Z</time></trkpt><trkpt lat="43.50485424527254" lon="10.663424292604672"><ele>87.8</ele><time>2026-04-19T13:42:32.001Z</time></trkpt><trkpt lat="43.50487417906677" lon="10.663285833399437"><ele>86.4</ele><time>2026-04-19T13:42:34.001Z</time></trkpt><trkpt lat="43.504929877644415" lon="10.663166221992594"><ele>85.0</ele><time>2026-04-19T13:42:36.001Z</time></trkpt><trkpt lat="43.5049598040019" lon="10.663012470110255"><ele>85.0</ele><time>2026-04-19T13:42:38.001Z</time></trkpt><trkpt lat="43.50498109738247" lon="10.662839181131469"><ele>85.0</ele><time>2026-04-19T13:42:40.001Z</time></trkpt><trkpt lat="43.50499375987729" lon="10.662741095909988"><ele>85.0</ele><time>2026-04-19T13:42:41.001Z</time></trkpt><trkpt lat="43.504998621711614" lon="10.662615693790961"><ele>85.0</ele><time>2026-04-19T13:42:42.001Z</time></trkpt><trkpt lat="43.50500390762134" lon="10.662480531027619"><ele>85.0</ele><time>2026-04-19T13:42:43.001Z</time></trkpt><trkpt lat="43.50501597988947" lon="10.662348780118977"><ele>83.75</ele><time>2026-04-19T13:42:44.001Z</time></trkpt><trkpt lat="43.50502134966166" lon="10.662201269863864"><ele>82.5</ele><time>2026-04-19T13:42:45.001Z</time></trkpt><trkpt lat="43.5050287228468" lon="10.662044531701367"><ele>81.25</ele><time>2026-04-19T13:42:46.001Z</time></trkpt><trkpt lat="43.50503230283623" lon="10.661897109441385"><ele>80.0</ele><time>2026-04-19T13:42:47.001Z</time></trkpt><trkpt lat="43.50503700149495" lon="10.661665855291268"><ele>80.0</ele><time>2026-04-19T13:42:49.001Z</time></trkpt><trkpt lat="43.50503088882279" lon="10.661562410920068"><ele>80.0</ele><time>2026-04-19T13:42:50.001Z</time></trkpt><trkpt lat="43.50503554330611" lon="10.661453746791244"><ele>80.0</ele><time>2026-04-19T13:42:51.001Z</time></trkpt><trkpt lat="43.505014346809055" lon="10.661340008289582"><ele>80.0</ele><time>2026-04-19T13:42:52.001Z</time></trkpt><trkpt lat="43.50497711219221" lon="10.661225836785725"><ele>80.0</ele><time>2026-04-19T13:42:53.001Z</time></trkpt><trkpt lat="43.504958872265945" lon="10.66110120477152"><ele>80.0</ele><time>2026-04-19T13:42:54.001Z</time></trkpt><trkpt lat="43.504946341685475" lon="10.660971923691035"><ele>80.0</ele><time>2026-04-19T13:42:55.001Z</time></trkpt><trkpt lat="43.504937952714414" lon="10.660841633474522"><ele>80.0</ele><time>2026-04-19T13:42:56.001Z</time></trkpt><trkpt lat="43.504930163776564" lon="10.66072118373578"><ele>80.0</ele><time>2026-04-19T13:42:57.001Z</time></trkpt><trkpt lat="43.50491728275375" lon="10.660606727276129"><ele>80.0</ele><time>2026-04-19T13:42:58.001Z</time></trkpt><trkpt lat="43.504901095838456" lon="10.660506964755799"><ele>80.0</ele><time>2026-04-19T13:42:59.001Z</time></trkpt><trkpt lat="43.50488740393224" lon="10.660421678885017"><ele>80.0</ele><time>2026-04-19T13:43:00.002Z</time></trkpt><trkpt lat="43.50488603749476" lon="10.660329381990874"><ele>80.5</ele><time>2026-04-19T13:43:26.002Z</time></trkpt><trkpt lat="43.50492835410158" lon="10.660257182251573"><ele>81.0</ele><time>2026-04-19T13:43:30.002Z</time></trkpt><trkpt lat="43.50503960982676" lon="10.660251522418976"><ele>81.5</ele><time>2026-04-19T13:43:32.002Z</time></trkpt><trkpt lat="43.50511120002821" lon="10.66026097180944"><ele>82.0</ele><time>2026-04-19T13:43:33.002Z</time></trkpt><trkpt lat="43.505202018558805" lon="10.660267889453639"><ele>82.5</ele><time>2026-04-19T13:43:34.002Z</time></trkpt><trkpt lat="43.505295957449" lon="10.660272920411243"><ele>83.0</ele><time>2026-04-19T13:43:35.002Z</time></trkpt><trkpt lat="43.50539029470157" lon="10.660275928023193"><ele>82.4</ele><time>2026-04-19T13:43:36.002Z</time></trkpt><trkpt lat="43.50548897989299" lon="10.660280302064104"><ele>81.80000000000001</ele><time>2026-04-19T13:43:37.002Z</time></trkpt><trkpt lat="43.505591594910484" lon="10.660282689896244"><ele>81.2</ele><time>2026-04-19T13:43:38.002Z</time></trkpt><trkpt lat="43.50569957679962" lon="10.66027524392484"><ele>80.6</ele><time>2026-04-19T13:43:39.002Z</time></trkpt><trkpt lat="43.50580371961724" lon="10.660253278495084"><ele>80.0</ele><time>2026-04-19T13:43:40.002Z</time></trkpt><trkpt lat="43.505907730216556" lon="10.660213753061122"><ele>80.0</ele><time>2026-04-19T13:43:41.002Z</time></trkpt><trkpt lat="43.50600561614904" lon="10.66015990664899"><ele>80.0</ele><time>2026-04-19T13:43:42.002Z</time></trkpt><trkpt lat="43.50610120123289" lon="10.660080831559275"><ele>80.0</ele><time>2026-04-19T13:43:43.002Z</time></trkpt><trkpt lat="43.506191129398935" lon="10.659975331560753"><ele>80.0</ele><time>2026-04-19T13:43:44.002Z</time></trkpt><trkpt lat="43.50627943627208" lon="10.659852576828328"><ele>79.0</ele><time>2026-04-19T13:43:45.002Z</time></trkpt><trkpt lat="43.50637234919696" lon="10.659715507775589"><ele>78.0</ele><time>2026-04-19T13:43:46.002Z</time></trkpt><trkpt lat="43.50646381230569" lon="10.659568740185122"><ele>77.0</ele><time>2026-04-19T13:43:47.002Z</time></trkpt><trkpt lat="43.50655359412247" lon="10.65942664870509"><ele>76.0</ele><time>2026-04-19T13:43:48.002Z</time></trkpt><trkpt lat="43.506644961977806" lon="10.659289647120852"><ele>76.0</ele><time>2026-04-19T13:43:49.002Z</time></trkpt><trkpt lat="43.50673827849569" lon="10.659161508003704"><ele>76.0</ele><time>2026-04-19T13:43:50.002Z</time></trkpt><trkpt lat="43.506837538147956" lon="10.659044178926367"><ele>76.0</ele><time>2026-04-19T13:43:51.002Z</time></trkpt><trkpt lat="43.50694329954965" lon="10.65893461488561"><ele>76.0</ele><time>2026-04-19T13:43:52.002Z</time></trkpt><trkpt lat="43.50705565974515" lon="10.658832746132138"><ele>76.0</ele><time>2026-04-19T13:43:53.002Z</time></trkpt><trkpt lat="43.50717033602316" lon="10.65873227462269"><ele>76.0</ele><time>2026-04-19T13:43:54.002Z</time></trkpt><trkpt lat="43.50728648898585" lon="10.658630151823983"><ele>76.0</ele><time>2026-04-19T13:43:55.002Z</time></trkpt><trkpt lat="43.50740458577627" lon="10.658525248848367"><ele>76.0</ele><time>2026-04-19T13:43:56.003Z</time></trkpt><trkpt lat="43.50752325627167" lon="10.658420115562341"><ele>76.0</ele><time>2026-04-19T13:43:57.003Z</time></trkpt><trkpt lat="43.507641966090205" lon="10.65831706197301"><ele>76.0</ele><time>2026-04-19T13:43:58.003Z</time></trkpt><trkpt lat="43.50776069696164" lon="10.658209577223957"><ele>76.0</ele><time>2026-04-19T13:43:59.003Z</time></trkpt><trkpt lat="43.50788146387708" lon="10.658102289759677"><ele>76.0</ele><time>2026-04-19T13:44:00.003Z</time></trkpt><trkpt lat="43.50800208585979" lon="10.657993833286552"><ele>76.0</ele><time>2026-04-19T13:44:01.003Z</time></trkpt><trkpt lat="43.50824325250037" lon="10.657777463527248"><ele>76.0</ele><time>2026-04-19T13:44:03.003Z</time></trkpt><trkpt lat="43.50836295232908" lon="10.65766997934217"><ele>76.0</ele><time>2026-04-19T13:44:04.003Z</time></trkpt><trkpt lat="43.50848385462421" lon="10.657563317589648"><ele>76.0</ele><time>2026-04-19T13:44:05.003Z</time></trkpt><trkpt lat="43.508602363209036" lon="10.65745650472537"><ele>76.0</ele><time>2026-04-19T13:44:06.003Z</time></trkpt><trkpt lat="43.50872020868045" lon="10.657351259911465"><ele>76.0</ele><time>2026-04-19T13:44:07.003Z</time></trkpt><trkpt lat="43.508843000775485" lon="10.65725148250009"><ele>76.0</ele><time>2026-04-19T13:44:08.003Z</time></trkpt><trkpt lat="43.50897128029522" lon="10.657161429914156"><ele>76.0</ele><time>2026-04-19T13:44:09.003Z</time></trkpt><trkpt lat="43.50910461593308" lon="10.65708647283822"><ele>76.0</ele><time>2026-04-19T13:44:10.003Z</time></trkpt><trkpt lat="43.509236811887234" lon="10.65703127651841"><ele>76.0</ele><time>2026-04-19T13:44:11.003Z</time></trkpt><trkpt lat="43.50936265232735" lon="10.65699446043622"><ele>76.0</ele><time>2026-04-19T13:44:12.003Z</time></trkpt><trkpt lat="43.50947743160072" lon="10.656963899713876"><ele>76.0</ele><time>2026-04-19T13:44:13.003Z</time></trkpt><trkpt lat="43.509577065456575" lon="10.656938365683231"><ele>76.0</ele><time>2026-04-19T13:44:14.003Z</time></trkpt><trkpt lat="43.50965227875833" lon="10.656918261393349"><ele>76.0</ele><time>2026-04-19T13:44:15.003Z</time></trkpt><trkpt lat="43.5097181819486" lon="10.656804031785766"><ele>76.0</ele><time>2026-04-19T13:44:17.003Z</time></trkpt><trkpt lat="43.509629970050725" lon="10.656716825691818"><ele>76.0</ele><time>2026-04-19T13:44:19.003Z</time></trkpt><trkpt lat="43.5095652187847" lon="10.656702798017017"><ele>76.33333333333333</ele><time>2026-04-19T13:44:20.001Z</time></trkpt><trkpt lat="43.50949604939799" lon="10.656679107298984"><ele>76.66666666666666</ele><time>2026-04-19T13:44:21.001Z</time></trkpt><trkpt lat="43.509415341642665" lon="10.656644709721986"><ele>77.0</ele><time>2026-04-19T13:44:22.001Z</time></trkpt><trkpt lat="43.509328858416005" lon="10.65660925969536"><ele>77.33333333333333</ele><time>2026-04-19T13:44:23.001Z</time></trkpt><trkpt lat="43.509250248094666" lon="10.656568045373227"><ele>77.66666666666667</ele><time>2026-04-19T13:44:24.001Z</time></trkpt><trkpt lat="43.50918609374085" lon="10.656499119374576"><ele>78.0</ele><time>2026-04-19T13:44:25.001Z</time></trkpt><trkpt lat="43.50913427652569" lon="10.656406926991714"><ele>78.0</ele><time>2026-04-19T13:44:26.001Z</time></trkpt><trkpt lat="43.50910297597909" lon="10.656291449343472"><ele>78.0</ele><time>2026-04-19T13:44:27.001Z</time></trkpt><trkpt lat="43.50909154462387" lon="10.656170396785994"><ele>78.0</ele><time>2026-04-19T13:44:28.001Z</time></trkpt><trkpt lat="43.50907218007131" lon="10.65605730960618"><ele>78.0</ele><time>2026-04-19T13:44:29.001Z</time></trkpt><trkpt lat="43.50904922907575" lon="10.655948477331659"><ele>78.0</ele><time>2026-04-19T13:44:30.001Z</time></trkpt><trkpt lat="43.509020448425865" lon="10.655838419813271"><ele>78.0</ele><time>2026-04-19T13:44:31.001Z</time></trkpt><trkpt lat="43.50898783610063" lon="10.655730660783284"><ele>79.33333333333333</ele><time>2026-04-19T13:44:32.001Z</time></trkpt><trkpt lat="43.50894436474088" lon="10.65562955328237"><ele>80.66666666666667</ele><time>2026-04-19T13:44:33.001Z</time></trkpt><trkpt lat="43.50888992432952" lon="10.655537917068107"><ele>82.0</ele><time>2026-04-19T13:44:34.001Z</time></trkpt><trkpt lat="43.50882154738291" lon="10.655451122250842"><ele>83.33333333333334</ele><time>2026-04-19T13:44:35.001Z</time></trkpt><trkpt lat="43.50875094549876" lon="10.655359378084547"><ele>84.66666666666667</ele><time>2026-04-19T13:44:36.001Z</time></trkpt><trkpt lat="43.508689042380134" lon="10.655275583916618"><ele>86.0</ele><time>2026-04-19T13:44:37.001Z</time></trkpt><trkpt lat="43.508625499222696" lon="10.655177952750895"><ele>88.19999999999999</ele><time>2026-04-19T13:44:38.001Z</time></trkpt><trkpt lat="43.508557563515474" lon="10.655078542630797"><ele>90.39999999999999</ele><time>2026-04-19T13:44:39.001Z</time></trkpt><trkpt lat="43.50848974950364" lon="10.654976071611838"><ele>92.6</ele><time>2026-04-19T13:44:40.001Z</time></trkpt><trkpt lat="43.508421215473724" lon="10.654874104682795"><ele>94.8</ele><time>2026-04-19T13:44:41.001Z</time></trkpt><trkpt lat="43.50834595588057" lon="10.654776387317089"><ele>97.0</ele><time>2026-04-19T13:44:42.001Z</time></trkpt><trkpt lat="43.50825161228008" lon="10.654711072035791"><ele>97.0</ele><time>2026-04-19T13:44:43.001Z</time></trkpt><trkpt lat="43.50814663678554" lon="10.654658092205777"><ele>97.0</ele><time>2026-04-19T13:44:44.001Z</time></trkpt><trkpt lat="43.508031005674574" lon="10.654619936855042"><ele>97.0</ele><time>2026-04-19T13:44:45.001Z</time></trkpt><trkpt lat="43.50791351005234" lon="10.65457228217773"><ele>97.0</ele><time>2026-04-19T13:44:46.001Z</time></trkpt><trkpt lat="43.50779613616214" lon="10.654522603306102"><ele>97.66666666666667</ele><time>2026-04-19T13:44:47.001Z</time></trkpt><trkpt lat="43.50767773909887" lon="10.654466682480635"><ele>98.33333333333334</ele><time>2026-04-19T13:44:48.001Z</time></trkpt><trkpt lat="43.50757271529334" lon="10.654406145544042"><ele>99.0</ele><time>2026-04-19T13:44:49.001Z</time></trkpt><trkpt lat="43.50736258649937" lon="10.65425045793792"><ele>99.5</ele><time>2026-04-19T13:44:51.001Z</time></trkpt><trkpt lat="43.507258195400894" lon="10.654155599688194"><ele>100.0</ele><time>2026-04-19T13:44:52.001Z</time></trkpt><trkpt lat="43.50716156046127" lon="10.654058132447393"><ele>100.5</ele><time>2026-04-19T13:44:53.001Z</time></trkpt><trkpt lat="43.507070409638274" lon="10.653972168931146"><ele>101.0</ele><time>2026-04-19T13:44:54.001Z</time></trkpt><trkpt lat="43.50698257015369" lon="10.653888416460761"><ele>101.0</ele><time>2026-04-19T13:44:55.001Z</time></trkpt><trkpt lat="43.506899716035626" lon="10.653794082109979"><ele>101.0</ele><time>2026-04-19T13:44:56.001Z</time></trkpt><trkpt lat="43.506823386998356" lon="10.653690421059506"><ele>101.0</ele><time>2026-04-19T13:44:57.001Z</time></trkpt><trkpt lat="43.50674806960047" lon="10.65357896100567"><ele>101.0</ele><time>2026-04-19T13:44:58.001Z</time></trkpt><trkpt lat="43.50666555509006" lon="10.653471679149076"><ele>101.0</ele><time>2026-04-19T13:44:59.001Z</time></trkpt><trkpt lat="43.506584622081505" lon="10.653366573341517"><ele>102.5</ele><time>2026-04-19T13:45:00.001Z</time></trkpt><trkpt lat="43.50650296340319" lon="10.653257725765991"><ele>104.0</ele><time>2026-04-19T13:45:01.001Z</time></trkpt><trkpt lat="43.5064209731018" lon="10.653146982286485"><ele>105.5</ele><time>2026-04-19T13:45:02.001Z</time></trkpt><trkpt lat="43.50634364968854" lon="10.653027410443949"><ele>107.0</ele><time>2026-04-19T13:45:03.001Z</time></trkpt><trkpt lat="43.50627279492774" lon="10.652897428796043"><ele>106.75</ele><time>2026-04-19T13:45:04.001Z</time></trkpt><trkpt lat="43.50620985792472" lon="10.65275843550074"><ele>106.5</ele><time>2026-04-19T13:45:05.001Z</time></trkpt><trkpt lat="43.506149883025095" lon="10.652616152411627"><ele>106.25</ele><time>2026-04-19T13:45:06.001Z</time></trkpt><trkpt lat="43.50608963936778" lon="10.65247644590878"><ele>106.0</ele><time>2026-04-19T13:45:07.001Z</time></trkpt><trkpt lat="43.50602923978283" lon="10.652337463900913"><ele>106.0</ele><time>2026-04-19T13:45:08.001Z</time></trkpt><trkpt lat="43.505968965896614" lon="10.652197915993586"><ele>106.0</ele><time>2026-04-19T13:45:09.001Z</time></trkpt><trkpt lat="43.50590868948161" lon="10.652057743162322"><ele>106.0</ele><time>2026-04-19T13:45:10.001Z</time></trkpt><trkpt lat="43.505847629902156" lon="10.651917425399942"><ele>106.0</ele><time>2026-04-19T13:45:11.001Z</time></trkpt><trkpt lat="43.505786686456986" lon="10.651776556761021"><ele>107.0</ele><time>2026-04-19T13:45:12.001Z</time></trkpt><trkpt lat="43.505729116400424" lon="10.651642120182624"><ele>108.0</ele><time>2026-04-19T13:45:13.001Z</time></trkpt><trkpt lat="43.5056721268628" lon="10.651512373939864"><ele>109.0</ele><time>2026-04-19T13:45:14.001Z</time></trkpt><trkpt lat="43.50561449186953" lon="10.651376857325642"><ele>110.0</ele><time>2026-04-19T13:45:15.001Z</time></trkpt><trkpt lat="43.50555285139352" lon="10.651238518505975"><ele>109.5</ele><time>2026-04-19T13:45:16.001Z</time></trkpt><trkpt lat="43.50548899050562" lon="10.651102050239112"><ele>109.0</ele><time>2026-04-19T13:45:17.001Z</time></trkpt><trkpt lat="43.50541819378198" lon="10.650968976133845"><ele>108.5</ele><time>2026-04-19T13:45:18.002Z</time></trkpt><trkpt lat="43.50534653288835" lon="10.65083631077077"><ele>108.0</ele><time>2026-04-19T13:45:19.002Z</time></trkpt><trkpt lat="43.5052686122738" lon="10.650699102488423"><ele>108.0</ele><time>2026-04-19T13:45:20.002Z</time></trkpt><trkpt lat="43.505196540076874" lon="10.650559979296652"><ele>108.0</ele><time>2026-04-19T13:45:21.002Z</time></trkpt><trkpt lat="43.50513496104907" lon="10.650414888792124"><ele>108.0</ele><time>2026-04-19T13:45:22.002Z</time></trkpt><trkpt lat="43.5050820140733" lon="10.650261136632457"><ele>108.0</ele><time>2026-04-19T13:45:23.002Z</time></trkpt><trkpt lat="43.50503830419492" lon="10.65009896070751"><ele>108.25</ele><time>2026-04-19T13:45:24.002Z</time></trkpt><trkpt lat="43.50501179427522" lon="10.649919168169117"><ele>108.5</ele><time>2026-04-19T13:45:25.002Z</time></trkpt><trkpt lat="43.50499756499681" lon="10.649725325823349"><ele>108.75</ele><time>2026-04-19T13:45:26.002Z</time></trkpt><trkpt lat="43.50499178033629" lon="10.64953159180041"><ele>109.0</ele><time>2026-04-19T13:45:27.002Z</time></trkpt><trkpt lat="43.50498360161342" lon="10.649350218402414"><ele>109.75</ele><time>2026-04-19T13:45:28.002Z</time></trkpt><trkpt lat="43.50497723484311" lon="10.649173817401987"><ele>110.5</ele><time>2026-04-19T13:45:29.002Z</time></trkpt><trkpt lat="43.50496995312282" lon="10.649008368701173"><ele>111.25</ele><time>2026-04-19T13:45:30.002Z</time></trkpt><trkpt lat="43.5049630493001" lon="10.648853412051086"><ele>112.0</ele><time>2026-04-19T13:45:31.002Z</time></trkpt><trkpt lat="43.50493362935848" lon="10.6487133866071"><ele>112.6</ele><time>2026-04-19T13:45:32.002Z</time></trkpt><trkpt lat="43.50487909277517" lon="10.64858616888737"><ele>113.19999999999999</ele><time>2026-04-19T13:45:33.002Z</time></trkpt><trkpt lat="43.50481674865424" lon="10.648476258033444"><ele>113.8</ele><time>2026-04-19T13:45:34.002Z</time></trkpt><trkpt lat="43.504763565814024" lon="10.648358127526507"><ele>114.4</ele><time>2026-04-19T13:45:35.002Z</time></trkpt><trkpt lat="43.50471557999215" lon="10.648239915831445"><ele>115.0</ele><time>2026-04-19T13:45:36.002Z</time></trkpt><trkpt lat="43.50466227373805" lon="10.648114347066327"><ele>115.0</ele><time>2026-04-19T13:45:37.002Z</time></trkpt><trkpt lat="43.5046055254538" lon="10.647983316425089"><ele>115.0</ele><time>2026-04-19T13:45:38.002Z</time></trkpt><trkpt lat="43.50454631708219" lon="10.647851671863354"><ele>115.0</ele><time>2026-04-19T13:45:39.002Z</time></trkpt><trkpt lat="43.50448032814782" lon="10.647722253213937"><ele>115.0</ele><time>2026-04-19T13:45:40.002Z</time></trkpt><trkpt lat="43.5044232189543" lon="10.647577322068171"><ele>115.0</ele><time>2026-04-19T13:45:41.002Z</time></trkpt><trkpt lat="43.5043638027815" lon="10.647433635571398"><ele>115.0</ele><time>2026-04-19T13:45:42.002Z</time></trkpt><trkpt lat="43.50430456523757" lon="10.647289644031686"><ele>115.0</ele><time>2026-04-19T13:45:43.002Z</time></trkpt><trkpt lat="43.50424629840869" lon="10.647143564393046"><ele>115.0</ele><time>2026-04-19T13:45:44.002Z</time></trkpt><trkpt lat="43.50419233924486" lon="10.646991183101363"><ele>116.75</ele><time>2026-04-19T13:45:45.002Z</time></trkpt><trkpt lat="43.50414470168894" lon="10.646836703283936"><ele>118.5</ele><time>2026-04-19T13:45:46.002Z</time></trkpt><trkpt lat="43.50408928840066" lon="10.646691756671942"><ele>120.25</ele><time>2026-04-19T13:45:47.002Z</time></trkpt><trkpt lat="43.504036873858176" lon="10.646552186654484"><ele>122.0</ele><time>2026-04-19T13:45:48.002Z</time></trkpt><trkpt lat="43.50399447581301" lon="10.646415772763197"><ele>122.0</ele><time>2026-04-19T13:45:49.002Z</time></trkpt><trkpt lat="43.50395906766753" lon="10.646294188348223"><ele>121.99999999999999</ele><time>2026-04-19T13:45:50.002Z</time></trkpt><trkpt lat="43.503918145691685" lon="10.646191381985663"><ele>121.99999999999999</ele><time>2026-04-19T13:45:51.002Z</time></trkpt><trkpt lat="43.50385256218033" lon="10.646111917616256"><ele>122.0</ele><time>2026-04-19T13:45:52.002Z</time></trkpt><trkpt lat="43.50376695737154" lon="10.646049886353806"><ele>122.0</ele><time>2026-04-19T13:45:53.002Z</time></trkpt><trkpt lat="43.5036783058608" lon="10.64598542092515"><ele>123.75</ele><time>2026-04-19T13:45:54.002Z</time></trkpt><trkpt lat="43.50358420812801" lon="10.645904985904002"><ele>125.5</ele><time>2026-04-19T13:45:55.002Z</time></trkpt><trkpt lat="43.50348617171921" lon="10.645815838979875"><ele>127.25</ele><time>2026-04-19T13:45:56.002Z</time></trkpt><trkpt lat="43.50338149298482" lon="10.645724282325954"><ele>129.0</ele><time>2026-04-19T13:45:57.002Z</time></trkpt><trkpt lat="43.503298305458586" lon="10.64562845048745"><ele>129.0</ele><time>2026-04-19T13:45:58.002Z</time></trkpt><trkpt lat="43.503247512350505" lon="10.645523053271464"><ele>129.0</ele><time>2026-04-19T13:45:59.002Z</time></trkpt><trkpt lat="43.50321684074948" lon="10.645396786948405"><ele>129.0</ele><time>2026-04-19T13:46:00.002Z</time></trkpt><trkpt lat="43.50320423312671" lon="10.645243316447486"><ele>129.0</ele><time>2026-04-19T13:46:01.002Z</time></trkpt><trkpt lat="43.503197151192595" lon="10.645090551286126"><ele>129.0</ele><time>2026-04-19T13:46:02.002Z</time></trkpt><trkpt lat="43.503189002237626" lon="10.64493834350378"><ele>129.4</ele><time>2026-04-19T13:46:03.002Z</time></trkpt><trkpt lat="43.503179633845164" lon="10.644793849633956"><ele>129.8</ele><time>2026-04-19T13:46:04.002Z</time></trkpt><trkpt lat="43.50316823202845" lon="10.644644273356864"><ele>130.2</ele><time>2026-04-19T13:46:05.002Z</time></trkpt><trkpt lat="43.50315574847611" lon="10.644491223692182"><ele>130.6</ele><time>2026-04-19T13:46:06.002Z</time></trkpt><trkpt lat="43.50314107161579" lon="10.644344574346679"><ele>131.0</ele><time>2026-04-19T13:46:07.002Z</time></trkpt><trkpt lat="43.50312943607475" lon="10.644202883391337"><ele>131.0</ele><time>2026-04-19T13:46:08.002Z</time></trkpt><trkpt lat="43.5031174849953" lon="10.644064334513114"><ele>131.0</ele><time>2026-04-19T13:46:09.002Z</time></trkpt><trkpt lat="43.50309945130024" lon="10.643920577065337"><ele>131.0</ele><time>2026-04-19T13:46:10.002Z</time></trkpt><trkpt lat="43.50306041019187" lon="10.64376717618334"><ele>131.0</ele><time>2026-04-19T13:46:11.002Z</time></trkpt><trkpt lat="43.503005801971774" lon="10.643613985088727"><ele>131.0</ele><time>2026-04-19T13:46:12.002Z</time></trkpt><trkpt lat="43.502950142764945" lon="10.643471006478793"><ele>131.4</ele><time>2026-04-19T13:46:13.002Z</time></trkpt><trkpt lat="43.50289559488324" lon="10.643335678819748"><ele>131.8</ele><time>2026-04-19T13:46:14.002Z</time></trkpt><trkpt lat="43.50284388947682" lon="10.643200741613642"><ele>132.20000000000002</ele><time>2026-04-19T13:46:15.002Z</time></trkpt><trkpt lat="43.50278855121199" lon="10.643066510916093"><ele>132.6</ele><time>2026-04-19T13:46:16.002Z</time></trkpt><trkpt lat="43.5027304018488" lon="10.642937999722784"><ele>133.0</ele><time>2026-04-19T13:46:17.002Z</time></trkpt><trkpt lat="43.50267267558089" lon="10.642805703361054"><ele>134.5</ele><time>2026-04-19T13:46:18.003Z</time></trkpt><trkpt lat="43.50261071389882" lon="10.642668986485543"><ele>136.0</ele><time>2026-04-19T13:46:19.003Z</time></trkpt><trkpt lat="43.50255145611325" lon="10.642532003151837"><ele>137.5</ele><time>2026-04-19T13:46:20.003Z</time></trkpt><trkpt lat="43.50249573633323" lon="10.642392487973678"><ele>139.0</ele><time>2026-04-19T13:46:21.003Z</time></trkpt><trkpt lat="43.502448873182765" lon="10.642254982446845"><ele>139.0</ele><time>2026-04-19T13:46:22.003Z</time></trkpt><trkpt lat="43.502418250655616" lon="10.642129211313355"><ele>139.0</ele><time>2026-04-19T13:46:23.003Z</time></trkpt><trkpt lat="43.50241213494304" lon="10.642017974492038"><ele>139.0</ele><time>2026-04-19T13:46:24.003Z</time></trkpt><trkpt lat="43.5024280045265" lon="10.64192577655158"><ele>139.0</ele><time>2026-04-19T13:46:25.001Z</time></trkpt><trkpt lat="43.502474515230695" lon="10.641855486403399"><ele>139.0</ele><time>2026-04-19T13:46:26.001Z</time></trkpt><trkpt lat="43.50252953531344" lon="10.641797351521273"><ele>139.0</ele><time>2026-04-19T13:46:27.001Z</time></trkpt><trkpt lat="43.50255305468505" lon="10.641708910036845"><ele>140.25</ele><time>2026-04-19T13:46:28.001Z</time></trkpt><trkpt lat="43.502564126177" lon="10.641532696103711"><ele>141.5</ele><time>2026-04-19T13:46:30.001Z</time></trkpt><trkpt lat="43.5025978850986" lon="10.641382557855504"><ele>142.75</ele><time>2026-04-19T13:46:32.001Z</time></trkpt><trkpt lat="43.502623880074644" lon="10.641230460727263"><ele>144.0</ele><time>2026-04-19T13:46:34.001Z</time></trkpt><trkpt lat="43.5025747032963" lon="10.641103551138158"><ele>145.0</ele><time>2026-04-19T13:46:36.001Z</time></trkpt><trkpt lat="43.50252410129566" lon="10.641049806257966"><ele>146.0</ele><time>2026-04-19T13:46:40.001Z</time></trkpt><trkpt lat="43.502455128870906" lon="10.640975028094763"><ele>147.0</ele><time>2026-04-19T13:46:43.001Z</time></trkpt><trkpt lat="43.50236781826663" lon="10.640920181177188"><ele>148.0</ele><time>2026-04-19T13:46:46.001Z</time></trkpt><trkpt lat="43.50230854983532" lon="10.640859791935696"><ele>149.0</ele><time>2026-04-19T13:46:49.001Z</time></trkpt><trkpt lat="43.50227112647416" lon="10.64077817920901"><ele>150.0</ele><time>2026-04-19T13:46:51.001Z</time></trkpt><trkpt lat="43.50222689365546" lon="10.640671823224661"><ele>150.0</ele><time>2026-04-19T13:46:53.001Z</time></trkpt><trkpt lat="43.50219207222089" lon="10.640574399428747"><ele>150.0</ele><time>2026-04-19T13:46:55.001Z</time></trkpt><trkpt lat="43.502142804683935" lon="10.640475465219"><ele>150.0</ele><time>2026-04-19T13:46:58.001Z</time></trkpt><trkpt lat="43.50209504187614" lon="10.640372340144783"><ele>150.0</ele><time>2026-04-19T13:47:01.001Z</time></trkpt><trkpt lat="43.502053089341906" lon="10.640284004860778"><ele>150.0</ele><time>2026-04-19T13:47:04.001Z</time></trkpt><trkpt lat="43.50200139614736" lon="10.640205720606092"><ele>150.0</ele><time>2026-04-19T13:50:22.002Z</time></trkpt><trkpt lat="43.501954641442154" lon="10.640128763745208"><ele>153.42857142857142</ele><time>2026-04-19T13:50:44.001Z</time></trkpt><trkpt lat="43.50196027910415" lon="10.64003022363123"><ele>156.85714285714286</ele><time>2026-04-19T13:50:51.001Z</time></trkpt><trkpt lat="43.50197653314333" lon="10.639940765629802"><ele>160.28571428571428</ele><time>2026-04-19T13:50:54.001Z</time></trkpt><trkpt lat="43.50199147062438" lon="10.63983724396959"><ele>163.71428571428572</ele><time>2026-04-19T13:51:45.002Z</time></trkpt><trkpt lat="43.50199955565271" lon="10.639744019922034"><ele>167.14285714285714</ele><time>2026-04-19T13:51:50.002Z</time></trkpt><trkpt lat="43.502019010808546" lon="10.639654240916927"><ele>170.57142857142856</ele><time>2026-04-19T13:51:54.002Z</time></trkpt><trkpt lat="43.50202942076742" lon="10.63955346787521"><ele>174.0</ele><time>2026-04-19T13:51:58.002Z</time></trkpt><trkpt lat="43.502042354094534" lon="10.639443937261277"><ele>175.0</ele><time>2026-04-19T13:52:02.002Z</time></trkpt><trkpt lat="43.50205864636007" lon="10.639331449029527"><ele>176.0</ele><time>2026-04-19T13:52:06.002Z</time></trkpt><trkpt lat="43.502081951901836" lon="10.639217465194266"><ele>177.0</ele><time>2026-04-19T13:52:10.002Z</time></trkpt><trkpt lat="43.502096679202246" lon="10.639123130814781"><ele>178.0</ele><time>2026-04-19T13:52:13.002Z</time></trkpt><trkpt lat="43.502114099963315" lon="10.639036819212883"><ele>179.0</ele><time>2026-04-19T13:52:16.002Z</time></trkpt><trkpt lat="43.50213224280782" lon="10.638945918976143"><ele>180.0</ele><time>2026-04-19T13:52:20.002Z</time></trkpt><trkpt lat="43.502132007333564" lon="10.638841819489574"><ele>181.0</ele><time>2026-04-19T13:52:24.002Z</time></trkpt><trkpt lat="43.502103629524875" lon="10.638748593737809"><ele>181.0</ele><time>2026-04-19T13:52:28.002Z</time></trkpt><trkpt lat="43.502060761349306" lon="10.638668000744174"><ele>181.0</ele><time>2026-04-19T13:52:32.002Z</time></trkpt><trkpt lat="43.50201827363942" lon="10.63856251240407"><ele>181.0</ele><time>2026-04-19T13:52:36.002Z</time></trkpt><trkpt lat="43.501966108999056" lon="10.638455959647612"><ele>181.0</ele><time>2026-04-19T13:52:39.002Z</time></trkpt><trkpt lat="43.501929749189536" lon="10.638383009000998"><ele>181.0</ele><time>2026-04-19T13:52:41.002Z</time></trkpt><trkpt lat="43.50187071756042" lon="10.638290601994088"><ele>181.0</ele><time>2026-04-19T13:52:44.001Z</time></trkpt><trkpt lat="43.50181951177397" lon="10.63823555099919"><ele>181.5</ele><time>2026-04-19T13:52:46.001Z</time></trkpt><trkpt lat="43.50175142840427" lon="10.638155348119783"><ele>182.0</ele><time>2026-04-19T13:52:49Z</time></trkpt><trkpt lat="43.50170802576828" lon="10.638091601204863"><ele>182.5</ele><time>2026-04-19T13:53:02Z</time></trkpt><trkpt lat="43.50171740508503" lon="10.637989022737006"><ele>183.0</ele><time>2026-04-19T13:53:07Z</time></trkpt><trkpt lat="43.501787052962094" lon="10.637893786958042"><ele>183.5</ele><time>2026-04-19T13:53:10Z</time></trkpt><trkpt lat="43.501852720899095" lon="10.637820070052463"><ele>184.0</ele><time>2026-04-19T13:53:12Z</time></trkpt><trkpt lat="43.501924871496925" lon="10.637736148128552"><ele>185.0</ele><time>2026-04-19T13:53:14Z</time></trkpt><trkpt lat="43.501992310866584" lon="10.637663256781645"><ele>186.0</ele><time>2026-04-19T13:53:16Z</time></trkpt><trkpt lat="43.502075257919" lon="10.637573489432016"><ele>187.0</ele><time>2026-04-19T13:53:18Z</time></trkpt><trkpt lat="43.50216844333138" lon="10.637467694847343"><ele>188.0</ele><time>2026-04-19T13:53:20Z</time></trkpt><trkpt lat="43.50221690872772" lon="10.637410035581041"><ele>189.0</ele><time>2026-04-19T13:53:21Z</time></trkpt><trkpt lat="43.50226935847408" lon="10.637350432563231"><ele>190.0</ele><time>2026-04-19T13:53:22Z</time></trkpt><trkpt lat="43.502319765093326" lon="10.637284648639541"><ele>188.85714285714286</ele><time>2026-04-19T13:53:23Z</time></trkpt><trkpt lat="43.502367236464664" lon="10.637218994107561"><ele>187.71428571428572</ele><time>2026-04-19T13:53:24Z</time></trkpt><trkpt lat="43.5024080849572" lon="10.637149357625702"><ele>186.57142857142856</ele><time>2026-04-19T13:53:25Z</time></trkpt><trkpt lat="43.50244641751061" lon="10.637073485822027"><ele>185.42857142857144</ele><time>2026-04-19T13:53:26Z</time></trkpt><trkpt lat="43.50248419773219" lon="10.636992437587223"><ele>184.28571428571428</ele><time>2026-04-19T13:53:27Z</time></trkpt><trkpt lat="43.50252457061391" lon="10.63690906009092"><ele>183.14285714285714</ele><time>2026-04-19T13:53:28Z</time></trkpt><trkpt lat="43.50256733420832" lon="10.63682385134579"><ele>182.0</ele><time>2026-04-19T13:53:29Z</time></trkpt><trkpt lat="43.50261402249867" lon="10.63674738896465"><ele>182.0</ele><time>2026-04-19T13:53:30Z</time></trkpt><trkpt lat="43.50267038205273" lon="10.636690344295658"><ele>182.0</ele><time>2026-04-19T13:53:31Z</time></trkpt><trkpt lat="43.502740995582585" lon="10.636663675997962"><ele>182.0</ele><time>2026-04-19T13:53:32Z</time></trkpt><trkpt lat="43.50281066635038" lon="10.636660757112137"><ele>182.0</ele><time>2026-04-19T13:53:33Z</time></trkpt><trkpt lat="43.502881371619075" lon="10.636666511434052"><ele>182.0</ele><time>2026-04-19T13:53:34Z</time></trkpt><trkpt lat="43.50294582563534" lon="10.636668492575918"><ele>182.0</ele><time>2026-04-19T13:53:35Z</time></trkpt><trkpt lat="43.50301061055094" lon="10.636666075080154"><ele>182.0</ele><time>2026-04-19T13:53:36Z</time></trkpt><trkpt lat="43.5030817067912" lon="10.636649624979016"><ele>180.33333333333331</ele><time>2026-04-19T13:53:37Z</time></trkpt><trkpt lat="43.503154711873655" lon="10.636615836062749"><ele>178.66666666666666</ele><time>2026-04-19T13:53:38Z</time></trkpt><trkpt lat="43.50323132079368" lon="10.636565805884793"><ele>177.0</ele><time>2026-04-19T13:53:39Z</time></trkpt><trkpt lat="43.50330851463525" lon="10.636508422659649"><ele>175.33333333333334</ele><time>2026-04-19T13:53:40Z</time></trkpt><trkpt lat="43.503387810318436" lon="10.63644918463098"><ele>173.66666666666669</ele><time>2026-04-19T13:53:41Z</time></trkpt><trkpt lat="43.50347097404728" lon="10.63639240803815"><ele>172.0</ele><time>2026-04-19T13:53:42Z</time></trkpt><trkpt lat="43.50355787391585" lon="10.636330109029856"><ele>172.0</ele><time>2026-04-19T13:53:43Z</time></trkpt><trkpt lat="43.50363944123392" lon="10.636267256220872"><ele>172.0</ele><time>2026-04-19T13:53:44Z</time></trkpt><trkpt lat="43.50371878946055" lon="10.636201120417057"><ele>172.0</ele><time>2026-04-19T13:53:45Z</time></trkpt><trkpt lat="43.50378361075416" lon="10.636109317143287"><ele>172.0</ele><time>2026-04-19T13:53:46Z</time></trkpt><trkpt lat="43.503830242063295" lon="10.63600105159346"><ele>172.0</ele><time>2026-04-19T13:53:47Z</time></trkpt><trkpt lat="43.50387246953111" lon="10.635891257635787"><ele>171.0</ele><time>2026-04-19T13:53:48Z</time></trkpt><trkpt lat="43.50390215072341" lon="10.635774294607733"><ele>170.0</ele><time>2026-04-19T13:53:49Z</time></trkpt><trkpt lat="43.503929112985276" lon="10.635648100306428"><ele>169.0</ele><time>2026-04-19T13:53:50Z</time></trkpt><trkpt lat="43.50395601740729" lon="10.63552544383448"><ele>168.0</ele><time>2026-04-19T13:53:51Z</time></trkpt><trkpt lat="43.503999230928805" lon="10.635410839822145"><ele>167.0</ele><time>2026-04-19T13:53:52Z</time></trkpt><trkpt lat="43.504063007767414" lon="10.635321008712587"><ele>167.0</ele><time>2026-04-19T13:53:53Z</time></trkpt><trkpt lat="43.50414480385467" lon="10.635264984042538"><ele>167.0</ele><time>2026-04-19T13:53:54Z</time></trkpt><trkpt lat="43.50423622981799" lon="10.635278334020024"><ele>167.0</ele><time>2026-04-19T13:53:55Z</time></trkpt><trkpt lat="43.50431557421937" lon="10.635351000061494"><ele>167.0</ele><time>2026-04-19T13:53:56Z</time></trkpt><trkpt lat="43.50439575819138" lon="10.635452995914255"><ele>167.0</ele><time>2026-04-19T13:53:57Z</time></trkpt><trkpt lat="43.50448335876915" lon="10.635553193086915"><ele>167.0</ele><time>2026-04-19T13:53:58Z</time></trkpt><trkpt lat="43.50457696727906" lon="10.635662634709469"><ele>167.0</ele><time>2026-04-19T13:53:59Z</time></trkpt><trkpt lat="43.50466671638656" lon="10.635769023383428"><ele>167.0</ele><time>2026-04-19T13:54:00Z</time></trkpt><trkpt lat="43.504755101235254" lon="10.635874410682288"><ele>167.0</ele><time>2026-04-19T13:54:01Z</time></trkpt><trkpt lat="43.504832789371086" lon="10.635989210356264"><ele>165.0</ele><time>2026-04-19T13:54:02Z</time></trkpt><trkpt lat="43.50490393665729" lon="10.636116178598737"><ele>163.0</ele><time>2026-04-19T13:54:03Z</time></trkpt><trkpt lat="43.50496694392443" lon="10.636247171528074"><ele>161.0</ele><time>2026-04-19T13:54:04Z</time></trkpt><trkpt lat="43.50502607526627" lon="10.63638246184431"><ele>159.0</ele><time>2026-04-19T13:54:05Z</time></trkpt><trkpt lat="43.5050618417367" lon="10.636527843761812"><ele>159.0</ele><time>2026-04-19T13:54:06.001Z</time></trkpt><trkpt lat="43.50508555695408" lon="10.636664793264565"><ele>159.0</ele><time>2026-04-19T13:54:07.001Z</time></trkpt><trkpt lat="43.50511625801828" lon="10.63679029288257"><ele>159.0</ele><time>2026-04-19T13:54:08.001Z</time></trkpt><trkpt lat="43.505183126497236" lon="10.636878269885186"><ele>159.0</ele><time>2026-04-19T13:54:09.001Z</time></trkpt><trkpt lat="43.505269073735185" lon="10.636918378827453"><ele>159.0</ele><time>2026-04-19T13:54:10.001Z</time></trkpt><trkpt lat="43.50543594601703" lon="10.636830835438497"><ele>159.0</ele><time>2026-04-19T13:54:12.001Z</time></trkpt><trkpt lat="43.5054826710452" lon="10.636717686390696"><ele>159.0</ele><time>2026-04-19T13:54:13.001Z</time></trkpt><trkpt lat="43.50550378614703" lon="10.63658801130132"><ele>159.0</ele><time>2026-04-19T13:54:14.001Z</time></trkpt><trkpt lat="43.50549224722222" lon="10.636446111487308"><ele>159.0</ele><time>2026-04-19T13:54:15.001Z</time></trkpt><trkpt lat="43.50544496382777" lon="10.636314315007619"><ele>159.0</ele><time>2026-04-19T13:54:16.001Z</time></trkpt><trkpt lat="43.50538852562227" lon="10.636205881162732"><ele>158.66666666666666</ele><time>2026-04-19T13:54:17.001Z</time></trkpt><trkpt lat="43.505326460781035" lon="10.636110297121038"><ele>158.33333333333334</ele><time>2026-04-19T13:54:18.001Z</time></trkpt><trkpt lat="43.50526787079577" lon="10.636022509694408"><ele>158.0</ele><time>2026-04-19T13:54:19.001Z</time></trkpt><trkpt lat="43.5052274147786" lon="10.635922384448914"><ele>157.66666666666669</ele><time>2026-04-19T13:54:20.001Z</time></trkpt><trkpt lat="43.505204096394024" lon="10.63580902346669"><ele>157.33333333333334</ele><time>2026-04-19T13:54:21.001Z</time></trkpt><trkpt lat="43.50521229793726" lon="10.635679842755755"><ele>157.0</ele><time>2026-04-19T13:54:22.001Z</time></trkpt><trkpt lat="43.50524263322978" lon="10.635550354009085"><ele>157.0</ele><time>2026-04-19T13:54:23.001Z</time></trkpt><trkpt lat="43.50527765832981" lon="10.635423628862194"><ele>157.0</ele><time>2026-04-19T13:54:24.001Z</time></trkpt><trkpt lat="43.50529784105117" lon="10.635294913947027"><ele>157.0</ele><time>2026-04-19T13:54:25.001Z</time></trkpt><trkpt lat="43.50530335037983" lon="10.635163723342961"><ele>157.0</ele><time>2026-04-19T13:54:26.001Z</time></trkpt><trkpt lat="43.5052880224719" lon="10.635024835445527"><ele>157.0</ele><time>2026-04-19T13:54:27.001Z</time></trkpt><trkpt lat="43.50524885859436" lon="10.634885831507159"><ele>156.0</ele><time>2026-04-19T13:54:28.001Z</time></trkpt><trkpt lat="43.50520515846405" lon="10.634740925939683"><ele>155.0</ele><time>2026-04-19T13:54:29.001Z</time></trkpt><trkpt lat="43.505167877031674" lon="10.634593023629723"><ele>154.0</ele><time>2026-04-19T13:54:30.001Z</time></trkpt><trkpt lat="43.505142063544305" lon="10.63444127226629"><ele>153.0</ele><time>2026-04-19T13:54:31.001Z</time></trkpt><trkpt lat="43.50514385910127" lon="10.63428384222205"><ele>152.20000000000002</ele><time>2026-04-19T13:54:32.001Z</time></trkpt><trkpt lat="43.50516561595387" lon="10.634132232749694"><ele>151.4</ele><time>2026-04-19T13:54:33.001Z</time></trkpt><trkpt lat="43.50518672407515" lon="10.633987912722464"><ele>150.60000000000002</ele><time>2026-04-19T13:54:34.001Z</time></trkpt><trkpt lat="43.505201779859775" lon="10.6338581179974"><ele>149.8</ele><time>2026-04-19T13:54:35.001Z</time></trkpt><trkpt lat="43.505208052031726" lon="10.6337453447122"><ele>149.0</ele><time>2026-04-19T13:54:36.001Z</time></trkpt><trkpt lat="43.50520685840334" lon="10.633645585398527"><ele>149.2</ele><time>2026-04-19T13:54:37.001Z</time></trkpt><trkpt lat="43.50519507093479" lon="10.633490006007632"><ele>149.4</ele><time>2026-04-19T13:54:39.001Z</time></trkpt><trkpt lat="43.505169710528286" lon="10.633337259781849"><ele>149.6</ele><time>2026-04-19T13:54:41.001Z</time></trkpt><trkpt lat="43.50513746182638" lon="10.633157700248743"><ele>149.8</ele><time>2026-04-19T13:54:43.001Z</time></trkpt><trkpt lat="43.50512207460298" lon="10.633053686509234"><ele>150.0</ele><time>2026-04-19T13:54:44.001Z</time></trkpt><trkpt lat="43.50510871294385" lon="10.632952833190242"><ele>150.0</ele><time>2026-04-19T13:54:45.001Z</time></trkpt><trkpt lat="43.50510096662622" lon="10.632859338695903"><ele>150.0</ele><time>2026-04-19T13:54:46.001Z</time></trkpt><trkpt lat="43.50510061853638" lon="10.632771806329314"><ele>150.0</ele><time>2026-04-19T13:54:47.001Z</time></trkpt><trkpt lat="43.50514548176505" lon="10.632617211105485"><ele>150.0</ele><time>2026-04-19T13:54:48.999Z</time></trkpt><trkpt lat="43.50518617170051" lon="10.63254695541495"><ele>150.0</ele><time>2026-04-19T13:54:49.999Z</time></trkpt><trkpt lat="43.50524698175032" lon="10.632482233046602"><ele>150.0</ele><time>2026-04-19T13:54:50.999Z</time></trkpt><trkpt lat="43.50532988731282" lon="10.632430510605714"><ele>148.33333333333334</ele><time>2026-04-19T13:54:51.999Z</time></trkpt><trkpt lat="43.505417216013456" lon="10.632377089426711"><ele>146.66666666666666</ele><time>2026-04-19T13:54:52.999Z</time></trkpt><trkpt lat="43.505509812259696" lon="10.632328169823866"><ele>145.0</ele><time>2026-04-19T13:54:53.999Z</time></trkpt><trkpt lat="43.50559989919347" lon="10.63228008973625"><ele>143.33333333333331</ele><time>2026-04-19T13:54:54.999Z</time></trkpt><trkpt lat="43.50566635029795" lon="10.632248172681743"><ele>141.66666666666666</ele><time>2026-04-19T13:54:55.999Z</time></trkpt><trkpt lat="43.505737688477325" lon="10.63221276851305"><ele>140.0</ele><time>2026-04-19T13:54:57.999Z</time></trkpt><trkpt lat="43.50571228632766" lon="10.632132143486999"><ele>140.0</ele><time>2026-04-19T13:54:59.999Z</time></trkpt><trkpt lat="43.505676082798644" lon="10.632205836962193"><ele>140.0</ele><time>2026-04-19T13:55:06.999Z</time></trkpt><trkpt lat="43.5056117287175" lon="10.632255646114873"><ele>140.0</ele><time>2026-04-19T13:55:07.999Z</time></trkpt><trkpt lat="43.50555146720373" lon="10.632296741309966"><ele>140.0</ele><time>2026-04-19T13:55:08.999Z</time></trkpt><trkpt lat="43.505469036308575" lon="10.632344851719125"><ele>140.0</ele><time>2026-04-19T13:55:09.999Z</time></trkpt><trkpt lat="43.50537323995366" lon="10.632397838298903"><ele>140.0</ele><time>2026-04-19T13:55:11Z</time></trkpt><trkpt lat="43.50528353233921" lon="10.632439588208339"><ele>141.4</ele><time>2026-04-19T13:55:12Z</time></trkpt><trkpt lat="43.505200889144604" lon="10.63248443004885"><ele>142.8</ele><time>2026-04-19T13:55:13Z</time></trkpt><trkpt lat="43.50513122900203" lon="10.63255668332249"><ele>144.2</ele><time>2026-04-19T13:55:14Z</time></trkpt><trkpt lat="43.50509081645113" lon="10.632664258803793"><ele>145.6</ele><time>2026-04-19T13:55:15Z</time></trkpt><trkpt lat="43.50507835366876" lon="10.63279019979635"><ele>147.0</ele><time>2026-04-19T13:55:16Z</time></trkpt><trkpt lat="43.50507736466982" lon="10.632928000442593"><ele>147.6</ele><time>2026-04-19T13:55:17Z</time></trkpt><trkpt lat="43.50509465897515" lon="10.633068268367472"><ele>148.2</ele><time>2026-04-19T13:55:18Z</time></trkpt><trkpt lat="43.50512286911076" lon="10.633201661155152"><ele>148.8</ele><time>2026-04-19T13:55:19Z</time></trkpt><trkpt lat="43.50514127754234" lon="10.633325083070384"><ele>149.4</ele><time>2026-04-19T13:55:20Z</time></trkpt><trkpt lat="43.50515532886505" lon="10.633436615919983"><ele>150.0</ele><time>2026-04-19T13:55:21Z</time></trkpt><trkpt lat="43.50516903983489" lon="10.633537092979148"><ele>150.0</ele><time>2026-04-19T13:55:22Z</time></trkpt><trkpt lat="43.505177839459954" lon="10.633626882689953"><ele>150.0</ele><time>2026-04-19T13:55:23Z</time></trkpt><trkpt lat="43.5051804452889" lon="10.633725061866633"><ele>150.0</ele><time>2026-04-19T13:55:25Z</time></trkpt><trkpt lat="43.505185057641775" lon="10.63383878485421"><ele>150.0</ele><time>2026-04-19T13:55:32Z</time></trkpt><trkpt lat="43.505270988496825" lon="10.633873434725007"><ele>150.0</ele><time>2026-04-19T13:55:34Z</time></trkpt><trkpt lat="43.50534566603039" lon="10.633805616350337"><ele>150.0</ele><time>2026-04-19T13:55:36Z</time></trkpt><trkpt lat="43.50539697953822" lon="10.633710316102432"><ele>149.99999999999997</ele><time>2026-04-19T13:55:39Z</time></trkpt><trkpt lat="43.505382190635345" lon="10.63361680106219"><ele>150.0</ele><time>2026-04-19T13:55:42Z</time></trkpt><trkpt lat="43.505341561459936" lon="10.633537010726961"><ele>150.0</ele><time>2026-04-19T13:55:46Z</time></trkpt><trkpt lat="43.505295925083146" lon="10.633435293472765"><ele>150.0</ele><time>2026-04-19T13:55:49Z</time></trkpt><trkpt lat="43.5052835747418" lon="10.633339642817727"><ele>150.0</ele><time>2026-04-19T13:55:52Z</time></trkpt><trkpt lat="43.50529707052324" lon="10.633427005207198"><ele>149.99999999999997</ele><time>2026-04-19T13:56:13Z</time></trkpt><trkpt lat="43.505310557070835" lon="10.633514013855784"><ele>150.0</ele><time>2026-04-19T13:56:19.001Z</time></trkpt><trkpt lat="43.50536165888625" lon="10.633581085612589"><ele>148.85714285714283</ele><time>2026-04-19T13:57:44Z</time></trkpt><trkpt lat="43.505415349933536" lon="10.633628375148588"><ele>147.71428571428572</ele><time>2026-04-19T13:57:54Z</time></trkpt><trkpt lat="43.505478405819666" lon="10.633638348183833"><ele>146.57142857142856</ele><time>2026-04-19T13:58:04Z</time></trkpt><trkpt lat="43.50542976958336" lon="10.633697892489545"><ele>145.42857142857142</ele><time>2026-04-19T13:58:26.001Z</time></trkpt><trkpt lat="43.50544149341895" lon="10.633790304243384"><ele>144.28571428571428</ele><time>2026-04-19T13:58:33.001Z</time></trkpt><trkpt lat="43.50550232180832" lon="10.633818341793145"><ele>143.14285714285714</ele><time>2026-04-19T13:58:43.001Z</time></trkpt><trkpt lat="43.50557394008715" lon="10.633825466212084"><ele>142.0</ele><time>2026-04-19T13:59:11Z</time></trkpt><trkpt lat="43.5056542727486" lon="10.633851434689234"><ele>142.0</ele><time>2026-04-19T13:59:16Z</time></trkpt><trkpt lat="43.50572108557576" lon="10.63386307259771"><ele>142.0</ele><time>2026-04-19T13:59:20Z</time></trkpt><trkpt lat="43.50565184655582" lon="10.633836452690904"><ele>142.0</ele><time>2026-04-19T13:59:34Z</time></trkpt><trkpt lat="43.50558903521963" lon="10.633820591288123"><ele>142.0</ele><time>2026-04-19T13:59:39Z</time></trkpt><trkpt lat="43.505525115271084" lon="10.633817314501826"><ele>142.0</ele><time>2026-04-19T13:59:44Z</time></trkpt><trkpt lat="43.505487933231144" lon="10.633739140367442"><ele>142.0</ele><time>2026-04-19T13:59:55.001Z</time></trkpt><trkpt lat="43.505533467764366" lon="10.633801847253583"><ele>142.0</ele><time>2026-04-19T14:03:11.001Z</time></trkpt><trkpt lat="43.50562305421544" lon="10.63382791209545"><ele>142.0</ele><time>2026-04-19T14:03:17.001Z</time></trkpt><trkpt lat="43.50546344731932" lon="10.633832763411622"><ele>142.0</ele><time>2026-04-19T14:07:54Z</time></trkpt><trkpt lat="43.50541908492159" lon="10.63373061919998"><ele>142.0</ele><time>2026-04-19T14:10:16Z</time></trkpt><trkpt lat="43.50543427969627" lon="10.63363843885859"><ele>142.0</ele><time>2026-04-19T14:10:23Z</time></trkpt><trkpt lat="43.505498555257354" lon="10.633646264088277"><ele>142.0</ele><time>2026-04-19T14:10:35Z</time></trkpt><trkpt lat="43.50549997649369" lon="10.633553855833364"><ele>142.0</ele><time>2026-04-19T14:11:47Z</time></trkpt><trkpt lat="43.505462575654654" lon="10.633635488603765"><ele>143.14285714285714</ele><time>2026-04-19T14:59:16Z</time></trkpt><trkpt lat="43.50539403117584" lon="10.633625346352545"><ele>144.28571428571428</ele><time>2026-04-19T15:00:16Z</time></trkpt><trkpt lat="43.50537539820844" lon="10.633532460881021"><ele>145.42857142857142</ele><time>2026-04-19T15:00:23Z</time></trkpt><trkpt lat="43.50533086169547" lon="10.633464420292269"><ele>146.57142857142856</ele><time>2026-04-19T15:00:29Z</time></trkpt><trkpt lat="43.50528240474965" lon="10.633395198942704"><ele>147.71428571428572</ele><time>2026-04-19T15:00:34Z</time></trkpt><trkpt lat="43.50534540416108" lon="10.633416117778745"><ele>148.85714285714283</ele><time>2026-04-19T15:01:26Z</time></trkpt><trkpt lat="43.50535710221965" lon="10.633519311925772"><ele>150.0</ele><time>2026-04-19T15:01:28Z</time></trkpt><trkpt lat="43.505352423947905" lon="10.633623254622604"><ele>150.0</ele><time>2026-04-19T15:01:30Z</time></trkpt><trkpt lat="43.50533660059273" lon="10.633749096588692"><ele>150.0</ele><time>2026-04-19T15:01:32Z</time></trkpt><trkpt lat="43.505269838942304" lon="10.633858808805691"><ele>150.0</ele><time>2026-04-19T15:01:34Z</time></trkpt><trkpt lat="43.505204905607776" lon="10.633819409314489"><ele>150.0</ele><time>2026-04-19T15:01:57.999Z</time></trkpt><trkpt lat="43.50517102345945" lon="10.63373744317483"><ele>150.0</ele><time>2026-04-19T15:01:59.999Z</time></trkpt><trkpt lat="43.50518132000499" lon="10.633618286964463"><ele>150.0</ele><time>2026-04-19T15:02:01.999Z</time></trkpt><trkpt lat="43.50516598945598" lon="10.633446626875335"><ele>150.0</ele><time>2026-04-19T15:02:03.999Z</time></trkpt><trkpt lat="43.50515052014943" lon="10.633344302226645"><ele>150.0</ele><time>2026-04-19T15:02:04.999Z</time></trkpt><trkpt lat="43.50514930653891" lon="10.633232830539743"><ele>150.0</ele><time>2026-04-19T15:02:05.999Z</time></trkpt><trkpt lat="43.50513112006212" lon="10.633121668568403"><ele>150.0</ele><time>2026-04-19T15:02:06.999Z</time></trkpt><trkpt lat="43.50511310412126" lon="10.633011548979463"><ele>150.0</ele><time>2026-04-19T15:02:07.999Z</time></trkpt><trkpt lat="43.50509947822757" lon="10.63290698718672"><ele>150.0</ele><time>2026-04-19T15:02:08.999Z</time></trkpt><trkpt lat="43.505092181987685" lon="10.632805854780703"><ele>149.5</ele><time>2026-04-19T15:02:09.999Z</time></trkpt><trkpt lat="43.505078899495444" lon="10.632706417498069"><ele>149.0</ele><time>2026-04-19T15:02:10.999Z</time></trkpt><trkpt lat="43.505112997095324" lon="10.632607521622289"><ele>148.5</ele><time>2026-04-19T15:02:11.999Z</time></trkpt><trkpt lat="43.505185363242646" lon="10.632537438471811"><ele>148.0</ele><time>2026-04-19T15:02:12.999Z</time></trkpt><trkpt lat="43.50525823677721" lon="10.632483422750324"><ele>147.5</ele><time>2026-04-19T15:02:13.999Z</time></trkpt><trkpt lat="43.50534063174065" lon="10.63243577078363"><ele>147.0</ele><time>2026-04-19T15:02:14.999Z</time></trkpt><trkpt lat="43.505432689401886" lon="10.632386467749187"><ele>145.6</ele><time>2026-04-19T15:02:15.999Z</time></trkpt><trkpt lat="43.50552364728792" lon="10.632334864946634"><ele>144.2</ele><time>2026-04-19T15:02:16.999Z</time></trkpt><trkpt lat="43.50561803222715" lon="10.632277751069372"><ele>142.8</ele><time>2026-04-19T15:02:17.999Z</time></trkpt><trkpt lat="43.50571768137664" lon="10.632221182527502"><ele>141.4</ele><time>2026-04-19T15:02:18.999Z</time></trkpt><trkpt lat="43.5058230518096" lon="10.632178200421016"><ele>140.0</ele><time>2026-04-19T15:02:19.999Z</time></trkpt><trkpt lat="43.50594124697221" lon="10.632151531838588"><ele>140.0</ele><time>2026-04-19T15:02:20.999Z</time></trkpt><trkpt lat="43.50606804162286" lon="10.632135223162708"><ele>140.0</ele><time>2026-04-19T15:02:21.999Z</time></trkpt><trkpt lat="43.506198332009596" lon="10.632140134937387"><ele>140.0</ele><time>2026-04-19T15:02:22.999Z</time></trkpt><trkpt lat="43.50633906835603" lon="10.632143375511799"><ele>140.0</ele><time>2026-04-19T15:02:23.999Z</time></trkpt><trkpt lat="43.50648180744876" lon="10.632176345409981"><ele>140.0</ele><time>2026-04-19T15:02:24.999Z</time></trkpt><trkpt lat="43.50663630370619" lon="10.632233753165645"><ele>140.0</ele><time>2026-04-19T15:02:25.999Z</time></trkpt><trkpt lat="43.50679658302433" lon="10.632253385503047"><ele>140.0</ele><time>2026-04-19T15:02:26.999Z</time></trkpt><trkpt lat="43.50694657330072" lon="10.632297383284389"><ele>143.66666666666666</ele><time>2026-04-19T15:02:27.999Z</time></trkpt><trkpt lat="43.507088960255395" lon="10.632365108725766"><ele>147.33333333333334</ele><time>2026-04-19T15:02:28.999Z</time></trkpt><trkpt lat="43.50721964859653" lon="10.632462188689427"><ele>151.0</ele><time>2026-04-19T15:02:30Z</time></trkpt><trkpt lat="43.507341196906" lon="10.632588456400365"><ele>151.0</ele><time>2026-04-19T15:02:31Z</time></trkpt><trkpt lat="43.507453943684276" lon="10.632733561938608"><ele>151.0</ele><time>2026-04-19T15:02:32Z</time></trkpt><trkpt lat="43.507530329527654" lon="10.63290899254818"><ele>151.0</ele><time>2026-04-19T15:02:33Z</time></trkpt><trkpt lat="43.50757832021675" lon="10.633092062859054"><ele>151.0</ele><time>2026-04-19T15:02:34Z</time></trkpt><trkpt lat="43.50761374499412" lon="10.633245978506537"><ele>149.4</ele><time>2026-04-19T15:02:35Z</time></trkpt><trkpt lat="43.50767168534319" lon="10.633368027680067"><ele>147.8</ele><time>2026-04-19T15:02:36Z</time></trkpt><trkpt lat="43.507762429747515" lon="10.63344263550698"><ele>146.20000000000002</ele><time>2026-04-19T15:02:37Z</time></trkpt><trkpt lat="43.50786721023828" lon="10.633440384255174"><ele>144.6</ele><time>2026-04-19T15:02:38Z</time></trkpt><trkpt lat="43.50796267739704" lon="10.633361579065127"><ele>143.0</ele><time>2026-04-19T15:02:39Z</time></trkpt><trkpt lat="43.50806027282408" lon="10.63325958486124"><ele>143.0</ele><time>2026-04-19T15:02:40Z</time></trkpt><trkpt lat="43.50815377125241" lon="10.633185099069"><ele>143.0</ele><time>2026-04-19T15:02:41Z</time></trkpt><trkpt lat="43.50824371938606" lon="10.633157046666208"><ele>143.0</ele><time>2026-04-19T15:02:42Z</time></trkpt><trkpt lat="43.50833625659203" lon="10.633177572191169"><ele>143.0</ele><time>2026-04-19T15:02:43Z</time></trkpt><trkpt lat="43.50842658110976" lon="10.633234375022719"><ele>143.0</ele><time>2026-04-19T15:02:44Z</time></trkpt><trkpt lat="43.50848233105777" lon="10.633369830861335"><ele>143.0</ele><time>2026-04-19T15:02:45Z</time></trkpt><trkpt lat="43.50852727495171" lon="10.633504961000105"><ele>143.0</ele><time>2026-04-19T15:02:46Z</time></trkpt><trkpt lat="43.50859491634846" lon="10.63362615076803"><ele>143.0</ele><time>2026-04-19T15:02:47Z</time></trkpt><trkpt lat="43.508662273572874" lon="10.633756766116619"><ele>143.0</ele><time>2026-04-19T15:02:48Z</time></trkpt><trkpt lat="43.5087372825318" lon="10.633880478295467"><ele>143.0</ele><time>2026-04-19T15:02:49Z</time></trkpt><trkpt lat="43.50882515898559" lon="10.633992371673076"><ele>143.0</ele><time>2026-04-19T15:02:50Z</time></trkpt><trkpt lat="43.50892034943881" lon="10.634095731637464"><ele>143.0</ele><time>2026-04-19T15:02:51Z</time></trkpt><trkpt lat="43.5090214565328" lon="10.634194526854964"><ele>143.0</ele><time>2026-04-19T15:02:52Z</time></trkpt><trkpt lat="43.509123995367375" lon="10.63429222739137"><ele>143.0</ele><time>2026-04-19T15:02:53Z</time></trkpt><trkpt lat="43.509228038805766" lon="10.634393869503262"><ele>143.0</ele><time>2026-04-19T15:02:54Z</time></trkpt><trkpt lat="43.50933309171641" lon="10.634500967630293"><ele>143.0</ele><time>2026-04-19T15:02:55Z</time></trkpt><trkpt lat="43.50943866822556" lon="10.634610897946532"><ele>143.0</ele><time>2026-04-19T15:02:56Z</time></trkpt><trkpt lat="43.509546773528164" lon="10.63471986334976"><ele>142.0</ele><time>2026-04-19T15:02:57Z</time></trkpt><trkpt lat="43.50965796549734" lon="10.634822465744373"><ele>141.0</ele><time>2026-04-19T15:02:58Z</time></trkpt><trkpt lat="43.5097798279951" lon="10.63490841398836"><ele>140.0</ele><time>2026-04-19T15:02:59Z</time></trkpt><trkpt lat="43.509899734869045" lon="10.634990685023393"><ele>139.0</ele><time>2026-04-19T15:03:00Z</time></trkpt><trkpt lat="43.5100226867153" lon="10.635068777622765"><ele>139.0</ele><time>2026-04-19T15:03:01Z</time></trkpt><trkpt lat="43.510148880770124" lon="10.635143954706725"><ele>139.0</ele><time>2026-04-19T15:03:02Z</time></trkpt><trkpt lat="43.51027899329743" lon="10.635204183844348"><ele>139.0</ele><time>2026-04-19T15:03:03Z</time></trkpt><trkpt lat="43.51041499869392" lon="10.63524678459107"><ele>139.0</ele><time>2026-04-19T15:03:04Z</time></trkpt><trkpt lat="43.51054897981044" lon="10.63528346268785"><ele>139.0</ele><time>2026-04-19T15:03:05Z</time></trkpt><trkpt lat="43.51067905558461" lon="10.635309498609962"><ele>139.0</ele><time>2026-04-19T15:03:06Z</time></trkpt><trkpt lat="43.51081119840807" lon="10.635311120187454"><ele>139.0</ele><time>2026-04-19T15:03:07Z</time></trkpt><trkpt lat="43.51094234381211" lon="10.63527215005367"><ele>139.0</ele><time>2026-04-19T15:03:08Z</time></trkpt><trkpt lat="43.51106673404695" lon="10.635190506696505"><ele>138.75</ele><time>2026-04-19T15:03:09Z</time></trkpt><trkpt lat="43.511192706487854" lon="10.635116388527015"><ele>138.5</ele><time>2026-04-19T15:03:10Z</time></trkpt><trkpt lat="43.51131620454393" lon="10.63504822094725"><ele>138.25</ele><time>2026-04-19T15:03:11Z</time></trkpt><trkpt lat="43.51143908843721" lon="10.634986037427172"><ele>138.0</ele><time>2026-04-19T15:03:12Z</time></trkpt><trkpt lat="43.51155340384437" lon="10.634922209272533"><ele>138.0</ele><time>2026-04-19T15:03:13Z</time></trkpt><trkpt lat="43.511651870593184" lon="10.63482051811024"><ele>138.0</ele><time>2026-04-19T15:03:14Z</time></trkpt><trkpt lat="43.511725927744905" lon="10.6346866232237"><ele>138.0</ele><time>2026-04-19T15:03:15Z</time></trkpt><trkpt lat="43.51177309164104" lon="10.634534207835857"><ele>138.0</ele><time>2026-04-19T15:03:16Z</time></trkpt><trkpt lat="43.51177467563066" lon="10.634369246534416"><ele>137.25</ele><time>2026-04-19T15:03:17Z</time></trkpt><trkpt lat="43.51173164116202" lon="10.63420475802471"><ele>136.5</ele><time>2026-04-19T15:03:18Z</time></trkpt><trkpt lat="43.51166046344541" lon="10.634046837459046"><ele>135.75</ele><time>2026-04-19T15:03:19Z</time></trkpt><trkpt lat="43.511574239562535" lon="10.633890543781712"><ele>135.0</ele><time>2026-04-19T15:03:20Z</time></trkpt><trkpt lat="43.51148810192606" lon="10.633734838132707"><ele>133.25</ele><time>2026-04-19T15:03:21Z</time></trkpt><trkpt lat="43.51140481382418" lon="10.633587445019304"><ele>131.5</ele><time>2026-04-19T15:03:22Z</time></trkpt><trkpt lat="43.511329437474444" lon="10.633442638653678"><ele>129.75</ele><time>2026-04-19T15:03:23Z</time></trkpt><trkpt lat="43.51127626843681" lon="10.633292597810497"><ele>128.0</ele><time>2026-04-19T15:03:24Z</time></trkpt><trkpt lat="43.51123665795449" lon="10.63314213929825"><ele>128.0</ele><time>2026-04-19T15:03:25Z</time></trkpt><trkpt lat="43.51122566458478" lon="10.632991870640216"><ele>128.0</ele><time>2026-04-19T15:03:26Z</time></trkpt><trkpt lat="43.51123983190238" lon="10.63284425104735"><ele>128.0</ele><time>2026-04-19T15:03:27Z</time></trkpt><trkpt lat="43.51128294610404" lon="10.632706516565799"><ele>128.0</ele><time>2026-04-19T15:03:28Z</time></trkpt><trkpt lat="43.511361260538166" lon="10.632592041917688"><ele>128.0</ele><time>2026-04-19T15:03:29Z</time></trkpt><trkpt lat="43.51146552321111" lon="10.632520520868482"><ele>128.0</ele><time>2026-04-19T15:03:30Z</time></trkpt><trkpt lat="43.51157570590749" lon="10.632437058464715"><ele>128.0</ele><time>2026-04-19T15:03:31Z</time></trkpt><trkpt lat="43.51168798327794" lon="10.632336548562172"><ele>128.0</ele><time>2026-04-19T15:03:32Z</time></trkpt><trkpt lat="43.511794390524" lon="10.632220943181041"><ele>128.0</ele><time>2026-04-19T15:03:33Z</time></trkpt><trkpt lat="43.51190242161874" lon="10.632095686391919"><ele>128.0</ele><time>2026-04-19T15:03:34Z</time></trkpt><trkpt lat="43.51200530288677" lon="10.63197836474699"><ele>128.0</ele><time>2026-04-19T15:03:35Z</time></trkpt><trkpt lat="43.51212769301625" lon="10.63191482341892"><ele>128.0</ele><time>2026-04-19T15:03:36Z</time></trkpt><trkpt lat="43.51223668963576" lon="10.631814198808094"><ele>128.0</ele><time>2026-04-19T15:03:37Z</time></trkpt><trkpt lat="43.512348811527154" lon="10.631735004185956"><ele>128.75</ele><time>2026-04-19T15:03:38Z</time></trkpt><trkpt lat="43.512462936767676" lon="10.631681610186687"><ele>129.5</ele><time>2026-04-19T15:03:39Z</time></trkpt><trkpt lat="43.51256493023054" lon="10.631604905410814"><ele>130.25</ele><time>2026-04-19T15:03:40Z</time></trkpt><trkpt lat="43.512681207271854" lon="10.631607644566644"><ele>131.0</ele><time>2026-04-19T15:03:41Z</time></trkpt><trkpt lat="43.51279099596048" lon="10.63167692301877"><ele>131.0</ele><time>2026-04-19T15:03:42Z</time></trkpt><trkpt lat="43.51285908399822" lon="10.631816365352423"><ele>131.0</ele><time>2026-04-19T15:03:43Z</time></trkpt><trkpt lat="43.51294661181095" lon="10.631904985537341"><ele>131.0</ele><time>2026-04-19T15:03:44Z</time></trkpt><trkpt lat="43.51305210128229" lon="10.631961347841003"><ele>131.0</ele><time>2026-04-19T15:03:45Z</time></trkpt><trkpt lat="43.51317025036106" lon="10.63196212734591"><ele>131.75</ele><time>2026-04-19T15:03:46Z</time></trkpt><trkpt lat="43.51328553601131" lon="10.63190518238767"><ele>132.5</ele><time>2026-04-19T15:03:47Z</time></trkpt><trkpt lat="43.513393329194166" lon="10.631830918799976"><ele>133.25</ele><time>2026-04-19T15:03:48Z</time></trkpt><trkpt lat="43.51349028995426" lon="10.631715353923438"><ele>134.0</ele><time>2026-04-19T15:03:49Z</time></trkpt><trkpt lat="43.51359690127402" lon="10.63160531175964"><ele>134.0</ele><time>2026-04-19T15:03:50Z</time></trkpt><trkpt lat="43.513699323692904" lon="10.63147766794059"><ele>134.0</ele><time>2026-04-19T15:03:51Z</time></trkpt><trkpt lat="43.513825131368066" lon="10.631379702567465"><ele>134.0</ele><time>2026-04-19T15:03:52Z</time></trkpt><trkpt lat="43.51395698381295" lon="10.631287946617032"><ele>134.0</ele><time>2026-04-19T15:03:53Z</time></trkpt><trkpt lat="43.51408304465331" lon="10.631210882482367"><ele>133.5</ele><time>2026-04-19T15:03:54Z</time></trkpt><trkpt lat="43.51421214566474" lon="10.63115294443092"><ele>133.0</ele><time>2026-04-19T15:03:55Z</time></trkpt><trkpt lat="43.51434718189509" lon="10.631135173046887"><ele>132.5</ele><time>2026-04-19T15:03:56Z</time></trkpt><trkpt lat="43.51447035478854" lon="10.631160627139549"><ele>132.0</ele><time>2026-04-19T15:03:57Z</time></trkpt><trkpt lat="43.514587374405814" lon="10.631217043336969"><ele>133.75</ele><time>2026-04-19T15:03:58Z</time></trkpt><trkpt lat="43.514705153224625" lon="10.631297183355946"><ele>135.5</ele><time>2026-04-19T15:03:59Z</time></trkpt><trkpt lat="43.51482283506297" lon="10.631375376882195"><ele>137.25</ele><time>2026-04-19T15:04:00Z</time></trkpt><trkpt lat="43.514948592087876" lon="10.631437905329543"><ele>139.0</ele><time>2026-04-19T15:04:01Z</time></trkpt><trkpt lat="43.51506463604802" lon="10.631458159978067"><ele>139.0</ele><time>2026-04-19T15:04:02Z</time></trkpt><trkpt lat="43.5151666647018" lon="10.631402186530917"><ele>139.0</ele><time>2026-04-19T15:04:02.997Z</time></trkpt><trkpt lat="43.51523864936079" lon="10.631286794502318"><ele>139.0</ele><time>2026-04-19T15:04:03.997Z</time></trkpt><trkpt lat="43.51527449987293" lon="10.631144656311807"><ele>139.0</ele><time>2026-04-19T15:04:04.997Z</time></trkpt><trkpt lat="43.51526566818565" lon="10.6309927832706"><ele>139.0</ele><time>2026-04-19T15:04:05.997Z</time></trkpt><trkpt lat="43.51521114393604" lon="10.630853732744482"><ele>140.0</ele><time>2026-04-19T15:04:06.997Z</time></trkpt><trkpt lat="43.515165866014534" lon="10.630713021516334"><ele>141.0</ele><time>2026-04-19T15:04:07.997Z</time></trkpt><trkpt lat="43.515137871046896" lon="10.630559986430827"><ele>142.0</ele><time>2026-04-19T15:04:08.997Z</time></trkpt><trkpt lat="43.51513752119287" lon="10.630394587905286"><ele>143.0</ele><time>2026-04-19T15:04:09.997Z</time></trkpt><trkpt lat="43.51516722334474" lon="10.630241178627566"><ele>143.8</ele><time>2026-04-19T15:04:10.997Z</time></trkpt><trkpt lat="43.51523408007279" lon="10.630126183098213"><ele>144.60000000000002</ele><time>2026-04-19T15:04:11.997Z</time></trkpt><trkpt lat="43.515333413072014" lon="10.630091946795039"><ele>145.39999999999998</ele><time>2026-04-19T15:04:12.997Z</time></trkpt><trkpt lat="43.51542945108225" lon="10.63008906956817"><ele>146.2</ele><time>2026-04-19T15:04:13.998Z</time></trkpt><trkpt lat="43.51552947695726" lon="10.630086938639845"><ele>147.0</ele><time>2026-04-19T15:04:14.998Z</time></trkpt><trkpt lat="43.51563049335967" lon="10.630100189577421"><ele>147.0</ele><time>2026-04-19T15:04:15.998Z</time></trkpt><trkpt lat="43.51573444071044" lon="10.630097138510527"><ele>147.0</ele><time>2026-04-19T15:04:16.998Z</time></trkpt><trkpt lat="43.515833647794835" lon="10.630035531749217"><ele>147.0</ele><time>2026-04-19T15:04:17.998Z</time></trkpt><trkpt lat="43.51591690674111" lon="10.629928017300438"><ele>147.0</ele><time>2026-04-19T15:04:18.998Z</time></trkpt><trkpt lat="43.51599220147154" lon="10.629807752278932"><ele>147.0</ele><time>2026-04-19T15:04:19.998Z</time></trkpt><trkpt lat="43.5160726760921" lon="10.62968439992065"><ele>147.0</ele><time>2026-04-19T15:04:20.998Z</time></trkpt><trkpt lat="43.516151538998315" lon="10.62955409641663"><ele>147.0</ele><time>2026-04-19T15:04:21.998Z</time></trkpt><trkpt lat="43.516203061470115" lon="10.629409199016187"><ele>147.0</ele><time>2026-04-19T15:04:22.998Z</time></trkpt><trkpt lat="43.51621292659493" lon="10.629245708269867"><ele>147.0</ele><time>2026-04-19T15:04:23.998Z</time></trkpt><trkpt lat="43.51620227709809" lon="10.629076376689103"><ele>149.25</ele><time>2026-04-19T15:04:24.998Z</time></trkpt><trkpt lat="43.51622224110325" lon="10.628914075340125"><ele>151.5</ele><time>2026-04-19T15:04:25.998Z</time></trkpt><trkpt lat="43.51623376593475" lon="10.628754356064766"><ele>153.75</ele><time>2026-04-19T15:04:26.998Z</time></trkpt><trkpt lat="43.51629877317913" lon="10.62861228336318"><ele>156.0</ele><time>2026-04-19T15:04:27.998Z</time></trkpt><trkpt lat="43.516398448331785" lon="10.628508344414046"><ele>156.0</ele><time>2026-04-19T15:04:28.998Z</time></trkpt><trkpt lat="43.516490134948775" lon="10.628383233600239"><ele>156.0</ele><time>2026-04-19T15:04:29.998Z</time></trkpt><trkpt lat="43.5166023043542" lon="10.6282818361952"><ele>156.0</ele><time>2026-04-19T15:04:30.998Z</time></trkpt><trkpt lat="43.516722553336386" lon="10.62818700543172"><ele>156.0</ele><time>2026-04-19T15:04:31.998Z</time></trkpt><trkpt lat="43.516838674981734" lon="10.628102906827056"><ele>156.0</ele><time>2026-04-19T15:04:32.998Z</time></trkpt><trkpt lat="43.51694847476908" lon="10.628028020698565"><ele>156.0</ele><time>2026-04-19T15:04:33.998Z</time></trkpt><trkpt lat="43.517055776060154" lon="10.62795372188548"><ele>156.0</ele><time>2026-04-19T15:04:34.999Z</time></trkpt><trkpt lat="43.51716181696221" lon="10.627875421811636"><ele>156.0</ele><time>2026-04-19T15:04:35.999Z</time></trkpt><trkpt lat="43.51726210161557" lon="10.627776452120326"><ele>156.75</ele><time>2026-04-19T15:04:36.999Z</time></trkpt><trkpt lat="43.51735006721102" lon="10.627651498509726"><ele>157.5</ele><time>2026-04-19T15:04:37.999Z</time></trkpt><trkpt lat="43.51743244443144" lon="10.627522336553628"><ele>158.25</ele><time>2026-04-19T15:04:38.999Z</time></trkpt><trkpt lat="43.51749647828963" lon="10.627387199384634"><ele>159.0</ele><time>2026-04-19T15:04:39.999Z</time></trkpt><trkpt lat="43.51755672461688" lon="10.627248348032557"><ele>159.0</ele><time>2026-04-19T15:04:40.999Z</time></trkpt><trkpt lat="43.51765033973793" lon="10.627147840340932"><ele>159.0</ele><time>2026-04-19T15:04:41.999Z</time></trkpt><trkpt lat="43.51775989928753" lon="10.627082949041606"><ele>159.0</ele><time>2026-04-19T15:04:42.999Z</time></trkpt><trkpt lat="43.517871302860385" lon="10.627039451054273"><ele>159.0</ele><time>2026-04-19T15:04:43.999Z</time></trkpt><trkpt lat="43.51797337330453" lon="10.626977253526258"><ele>160.5</ele><time>2026-04-19T15:04:44.999Z</time></trkpt><trkpt lat="43.51806211465939" lon="10.626878124610927"><ele>162.0</ele><time>2026-04-19T15:04:45.999Z</time></trkpt><trkpt lat="43.51813269434268" lon="10.626748895046935"><ele>163.5</ele><time>2026-04-19T15:04:46.999Z</time></trkpt><trkpt lat="43.51820472193332" lon="10.626614713724278"><ele>165.0</ele><time>2026-04-19T15:04:47.999Z</time></trkpt><trkpt lat="43.51827890401266" lon="10.62647475956303"><ele>165.0</ele><time>2026-04-19T15:04:48.999Z</time></trkpt><trkpt lat="43.518354379374294" lon="10.62632786187471"><ele>165.0</ele><time>2026-04-19T15:04:49.999Z</time></trkpt><trkpt lat="43.51843074377625" lon="10.626180316862136"><ele>165.0</ele><time>2026-04-19T15:04:50.999Z</time></trkpt><trkpt lat="43.5185042024706" lon="10.626040755878519"><ele>165.0</ele><time>2026-04-19T15:04:51.999Z</time></trkpt><trkpt lat="43.51857745657577" lon="10.625904291890308"><ele>165.0</ele><time>2026-04-19T15:04:52.999Z</time></trkpt><trkpt lat="43.51865084657743" lon="10.62576690995525"><ele>165.0</ele><time>2026-04-19T15:04:53.999Z</time></trkpt><trkpt lat="43.518731061593854" lon="10.62563978273625"><ele>165.0</ele><time>2026-04-19T15:04:54.999Z</time></trkpt><trkpt lat="43.51881917098194" lon="10.62552143943752"><ele>165.0</ele><time>2026-04-19T15:04:55.999Z</time></trkpt><trkpt lat="43.518912631224815" lon="10.625407992234205"><ele>166.4</ele><time>2026-04-19T15:04:56.999Z</time></trkpt><trkpt lat="43.519008409706565" lon="10.625302339756157"><ele>167.8</ele><time>2026-04-19T15:04:57.999Z</time></trkpt><trkpt lat="43.51909485969755" lon="10.625207050670657"><ele>169.2</ele><time>2026-04-19T15:04:58.999Z</time></trkpt><trkpt lat="43.5191766656112" lon="10.625116423200318"><ele>170.6</ele><time>2026-04-19T15:04:59.999Z</time></trkpt><trkpt lat="43.51925443464576" lon="10.625037270161807"><ele>172.0</ele><time>2026-04-19T15:05:00.999Z</time></trkpt><trkpt lat="43.51932355766933" lon="10.624969097476193"><ele>172.0</ele><time>2026-04-19T15:05:01.999Z</time></trkpt><trkpt lat="43.519377311962955" lon="10.624912770836934"><ele>172.0</ele><time>2026-04-19T15:05:02.999Z</time></trkpt><trkpt lat="43.51946911147713" lon="10.624807972944927"><ele>172.0</ele><time>2026-04-19T15:05:04.999Z</time></trkpt><trkpt lat="43.51954081030504" lon="10.624739916966075"><ele>172.0</ele><time>2026-04-19T15:05:06.999Z</time></trkpt><trkpt lat="43.51937791058827" lon="10.624605624466785"><ele>172.0</ele><time>2026-04-19T15:05:08.999Z</time></trkpt><trkpt lat="43.519298300725566" lon="10.624576217651375"><ele>172.0</ele><time>2026-04-19T15:05:09.999Z</time></trkpt><trkpt lat="43.51920651913594" lon="10.624570152752272"><ele>172.0</ele><time>2026-04-19T15:05:10.999Z</time></trkpt><trkpt lat="43.51910101138635" lon="10.624557274655979"><ele>172.0</ele><time>2026-04-19T15:05:11.999Z</time></trkpt><trkpt lat="43.518988256119655" lon="10.624535906751829"><ele>172.0</ele><time>2026-04-19T15:05:12.999Z</time></trkpt><trkpt lat="43.518892302114516" lon="10.624511814528818"><ele>172.0</ele><time>2026-04-19T15:05:13.999Z</time></trkpt><trkpt lat="43.51878884465183" lon="10.624482976468768"><ele>172.0</ele><time>2026-04-19T15:05:14.999Z</time></trkpt><trkpt lat="43.51867801512064" lon="10.624454873613443"><ele>172.0</ele><time>2026-04-19T15:05:15.999Z</time></trkpt><trkpt lat="43.51855935379602" lon="10.624424914135501"><ele>172.0</ele><time>2026-04-19T15:05:16.999Z</time></trkpt><trkpt lat="43.51843483244227" lon="10.624391687624266"><ele>174.0</ele><time>2026-04-19T15:05:17.999Z</time></trkpt><trkpt lat="43.51830676614835" lon="10.62435732954798"><ele>176.0</ele><time>2026-04-19T15:05:18.999Z</time></trkpt><trkpt lat="43.518189677463695" lon="10.624327671873537"><ele>178.0</ele><time>2026-04-19T15:05:19.999Z</time></trkpt><trkpt lat="43.51807058490193" lon="10.624297876736696"><ele>180.0</ele><time>2026-04-19T15:05:20.999Z</time></trkpt><trkpt lat="43.51795227768005" lon="10.624269361178067"><ele>183.0</ele><time>2026-04-19T15:05:21.999Z</time></trkpt><trkpt lat="43.51783401266163" lon="10.624239541078378"><ele>186.0</ele><time>2026-04-19T15:05:22.999Z</time></trkpt><trkpt lat="43.517718555525626" lon="10.624209927273597"><ele>189.0</ele><time>2026-04-19T15:05:23.999Z</time></trkpt><trkpt lat="43.517609770004775" lon="10.624183388572309"><ele>192.0</ele><time>2026-04-19T15:05:24.999Z</time></trkpt><trkpt lat="43.517502636561396" lon="10.624159975952432"><ele>192.0</ele><time>2026-04-19T15:05:25.999Z</time></trkpt><trkpt lat="43.51739706193674" lon="10.624131780557908"><ele>192.0</ele><time>2026-04-19T15:05:26.999Z</time></trkpt><trkpt lat="43.51729614848746" lon="10.624082339076132"><ele>192.0</ele><time>2026-04-19T15:05:27.999Z</time></trkpt><trkpt lat="43.51719665889894" lon="10.624027680290373"><ele>192.0</ele><time>2026-04-19T15:05:28.999Z</time></trkpt><trkpt lat="43.5171070832091" lon="10.623952547257593"><ele>192.0</ele><time>2026-04-19T15:05:29.999Z</time></trkpt><trkpt lat="43.5170303603026" lon="10.623854946081337"><ele>193.8</ele><time>2026-04-19T15:05:30.999Z</time></trkpt><trkpt lat="43.516979494496574" lon="10.623731423773206"><ele>195.6</ele><time>2026-04-19T15:05:31.999Z</time></trkpt><trkpt lat="43.516949694263616" lon="10.623594378931525"><ele>197.4</ele><time>2026-04-19T15:05:32.999Z</time></trkpt><trkpt lat="43.51692049414813" lon="10.623470994863565"><ele>199.20000000000002</ele><time>2026-04-19T15:05:33.999Z</time></trkpt><trkpt lat="43.516890805434564" lon="10.623352719484265"><ele>201.0</ele><time>2026-04-19T15:05:34.999Z</time></trkpt><trkpt lat="43.51685744543474" lon="10.623236859666198"><ele>201.20000000000002</ele><time>2026-04-19T15:05:35.999Z</time></trkpt><trkpt lat="43.51682296137489" lon="10.623117939466987"><ele>201.4</ele><time>2026-04-19T15:05:36.999Z</time></trkpt><trkpt lat="43.51677751696843" lon="10.622996559866671"><ele>201.6</ele><time>2026-04-19T15:05:37.999Z</time></trkpt><trkpt lat="43.51672337129137" lon="10.622870075844917"><ele>201.8</ele><time>2026-04-19T15:05:38.999Z</time></trkpt><trkpt lat="43.51666213490739" lon="10.622738439985158"><ele>202.0</ele><time>2026-04-19T15:05:39.999Z</time></trkpt><trkpt lat="43.516595856460526" lon="10.622626883789232"><ele>202.25</ele><time>2026-04-19T15:05:40.999Z</time></trkpt><trkpt lat="43.516517635146094" lon="10.6225236143593"><ele>202.5</ele><time>2026-04-19T15:05:41.999Z</time></trkpt><trkpt lat="43.51642884545813" lon="10.62242978117245"><ele>202.75</ele><time>2026-04-19T15:05:42.999Z</time></trkpt><trkpt lat="43.516330289597164" lon="10.622345852456512"><ele>203.0</ele><time>2026-04-19T15:05:43.999Z</time></trkpt><trkpt lat="43.5162217211862" lon="10.622273690978478"><ele>204.25</ele><time>2026-04-19T15:05:44.999Z</time></trkpt><trkpt lat="43.516101611134125" lon="10.622221025612944"><ele>205.5</ele><time>2026-04-19T15:05:45.999Z</time></trkpt><trkpt lat="43.51597380983846" lon="10.62219285788668"><ele>206.75</ele><time>2026-04-19T15:05:46.999Z</time></trkpt><trkpt lat="43.51584168604792" lon="10.622188818956417"><ele>208.0</ele><time>2026-04-19T15:05:47.999Z</time></trkpt><trkpt lat="43.515708653237034" lon="10.622188391878284"><ele>208.0</ele><time>2026-04-19T15:05:48.999Z</time></trkpt><trkpt lat="43.51558264303657" lon="10.622192098333173"><ele>208.0</ele><time>2026-04-19T15:05:49.999Z</time></trkpt><trkpt lat="43.51546047438636" lon="10.622190585262727"><ele>208.0</ele><time>2026-04-19T15:05:50.999Z</time></trkpt><trkpt lat="43.51533642170909" lon="10.622183736771172"><ele>208.0</ele><time>2026-04-19T15:05:51.999Z</time></trkpt><trkpt lat="43.51521002546495" lon="10.622176117808328"><ele>209.5</ele><time>2026-04-19T15:05:52.999Z</time></trkpt><trkpt lat="43.51508157773028" lon="10.622163679894555"><ele>211.0</ele><time>2026-04-19T15:05:53.999Z</time></trkpt><trkpt lat="43.51495012472524" lon="10.62213976158938"><ele>212.5</ele><time>2026-04-19T15:05:54.999Z</time></trkpt><trkpt lat="43.5148164163734" lon="10.622109377501006"><ele>214.0</ele><time>2026-04-19T15:05:55.999Z</time></trkpt><trkpt lat="43.51467995950249" lon="10.622074825758391"><ele>214.5</ele><time>2026-04-19T15:05:56.999Z</time></trkpt><trkpt lat="43.51455361463431" lon="10.622021111729516"><ele>215.0</ele><time>2026-04-19T15:05:58Z</time></trkpt><trkpt lat="43.514432595866886" lon="10.62195376824301"><ele>215.5</ele><time>2026-04-19T15:05:59Z</time></trkpt><trkpt lat="43.51431450371117" lon="10.621867961206403"><ele>216.0</ele><time>2026-04-19T15:06:00Z</time></trkpt><trkpt lat="43.51419576434642" lon="10.621778113051677"><ele>217.75</ele><time>2026-04-19T15:06:01Z</time></trkpt><trkpt lat="43.51407263609646" lon="10.621696169498541"><ele>219.5</ele><time>2026-04-19T15:06:02Z</time></trkpt><trkpt lat="43.513944167933495" lon="10.6216254136962"><ele>221.25</ele><time>2026-04-19T15:06:03Z</time></trkpt><trkpt lat="43.51381385131602" lon="10.621588248208944"><ele>223.0</ele><time>2026-04-19T15:06:04Z</time></trkpt><trkpt lat="43.51369481940096" lon="10.621553015002734"><ele>223.60000000000002</ele><time>2026-04-19T15:06:05Z</time></trkpt><trkpt lat="43.5135866154336" lon="10.621514718637071"><ele>224.20000000000002</ele><time>2026-04-19T15:06:06Z</time></trkpt><trkpt lat="43.51350904914492" lon="10.621426591145193"><ele>224.8</ele><time>2026-04-19T15:06:07Z</time></trkpt><trkpt lat="43.513454594256174" lon="10.621306580604838"><ele>225.4</ele><time>2026-04-19T15:06:08Z</time></trkpt><trkpt lat="43.51344935391809" lon="10.621174025685955"><ele>226.0</ele><time>2026-04-19T15:06:08.997Z</time></trkpt><trkpt lat="43.51350470718723" lon="10.621061906661081"><ele>226.60000000000002</ele><time>2026-04-19T15:06:09.997Z</time></trkpt><trkpt lat="43.51357038262537" lon="10.620969337763519"><ele>227.20000000000002</ele><time>2026-04-19T15:06:10.997Z</time></trkpt><trkpt lat="43.51363359955308" lon="10.620850650102573"><ele>227.79999999999998</ele><time>2026-04-19T15:06:11.997Z</time></trkpt><trkpt lat="43.51371883600651" lon="10.6207440914502"><ele>228.39999999999998</ele><time>2026-04-19T15:06:12.997Z</time></trkpt><trkpt lat="43.51380318953462" lon="10.620637914789356"><ele>229.0</ele><time>2026-04-19T15:06:13.997Z</time></trkpt><trkpt lat="43.51387726186582" lon="10.620532487325141"><ele>229.0</ele><time>2026-04-19T15:06:14.997Z</time></trkpt><trkpt lat="43.513951284727554" lon="10.620418411610443"><ele>229.0</ele><time>2026-04-19T15:06:15.997Z</time></trkpt><trkpt lat="43.51403507271877" lon="10.620311636170348"><ele>229.0</ele><time>2026-04-19T15:06:16.997Z</time></trkpt><trkpt lat="43.514069621988455" lon="10.620151308608847"><ele>229.0</ele><time>2026-04-19T15:06:17.997Z</time></trkpt><trkpt lat="43.514102035607245" lon="10.619995985437544"><ele>230.39999999999998</ele><time>2026-04-19T15:06:18.997Z</time></trkpt><trkpt lat="43.51411204401792" lon="10.619844980285608"><ele>231.79999999999998</ele><time>2026-04-19T15:06:19.997Z</time></trkpt><trkpt lat="43.514066616327" lon="10.619716037663666"><ele>233.20000000000002</ele><time>2026-04-19T15:06:20.997Z</time></trkpt><trkpt lat="43.513965804310146" lon="10.619643795680783"><ele>234.60000000000002</ele><time>2026-04-19T15:06:21.997Z</time></trkpt><trkpt lat="43.51387166162237" lon="10.6195916529862"><ele>236.0</ele><time>2026-04-19T15:06:22.997Z</time></trkpt><trkpt lat="43.513769993582024" lon="10.619554832901017"><ele>237.5</ele><time>2026-04-19T15:06:23.998Z</time></trkpt><trkpt lat="43.51366674629797" lon="10.619507954511137"><ele>239.0</ele><time>2026-04-19T15:06:24.998Z</time></trkpt><trkpt lat="43.513560260109664" lon="10.619459477540813"><ele>240.5</ele><time>2026-04-19T15:06:25.998Z</time></trkpt><trkpt lat="43.513451993874774" lon="10.61941178286824"><ele>242.0</ele><time>2026-04-19T15:06:26.998Z</time></trkpt><trkpt lat="43.51334047507215" lon="10.619358423014068"><ele>243.0</ele><time>2026-04-19T15:06:27.998Z</time></trkpt><trkpt lat="43.51322588409457" lon="10.619301450459535"><ele>244.0</ele><time>2026-04-19T15:06:28.998Z</time></trkpt><trkpt lat="43.5131076535815" lon="10.619246339838023"><ele>245.0</ele><time>2026-04-19T15:06:29.998Z</time></trkpt><trkpt lat="43.51298606330651" lon="10.61919180644603"><ele>246.0</ele><time>2026-04-19T15:06:30.998Z</time></trkpt><trkpt lat="43.51287913810734" lon="10.619120614989026"><ele>248.25</ele><time>2026-04-19T15:06:31.998Z</time></trkpt><trkpt lat="43.51276399237749" lon="10.61906454606666"><ele>250.5</ele><time>2026-04-19T15:06:32.998Z</time></trkpt><trkpt lat="43.512643885533926" lon="10.619028031111217"><ele>252.75</ele><time>2026-04-19T15:06:33.998Z</time></trkpt><trkpt lat="43.512528759819645" lon="10.618967695638025"><ele>255.0</ele><time>2026-04-19T15:06:34.998Z</time></trkpt><trkpt lat="43.512416146024826" lon="10.618912451345512"><ele>255.0</ele><time>2026-04-19T15:06:35.998Z</time></trkpt><trkpt lat="43.51230845270586" lon="10.618859542369883"><ele>255.0</ele><time>2026-04-19T15:06:36.998Z</time></trkpt><trkpt lat="43.5122059310224" lon="10.618794951641865"><ele>255.0</ele><time>2026-04-19T15:06:37.998Z</time></trkpt><trkpt lat="43.51211944099969" lon="10.618694998989103"><ele>255.0</ele><time>2026-04-19T15:06:38.998Z</time></trkpt><trkpt lat="43.512014844908" lon="10.61862529651539"><ele>257.25</ele><time>2026-04-19T15:06:39.999Z</time></trkpt><trkpt lat="43.51192580943656" lon="10.618524767561436"><ele>259.5</ele><time>2026-04-19T15:06:40.999Z</time></trkpt><trkpt lat="43.511830472833886" lon="10.618435432162206"><ele>261.75</ele><time>2026-04-19T15:06:41.999Z</time></trkpt><trkpt lat="43.51172327422502" lon="10.61836940938693"><ele>264.0</ele><time>2026-04-19T15:06:42.999Z</time></trkpt><trkpt lat="43.511608406813494" lon="10.618325053624831"><ele>264.0</ele><time>2026-04-19T15:06:43.999Z</time></trkpt><trkpt lat="43.51149367442409" lon="10.618290139824813"><ele>264.0</ele><time>2026-04-19T15:06:44.999Z</time></trkpt><trkpt lat="43.511376256249534" lon="10.61825563860346"><ele>264.0</ele><time>2026-04-19T15:06:45.999Z</time></trkpt><trkpt lat="43.51125895122401" lon="10.618227726518526"><ele>264.0</ele><time>2026-04-19T15:06:46.999Z</time></trkpt><trkpt lat="43.51114069253095" lon="10.61820064880615"><ele>266.25</ele><time>2026-04-19T15:06:47.999Z</time></trkpt><trkpt lat="43.51102065368558" lon="10.618177210840754"><ele>268.5</ele><time>2026-04-19T15:06:48.999Z</time></trkpt><trkpt lat="43.51090338382634" lon="10.618160572343948"><ele>270.75</ele><time>2026-04-19T15:06:49.999Z</time></trkpt><trkpt lat="43.510790280082226" lon="10.618165012204855"><ele>273.0</ele><time>2026-04-19T15:06:50.999Z</time></trkpt><trkpt lat="43.51069253344148" lon="10.618179811084248"><ele>273.0</ele><time>2026-04-19T15:06:51.999Z</time></trkpt><trkpt lat="43.51060354614699" lon="10.618225592706983"><ele>273.0</ele><time>2026-04-19T15:06:52.999Z</time></trkpt><trkpt lat="43.510529929987946" lon="10.618286185583552"><ele>273.0</ele><time>2026-04-19T15:06:53.999Z</time></trkpt><trkpt lat="43.51045882028481" lon="10.618361477839255"><ele>273.0</ele><time>2026-04-19T15:06:54.999Z</time></trkpt><trkpt lat="43.51038058582305" lon="10.618439869726446"><ele>273.0</ele><time>2026-04-19T15:06:55.999Z</time></trkpt><trkpt lat="43.51030185622337" lon="10.618505780299373"><ele>274.6666666666667</ele><time>2026-04-19T15:06:56.999Z</time></trkpt><trkpt lat="43.51022680374237" lon="10.618554181420464"><ele>276.3333333333333</ele><time>2026-04-19T15:06:57.999Z</time></trkpt><trkpt lat="43.510154705026665" lon="10.618569914284201"><ele>278.0</ele><time>2026-04-19T15:06:58.999Z</time></trkpt><trkpt lat="43.51009019963163" lon="10.618559502537302"><ele>279.66666666666663</ele><time>2026-04-19T15:06:59.999Z</time></trkpt><trkpt lat="43.50999480046882" lon="10.618435218630163"><ele>281.3333333333333</ele><time>2026-04-19T15:07:01.999Z</time></trkpt><trkpt lat="43.50998089609419" lon="10.61832733468679"><ele>283.0</ele><time>2026-04-19T15:07:02.999Z</time></trkpt><trkpt lat="43.50994853114898" lon="10.61822194393259"><ele>283.0</ele><time>2026-04-19T15:07:03.999Z</time></trkpt><trkpt lat="43.50991883907126" lon="10.618126859595048"><ele>283.0</ele><time>2026-04-19T15:07:04.999Z</time></trkpt><trkpt lat="43.5098651896089" lon="10.618031064179469"><ele>283.0</ele><time>2026-04-19T15:07:05.999Z</time></trkpt><trkpt lat="43.50983079508455" lon="10.61791084171072"><ele>283.0</ele><time>2026-04-19T15:07:06.999Z</time></trkpt><trkpt lat="43.509779490756046" lon="10.61779393026899"><ele>283.0</ele><time>2026-04-19T15:07:07.999Z</time></trkpt><trkpt lat="43.50971658640664" lon="10.617675585927616"><ele>283.6</ele><time>2026-04-19T15:07:08.999Z</time></trkpt><trkpt lat="43.50965485836964" lon="10.617556092908657"><ele>284.20000000000005</ele><time>2026-04-19T15:07:09.999Z</time></trkpt><trkpt lat="43.509592194027185" lon="10.617436481487841"><ele>284.8</ele><time>2026-04-19T15:07:10.999Z</time></trkpt><trkpt lat="43.50952753819895" lon="10.617318657113566"><ele>285.40000000000003</ele><time>2026-04-19T15:07:11.999Z</time></trkpt><trkpt lat="43.50946654950195" lon="10.617203691972282"><ele>286.0</ele><time>2026-04-19T15:07:12.999Z</time></trkpt><trkpt lat="43.509405504145214" lon="10.61709203239019"><ele>286.16666666666663</ele><time>2026-04-19T15:07:13.999Z</time></trkpt><trkpt lat="43.50934936785953" lon="10.616987051009442"><ele>286.3333333333333</ele><time>2026-04-19T15:07:14.999Z</time></trkpt><trkpt lat="43.50929913469038" lon="10.61688986838088"><ele>286.5</ele><time>2026-04-19T15:07:15.999Z</time></trkpt><trkpt lat="43.509252074856754" lon="10.616805317003665"><ele>286.6666666666667</ele><time>2026-04-19T15:07:16.999Z</time></trkpt><trkpt lat="43.509208339348994" lon="10.616722867483285"><ele>286.83333333333337</ele><time>2026-04-19T15:07:17.999Z</time></trkpt><trkpt lat="43.50916544317658" lon="10.616640995326884"><ele>287.0</ele><time>2026-04-19T15:07:18.999Z</time></trkpt><trkpt lat="43.5091277376476" lon="10.61656536367891"><ele>288.25</ele><time>2026-04-19T15:07:19.999Z</time></trkpt><trkpt lat="43.50907347734881" lon="10.616430609987058"><ele>289.5</ele><time>2026-04-19T15:07:21.999Z</time></trkpt><trkpt lat="43.50906430667299" lon="10.616333544202144"><ele>290.75</ele><time>2026-04-19T15:07:23.999Z</time></trkpt><trkpt lat="43.50889517455555" lon="10.616379847886853"><ele>292.0</ele><time>2026-04-19T15:07:30Z</time></trkpt><trkpt lat="43.50881308858897" lon="10.616486648690914"><ele>292.0</ele><time>2026-04-19T15:07:32Z</time></trkpt><trkpt lat="43.50876718237909" lon="10.616548120913398"><ele>292.0</ele><time>2026-04-19T15:07:33Z</time></trkpt><trkpt lat="43.5087161739728" lon="10.616613431538502"><ele>292.0</ele><time>2026-04-19T15:07:34Z</time></trkpt><trkpt lat="43.508661450447875" lon="10.616680926913421"><ele>292.0</ele><time>2026-04-19T15:07:35Z</time></trkpt><trkpt lat="43.508604583215636" lon="10.616749974662836"><ele>292.0</ele><time>2026-04-19T15:07:36Z</time></trkpt><trkpt lat="43.50854982413626" lon="10.61681620264214"><ele>292.0</ele><time>2026-04-19T15:07:37Z</time></trkpt><trkpt lat="43.50849998130723" lon="10.616884133488055"><ele>292.0</ele><time>2026-04-19T15:07:38Z</time></trkpt><trkpt lat="43.508440670780416" lon="10.61693572856805"><ele>291.57142857142856</ele><time>2026-04-19T15:07:39Z</time></trkpt><trkpt lat="43.50839561573397" lon="10.617005956063421"><ele>291.14285714285717</ele><time>2026-04-19T15:07:40Z</time></trkpt><trkpt lat="43.50835079688814" lon="10.617079392459155"><ele>290.7142857142857</ele><time>2026-04-19T15:07:41Z</time></trkpt><trkpt lat="43.50831691999815" lon="10.617171437723913"><ele>290.2857142857143</ele><time>2026-04-19T15:07:42Z</time></trkpt><trkpt lat="43.50827160310532" lon="10.617246540265773"><ele>289.85714285714283</ele><time>2026-04-19T15:07:43Z</time></trkpt><trkpt lat="43.50823844828334" lon="10.617334204833083"><ele>289.42857142857144</ele><time>2026-04-19T15:07:44Z</time></trkpt><trkpt lat="43.50820718179424" lon="10.61742738924592"><ele>289.0</ele><time>2026-04-19T15:07:45Z</time></trkpt><trkpt lat="43.50817601191992" lon="10.617519880953207"><ele>289.0</ele><time>2026-04-19T15:07:46Z</time></trkpt><trkpt lat="43.508147081357315" lon="10.61760370520491"><ele>289.0</ele><time>2026-04-19T15:07:47Z</time></trkpt><trkpt lat="43.50811180033653" lon="10.617688362570417"><ele>289.0</ele><time>2026-04-19T15:07:49Z</time></trkpt><trkpt lat="43.50807518821176" lon="10.617788621989673"><ele>289.0</ele><time>2026-04-19T15:07:51Z</time></trkpt><trkpt lat="43.5080278242672" lon="10.617912719105776"><ele>289.0</ele><time>2026-04-19T15:07:53Z</time></trkpt><trkpt lat="43.50798091654338" lon="10.6180198791158"><ele>289.0</ele><time>2026-04-19T15:07:55Z</time></trkpt><trkpt lat="43.507950220014585" lon="10.618126267761413"><ele>288.3333333333333</ele><time>2026-04-19T15:08:02Z</time></trkpt><trkpt lat="43.50790203832984" lon="10.618206299286921"><ele>287.66666666666663</ele><time>2026-04-19T15:08:04Z</time></trkpt><trkpt lat="43.50784383027005" lon="10.618329286339158"><ele>287.0</ele><time>2026-04-19T15:08:06Z</time></trkpt><trkpt lat="43.507798992122524" lon="10.618402026587843"><ele>286.3333333333333</ele><time>2026-04-19T15:08:07Z</time></trkpt><trkpt lat="43.50774768099451" lon="10.618477811249084"><ele>285.6666666666667</ele><time>2026-04-19T15:08:08Z</time></trkpt><trkpt lat="43.50768075436493" lon="10.618533652957002"><ele>285.0</ele><time>2026-04-19T15:08:09Z</time></trkpt><trkpt lat="43.507614662312164" lon="10.618593423104313"><ele>285.0</ele><time>2026-04-19T15:08:10Z</time></trkpt><trkpt lat="43.50754422558055" lon="10.618650584341237"><ele>285.0</ele><time>2026-04-19T15:08:11Z</time></trkpt><trkpt lat="43.50746949219591" lon="10.618702844899863"><ele>285.0</ele><time>2026-04-19T15:08:12Z</time></trkpt><trkpt lat="43.507395465835714" lon="10.618752908230356"><ele>285.0</ele><time>2026-04-19T15:08:13Z</time></trkpt><trkpt lat="43.50731635469766" lon="10.618768657270932"><ele>285.0</ele><time>2026-04-19T15:08:14Z</time></trkpt><trkpt lat="43.50723316806353" lon="10.61881097026179"><ele>285.0</ele><time>2026-04-19T15:08:14.998Z</time></trkpt><trkpt lat="43.50714916338868" lon="10.61887496738135"><ele>285.8</ele><time>2026-04-19T15:08:15.998Z</time></trkpt><trkpt lat="43.50706877673578" lon="10.618953462283617"><ele>286.6</ele><time>2026-04-19T15:08:16.998Z</time></trkpt><trkpt lat="43.50700641713972" lon="10.619028042099913"><ele>287.4</ele><time>2026-04-19T15:08:17.998Z</time></trkpt><trkpt lat="43.50695867703753" lon="10.619094501249371"><ele>288.2</ele><time>2026-04-19T15:08:18.998Z</time></trkpt><trkpt lat="43.506862056516" lon="10.619188692836868"><ele>289.0</ele><time>2026-04-19T15:08:20.998Z</time></trkpt><trkpt lat="43.50676334391951" lon="10.619254914482557"><ele>289.0</ele><time>2026-04-19T15:08:22.998Z</time></trkpt><trkpt lat="43.50665110815511" lon="10.619305786833477"><ele>289.0</ele><time>2026-04-19T15:08:24.998Z</time></trkpt><trkpt lat="43.50658986092939" lon="10.619327353372487"><ele>289.0</ele><time>2026-04-19T15:08:25.998Z</time></trkpt><trkpt lat="43.50652344398688" lon="10.619312717345261"><ele>289.0</ele><time>2026-04-19T15:08:26.998Z</time></trkpt><trkpt lat="43.50645850445127" lon="10.619325652102832"><ele>289.0</ele><time>2026-04-19T15:08:27.998Z</time></trkpt><trkpt lat="43.506394860928495" lon="10.619303494889087"><ele>289.0</ele><time>2026-04-19T15:08:28.998Z</time></trkpt><trkpt lat="43.50632949499442" lon="10.619300685414895"><ele>289.0</ele><time>2026-04-19T15:08:29.998Z</time></trkpt><trkpt lat="43.50626400334625" lon="10.619308759605692"><ele>290.57142857142856</ele><time>2026-04-19T15:08:30.998Z</time></trkpt><trkpt lat="43.50619864285871" lon="10.61933003608349"><ele>292.1428571428571</ele><time>2026-04-19T15:08:31.999Z</time></trkpt><trkpt lat="43.50613235558145" lon="10.619332667929342"><ele>293.71428571428567</ele><time>2026-04-19T15:08:32.999Z</time></trkpt><trkpt lat="43.50606853490882" lon="10.619353166895726"><ele>295.2857142857143</ele><time>2026-04-19T15:08:33.999Z</time></trkpt><trkpt lat="43.506005755492524" lon="10.619373331490674"><ele>296.85714285714283</ele><time>2026-04-19T15:08:34.999Z</time></trkpt><trkpt lat="43.505937284381936" lon="10.619395894807786"><ele>298.4285714285714</ele><time>2026-04-19T15:08:35.999Z</time></trkpt><trkpt lat="43.505869494650234" lon="10.619441044566871"><ele>300.0</ele><time>2026-04-19T15:08:36.999Z</time></trkpt><trkpt lat="43.50579600709577" lon="10.619446032799875"><ele>300.0</ele><time>2026-04-19T15:08:37.999Z</time></trkpt><trkpt lat="43.505725855968876" lon="10.619480017584078"><ele>300.0</ele><time>2026-04-19T15:08:38.999Z</time></trkpt><trkpt lat="43.50565225371889" lon="10.619443898557673"><ele>300.0</ele><time>2026-04-19T15:08:39.999Z</time></trkpt><trkpt lat="43.50557551596061" lon="10.619409367883172"><ele>300.0</ele><time>2026-04-19T15:08:40.999Z</time></trkpt><trkpt lat="43.505490464691874" lon="10.61939990435178"><ele>300.0</ele><time>2026-04-19T15:08:41.999Z</time></trkpt><trkpt lat="43.505406961937666" lon="10.619364875964878"><ele>300.0</ele><time>2026-04-19T15:08:42.999Z</time></trkpt><trkpt lat="43.50532564784127" lon="10.619340679690469"><ele>301.2857142857143</ele><time>2026-04-19T15:08:43.999Z</time></trkpt><trkpt lat="43.505254973589636" lon="10.619318590764228"><ele>302.57142857142856</ele><time>2026-04-19T15:08:44.999Z</time></trkpt><trkpt lat="43.505162722132326" lon="10.619353456446236"><ele>303.8571428571429</ele><time>2026-04-19T15:08:46.999Z</time></trkpt><trkpt lat="43.5051275660721" lon="10.619427539234024"><ele>305.1428571428571</ele><time>2026-04-19T15:08:47.999Z</time></trkpt><trkpt lat="43.50510352229326" lon="10.619512498528758"><ele>306.42857142857144</ele><time>2026-04-19T15:08:48.999Z</time></trkpt><trkpt lat="43.50507609939439" lon="10.619599636420453"><ele>307.7142857142857</ele><time>2026-04-19T15:08:49.999Z</time></trkpt><trkpt lat="43.50504653871371" lon="10.619703383534095"><ele>309.0</ele><time>2026-04-19T15:08:50.999Z</time></trkpt><trkpt lat="43.50502432945187" lon="10.619791138584265"><ele>309.0</ele><time>2026-04-19T15:08:51.999Z</time></trkpt><trkpt lat="43.504938636219244" lon="10.619909777368886"><ele>309.0</ele><time>2026-04-19T15:08:53.999Z</time></trkpt><trkpt lat="43.504901559096474" lon="10.62000997907594"><ele>309.0</ele><time>2026-04-19T15:08:55.999Z</time></trkpt><trkpt lat="43.50482048887366" lon="10.619997576416308"><ele>309.0</ele><time>2026-04-19T15:13:09.001Z</time></trkpt><trkpt lat="43.50476686162746" lon="10.620066358976791"><ele>309.0</ele><time>2026-04-19T15:13:11.001Z</time></trkpt><trkpt lat="43.50480435325732" lon="10.620157034419735"><ele>309.0</ele><time>2026-04-19T15:13:14.001Z</time></trkpt><trkpt lat="43.504860735801145" lon="10.619957749569734"><ele>309.00000000000006</ele><time>2026-04-19T15:13:20.001Z</time></trkpt><trkpt lat="43.50492391197957" lon="10.619913784582652"><ele>309.0</ele><time>2026-04-19T15:13:39.001Z</time></trkpt><trkpt lat="43.504996107943064" lon="10.619880401818321"><ele>309.0</ele><time>2026-04-19T15:13:42.001Z</time></trkpt><trkpt lat="43.50503878227975" lon="10.619816336223671"><ele>309.0</ele><time>2026-04-19T15:13:44.001Z</time></trkpt><trkpt lat="43.50507157576718" lon="10.619734757610283"><ele>309.0</ele><time>2026-04-19T15:13:47.002Z</time></trkpt><trkpt lat="43.5050984017687" lon="10.619636331672726"><ele>309.00000000000006</ele><time>2026-04-19T15:13:49.002Z</time></trkpt><trkpt lat="43.505124880811586" lon="10.619545510237717"><ele>309.0</ele><time>2026-04-19T15:13:51.002Z</time></trkpt><trkpt lat="43.505165224059745" lon="10.6194467980738"><ele>309.5</ele><time>2026-04-19T15:13:54.002Z</time></trkpt><trkpt lat="43.50521925071064" lon="10.61936145327709"><ele>310.0</ele><time>2026-04-19T15:13:57.002Z</time></trkpt><trkpt lat="43.50529791575579" lon="10.619373101167424"><ele>310.5</ele><time>2026-04-19T15:14:00.002Z</time></trkpt><trkpt lat="43.505372846842924" lon="10.619392080426003"><ele>311.0</ele><time>2026-04-19T15:14:02.002Z</time></trkpt><trkpt lat="43.5054633264897" lon="10.619419499635201"><ele>311.5</ele><time>2026-04-19T15:14:04.002Z</time></trkpt><trkpt lat="43.50556274112222" lon="10.61945146775239"><ele>312.0</ele><time>2026-04-19T15:14:06.002Z</time></trkpt><trkpt lat="43.50564997770221" lon="10.61948505070681"><ele>309.6</ele><time>2026-04-19T15:14:08.002Z</time></trkpt><trkpt lat="43.505742616058484" lon="10.619503096435668"><ele>307.2</ele><time>2026-04-19T15:14:10.002Z</time></trkpt><trkpt lat="43.5058407427407" lon="10.619462284176649"><ele>304.8</ele><time>2026-04-19T15:14:12.002Z</time></trkpt><trkpt lat="43.50593309343274" lon="10.619434006991142"><ele>302.4</ele><time>2026-04-19T15:14:14.002Z</time></trkpt><trkpt lat="43.50602406475069" lon="10.619392225195934"><ele>300.0</ele><time>2026-04-19T15:14:16.002Z</time></trkpt><trkpt lat="43.506124113362844" lon="10.619363040290205"><ele>300.0</ele><time>2026-04-19T15:14:18.002Z</time></trkpt><trkpt lat="43.50623097648628" lon="10.619327911146145"><ele>300.0</ele><time>2026-04-19T15:14:20.002Z</time></trkpt><trkpt lat="43.50631602204664" lon="10.619338588145073"><ele>300.0</ele><time>2026-04-19T15:14:22.002Z</time></trkpt><trkpt lat="43.506403900578604" lon="10.619343805246004"><ele>300.0</ele><time>2026-04-19T15:14:25.002Z</time></trkpt><trkpt lat="43.50647233382559" lon="10.619352611375497"><ele>300.0</ele><time>2026-04-19T15:14:27.002Z</time></trkpt><trkpt lat="43.50656109294944" lon="10.619357175180761"><ele>300.0</ele><time>2026-04-19T15:14:29.002Z</time></trkpt><trkpt lat="43.5066506394994" lon="10.619331789558789"><ele>298.1666666666667</ele><time>2026-04-19T15:14:31.002Z</time></trkpt><trkpt lat="43.50672450321575" lon="10.619301895565442"><ele>296.3333333333333</ele><time>2026-04-19T15:14:34.001Z</time></trkpt><trkpt lat="43.50679329976658" lon="10.619272804329965"><ele>294.5</ele><time>2026-04-19T15:14:37.001Z</time></trkpt><trkpt lat="43.50686184689799" lon="10.619240646550404"><ele>292.66666666666663</ele><time>2026-04-19T15:14:39.001Z</time></trkpt><trkpt lat="43.50694540415789" lon="10.619156796057533"><ele>290.8333333333333</ele><time>2026-04-19T15:14:41.001Z</time></trkpt><trkpt lat="43.50700869194577" lon="10.619066619180206"><ele>289.0</ele><time>2026-04-19T15:14:43.001Z</time></trkpt><trkpt lat="43.50706627042583" lon="10.618989022340132"><ele>289.0</ele><time>2026-04-19T15:14:49.001Z</time></trkpt></trkseg></trk></gpx>